<?xml version='1.0' encoding='UTF-8'?><gpx version="1.1" creator="JPX - https://github.com/jenetics/jpx" xmlns="http://www.topografix.com/GPX/1/1"><trk><trkseg><trkpt lat="45.79458490027711" lon="9.41379474370209"><ele>212.0</ele><time>2026-04-03T06:17:46.999Z</time></trkpt><trkpt lat="45.79462168543986" lon="9.413870673418392"><ele>212.0</ele><time>2026-04-03T06:17:48.999Z</time></trkpt><trkpt lat="45.79470100270483" lon="9.413841334002415"><ele>212.0</ele><time>2026-04-03T06:17:50.999Z</time></trkpt><trkpt lat="45.79477192753004" lon="9.413795991683012"><ele>212.0</ele><time>2026-04-03T06:17:52.999Z</time></trkpt><trkpt lat="45.79483705322525" lon="9.413797027352153"><ele>212.0</ele><time>2026-04-03T06:17:54.999Z</time></trkpt><trkpt lat="45.7948647782101" lon="9.413880525576909"><ele>212.0</ele><time>2026-04-03T06:17:56.999Z</time></trkpt><trkpt lat="45.794901354021015" lon="9.414002436544584"><ele>212.0</ele><time>2026-04-03T06:17:58.999Z</time></trkpt><trkpt lat="45.79494980374481" lon="9.41410371094994"><ele>212.0</ele><time>2026-04-03T06:18:00.999Z</time></trkpt><trkpt lat="45.79504405043441" lon="9.414095632488829"><ele>212.0</ele><time>2026-04-03T06:18:02.999Z</time></trkpt><trkpt lat="45.795151926629515" lon="9.414025686450945"><ele>212.0</ele><time>2026-04-03T06:18:04.999Z</time></trkpt><trkpt lat="45.79521224864397" lon="9.413991936391911"><ele>212.0</ele><time>2026-04-03T06:18:05.999Z</time></trkpt><trkpt lat="45.79527529750281" lon="9.413971841231985"><ele>212.0</ele><time>2026-04-03T06:18:06.999Z</time></trkpt><trkpt lat="45.795392317040395" lon="9.413908399949051"><ele>212.0</ele><time>2026-04-03T06:18:08.999Z</time></trkpt><trkpt lat="45.7954748706359" lon="9.413861063005454"><ele>212.0</ele><time>2026-04-03T06:18:10.999Z</time></trkpt><trkpt lat="45.79558338037339" lon="9.414053664290071"><ele>212.0</ele><time>2026-04-03T06:18:15Z</time></trkpt><trkpt lat="45.795613266797346" lon="9.414159643298511"><ele>212.0</ele><time>2026-04-03T06:18:16Z</time></trkpt><trkpt lat="45.79564466538292" lon="9.414267782077939"><ele>212.0</ele><time>2026-04-03T06:18:17Z</time></trkpt><trkpt lat="45.795683262669044" lon="9.414384663521052"><ele>212.00000000000003</ele><time>2026-04-03T06:18:18Z</time></trkpt><trkpt lat="45.795728768365464" lon="9.414491788979335"><ele>212.0</ele><time>2026-04-03T06:18:19Z</time></trkpt><trkpt lat="45.795768253541006" lon="9.414598633072497"><ele>212.0</ele><time>2026-04-03T06:18:20Z</time></trkpt><trkpt lat="45.795816385145116" lon="9.414717251020372"><ele>212.0</ele><time>2026-04-03T06:18:21Z</time></trkpt><trkpt lat="45.79585995383895" lon="9.414822895813039"><ele>212.00000000000003</ele><time>2026-04-03T06:18:22Z</time></trkpt><trkpt lat="45.79589925589201" lon="9.414925778737805"><ele>212.0</ele><time>2026-04-03T06:18:23Z</time></trkpt><trkpt lat="45.79593602285233" lon="9.41502092894366"><ele>210.8</ele><time>2026-04-03T06:18:24Z</time></trkpt><trkpt lat="45.79600589368147" lon="9.415159048897388"><ele>209.6</ele><time>2026-04-03T06:18:26Z</time></trkpt><trkpt lat="45.79589947992579" lon="9.41528753069047"><ele>208.4</ele><time>2026-04-03T06:18:31Z</time></trkpt><trkpt lat="45.79582549053427" lon="9.415312382024242"><ele>207.20000000000002</ele><time>2026-04-03T06:18:32Z</time></trkpt><trkpt lat="45.79575037210161" lon="9.415345745686741"><ele>206.0</ele><time>2026-04-03T06:18:33Z</time></trkpt><trkpt lat="45.79566631807401" lon="9.415382053813316"><ele>206.0</ele><time>2026-04-03T06:18:34Z</time></trkpt><trkpt lat="45.79557786414943" lon="9.415415079772131"><ele>206.0</ele><time>2026-04-03T06:18:35Z</time></trkpt><trkpt lat="45.795488422023595" lon="9.41545122013232"><ele>206.0</ele><time>2026-04-03T06:18:36Z</time></trkpt><trkpt lat="45.79539159969658" lon="9.415488868857748"><ele>206.0</ele><time>2026-04-03T06:18:37Z</time></trkpt><trkpt lat="45.79529836738819" lon="9.41553341414632"><ele>206.0</ele><time>2026-04-03T06:18:38Z</time></trkpt><trkpt lat="45.79520100594193" lon="9.415578071336425"><ele>205.60000000000002</ele><time>2026-04-03T06:18:39Z</time></trkpt><trkpt lat="45.795102630314936" lon="9.415618463868771"><ele>205.2</ele><time>2026-04-03T06:18:40Z</time></trkpt><trkpt lat="45.794999134026796" lon="9.415657769056745"><ele>204.8</ele><time>2026-04-03T06:18:41Z</time></trkpt><trkpt lat="45.79489513923313" lon="9.415699205790213"><ele>204.39999999999998</ele><time>2026-04-03T06:18:42Z</time></trkpt><trkpt lat="45.79479038216691" lon="9.41574419003809"><ele>204.0</ele><time>2026-04-03T06:18:43Z</time></trkpt><trkpt lat="45.79468246610224" lon="9.415793613055428"><ele>204.0</ele><time>2026-04-03T06:18:44Z</time></trkpt><trkpt lat="45.794571923408924" lon="9.415838187800247"><ele>204.0</ele><time>2026-04-03T06:18:45Z</time></trkpt><trkpt lat="45.79446137318146" lon="9.415882222666928"><ele>204.0</ele><time>2026-04-03T06:18:46Z</time></trkpt><trkpt lat="45.79434895598393" lon="9.415932098032222"><ele>204.0</ele><time>2026-04-03T06:18:47Z</time></trkpt><trkpt lat="45.794233919846576" lon="9.415979024694689"><ele>204.5</ele><time>2026-04-03T06:18:48Z</time></trkpt><trkpt lat="45.79412294460647" lon="9.41602619053099"><ele>205.0</ele><time>2026-04-03T06:18:49Z</time></trkpt><trkpt lat="45.7940090433426" lon="9.416072561937446"><ele>205.5</ele><time>2026-04-03T06:18:50Z</time></trkpt><trkpt lat="45.793896615812244" lon="9.416116014820066"><ele>206.0</ele><time>2026-04-03T06:18:51Z</time></trkpt><trkpt lat="45.79378299328435" lon="9.416163021864993"><ele>206.0</ele><time>2026-04-03T06:18:52Z</time></trkpt><trkpt lat="45.793665910167604" lon="9.416208674572138"><ele>206.0</ele><time>2026-04-03T06:18:53Z</time></trkpt><trkpt lat="45.793558127975245" lon="9.416250436376567"><ele>206.0</ele><time>2026-04-03T06:18:54Z</time></trkpt><trkpt lat="45.79345544936433" lon="9.416294831190184"><ele>206.0</ele><time>2026-04-03T06:18:55Z</time></trkpt><trkpt lat="45.79334802263096" lon="9.416337344186976"><ele>205.20000000000002</ele><time>2026-04-03T06:18:56Z</time></trkpt><trkpt lat="45.79324029161062" lon="9.416384192744594"><ele>204.4</ele><time>2026-04-03T06:18:57Z</time></trkpt><trkpt lat="45.793138592187084" lon="9.416426693370905"><ele>203.6</ele><time>2026-04-03T06:18:58Z</time></trkpt><trkpt lat="45.79303798590569" lon="9.416480929932932"><ele>202.8</ele><time>2026-04-03T06:18:59Z</time></trkpt><trkpt lat="45.792921262526775" lon="9.41651287116646"><ele>202.0</ele><time>2026-04-03T06:19:00Z</time></trkpt><trkpt lat="45.792805346533" lon="9.416558967594478"><ele>202.0</ele><time>2026-04-03T06:19:01Z</time></trkpt><trkpt lat="45.79268901301382" lon="9.416612191332383"><ele>202.0</ele><time>2026-04-03T06:19:02Z</time></trkpt><trkpt lat="45.79256836414153" lon="9.416660241341996"><ele>202.0</ele><time>2026-04-03T06:19:03Z</time></trkpt><trkpt lat="45.792443308206" lon="9.416705514931726"><ele>202.0</ele><time>2026-04-03T06:19:04Z</time></trkpt><trkpt lat="45.792322629485675" lon="9.416755953406188"><ele>203.0</ele><time>2026-04-03T06:19:05Z</time></trkpt><trkpt lat="45.79220034864923" lon="9.416809581062818"><ele>204.0</ele><time>2026-04-03T06:19:06Z</time></trkpt><trkpt lat="45.79207992535043" lon="9.41687103648312"><ele>205.0</ele><time>2026-04-03T06:19:07Z</time></trkpt><trkpt lat="45.79196217977149" lon="9.41693855559938"><ele>206.0</ele><time>2026-04-03T06:19:08Z</time></trkpt><trkpt lat="45.79184453794464" lon="9.41701196438192"><ele>206.0</ele><time>2026-04-03T06:19:09Z</time></trkpt><trkpt lat="45.79173200162964" lon="9.417085076346602"><ele>206.0</ele><time>2026-04-03T06:19:10Z</time></trkpt><trkpt lat="45.791619973831615" lon="9.417167835245378"><ele>206.0</ele><time>2026-04-03T06:19:11Z</time></trkpt><trkpt lat="45.791514334089975" lon="9.417250847619856"><ele>206.0</ele><time>2026-04-03T06:19:12Z</time></trkpt><trkpt lat="45.791409809949045" lon="9.417338919297817"><ele>205.75</ele><time>2026-04-03T06:19:13Z</time></trkpt><trkpt lat="45.79130467505045" lon="9.417425049607095"><ele>205.5</ele><time>2026-04-03T06:19:14Z</time></trkpt><trkpt lat="45.79120081909321" lon="9.417510514657511"><ele>205.25</ele><time>2026-04-03T06:19:15Z</time></trkpt><trkpt lat="45.79109826741906" lon="9.417589890411977"><ele>205.0</ele><time>2026-04-03T06:19:16Z</time></trkpt><trkpt lat="45.79099848111373" lon="9.417668883654738"><ele>205.5</ele><time>2026-04-03T06:19:17Z</time></trkpt><trkpt lat="45.79089913380525" lon="9.417748949621473"><ele>206.0</ele><time>2026-04-03T06:19:18Z</time></trkpt><trkpt lat="45.79079955494606" lon="9.41783256540497"><ele>206.5</ele><time>2026-04-03T06:19:19Z</time></trkpt><trkpt lat="45.79070043529318" lon="9.417915579716094"><ele>207.0</ele><time>2026-04-03T06:19:20Z</time></trkpt><trkpt lat="45.79060366355389" lon="9.417997974918235"><ele>207.0</ele><time>2026-04-03T06:19:21Z</time></trkpt><trkpt lat="45.790505153442204" lon="9.418081695528123"><ele>207.0</ele><time>2026-04-03T06:19:22Z</time></trkpt><trkpt lat="45.79040599330559" lon="9.418167023157283"><ele>207.0</ele><time>2026-04-03T06:19:23Z</time></trkpt><trkpt lat="45.790307554521135" lon="9.418249609161437"><ele>207.0</ele><time>2026-04-03T06:19:24Z</time></trkpt><trkpt lat="45.79020973667694" lon="9.418330065964003"><ele>207.5</ele><time>2026-04-03T06:19:25Z</time></trkpt><trkpt lat="45.790122058429034" lon="9.418403219624288"><ele>208.0</ele><time>2026-04-03T06:19:26Z</time></trkpt><trkpt lat="45.79004101993327" lon="9.418472355295156"><ele>208.5</ele><time>2026-04-03T06:19:27Z</time></trkpt><trkpt lat="45.789969158836385" lon="9.418524319391127"><ele>209.0</ele><time>2026-04-03T06:19:28Z</time></trkpt><trkpt lat="45.78990196982979" lon="9.418554284091387"><ele>209.5</ele><time>2026-04-03T06:19:29Z</time></trkpt><trkpt lat="45.789827884664966" lon="9.418562571462141"><ele>210.0</ele><time>2026-04-03T06:19:30Z</time></trkpt><trkpt lat="45.789758483425494" lon="9.418527879297827"><ele>210.0</ele><time>2026-04-03T06:19:31Z</time></trkpt><trkpt lat="45.78970139468801" lon="9.418455794935928"><ele>210.0</ele><time>2026-04-03T06:19:32Z</time></trkpt><trkpt lat="45.78965295271253" lon="9.418383119727574"><ele>210.0</ele><time>2026-04-03T06:19:33Z</time></trkpt><trkpt lat="45.78959276927176" lon="9.418343368563237"><ele>210.0</ele><time>2026-04-03T06:19:34Z</time></trkpt><trkpt lat="45.78951991257609" lon="9.418359057672538"><ele>210.0</ele><time>2026-04-03T06:19:35Z</time></trkpt><trkpt lat="45.789452666746186" lon="9.418437273672357"><ele>210.0</ele><time>2026-04-03T06:19:36Z</time></trkpt><trkpt lat="45.789400776953" lon="9.418547988848653"><ele>210.0</ele><time>2026-04-03T06:19:37Z</time></trkpt><trkpt lat="45.78935044104988" lon="9.41866574816638"><ele>210.0</ele><time>2026-04-03T06:19:38Z</time></trkpt><trkpt lat="45.7892869770854" lon="9.41878001900665"><ele>210.0</ele><time>2026-04-03T06:19:38.999Z</time></trkpt><trkpt lat="45.789201264378384" lon="9.41887766293679"><ele>210.0</ele><time>2026-04-03T06:19:39.999Z</time></trkpt><trkpt lat="45.789108924867016" lon="9.418973237051857"><ele>210.0</ele><time>2026-04-03T06:19:40.999Z</time></trkpt><trkpt lat="45.78901484015128" lon="9.419093593871251"><ele>210.5</ele><time>2026-04-03T06:19:41.999Z</time></trkpt><trkpt lat="45.78892101069457" lon="9.419217366228066"><ele>211.0</ele><time>2026-04-03T06:19:42.999Z</time></trkpt><trkpt lat="45.788827398699624" lon="9.419338209913704"><ele>211.5</ele><time>2026-04-03T06:19:43.999Z</time></trkpt><trkpt lat="45.78872689424789" lon="9.419463725127445"><ele>212.0</ele><time>2026-04-03T06:19:44.999Z</time></trkpt><trkpt lat="45.78861929208385" lon="9.419586508512406"><ele>212.5</ele><time>2026-04-03T06:19:45.999Z</time></trkpt><trkpt lat="45.78850054707725" lon="9.419700602929096"><ele>213.0</ele><time>2026-04-03T06:19:46.999Z</time></trkpt><trkpt lat="45.78837344467818" lon="9.419812083228052"><ele>213.5</ele><time>2026-04-03T06:19:47.999Z</time></trkpt><trkpt lat="45.78824108409623" lon="9.419917643791013"><ele>214.0</ele><time>2026-04-03T06:19:48.999Z</time></trkpt><trkpt lat="45.788104149154286" lon="9.420024995371396"><ele>214.0</ele><time>2026-04-03T06:19:49.999Z</time></trkpt><trkpt lat="45.787977388271905" lon="9.42012879420028"><ele>214.0</ele><time>2026-04-03T06:19:50.999Z</time></trkpt><trkpt lat="45.78784601255076" lon="9.420243178042192"><ele>214.0</ele><time>2026-04-03T06:19:51.999Z</time></trkpt><trkpt lat="45.787718542152746" lon="9.420349006715616"><ele>214.0</ele><time>2026-04-03T06:19:52.999Z</time></trkpt><trkpt lat="45.78759157777855" lon="9.420451900724254"><ele>214.0</ele><time>2026-04-03T06:19:53.999Z</time></trkpt><trkpt lat="45.78746873110501" lon="9.420553659005607"><ele>214.0</ele><time>2026-04-03T06:19:54.999Z</time></trkpt><trkpt lat="45.78734555321438" lon="9.42065227141361"><ele>214.0</ele><time>2026-04-03T06:19:55.999Z</time></trkpt><trkpt lat="45.78722579065513" lon="9.420753659542386"><ele>214.0</ele><time>2026-04-03T06:19:56.999Z</time></trkpt><trkpt lat="45.78710948181287" lon="9.420845585383608"><ele>214.0</ele><time>2026-04-03T06:19:57.999Z</time></trkpt><trkpt lat="45.78699289120464" lon="9.42094161559104"><ele>214.0</ele><time>2026-04-03T06:19:58.999Z</time></trkpt><trkpt lat="45.78687673551372" lon="9.421034864638477"><ele>214.0</ele><time>2026-04-03T06:19:59.999Z</time></trkpt><trkpt lat="45.7867671118483" lon="9.421127259813314"><ele>214.0</ele><time>2026-04-03T06:20:00.999Z</time></trkpt><trkpt lat="45.78665825593361" lon="9.421220132694938"><ele>214.25</ele><time>2026-04-03T06:20:01.999Z</time></trkpt><trkpt lat="45.78655086006759" lon="9.421307378173296"><ele>214.5</ele><time>2026-04-03T06:20:02.999Z</time></trkpt><trkpt lat="45.78644471142325" lon="9.421393347687072"><ele>214.75</ele><time>2026-04-03T06:20:03.999Z</time></trkpt><trkpt lat="45.786339849193894" lon="9.421477509435638"><ele>215.0</ele><time>2026-04-03T06:20:04.999Z</time></trkpt><trkpt lat="45.786237484582465" lon="9.421564290448133"><ele>215.0</ele><time>2026-04-03T06:20:05.999Z</time></trkpt><trkpt lat="45.78613484094141" lon="9.421649496447259"><ele>215.0</ele><time>2026-04-03T06:20:06.999Z</time></trkpt><trkpt lat="45.78603369616201" lon="9.421736417993491"><ele>215.0</ele><time>2026-04-03T06:20:07.999Z</time></trkpt><trkpt lat="45.78593420227442" lon="9.421820628044044"><ele>215.0</ele><time>2026-04-03T06:20:08.999Z</time></trkpt><trkpt lat="45.78583035102674" lon="9.421902117176394"><ele>215.5</ele><time>2026-04-03T06:20:09.999Z</time></trkpt><trkpt lat="45.78572752490767" lon="9.421982255362327"><ele>216.0</ele><time>2026-04-03T06:20:10.999Z</time></trkpt><trkpt lat="45.785624485687045" lon="9.422066332489674"><ele>216.5</ele><time>2026-04-03T06:20:11.999Z</time></trkpt><trkpt lat="45.785524163983176" lon="9.422152310178959"><ele>217.0</ele><time>2026-04-03T06:20:12.999Z</time></trkpt><trkpt lat="45.78542741899167" lon="9.42223384763266"><ele>217.0</ele><time>2026-04-03T06:20:13.999Z</time></trkpt><trkpt lat="45.785341092188695" lon="9.422307531908654"><ele>217.0</ele><time>2026-04-03T06:20:14.999Z</time></trkpt><trkpt lat="45.78526590238921" lon="9.422370851242153"><ele>217.0</ele><time>2026-04-03T06:20:15.999Z</time></trkpt><trkpt lat="45.78516643776482" lon="9.422448620154363"><ele>217.0</ele><time>2026-04-03T06:20:17.999Z</time></trkpt><trkpt lat="45.78509328543553" lon="9.422514166259294"><ele>217.0</ele><time>2026-04-03T06:20:20Z</time></trkpt><trkpt lat="45.785029154028756" lon="9.422564162964221"><ele>217.66666666666666</ele><time>2026-04-03T06:20:22Z</time></trkpt><trkpt lat="45.78495330653022" lon="9.422618911223935"><ele>218.33333333333331</ele><time>2026-04-03T06:20:24Z</time></trkpt><trkpt lat="45.784873002584845" lon="9.422677640818847"><ele>219.0</ele><time>2026-04-03T06:20:26Z</time></trkpt><trkpt lat="45.784808884747456" lon="9.422712137930317"><ele>219.66666666666669</ele><time>2026-04-03T06:20:28Z</time></trkpt><trkpt lat="45.78473530876112" lon="9.422726074135342"><ele>220.33333333333334</ele><time>2026-04-03T06:20:30Z</time></trkpt><trkpt lat="45.78465257538579" lon="9.422699862428559"><ele>221.0</ele><time>2026-04-03T06:20:32Z</time></trkpt><trkpt lat="45.78456445680922" lon="9.422720229443064"><ele>221.0</ele><time>2026-04-03T06:20:34Z</time></trkpt><trkpt lat="45.78452732092061" lon="9.422820208517475"><ele>221.00000000000003</ele><time>2026-04-03T06:20:36Z</time></trkpt><trkpt lat="45.78449028143221" lon="9.42294723829835"><ele>221.00000000000003</ele><time>2026-04-03T06:20:38Z</time></trkpt><trkpt lat="45.78440120290116" lon="9.423081683321044"><ele>221.0</ele><time>2026-04-03T06:20:40Z</time></trkpt><trkpt lat="45.78433812907881" lon="9.423140410092083"><ele>221.0</ele><time>2026-04-03T06:20:41Z</time></trkpt><trkpt lat="45.784266177266105" lon="9.423198457887528"><ele>220.83333333333334</ele><time>2026-04-03T06:20:42Z</time></trkpt><trkpt lat="45.78419807940174" lon="9.42324656916031"><ele>220.66666666666669</ele><time>2026-04-03T06:20:43Z</time></trkpt><trkpt lat="45.784131137166234" lon="9.423296057625553"><ele>220.5</ele><time>2026-04-03T06:20:44Z</time></trkpt><trkpt lat="45.78406587232879" lon="9.423344958712164"><ele>220.33333333333331</ele><time>2026-04-03T06:20:45Z</time></trkpt><trkpt lat="45.78400451894308" lon="9.423391171507308"><ele>220.16666666666666</ele><time>2026-04-03T06:20:46Z</time></trkpt><trkpt lat="45.78393574797542" lon="9.423440340191947"><ele>220.0</ele><time>2026-04-03T06:20:47Z</time></trkpt><trkpt lat="45.78386092537863" lon="9.423489665368173"><ele>220.0</ele><time>2026-04-03T06:20:48Z</time></trkpt><trkpt lat="45.783781944287654" lon="9.423540180231258"><ele>220.0</ele><time>2026-04-03T06:20:49Z</time></trkpt><trkpt lat="45.7837019611509" lon="9.423590711726362"><ele>220.0</ele><time>2026-04-03T06:20:50Z</time></trkpt><trkpt lat="45.78361273505408" lon="9.423644270827873"><ele>220.0</ele><time>2026-04-03T06:20:51Z</time></trkpt><trkpt lat="45.783520158838535" lon="9.4236905304633"><ele>220.0</ele><time>2026-04-03T06:20:52Z</time></trkpt><trkpt lat="45.78342348732813" lon="9.423728979992699"><ele>220.4</ele><time>2026-04-03T06:20:53Z</time></trkpt><trkpt lat="45.783323863815305" lon="9.42376196582253"><ele>220.8</ele><time>2026-04-03T06:20:54Z</time></trkpt><trkpt lat="45.78322243043489" lon="9.423793565924491"><ele>221.2</ele><time>2026-04-03T06:20:55Z</time></trkpt><trkpt lat="45.78311773276865" lon="9.423823469889436"><ele>221.6</ele><time>2026-04-03T06:20:56Z</time></trkpt><trkpt lat="45.78301266771676" lon="9.423855056390233"><ele>222.0</ele><time>2026-04-03T06:20:57Z</time></trkpt><trkpt lat="45.78290269267826" lon="9.423882958551156"><ele>222.2</ele><time>2026-04-03T06:20:58Z</time></trkpt><trkpt lat="45.7827934118641" lon="9.423909480924227"><ele>222.39999999999998</ele><time>2026-04-03T06:20:59Z</time></trkpt><trkpt lat="45.782689785313146" lon="9.423938245638496"><ele>222.60000000000002</ele><time>2026-04-03T06:21:00Z</time></trkpt><trkpt lat="45.7825953376038" lon="9.423967577408712"><ele>222.8</ele><time>2026-04-03T06:21:01Z</time></trkpt><trkpt lat="45.782505839116205" lon="9.423994607807096"><ele>223.0</ele><time>2026-04-03T06:21:02Z</time></trkpt><trkpt lat="45.78242347339809" lon="9.424019324774656"><ele>222.99999999999997</ele><time>2026-04-03T06:21:03Z</time></trkpt><trkpt lat="45.78234724528326" lon="9.424038118124791"><ele>223.0</ele><time>2026-04-03T06:21:04Z</time></trkpt><trkpt lat="45.78228324930801" lon="9.424060565664865"><ele>223.0</ele><time>2026-04-03T06:21:05Z</time></trkpt><trkpt lat="45.78218113081675" lon="9.424082146710106"><ele>223.0</ele><time>2026-04-03T06:21:07Z</time></trkpt><trkpt lat="45.78208983738129" lon="9.424084464766326"><ele>222.99999999999997</ele><time>2026-04-03T06:21:09Z</time></trkpt><trkpt lat="45.781983730370165" lon="9.424065027092773"><ele>223.0</ele><time>2026-04-03T06:21:11Z</time></trkpt><trkpt lat="45.781877158055806" lon="9.424085322354845"><ele>222.4</ele><time>2026-04-03T06:21:13Z</time></trkpt><trkpt lat="45.78176974001166" lon="9.424157980157553"><ele>221.8</ele><time>2026-04-03T06:21:15Z</time></trkpt><trkpt lat="45.78169461779785" lon="9.424202789236952"><ele>221.2</ele><time>2026-04-03T06:21:16Z</time></trkpt><trkpt lat="45.78160747546204" lon="9.424234776051634"><ele>220.6</ele><time>2026-04-03T06:21:17Z</time></trkpt><trkpt lat="45.781511513127036" lon="9.424263672855146"><ele>220.0</ele><time>2026-04-03T06:21:18Z</time></trkpt><trkpt lat="45.78140967001345" lon="9.424289172160627"><ele>220.0</ele><time>2026-04-03T06:21:19Z</time></trkpt><trkpt lat="45.78130460934096" lon="9.424315934464474"><ele>220.0</ele><time>2026-04-03T06:21:20Z</time></trkpt><trkpt lat="45.78120289400771" lon="9.424341712910383"><ele>220.0</ele><time>2026-04-03T06:21:20.999Z</time></trkpt><trkpt lat="45.78110481682934" lon="9.424367414274204"><ele>220.0</ele><time>2026-04-03T06:21:21.999Z</time></trkpt><trkpt lat="45.78101212694362" lon="9.424389877419303"><ele>220.0</ele><time>2026-04-03T06:21:22.999Z</time></trkpt><trkpt lat="45.78092284681501" lon="9.424411853266134"><ele>220.16666666666666</ele><time>2026-04-03T06:21:23.999Z</time></trkpt><trkpt lat="45.78082987171026" lon="9.424433484830153"><ele>220.33333333333331</ele><time>2026-04-03T06:21:24.999Z</time></trkpt><trkpt lat="45.780739759418736" lon="9.424458308336613"><ele>220.5</ele><time>2026-04-03T06:21:25.999Z</time></trkpt><trkpt lat="45.780673182008805" lon="9.424480989262388"><ele>220.66666666666669</ele><time>2026-04-03T06:21:26.999Z</time></trkpt><trkpt lat="45.780590931418956" lon="9.42450926448374"><ele>220.83333333333334</ele><time>2026-04-03T06:21:28.999Z</time></trkpt><trkpt lat="45.78049501464558" lon="9.42454346749534"><ele>221.0</ele><time>2026-04-03T06:21:31.999Z</time></trkpt><trkpt lat="45.780388830608544" lon="9.424567288045267"><ele>221.0</ele><time>2026-04-03T06:21:33.999Z</time></trkpt><trkpt lat="45.78031650135572" lon="9.424581377937555"><ele>221.00000000000003</ele><time>2026-04-03T06:21:34.999Z</time></trkpt><trkpt lat="45.78023088521751" lon="9.424605353901018"><ele>221.00000000000003</ele><time>2026-04-03T06:21:35.999Z</time></trkpt><trkpt lat="45.78012492514868" lon="9.424642979757849"><ele>221.0</ele><time>2026-04-03T06:21:36.999Z</time></trkpt><trkpt lat="45.77998864937314" lon="9.424683778200677"><ele>221.0</ele><time>2026-04-03T06:21:37.999Z</time></trkpt><trkpt lat="45.77983784057551" lon="9.424729462879283"><ele>221.0</ele><time>2026-04-03T06:21:38.999Z</time></trkpt><trkpt lat="45.7796711738944" lon="9.424771513314663"><ele>221.0</ele><time>2026-04-03T06:21:39.999Z</time></trkpt><trkpt lat="45.77949876860854" lon="9.42480551016055"><ele>221.0</ele><time>2026-04-03T06:21:40.999Z</time></trkpt><trkpt lat="45.77932159864471" lon="9.424844075374631"><ele>221.0</ele><time>2026-04-03T06:21:41.999Z</time></trkpt><trkpt lat="45.77913622030878" lon="9.424903234119869"><ele>221.0</ele><time>2026-04-03T06:21:42.999Z</time></trkpt><trkpt lat="45.77894859827927" lon="9.424974490740423"><ele>221.0</ele><time>2026-04-03T06:21:43.999Z</time></trkpt><trkpt lat="45.77876171166421" lon="9.425057782405448"><ele>221.0</ele><time>2026-04-03T06:21:44.999Z</time></trkpt><trkpt lat="45.778565363288635" lon="9.425147084177391"><ele>221.0</ele><time>2026-04-03T06:21:45.999Z</time></trkpt><trkpt lat="45.778370004875356" lon="9.425227509009598"><ele>221.0</ele><time>2026-04-03T06:21:46.999Z</time></trkpt><trkpt lat="45.77817764408935" lon="9.425319574833587"><ele>219.33333333333334</ele><time>2026-04-03T06:21:47.999Z</time></trkpt><trkpt lat="45.7779829464784" lon="9.425414386172035"><ele>217.66666666666669</ele><time>2026-04-03T06:21:48.999Z</time></trkpt><trkpt lat="45.777791176855196" lon="9.425516089800094"><ele>216.0</ele><time>2026-04-03T06:21:49.999Z</time></trkpt><trkpt lat="45.77760596763312" lon="9.425589569926576"><ele>215.0</ele><time>2026-04-03T06:21:50.999Z</time></trkpt><trkpt lat="45.77741779085759" lon="9.425666152426206"><ele>214.0</ele><time>2026-04-03T06:21:51.999Z</time></trkpt><trkpt lat="45.777228988699505" lon="9.425726100425717"><ele>213.0</ele><time>2026-04-03T06:21:52.999Z</time></trkpt><trkpt lat="45.77704622440426" lon="9.425775067834127"><ele>213.0</ele><time>2026-04-03T06:21:53.999Z</time></trkpt><trkpt lat="45.77686791755153" lon="9.425794423757608"><ele>213.0</ele><time>2026-04-03T06:21:54.999Z</time></trkpt><trkpt lat="45.776701836678846" lon="9.425790138609305"><ele>213.0</ele><time>2026-04-03T06:21:55.999Z</time></trkpt><trkpt lat="45.77654581136245" lon="9.425773330021453"><ele>212.5</ele><time>2026-04-03T06:21:56.999Z</time></trkpt><trkpt lat="45.7764021581971" lon="9.425746672782049"><ele>212.0</ele><time>2026-04-03T06:21:57.999Z</time></trkpt><trkpt lat="45.77626593355931" lon="9.425710016524036"><ele>211.5</ele><time>2026-04-03T06:21:58.999Z</time></trkpt><trkpt lat="45.776143208802495" lon="9.425653313900705"><ele>211.0</ele><time>2026-04-03T06:21:59.999Z</time></trkpt><trkpt lat="45.77603670532699" lon="9.425573876694571"><ele>211.0</ele><time>2026-04-03T06:22:00.999Z</time></trkpt><trkpt lat="45.7759447107623" lon="9.425479969201596"><ele>211.0</ele><time>2026-04-03T06:22:01.999Z</time></trkpt><trkpt lat="45.77585420501173" lon="9.425407897080932"><ele>211.0</ele><time>2026-04-03T06:22:02.999Z</time></trkpt><trkpt lat="45.77574344415981" lon="9.425391048720213"><ele>211.0</ele><time>2026-04-03T06:22:03.999Z</time></trkpt><trkpt lat="45.7756101010754" lon="9.425397814457899"><ele>211.0</ele><time>2026-04-03T06:22:04.999Z</time></trkpt><trkpt lat="45.77545942763611" lon="9.425371387116972"><ele>211.0</ele><time>2026-04-03T06:22:05.999Z</time></trkpt><trkpt lat="45.77530209436738" lon="9.425325463525082"><ele>211.0</ele><time>2026-04-03T06:22:06.999Z</time></trkpt><trkpt lat="45.775134856893956" lon="9.425288537888655"><ele>210.33333333333331</ele><time>2026-04-03T06:22:07.999Z</time></trkpt><trkpt lat="45.77496178112778" lon="9.425264016301147"><ele>209.66666666666669</ele><time>2026-04-03T06:22:08.999Z</time></trkpt><trkpt lat="45.77478288048525" lon="9.425245640074717"><ele>209.0</ele><time>2026-04-03T06:22:09.999Z</time></trkpt><trkpt lat="45.77459962812703" lon="9.425231279831113"><ele>209.0</ele><time>2026-04-03T06:22:10.999Z</time></trkpt><trkpt lat="45.77441824325872" lon="9.425219524006085"><ele>209.0</ele><time>2026-04-03T06:22:11.999Z</time></trkpt><trkpt lat="45.77423526559444" lon="9.42520438788952"><ele>209.0</ele><time>2026-04-03T06:22:12.999Z</time></trkpt><trkpt lat="45.774050501252034" lon="9.425191241504534"><ele>208.66666666666669</ele><time>2026-04-03T06:22:13.999Z</time></trkpt><trkpt lat="45.77385963328372" lon="9.42517764499056"><ele>208.33333333333331</ele><time>2026-04-03T06:22:14.999Z</time></trkpt><trkpt lat="45.77366954434032" lon="9.425164658447962"><ele>208.0</ele><time>2026-04-03T06:22:15.999Z</time></trkpt><trkpt lat="45.7734763619002" lon="9.425150661910909"><ele>207.0</ele><time>2026-04-03T06:22:16.999Z</time></trkpt><trkpt lat="45.77328053686629" lon="9.42513805291287"><ele>206.0</ele><time>2026-04-03T06:22:17.999Z</time></trkpt><trkpt lat="45.77308239072873" lon="9.42512079764635"><ele>205.0</ele><time>2026-04-03T06:22:18.999Z</time></trkpt><trkpt lat="45.77287943735963" lon="9.425100510674252"><ele>205.0</ele><time>2026-04-03T06:22:19.999Z</time></trkpt><trkpt lat="45.77267549058825" lon="9.425081970202385"><ele>205.0</ele><time>2026-04-03T06:22:20.999Z</time></trkpt><trkpt lat="45.772472589925314" lon="9.4250667334136"><ele>205.0</ele><time>2026-04-03T06:22:21.999Z</time></trkpt><trkpt lat="45.77226411548585" lon="9.425052686078772"><ele>205.0</ele><time>2026-04-03T06:22:22.999Z</time></trkpt><trkpt lat="45.772053901326814" lon="9.425036868191743"><ele>205.0</ele><time>2026-04-03T06:22:23.999Z</time></trkpt><trkpt lat="45.77183791327643" lon="9.425021263507054"><ele>205.0</ele><time>2026-04-03T06:22:25Z</time></trkpt><trkpt lat="45.77161976016778" lon="9.425007927462111"><ele>204.0</ele><time>2026-04-03T06:22:26Z</time></trkpt><trkpt lat="45.77140168752411" lon="9.424995767057647"><ele>203.0</ele><time>2026-04-03T06:22:27Z</time></trkpt><trkpt lat="45.77118213798855" lon="9.424984265753906"><ele>202.0</ele><time>2026-04-03T06:22:28Z</time></trkpt><trkpt lat="45.770959944546505" lon="9.424966875456997"><ele>201.33333333333331</ele><time>2026-04-03T06:22:29Z</time></trkpt><trkpt lat="45.770740389258854" lon="9.424946302265345"><ele>200.66666666666669</ele><time>2026-04-03T06:22:30Z</time></trkpt><trkpt lat="45.77052154356147" lon="9.424926632617225"><ele>200.0</ele><time>2026-04-03T06:22:31Z</time></trkpt><trkpt lat="45.77030059614239" lon="9.424907633166203"><ele>201.0</ele><time>2026-04-03T06:22:32Z</time></trkpt><trkpt lat="45.77007676716372" lon="9.424891279771504"><ele>202.0</ele><time>2026-04-03T06:22:33Z</time></trkpt><trkpt lat="45.76985676180451" lon="9.424877051176326"><ele>203.0</ele><time>2026-04-03T06:22:34Z</time></trkpt><trkpt lat="45.769637346978264" lon="9.424860752514771"><ele>203.0</ele><time>2026-04-03T06:22:35Z</time></trkpt><trkpt lat="45.76941357901082" lon="9.424842324752472"><ele>203.0</ele><time>2026-04-03T06:22:36Z</time></trkpt><trkpt lat="45.76918988618224" lon="9.424822702220242"><ele>203.0</ele><time>2026-04-03T06:22:37Z</time></trkpt><trkpt lat="45.7689658223606" lon="9.424801201031464"><ele>202.66666666666669</ele><time>2026-04-03T06:22:38Z</time></trkpt><trkpt lat="45.76874308451347" lon="9.424778497359279"><ele>202.33333333333331</ele><time>2026-04-03T06:22:39Z</time></trkpt><trkpt lat="45.76851756385126" lon="9.424758067192084"><ele>202.0</ele><time>2026-04-03T06:22:40Z</time></trkpt><trkpt lat="45.76829371822907" lon="9.424739406410946"><ele>201.66666666666666</ele><time>2026-04-03T06:22:41Z</time></trkpt><trkpt lat="45.768066071658204" lon="9.424722156062531"><ele>201.33333333333331</ele><time>2026-04-03T06:22:42Z</time></trkpt><trkpt lat="45.76784582969997" lon="9.424710290705658"><ele>201.0</ele><time>2026-04-03T06:22:43Z</time></trkpt><trkpt lat="45.76761855562928" lon="9.424708337514879"><ele>201.66666666666669</ele><time>2026-04-03T06:22:44Z</time></trkpt><trkpt lat="45.76739411526899" lon="9.42472623160022"><ele>202.33333333333334</ele><time>2026-04-03T06:22:45Z</time></trkpt><trkpt lat="45.76717077458851" lon="9.424757866943402"><ele>203.0</ele><time>2026-04-03T06:22:46Z</time></trkpt><trkpt lat="45.76694874395912" lon="9.424816295993228"><ele>204.5</ele><time>2026-04-03T06:22:47Z</time></trkpt><trkpt lat="45.76673053005614" lon="9.424894177252055"><ele>206.0</ele><time>2026-04-03T06:22:48Z</time></trkpt><trkpt lat="45.76651369537231" lon="9.424988607234859"><ele>206.0</ele><time>2026-04-03T06:22:49Z</time></trkpt><trkpt lat="45.76629966208038" lon="9.42509092457424"><ele>206.0</ele><time>2026-04-03T06:22:50Z</time></trkpt><trkpt lat="45.76608447797898" lon="9.425186491018511"><ele>210.0</ele><time>2026-04-03T06:22:51Z</time></trkpt><trkpt lat="45.76586384291799" lon="9.425272076534386"><ele>214.0</ele><time>2026-04-03T06:22:52Z</time></trkpt><trkpt lat="45.76564313796178" lon="9.425355761385134"><ele>214.0</ele><time>2026-04-03T06:22:53Z</time></trkpt><trkpt lat="45.76542425523302" lon="9.425445407018502"><ele>214.0</ele><time>2026-04-03T06:22:54Z</time></trkpt><trkpt lat="45.76520610141717" lon="9.425534560805334"><ele>208.5</ele><time>2026-04-03T06:22:55Z</time></trkpt><trkpt lat="45.7649882517887" lon="9.425626453922156"><ele>203.0</ele><time>2026-04-03T06:22:56Z</time></trkpt><trkpt lat="45.764767696885606" lon="9.425714163251342"><ele>203.0</ele><time>2026-04-03T06:22:57Z</time></trkpt><trkpt lat="45.76454787292367" lon="9.425803869124826"><ele>203.0</ele><time>2026-04-03T06:22:58Z</time></trkpt><trkpt lat="45.76432833844344" lon="9.425895918759458"><ele>208.0</ele><time>2026-04-03T06:22:59Z</time></trkpt><trkpt lat="45.76411150075164" lon="9.425984974104788"><ele>213.0</ele><time>2026-04-03T06:23:00Z</time></trkpt><trkpt lat="45.7638938467379" lon="9.426074020476795"><ele>213.0</ele><time>2026-04-03T06:23:01Z</time></trkpt><trkpt lat="45.76367621240199" lon="9.426159829866762"><ele>213.0</ele><time>2026-04-03T06:23:02Z</time></trkpt><trkpt lat="45.763457386836826" lon="9.426248327784911"><ele>210.33333333333331</ele><time>2026-04-03T06:23:03Z</time></trkpt><trkpt lat="45.7632411392805" lon="9.426331350599506"><ele>207.66666666666666</ele><time>2026-04-03T06:23:04Z</time></trkpt><trkpt lat="45.76302192854089" lon="9.426404614422133"><ele>205.0</ele><time>2026-04-03T06:23:05Z</time></trkpt><trkpt lat="45.762800186669466" lon="9.42646097636431"><ele>208.33333333333331</ele><time>2026-04-03T06:23:06Z</time></trkpt><trkpt lat="45.76257806606484" lon="9.426494776246317"><ele>211.66666666666669</ele><time>2026-04-03T06:23:07Z</time></trkpt><trkpt lat="45.76235583006585" lon="9.426517561475512"><ele>215.0</ele><time>2026-04-03T06:23:08Z</time></trkpt><trkpt lat="45.76213591859314" lon="9.426528274576269"><ele>215.0</ele><time>2026-04-03T06:23:09Z</time></trkpt><trkpt lat="45.761914598252744" lon="9.426541595978314"><ele>215.0</ele><time>2026-04-03T06:23:10Z</time></trkpt><trkpt lat="45.76169573122977" lon="9.426557913708736"><ele>215.0</ele><time>2026-04-03T06:23:11Z</time></trkpt><trkpt lat="45.761478480309734" lon="9.42657831329488"><ele>213.66666666666669</ele><time>2026-04-03T06:23:12Z</time></trkpt><trkpt lat="45.76126663992993" lon="9.426599713971493"><ele>212.33333333333331</ele><time>2026-04-03T06:23:13Z</time></trkpt><trkpt lat="45.761054846688204" lon="9.426619062570337"><ele>211.0</ele><time>2026-04-03T06:23:14Z</time></trkpt><trkpt lat="45.7608487321196" lon="9.42663504273074"><ele>210.66666666666666</ele><time>2026-04-03T06:23:15Z</time></trkpt><trkpt lat="45.760643862223546" lon="9.42665107721968"><ele>210.33333333333331</ele><time>2026-04-03T06:23:16Z</time></trkpt><trkpt lat="45.76044064444365" lon="9.426668091228684"><ele>210.0</ele><time>2026-04-03T06:23:17Z</time></trkpt><trkpt lat="45.76024178839431" lon="9.426684217031475"><ele>211.33333333333331</ele><time>2026-04-03T06:23:18Z</time></trkpt><trkpt lat="45.760048439401935" lon="9.426699786382297"><ele>212.66666666666666</ele><time>2026-04-03T06:23:19Z</time></trkpt><trkpt lat="45.75986033581036" lon="9.426711631958161"><ele>214.0</ele><time>2026-04-03T06:23:20Z</time></trkpt><trkpt lat="45.759669957409656" lon="9.426722801001768"><ele>214.0</ele><time>2026-04-03T06:23:21Z</time></trkpt><trkpt lat="45.75948817332843" lon="9.4267357997317"><ele>214.0</ele><time>2026-04-03T06:23:22Z</time></trkpt><trkpt lat="45.7593077944037" lon="9.426750751197654"><ele>214.0</ele><time>2026-04-03T06:23:23Z</time></trkpt><trkpt lat="45.75912950892952" lon="9.426766454996054"><ele>216.66666666666666</ele><time>2026-04-03T06:23:24Z</time></trkpt><trkpt lat="45.75895554923117" lon="9.426780715574308"><ele>219.33333333333331</ele><time>2026-04-03T06:23:25Z</time></trkpt><trkpt lat="45.75878345016312" lon="9.426785772602933"><ele>222.0</ele><time>2026-04-03T06:23:26Z</time></trkpt><trkpt lat="45.758610754571876" lon="9.426784525599977"><ele>218.66666666666669</ele><time>2026-04-03T06:23:27Z</time></trkpt><trkpt lat="45.75844240378426" lon="9.42678055333593"><ele>215.33333333333334</ele><time>2026-04-03T06:23:28Z</time></trkpt><trkpt lat="45.75828167739548" lon="9.426772817069438"><ele>212.0</ele><time>2026-04-03T06:23:29Z</time></trkpt><trkpt lat="45.75812238471536" lon="9.426765263097224"><ele>212.0</ele><time>2026-04-03T06:23:30Z</time></trkpt><trkpt lat="45.75796792248222" lon="9.426756821781767"><ele>212.0</ele><time>2026-04-03T06:23:31Z</time></trkpt><trkpt lat="45.75781647116816" lon="9.4267519918178"><ele>212.0</ele><time>2026-04-03T06:23:32Z</time></trkpt><trkpt lat="45.75767633377928" lon="9.42674737447167"><ele>212.0</ele><time>2026-04-03T06:23:33Z</time></trkpt><trkpt lat="45.75754095638986" lon="9.426742949958378"><ele>212.0</ele><time>2026-04-03T06:23:34Z</time></trkpt><trkpt lat="45.75740474179464" lon="9.426741540167244"><ele>212.0</ele><time>2026-04-03T06:23:35Z</time></trkpt><trkpt lat="45.75726766507615" lon="9.42673668258918"><ele>212.0</ele><time>2026-04-03T06:23:36Z</time></trkpt><trkpt lat="45.757132416072935" lon="9.426727052450069"><ele>212.0</ele><time>2026-04-03T06:23:36.999Z</time></trkpt><trkpt lat="45.75700730159597" lon="9.426720745543141"><ele>212.0</ele><time>2026-04-03T06:23:37.999Z</time></trkpt><trkpt lat="45.756895574325604" lon="9.42671382518021"><ele>212.0</ele><time>2026-04-03T06:23:38.999Z</time></trkpt><trkpt lat="45.75679524910477" lon="9.426709220586106"><ele>212.0</ele><time>2026-04-03T06:23:39.999Z</time></trkpt><trkpt lat="45.75670270676134" lon="9.426703844452616"><ele>212.0</ele><time>2026-04-03T06:23:40.999Z</time></trkpt><trkpt lat="45.756615697031705" lon="9.426702965181635"><ele>212.0</ele><time>2026-04-03T06:23:41.999Z</time></trkpt><trkpt lat="45.75653411966655" lon="9.426699644541301"><ele>213.00000000000003</ele><time>2026-04-03T06:23:42.999Z</time></trkpt><trkpt lat="45.75645774253453" lon="9.42669832642621"><ele>214.0</ele><time>2026-04-03T06:23:43.999Z</time></trkpt><trkpt lat="45.75639093317958" lon="9.426698203499114"><ele>215.0</ele><time>2026-04-03T06:23:44.999Z</time></trkpt><trkpt lat="45.756277429663015" lon="9.426705831099794"><ele>216.0</ele><time>2026-04-03T06:23:46.999Z</time></trkpt><trkpt lat="45.75618700170931" lon="9.426717876922284"><ele>217.00000000000003</ele><time>2026-04-03T06:23:48.999Z</time></trkpt><trkpt lat="45.756114790059456" lon="9.426722572503055"><ele>218.0</ele><time>2026-04-03T06:23:50.999Z</time></trkpt><trkpt lat="45.75603138463274" lon="9.426714309045488"><ele>218.0</ele><time>2026-04-03T06:23:52.999Z</time></trkpt><trkpt lat="45.75593450335602" lon="9.42666877812158"><ele>218.0</ele><time>2026-04-03T06:23:54.999Z</time></trkpt><trkpt lat="45.75583183206322" lon="9.426662482482142"><ele>218.0</ele><time>2026-04-03T06:23:56.999Z</time></trkpt><trkpt lat="45.75572050609612" lon="9.42666406702454"><ele>218.0</ele><time>2026-04-03T06:23:58.999Z</time></trkpt><trkpt lat="45.75559393492865" lon="9.426652305673981"><ele>218.0</ele><time>2026-04-03T06:24:00.999Z</time></trkpt><trkpt lat="45.75547163527955" lon="9.426643546294976"><ele>218.0</ele><time>2026-04-03T06:24:02.999Z</time></trkpt><trkpt lat="45.75536296337584" lon="9.426635739046205"><ele>218.0</ele><time>2026-04-03T06:24:04.999Z</time></trkpt><trkpt lat="45.75526518556853" lon="9.426622593207746"><ele>218.0</ele><time>2026-04-03T06:24:06.999Z</time></trkpt><trkpt lat="45.755176501169096" lon="9.426618943308966"><ele>218.0</ele><time>2026-04-03T06:24:08.999Z</time></trkpt><trkpt lat="45.7550937484437" lon="9.426623158062823"><ele>218.0</ele><time>2026-04-03T06:24:12.999Z</time></trkpt><trkpt lat="45.754966249388595" lon="9.426612215867609"><ele>218.4</ele><time>2026-04-03T06:24:14.999Z</time></trkpt><trkpt lat="45.75488375441331" lon="9.42661204592684"><ele>218.8</ele><time>2026-04-03T06:24:15.999Z</time></trkpt><trkpt lat="45.75478446095778" lon="9.426614736603048"><ele>219.2</ele><time>2026-04-03T06:24:16.999Z</time></trkpt><trkpt lat="45.754674457726324" lon="9.426612395641143"><ele>219.6</ele><time>2026-04-03T06:24:17.999Z</time></trkpt><trkpt lat="45.75455286969731" lon="9.426606860680586"><ele>220.0</ele><time>2026-04-03T06:24:18.999Z</time></trkpt><trkpt lat="45.75442358453509" lon="9.426602358229776"><ele>219.5</ele><time>2026-04-03T06:24:19.999Z</time></trkpt><trkpt lat="45.75428642798873" lon="9.426598410968642"><ele>219.0</ele><time>2026-04-03T06:24:20.999Z</time></trkpt><trkpt lat="45.754145324704396" lon="9.426592190141113"><ele>218.5</ele><time>2026-04-03T06:24:21.999Z</time></trkpt><trkpt lat="45.75399844408482" lon="9.426588549183906"><ele>218.0</ele><time>2026-04-03T06:24:22.999Z</time></trkpt><trkpt lat="45.7538494385696" lon="9.426583916485626"><ele>218.0</ele><time>2026-04-03T06:24:23.999Z</time></trkpt><trkpt lat="45.75369412530058" lon="9.426579483946083"><ele>218.0</ele><time>2026-04-03T06:24:24.999Z</time></trkpt><trkpt lat="45.75353743633876" lon="9.426572574138369"><ele>218.0</ele><time>2026-04-03T06:24:25.999Z</time></trkpt><trkpt lat="45.75337888392745" lon="9.426568829635833"><ele>217.33333333333334</ele><time>2026-04-03T06:24:26.999Z</time></trkpt><trkpt lat="45.753220442484185" lon="9.426563335921463"><ele>216.66666666666669</ele><time>2026-04-03T06:24:27.999Z</time></trkpt><trkpt lat="45.7530628475427" lon="9.426556251590775"><ele>216.0</ele><time>2026-04-03T06:24:28.999Z</time></trkpt><trkpt lat="45.75290504880076" lon="9.426552085781973"><ele>216.0</ele><time>2026-04-03T06:24:29.999Z</time></trkpt><trkpt lat="45.75274620007051" lon="9.42654885318177"><ele>216.0</ele><time>2026-04-03T06:24:31Z</time></trkpt><trkpt lat="45.75258971670034" lon="9.426545955164464"><ele>216.0</ele><time>2026-04-03T06:24:32Z</time></trkpt><trkpt lat="45.752433533115514" lon="9.426541633159724"><ele>215.33333333333331</ele><time>2026-04-03T06:24:33Z</time></trkpt><trkpt lat="45.7522729756731" lon="9.426537347994579"><ele>214.66666666666666</ele><time>2026-04-03T06:24:34Z</time></trkpt><trkpt lat="45.752108563782" lon="9.426529685423972"><ele>214.0</ele><time>2026-04-03T06:24:35Z</time></trkpt><trkpt lat="45.751943917654565" lon="9.426520463120823"><ele>212.66666666666666</ele><time>2026-04-03T06:24:36Z</time></trkpt><trkpt lat="45.75178017376879" lon="9.426511984777092"><ele>211.33333333333331</ele><time>2026-04-03T06:24:37Z</time></trkpt><trkpt lat="45.75161451570233" lon="9.426504644562328"><ele>210.0</ele><time>2026-04-03T06:24:38Z</time></trkpt><trkpt lat="45.75145039094873" lon="9.42649730555234"><ele>210.0</ele><time>2026-04-03T06:24:39Z</time></trkpt><trkpt lat="45.751288068432245" lon="9.426486197239857"><ele>210.0</ele><time>2026-04-03T06:24:40Z</time></trkpt><trkpt lat="45.751127097370215" lon="9.426475884144013"><ele>210.0</ele><time>2026-04-03T06:24:41Z</time></trkpt><trkpt lat="45.7509658628941" lon="9.426465896376527"><ele>209.33333333333331</ele><time>2026-04-03T06:24:42Z</time></trkpt><trkpt lat="45.75081178190983" lon="9.426453913510327"><ele>208.66666666666666</ele><time>2026-04-03T06:24:43Z</time></trkpt><trkpt lat="45.75065773541699" lon="9.426433571486404"><ele>208.0</ele><time>2026-04-03T06:24:44Z</time></trkpt><trkpt lat="45.75050298962663" lon="9.426398290806503"><ele>208.0</ele><time>2026-04-03T06:24:45Z</time></trkpt><trkpt lat="45.7503448670688" lon="9.426377390222594"><ele>208.0</ele><time>2026-04-03T06:24:46Z</time></trkpt><trkpt lat="45.75017907788339" lon="9.426378759923832"><ele>208.0</ele><time>2026-04-03T06:24:47Z</time></trkpt><trkpt lat="45.75001751436325" lon="9.42638633908186"><ele>208.33333333333331</ele><time>2026-04-03T06:24:48Z</time></trkpt><trkpt lat="45.7498488195598" lon="9.426388349635438"><ele>208.66666666666669</ele><time>2026-04-03T06:24:49Z</time></trkpt><trkpt lat="45.74968178578602" lon="9.42638171590488"><ele>209.0</ele><time>2026-04-03T06:24:50Z</time></trkpt><trkpt lat="45.74951080609263" lon="9.426369412528476"><ele>209.33333333333334</ele><time>2026-04-03T06:24:51Z</time></trkpt><trkpt lat="45.749337044119024" lon="9.426352588566413"><ele>209.66666666666669</ele><time>2026-04-03T06:24:52Z</time></trkpt><trkpt lat="45.74916243827655" lon="9.426332560112032"><ele>210.0</ele><time>2026-04-03T06:24:53Z</time></trkpt><trkpt lat="45.74898405116293" lon="9.42631480433092"><ele>211.33333333333331</ele><time>2026-04-03T06:24:54Z</time></trkpt><trkpt lat="45.74880506203955" lon="9.426298309907999"><ele>212.66666666666666</ele><time>2026-04-03T06:24:55Z</time></trkpt><trkpt lat="45.74862328865152" lon="9.426283901593148"><ele>214.0</ele><time>2026-04-03T06:24:56Z</time></trkpt><trkpt lat="45.748435828003224" lon="9.426265105652954"><ele>214.33333333333331</ele><time>2026-04-03T06:24:57Z</time></trkpt><trkpt lat="45.7482482622056" lon="9.426238963411555"><ele>214.66666666666669</ele><time>2026-04-03T06:24:58Z</time></trkpt><trkpt lat="45.748060672152874" lon="9.426217987885279"><ele>215.0</ele><time>2026-04-03T06:24:59Z</time></trkpt><trkpt lat="45.74787004551955" lon="9.426197843370819"><ele>216.0</ele><time>2026-04-03T06:25:00Z</time></trkpt><trkpt lat="45.7476746830311" lon="9.426177614450307"><ele>217.0</ele><time>2026-04-03T06:25:01Z</time></trkpt><trkpt lat="45.747486177912826" lon="9.426156781646387"><ele>218.0</ele><time>2026-04-03T06:25:02Z</time></trkpt><trkpt lat="45.747293029445224" lon="9.42613685851506"><ele>218.0</ele><time>2026-04-03T06:25:03Z</time></trkpt><trkpt lat="45.74709826775517" lon="9.426117201178693"><ele>218.0</ele><time>2026-04-03T06:25:04Z</time></trkpt><trkpt lat="45.74690472167122" lon="9.42609770144297"><ele>218.0</ele><time>2026-04-03T06:25:05Z</time></trkpt><trkpt lat="45.746708774072026" lon="9.426077786205205"><ele>217.33333333333334</ele><time>2026-04-03T06:25:06Z</time></trkpt><trkpt lat="45.746510790761555" lon="9.42605604436945"><ele>216.66666666666669</ele><time>2026-04-03T06:25:07Z</time></trkpt><trkpt lat="45.7463121938662" lon="9.426027110873479"><ele>216.0</ele><time>2026-04-03T06:25:08Z</time></trkpt><trkpt lat="45.74611226829021" lon="9.425984950564397"><ele>216.0</ele><time>2026-04-03T06:25:09Z</time></trkpt><trkpt lat="45.74590859500232" lon="9.425929062935111"><ele>216.0</ele><time>2026-04-03T06:25:10Z</time></trkpt><trkpt lat="45.745700685424055" lon="9.425856318980507"><ele>216.0</ele><time>2026-04-03T06:25:11Z</time></trkpt><trkpt lat="45.745510487835546" lon="9.425750410910018"><ele>216.0</ele><time>2026-04-03T06:25:12Z</time></trkpt><trkpt lat="45.745314798340324" lon="9.42563648172962"><ele>216.0</ele><time>2026-04-03T06:25:13Z</time></trkpt><trkpt lat="45.745118743395956" lon="9.42551210693387"><ele>216.0</ele><time>2026-04-03T06:25:14Z</time></trkpt><trkpt lat="45.74492545789065" lon="9.425399196042187"><ele>218.0</ele><time>2026-04-03T06:25:15Z</time></trkpt><trkpt lat="45.744719892467124" lon="9.425270433930901"><ele>220.0</ele><time>2026-04-03T06:25:16Z</time></trkpt><trkpt lat="45.744587430888586" lon="9.425252540043482"><ele>222.0</ele><time>2026-04-03T06:25:17Z</time></trkpt><trkpt lat="45.74439714933372" lon="9.425157063701276"><ele>220.66666666666669</ele><time>2026-04-03T06:25:18Z</time></trkpt><trkpt lat="45.744205041860425" lon="9.425053866681397"><ele>219.33333333333334</ele><time>2026-04-03T06:25:19Z</time></trkpt><trkpt lat="45.74401338633992" lon="9.424941771288987"><ele>218.0</ele><time>2026-04-03T06:25:20Z</time></trkpt><trkpt lat="45.74381495058958" lon="9.424828951052413"><ele>218.0</ele><time>2026-04-03T06:25:21Z</time></trkpt><trkpt lat="45.74360065503272" lon="9.424710551766339"><ele>218.0</ele><time>2026-04-03T06:25:22Z</time></trkpt><trkpt lat="45.74338150750352" lon="9.42458734044869"><ele>221.5</ele><time>2026-04-03T06:25:23Z</time></trkpt><trkpt lat="45.74315779151794" lon="9.424462843209012"><ele>225.0</ele><time>2026-04-03T06:25:24Z</time></trkpt><trkpt lat="45.74293583563782" lon="9.42433510513798"><ele>225.0</ele><time>2026-04-03T06:25:25Z</time></trkpt><trkpt lat="45.742716488857084" lon="9.424209439750067"><ele>225.0</ele><time>2026-04-03T06:25:26Z</time></trkpt><trkpt lat="45.74248920135594" lon="9.42409357779415"><ele>220.5</ele><time>2026-04-03T06:25:27Z</time></trkpt><trkpt lat="45.742262414884834" lon="9.423965319658365"><ele>216.0</ele><time>2026-04-03T06:25:28Z</time></trkpt><trkpt lat="45.742043003961975" lon="9.423826637434532"><ele>217.5</ele><time>2026-04-03T06:25:29Z</time></trkpt><trkpt lat="45.74183027539295" lon="9.423683251037739"><ele>219.0</ele><time>2026-04-03T06:25:30Z</time></trkpt><trkpt lat="45.741620758818144" lon="9.423532001307757"><ele>219.0</ele><time>2026-04-03T06:25:31Z</time></trkpt><trkpt lat="45.741419176826135" lon="9.423386415188931"><ele>219.0</ele><time>2026-04-03T06:25:32Z</time></trkpt><trkpt lat="45.741227490417224" lon="9.42324923783158"><ele>219.0</ele><time>2026-04-03T06:25:33Z</time></trkpt><trkpt lat="45.74105712325599" lon="9.423118396337268"><ele>219.0</ele><time>2026-04-03T06:25:34Z</time></trkpt><trkpt lat="45.74089708440143" lon="9.422997723625329"><ele>219.0</ele><time>2026-04-03T06:25:35Z</time></trkpt><trkpt lat="45.740749053505695" lon="9.42288759277483"><ele>219.0</ele><time>2026-04-03T06:25:36Z</time></trkpt><trkpt lat="45.74060501669996" lon="9.422778772320656"><ele>219.0</ele><time>2026-04-03T06:25:36.999Z</time></trkpt><trkpt lat="45.74045463905407" lon="9.422667242336178"><ele>219.0</ele><time>2026-04-03T06:25:37.999Z</time></trkpt><trkpt lat="45.740306724395836" lon="9.422539453672849"><ele>219.0</ele><time>2026-04-03T06:25:38.999Z</time></trkpt><trkpt lat="45.74015398930692" lon="9.422415118940988"><ele>219.0</ele><time>2026-04-03T06:25:39.999Z</time></trkpt><trkpt lat="45.739992789616664" lon="9.422291589851579"><ele>219.0</ele><time>2026-04-03T06:25:40.999Z</time></trkpt><trkpt lat="45.739836954939975" lon="9.42216319755329"><ele>219.0</ele><time>2026-04-03T06:25:41.999Z</time></trkpt><trkpt lat="45.73967861205535" lon="9.422030070329363"><ele>219.33333333333331</ele><time>2026-04-03T06:25:42.999Z</time></trkpt><trkpt lat="45.73950343469821" lon="9.421891947348627"><ele>219.66666666666666</ele><time>2026-04-03T06:25:43.999Z</time></trkpt><trkpt lat="45.73932628164389" lon="9.421753839532537"><ele>220.0</ele><time>2026-04-03T06:25:44.999Z</time></trkpt><trkpt lat="45.73914168255509" lon="9.421613452167461"><ele>220.0</ele><time>2026-04-03T06:25:45.999Z</time></trkpt><trkpt lat="45.73895156418999" lon="9.42146865073593"><ele>220.0</ele><time>2026-04-03T06:25:46.999Z</time></trkpt><trkpt lat="45.73876470826675" lon="9.421323857637699"><ele>220.0</ele><time>2026-04-03T06:25:47.999Z</time></trkpt><trkpt lat="45.73857220914266" lon="9.421174082492762"><ele>219.66666666666666</ele><time>2026-04-03T06:25:48.999Z</time></trkpt><trkpt lat="45.738377969748434" lon="9.421021391998407"><ele>219.33333333333331</ele><time>2026-04-03T06:25:49.999Z</time></trkpt><trkpt lat="45.73818344525511" lon="9.420872495775006"><ele>219.0</ele><time>2026-04-03T06:25:50.999Z</time></trkpt><trkpt lat="45.737986267333525" lon="9.42071943164647"><ele>219.0</ele><time>2026-04-03T06:25:51.999Z</time></trkpt><trkpt lat="45.73778763235725" lon="9.42056390500797"><ele>219.0</ele><time>2026-04-03T06:25:52.999Z</time></trkpt><trkpt lat="45.73758978555406" lon="9.420407687941593"><ele>220.0</ele><time>2026-04-03T06:25:53.999Z</time></trkpt><trkpt lat="45.73739130159232" lon="9.420254409753209"><ele>221.0</ele><time>2026-04-03T06:25:54.999Z</time></trkpt><trkpt lat="45.73719266969732" lon="9.420103191122319"><ele>221.0</ele><time>2026-04-03T06:25:55.999Z</time></trkpt><trkpt lat="45.73699486763309" lon="9.419950974165284"><ele>221.0</ele><time>2026-04-03T06:25:56.999Z</time></trkpt><trkpt lat="45.736799087959504" lon="9.419801478794758"><ele>221.0</ele><time>2026-04-03T06:25:57.999Z</time></trkpt><trkpt lat="45.73660037378633" lon="9.419648731499544"><ele>221.33333333333334</ele><time>2026-04-03T06:25:58.999Z</time></trkpt><trkpt lat="45.73640308926697" lon="9.419496836911476"><ele>221.66666666666669</ele><time>2026-04-03T06:25:59.999Z</time></trkpt><trkpt lat="45.73621239909346" lon="9.419342593110036"><ele>222.0</ele><time>2026-04-03T06:26:00.999Z</time></trkpt><trkpt lat="45.73601881354782" lon="9.419192296883967"><ele>221.33333333333331</ele><time>2026-04-03T06:26:01.999Z</time></trkpt><trkpt lat="45.73582958069693" lon="9.419049530587326"><ele>220.66666666666666</ele><time>2026-04-03T06:26:02.999Z</time></trkpt><trkpt lat="45.73565050082789" lon="9.418916456823064"><ele>220.0</ele><time>2026-04-03T06:26:03.999Z</time></trkpt><trkpt lat="45.73549842670743" lon="9.41879528871761"><ele>220.0</ele><time>2026-04-03T06:26:04.999Z</time></trkpt><trkpt lat="45.735363280908565" lon="9.418680239612847"><ele>220.0</ele><time>2026-04-03T06:26:05.999Z</time></trkpt><trkpt lat="45.7352511537221" lon="9.41857263780487"><ele>220.0</ele><time>2026-04-03T06:26:06.999Z</time></trkpt><trkpt lat="45.73515391385196" lon="9.418473959502455"><ele>220.0</ele><time>2026-04-03T06:26:07.999Z</time></trkpt><trkpt lat="45.73506339580037" lon="9.418372024781924"><ele>220.6</ele><time>2026-04-03T06:26:08.999Z</time></trkpt><trkpt lat="45.73498315315231" lon="9.418257307347723"><ele>221.2</ele><time>2026-04-03T06:26:09.999Z</time></trkpt><trkpt lat="45.73491345602962" lon="9.418137647579924"><ele>221.8</ele><time>2026-04-03T06:26:10.999Z</time></trkpt><trkpt lat="45.73483919880984" lon="9.418037578908118"><ele>222.4</ele><time>2026-04-03T06:26:11.999Z</time></trkpt><trkpt lat="45.734754673075265" lon="9.417965316246912"><ele>223.0</ele><time>2026-04-03T06:26:12.999Z</time></trkpt><trkpt lat="45.73465676770125" lon="9.417902317969558"><ele>223.0</ele><time>2026-04-03T06:26:13.999Z</time></trkpt><trkpt lat="45.73455431077837" lon="9.4178133199091"><ele>223.0</ele><time>2026-04-03T06:26:14.999Z</time></trkpt><trkpt lat="45.73444851176196" lon="9.417688150565429"><ele>223.0</ele><time>2026-04-03T06:26:15.999Z</time></trkpt><trkpt lat="45.734332592309734" lon="9.417533770349305"><ele>223.0</ele><time>2026-04-03T06:26:16.999Z</time></trkpt><trkpt lat="45.73420406484175" lon="9.417366909134872"><ele>225.33333333333331</ele><time>2026-04-03T06:26:17.999Z</time></trkpt><trkpt lat="45.734072227626434" lon="9.41721753959269"><ele>227.66666666666669</ele><time>2026-04-03T06:26:18.999Z</time></trkpt><trkpt lat="45.73392351892" lon="9.417093816635033"><ele>230.0</ele><time>2026-04-03T06:26:19.999Z</time></trkpt><trkpt lat="45.733757477528" lon="9.417022358526998"><ele>230.0</ele><time>2026-04-03T06:26:20.999Z</time></trkpt><trkpt lat="45.73357633125293" lon="9.417002966524178"><ele>230.0</ele><time>2026-04-03T06:26:21.999Z</time></trkpt><trkpt lat="45.733391390880705" lon="9.41703893364264"><ele>230.0</ele><time>2026-04-03T06:26:22.999Z</time></trkpt><trkpt lat="45.73321238515422" lon="9.417124508712488"><ele>234.66666666666669</ele><time>2026-04-03T06:26:23.999Z</time></trkpt><trkpt lat="45.73303991903383" lon="9.417261322041638"><ele>239.33333333333331</ele><time>2026-04-03T06:26:24.999Z</time></trkpt><trkpt lat="45.73288867941017" lon="9.417443640778995"><ele>244.0</ele><time>2026-04-03T06:26:25.999Z</time></trkpt><trkpt lat="45.73277078749853" lon="9.4176667997865"><ele>244.66666666666666</ele><time>2026-04-03T06:26:26.999Z</time></trkpt><trkpt lat="45.73269763197004" lon="9.417914871990199"><ele>245.33333333333331</ele><time>2026-04-03T06:26:27.999Z</time></trkpt><trkpt lat="45.73266944153745" lon="9.418171848004983"><ele>246.0</ele><time>2026-04-03T06:26:28.999Z</time></trkpt><trkpt lat="45.732667047669906" lon="9.418439346440028"><ele>247.33333333333331</ele><time>2026-04-03T06:26:29.999Z</time></trkpt><trkpt lat="45.73265737373793" lon="9.418709222807793"><ele>248.66666666666666</ele><time>2026-04-03T06:26:30.999Z</time></trkpt><trkpt lat="45.73261801859487" lon="9.418966604852507"><ele>250.0</ele><time>2026-04-03T06:26:31.999Z</time></trkpt><trkpt lat="45.73255517413951" lon="9.419213717085707"><ele>251.0</ele><time>2026-04-03T06:26:32.999Z</time></trkpt><trkpt lat="45.73247103390338" lon="9.419433282971152"><ele>252.0</ele><time>2026-04-03T06:26:33.999Z</time></trkpt><trkpt lat="45.73236946672278" lon="9.419621659597945"><ele>253.0</ele><time>2026-04-03T06:26:34.999Z</time></trkpt><trkpt lat="45.73224951737013" lon="9.419772348049161"><ele>253.33333333333331</ele><time>2026-04-03T06:26:35.999Z</time></trkpt><trkpt lat="45.73211500462091" lon="9.419873817951856"><ele>253.66666666666669</ele><time>2026-04-03T06:26:37Z</time></trkpt><trkpt lat="45.73196206369587" lon="9.419903163516757"><ele>254.0</ele><time>2026-04-03T06:26:38Z</time></trkpt><trkpt lat="45.7318032099376" lon="9.419876983722839"><ele>253.33333333333334</ele><time>2026-04-03T06:26:39Z</time></trkpt><trkpt lat="45.731646124377534" lon="9.419804162864347"><ele>252.66666666666669</ele><time>2026-04-03T06:26:40Z</time></trkpt><trkpt lat="45.731487069762764" lon="9.419697277993903"><ele>252.0</ele><time>2026-04-03T06:26:41Z</time></trkpt><trkpt lat="45.731334450479864" lon="9.419557783400645"><ele>252.0</ele><time>2026-04-03T06:26:42Z</time></trkpt><trkpt lat="45.73118811905734" lon="9.419391893924539"><ele>252.0</ele><time>2026-04-03T06:26:43Z</time></trkpt><trkpt lat="45.73103118445822" lon="9.419228593471852"><ele>252.0</ele><time>2026-04-03T06:26:44Z</time></trkpt><trkpt lat="45.730859619040714" lon="9.41907089068452"><ele>253.66666666666669</ele><time>2026-04-03T06:26:45Z</time></trkpt><trkpt lat="45.73068960944399" lon="9.418911169880525"><ele>255.33333333333334</ele><time>2026-04-03T06:26:46Z</time></trkpt><trkpt lat="45.730521687399815" lon="9.418743260396232"><ele>257.0</ele><time>2026-04-03T06:26:47Z</time></trkpt><trkpt lat="45.730356024572465" lon="9.418568421460689"><ele>259.0</ele><time>2026-04-03T06:26:48Z</time></trkpt><trkpt lat="45.73018308257569" lon="9.418395806622074"><ele>261.0</ele><time>2026-04-03T06:26:49Z</time></trkpt><trkpt lat="45.73000246043717" lon="9.418232302166892"><ele>263.0</ele><time>2026-04-03T06:26:50Z</time></trkpt><trkpt lat="45.72981637375472" lon="9.418076615263033"><ele>264.0</ele><time>2026-04-03T06:26:51Z</time></trkpt><trkpt lat="45.72962903159076" lon="9.417919821594086"><ele>265.0</ele><time>2026-04-03T06:26:52Z</time></trkpt><trkpt lat="45.72944367738758" lon="9.41775284394806"><ele>266.0</ele><time>2026-04-03T06:26:53Z</time></trkpt><trkpt lat="45.72928217711635" lon="9.417538947286381"><ele>266.0</ele><time>2026-04-03T06:26:54Z</time></trkpt><trkpt lat="45.72913019921706" lon="9.417322920965546"><ele>266.0</ele><time>2026-04-03T06:26:55Z</time></trkpt><trkpt lat="45.72898749916204" lon="9.417090191916952"><ele>266.0</ele><time>2026-04-03T06:26:56Z</time></trkpt><trkpt lat="45.7288386207526" lon="9.41686916149363"><ele>266.33333333333337</ele><time>2026-04-03T06:26:57Z</time></trkpt><trkpt lat="45.728703618561916" lon="9.416636854201302"><ele>266.6666666666667</ele><time>2026-04-03T06:26:58Z</time></trkpt><trkpt lat="45.72855249265193" lon="9.41642778177642"><ele>267.0</ele><time>2026-04-03T06:26:59Z</time></trkpt><trkpt lat="45.728383052371754" lon="9.416249284741747"><ele>267.0</ele><time>2026-04-03T06:27:00Z</time></trkpt><trkpt lat="45.7282015020946" lon="9.416096664834688"><ele>267.0</ele><time>2026-04-03T06:27:01Z</time></trkpt><trkpt lat="45.728016860488985" lon="9.41596208775865"><ele>267.0</ele><time>2026-04-03T06:27:02Z</time></trkpt><trkpt lat="45.72783072049655" lon="9.415840963440385"><ele>269.0</ele><time>2026-04-03T06:27:03Z</time></trkpt><trkpt lat="45.727642397340276" lon="9.415730418516848"><ele>271.0</ele><time>2026-04-03T06:27:04Z</time></trkpt><trkpt lat="45.72745001703784" lon="9.415642659321598"><ele>273.0</ele><time>2026-04-03T06:27:05Z</time></trkpt><trkpt lat="45.727253326982954" lon="9.415581902329208"><ele>273.0</ele><time>2026-04-03T06:27:06Z</time></trkpt><trkpt lat="45.72705823040527" lon="9.415539037170836"><ele>273.0</ele><time>2026-04-03T06:27:07Z</time></trkpt><trkpt lat="45.726863989210436" lon="9.415504716708126"><ele>273.0</ele><time>2026-04-03T06:27:08Z</time></trkpt><trkpt lat="45.726672185075465" lon="9.41547741235576"><ele>275.0</ele><time>2026-04-03T06:27:09Z</time></trkpt><trkpt lat="45.72649002156893" lon="9.415462564870857"><ele>277.0</ele><time>2026-04-03T06:27:10Z</time></trkpt><trkpt lat="45.726308077280876" lon="9.415462154205292"><ele>279.0</ele><time>2026-04-03T06:27:11Z</time></trkpt><trkpt lat="45.726136685805415" lon="9.415473776220571"><ele>279.3333333333333</ele><time>2026-04-03T06:27:12Z</time></trkpt><trkpt lat="45.72596990752674" lon="9.415494459431455"><ele>279.66666666666663</ele><time>2026-04-03T06:27:13Z</time></trkpt><trkpt lat="45.72580962293337" lon="9.415528016242474"><ele>280.0</ele><time>2026-04-03T06:27:14Z</time></trkpt><trkpt lat="45.72566237101192" lon="9.415573567527614"><ele>280.0</ele><time>2026-04-03T06:27:15Z</time></trkpt><trkpt lat="45.725531424955555" lon="9.415628146532468"><ele>280.0</ele><time>2026-04-03T06:27:16Z</time></trkpt><trkpt lat="45.725410563736595" lon="9.415679588408665"><ele>280.0</ele><time>2026-04-03T06:27:17Z</time></trkpt><trkpt lat="45.725300914976394" lon="9.415726092533948"><ele>280.0</ele><time>2026-04-03T06:27:18Z</time></trkpt><trkpt lat="45.72520003290229" lon="9.41576819541093"><ele>280.66666666666663</ele><time>2026-04-03T06:27:19Z</time></trkpt><trkpt lat="45.725108907594176" lon="9.415803643751508"><ele>281.3333333333333</ele><time>2026-04-03T06:27:20Z</time></trkpt><trkpt lat="45.72502783131713" lon="9.41582488556513"><ele>282.0</ele><time>2026-04-03T06:27:21Z</time></trkpt><trkpt lat="45.72495051700769" lon="9.415825537681492"><ele>282.6666666666667</ele><time>2026-04-03T06:27:22Z</time></trkpt><trkpt lat="45.72486841617353" lon="9.415817785558861"><ele>283.33333333333337</ele><time>2026-04-03T06:27:23Z</time></trkpt><trkpt lat="45.7247686951239" lon="9.415831699241545"><ele>284.0</ele><time>2026-04-03T06:27:24Z</time></trkpt><trkpt lat="45.72465641019506" lon="9.41583465616098"><ele>284.0</ele><time>2026-04-03T06:27:25Z</time></trkpt><trkpt lat="45.72453614133213" lon="9.415789130786617"><ele>284.0</ele><time>2026-04-03T06:27:26Z</time></trkpt><trkpt lat="45.72442632101905" lon="9.415694889987455"><ele>284.0</ele><time>2026-04-03T06:27:27Z</time></trkpt><trkpt lat="45.724319502016314" lon="9.415585232455472"><ele>284.0</ele><time>2026-04-03T06:27:28Z</time></trkpt><trkpt lat="45.72421432554023" lon="9.415477514198804"><ele>284.0</ele><time>2026-04-03T06:27:29Z</time></trkpt><trkpt lat="45.72411457910907" lon="9.41537930475358"><ele>284.0</ele><time>2026-04-03T06:27:30Z</time></trkpt><trkpt lat="45.72401587547221" lon="9.415281997166538"><ele>284.0</ele><time>2026-04-03T06:27:31Z</time></trkpt><trkpt lat="45.72391177899626" lon="9.415181499346348"><ele>284.0</ele><time>2026-04-03T06:27:32Z</time></trkpt><trkpt lat="45.7238096593153" lon="9.415072562499814"><ele>284.0</ele><time>2026-04-03T06:27:33Z</time></trkpt><trkpt lat="45.72370870161916" lon="9.414960838134341"><ele>284.0</ele><time>2026-04-03T06:27:34Z</time></trkpt><trkpt lat="45.72360835760533" lon="9.414850622014184"><ele>284.0</ele><time>2026-04-03T06:27:35Z</time></trkpt><trkpt lat="45.723506920354" lon="9.414747225439944"><ele>284.0</ele><time>2026-04-03T06:27:35.999Z</time></trkpt><trkpt lat="45.72340805739141" lon="9.414647098105668"><ele>284.5</ele><time>2026-04-03T06:27:36.999Z</time></trkpt><trkpt lat="45.72330620844539" lon="9.414544518945688"><ele>285.0</ele><time>2026-04-03T06:27:37.999Z</time></trkpt><trkpt lat="45.72319777898473" lon="9.414435190672435"><ele>285.5</ele><time>2026-04-03T06:27:38.999Z</time></trkpt><trkpt lat="45.72309123750826" lon="9.4143202190038"><ele>286.0</ele><time>2026-04-03T06:27:39.999Z</time></trkpt><trkpt lat="45.72298462146816" lon="9.414201036065245"><ele>286.0</ele><time>2026-04-03T06:27:40.999Z</time></trkpt><trkpt lat="45.72287860711286" lon="9.414079995745746"><ele>286.0</ele><time>2026-04-03T06:27:41.999Z</time></trkpt><trkpt lat="45.72277585247354" lon="9.413957662477381"><ele>286.0</ele><time>2026-04-03T06:27:42.999Z</time></trkpt><trkpt lat="45.72267419945568" lon="9.413848047027942"><ele>286.0</ele><time>2026-04-03T06:27:43.999Z</time></trkpt><trkpt lat="45.72256981181608" lon="9.413738451497963"><ele>286.5</ele><time>2026-04-03T06:27:44.999Z</time></trkpt><trkpt lat="45.72247111803545" lon="9.413633393319119"><ele>287.0</ele><time>2026-04-03T06:27:45.999Z</time></trkpt><trkpt lat="45.722372824384294" lon="9.413530642441472"><ele>287.5</ele><time>2026-04-03T06:27:46.999Z</time></trkpt><trkpt lat="45.7222745325876" lon="9.413427142826361"><ele>288.0</ele><time>2026-04-03T06:27:47.999Z</time></trkpt><trkpt lat="45.72217569680373" lon="9.413325974856736"><ele>288.0</ele><time>2026-04-03T06:27:48.999Z</time></trkpt><trkpt lat="45.72207417434376" lon="9.413227071683933"><ele>288.0</ele><time>2026-04-03T06:27:49.999Z</time></trkpt><trkpt lat="45.721974982925246" lon="9.413132235275155"><ele>288.0</ele><time>2026-04-03T06:27:50.999Z</time></trkpt><trkpt lat="45.721875944270536" lon="9.41303150234131"><ele>288.0</ele><time>2026-04-03T06:27:51.999Z</time></trkpt><trkpt lat="45.72177556648896" lon="9.41292185073439"><ele>288.5</ele><time>2026-04-03T06:27:52.999Z</time></trkpt><trkpt lat="45.72167169876529" lon="9.412806597419554"><ele>289.0</ele><time>2026-04-03T06:27:53.999Z</time></trkpt><trkpt lat="45.72156173871222" lon="9.412686603052544"><ele>289.5</ele><time>2026-04-03T06:27:54.999Z</time></trkpt><trkpt lat="45.72145037348824" lon="9.412568003192419"><ele>290.0</ele><time>2026-04-03T06:27:55.999Z</time></trkpt><trkpt lat="45.721338619246744" lon="9.412451209403356"><ele>290.0</ele><time>2026-04-03T06:27:56.999Z</time></trkpt><trkpt lat="45.72122694764195" lon="9.412335044961603"><ele>290.0</ele><time>2026-04-03T06:27:57.999Z</time></trkpt><trkpt lat="45.7211152880103" lon="9.41221916048381"><ele>290.0</ele><time>2026-04-03T06:27:58.999Z</time></trkpt><trkpt lat="45.72100069600436" lon="9.412104871087019"><ele>290.0</ele><time>2026-04-03T06:27:59.999Z</time></trkpt><trkpt lat="45.720885642798876" lon="9.411989158992641"><ele>291.5</ele><time>2026-04-03T06:28:00.999Z</time></trkpt><trkpt lat="45.72076915096239" lon="9.411870854281489"><ele>293.0</ele><time>2026-04-03T06:28:01.999Z</time></trkpt><trkpt lat="45.72064983198021" lon="9.411752586616206"><ele>294.5</ele><time>2026-04-03T06:28:02.999Z</time></trkpt><trkpt lat="45.72053103476294" lon="9.411627328941504"><ele>296.0</ele><time>2026-04-03T06:28:03.999Z</time></trkpt><trkpt lat="45.72041360475138" lon="9.411500453322867"><ele>296.0</ele><time>2026-04-03T06:28:04.999Z</time></trkpt><trkpt lat="45.720293779107244" lon="9.411372219772566"><ele>296.0</ele><time>2026-04-03T06:28:05.999Z</time></trkpt><trkpt lat="45.72016860063099" lon="9.41124168338001"><ele>296.0</ele><time>2026-04-03T06:28:06.999Z</time></trkpt><trkpt lat="45.72004437605439" lon="9.411109205269888"><ele>296.0</ele><time>2026-04-03T06:28:07.999Z</time></trkpt><trkpt lat="45.719919561066334" lon="9.41097303467484"><ele>296.0</ele><time>2026-04-03T06:28:08.999Z</time></trkpt><trkpt lat="45.71979290632548" lon="9.410838046759752"><ele>296.0</ele><time>2026-04-03T06:28:09.999Z</time></trkpt><trkpt lat="45.71966268156263" lon="9.410701921031817"><ele>296.0</ele><time>2026-04-03T06:28:10.999Z</time></trkpt><trkpt lat="45.71953200412833" lon="9.410566942706659"><ele>296.0</ele><time>2026-04-03T06:28:11.999Z</time></trkpt><trkpt lat="45.71940081860307" lon="9.410429699165924"><ele>296.0</ele><time>2026-04-03T06:28:12.999Z</time></trkpt><trkpt lat="45.71927107723125" lon="9.410291853802493"><ele>297.0</ele><time>2026-04-03T06:28:13.999Z</time></trkpt><trkpt lat="45.71914697657532" lon="9.41015794106308"><ele>298.0</ele><time>2026-04-03T06:28:14.999Z</time></trkpt><trkpt lat="45.71902098808233" lon="9.410023876725317"><ele>299.0</ele><time>2026-04-03T06:28:15.999Z</time></trkpt><trkpt lat="45.71889623281351" lon="9.409895381776037"><ele>299.0</ele><time>2026-04-03T06:28:16.999Z</time></trkpt><trkpt lat="45.71878023327689" lon="9.40977360124197"><ele>299.0</ele><time>2026-04-03T06:28:17.999Z</time></trkpt><trkpt lat="45.718673152933654" lon="9.409661351890838"><ele>299.0</ele><time>2026-04-03T06:28:18.999Z</time></trkpt><trkpt lat="45.718565699105746" lon="9.409552555797971"><ele>299.0</ele><time>2026-04-03T06:28:19.999Z</time></trkpt><trkpt lat="45.718460509073815" lon="9.40943752936689"><ele>298.75</ele><time>2026-04-03T06:28:20.999Z</time></trkpt><trkpt lat="45.718357797922216" lon="9.409330183864672"><ele>298.5</ele><time>2026-04-03T06:28:21.999Z</time></trkpt><trkpt lat="45.71826015105465" lon="9.409230942707373"><ele>298.25</ele><time>2026-04-03T06:28:22.999Z</time></trkpt><trkpt lat="45.718167344585055" lon="9.409136214663441"><ele>298.0</ele><time>2026-04-03T06:28:23.999Z</time></trkpt><trkpt lat="45.718075187878526" lon="9.409044912187431"><ele>298.0</ele><time>2026-04-03T06:28:24.999Z</time></trkpt><trkpt lat="45.7179879412121" lon="9.408954330961638"><ele>298.0</ele><time>2026-04-03T06:28:25.999Z</time></trkpt><trkpt lat="45.71790651442303" lon="9.408870786903751"><ele>298.0</ele><time>2026-04-03T06:28:26.999Z</time></trkpt><trkpt lat="45.71783317505591" lon="9.408794573921073"><ele>298.0</ele><time>2026-04-03T06:28:27.999Z</time></trkpt><trkpt lat="45.717762122900176" lon="9.408721686490795"><ele>298.0</ele><time>2026-04-03T06:28:28.999Z</time></trkpt><trkpt lat="45.717694996491794" lon="9.408651840505138"><ele>297.85714285714283</ele><time>2026-04-03T06:28:29.999Z</time></trkpt><trkpt lat="45.71763556942993" lon="9.408583613396095"><ele>297.71428571428567</ele><time>2026-04-03T06:28:30.999Z</time></trkpt><trkpt lat="45.71758650087148" lon="9.408509974567588"><ele>297.57142857142856</ele><time>2026-04-03T06:28:31.999Z</time></trkpt><trkpt lat="45.717550691350695" lon="9.40842232363616"><ele>297.42857142857144</ele><time>2026-04-03T06:28:32.999Z</time></trkpt><trkpt lat="45.717522589122616" lon="9.40832251486482"><ele>297.28571428571433</ele><time>2026-04-03T06:28:33.999Z</time></trkpt><trkpt lat="45.717497890860095" lon="9.40822737085047"><ele>297.14285714285717</ele><time>2026-04-03T06:28:34.999Z</time></trkpt><trkpt lat="45.71746546333115" lon="9.408144346230353"><ele>297.0</ele><time>2026-04-03T06:28:35.999Z</time></trkpt><trkpt lat="45.71735478147544" lon="9.408074656037195"><ele>297.0</ele><time>2026-04-03T06:28:37.999Z</time></trkpt><trkpt lat="45.71728714292918" lon="9.408104465329599"><ele>297.0</ele><time>2026-04-03T06:28:38.999Z</time></trkpt><trkpt lat="45.71722056050261" lon="9.408158958589933"><ele>297.0</ele><time>2026-04-03T06:28:39.999Z</time></trkpt><trkpt lat="45.71714613422902" lon="9.408188630144098"><ele>297.0</ele><time>2026-04-03T06:28:40.999Z</time></trkpt><trkpt lat="45.717065370760324" lon="9.408188337271259"><ele>297.0</ele><time>2026-04-03T06:28:41.999Z</time></trkpt><trkpt lat="45.71697700509548" lon="9.408169345697873"><ele>297.0</ele><time>2026-04-03T06:28:43Z</time></trkpt><trkpt lat="45.71688978035941" lon="9.408142227248305"><ele>297.2</ele><time>2026-04-03T06:28:44Z</time></trkpt><trkpt lat="45.71680334954148" lon="9.40811066152804"><ele>297.4</ele><time>2026-04-03T06:28:45Z</time></trkpt><trkpt lat="45.71671185296007" lon="9.408075656536344"><ele>297.6</ele><time>2026-04-03T06:28:46Z</time></trkpt><trkpt lat="45.71661350389266" lon="9.408045521276716"><ele>297.8</ele><time>2026-04-03T06:28:47Z</time></trkpt><trkpt lat="45.71651490450222" lon="9.408017536515773"><ele>298.0</ele><time>2026-04-03T06:28:48Z</time></trkpt><trkpt lat="45.716415722612304" lon="9.407987804330016"><ele>298.0</ele><time>2026-04-03T06:28:49Z</time></trkpt><trkpt lat="45.71632473811312" lon="9.407959265886484"><ele>298.0</ele><time>2026-04-03T06:28:50Z</time></trkpt><trkpt lat="45.71624961381109" lon="9.407934862668837"><ele>298.0</ele><time>2026-04-03T06:28:51Z</time></trkpt><trkpt lat="45.716178234819964" lon="9.407915296534794"><ele>298.0</ele><time>2026-04-03T06:28:52Z</time></trkpt><trkpt lat="45.716108190939025" lon="9.407895863470277"><ele>298.0</ele><time>2026-04-03T06:28:53Z</time></trkpt><trkpt lat="45.71603556223019" lon="9.40784867739761"><ele>298.0</ele><time>2026-04-03T06:28:54Z</time></trkpt><trkpt lat="45.715945817308395" lon="9.407839339476258"><ele>298.66666666666663</ele><time>2026-04-03T06:28:55Z</time></trkpt><trkpt lat="45.71583511201878" lon="9.407798197612596"><ele>299.3333333333333</ele><time>2026-04-03T06:28:56Z</time></trkpt><trkpt lat="45.715671920063286" lon="9.407730513915222"><ele>300.0</ele><time>2026-04-03T06:28:57Z</time></trkpt><trkpt lat="45.715494799259" lon="9.407652297151259"><ele>300.0</ele><time>2026-04-03T06:28:58Z</time></trkpt><trkpt lat="45.71530415095697" lon="9.407570515196753"><ele>300.0</ele><time>2026-04-03T06:28:59Z</time></trkpt><trkpt lat="45.71511314195676" lon="9.407486569933909"><ele>300.0</ele><time>2026-04-03T06:29:00Z</time></trkpt><trkpt lat="45.71492010407239" lon="9.407392934479166"><ele>300.0</ele><time>2026-04-03T06:29:01Z</time></trkpt><trkpt lat="45.71471813301783" lon="9.407292986242677"><ele>300.0</ele><time>2026-04-03T06:29:02Z</time></trkpt><trkpt lat="45.71451116328698" lon="9.407191037016371"><ele>300.0</ele><time>2026-04-03T06:29:03Z</time></trkpt><trkpt lat="45.71430236978503" lon="9.407089414560208"><ele>300.0</ele><time>2026-04-03T06:29:04Z</time></trkpt><trkpt lat="45.71409791634717" lon="9.406988988150486"><ele>300.0</ele><time>2026-04-03T06:29:05Z</time></trkpt><trkpt lat="45.713892383943076" lon="9.406889445383435"><ele>300.0</ele><time>2026-04-03T06:29:06Z</time></trkpt><trkpt lat="45.71369085514619" lon="9.406788870753848"><ele>301.0</ele><time>2026-04-03T06:29:07Z</time></trkpt><trkpt lat="45.71349192355774" lon="9.406691390901662"><ele>302.0</ele><time>2026-04-03T06:29:08Z</time></trkpt><trkpt lat="45.713299229750795" lon="9.406593979066017"><ele>303.0</ele><time>2026-04-03T06:29:09Z</time></trkpt><trkpt lat="45.71311243642687" lon="9.406498375214994"><ele>303.0</ele><time>2026-04-03T06:29:10Z</time></trkpt><trkpt lat="45.71292554209175" lon="9.40640221718626"><ele>303.0</ele><time>2026-04-03T06:29:11Z</time></trkpt><trkpt lat="45.71274567445431" lon="9.406314122450325"><ele>303.0</ele><time>2026-04-03T06:29:12Z</time></trkpt><trkpt lat="45.71256978997111" lon="9.4062401370806"><ele>302.3333333333333</ele><time>2026-04-03T06:29:13Z</time></trkpt><trkpt lat="45.71239728745123" lon="9.406179870010838"><ele>301.66666666666663</ele><time>2026-04-03T06:29:14Z</time></trkpt><trkpt lat="45.712233494388094" lon="9.406138186013896"><ele>301.0</ele><time>2026-04-03T06:29:15Z</time></trkpt><trkpt lat="45.71207938395112" lon="9.406118201451342"><ele>301.0</ele><time>2026-04-03T06:29:16Z</time></trkpt><trkpt lat="45.71193720735295" lon="9.406116488976739"><ele>301.0</ele><time>2026-04-03T06:29:17Z</time></trkpt><trkpt lat="45.71180019451666" lon="9.406121929431315"><ele>301.0</ele><time>2026-04-03T06:29:18Z</time></trkpt><trkpt lat="45.711667287082925" lon="9.406133651877497"><ele>301.0</ele><time>2026-04-03T06:29:19Z</time></trkpt><trkpt lat="45.711540885760606" lon="9.406140188621608"><ele>301.6</ele><time>2026-04-03T06:29:20Z</time></trkpt><trkpt lat="45.711422550238666" lon="9.406134752488912"><ele>302.20000000000005</ele><time>2026-04-03T06:29:21Z</time></trkpt><trkpt lat="45.711313622059606" lon="9.406115725499381"><ele>302.79999999999995</ele><time>2026-04-03T06:29:22Z</time></trkpt><trkpt lat="45.711215898079644" lon="9.406091944309537"><ele>303.4</ele><time>2026-04-03T06:29:23Z</time></trkpt><trkpt lat="45.71112192161923" lon="9.406098151760713"><ele>304.0</ele><time>2026-04-03T06:29:24Z</time></trkpt><trkpt lat="45.711033443555564" lon="9.406156679270305"><ele>305.25</ele><time>2026-04-03T06:29:25Z</time></trkpt><trkpt lat="45.710949662386035" lon="9.40625300575129"><ele>306.5</ele><time>2026-04-03T06:29:26Z</time></trkpt><trkpt lat="45.71086250284421" lon="9.40635743527837"><ele>307.75</ele><time>2026-04-03T06:29:27Z</time></trkpt><trkpt lat="45.71076183405707" lon="9.406448007180643"><ele>309.0</ele><time>2026-04-03T06:29:28Z</time></trkpt><trkpt lat="45.710649997295285" lon="9.406536452574336"><ele>309.0</ele><time>2026-04-03T06:29:29Z</time></trkpt><trkpt lat="45.71053454002907" lon="9.406629316805184"><ele>309.0</ele><time>2026-04-03T06:29:30Z</time></trkpt><trkpt lat="45.71042646656875" lon="9.406714042373876"><ele>309.0</ele><time>2026-04-03T06:29:31Z</time></trkpt><trkpt lat="45.71032996855982" lon="9.40679122965394"><ele>309.0</ele><time>2026-04-03T06:29:32Z</time></trkpt><trkpt lat="45.71023889464782" lon="9.40686600556737"><ele>309.2</ele><time>2026-04-03T06:29:33Z</time></trkpt><trkpt lat="45.710147945427245" lon="9.406934930814838"><ele>309.4</ele><time>2026-04-03T06:29:34Z</time></trkpt><trkpt lat="45.71005756347921" lon="9.406995228116404"><ele>309.6</ele><time>2026-04-03T06:29:35Z</time></trkpt><trkpt lat="45.70996952242119" lon="9.4070561239596"><ele>309.8</ele><time>2026-04-03T06:29:36Z</time></trkpt><trkpt lat="45.70987775155289" lon="9.407133685196067"><ele>310.0</ele><time>2026-04-03T06:29:37Z</time></trkpt><trkpt lat="45.709781011242775" lon="9.407225056012999"><ele>310.0</ele><time>2026-04-03T06:29:38Z</time></trkpt><trkpt lat="45.709674192434235" lon="9.407313189109335"><ele>310.0</ele><time>2026-04-03T06:29:38.999Z</time></trkpt><trkpt lat="45.70957287640903" lon="9.407388617641455"><ele>310.0</ele><time>2026-04-03T06:29:39.999Z</time></trkpt><trkpt lat="45.70947832915662" lon="9.407466151011405"><ele>310.0</ele><time>2026-04-03T06:29:40.999Z</time></trkpt><trkpt lat="45.7093926105478" lon="9.407530966023428"><ele>310.0</ele><time>2026-04-03T06:29:41.999Z</time></trkpt><trkpt lat="45.70930635847491" lon="9.407591175279535"><ele>309.4</ele><time>2026-04-03T06:29:42.999Z</time></trkpt><trkpt lat="45.70922184777526" lon="9.407659655372951"><ele>308.8</ele><time>2026-04-03T06:29:43.999Z</time></trkpt><trkpt lat="45.709135228212176" lon="9.407725915311712"><ele>308.2</ele><time>2026-04-03T06:29:44.999Z</time></trkpt><trkpt lat="45.70904608842552" lon="9.407799610937236"><ele>307.6</ele><time>2026-04-03T06:29:45.999Z</time></trkpt><trkpt lat="45.708953182617094" lon="9.407878272950102"><ele>307.0</ele><time>2026-04-03T06:29:46.999Z</time></trkpt><trkpt lat="45.708860218038325" lon="9.407956669480223"><ele>306.75</ele><time>2026-04-03T06:29:47.999Z</time></trkpt><trkpt lat="45.70875933657683" lon="9.408044753051042"><ele>306.5</ele><time>2026-04-03T06:29:48.999Z</time></trkpt><trkpt lat="45.7086545328727" lon="9.408134725224018"><ele>306.25</ele><time>2026-04-03T06:29:49.999Z</time></trkpt><trkpt lat="45.7085465540436" lon="9.408225853685948"><ele>306.0</ele><time>2026-04-03T06:29:50.999Z</time></trkpt><trkpt lat="45.708433528922036" lon="9.408318322007503"><ele>305.75</ele><time>2026-04-03T06:29:51.999Z</time></trkpt><trkpt lat="45.708319777173976" lon="9.408402529213168"><ele>305.5</ele><time>2026-04-03T06:29:52.999Z</time></trkpt><trkpt lat="45.70821603516681" lon="9.40848394547736"><ele>305.25</ele><time>2026-04-03T06:29:53.999Z</time></trkpt><trkpt lat="45.70811751948897" lon="9.40856457473886"><ele>305.0</ele><time>2026-04-03T06:29:54.999Z</time></trkpt><trkpt lat="45.7080207190776" lon="9.40864472624537"><ele>305.0</ele><time>2026-04-03T06:29:55.999Z</time></trkpt><trkpt lat="45.70792776026666" lon="9.408723300155524"><ele>305.0</ele><time>2026-04-03T06:29:56.999Z</time></trkpt><trkpt lat="45.70782943237539" lon="9.408805848073719"><ele>305.0</ele><time>2026-04-03T06:29:57.999Z</time></trkpt><trkpt lat="45.70772228216713" lon="9.40888924841669"><ele>305.0</ele><time>2026-04-03T06:29:58.999Z</time></trkpt><trkpt lat="45.70761267889254" lon="9.408977267426938"><ele>304.0</ele><time>2026-04-03T06:29:59.999Z</time></trkpt><trkpt lat="45.70749965114747" lon="9.409065462109428"><ele>303.0</ele><time>2026-04-03T06:30:00.999Z</time></trkpt><trkpt lat="45.707390996818475" lon="9.409148866535608"><ele>302.0</ele><time>2026-04-03T06:30:01.999Z</time></trkpt><trkpt lat="45.707288960161264" lon="9.409230754865412"><ele>301.0</ele><time>2026-04-03T06:30:02.999Z</time></trkpt><trkpt lat="45.70719234168575" lon="9.409308852878173"><ele>301.0</ele><time>2026-04-03T06:30:03.999Z</time></trkpt><trkpt lat="45.70710194388366" lon="9.409382979981038"><ele>301.0</ele><time>2026-04-03T06:30:04.999Z</time></trkpt><trkpt lat="45.70701888276054" lon="9.409449349684902"><ele>301.0</ele><time>2026-04-03T06:30:05.999Z</time></trkpt><trkpt lat="45.70694094470132" lon="9.409511661868192"><ele>301.0</ele><time>2026-04-03T06:30:06.999Z</time></trkpt><trkpt lat="45.70687564448199" lon="9.409564374371762"><ele>301.0</ele><time>2026-04-03T06:30:07.999Z</time></trkpt><trkpt lat="45.70682028391963" lon="9.409613532786029"><ele>301.0</ele><time>2026-04-03T06:30:08.999Z</time></trkpt><trkpt lat="45.70673190546772" lon="9.409687013470107"><ele>300.66666666666663</ele><time>2026-04-03T06:30:10.999Z</time></trkpt><trkpt lat="45.70666325819331" lon="9.40974637659786"><ele>300.3333333333333</ele><time>2026-04-03T06:30:12.999Z</time></trkpt><trkpt lat="45.70660083816546" lon="9.409807012676268"><ele>300.0</ele><time>2026-04-03T06:30:14.999Z</time></trkpt><trkpt lat="45.706536841317515" lon="9.409871114375377"><ele>299.6666666666667</ele><time>2026-04-03T06:30:16.999Z</time></trkpt><trkpt lat="45.70645205293539" lon="9.409912305313533"><ele>299.33333333333337</ele><time>2026-04-03T06:30:18.999Z</time></trkpt><trkpt lat="45.70635331738079" lon="9.40997022040899"><ele>299.0</ele><time>2026-04-03T06:30:20.999Z</time></trkpt><trkpt lat="45.70624854791883" lon="9.410065426692091"><ele>299.0</ele><time>2026-04-03T06:30:22.999Z</time></trkpt><trkpt lat="45.70618741431194" lon="9.41011686363789"><ele>299.0</ele><time>2026-04-03T06:30:23.999Z</time></trkpt><trkpt lat="45.70611933223468" lon="9.410174574420203"><ele>299.0</ele><time>2026-04-03T06:30:24.999Z</time></trkpt><trkpt lat="45.70604345739623" lon="9.41023599069228"><ele>299.0</ele><time>2026-04-03T06:30:25.999Z</time></trkpt><trkpt lat="45.70596549949811" lon="9.410296955430526"><ele>299.0</ele><time>2026-04-03T06:30:26.999Z</time></trkpt><trkpt lat="45.70588708346754" lon="9.410362491159637"><ele>299.0</ele><time>2026-04-03T06:30:27.999Z</time></trkpt><trkpt lat="45.70580932743998" lon="9.410424627785966"><ele>298.2</ele><time>2026-04-03T06:30:28.999Z</time></trkpt><trkpt lat="45.70572686872931" lon="9.41049142118074"><ele>297.4</ele><time>2026-04-03T06:30:29.999Z</time></trkpt><trkpt lat="45.7056377430656" lon="9.410561348817202"><ele>296.6</ele><time>2026-04-03T06:30:30.999Z</time></trkpt><trkpt lat="45.70554701702628" lon="9.410632906890262"><ele>295.8</ele><time>2026-04-03T06:30:31.999Z</time></trkpt><trkpt lat="45.70545348729263" lon="9.410708194234232"><ele>295.0</ele><time>2026-04-03T06:30:32.999Z</time></trkpt><trkpt lat="45.705356832813294" lon="9.410784951171163"><ele>295.0</ele><time>2026-04-03T06:30:33.999Z</time></trkpt><trkpt lat="45.70525959020545" lon="9.410863741140286"><ele>295.0</ele><time>2026-04-03T06:30:34.999Z</time></trkpt><trkpt lat="45.70516249169434" lon="9.410940315137987"><ele>295.0</ele><time>2026-04-03T06:30:35.999Z</time></trkpt><trkpt lat="45.70506630565573" lon="9.41101633642074"><ele>295.0</ele><time>2026-04-03T06:30:36.999Z</time></trkpt><trkpt lat="45.70496859102414" lon="9.411094382795836"><ele>295.0</ele><time>2026-04-03T06:30:37.999Z</time></trkpt><trkpt lat="45.704871167369404" lon="9.411164253670345"><ele>295.0</ele><time>2026-04-03T06:30:38.999Z</time></trkpt><trkpt lat="45.70477779042386" lon="9.411231246802732"><ele>295.0</ele><time>2026-04-03T06:30:39.999Z</time></trkpt><trkpt lat="45.7046834107684" lon="9.41128759628795"><ele>295.0</ele><time>2026-04-03T06:30:40.999Z</time></trkpt><trkpt lat="45.70458906446642" lon="9.41133885549653"><ele>295.0</ele><time>2026-04-03T06:30:41.999Z</time></trkpt><trkpt lat="45.704491205321936" lon="9.411385952512559"><ele>295.0</ele><time>2026-04-03T06:30:42.999Z</time></trkpt><trkpt lat="45.70438798990589" lon="9.411426833381688"><ele>293.4</ele><time>2026-04-03T06:30:43.999Z</time></trkpt><trkpt lat="45.70428105500631" lon="9.411462768634228"><ele>291.8</ele><time>2026-04-03T06:30:44.999Z</time></trkpt><trkpt lat="45.704170821159316" lon="9.411488530105448"><ele>290.2</ele><time>2026-04-03T06:30:45.999Z</time></trkpt><trkpt lat="45.70405985852352" lon="9.411509111224436"><ele>288.6</ele><time>2026-04-03T06:30:46.999Z</time></trkpt><trkpt lat="45.70394787043778" lon="9.41152296604739"><ele>287.0</ele><time>2026-04-03T06:30:47.999Z</time></trkpt><trkpt lat="45.70383661498073" lon="9.411528957943784"><ele>287.0</ele><time>2026-04-03T06:30:49Z</time></trkpt><trkpt lat="45.70372506391112" lon="9.411527137923793"><ele>287.0</ele><time>2026-04-03T06:30:50Z</time></trkpt><trkpt lat="45.70361612621555" lon="9.411516790677082"><ele>287.0</ele><time>2026-04-03T06:30:51Z</time></trkpt><trkpt lat="45.703507681693594" lon="9.411495554498215"><ele>287.0</ele><time>2026-04-03T06:30:52Z</time></trkpt><trkpt lat="45.703400371270114" lon="9.411467672226152"><ele>287.0</ele><time>2026-04-03T06:30:53Z</time></trkpt><trkpt lat="45.7032921533692" lon="9.41143397241219"><ele>287.75</ele><time>2026-04-03T06:30:54Z</time></trkpt><trkpt lat="45.70318241942056" lon="9.411393229292274"><ele>288.5</ele><time>2026-04-03T06:30:55Z</time></trkpt><trkpt lat="45.703070377924945" lon="9.411346116080438"><ele>289.25</ele><time>2026-04-03T06:30:56Z</time></trkpt><trkpt lat="45.702956928997146" lon="9.411296355077951"><ele>290.0</ele><time>2026-04-03T06:30:57Z</time></trkpt><trkpt lat="45.702843508945044" lon="9.411244657783769"><ele>289.6</ele><time>2026-04-03T06:30:58Z</time></trkpt><trkpt lat="45.70272971319012" lon="9.41119605790258"><ele>289.2</ele><time>2026-04-03T06:30:59Z</time></trkpt><trkpt lat="45.702619801528435" lon="9.411148026097372"><ele>288.8</ele><time>2026-04-03T06:31:00Z</time></trkpt><trkpt lat="45.70251539962314" lon="9.411100051079156"><ele>288.4</ele><time>2026-04-03T06:31:01Z</time></trkpt><trkpt lat="45.70241540255009" lon="9.411050515334898"><ele>288.0</ele><time>2026-04-03T06:31:02Z</time></trkpt><trkpt lat="45.70231661357594" lon="9.411000428735125"><ele>288.0</ele><time>2026-04-03T06:31:03Z</time></trkpt><trkpt lat="45.70222087465302" lon="9.410950112840888"><ele>288.0</ele><time>2026-04-03T06:31:04Z</time></trkpt><trkpt lat="45.7021254971145" lon="9.410899644498599"><ele>288.0</ele><time>2026-04-03T06:31:05Z</time></trkpt><trkpt lat="45.702029877451864" lon="9.41084170013694"><ele>288.0</ele><time>2026-04-03T06:31:06Z</time></trkpt><trkpt lat="45.70193415305195" lon="9.410776294981018"><ele>288.0</ele><time>2026-04-03T06:31:07Z</time></trkpt><trkpt lat="45.701839732038934" lon="9.41070178170061"><ele>288.25</ele><time>2026-04-03T06:31:08Z</time></trkpt><trkpt lat="45.70174550904111" lon="9.410623518697326"><ele>288.5</ele><time>2026-04-03T06:31:09Z</time></trkpt><trkpt lat="45.701649831885334" lon="9.410536741069889"><ele>288.75</ele><time>2026-04-03T06:31:10Z</time></trkpt><trkpt lat="45.701555167230175" lon="9.410441659331058"><ele>289.0</ele><time>2026-04-03T06:31:11Z</time></trkpt><trkpt lat="45.70146173908255" lon="9.410339111060996"><ele>289.0</ele><time>2026-04-03T06:31:12Z</time></trkpt><trkpt lat="45.70136759579624" lon="9.410230912525961"><ele>289.0</ele><time>2026-04-03T06:31:13Z</time></trkpt><trkpt lat="45.70127414344571" lon="9.410120003841302"><ele>289.0</ele><time>2026-04-03T06:31:14Z</time></trkpt><trkpt lat="45.70117983116315" lon="9.410006090618506"><ele>289.0</ele><time>2026-04-03T06:31:15Z</time></trkpt><trkpt lat="45.701082055953975" lon="9.409891195844185"><ele>289.0</ele><time>2026-04-03T06:31:16Z</time></trkpt><trkpt lat="45.7009826844671" lon="9.409775570047326"><ele>289.0</ele><time>2026-04-03T06:31:17Z</time></trkpt><trkpt lat="45.70088369012023" lon="9.409658363651507"><ele>289.0</ele><time>2026-04-03T06:31:18Z</time></trkpt><trkpt lat="45.700780809367615" lon="9.409539548718156"><ele>289.0</ele><time>2026-04-03T06:31:19Z</time></trkpt><trkpt lat="45.70067648791211" lon="9.409418181543717"><ele>288.0</ele><time>2026-04-03T06:31:20Z</time></trkpt><trkpt lat="45.700571944084906" lon="9.40929589188963"><ele>287.0</ele><time>2026-04-03T06:31:21Z</time></trkpt><trkpt lat="45.70046741011571" lon="9.40917118151067"><ele>286.0</ele><time>2026-04-03T06:31:22Z</time></trkpt><trkpt lat="45.700365718758796" lon="9.409050036637565"><ele>285.0</ele><time>2026-04-03T06:31:23Z</time></trkpt><trkpt lat="45.70027278348538" lon="9.408941101762661"><ele>285.4</ele><time>2026-04-03T06:31:24Z</time></trkpt><trkpt lat="45.700193135511434" lon="9.408849972194016"><ele>285.8</ele><time>2026-04-03T06:31:25Z</time></trkpt><trkpt lat="45.700123706476376" lon="9.40877021202111"><ele>286.2</ele><time>2026-04-03T06:31:26Z</time></trkpt><trkpt lat="45.700059242238396" lon="9.40869183144044"><ele>286.6</ele><time>2026-04-03T06:31:27Z</time></trkpt><trkpt lat="45.69999479503953" lon="9.408603832795427"><ele>287.0</ele><time>2026-04-03T06:31:28Z</time></trkpt><trkpt lat="45.69993041266015" lon="9.408513729391636"><ele>287.0</ele><time>2026-04-03T06:31:29Z</time></trkpt><trkpt lat="45.69985569746319" lon="9.408414097610553"><ele>287.0</ele><time>2026-04-03T06:31:30Z</time></trkpt><trkpt lat="45.69978125326342" lon="9.408316947723932"><ele>287.0</ele><time>2026-04-03T06:31:31Z</time></trkpt><trkpt lat="45.699710560536545" lon="9.408218065236989"><ele>287.0</ele><time>2026-04-03T06:31:32Z</time></trkpt><trkpt lat="45.699641873173505" lon="9.408120451737922"><ele>287.0</ele><time>2026-04-03T06:31:33Z</time></trkpt><trkpt lat="45.6995825268568" lon="9.408032529210207"><ele>286.57142857142856</ele><time>2026-04-03T06:31:34Z</time></trkpt><trkpt lat="45.6995274470177" lon="9.407954381061794"><ele>286.1428571428571</ele><time>2026-04-03T06:31:35Z</time></trkpt><trkpt lat="45.69947421206563" lon="9.407878605067088"><ele>285.7142857142857</ele><time>2026-04-03T06:31:36Z</time></trkpt><trkpt lat="45.699424605119546" lon="9.407809429150747"><ele>285.2857142857143</ele><time>2026-04-03T06:31:37Z</time></trkpt><trkpt lat="45.699368117402585" lon="9.40773807660397"><ele>284.85714285714283</ele><time>2026-04-03T06:31:38Z</time></trkpt><trkpt lat="45.69931410136296" lon="9.407671844147501"><ele>284.42857142857144</ele><time>2026-04-03T06:31:39Z</time></trkpt><trkpt lat="45.69926761364263" lon="9.407608361487636"><ele>284.0</ele><time>2026-04-03T06:31:40Z</time></trkpt><trkpt lat="45.69918003975661" lon="9.407478776137221"><ele>284.0</ele><time>2026-04-03T06:31:41.999Z</time></trkpt><trkpt lat="45.69911094459478" lon="9.407392868083795"><ele>284.0</ele><time>2026-04-03T06:31:43.999Z</time></trkpt><trkpt lat="45.69903788249782" lon="9.407303015397007"><ele>284.0</ele><time>2026-04-03T06:31:45.999Z</time></trkpt><trkpt lat="45.698958911286994" lon="9.407195233840362"><ele>284.0</ele><time>2026-04-03T06:31:47.999Z</time></trkpt><trkpt lat="45.69888919521856" lon="9.407105625133726"><ele>284.0</ele><time>2026-04-03T06:31:49.999Z</time></trkpt><trkpt lat="45.69882037710242" lon="9.407033536930422"><ele>283.4</ele><time>2026-04-03T06:31:53.999Z</time></trkpt><trkpt lat="45.698744857959" lon="9.406943073448042"><ele>282.79999999999995</ele><time>2026-04-03T06:31:55.999Z</time></trkpt><trkpt lat="45.69867931742047" lon="9.40682894769909"><ele>282.20000000000005</ele><time>2026-04-03T06:31:57.999Z</time></trkpt><trkpt lat="45.698632116181" lon="9.406728124173673"><ele>281.6</ele><time>2026-04-03T06:31:59.999Z</time></trkpt><trkpt lat="45.69857250713608" lon="9.406590030399812"><ele>281.0</ele><time>2026-04-03T06:32:01.999Z</time></trkpt><trkpt lat="45.698518165797694" lon="9.406516628482295"><ele>280.8</ele><time>2026-04-03T06:32:02.999Z</time></trkpt><trkpt lat="45.69843994879227" lon="9.406449085292426"><ele>280.6</ele><time>2026-04-03T06:32:03.999Z</time></trkpt><trkpt lat="45.698347020090885" lon="9.406396126684538"><ele>280.4</ele><time>2026-04-03T06:32:04.999Z</time></trkpt><trkpt lat="45.698247691537404" lon="9.406341454543961"><ele>280.2</ele><time>2026-04-03T06:32:05.999Z</time></trkpt><trkpt lat="45.698152870833326" lon="9.406274783457057"><ele>280.0</ele><time>2026-04-03T06:32:06.999Z</time></trkpt><trkpt lat="45.69806154265106" lon="9.40620257780811"><ele>279.66666666666663</ele><time>2026-04-03T06:32:07.999Z</time></trkpt><trkpt lat="45.69797815795658" lon="9.40612732830948"><ele>279.3333333333333</ele><time>2026-04-03T06:32:08.999Z</time></trkpt><trkpt lat="45.69790282764414" lon="9.40605529191757"><ele>279.0</ele><time>2026-04-03T06:32:09.999Z</time></trkpt><trkpt lat="45.69783235257518" lon="9.405986780819497"><ele>278.6666666666667</ele><time>2026-04-03T06:32:10.999Z</time></trkpt><trkpt lat="45.69776537530083" lon="9.405919749694155"><ele>278.33333333333337</ele><time>2026-04-03T06:32:11.999Z</time></trkpt><trkpt lat="45.69769416809302" lon="9.405846750864914"><ele>278.0</ele><time>2026-04-03T06:32:12.999Z</time></trkpt><trkpt lat="45.69761697240542" lon="9.405765745761883"><ele>277.8</ele><time>2026-04-03T06:32:13.999Z</time></trkpt><trkpt lat="45.697534390691075" lon="9.405680406896828"><ele>277.6</ele><time>2026-04-03T06:32:14.999Z</time></trkpt><trkpt lat="45.69744656308737" lon="9.405588675574476"><ele>277.4</ele><time>2026-04-03T06:32:15.999Z</time></trkpt><trkpt lat="45.69735649975223" lon="9.40548878121215"><ele>277.2</ele><time>2026-04-03T06:32:16.999Z</time></trkpt><trkpt lat="45.69726619123691" lon="9.405387912280474"><ele>277.0</ele><time>2026-04-03T06:32:17.999Z</time></trkpt><trkpt lat="45.69717586750873" lon="9.405287611740892"><ele>277.0</ele><time>2026-04-03T06:32:18.999Z</time></trkpt><trkpt lat="45.69708660266073" lon="9.405189200672064"><ele>277.0</ele><time>2026-04-03T06:32:19.999Z</time></trkpt><trkpt lat="45.69699610997576" lon="9.405095621018186"><ele>277.0</ele><time>2026-04-03T06:32:20.999Z</time></trkpt><trkpt lat="45.69690685579933" lon="9.405004449228533"><ele>277.0</ele><time>2026-04-03T06:32:21.999Z</time></trkpt><trkpt lat="45.69681960284772" lon="9.404916805035542"><ele>277.0</ele><time>2026-04-03T06:32:22.999Z</time></trkpt><trkpt lat="45.69672996976471" lon="9.40483178791498"><ele>277.0</ele><time>2026-04-03T06:32:23.999Z</time></trkpt><trkpt lat="45.69664070823316" lon="9.40474789389407"><ele>277.0</ele><time>2026-04-03T06:32:24.999Z</time></trkpt><trkpt lat="45.69655098418189" lon="9.404668134260382"><ele>277.0</ele><time>2026-04-03T06:32:25.999Z</time></trkpt><trkpt lat="45.696465335023525" lon="9.40459188330262"><ele>277.0</ele><time>2026-04-03T06:32:26.999Z</time></trkpt><trkpt lat="45.69638621600758" lon="9.404514519488307"><ele>277.0</ele><time>2026-04-03T06:32:27.999Z</time></trkpt><trkpt lat="45.69631232456974" lon="9.404434494021785"><ele>276.8333333333333</ele><time>2026-04-03T06:32:28.999Z</time></trkpt><trkpt lat="45.69624879331545" lon="9.404360685168971"><ele>276.66666666666663</ele><time>2026-04-03T06:32:29.999Z</time></trkpt><trkpt lat="45.69619059748407" lon="9.404301183118944"><ele>276.5</ele><time>2026-04-03T06:32:30.999Z</time></trkpt><trkpt lat="45.69610081157631" lon="9.404229490214602"><ele>276.3333333333333</ele><time>2026-04-03T06:32:32.999Z</time></trkpt><trkpt lat="45.69603097844777" lon="9.40416532049319"><ele>276.1666666666667</ele><time>2026-04-03T06:32:34.999Z</time></trkpt><trkpt lat="45.69597249599829" lon="9.404075411063628"><ele>276.0</ele><time>2026-04-03T06:32:35.999Z</time></trkpt><trkpt lat="45.69588380196093" lon="9.404010379498352"><ele>275.6666666666667</ele><time>2026-04-03T06:32:36.999Z</time></trkpt><trkpt lat="45.695812223017654" lon="9.403935230760089"><ele>275.3333333333333</ele><time>2026-04-03T06:32:37.999Z</time></trkpt><trkpt lat="45.69574488644612" lon="9.40387000233738"><ele>275.0</ele><time>2026-04-03T06:32:38.999Z</time></trkpt><trkpt lat="45.69568063110636" lon="9.403804955628543"><ele>274.66666666666663</ele><time>2026-04-03T06:32:39.999Z</time></trkpt><trkpt lat="45.6956114781374" lon="9.40373358434194"><ele>274.3333333333333</ele><time>2026-04-03T06:32:40.999Z</time></trkpt><trkpt lat="45.69555368055232" lon="9.403646454391419"><ele>274.0</ele><time>2026-04-03T06:32:41.999Z</time></trkpt><trkpt lat="45.69548048046326" lon="9.403572803174711"><ele>274.0</ele><time>2026-04-03T06:32:42.999Z</time></trkpt><trkpt lat="45.69540916697131" lon="9.403499519186886"><ele>274.0</ele><time>2026-04-03T06:32:43.999Z</time></trkpt><trkpt lat="45.695337386209445" lon="9.403426285176932"><ele>274.0</ele><time>2026-04-03T06:32:44.999Z</time></trkpt><trkpt lat="45.695262225430376" lon="9.403349564738166"><ele>274.0</ele><time>2026-04-03T06:32:45.999Z</time></trkpt><trkpt lat="45.695190389622766" lon="9.40327641700986"><ele>274.0</ele><time>2026-04-03T06:32:46.999Z</time></trkpt><trkpt lat="45.69512187898493" lon="9.403207049966902"><ele>274.0</ele><time>2026-04-03T06:32:47.999Z</time></trkpt><trkpt lat="45.6950548051621" lon="9.40313913773491"><ele>274.0</ele><time>2026-04-03T06:32:48.999Z</time></trkpt><trkpt lat="45.69497846336852" lon="9.403090875819986"><ele>274.0</ele><time>2026-04-03T06:32:49.999Z</time></trkpt><trkpt lat="45.69491315276404" lon="9.40302530355486"><ele>274.0</ele><time>2026-04-03T06:32:50.999Z</time></trkpt><trkpt lat="45.694852197070276" lon="9.402959632681805"><ele>274.0</ele><time>2026-04-03T06:32:51.999Z</time></trkpt><trkpt lat="45.69479082091687" lon="9.402892919775617"><ele>274.0</ele><time>2026-04-03T06:32:52.999Z</time></trkpt><trkpt lat="45.69473230934963" lon="9.402827134767811"><ele>274.0</ele><time>2026-04-03T06:32:53.999Z</time></trkpt><trkpt lat="45.69467287947136" lon="9.402766752707436"><ele>274.0</ele><time>2026-04-03T06:32:55Z</time></trkpt><trkpt lat="45.694615927749616" lon="9.402707280914573"><ele>274.0</ele><time>2026-04-03T06:32:56Z</time></trkpt><trkpt lat="45.69456247059444" lon="9.402655445549078"><ele>274.0</ele><time>2026-04-03T06:32:57Z</time></trkpt><trkpt lat="45.6944616528541" lon="9.402569225240574"><ele>274.0</ele><time>2026-04-03T06:32:59Z</time></trkpt><trkpt lat="45.694393176944864" lon="9.40247683833756"><ele>274.0</ele><time>2026-04-03T06:33:01Z</time></trkpt><trkpt lat="45.69432817012375" lon="9.4024413139504"><ele>274.0</ele><time>2026-04-03T06:33:02Z</time></trkpt><trkpt lat="45.69425337324121" lon="9.402355684840236"><ele>272.66666666666663</ele><time>2026-04-03T06:33:03Z</time></trkpt><trkpt lat="45.694142130046956" lon="9.402252980655119"><ele>271.3333333333333</ele><time>2026-04-03T06:33:04Z</time></trkpt><trkpt lat="45.69399249693123" lon="9.402168394273117"><ele>270.0</ele><time>2026-04-03T06:33:05Z</time></trkpt><trkpt lat="45.693815790128006" lon="9.402123893829996"><ele>269.6666666666667</ele><time>2026-04-03T06:33:06Z</time></trkpt><trkpt lat="45.69363235100329" lon="9.402125626919494"><ele>269.33333333333337</ele><time>2026-04-03T06:33:07Z</time></trkpt><trkpt lat="45.69344440084808" lon="9.402152531777206"><ele>269.0</ele><time>2026-04-03T06:33:08Z</time></trkpt><trkpt lat="45.693260916011184" lon="9.402176158844531"><ele>269.0</ele><time>2026-04-03T06:33:09Z</time></trkpt><trkpt lat="45.693076839471374" lon="9.402183411915576"><ele>269.0</ele><time>2026-04-03T06:33:10Z</time></trkpt><trkpt lat="45.69289432832968" lon="9.402158580773026"><ele>269.0</ele><time>2026-04-03T06:33:11Z</time></trkpt><trkpt lat="45.692735705964104" lon="9.402114967234489"><ele>269.0</ele><time>2026-04-03T06:33:12Z</time></trkpt><trkpt lat="45.69261531817664" lon="9.402071263649628"><ele>269.0</ele><time>2026-04-03T06:33:13Z</time></trkpt><trkpt lat="45.69253737777383" lon="9.40204173160179"><ele>269.0</ele><time>2026-04-03T06:33:14Z</time></trkpt><trkpt lat="45.69244916020075" lon="9.402001294497287"><ele>269.0</ele><time>2026-04-03T06:33:16Z</time></trkpt><trkpt lat="45.69235668703349" lon="9.401952870731114"><ele>269.0</ele><time>2026-04-03T06:33:19Z</time></trkpt><trkpt lat="45.692279493963355" lon="9.401915831985713"><ele>269.0</ele><time>2026-04-03T06:33:35Z</time></trkpt><trkpt lat="45.692205976636274" lon="9.401877575480105"><ele>269.0</ele><time>2026-04-03T06:33:36Z</time></trkpt><trkpt lat="45.69211440418051" lon="9.401828481004175"><ele>269.0</ele><time>2026-04-03T06:33:37Z</time></trkpt><trkpt lat="45.69199606257838" lon="9.401771473864898"><ele>269.0</ele><time>2026-04-03T06:33:38Z</time></trkpt><trkpt lat="45.69187184957616" lon="9.401709071497807"><ele>269.0</ele><time>2026-04-03T06:33:39Z</time></trkpt><trkpt lat="45.69172997044266" lon="9.401634620793889"><ele>268.6666666666667</ele><time>2026-04-03T06:33:40Z</time></trkpt><trkpt lat="45.69157632371842" lon="9.401559638553627"><ele>268.3333333333333</ele><time>2026-04-03T06:33:41Z</time></trkpt><trkpt lat="45.69142060366963" lon="9.401478795634818"><ele>268.0</ele><time>2026-04-03T06:33:42Z</time></trkpt><trkpt lat="45.69125824136581" lon="9.401386402534218"><ele>267.0</ele><time>2026-04-03T06:33:43Z</time></trkpt><trkpt lat="45.69109174941388" lon="9.401296048631961"><ele>266.0</ele><time>2026-04-03T06:33:43.999Z</time></trkpt><trkpt lat="45.69091516107129" lon="9.401207137233204"><ele>265.0</ele><time>2026-04-03T06:33:44.999Z</time></trkpt><trkpt lat="45.69073978601361" lon="9.401118574183217"><ele>265.0</ele><time>2026-04-03T06:33:45.999Z</time></trkpt><trkpt lat="45.69056187424818" lon="9.401029235237385"><ele>265.0</ele><time>2026-04-03T06:33:46.999Z</time></trkpt><trkpt lat="45.69038282277219" lon="9.400945994104488"><ele>265.0</ele><time>2026-04-03T06:33:47.999Z</time></trkpt><trkpt lat="45.69020452737735" lon="9.40086389523602"><ele>264.0</ele><time>2026-04-03T06:33:48.999Z</time></trkpt><trkpt lat="45.69002584361136" lon="9.400782274333089"><ele>263.0</ele><time>2026-04-03T06:33:49.999Z</time></trkpt><trkpt lat="45.68984875008519" lon="9.400702495267835"><ele>262.0</ele><time>2026-04-03T06:33:50.999Z</time></trkpt><trkpt lat="45.68967946922735" lon="9.400625813710178"><ele>262.0</ele><time>2026-04-03T06:33:51.999Z</time></trkpt><trkpt lat="45.68951889052406" lon="9.4005511620138"><ele>262.0</ele><time>2026-04-03T06:33:52.999Z</time></trkpt><trkpt lat="45.689366327963896" lon="9.40047817881433"><ele>262.0</ele><time>2026-04-03T06:33:53.999Z</time></trkpt><trkpt lat="45.68922264013819" lon="9.400408024031144"><ele>262.25</ele><time>2026-04-03T06:33:54.999Z</time></trkpt><trkpt lat="45.6890908323105" lon="9.400341471496475"><ele>262.5</ele><time>2026-04-03T06:33:55.999Z</time></trkpt><trkpt lat="45.688968774026264" lon="9.40027102127481"><ele>262.75</ele><time>2026-04-03T06:33:56.999Z</time></trkpt><trkpt lat="45.688857503965956" lon="9.400183370812986"><ele>263.0</ele><time>2026-04-03T06:33:57.999Z</time></trkpt><trkpt lat="45.688759458545604" lon="9.400076847988347"><ele>263.0</ele><time>2026-04-03T06:33:58.999Z</time></trkpt><trkpt lat="45.6886485615039" lon="9.399994635333035"><ele>263.0</ele><time>2026-04-03T06:33:59.999Z</time></trkpt><trkpt lat="45.68852369528429" lon="9.399982098739533"><ele>263.0</ele><time>2026-04-03T06:34:00.999Z</time></trkpt><trkpt lat="45.68839575222104" lon="9.40002395752263"><ele>263.0</ele><time>2026-04-03T06:34:01.999Z</time></trkpt><trkpt lat="45.688257528191045" lon="9.400026552701412"><ele>262.6666666666667</ele><time>2026-04-03T06:34:02.999Z</time></trkpt><trkpt lat="45.688109184586324" lon="9.399984030544504"><ele>262.3333333333333</ele><time>2026-04-03T06:34:03.999Z</time></trkpt><trkpt lat="45.68795393419612" lon="9.399938575221398"><ele>262.0</ele><time>2026-04-03T06:34:04.999Z</time></trkpt><trkpt lat="45.68779097560956" lon="9.399892189748993"><ele>260.66666666666663</ele><time>2026-04-03T06:34:05.999Z</time></trkpt><trkpt lat="45.687621868242175" lon="9.399844956883916"><ele>259.3333333333333</ele><time>2026-04-03T06:34:06.999Z</time></trkpt><trkpt lat="45.68744827326064" lon="9.3997916030225"><ele>258.0</ele><time>2026-04-03T06:34:07.999Z</time></trkpt><trkpt lat="45.68727290157648" lon="9.3997326737334"><ele>258.0</ele><time>2026-04-03T06:34:08.999Z</time></trkpt><trkpt lat="45.687092244432975" lon="9.399671235304824"><ele>258.0</ele><time>2026-04-03T06:34:09.999Z</time></trkpt><trkpt lat="45.68690967059573" lon="9.399608396073148"><ele>258.0</ele><time>2026-04-03T06:34:10.999Z</time></trkpt><trkpt lat="45.686726314140245" lon="9.399543099420645"><ele>257.6666666666667</ele><time>2026-04-03T06:34:11.999Z</time></trkpt><trkpt lat="45.68654156477078" lon="9.399476287093753"><ele>257.33333333333337</ele><time>2026-04-03T06:34:12.999Z</time></trkpt><trkpt lat="45.68635810258684" lon="9.399409182101916"><ele>257.0</ele><time>2026-04-03T06:34:13.999Z</time></trkpt><trkpt lat="45.68617600566119" lon="9.399344187363331"><ele>255.66666666666669</ele><time>2026-04-03T06:34:14.999Z</time></trkpt><trkpt lat="45.68599760691044" lon="9.399280132217104"><ele>254.33333333333331</ele><time>2026-04-03T06:34:15.999Z</time></trkpt><trkpt lat="45.68582126950071" lon="9.399216650284451"><ele>253.0</ele><time>2026-04-03T06:34:16.999Z</time></trkpt><trkpt lat="45.68565631814173" lon="9.399161804701656"><ele>253.0</ele><time>2026-04-03T06:34:17.999Z</time></trkpt><trkpt lat="45.68550528324805" lon="9.399118960352645"><ele>253.0</ele><time>2026-04-03T06:34:18.999Z</time></trkpt><trkpt lat="45.685356329200275" lon="9.399076354998654"><ele>253.0</ele><time>2026-04-03T06:34:19.999Z</time></trkpt><trkpt lat="45.68520426080518" lon="9.399018070067479"><ele>253.33333333333331</ele><time>2026-04-03T06:34:20.999Z</time></trkpt><trkpt lat="45.68504739835487" lon="9.398945458824464"><ele>253.66666666666669</ele><time>2026-04-03T06:34:21.999Z</time></trkpt><trkpt lat="45.684885306116946" lon="9.39888165629588"><ele>254.0</ele><time>2026-04-03T06:34:22.999Z</time></trkpt><trkpt lat="45.68471562815817" lon="9.398819548851769"><ele>254.0</ele><time>2026-04-03T06:34:23.999Z</time></trkpt><trkpt lat="45.68454426726647" lon="9.398754238406093"><ele>254.0</ele><time>2026-04-03T06:34:24.999Z</time></trkpt><trkpt lat="45.68437140314081" lon="9.398687886512223"><ele>254.0</ele><time>2026-04-03T06:34:25.999Z</time></trkpt><trkpt lat="45.6841991876552" lon="9.398622406884378"><ele>253.66666666666669</ele><time>2026-04-03T06:34:26.999Z</time></trkpt><trkpt lat="45.68402488970163" lon="9.398558308686319"><ele>253.33333333333331</ele><time>2026-04-03T06:34:27.999Z</time></trkpt><trkpt lat="45.68385220265031" lon="9.39849623314045"><ele>253.0</ele><time>2026-04-03T06:34:28.999Z</time></trkpt><trkpt lat="45.683685227970166" lon="9.398435462690264"><ele>253.0</ele><time>2026-04-03T06:34:29.999Z</time></trkpt><trkpt lat="45.68352214812403" lon="9.398375017275006"><ele>253.0</ele><time>2026-04-03T06:34:30.999Z</time></trkpt><trkpt lat="45.68336398421988" lon="9.398321043909663"><ele>253.0</ele><time>2026-04-03T06:34:31.999Z</time></trkpt><trkpt lat="45.68321028242771" lon="9.3982725782325"><ele>253.0</ele><time>2026-04-03T06:34:32.999Z</time></trkpt><trkpt lat="45.683063401431845" lon="9.3982307182171"><ele>253.0</ele><time>2026-04-03T06:34:33.999Z</time></trkpt><trkpt lat="45.68291449106923" lon="9.398188742935542"><ele>253.0</ele><time>2026-04-03T06:34:34.999Z</time></trkpt><trkpt lat="45.68276241406507" lon="9.398136248510832"><ele>254.0</ele><time>2026-04-03T06:34:35.999Z</time></trkpt><trkpt lat="45.682608330455416" lon="9.398074398801091"><ele>255.0</ele><time>2026-04-03T06:34:36.999Z</time></trkpt><trkpt lat="45.68244870164488" lon="9.398004864099267"><ele>256.0</ele><time>2026-04-03T06:34:37.999Z</time></trkpt><trkpt lat="45.68228612869726" lon="9.39793883027367"><ele>256.3333333333333</ele><time>2026-04-03T06:34:38.999Z</time></trkpt><trkpt lat="45.68211739351107" lon="9.397874192526254"><ele>256.6666666666667</ele><time>2026-04-03T06:34:39.999Z</time></trkpt><trkpt lat="45.681949063797056" lon="9.39781169282645"><ele>257.0</ele><time>2026-04-03T06:34:40.999Z</time></trkpt><trkpt lat="45.68177967144564" lon="9.397751458509763"><ele>256.33333333333337</ele><time>2026-04-03T06:34:41.999Z</time></trkpt><trkpt lat="45.68160690400462" lon="9.39768789542823"><ele>255.66666666666669</ele><time>2026-04-03T06:34:42.999Z</time></trkpt><trkpt lat="45.68143293063738" lon="9.397624808191821"><ele>255.0</ele><time>2026-04-03T06:34:43.999Z</time></trkpt><trkpt lat="45.68126161658244" lon="9.397560994666529"><ele>254.66666666666669</ele><time>2026-04-03T06:34:44.999Z</time></trkpt><trkpt lat="45.68108908346126" lon="9.397495742370404"><ele>254.33333333333334</ele><time>2026-04-03T06:34:45.999Z</time></trkpt><trkpt lat="45.68092145860219" lon="9.397436980353643"><ele>254.0</ele><time>2026-04-03T06:34:46.999Z</time></trkpt><trkpt lat="45.68075878360086" lon="9.397378956030321"><ele>254.0</ele><time>2026-04-03T06:34:47.999Z</time></trkpt><trkpt lat="45.68060761768285" lon="9.397325181528469"><ele>254.0</ele><time>2026-04-03T06:34:48.999Z</time></trkpt><trkpt lat="45.68046192492427" lon="9.397270076970278"><ele>254.0</ele><time>2026-04-03T06:34:49.999Z</time></trkpt><trkpt lat="45.680326838713036" lon="9.397218996504503"><ele>254.0</ele><time>2026-04-03T06:34:50.999Z</time></trkpt><trkpt lat="45.68020368930162" lon="9.39716360013843"><ele>253.66666666666669</ele><time>2026-04-03T06:34:51.999Z</time></trkpt><trkpt lat="45.680094990625285" lon="9.397113324361518"><ele>253.33333333333334</ele><time>2026-04-03T06:34:52.999Z</time></trkpt><trkpt lat="45.68000434645517" lon="9.397069103376696"><ele>253.0</ele><time>2026-04-03T06:34:53.999Z</time></trkpt><trkpt lat="45.67992299593784" lon="9.397028933534145"><ele>252.66666666666669</ele><time>2026-04-03T06:34:54.999Z</time></trkpt><trkpt lat="45.67984957949405" lon="9.396990144749884"><ele>252.33333333333334</ele><time>2026-04-03T06:34:55.999Z</time></trkpt><trkpt lat="45.67978545720963" lon="9.39694623271491"><ele>252.0</ele><time>2026-04-03T06:34:56.999Z</time></trkpt><trkpt lat="45.679732474039284" lon="9.39689016900928"><ele>252.0</ele><time>2026-04-03T06:34:57.999Z</time></trkpt><trkpt lat="45.6796270463289" lon="9.396773836412924"><ele>252.0</ele><time>2026-04-03T06:34:59.999Z</time></trkpt><trkpt lat="45.67956211075807" lon="9.3967093691458"><ele>252.0</ele><time>2026-04-03T06:35:01Z</time></trkpt><trkpt lat="45.67948064091485" lon="9.396693790096712"><ele>252.0</ele><time>2026-04-03T06:35:02Z</time></trkpt><trkpt lat="45.67939353216058" lon="9.396718708139197"><ele>252.0</ele><time>2026-04-03T06:35:03Z</time></trkpt><trkpt lat="45.67930582797546" lon="9.39675033624786"><ele>251.6</ele><time>2026-04-03T06:35:04Z</time></trkpt><trkpt lat="45.679214676079596" lon="9.396773369978296"><ele>251.2</ele><time>2026-04-03T06:35:05Z</time></trkpt><trkpt lat="45.67912504872436" lon="9.396785001303193"><ele>250.8</ele><time>2026-04-03T06:35:06Z</time></trkpt><trkpt lat="45.67904137874666" lon="9.396778054337906"><ele>250.4</ele><time>2026-04-03T06:35:07Z</time></trkpt><trkpt lat="45.67895417351167" lon="9.396755765916252"><ele>250.0</ele><time>2026-04-03T06:35:08Z</time></trkpt><trkpt lat="45.67886162927401" lon="9.39672632781172"><ele>250.0</ele><time>2026-04-03T06:35:09Z</time></trkpt><trkpt lat="45.678765294330034" lon="9.396691974225043"><ele>250.0</ele><time>2026-04-03T06:35:10Z</time></trkpt><trkpt lat="45.678675018550656" lon="9.396658198137974"><ele>250.0</ele><time>2026-04-03T06:35:11Z</time></trkpt><trkpt lat="45.67858601264748" lon="9.396624607272289"><ele>250.0</ele><time>2026-04-03T06:35:12Z</time></trkpt><trkpt lat="45.67849406521006" lon="9.396589913329283"><ele>250.0</ele><time>2026-04-03T06:35:13Z</time></trkpt><trkpt lat="45.67839982112593" lon="9.39655458024432"><ele>249.8</ele><time>2026-04-03T06:35:14Z</time></trkpt><trkpt lat="45.67830408834464" lon="9.396522363037421"><ele>249.6</ele><time>2026-04-03T06:35:15Z</time></trkpt><trkpt lat="45.67820757857683" lon="9.396489141462796"><ele>249.39999999999998</ele><time>2026-04-03T06:35:16Z</time></trkpt><trkpt lat="45.67810404241243" lon="9.396454967469662"><ele>249.2</ele><time>2026-04-03T06:35:17Z</time></trkpt><trkpt lat="45.67799543003457" lon="9.396415053108925"><ele>249.0</ele><time>2026-04-03T06:35:18Z</time></trkpt><trkpt lat="45.677882462676386" lon="9.39637226331687"><ele>249.0</ele><time>2026-04-03T06:35:19Z</time></trkpt><trkpt lat="45.67776798140005" lon="9.396327870701093"><ele>249.0</ele><time>2026-04-03T06:35:20Z</time></trkpt><trkpt lat="45.67765421558597" lon="9.396283336545128"><ele>249.0</ele><time>2026-04-03T06:35:21Z</time></trkpt><trkpt lat="45.6775393008993" lon="9.3962403739098"><ele>249.0</ele><time>2026-04-03T06:35:22Z</time></trkpt><trkpt lat="45.67742358821568" lon="9.396199329435627"><ele>249.0</ele><time>2026-04-03T06:35:23Z</time></trkpt><trkpt lat="45.67730859752433" lon="9.396157897426145"><ele>249.0</ele><time>2026-04-03T06:35:24Z</time></trkpt><trkpt lat="45.677194081883314" lon="9.39611836951772"><ele>249.0</ele><time>2026-04-03T06:35:25Z</time></trkpt><trkpt lat="45.6770791344885" lon="9.396080902571876"><ele>249.0</ele><time>2026-04-03T06:35:26Z</time></trkpt><trkpt lat="45.67696515421672" lon="9.39604166628496"><ele>249.0</ele><time>2026-04-03T06:35:27Z</time></trkpt><trkpt lat="45.67684984398686" lon="9.396000328629695"><ele>249.0</ele><time>2026-04-03T06:35:28Z</time></trkpt><trkpt lat="45.67673000664732" lon="9.395957045047103"><ele>249.0</ele><time>2026-04-03T06:35:29Z</time></trkpt><trkpt lat="45.676600812799734" lon="9.395908531326151"><ele>249.0</ele><time>2026-04-03T06:35:30Z</time></trkpt><trkpt lat="45.67646316036755" lon="9.395854797585246"><ele>249.0</ele><time>2026-04-03T06:35:31Z</time></trkpt><trkpt lat="45.676328413510916" lon="9.39580207832073"><ele>249.0</ele><time>2026-04-03T06:35:32Z</time></trkpt><trkpt lat="45.67619123858432" lon="9.395746652992832"><ele>249.0</ele><time>2026-04-03T06:35:33Z</time></trkpt><trkpt lat="45.67605299271386" lon="9.395683568728286"><ele>249.0</ele><time>2026-04-03T06:35:34Z</time></trkpt><trkpt lat="45.67591570505386" lon="9.395617663494841"><ele>248.5</ele><time>2026-04-03T06:35:35Z</time></trkpt><trkpt lat="45.6757764071722" lon="9.395549200396449"><ele>248.0</ele><time>2026-04-03T06:35:36Z</time></trkpt><trkpt lat="45.67563957755753" lon="9.395475085571777"><ele>247.5</ele><time>2026-04-03T06:35:37Z</time></trkpt><trkpt lat="45.675505738067265" lon="9.395395480453592"><ele>247.0</ele><time>2026-04-03T06:35:38Z</time></trkpt><trkpt lat="45.675372566372786" lon="9.395314132171585"><ele>246.25</ele><time>2026-04-03T06:35:39Z</time></trkpt><trkpt lat="45.67523867392535" lon="9.395230138840022"><ele>245.5</ele><time>2026-04-03T06:35:40Z</time></trkpt><trkpt lat="45.67510496199038" lon="9.395138676329118"><ele>244.75</ele><time>2026-04-03T06:35:41Z</time></trkpt><trkpt lat="45.67497336800269" lon="9.395037176316606"><ele>244.0</ele><time>2026-04-03T06:35:42Z</time></trkpt><trkpt lat="45.67484057998482" lon="9.394925307639898"><ele>244.0</ele><time>2026-04-03T06:35:42.999Z</time></trkpt><trkpt lat="45.67470677568799" lon="9.394808804031053"><ele>244.0</ele><time>2026-04-03T06:35:43.999Z</time></trkpt><trkpt lat="45.6745842711846" lon="9.394666722283752"><ele>244.0</ele><time>2026-04-03T06:35:44.999Z</time></trkpt><trkpt lat="45.67444471417375" lon="9.394557820095685"><ele>244.33333333333331</ele><time>2026-04-03T06:35:45.999Z</time></trkpt><trkpt lat="45.67431498560691" lon="9.394419633965262"><ele>244.66666666666669</ele><time>2026-04-03T06:35:46.999Z</time></trkpt><trkpt lat="45.674188117525794" lon="9.39427340569236"><ele>245.0</ele><time>2026-04-03T06:35:47.999Z</time></trkpt><trkpt lat="45.67406411850061" lon="9.394120704235291"><ele>245.0</ele><time>2026-04-03T06:35:48.999Z</time></trkpt><trkpt lat="45.67394487905651" lon="9.393962760496477"><ele>245.0</ele><time>2026-04-03T06:35:49.999Z</time></trkpt><trkpt lat="45.67383060878055" lon="9.393800365863749"><ele>245.0</ele><time>2026-04-03T06:35:50.999Z</time></trkpt><trkpt lat="45.67372377549219" lon="9.393644663034808"><ele>245.0</ele><time>2026-04-03T06:35:51.999Z</time></trkpt><trkpt lat="45.67362395913795" lon="9.39349175867651"><ele>245.0</ele><time>2026-04-03T06:35:52.999Z</time></trkpt><trkpt lat="45.67352930316694" lon="9.39334036286147"><ele>245.0</ele><time>2026-04-03T06:35:53.999Z</time></trkpt><trkpt lat="45.67343919283053" lon="9.393195768117609"><ele>245.0</ele><time>2026-04-03T06:35:54.999Z</time></trkpt><trkpt lat="45.673346586510895" lon="9.39305533227553"><ele>244.75</ele><time>2026-04-03T06:35:55.999Z</time></trkpt><trkpt lat="45.67324818982322" lon="9.39290872179455"><ele>244.5</ele><time>2026-04-03T06:35:56.999Z</time></trkpt><trkpt lat="45.67314598672242" lon="9.3927584323349"><ele>244.25</ele><time>2026-04-03T06:35:57.999Z</time></trkpt><trkpt lat="45.67304378272374" lon="9.39259986482695"><ele>244.0</ele><time>2026-04-03T06:35:58.999Z</time></trkpt><trkpt lat="45.672944654518815" lon="9.39244127533451"><ele>244.0</ele><time>2026-04-03T06:35:59.999Z</time></trkpt><trkpt lat="45.672851523023965" lon="9.392287467571778"><ele>244.0</ele><time>2026-04-03T06:36:00.999Z</time></trkpt><trkpt lat="45.672766390022524" lon="9.3921401713714"><ele>244.0</ele><time>2026-04-03T06:36:01.999Z</time></trkpt><trkpt lat="45.67268460839748" lon="9.391995192202572"><ele>244.0</ele><time>2026-04-03T06:36:02.999Z</time></trkpt><trkpt lat="45.6726060143254" lon="9.391850566436172"><ele>243.25</ele><time>2026-04-03T06:36:03.999Z</time></trkpt><trkpt lat="45.672524781384084" lon="9.391696025261208"><ele>242.5</ele><time>2026-04-03T06:36:04.999Z</time></trkpt><trkpt lat="45.67243970791198" lon="9.391534006762408"><ele>241.75</ele><time>2026-04-03T06:36:05.999Z</time></trkpt><trkpt lat="45.67235423870848" lon="9.391366464493533"><ele>241.0</ele><time>2026-04-03T06:36:06.999Z</time></trkpt><trkpt lat="45.67226815326353" lon="9.391201503158007"><ele>241.0</ele><time>2026-04-03T06:36:07.999Z</time></trkpt><trkpt lat="45.672176914533345" lon="9.391046624724602"><ele>241.0</ele><time>2026-04-03T06:36:08.999Z</time></trkpt><trkpt lat="45.67207624439913" lon="9.390903884089646"><ele>241.0</ele><time>2026-04-03T06:36:09.999Z</time></trkpt><trkpt lat="45.671972822480924" lon="9.39077835671182"><ele>241.0</ele><time>2026-04-03T06:36:10.999Z</time></trkpt><trkpt lat="45.67186451072835" lon="9.390651604306838"><ele>241.0</ele><time>2026-04-03T06:36:11.999Z</time></trkpt><trkpt lat="45.67174933621813" lon="9.39052836155348"><ele>241.0</ele><time>2026-04-03T06:36:12.999Z</time></trkpt><trkpt lat="45.67163042964736" lon="9.390413623016814"><ele>241.0</ele><time>2026-04-03T06:36:13.999Z</time></trkpt><trkpt lat="45.67150263069067" lon="9.390308564167611"><ele>241.0</ele><time>2026-04-03T06:36:14.999Z</time></trkpt><trkpt lat="45.671372072848406" lon="9.390212041051104"><ele>240.75</ele><time>2026-04-03T06:36:15.999Z</time></trkpt><trkpt lat="45.67123654065686" lon="9.390122990984395"><ele>240.5</ele><time>2026-04-03T06:36:16.999Z</time></trkpt><trkpt lat="45.67110500663641" lon="9.390036849947407"><ele>240.25</ele><time>2026-04-03T06:36:17.999Z</time></trkpt><trkpt lat="45.670976371195806" lon="9.389948956738861"><ele>240.0</ele><time>2026-04-03T06:36:18.999Z</time></trkpt><trkpt lat="45.67084905674339" lon="9.389863493307686"><ele>240.0</ele><time>2026-04-03T06:36:19.999Z</time></trkpt><trkpt lat="45.670719042585134" lon="9.389777536781944"><ele>240.0</ele><time>2026-04-03T06:36:20.999Z</time></trkpt><trkpt lat="45.67059019466976" lon="9.389690578227647"><ele>240.0</ele><time>2026-04-03T06:36:21.999Z</time></trkpt><trkpt lat="45.670454893774554" lon="9.38960083393055"><ele>240.0</ele><time>2026-04-03T06:36:22.999Z</time></trkpt><trkpt lat="45.670321232558436" lon="9.389513630793175"><ele>239.75</ele><time>2026-04-03T06:36:23.999Z</time></trkpt><trkpt lat="45.67018455379966" lon="9.389427777543194"><ele>239.5</ele><time>2026-04-03T06:36:24.999Z</time></trkpt><trkpt lat="45.67004953974739" lon="9.389340181090088"><ele>239.25</ele><time>2026-04-03T06:36:25.999Z</time></trkpt><trkpt lat="45.66991509525314" lon="9.389252522230823"><ele>239.0</ele><time>2026-04-03T06:36:26.999Z</time></trkpt><trkpt lat="45.66977822795303" lon="9.389168435507502"><ele>239.0</ele><time>2026-04-03T06:36:27.999Z</time></trkpt><trkpt lat="45.66964001672211" lon="9.389087593810235"><ele>239.0</ele><time>2026-04-03T06:36:28.999Z</time></trkpt><trkpt lat="45.66950417312375" lon="9.389011005104516"><ele>239.0</ele><time>2026-04-03T06:36:29.999Z</time></trkpt><trkpt lat="45.66936877153798" lon="9.388938599072718"><ele>239.0</ele><time>2026-04-03T06:36:30.999Z</time></trkpt><trkpt lat="45.66923546079523" lon="9.388867219259817"><ele>238.0</ele><time>2026-04-03T06:36:31.999Z</time></trkpt><trkpt lat="45.669105414089096" lon="9.388795240333613"><ele>237.0</ele><time>2026-04-03T06:36:32.999Z</time></trkpt><trkpt lat="45.66897481034584" lon="9.3887252352333"><ele>236.0</ele><time>2026-04-03T06:36:33.999Z</time></trkpt><trkpt lat="45.66884765715933" lon="9.388657843267007"><ele>235.0</ele><time>2026-04-03T06:36:34.999Z</time></trkpt><trkpt lat="45.668721419629314" lon="9.388586467111773"><ele>235.25</ele><time>2026-04-03T06:36:35.999Z</time></trkpt><trkpt lat="45.66859536838469" lon="9.38851144217455"><ele>235.5</ele><time>2026-04-03T06:36:36.999Z</time></trkpt><trkpt lat="45.668466882378304" lon="9.388430990746574"><ele>235.75</ele><time>2026-04-03T06:36:37.999Z</time></trkpt><trkpt lat="45.668340758662076" lon="9.388346373071787"><ele>236.0</ele><time>2026-04-03T06:36:38.999Z</time></trkpt><trkpt lat="45.6682143227032" lon="9.388257467206385"><ele>236.0</ele><time>2026-04-03T06:36:39.999Z</time></trkpt><trkpt lat="45.66808744705506" lon="9.388167699895194"><ele>236.0</ele><time>2026-04-03T06:36:40.999Z</time></trkpt><trkpt lat="45.66796763854967" lon="9.388081697764532"><ele>236.0</ele><time>2026-04-03T06:36:41.999Z</time></trkpt><trkpt lat="45.66785309436991" lon="9.38799965131281"><ele>236.0</ele><time>2026-04-03T06:36:42.999Z</time></trkpt><trkpt lat="45.66774273998389" lon="9.387920902287448"><ele>235.5</ele><time>2026-04-03T06:36:43.999Z</time></trkpt><trkpt lat="45.66763450886175" lon="9.3878408605258"><ele>235.0</ele><time>2026-04-03T06:36:44.999Z</time></trkpt><trkpt lat="45.6675286075772" lon="9.387759494142069"><ele>234.5</ele><time>2026-04-03T06:36:45.999Z</time></trkpt><trkpt lat="45.66742457423466" lon="9.387676781690022"><ele>234.0</ele><time>2026-04-03T06:36:46.999Z</time></trkpt><trkpt lat="45.667321144360706" lon="9.38759398404618"><ele>234.0</ele><time>2026-04-03T06:36:47.999Z</time></trkpt><trkpt lat="45.66721798653432" lon="9.387506504837742"><ele>234.0</ele><time>2026-04-03T06:36:48.999Z</time></trkpt><trkpt lat="45.667114160858105" lon="9.387417216038845"><ele>234.0</ele><time>2026-04-03T06:36:49.999Z</time></trkpt><trkpt lat="45.66700769195444" lon="9.387329603560312"><ele>234.0</ele><time>2026-04-03T06:36:50.999Z</time></trkpt><trkpt lat="45.66690062327258" lon="9.387244025776118"><ele>233.5</ele><time>2026-04-03T06:36:51.999Z</time></trkpt><trkpt lat="45.66679140102856" lon="9.387158675002084"><ele>233.0</ele><time>2026-04-03T06:36:52.999Z</time></trkpt><trkpt lat="45.6666807855138" lon="9.387073897877874"><ele>232.5</ele><time>2026-04-03T06:36:53.999Z</time></trkpt><trkpt lat="45.66657098049755" lon="9.386985976742563"><ele>232.0</ele><time>2026-04-03T06:36:54.999Z</time></trkpt><trkpt lat="45.666459283686834" lon="9.386889926290117"><ele>232.0</ele><time>2026-04-03T06:36:55.999Z</time></trkpt><trkpt lat="45.66634561408786" lon="9.386789623187079"><ele>232.0</ele><time>2026-04-03T06:36:56.999Z</time></trkpt><trkpt lat="45.66622882322818" lon="9.386692216748619"><ele>232.0</ele><time>2026-04-03T06:36:57.999Z</time></trkpt><trkpt lat="45.66611141923521" lon="9.38659630664359"><ele>232.0</ele><time>2026-04-03T06:36:58.999Z</time></trkpt><trkpt lat="45.66599550006419" lon="9.386504044787056"><ele>232.5</ele><time>2026-04-03T06:36:59.999Z</time></trkpt><trkpt lat="45.665880367393534" lon="9.386412241784045"><ele>233.0</ele><time>2026-04-03T06:37:00.999Z</time></trkpt><trkpt lat="45.665767025531174" lon="9.386319644851858"><ele>233.5</ele><time>2026-04-03T06:37:01.999Z</time></trkpt><trkpt lat="45.66565487523209" lon="9.386226992748403"><ele>234.0</ele><time>2026-04-03T06:37:02.999Z</time></trkpt><trkpt lat="45.66554414168488" lon="9.38613568553421"><ele>234.0</ele><time>2026-04-03T06:37:03.999Z</time></trkpt><trkpt lat="45.665435418969416" lon="9.386045160284484"><ele>234.0</ele><time>2026-04-03T06:37:04.999Z</time></trkpt><trkpt lat="45.66532840211709" lon="9.385955421193367"><ele>234.0</ele><time>2026-04-03T06:37:05.999Z</time></trkpt><trkpt lat="45.66522048419526" lon="9.385863720761291"><ele>234.0</ele><time>2026-04-03T06:37:07Z</time></trkpt><trkpt lat="45.665115642263" lon="9.385773881103656"><ele>233.25</ele><time>2026-04-03T06:37:08Z</time></trkpt><trkpt lat="45.66501678477528" lon="9.38568084096152"><ele>232.5</ele><time>2026-04-03T06:37:09Z</time></trkpt><trkpt lat="45.66492516335208" lon="9.385586104011766"><ele>231.75</ele><time>2026-04-03T06:37:10Z</time></trkpt><trkpt lat="45.66483543622582" lon="9.385492433785409"><ele>231.0</ele><time>2026-04-03T06:37:11Z</time></trkpt><trkpt lat="45.664746378086804" lon="9.385400261950231"><ele>231.0</ele><time>2026-04-03T06:37:12Z</time></trkpt><trkpt lat="45.66465964220733" lon="9.385309006289878"><ele>231.00000000000003</ele><time>2026-04-03T06:37:13Z</time></trkpt><trkpt lat="45.664574524201065" lon="9.385219134761522"><ele>231.00000000000003</ele><time>2026-04-03T06:37:14Z</time></trkpt><trkpt lat="45.664492366231904" lon="9.38513681072841"><ele>231.0</ele><time>2026-04-03T06:37:15Z</time></trkpt><trkpt lat="45.66441852118341" lon="9.385063904820198"><ele>231.0</ele><time>2026-04-03T06:37:16Z</time></trkpt><trkpt lat="45.664353678069986" lon="9.385002607172066"><ele>230.8</ele><time>2026-04-03T06:37:17Z</time></trkpt><trkpt lat="45.664263948323" lon="9.384893935575676"><ele>230.60000000000002</ele><time>2026-04-03T06:37:19Z</time></trkpt><trkpt lat="45.66422995551711" lon="9.384740844049341"><ele>230.4</ele><time>2026-04-03T06:37:21Z</time></trkpt><trkpt lat="45.664222843598644" lon="9.384571258944643"><ele>230.2</ele><time>2026-04-03T06:37:23Z</time></trkpt><trkpt lat="45.664235952611435" lon="9.384475107701064"><ele>230.0</ele><time>2026-04-03T06:37:24Z</time></trkpt><trkpt lat="45.664259051220796" lon="9.384334800316006"><ele>230.00000000000003</ele><time>2026-04-03T06:37:26Z</time></trkpt><trkpt lat="45.66419640230112" lon="9.384413761836933"><ele>230.0</ele><time>2026-04-03T06:37:33Z</time></trkpt><trkpt lat="45.66417366863732" lon="9.384506830076173"><ele>230.0</ele><time>2026-04-03T06:39:22Z</time></trkpt><trkpt lat="45.66413336745598" lon="9.384588920855805"><ele>230.0</ele><time>2026-04-03T06:39:25Z</time></trkpt><trkpt lat="45.66405027964574" lon="9.384655705620473"><ele>230.00000000000003</ele><time>2026-04-03T06:39:27Z</time></trkpt><trkpt lat="45.66399016913717" lon="9.38468933442164"><ele>230.0</ele><time>2026-04-03T06:39:28Z</time></trkpt><trkpt lat="45.6639233589753" lon="9.384719359595847"><ele>230.2</ele><time>2026-04-03T06:39:29Z</time></trkpt><trkpt lat="45.66378101925514" lon="9.384679308763914"><ele>230.4</ele><time>2026-04-03T06:39:31Z</time></trkpt><trkpt lat="45.66370908001843" lon="9.384624854851168"><ele>230.60000000000002</ele><time>2026-04-03T06:39:32Z</time></trkpt><trkpt lat="45.663627829908464" lon="9.384556150779995"><ele>230.8</ele><time>2026-04-03T06:39:33Z</time></trkpt><trkpt lat="45.6635405292791" lon="9.384481701222176"><ele>231.0</ele><time>2026-04-03T06:39:34Z</time></trkpt><trkpt lat="45.6634469987651" lon="9.38440377145262"><ele>231.0</ele><time>2026-04-03T06:39:35Z</time></trkpt><trkpt lat="45.663349143830665" lon="9.384321917961621"><ele>231.0</ele><time>2026-04-03T06:39:36Z</time></trkpt><trkpt lat="45.66324876791293" lon="9.384234991287922"><ele>231.0</ele><time>2026-04-03T06:39:37Z</time></trkpt><trkpt lat="45.6631438854914" lon="9.384147240433373"><ele>231.0</ele><time>2026-04-03T06:39:38Z</time></trkpt><trkpt lat="45.66303406564138" lon="9.384053873242737"><ele>231.0</ele><time>2026-04-03T06:39:39Z</time></trkpt><trkpt lat="45.662921845640504" lon="9.383956693197112"><ele>231.0</ele><time>2026-04-03T06:39:40Z</time></trkpt><trkpt lat="45.662810713086955" lon="9.383856554780833"><ele>231.0</ele><time>2026-04-03T06:39:41Z</time></trkpt><trkpt lat="45.66269713330904" lon="9.383753266470025"><ele>231.0</ele><time>2026-04-03T06:39:42Z</time></trkpt><trkpt lat="45.66258337304516" lon="9.383648749953384"><ele>230.5</ele><time>2026-04-03T06:39:43Z</time></trkpt><trkpt lat="45.66246860307016" lon="9.38354143483345"><ele>230.0</ele><time>2026-04-03T06:39:44Z</time></trkpt><trkpt lat="45.662356943894785" lon="9.383436475832772"><ele>229.5</ele><time>2026-04-03T06:39:45Z</time></trkpt><trkpt lat="45.66224535993468" lon="9.383329805924658"><ele>229.0</ele><time>2026-04-03T06:39:45.999Z</time></trkpt><trkpt lat="45.66213469197484" lon="9.383222147751864"><ele>229.0</ele><time>2026-04-03T06:39:46.999Z</time></trkpt><trkpt lat="45.66202411390619" lon="9.383114953473477"><ele>229.0</ele><time>2026-04-03T06:39:47.999Z</time></trkpt><trkpt lat="45.66191628799547" lon="9.383005473355329"><ele>229.0</ele><time>2026-04-03T06:39:48.999Z</time></trkpt><trkpt lat="45.66180945772816" lon="9.38289343234334"><ele>229.0</ele><time>2026-04-03T06:39:49.999Z</time></trkpt><trkpt lat="45.661704837102945" lon="9.382783078119372"><ele>229.0</ele><time>2026-04-03T06:39:50.999Z</time></trkpt><trkpt lat="45.661599451318494" lon="9.382672359107918"><ele>229.0</ele><time>2026-04-03T06:39:51.999Z</time></trkpt><trkpt lat="45.66149090608421" lon="9.382568877366536"><ele>229.0</ele><time>2026-04-03T06:39:52.999Z</time></trkpt><trkpt lat="45.661383401691424" lon="9.382452161942833"><ele>229.0</ele><time>2026-04-03T06:39:53.999Z</time></trkpt><trkpt lat="45.66127734790717" lon="9.382338768145269"><ele>229.0</ele><time>2026-04-03T06:39:54.999Z</time></trkpt><trkpt lat="45.66116261813374" lon="9.382210028328176"><ele>229.0</ele><time>2026-04-03T06:39:55.999Z</time></trkpt><trkpt lat="45.66105143516418" lon="9.382080217372463"><ele>229.0</ele><time>2026-04-03T06:39:56.999Z</time></trkpt><trkpt lat="45.66093730368333" lon="9.381946845812717"><ele>229.0</ele><time>2026-04-03T06:39:57.999Z</time></trkpt><trkpt lat="45.660823290695056" lon="9.381812349897482"><ele>230.75</ele><time>2026-04-03T06:39:58.999Z</time></trkpt><trkpt lat="45.6607097817263" lon="9.381677262473355"><ele>232.5</ele><time>2026-04-03T06:39:59.999Z</time></trkpt><trkpt lat="45.66059665342488" lon="9.381539113086045"><ele>234.25</ele><time>2026-04-03T06:40:00.999Z</time></trkpt><trkpt lat="45.66048560547841" lon="9.381398624142548"><ele>236.0</ele><time>2026-04-03T06:40:01.999Z</time></trkpt><trkpt lat="45.66037335269132" lon="9.38125213338758"><ele>235.0</ele><time>2026-04-03T06:40:02.999Z</time></trkpt><trkpt lat="45.66025883496687" lon="9.381105215242677"><ele>234.0</ele><time>2026-04-03T06:40:03.999Z</time></trkpt><trkpt lat="45.66014492487326" lon="9.380953489731235"><ele>233.0</ele><time>2026-04-03T06:40:04.999Z</time></trkpt><trkpt lat="45.66003399352245" lon="9.380802874768559"><ele>233.0</ele><time>2026-04-03T06:40:05.999Z</time></trkpt><trkpt lat="45.65992572019278" lon="9.38065429642327"><ele>233.0</ele><time>2026-04-03T06:40:06.999Z</time></trkpt><trkpt lat="45.65981817051491" lon="9.38050509603348"><ele>233.0</ele><time>2026-04-03T06:40:07.999Z</time></trkpt><trkpt lat="45.65971619764546" lon="9.380357316841554"><ele>233.0</ele><time>2026-04-03T06:40:08.999Z</time></trkpt><trkpt lat="45.659613968361846" lon="9.380212529542959"><ele>232.5</ele><time>2026-04-03T06:40:09.999Z</time></trkpt><trkpt lat="45.65951495622205" lon="9.380072775603406"><ele>232.0</ele><time>2026-04-03T06:40:10.999Z</time></trkpt><trkpt lat="45.65942792763945" lon="9.37993941185609"><ele>231.5</ele><time>2026-04-03T06:40:11.999Z</time></trkpt><trkpt lat="45.659344409200976" lon="9.37981301451496"><ele>231.0</ele><time>2026-04-03T06:40:12.999Z</time></trkpt><trkpt lat="45.65926245763391" lon="9.379691631503867"><ele>231.8</ele><time>2026-04-03T06:40:13.999Z</time></trkpt><trkpt lat="45.65918891970858" lon="9.379577740754515"><ele>232.60000000000002</ele><time>2026-04-03T06:40:14.999Z</time></trkpt><trkpt lat="45.65911215673582" lon="9.379463413214161"><ele>233.4</ele><time>2026-04-03T06:40:15.999Z</time></trkpt><trkpt lat="45.659035216160994" lon="9.379343386400638"><ele>234.2</ele><time>2026-04-03T06:40:16.999Z</time></trkpt><trkpt lat="45.658958230324565" lon="9.379223038205176"><ele>235.0</ele><time>2026-04-03T06:40:17.999Z</time></trkpt><trkpt lat="45.65887793719306" lon="9.37910058038608"><ele>235.0</ele><time>2026-04-03T06:40:18.999Z</time></trkpt><trkpt lat="45.65879584191056" lon="9.378977529316165"><ele>235.0</ele><time>2026-04-03T06:40:19.999Z</time></trkpt><trkpt lat="45.65870983254539" lon="9.378850784784635"><ele>235.0</ele><time>2026-04-03T06:40:20.999Z</time></trkpt><trkpt lat="45.65862334116277" lon="9.378720066293065"><ele>235.0</ele><time>2026-04-03T06:40:21.999Z</time></trkpt><trkpt lat="45.65853742347066" lon="9.37858797305562"><ele>234.25</ele><time>2026-04-03T06:40:22.999Z</time></trkpt><trkpt lat="45.6584526552589" lon="9.378454940482799"><ele>233.5</ele><time>2026-04-03T06:40:23.999Z</time></trkpt><trkpt lat="45.65836776049322" lon="9.37832449308246"><ele>232.75</ele><time>2026-04-03T06:40:24.999Z</time></trkpt><trkpt lat="45.65828139026995" lon="9.378192652024945"><ele>232.0</ele><time>2026-04-03T06:40:25.999Z</time></trkpt><trkpt lat="45.658197070124196" lon="9.378062815149296"><ele>233.25</ele><time>2026-04-03T06:40:26.999Z</time></trkpt><trkpt lat="45.65811323435054" lon="9.377928408825127"><ele>234.5</ele><time>2026-04-03T06:40:27.999Z</time></trkpt><trkpt lat="45.65803281849166" lon="9.377792980575157"><ele>235.75</ele><time>2026-04-03T06:40:28.999Z</time></trkpt><trkpt lat="45.65795344089541" lon="9.377657097916996"><ele>237.0</ele><time>2026-04-03T06:40:29.999Z</time></trkpt><trkpt lat="45.65787383748451" lon="9.377520077252806"><ele>237.0</ele><time>2026-04-03T06:40:30.999Z</time></trkpt><trkpt lat="45.65779723522938" lon="9.377385037518168"><ele>237.0</ele><time>2026-04-03T06:40:31.999Z</time></trkpt><trkpt lat="45.657721524026186" lon="9.37725197696045"><ele>237.0</ele><time>2026-04-03T06:40:32.999Z</time></trkpt><trkpt lat="45.65764832048275" lon="9.37711895444034"><ele>237.0</ele><time>2026-04-03T06:40:33.999Z</time></trkpt><trkpt lat="45.65757702101557" lon="9.376987944866807"><ele>234.25</ele><time>2026-04-03T06:40:34.999Z</time></trkpt><trkpt lat="45.657508238180625" lon="9.376854603192704"><ele>231.5</ele><time>2026-04-03T06:40:35.999Z</time></trkpt><trkpt lat="45.65743885043312" lon="9.376722801614026"><ele>228.75</ele><time>2026-04-03T06:40:36.999Z</time></trkpt><trkpt lat="45.65736012650306" lon="9.376588686669301"><ele>226.0</ele><time>2026-04-03T06:40:37.999Z</time></trkpt><trkpt lat="45.65727175611128" lon="9.37645812416019"><ele>226.0</ele><time>2026-04-03T06:40:38.999Z</time></trkpt><trkpt lat="45.65717265099637" lon="9.376328581441474"><ele>226.0</ele><time>2026-04-03T06:40:39.999Z</time></trkpt><trkpt lat="45.65707021553435" lon="9.376200067981582"><ele>226.0</ele><time>2026-04-03T06:40:40.999Z</time></trkpt><trkpt lat="45.65696606021371" lon="9.376073693341107"><ele>226.0</ele><time>2026-04-03T06:40:41.999Z</time></trkpt><trkpt lat="45.65686324558007" lon="9.375949109345568"><ele>226.0</ele><time>2026-04-03T06:40:42.999Z</time></trkpt><trkpt lat="45.65676577312849" lon="9.375817556378395"><ele>226.0</ele><time>2026-04-03T06:40:43.999Z</time></trkpt><trkpt lat="45.65667475658835" lon="9.37567900184764"><ele>226.0</ele><time>2026-04-03T06:40:44.999Z</time></trkpt><trkpt lat="45.65658934166844" lon="9.37553179693092"><ele>226.0</ele><time>2026-04-03T06:40:45.999Z</time></trkpt><trkpt lat="45.656510234360624" lon="9.375380250066796"><ele>227.25</ele><time>2026-04-03T06:40:46.999Z</time></trkpt><trkpt lat="45.656436113794044" lon="9.375226063894516"><ele>228.5</ele><time>2026-04-03T06:40:47.999Z</time></trkpt><trkpt lat="45.65636809643409" lon="9.375074270482463"><ele>229.75</ele><time>2026-04-03T06:40:48.999Z</time></trkpt><trkpt lat="45.656305778350216" lon="9.374923817323435"><ele>231.0</ele><time>2026-04-03T06:40:49.999Z</time></trkpt><trkpt lat="45.656244367653954" lon="9.374770347379654"><ele>232.0</ele><time>2026-04-03T06:40:50.999Z</time></trkpt><trkpt lat="45.6561818761002" lon="9.374614579356422"><ele>233.0</ele><time>2026-04-03T06:40:51.999Z</time></trkpt><trkpt lat="45.6561180116316" lon="9.37445317640152"><ele>234.0</ele><time>2026-04-03T06:40:52.999Z</time></trkpt><trkpt lat="45.656052480135116" lon="9.374285403193104"><ele>235.0</ele><time>2026-04-03T06:40:53.999Z</time></trkpt><trkpt lat="45.65598273353184" lon="9.374112438661632"><ele>232.33333333333331</ele><time>2026-04-03T06:40:54.999Z</time></trkpt><trkpt lat="45.655914952748496" lon="9.373929398712178"><ele>229.66666666666669</ele><time>2026-04-03T06:40:55.999Z</time></trkpt><trkpt lat="45.65584389103454" lon="9.373737322679824"><ele>227.0</ele><time>2026-04-03T06:40:56.999Z</time></trkpt><trkpt lat="45.655771877417216" lon="9.373540562668058"><ele>227.0</ele><time>2026-04-03T06:40:57.999Z</time></trkpt><trkpt lat="45.655697349978894" lon="9.373338442276841"><ele>227.0</ele><time>2026-04-03T06:40:58.999Z</time></trkpt><trkpt lat="45.6556211378606" lon="9.373137221784596"><ele>227.0</ele><time>2026-04-03T06:40:59.999Z</time></trkpt><trkpt lat="45.655544152852194" lon="9.372932259833215"><ele>228.33333333333334</ele><time>2026-04-03T06:41:00.999Z</time></trkpt><trkpt lat="45.655467768380326" lon="9.372724946268052"><ele>229.66666666666669</ele><time>2026-04-03T06:41:01.999Z</time></trkpt><trkpt lat="45.65538839432023" lon="9.372510323506779"><ele>231.0</ele><time>2026-04-03T06:41:02.999Z</time></trkpt><trkpt lat="45.65530779542029" lon="9.372295336665132"><ele>228.33333333333331</ele><time>2026-04-03T06:41:03.999Z</time></trkpt><trkpt lat="45.655223686174594" lon="9.372075215389225"><ele>225.66666666666666</ele><time>2026-04-03T06:41:04.999Z</time></trkpt><trkpt lat="45.6551384576648" lon="9.371849580325433"><ele>223.0</ele><time>2026-04-03T06:41:05.999Z</time></trkpt><trkpt lat="45.65505106048499" lon="9.371616871350335"><ele>223.0</ele><time>2026-04-03T06:41:06.999Z</time></trkpt><trkpt lat="45.65496026674095" lon="9.371377564987057"><ele>223.0</ele><time>2026-04-03T06:41:07.999Z</time></trkpt><trkpt lat="45.65486790820206" lon="9.371131277325986"><ele>223.0</ele><time>2026-04-03T06:41:08.999Z</time></trkpt><trkpt lat="45.65477710512015" lon="9.370878354715073"><ele>222.0</ele><time>2026-04-03T06:41:09.999Z</time></trkpt><trkpt lat="45.65468203466035" lon="9.37061846814854"><ele>221.0</ele><time>2026-04-03T06:41:10.999Z</time></trkpt><trkpt lat="45.65456476602155" lon="9.370369150496535"><ele>220.0</ele><time>2026-04-03T06:41:11.999Z</time></trkpt><trkpt lat="45.65441786806016" lon="9.370168201482391"><ele>220.0</ele><time>2026-04-03T06:41:12.999Z</time></trkpt><trkpt lat="45.65425281551368" lon="9.370018286998024"><ele>220.0</ele><time>2026-04-03T06:41:13.999Z</time></trkpt><trkpt lat="45.65408163985569" lon="9.369909822844335"><ele>220.0</ele><time>2026-04-03T06:41:14.999Z</time></trkpt><trkpt lat="45.653909538530954" lon="9.36982032833382"><ele>220.0</ele><time>2026-04-03T06:41:15.999Z</time></trkpt><trkpt lat="45.6537356362014" lon="9.369739285547329"><ele>220.0</ele><time>2026-04-03T06:41:16.998Z</time></trkpt><trkpt lat="45.65355765019848" lon="9.36965609676903"><ele>220.0</ele><time>2026-04-03T06:41:17.998Z</time></trkpt><trkpt lat="45.65338228591235" lon="9.369571069788085"><ele>219.33333333333331</ele><time>2026-04-03T06:41:19Z</time></trkpt><trkpt lat="45.65320999976983" lon="9.36948456185906"><ele>218.66666666666669</ele><time>2026-04-03T06:41:20Z</time></trkpt><trkpt lat="45.653038111945996" lon="9.369401907118137"><ele>218.0</ele><time>2026-04-03T06:41:21Z</time></trkpt><trkpt lat="45.65286274691359" lon="9.369323249271355"><ele>218.66666666666669</ele><time>2026-04-03T06:41:22Z</time></trkpt><trkpt lat="45.65269420819019" lon="9.369248463888702"><ele>219.33333333333331</ele><time>2026-04-03T06:41:23Z</time></trkpt><trkpt lat="45.652530403578204" lon="9.369173041320524"><ele>220.0</ele><time>2026-04-03T06:41:24Z</time></trkpt><trkpt lat="45.65237234553005" lon="9.369098744253796"><ele>220.0</ele><time>2026-04-03T06:41:25Z</time></trkpt><trkpt lat="45.652217236445686" lon="9.369032152110515"><ele>220.0</ele><time>2026-04-03T06:41:26Z</time></trkpt><trkpt lat="45.65206279106564" lon="9.368971172199949"><ele>220.0</ele><time>2026-04-03T06:41:27Z</time></trkpt><trkpt lat="45.65192217271533" lon="9.36892033887966"><ele>220.0</ele><time>2026-04-03T06:41:28Z</time></trkpt><trkpt lat="45.651781521966335" lon="9.368870643876317"><ele>220.0</ele><time>2026-04-03T06:41:29Z</time></trkpt><trkpt lat="45.65164895010101" lon="9.368823353571178"><ele>220.0</ele><time>2026-04-03T06:41:30Z</time></trkpt><trkpt lat="45.65150915459365" lon="9.368776727170262"><ele>220.0</ele><time>2026-04-03T06:41:31Z</time></trkpt><trkpt lat="45.65136685230016" lon="9.368728846304547"><ele>220.0</ele><time>2026-04-03T06:41:32Z</time></trkpt><trkpt lat="45.65121853695314" lon="9.368679052734656"><ele>220.0</ele><time>2026-04-03T06:41:33Z</time></trkpt><trkpt lat="45.6510677506023" lon="9.368622515609312"><ele>220.0</ele><time>2026-04-03T06:41:34Z</time></trkpt><trkpt lat="45.65091286041591" lon="9.36856512756498"><ele>220.0</ele><time>2026-04-03T06:41:35Z</time></trkpt><trkpt lat="45.65075460205066" lon="9.368507379166534"><ele>220.0</ele><time>2026-04-03T06:41:36Z</time></trkpt><trkpt lat="45.650596899908344" lon="9.368450783206761"><ele>220.0</ele><time>2026-04-03T06:41:37Z</time></trkpt><trkpt lat="45.650433637614164" lon="9.368393715391935"><ele>219.0</ele><time>2026-04-03T06:41:38Z</time></trkpt><trkpt lat="45.65027174909428" lon="9.368336861464915"><ele>218.0</ele><time>2026-04-03T06:41:39Z</time></trkpt><trkpt lat="45.650103767639436" lon="9.368277984370149"><ele>217.0</ele><time>2026-04-03T06:41:40Z</time></trkpt><trkpt lat="45.649934412420265" lon="9.36821599096928"><ele>217.0</ele><time>2026-04-03T06:41:41Z</time></trkpt><trkpt lat="45.64976225841409" lon="9.368152072752705"><ele>217.0</ele><time>2026-04-03T06:41:42Z</time></trkpt><trkpt lat="45.64958869844367" lon="9.368089183707271"><ele>217.0</ele><time>2026-04-03T06:41:43Z</time></trkpt><trkpt lat="45.649413927991105" lon="9.368026436780866"><ele>216.66666666666666</ele><time>2026-04-03T06:41:44Z</time></trkpt><trkpt lat="45.64923867707721" lon="9.367962810145228"><ele>216.33333333333331</ele><time>2026-04-03T06:41:45Z</time></trkpt><trkpt lat="45.649060416558015" lon="9.367898240825433"><ele>216.0</ele><time>2026-04-03T06:41:46Z</time></trkpt><trkpt lat="45.64888371862268" lon="9.367833657423896"><ele>216.0</ele><time>2026-04-03T06:41:47Z</time></trkpt><trkpt lat="45.64870441892107" lon="9.36776958775274"><ele>216.0</ele><time>2026-04-03T06:41:48Z</time></trkpt><trkpt lat="45.64852793313682" lon="9.367708632919017"><ele>216.0</ele><time>2026-04-03T06:41:49Z</time></trkpt><trkpt lat="45.64834943058741" lon="9.367648937008678"><ele>216.66666666666669</ele><time>2026-04-03T06:41:50Z</time></trkpt><trkpt lat="45.648172839656404" lon="9.367587658201211"><ele>217.33333333333334</ele><time>2026-04-03T06:41:50.999Z</time></trkpt><trkpt lat="45.647998492866655" lon="9.367525948566218"><ele>218.0</ele><time>2026-04-03T06:41:51.999Z</time></trkpt><trkpt lat="45.64782421577175" lon="9.367460572509371"><ele>218.33333333333334</ele><time>2026-04-03T06:41:52.999Z</time></trkpt><trkpt lat="45.64764948695342" lon="9.367397295824388"><ele>218.66666666666669</ele><time>2026-04-03T06:41:53.999Z</time></trkpt><trkpt lat="45.64747107388445" lon="9.367333812987813"><ele>219.0</ele><time>2026-04-03T06:41:54.999Z</time></trkpt><trkpt lat="45.64729316773819" lon="9.367271263185925"><ele>219.0</ele><time>2026-04-03T06:41:55.999Z</time></trkpt><trkpt lat="45.64711266527444" lon="9.367208525655506"><ele>219.0</ele><time>2026-04-03T06:41:56.999Z</time></trkpt><trkpt lat="45.646932390568985" lon="9.36714129203942"><ele>219.0</ele><time>2026-04-03T06:41:57.999Z</time></trkpt><trkpt lat="45.646747917668286" lon="9.367069314227821"><ele>219.33333333333331</ele><time>2026-04-03T06:41:58.999Z</time></trkpt><trkpt lat="45.64656101428027" lon="9.366994772270871"><ele>219.66666666666666</ele><time>2026-04-03T06:41:59.999Z</time></trkpt><trkpt lat="45.646373186263155" lon="9.366918443076349"><ele>220.0</ele><time>2026-04-03T06:42:00.999Z</time></trkpt><trkpt lat="45.6461830967963" lon="9.36684941677249"><ele>218.33333333333331</ele><time>2026-04-03T06:42:01.999Z</time></trkpt><trkpt lat="45.64598998868055" lon="9.366780336856555"><ele>216.66666666666669</ele><time>2026-04-03T06:42:02.999Z</time></trkpt><trkpt lat="45.64579569566928" lon="9.366714330058741"><ele>215.0</ele><time>2026-04-03T06:42:03.999Z</time></trkpt><trkpt lat="45.64560264083753" lon="9.366647441225433"><ele>215.0</ele><time>2026-04-03T06:42:04.999Z</time></trkpt><trkpt lat="45.6454045962022" lon="9.366577855688245"><ele>215.0</ele><time>2026-04-03T06:42:05.999Z</time></trkpt><trkpt lat="45.645211077869035" lon="9.366504673320703"><ele>215.0</ele><time>2026-04-03T06:42:06.999Z</time></trkpt><trkpt lat="45.64502185300796" lon="9.36642833878281"><ele>215.66666666666669</ele><time>2026-04-03T06:42:07.999Z</time></trkpt><trkpt lat="45.64482822376371" lon="9.36635702125949"><ele>216.33333333333331</ele><time>2026-04-03T06:42:08.999Z</time></trkpt><trkpt lat="45.64463587755077" lon="9.36628754213711"><ele>217.0</ele><time>2026-04-03T06:42:09.999Z</time></trkpt><trkpt lat="45.64444149882108" lon="9.36621502106582"><ele>217.66666666666666</ele><time>2026-04-03T06:42:10.999Z</time></trkpt><trkpt lat="45.644242383674786" lon="9.366139982759158"><ele>218.33333333333331</ele><time>2026-04-03T06:42:11.999Z</time></trkpt><trkpt lat="45.64403910939334" lon="9.366064205503458"><ele>219.0</ele><time>2026-04-03T06:42:12.999Z</time></trkpt><trkpt lat="45.643833745646745" lon="9.365990602846013"><ele>218.0</ele><time>2026-04-03T06:42:13.999Z</time></trkpt><trkpt lat="45.643625781272554" lon="9.365914015095248"><ele>217.0</ele><time>2026-04-03T06:42:14.999Z</time></trkpt><trkpt lat="45.643416207649096" lon="9.365839322565613"><ele>216.0</ele><time>2026-04-03T06:42:15.999Z</time></trkpt><trkpt lat="45.64320485548428" lon="9.36576542525046"><ele>216.0</ele><time>2026-04-03T06:42:16.999Z</time></trkpt><trkpt lat="45.64299441653641" lon="9.3656914451677"><ele>216.0</ele><time>2026-04-03T06:42:17.999Z</time></trkpt><trkpt lat="45.64278190929872" lon="9.365616986441731"><ele>216.0</ele><time>2026-04-03T06:42:18.999Z</time></trkpt><trkpt lat="45.642566133900246" lon="9.36553773615531"><ele>216.0</ele><time>2026-04-03T06:42:19.999Z</time></trkpt><trkpt lat="45.642352266266656" lon="9.365458176717112"><ele>216.0</ele><time>2026-04-03T06:42:20.999Z</time></trkpt><trkpt lat="45.64213516650411" lon="9.36537318680631"><ele>216.0</ele><time>2026-04-03T06:42:21.999Z</time></trkpt><trkpt lat="45.64191552091136" lon="9.365285892652839"><ele>215.5</ele><time>2026-04-03T06:42:22.999Z</time></trkpt><trkpt lat="45.64169615594055" lon="9.36520061375624"><ele>215.0</ele><time>2026-04-03T06:42:23.999Z</time></trkpt><trkpt lat="45.64147669099925" lon="9.365118716678733"><ele>215.0</ele><time>2026-04-03T06:42:24.999Z</time></trkpt><trkpt lat="45.64125071045981" lon="9.365049895462207"><ele>215.0</ele><time>2026-04-03T06:42:25.999Z</time></trkpt><trkpt lat="45.64102470604824" lon="9.364984686422929"><ele>213.5</ele><time>2026-04-03T06:42:26.999Z</time></trkpt><trkpt lat="45.64079840269794" lon="9.364912684139371"><ele>212.0</ele><time>2026-04-03T06:42:27.999Z</time></trkpt><trkpt lat="45.64057232366184" lon="9.364833328638923"><ele>212.0</ele><time>2026-04-03T06:42:28.999Z</time></trkpt><trkpt lat="45.64034582221846" lon="9.364751591360212"><ele>212.0</ele><time>2026-04-03T06:42:29.999Z</time></trkpt><trkpt lat="45.64011844909307" lon="9.364666813871287"><ele>212.0</ele><time>2026-04-03T06:42:30.999Z</time></trkpt><trkpt lat="45.639889703331434" lon="9.364584841475407"><ele>212.0</ele><time>2026-04-03T06:42:31.999Z</time></trkpt><trkpt lat="45.63966151260118" lon="9.364507851157152"><ele>211.5</ele><time>2026-04-03T06:42:32.999Z</time></trkpt><trkpt lat="45.63943140306369" lon="9.364431772859733"><ele>211.0</ele><time>2026-04-03T06:42:33.999Z</time></trkpt><trkpt lat="45.63920164868324" lon="9.364355168897825"><ele>211.0</ele><time>2026-04-03T06:42:34.999Z</time></trkpt><trkpt lat="45.63897538413412" lon="9.364279395339377"><ele>211.0</ele><time>2026-04-03T06:42:35.999Z</time></trkpt><trkpt lat="45.638747649942694" lon="9.36420586888179"><ele>211.5</ele><time>2026-04-03T06:42:36.999Z</time></trkpt><trkpt lat="45.638520157209044" lon="9.364133730487191"><ele>212.0</ele><time>2026-04-03T06:42:37.999Z</time></trkpt><trkpt lat="45.638293819035546" lon="9.36406416992532"><ele>212.0</ele><time>2026-04-03T06:42:38.999Z</time></trkpt><trkpt lat="45.63806333070813" lon="9.363994651275904"><ele>212.0</ele><time>2026-04-03T06:42:39.999Z</time></trkpt><trkpt lat="45.637831650730135" lon="9.363927710963685"><ele>212.0</ele><time>2026-04-03T06:42:40.999Z</time></trkpt><trkpt lat="45.63759998429786" lon="9.363862480081647"><ele>212.0</ele><time>2026-04-03T06:42:41.999Z</time></trkpt><trkpt lat="45.63736483714474" lon="9.363800284522162"><ele>212.0</ele><time>2026-04-03T06:42:42.999Z</time></trkpt><trkpt lat="45.63712942278431" lon="9.36373942741867"><ele>212.0</ele><time>2026-04-03T06:42:43.999Z</time></trkpt><trkpt lat="45.636889552704794" lon="9.363680737620294"><ele>211.5</ele><time>2026-04-03T06:42:44.999Z</time></trkpt><trkpt lat="45.63664905141793" lon="9.363624186129732"><ele>211.0</ele><time>2026-04-03T06:42:45.999Z</time></trkpt><trkpt lat="45.63640392848442" lon="9.363571197110348"><ele>211.0</ele><time>2026-04-03T06:42:46.999Z</time></trkpt><trkpt lat="45.63615707384851" lon="9.363518460396874"><ele>211.0</ele><time>2026-04-03T06:42:47.999Z</time></trkpt><trkpt lat="45.63590927900976" lon="9.36346648016363"><ele>211.0</ele><time>2026-04-03T06:42:48.999Z</time></trkpt><trkpt lat="45.635661795781765" lon="9.363413259474761"><ele>211.0</ele><time>2026-04-03T06:42:49.999Z</time></trkpt><trkpt lat="45.63541401434273" lon="9.36335696339884"><ele>211.0</ele><time>2026-04-03T06:42:50.999Z</time></trkpt><trkpt lat="45.63516393196068" lon="9.363301955270398"><ele>211.0</ele><time>2026-04-03T06:42:51.999Z</time></trkpt><trkpt lat="45.63491164462808" lon="9.363252182574719"><ele>211.0</ele><time>2026-04-03T06:42:52.999Z</time></trkpt><trkpt lat="45.634659659441546" lon="9.36320715683489"><ele>211.0</ele><time>2026-04-03T06:42:53.999Z</time></trkpt><trkpt lat="45.634404953853775" lon="9.363159018307773"><ele>211.0</ele><time>2026-04-03T06:42:54.999Z</time></trkpt><trkpt lat="45.63415161423492" lon="9.36310458612841"><ele>211.0</ele><time>2026-04-03T06:42:55.999Z</time></trkpt><trkpt lat="45.63389873358395" lon="9.363044379515415"><ele>211.5</ele><time>2026-04-03T06:42:56.999Z</time></trkpt><trkpt lat="45.63364173698414" lon="9.362983674126655"><ele>212.0</ele><time>2026-04-03T06:42:57.999Z</time></trkpt><trkpt lat="45.63338684465793" lon="9.362928397329474"><ele>211.0</ele><time>2026-04-03T06:42:58.999Z</time></trkpt><trkpt lat="45.63313620208501" lon="9.362874772327755"><ele>210.0</ele><time>2026-04-03T06:42:59.999Z</time></trkpt><trkpt lat="45.63288885631088" lon="9.36282553603299"><ele>210.0</ele><time>2026-04-03T06:43:00.999Z</time></trkpt><trkpt lat="45.63265218866416" lon="9.362782152646156"><ele>210.0</ele><time>2026-04-03T06:43:01.999Z</time></trkpt><trkpt lat="45.63241866673116" lon="9.362740156056766"><ele>210.0</ele><time>2026-04-03T06:43:02.999Z</time></trkpt><trkpt lat="45.63219564504649" lon="9.362698662263758"><ele>210.0</ele><time>2026-04-03T06:43:03.999Z</time></trkpt><trkpt lat="45.63197638736816" lon="9.362665404430317"><ele>210.0</ele><time>2026-04-03T06:43:04.999Z</time></trkpt><trkpt lat="45.631745548485284" lon="9.36262759396798"><ele>209.5</ele><time>2026-04-03T06:43:05.999Z</time></trkpt><trkpt lat="45.63151591469282" lon="9.362585788511911"><ele>209.0</ele><time>2026-04-03T06:43:06.999Z</time></trkpt><trkpt lat="45.631280952301644" lon="9.362546244636462"><ele>209.0</ele><time>2026-04-03T06:43:07.999Z</time></trkpt><trkpt lat="45.63104114496048" lon="9.362498057742329"><ele>209.0</ele><time>2026-04-03T06:43:08.999Z</time></trkpt><trkpt lat="45.630799144531515" lon="9.362439407265695"><ele>209.0</ele><time>2026-04-03T06:43:09.999Z</time></trkpt><trkpt lat="45.63054921644937" lon="9.36238622385891"><ele>209.0</ele><time>2026-04-03T06:43:10.999Z</time></trkpt><trkpt lat="45.63029995510193" lon="9.362342934826705"><ele>207.5</ele><time>2026-04-03T06:43:11.999Z</time></trkpt><trkpt lat="45.63005071341058" lon="9.362300053040393"><ele>206.0</ele><time>2026-04-03T06:43:12.999Z</time></trkpt><trkpt lat="45.6297974480316" lon="9.362250135976488"><ele>206.0</ele><time>2026-04-03T06:43:13.999Z</time></trkpt><trkpt lat="45.629542180783325" lon="9.362204233146612"><ele>206.0</ele><time>2026-04-03T06:43:14.999Z</time></trkpt><trkpt lat="45.62928661703495" lon="9.36215227756405"><ele>207.5</ele><time>2026-04-03T06:43:15.999Z</time></trkpt><trkpt lat="45.629030477786515" lon="9.362093173026679"><ele>209.0</ele><time>2026-04-03T06:43:16.999Z</time></trkpt><trkpt lat="45.6287802325746" lon="9.362047216870875"><ele>208.5</ele><time>2026-04-03T06:43:17.999Z</time></trkpt><trkpt lat="45.62852496673037" lon="9.361987725834593"><ele>208.0</ele><time>2026-04-03T06:43:18.999Z</time></trkpt><trkpt lat="45.62826608781945" lon="9.36193605402487"><ele>208.0</ele><time>2026-04-03T06:43:19.999Z</time></trkpt><trkpt lat="45.62800636171257" lon="9.361889828290009"><ele>208.0</ele><time>2026-04-03T06:43:20.999Z</time></trkpt><trkpt lat="45.62774512394193" lon="9.361838137003172"><ele>207.0</ele><time>2026-04-03T06:43:21.998Z</time></trkpt><trkpt lat="45.62748215028799" lon="9.361782408526324"><ele>206.0</ele><time>2026-04-03T06:43:22.998Z</time></trkpt><trkpt lat="45.62721555136167" lon="9.36172674983112"><ele>204.5</ele><time>2026-04-03T06:43:24Z</time></trkpt><trkpt lat="45.62694832529212" lon="9.361680490625561"><ele>203.0</ele><time>2026-04-03T06:43:25Z</time></trkpt><trkpt lat="45.62668647068718" lon="9.3616283155689"><ele>203.0</ele><time>2026-04-03T06:43:26Z</time></trkpt><trkpt lat="45.62642242467996" lon="9.361573416239196"><ele>203.0</ele><time>2026-04-03T06:43:27Z</time></trkpt><trkpt lat="45.62615806133937" lon="9.36152289044435"><ele>203.0</ele><time>2026-04-03T06:43:28Z</time></trkpt><trkpt lat="45.62589505610389" lon="9.36146114121223"><ele>203.0</ele><time>2026-04-03T06:43:29Z</time></trkpt><trkpt lat="45.62563048689464" lon="9.361412827784706"><ele>202.0</ele><time>2026-04-03T06:43:30Z</time></trkpt><trkpt lat="45.62535886801193" lon="9.36136000046797"><ele>201.0</ele><time>2026-04-03T06:43:31Z</time></trkpt><trkpt lat="45.62509090443731" lon="9.36130944450519"><ele>201.0</ele><time>2026-04-03T06:43:32Z</time></trkpt><trkpt lat="45.62482438481705" lon="9.361261643784259"><ele>201.0</ele><time>2026-04-03T06:43:33Z</time></trkpt><trkpt lat="45.62455827399878" lon="9.361206673640343"><ele>200.0</ele><time>2026-04-03T06:43:34Z</time></trkpt><trkpt lat="45.62428725799368" lon="9.361145733304276"><ele>199.0</ele><time>2026-04-03T06:43:35Z</time></trkpt><trkpt lat="45.62402533380453" lon="9.361085556270057"><ele>199.0</ele><time>2026-04-03T06:43:36Z</time></trkpt><trkpt lat="45.62376522345214" lon="9.361038404890515"><ele>199.0</ele><time>2026-04-03T06:43:37Z</time></trkpt><trkpt lat="45.6235050053809" lon="9.360982717719986"><ele>199.0</ele><time>2026-04-03T06:43:38Z</time></trkpt><trkpt lat="45.6232459580086" lon="9.360928806771076"><ele>199.0</ele><time>2026-04-03T06:43:39Z</time></trkpt><trkpt lat="45.62299014381921" lon="9.360883654198844"><ele>197.5</ele><time>2026-04-03T06:43:40Z</time></trkpt><trkpt lat="45.62273700048354" lon="9.360837697538255"><ele>196.0</ele><time>2026-04-03T06:43:41Z</time></trkpt><trkpt lat="45.62248400536397" lon="9.36078912686726"><ele>196.0</ele><time>2026-04-03T06:43:42Z</time></trkpt><trkpt lat="45.62222868030916" lon="9.360731506611964"><ele>196.0</ele><time>2026-04-03T06:43:43Z</time></trkpt><trkpt lat="45.62197829572453" lon="9.360684846263737"><ele>195.0</ele><time>2026-04-03T06:43:44Z</time></trkpt><trkpt lat="45.621723323971665" lon="9.360633827323614"><ele>194.0</ele><time>2026-04-03T06:43:45Z</time></trkpt><trkpt lat="45.62146808940614" lon="9.360584919314457"><ele>194.0</ele><time>2026-04-03T06:43:46Z</time></trkpt><trkpt lat="45.62121688203157" lon="9.36053966067011"><ele>194.0</ele><time>2026-04-03T06:43:47Z</time></trkpt><trkpt lat="45.620965385576746" lon="9.360493129308688"><ele>194.0</ele><time>2026-04-03T06:43:48Z</time></trkpt><trkpt lat="45.620714295227934" lon="9.36044220403696"><ele>194.0</ele><time>2026-04-03T06:43:49Z</time></trkpt><trkpt lat="45.62046504551555" lon="9.360395575531417"><ele>192.5</ele><time>2026-04-03T06:43:50Z</time></trkpt><trkpt lat="45.62021595473743" lon="9.360346221665896"><ele>191.0</ele><time>2026-04-03T06:43:50.999Z</time></trkpt><trkpt lat="45.61997071989489" lon="9.360299011941805"><ele>191.0</ele><time>2026-04-03T06:43:51.999Z</time></trkpt><trkpt lat="45.61972550447368" lon="9.360247965932002"><ele>191.0</ele><time>2026-04-03T06:43:52.999Z</time></trkpt><trkpt lat="45.61948452798486" lon="9.360201949658622"><ele>191.5</ele><time>2026-04-03T06:43:53.999Z</time></trkpt><trkpt lat="45.61924484122089" lon="9.360154062641532"><ele>192.0</ele><time>2026-04-03T06:43:54.999Z</time></trkpt><trkpt lat="45.61901410723698" lon="9.360109357770407"><ele>192.0</ele><time>2026-04-03T06:43:55.999Z</time></trkpt><trkpt lat="45.61876619039065" lon="9.360057183932867"><ele>192.0</ele><time>2026-04-03T06:43:56.999Z</time></trkpt><trkpt lat="45.61851876002753" lon="9.360006667115226"><ele>193.0</ele><time>2026-04-03T06:43:57.999Z</time></trkpt><trkpt lat="45.61827020054332" lon="9.35995883567621"><ele>194.0</ele><time>2026-04-03T06:43:58.999Z</time></trkpt><trkpt lat="45.61802078045992" lon="9.359912149845787"><ele>195.5</ele><time>2026-04-03T06:43:59.999Z</time></trkpt><trkpt lat="45.61777399226558" lon="9.359863390545748"><ele>197.0</ele><time>2026-04-03T06:44:00.999Z</time></trkpt><trkpt lat="45.61752422741296" lon="9.359815812781811"><ele>197.0</ele><time>2026-04-03T06:44:01.999Z</time></trkpt><trkpt lat="45.6172754410694" lon="9.359769190989399"><ele>197.0</ele><time>2026-04-03T06:44:02.999Z</time></trkpt><trkpt lat="45.617026563030855" lon="9.35972193139516"><ele>194.5</ele><time>2026-04-03T06:44:03.999Z</time></trkpt><trkpt lat="45.61677923101669" lon="9.359675774220046"><ele>192.0</ele><time>2026-04-03T06:44:04.999Z</time></trkpt><trkpt lat="45.61652811526305" lon="9.359627384816305"><ele>192.0</ele><time>2026-04-03T06:44:05.999Z</time></trkpt><trkpt lat="45.61627847880143" lon="9.359580233408048"><ele>192.0</ele><time>2026-04-03T06:44:06.999Z</time></trkpt><trkpt lat="45.61602886641979" lon="9.359532555211008"><ele>191.0</ele><time>2026-04-03T06:44:07.999Z</time></trkpt><trkpt lat="45.61577894584595" lon="9.359484884139954"><ele>190.0</ele><time>2026-04-03T06:44:08.999Z</time></trkpt><trkpt lat="45.616134428087555" lon="9.359593320812433"><ele>190.0</ele><time>2026-04-03T06:44:09.999Z</time></trkpt><trkpt lat="45.61593469861372" lon="9.359556207784008"><ele>190.0</ele><time>2026-04-03T06:44:10.999Z</time></trkpt><trkpt lat="45.61563533920852" lon="9.359514358293195"><ele>190.0</ele><time>2026-04-03T06:44:11.999Z</time></trkpt><trkpt lat="45.61542071256846" lon="9.359474796995007"><ele>190.0</ele><time>2026-04-03T06:44:12.999Z</time></trkpt><trkpt lat="45.61521970828188" lon="9.35943809616315"><ele>190.0</ele><time>2026-04-03T06:44:13.999Z</time></trkpt><trkpt lat="45.61501779592569" lon="9.359402246419783"><ele>190.0</ele><time>2026-04-03T06:44:14.999Z</time></trkpt><trkpt lat="45.614817657682" lon="9.359365617098646"><ele>190.0</ele><time>2026-04-03T06:44:15.999Z</time></trkpt><trkpt lat="45.61461888696002" lon="9.359332623279617"><ele>190.0</ele><time>2026-04-03T06:44:16.999Z</time></trkpt><trkpt lat="45.61442081351026" lon="9.359297858953841"><ele>190.0</ele><time>2026-04-03T06:44:17.999Z</time></trkpt><trkpt lat="45.61422430719276" lon="9.35923995920161"><ele>190.0</ele><time>2026-04-03T06:44:18.999Z</time></trkpt><trkpt lat="45.61402528116287" lon="9.359202745816617"><ele>190.0</ele><time>2026-04-03T06:44:19.999Z</time></trkpt><trkpt lat="45.61382145027663" lon="9.359182951787094"><ele>189.66666666666669</ele><time>2026-04-03T06:44:20.999Z</time></trkpt><trkpt lat="45.613616326919896" lon="9.359175436177193"><ele>189.33333333333334</ele><time>2026-04-03T06:44:21.999Z</time></trkpt><trkpt lat="45.613398309841344" lon="9.359184307534278"><ele>189.0</ele><time>2026-04-03T06:44:22.999Z</time></trkpt><trkpt lat="45.61318465782956" lon="9.359210908377454"><ele>189.0</ele><time>2026-04-03T06:44:23.999Z</time></trkpt><trkpt lat="45.612963920694675" lon="9.359249720987131"><ele>189.0</ele><time>2026-04-03T06:44:24.999Z</time></trkpt><trkpt lat="45.61275016108086" lon="9.359306748988693"><ele>189.0</ele><time>2026-04-03T06:44:25.999Z</time></trkpt><trkpt lat="45.61255843378497" lon="9.359367580880587"><ele>189.0</ele><time>2026-04-03T06:44:26.999Z</time></trkpt><trkpt lat="45.612351882489406" lon="9.359446945950939"><ele>189.0</ele><time>2026-04-03T06:44:27.999Z</time></trkpt><trkpt lat="45.61215086584226" lon="9.359531702446324"><ele>189.0</ele><time>2026-04-03T06:44:28.999Z</time></trkpt><trkpt lat="45.611957231803586" lon="9.359612608980541"><ele>189.0</ele><time>2026-04-03T06:44:29.999Z</time></trkpt><trkpt lat="45.61175601079595" lon="9.359694370289082"><ele>189.0</ele><time>2026-04-03T06:44:30.999Z</time></trkpt><trkpt lat="45.611553783106835" lon="9.35977819531077"><ele>189.0</ele><time>2026-04-03T06:44:31.999Z</time></trkpt><trkpt lat="45.61126270071489" lon="9.359896980154053"><ele>187.5</ele><time>2026-04-03T06:44:32.999Z</time></trkpt><trkpt lat="45.611041526911706" lon="9.359987932395425"><ele>186.0</ele><time>2026-04-03T06:44:33.999Z</time></trkpt><trkpt lat="45.61078998008577" lon="9.360101236489367"><ele>186.0</ele><time>2026-04-03T06:44:34.999Z</time></trkpt><trkpt lat="45.61053621893709" lon="9.360166568490474"><ele>186.0</ele><time>2026-04-03T06:44:35.999Z</time></trkpt><trkpt lat="45.61031710727139" lon="9.360241763515257"><ele>184.5</ele><time>2026-04-03T06:44:36.999Z</time></trkpt><trkpt lat="45.610096580136435" lon="9.360322948371937"><ele>183.0</ele><time>2026-04-03T06:44:37.999Z</time></trkpt><trkpt lat="45.60986265783145" lon="9.360396575726554"><ele>183.0</ele><time>2026-04-03T06:44:38.999Z</time></trkpt><trkpt lat="45.60964402137814" lon="9.360478149199189"><ele>183.0</ele><time>2026-04-03T06:44:39.999Z</time></trkpt><trkpt lat="45.60942439491338" lon="9.360565665604208"><ele>184.0</ele><time>2026-04-03T06:44:40.999Z</time></trkpt><trkpt lat="45.60920582315234" lon="9.360652521765271"><ele>185.0</ele><time>2026-04-03T06:44:41.999Z</time></trkpt><trkpt lat="45.608984250043676" lon="9.360739807045666"><ele>185.0</ele><time>2026-04-03T06:44:42.999Z</time></trkpt><trkpt lat="45.60876620144394" lon="9.360827712524925"><ele>185.0</ele><time>2026-04-03T06:44:43.999Z</time></trkpt><trkpt lat="45.6085469019072" lon="9.36091909778192"><ele>185.0</ele><time>2026-04-03T06:44:44.999Z</time></trkpt><trkpt lat="45.608332211709666" lon="9.361009788481002"><ele>185.0</ele><time>2026-04-03T06:44:45.999Z</time></trkpt><trkpt lat="45.60812283824463" lon="9.361098573401769"><ele>185.0</ele><time>2026-04-03T06:44:46.999Z</time></trkpt><trkpt lat="45.60791045829122" lon="9.361188491929022"><ele>185.5</ele><time>2026-04-03T06:44:47.999Z</time></trkpt><trkpt lat="45.60766204964598" lon="9.361272239183952"><ele>186.0</ele><time>2026-04-03T06:44:48.999Z</time></trkpt><trkpt lat="45.60742822485415" lon="9.36137383233228"><ele>185.0</ele><time>2026-04-03T06:44:49.999Z</time></trkpt><trkpt lat="45.60720386049843" lon="9.361469568917075"><ele>184.0</ele><time>2026-04-03T06:44:50.999Z</time></trkpt><trkpt lat="45.60698118457869" lon="9.361562391473761"><ele>183.0</ele><time>2026-04-03T06:44:51.999Z</time></trkpt><trkpt lat="45.60675746342537" lon="9.361657269737398"><ele>182.0</ele><time>2026-04-03T06:44:52.999Z</time></trkpt><trkpt lat="45.606532345706796" lon="9.361750920719928"><ele>182.0</ele><time>2026-04-03T06:44:53.999Z</time></trkpt><trkpt lat="45.60630755294253" lon="9.361842497371143"><ele>182.0</ele><time>2026-04-03T06:44:54.999Z</time></trkpt><trkpt lat="45.60608246852255" lon="9.361932415863919"><ele>184.5</ele><time>2026-04-03T06:44:55.999Z</time></trkpt><trkpt lat="45.605854579561196" lon="9.362021854539014"><ele>187.0</ele><time>2026-04-03T06:44:56.999Z</time></trkpt><trkpt lat="45.60562913046192" lon="9.362110953418249"><ele>186.5</ele><time>2026-04-03T06:44:57.999Z</time></trkpt><trkpt lat="45.60540238016674" lon="9.362203693781204"><ele>186.0</ele><time>2026-04-03T06:44:58.999Z</time></trkpt><trkpt lat="45.60517724207824" lon="9.362302428956276"><ele>184.5</ele><time>2026-04-03T06:44:59.999Z</time></trkpt><trkpt lat="45.60495277225217" lon="9.362400238720548"><ele>183.0</ele><time>2026-04-03T06:45:00.999Z</time></trkpt><trkpt lat="45.604726890521874" lon="9.362497455057595"><ele>183.0</ele><time>2026-04-03T06:45:01.999Z</time></trkpt><trkpt lat="45.604501567197254" lon="9.362594702439837"><ele>183.0</ele><time>2026-04-03T06:45:02.999Z</time></trkpt><trkpt lat="45.604273335012806" lon="9.362691645978952"><ele>181.0</ele><time>2026-04-03T06:45:03.999Z</time></trkpt><trkpt lat="45.60404419180105" lon="9.362786456585436"><ele>179.0</ele><time>2026-04-03T06:45:04.999Z</time></trkpt><trkpt lat="45.60381424957425" lon="9.362883221167762"><ele>179.5</ele><time>2026-04-03T06:45:05.999Z</time></trkpt><trkpt lat="45.603585114693125" lon="9.362978855860922"><ele>180.0</ele><time>2026-04-03T06:45:06.999Z</time></trkpt><trkpt lat="45.603354430002945" lon="9.363071362291906"><ele>180.0</ele><time>2026-04-03T06:45:07.999Z</time></trkpt><trkpt lat="45.60311842691574" lon="9.363165076184073"><ele>180.0</ele><time>2026-04-03T06:45:08.999Z</time></trkpt><trkpt lat="45.602885099957625" lon="9.363257107584547"><ele>179.5</ele><time>2026-04-03T06:45:09.999Z</time></trkpt><trkpt lat="45.602651938898504" lon="9.363335911232237"><ele>179.0</ele><time>2026-04-03T06:45:10.999Z</time></trkpt><trkpt lat="45.60242046817883" lon="9.363414130828085"><ele>179.0</ele><time>2026-04-03T06:45:11.999Z</time></trkpt><trkpt lat="45.602189620135256" lon="9.363484649122872"><ele>179.0</ele><time>2026-04-03T06:45:12.999Z</time></trkpt><trkpt lat="45.601958265316" lon="9.363543875911324"><ele>178.5</ele><time>2026-04-03T06:45:13.999Z</time></trkpt><trkpt lat="45.601726339332714" lon="9.363587714898431"><ele>178.0</ele><time>2026-04-03T06:45:14.999Z</time></trkpt><trkpt lat="45.60149282084587" lon="9.363614573793665"><ele>178.0</ele><time>2026-04-03T06:45:15.999Z</time></trkpt><trkpt lat="45.60125772712167" lon="9.363624274503184"><ele>178.0</ele><time>2026-04-03T06:45:16.999Z</time></trkpt><trkpt lat="45.60102174737827" lon="9.363620408475706"><ele>180.0</ele><time>2026-04-03T06:45:17.999Z</time></trkpt><trkpt lat="45.6007811863639" lon="9.363605051421839"><ele>182.0</ele><time>2026-04-03T06:45:18.999Z</time></trkpt><trkpt lat="45.60053747422651" lon="9.363584469844216"><ele>183.5</ele><time>2026-04-03T06:45:19.999Z</time></trkpt><trkpt lat="45.60028980260275" lon="9.363552783565666"><ele>185.0</ele><time>2026-04-03T06:45:20.999Z</time></trkpt><trkpt lat="45.60004411978145" lon="9.363505291176686"><ele>185.0</ele><time>2026-04-03T06:45:21.998Z</time></trkpt><trkpt lat="45.59979357077142" lon="9.363446313804301"><ele>185.0</ele><time>2026-04-03T06:45:22.998Z</time></trkpt><trkpt lat="45.59954410725166" lon="9.363366860978939"><ele>185.0</ele><time>2026-04-03T06:45:23.998Z</time></trkpt><trkpt lat="45.59929457657135" lon="9.363272268273391"><ele>185.0</ele><time>2026-04-03T06:45:24.998Z</time></trkpt><trkpt lat="45.59904172096555" lon="9.363164787249321"><ele>185.0</ele><time>2026-04-03T06:45:25.998Z</time></trkpt><trkpt lat="45.598787353976206" lon="9.363052400019354"><ele>185.0</ele><time>2026-04-03T06:45:26.998Z</time></trkpt><trkpt lat="45.59853425085914" lon="9.362940486480534"><ele>183.5</ele><time>2026-04-03T06:45:27.998Z</time></trkpt><trkpt lat="45.59827583933584" lon="9.362825978579444"><ele>182.0</ele><time>2026-04-03T06:45:28.998Z</time></trkpt><trkpt lat="45.59801592215737" lon="9.362713000713887"><ele>182.0</ele><time>2026-04-03T06:45:30Z</time></trkpt><trkpt lat="45.59775766594873" lon="9.36260103216715"><ele>182.0</ele><time>2026-04-03T06:45:31Z</time></trkpt><trkpt lat="45.59749616769932" lon="9.362491256579307"><ele>182.0</ele><time>2026-04-03T06:45:32Z</time></trkpt><trkpt lat="45.59723277321052" lon="9.362379143497613"><ele>182.0</ele><time>2026-04-03T06:45:33Z</time></trkpt><trkpt lat="45.5969683838013" lon="9.362267319515226"><ele>181.5</ele><time>2026-04-03T06:45:34Z</time></trkpt><trkpt lat="45.59670570438016" lon="9.362150981608293"><ele>181.0</ele><time>2026-04-03T06:45:35Z</time></trkpt><trkpt lat="45.59644342359653" lon="9.362030222873036"><ele>181.0</ele><time>2026-04-03T06:45:36Z</time></trkpt><trkpt lat="45.59618402448757" lon="9.361897536654384"><ele>181.0</ele><time>2026-04-03T06:45:37Z</time></trkpt><trkpt lat="45.59593105326411" lon="9.361748514557881"><ele>180.0</ele><time>2026-04-03T06:45:38Z</time></trkpt><trkpt lat="45.595678938614036" lon="9.36158942588821"><ele>179.0</ele><time>2026-04-03T06:45:39Z</time></trkpt><trkpt lat="45.59543477373506" lon="9.361420956000174"><ele>177.5</ele><time>2026-04-03T06:45:40Z</time></trkpt><trkpt lat="45.595191353457274" lon="9.361240663824361"><ele>176.0</ele><time>2026-04-03T06:45:41Z</time></trkpt><trkpt lat="45.59495351023458" lon="9.361055496465742"><ele>176.0</ele><time>2026-04-03T06:45:42Z</time></trkpt><trkpt lat="45.594716432008155" lon="9.360857353065901"><ele>176.0</ele><time>2026-04-03T06:45:43Z</time></trkpt><trkpt lat="45.59448652564938" lon="9.36065605344805"><ele>176.5</ele><time>2026-04-03T06:45:44Z</time></trkpt><trkpt lat="45.59425826082035" lon="9.360441783940054"><ele>177.0</ele><time>2026-04-03T06:45:45Z</time></trkpt><trkpt lat="45.594036683159906" lon="9.360219302333798"><ele>177.0</ele><time>2026-04-03T06:45:46Z</time></trkpt><trkpt lat="45.5938194100423" lon="9.35998323390966"><ele>177.0</ele><time>2026-04-03T06:45:47Z</time></trkpt><trkpt lat="45.59360826763945" lon="9.359738514465592"><ele>175.5</ele><time>2026-04-03T06:45:48Z</time></trkpt><trkpt lat="45.59340462202849" lon="9.35948240116811"><ele>174.0</ele><time>2026-04-03T06:45:49Z</time></trkpt><trkpt lat="45.593207456524475" lon="9.359219297765943"><ele>174.0</ele><time>2026-04-03T06:45:49.999Z</time></trkpt><trkpt lat="45.59301338083201" lon="9.358956687964785"><ele>174.0</ele><time>2026-04-03T06:45:50.999Z</time></trkpt><trkpt lat="45.59281939142466" lon="9.358692547185399"><ele>174.5</ele><time>2026-04-03T06:45:51.999Z</time></trkpt><trkpt lat="45.59262178997271" lon="9.358426577639223"><ele>175.0</ele><time>2026-04-03T06:45:52.999Z</time></trkpt><trkpt lat="45.592427874685704" lon="9.358168987806843"><ele>175.0</ele><time>2026-04-03T06:45:53.999Z</time></trkpt><trkpt lat="45.59223354229708" lon="9.357906699702003"><ele>175.0</ele><time>2026-04-03T06:45:54.999Z</time></trkpt><trkpt lat="45.59203755739815" lon="9.357645458096494"><ele>175.5</ele><time>2026-04-03T06:45:55.999Z</time></trkpt><trkpt lat="45.59184383414893" lon="9.357385902658827"><ele>176.0</ele><time>2026-04-03T06:45:56.999Z</time></trkpt><trkpt lat="45.59164722294301" lon="9.35712367819037"><ele>175.0</ele><time>2026-04-03T06:45:57.999Z</time></trkpt><trkpt lat="45.591454696133624" lon="9.356864201332572"><ele>174.0</ele><time>2026-04-03T06:45:58.999Z</time></trkpt><trkpt lat="45.59126171095305" lon="9.356602499478848"><ele>173.0</ele><time>2026-04-03T06:45:59.999Z</time></trkpt><trkpt lat="45.591071334982274" lon="9.35633580908259"><ele>172.0</ele><time>2026-04-03T06:46:00.999Z</time></trkpt><trkpt lat="45.59088284214268" lon="9.356070324170481"><ele>172.0</ele><time>2026-04-03T06:46:01.999Z</time></trkpt><trkpt lat="45.59069296998598" lon="9.35580671916569"><ele>172.0</ele><time>2026-04-03T06:46:02.999Z</time></trkpt><trkpt lat="45.59050225421388" lon="9.355548755849314"><ele>171.5</ele><time>2026-04-03T06:46:03.999Z</time></trkpt><trkpt lat="45.59030958855503" lon="9.355291431409134"><ele>171.0</ele><time>2026-04-03T06:46:04.999Z</time></trkpt><trkpt lat="45.59011734788695" lon="9.35503692010454"><ele>171.0</ele><time>2026-04-03T06:46:05.999Z</time></trkpt><trkpt lat="45.589923041278894" lon="9.354778089321488"><ele>171.0</ele><time>2026-04-03T06:46:06.999Z</time></trkpt><trkpt lat="45.58973254252749" lon="9.354520651793099"><ele>172.0</ele><time>2026-04-03T06:46:07.999Z</time></trkpt><trkpt lat="45.58954010315962" lon="9.354263480673975"><ele>173.0</ele><time>2026-04-03T06:46:08.999Z</time></trkpt><trkpt lat="45.5893492565636" lon="9.354007065727682"><ele>173.0</ele><time>2026-04-03T06:46:09.999Z</time></trkpt><trkpt lat="45.58915975234886" lon="9.353752446885823"><ele>173.0</ele><time>2026-04-03T06:46:10.999Z</time></trkpt><trkpt lat="45.58897055368356" lon="9.353497443136002"><ele>173.0</ele><time>2026-04-03T06:46:11.999Z</time></trkpt><trkpt lat="45.58878248534973" lon="9.353246563692036"><ele>173.0</ele><time>2026-04-03T06:46:12.999Z</time></trkpt><trkpt lat="45.58859258685005" lon="9.352995461193421"><ele>172.5</ele><time>2026-04-03T06:46:13.999Z</time></trkpt><trkpt lat="45.588404161062684" lon="9.352748280268006"><ele>172.0</ele><time>2026-04-03T06:46:14.999Z</time></trkpt><trkpt lat="45.58821628169794" lon="9.352502931721352"><ele>172.0</ele><time>2026-04-03T06:46:15.999Z</time></trkpt><trkpt lat="45.58802733066827" lon="9.352257110377954"><ele>172.0</ele><time>2026-04-03T06:46:16.999Z</time></trkpt><trkpt lat="45.58784049647949" lon="9.352007550589926"><ele>171.0</ele><time>2026-04-03T06:46:17.999Z</time></trkpt><trkpt lat="45.58765744293109" lon="9.351758443937051"><ele>170.0</ele><time>2026-04-03T06:46:18.999Z</time></trkpt><trkpt lat="45.587470654868305" lon="9.351509340699447"><ele>170.5</ele><time>2026-04-03T06:46:19.999Z</time></trkpt><trkpt lat="45.58728190908847" lon="9.351263515339468"><ele>171.0</ele><time>2026-04-03T06:46:20.999Z</time></trkpt><trkpt lat="45.58709030241504" lon="9.351022348588465"><ele>169.5</ele><time>2026-04-03T06:46:21.999Z</time></trkpt><trkpt lat="45.58689706885596" lon="9.350784287307796"><ele>168.0</ele><time>2026-04-03T06:46:22.999Z</time></trkpt><trkpt lat="45.58670662787504" lon="9.350542432977958"><ele>168.0</ele><time>2026-04-03T06:46:23.999Z</time></trkpt><trkpt lat="45.5865202690887" lon="9.350296608731304"><ele>168.0</ele><time>2026-04-03T06:46:24.999Z</time></trkpt><trkpt lat="45.58633844369735" lon="9.350053006265101"><ele>168.5</ele><time>2026-04-03T06:46:25.999Z</time></trkpt><trkpt lat="45.58615716382811" lon="9.349807564376022"><ele>169.0</ele><time>2026-04-03T06:46:26.999Z</time></trkpt><trkpt lat="45.585977368739925" lon="9.349570859487986"><ele>169.0</ele><time>2026-04-03T06:46:27.999Z</time></trkpt><trkpt lat="45.585796977896955" lon="9.349335108953916"><ele>169.0</ele><time>2026-04-03T06:46:28.999Z</time></trkpt><trkpt lat="45.58561954446279" lon="9.349101223472207"><ele>168.5</ele><time>2026-04-03T06:46:29.999Z</time></trkpt><trkpt lat="45.585444908097664" lon="9.348865078769098"><ele>168.0</ele><time>2026-04-03T06:46:30.999Z</time></trkpt><trkpt lat="45.585269427983285" lon="9.348628738732316"><ele>168.0</ele><time>2026-04-03T06:46:31.999Z</time></trkpt><trkpt lat="45.5850956558547" lon="9.348395818471808"><ele>168.0</ele><time>2026-04-03T06:46:32.999Z</time></trkpt><trkpt lat="45.58492266969655" lon="9.348166092455168"><ele>167.0</ele><time>2026-04-03T06:46:33.999Z</time></trkpt><trkpt lat="45.58475001110784" lon="9.3479371525284"><ele>166.0</ele><time>2026-04-03T06:46:34.999Z</time></trkpt><trkpt lat="45.584578321444596" lon="9.347706819041386"><ele>166.5</ele><time>2026-04-03T06:46:35.999Z</time></trkpt><trkpt lat="45.58440510864893" lon="9.347475313638512"><ele>167.0</ele><time>2026-04-03T06:46:36.999Z</time></trkpt><trkpt lat="45.58423446908019" lon="9.347246939723382"><ele>167.0</ele><time>2026-04-03T06:46:37.999Z</time></trkpt><trkpt lat="45.58406209642637" lon="9.347015582295102"><ele>167.0</ele><time>2026-04-03T06:46:38.999Z</time></trkpt><trkpt lat="45.58388925946596" lon="9.346788461389652"><ele>167.0</ele><time>2026-04-03T06:46:39.999Z</time></trkpt><trkpt lat="45.583707062381066" lon="9.346563821930907"><ele>167.0</ele><time>2026-04-03T06:46:40.999Z</time></trkpt><trkpt lat="45.58352290965072" lon="9.346351475548516"><ele>166.5</ele><time>2026-04-03T06:46:41.999Z</time></trkpt><trkpt lat="45.58333677710331" lon="9.346141301058529"><ele>166.0</ele><time>2026-04-03T06:46:42.999Z</time></trkpt><trkpt lat="45.58314757293806" lon="9.345936428688642"><ele>166.0</ele><time>2026-04-03T06:46:43.999Z</time></trkpt><trkpt lat="45.58295550373665" lon="9.345732244549739"><ele>166.0</ele><time>2026-04-03T06:46:44.999Z</time></trkpt><trkpt lat="45.58275982402996" lon="9.345531954134996"><ele>165.0</ele><time>2026-04-03T06:46:45.999Z</time></trkpt><trkpt lat="45.582560819990654" lon="9.345338638654182"><ele>164.0</ele><time>2026-04-03T06:46:46.999Z</time></trkpt><trkpt lat="45.582356923125786" lon="9.345145930925051"><ele>164.0</ele><time>2026-04-03T06:46:47.999Z</time></trkpt><trkpt lat="45.582157705536225" lon="9.344966339406737"><ele>164.0</ele><time>2026-04-03T06:46:48.999Z</time></trkpt><trkpt lat="45.58195275460425" lon="9.344789817231216"><ele>164.0</ele><time>2026-04-03T06:46:49.999Z</time></trkpt><trkpt lat="45.58174664775878" lon="9.344616772004716"><ele>164.0</ele><time>2026-04-03T06:46:50.999Z</time></trkpt><trkpt lat="45.58153894655718" lon="9.344450628070472"><ele>164.0</ele><time>2026-04-03T06:46:51.999Z</time></trkpt><trkpt lat="45.58132936011179" lon="9.344286506966672"><ele>164.0</ele><time>2026-04-03T06:46:52.999Z</time></trkpt><trkpt lat="45.581119114169276" lon="9.344130442746176"><ele>164.0</ele><time>2026-04-03T06:46:53.999Z</time></trkpt><trkpt lat="45.58090398238447" lon="9.343977870471326"><ele>164.0</ele><time>2026-04-03T06:46:54.999Z</time></trkpt><trkpt lat="45.58068777572878" lon="9.343828177925918"><ele>164.0</ele><time>2026-04-03T06:46:55.999Z</time></trkpt><trkpt lat="45.58046528728935" lon="9.343685109834414"><ele>164.0</ele><time>2026-04-03T06:46:56.999Z</time></trkpt><trkpt lat="45.58024092040503" lon="9.343544450847759"><ele>165.0</ele><time>2026-04-03T06:46:57.999Z</time></trkpt><trkpt lat="45.58001261165913" lon="9.34340541577168"><ele>166.0</ele><time>2026-04-03T06:46:58.999Z</time></trkpt><trkpt lat="45.57978195815531" lon="9.343274073568733"><ele>166.0</ele><time>2026-04-03T06:46:59.999Z</time></trkpt><trkpt lat="45.57954421082233" lon="9.343153078465772"><ele>166.0</ele><time>2026-04-03T06:47:00.999Z</time></trkpt><trkpt lat="45.57930752573273" lon="9.343037753906257"><ele>163.5</ele><time>2026-04-03T06:47:01.999Z</time></trkpt><trkpt lat="45.579067604508055" lon="9.342929664384025"><ele>161.0</ele><time>2026-04-03T06:47:02.999Z</time></trkpt><trkpt lat="45.578829536863466" lon="9.342825081028424"><ele>162.0</ele><time>2026-04-03T06:47:03.999Z</time></trkpt><trkpt lat="45.578592334671875" lon="9.342720238538497"><ele>163.0</ele><time>2026-04-03T06:47:04.999Z</time></trkpt><trkpt lat="45.57835763536853" lon="9.342615623044619"><ele>163.0</ele><time>2026-04-03T06:47:05.999Z</time></trkpt><trkpt lat="45.57812309910251" lon="9.342512587223442"><ele>163.0</ele><time>2026-04-03T06:47:06.999Z</time></trkpt><trkpt lat="45.57788858724678" lon="9.342406189123801"><ele>163.5</ele><time>2026-04-03T06:47:07.999Z</time></trkpt><trkpt lat="45.57765294933534" lon="9.342298467144435"><ele>164.0</ele><time>2026-04-03T06:47:08.999Z</time></trkpt><trkpt lat="45.57741804761245" lon="9.342182493087316"><ele>164.0</ele><time>2026-04-03T06:47:09.999Z</time></trkpt><trkpt lat="45.577185504656526" lon="9.342066774306135"><ele>164.0</ele><time>2026-04-03T06:47:10.999Z</time></trkpt><trkpt lat="45.576952471860125" lon="9.341955133356674"><ele>164.0</ele><time>2026-04-03T06:47:11.999Z</time></trkpt><trkpt lat="45.576723358466964" lon="9.3418485325927"><ele>164.0</ele><time>2026-04-03T06:47:12.999Z</time></trkpt><trkpt lat="45.576493501039316" lon="9.341745163649987"><ele>164.0</ele><time>2026-04-03T06:47:13.999Z</time></trkpt><trkpt lat="45.576265218280845" lon="9.341640069210536"><ele>164.0</ele><time>2026-04-03T06:47:14.999Z</time></trkpt><trkpt lat="45.5760396861753" lon="9.341532196955649"><ele>163.0</ele><time>2026-04-03T06:47:15.999Z</time></trkpt><trkpt lat="45.57581386131619" lon="9.341423974267425"><ele>162.0</ele><time>2026-04-03T06:47:16.999Z</time></trkpt><trkpt lat="45.575590210366656" lon="9.341313837814154"><ele>162.0</ele><time>2026-04-03T06:47:17.999Z</time></trkpt><trkpt lat="45.57536402207985" lon="9.341204119717016"><ele>162.0</ele><time>2026-04-03T06:47:18.998Z</time></trkpt><trkpt lat="45.57513401959238" lon="9.341091990302997"><ele>161.0</ele><time>2026-04-03T06:47:19.998Z</time></trkpt><trkpt lat="45.57490569693453" lon="9.340975896548303"><ele>160.0</ele><time>2026-04-03T06:47:20.998Z</time></trkpt><trkpt lat="45.574676548403275" lon="9.340853269930045"><ele>160.0</ele><time>2026-04-03T06:47:21.998Z</time></trkpt><trkpt lat="45.57444086205323" lon="9.340728740827858"><ele>160.0</ele><time>2026-04-03T06:47:22.998Z</time></trkpt><trkpt lat="45.574204749796806" lon="9.34060361219734"><ele>161.0</ele><time>2026-04-03T06:47:23.998Z</time></trkpt><trkpt lat="45.57396761213904" lon="9.340476267544132"><ele>162.0</ele><time>2026-04-03T06:47:24.998Z</time></trkpt><trkpt lat="45.573732734628685" lon="9.340342711397557"><ele>162.0</ele><time>2026-04-03T06:47:25.998Z</time></trkpt><trkpt lat="45.573494095988636" lon="9.340205514734457"><ele>162.0</ele><time>2026-04-03T06:47:26.998Z</time></trkpt><trkpt lat="45.573257646752666" lon="9.340064575261183"><ele>162.0</ele><time>2026-04-03T06:47:27.998Z</time></trkpt><trkpt lat="45.573019250451644" lon="9.339926702971027"><ele>162.0</ele><time>2026-04-03T06:47:28.998Z</time></trkpt><trkpt lat="45.57278089822084" lon="9.339788974946078"><ele>161.0</ele><time>2026-04-03T06:47:29.998Z</time></trkpt><trkpt lat="45.57254244643621" lon="9.339646048806133"><ele>160.0</ele><time>2026-04-03T06:47:30.998Z</time></trkpt><trkpt lat="45.572304654652214" lon="9.339496136159054"><ele>160.0</ele><time>2026-04-03T06:47:31.998Z</time></trkpt><trkpt lat="45.57206258044977" lon="9.339341270223596"><ele>160.0</ele><time>2026-04-03T06:47:32.998Z</time></trkpt><trkpt lat="45.571820526781615" lon="9.3391905980596"><ele>159.0</ele><time>2026-04-03T06:47:33.998Z</time></trkpt><trkpt lat="45.57157603250627" lon="9.33903983547083"><ele>158.0</ele><time>2026-04-03T06:47:34.998Z</time></trkpt><trkpt lat="45.571330707328286" lon="9.338886672832547"><ele>157.0</ele><time>2026-04-03T06:47:36Z</time></trkpt><trkpt lat="45.571084857878624" lon="9.338733609167926"><ele>156.0</ele><time>2026-04-03T06:47:37Z</time></trkpt><trkpt lat="45.5708379802949" lon="9.338579442166967"><ele>156.0</ele><time>2026-04-03T06:47:38Z</time></trkpt><trkpt lat="45.570592212838214" lon="9.338426640003355"><ele>156.0</ele><time>2026-04-03T06:47:39Z</time></trkpt><trkpt lat="45.570347069437766" lon="9.33826789370628"><ele>155.5</ele><time>2026-04-03T06:47:40Z</time></trkpt><trkpt lat="45.570103670524205" lon="9.338105976470256"><ele>155.0</ele><time>2026-04-03T06:47:41Z</time></trkpt><trkpt lat="45.569861441446236" lon="9.337942599905087"><ele>156.5</ele><time>2026-04-03T06:47:42Z</time></trkpt><trkpt lat="45.56961629220656" lon="9.337781718702491"><ele>158.0</ele><time>2026-04-03T06:47:43Z</time></trkpt><trkpt lat="45.56936893036522" lon="9.337624187164533"><ele>158.0</ele><time>2026-04-03T06:47:44Z</time></trkpt><trkpt lat="45.569116689019204" lon="9.337479713626294"><ele>158.0</ele><time>2026-04-03T06:47:45Z</time></trkpt><trkpt lat="45.56886582449012" lon="9.33733883155565"><ele>157.5</ele><time>2026-04-03T06:47:46Z</time></trkpt><trkpt lat="45.56861342550393" lon="9.337201933193393"><ele>157.0</ele><time>2026-04-03T06:47:47Z</time></trkpt><trkpt lat="45.56836138580992" lon="9.337069564215634"><ele>157.0</ele><time>2026-04-03T06:47:48Z</time></trkpt><trkpt lat="45.56811063455151" lon="9.336940068043814"><ele>157.0</ele><time>2026-04-03T06:47:49Z</time></trkpt><trkpt lat="45.56785496498827" lon="9.336815111487295"><ele>157.0</ele><time>2026-04-03T06:47:50Z</time></trkpt><trkpt lat="45.56759942199784" lon="9.336693609527318"><ele>157.0</ele><time>2026-04-03T06:47:51Z</time></trkpt><trkpt lat="45.56734568303332" lon="9.336574600242935"><ele>157.0</ele><time>2026-04-03T06:47:52Z</time></trkpt><trkpt lat="45.567087198804195" lon="9.336453286533896"><ele>157.0</ele><time>2026-04-03T06:47:52.999Z</time></trkpt><trkpt lat="45.56683077703747" lon="9.33633953968373"><ele>157.5</ele><time>2026-04-03T06:47:53.999Z</time></trkpt><trkpt lat="45.566575854112706" lon="9.336227548091237"><ele>158.0</ele><time>2026-04-03T06:47:54.999Z</time></trkpt><trkpt lat="45.56632369646439" lon="9.33610928541756"><ele>158.5</ele><time>2026-04-03T06:47:55.999Z</time></trkpt><trkpt lat="45.56608335695829" lon="9.335989477008084"><ele>159.0</ele><time>2026-04-03T06:47:56.999Z</time></trkpt><trkpt lat="45.56583335535205" lon="9.33585330702401"><ele>159.0</ele><time>2026-04-03T06:47:57.999Z</time></trkpt><trkpt lat="45.56558774114764" lon="9.335711059218577"><ele>159.0</ele><time>2026-04-03T06:47:58.999Z</time></trkpt><trkpt lat="45.56534855736799" lon="9.335554276603565"><ele>159.0</ele><time>2026-04-03T06:47:59.999Z</time></trkpt><trkpt lat="45.5651105208498" lon="9.335387288626023"><ele>159.0</ele><time>2026-04-03T06:48:00.999Z</time></trkpt><trkpt lat="45.564877321475166" lon="9.335205137044275"><ele>159.0</ele><time>2026-04-03T06:48:01.999Z</time></trkpt><trkpt lat="45.56464876526136" lon="9.335020671577462"><ele>159.0</ele><time>2026-04-03T06:48:02.999Z</time></trkpt><trkpt lat="45.56442634808592" lon="9.334833949531921"><ele>158.0</ele><time>2026-04-03T06:48:03.999Z</time></trkpt><trkpt lat="45.56421076498061" lon="9.334660064636621"><ele>157.0</ele><time>2026-04-03T06:48:04.999Z</time></trkpt><trkpt lat="45.56400806000489" lon="9.334504673661169"><ele>157.0</ele><time>2026-04-03T06:48:05.999Z</time></trkpt><trkpt lat="45.56380819041429" lon="9.334365352266722"><ele>157.0</ele><time>2026-04-03T06:48:06.999Z</time></trkpt><trkpt lat="45.56361590733351" lon="9.334240745188508"><ele>157.0</ele><time>2026-04-03T06:48:07.999Z</time></trkpt><trkpt lat="45.563436707151915" lon="9.33412366672304"><ele>156.33333333333334</ele><time>2026-04-03T06:48:08.999Z</time></trkpt><trkpt lat="45.56326771475983" lon="9.334002038957411"><ele>155.66666666666666</ele><time>2026-04-03T06:48:09.999Z</time></trkpt><trkpt lat="45.56311035063208" lon="9.333869339003689"><ele>155.0</ele><time>2026-04-03T06:48:10.999Z</time></trkpt><trkpt lat="45.56296512819639" lon="9.333725127334683"><ele>155.33333333333331</ele><time>2026-04-03T06:48:11.999Z</time></trkpt><trkpt lat="45.562831898570984" lon="9.33357628738027"><ele>155.66666666666666</ele><time>2026-04-03T06:48:12.999Z</time></trkpt><trkpt lat="45.56270475933734" lon="9.333439069697928"><ele>156.0</ele><time>2026-04-03T06:48:13.999Z</time></trkpt><trkpt lat="45.56258032833947" lon="9.333322294545518"><ele>156.0</ele><time>2026-04-03T06:48:14.999Z</time></trkpt><trkpt lat="45.56246265802387" lon="9.33322505887206"><ele>156.0</ele><time>2026-04-03T06:48:15.999Z</time></trkpt><trkpt lat="45.562347953512855" lon="9.333137213272487"><ele>156.0</ele><time>2026-04-03T06:48:16.999Z</time></trkpt><trkpt lat="45.56223908662762" lon="9.333064520059356"><ele>156.0</ele><time>2026-04-03T06:48:17.999Z</time></trkpt><trkpt lat="45.56213229752681" lon="9.333000493081618"><ele>156.0</ele><time>2026-04-03T06:48:18.999Z</time></trkpt><trkpt lat="45.56203499107609" lon="9.332945758855528"><ele>156.0</ele><time>2026-04-03T06:48:19.999Z</time></trkpt><trkpt lat="45.56194788923616" lon="9.332893546151581"><ele>156.0</ele><time>2026-04-03T06:48:20.999Z</time></trkpt><trkpt lat="45.56187385018832" lon="9.332847950729672"><ele>156.0</ele><time>2026-04-03T06:48:21.999Z</time></trkpt><trkpt lat="45.561807111745566" lon="9.33281030129857"><ele>156.0</ele><time>2026-04-03T06:48:22.999Z</time></trkpt><trkpt lat="45.56170446487901" lon="9.332729208649333"><ele>155.6</ele><time>2026-04-03T06:48:24.999Z</time></trkpt><trkpt lat="45.56161525452734" lon="9.332677644197071"><ele>155.2</ele><time>2026-04-03T06:48:26.999Z</time></trkpt><trkpt lat="45.56148469123112" lon="9.332622460626768"><ele>154.8</ele><time>2026-04-03T06:48:28.999Z</time></trkpt><trkpt lat="45.56139176886527" lon="9.33257463576316"><ele>154.4</ele><time>2026-04-03T06:48:29.999Z</time></trkpt><trkpt lat="45.561293266887816" lon="9.332531839348846"><ele>154.0</ele><time>2026-04-03T06:48:30.999Z</time></trkpt><trkpt lat="45.56118660058648" lon="9.332486305436088"><ele>153.25</ele><time>2026-04-03T06:48:31.999Z</time></trkpt><trkpt lat="45.56106175131609" lon="9.332446736343387"><ele>152.5</ele><time>2026-04-03T06:48:32.999Z</time></trkpt><trkpt lat="45.56092272130899" lon="9.33241329299889"><ele>151.75</ele><time>2026-04-03T06:48:33.999Z</time></trkpt><trkpt lat="45.56077977987515" lon="9.332388985063695"><ele>151.0</ele><time>2026-04-03T06:48:34.999Z</time></trkpt><trkpt lat="45.5606329046003" lon="9.33236719396859"><ele>151.0</ele><time>2026-04-03T06:48:35.999Z</time></trkpt><trkpt lat="45.560479179051676" lon="9.332343536702549"><ele>151.0</ele><time>2026-04-03T06:48:36.999Z</time></trkpt><trkpt lat="45.560317029731706" lon="9.332314381466562"><ele>151.0</ele><time>2026-04-03T06:48:37.999Z</time></trkpt><trkpt lat="45.560145212911294" lon="9.33230017293277"><ele>150.66666666666669</ele><time>2026-04-03T06:48:38.999Z</time></trkpt><trkpt lat="45.55998657028892" lon="9.332209665415997"><ele>150.33333333333334</ele><time>2026-04-03T06:48:39.999Z</time></trkpt><trkpt lat="45.55982002244122" lon="9.33213657868531"><ele>150.0</ele><time>2026-04-03T06:48:40.999Z</time></trkpt><trkpt lat="45.55965040086479" lon="9.332047627860513"><ele>149.66666666666666</ele><time>2026-04-03T06:48:41.999Z</time></trkpt><trkpt lat="45.559476884348484" lon="9.331951459565307"><ele>149.33333333333331</ele><time>2026-04-03T06:48:42.999Z</time></trkpt><trkpt lat="45.55929920510862" lon="9.331854428483371"><ele>149.0</ele><time>2026-04-03T06:48:43.999Z</time></trkpt><trkpt lat="45.55911968723627" lon="9.331756751914531"><ele>149.0</ele><time>2026-04-03T06:48:44.999Z</time></trkpt><trkpt lat="45.558940866880256" lon="9.33165585277174"><ele>149.0</ele><time>2026-04-03T06:48:45.999Z</time></trkpt><trkpt lat="45.55875913272063" lon="9.331550451715083"><ele>149.0</ele><time>2026-04-03T06:48:46.999Z</time></trkpt><trkpt lat="45.55857549821987" lon="9.33144516573203"><ele>150.0</ele><time>2026-04-03T06:48:47.999Z</time></trkpt><trkpt lat="45.55838934265375" lon="9.331335284051754"><ele>151.0</ele><time>2026-04-03T06:48:48.999Z</time></trkpt><trkpt lat="45.55819813694011" lon="9.331223973165173"><ele>152.0</ele><time>2026-04-03T06:48:49.999Z</time></trkpt><trkpt lat="45.558004065623344" lon="9.331111760173274"><ele>152.0</ele><time>2026-04-03T06:48:50.999Z</time></trkpt><trkpt lat="45.55780608913981" lon="9.330998070409569"><ele>152.0</ele><time>2026-04-03T06:48:51.999Z</time></trkpt><trkpt lat="45.55760573646468" lon="9.330882850109289"><ele>152.0</ele><time>2026-04-03T06:48:52.999Z</time></trkpt><trkpt lat="45.55740435593068" lon="9.330766226762734"><ele>152.0</ele><time>2026-04-03T06:48:53.999Z</time></trkpt><trkpt lat="45.5571998680983" lon="9.330647395525077"><ele>152.0</ele><time>2026-04-03T06:48:54.999Z</time></trkpt><trkpt lat="45.55699462673472" lon="9.330527393380137"><ele>152.0</ele><time>2026-04-03T06:48:55.999Z</time></trkpt><trkpt lat="45.556788826463446" lon="9.330405284002"><ele>151.0</ele><time>2026-04-03T06:48:56.999Z</time></trkpt><trkpt lat="45.556580537595416" lon="9.33028153595393"><ele>150.0</ele><time>2026-04-03T06:48:57.999Z</time></trkpt><trkpt lat="45.55637134779864" lon="9.330157166324366"><ele>148.5</ele><time>2026-04-03T06:48:58.999Z</time></trkpt><trkpt lat="45.55616054457848" lon="9.330033243968897"><ele>147.0</ele><time>2026-04-03T06:48:59.999Z</time></trkpt><trkpt lat="45.55594908624765" lon="9.329910340883334"><ele>147.0</ele><time>2026-04-03T06:49:00.999Z</time></trkpt><trkpt lat="45.55573899134711" lon="9.329787279728336"><ele>147.0</ele><time>2026-04-03T06:49:01.999Z</time></trkpt><trkpt lat="45.555528345369375" lon="9.329663493016659"><ele>148.0</ele><time>2026-04-03T06:49:02.999Z</time></trkpt><trkpt lat="45.55531624076046" lon="9.329540710896348"><ele>149.0</ele><time>2026-04-03T06:49:03.999Z</time></trkpt><trkpt lat="45.55510431289459" lon="9.32941636661149"><ele>149.0</ele><time>2026-04-03T06:49:04.999Z</time></trkpt><trkpt lat="45.55489222566358" lon="9.329294339979603"><ele>149.0</ele><time>2026-04-03T06:49:05.999Z</time></trkpt><trkpt lat="45.5546806513035" lon="9.329171797971256"><ele>148.0</ele><time>2026-04-03T06:49:06.999Z</time></trkpt><trkpt lat="45.554468663388896" lon="9.329049389259799"><ele>147.0</ele><time>2026-04-03T06:49:08Z</time></trkpt><trkpt lat="45.55426041905523" lon="9.328926293232936"><ele>145.5</ele><time>2026-04-03T06:49:09Z</time></trkpt><trkpt lat="45.55404757331876" lon="9.328803178228458"><ele>144.0</ele><time>2026-04-03T06:49:10Z</time></trkpt><trkpt lat="45.55384072789083" lon="9.32867812550774"><ele>143.5</ele><time>2026-04-03T06:49:11Z</time></trkpt><trkpt lat="45.55362829171931" lon="9.328551765203551"><ele>143.0</ele><time>2026-04-03T06:49:12Z</time></trkpt><trkpt lat="45.553420331966564" lon="9.328428429569207"><ele>143.0</ele><time>2026-04-03T06:49:13Z</time></trkpt><trkpt lat="45.553207427058055" lon="9.328304853182193"><ele>143.0</ele><time>2026-04-03T06:49:14Z</time></trkpt><trkpt lat="45.55299477261214" lon="9.32818298014875"><ele>142.5</ele><time>2026-04-03T06:49:15Z</time></trkpt><trkpt lat="45.55277627799102" lon="9.32805663132411"><ele>142.0</ele><time>2026-04-03T06:49:16Z</time></trkpt><trkpt lat="45.55255812139574" lon="9.327931845297167"><ele>142.0</ele><time>2026-04-03T06:49:17Z</time></trkpt><trkpt lat="45.55233704959897" lon="9.327808029700154"><ele>142.0</ele><time>2026-04-03T06:49:18Z</time></trkpt><trkpt lat="45.55210876856182" lon="9.32768902247368"><ele>143.0</ele><time>2026-04-03T06:49:19Z</time></trkpt><trkpt lat="45.55187433984563" lon="9.327572155110738"><ele>144.0</ele><time>2026-04-03T06:49:20Z</time></trkpt><trkpt lat="45.551633092258605" lon="9.327441367006122"><ele>144.0</ele><time>2026-04-03T06:49:21Z</time></trkpt><trkpt lat="45.5513927603312" lon="9.327300337981226"><ele>144.0</ele><time>2026-04-03T06:49:22Z</time></trkpt><trkpt lat="45.55115380474788" lon="9.327154352463857"><ele>143.0</ele><time>2026-04-03T06:49:23Z</time></trkpt><trkpt lat="45.55090985840271" lon="9.327011399446725"><ele>142.0</ele><time>2026-04-03T06:49:24Z</time></trkpt><trkpt lat="45.55066500458566" lon="9.326868758338147"><ele>142.0</ele><time>2026-04-03T06:49:24.999Z</time></trkpt><trkpt lat="45.55042035569028" lon="9.326724014986313"><ele>142.0</ele><time>2026-04-03T06:49:25.999Z</time></trkpt><trkpt lat="45.55017403980894" lon="9.326576377606797"><ele>143.0</ele><time>2026-04-03T06:49:26.999Z</time></trkpt><trkpt lat="45.549927437769554" lon="9.326430944246777"><ele>144.0</ele><time>2026-04-03T06:49:27.999Z</time></trkpt><trkpt lat="45.54968094513409" lon="9.326283958824916"><ele>142.5</ele><time>2026-04-03T06:49:28.999Z</time></trkpt><trkpt lat="45.54943539041275" lon="9.326131156254283"><ele>141.0</ele><time>2026-04-03T06:49:29.999Z</time></trkpt><trkpt lat="45.549193573084196" lon="9.325966930476447"><ele>141.0</ele><time>2026-04-03T06:49:30.999Z</time></trkpt><trkpt lat="45.54895413270773" lon="9.325791699051482"><ele>141.0</ele><time>2026-04-03T06:49:31.999Z</time></trkpt><trkpt lat="45.54871983531384" lon="9.325605851996281"><ele>143.0</ele><time>2026-04-03T06:49:32.999Z</time></trkpt><trkpt lat="45.548488986718276" lon="9.325408689182002"><ele>145.0</ele><time>2026-04-03T06:49:33.999Z</time></trkpt><trkpt lat="45.54826130495119" lon="9.325203402159746"><ele>145.0</ele><time>2026-04-03T06:49:34.999Z</time></trkpt><trkpt lat="45.54803943897882" lon="9.324986636296277"><ele>145.0</ele><time>2026-04-03T06:49:35.999Z</time></trkpt><trkpt lat="45.54782393453026" lon="9.324764147619867"><ele>144.0</ele><time>2026-04-03T06:49:36.999Z</time></trkpt><trkpt lat="45.54760828992762" lon="9.324524627677391"><ele>143.0</ele><time>2026-04-03T06:49:37.999Z</time></trkpt><trkpt lat="45.54740322090278" lon="9.324277237248598"><ele>143.0</ele><time>2026-04-03T06:49:38.999Z</time></trkpt><trkpt lat="45.54720865646614" lon="9.324021568118468"><ele>143.0</ele><time>2026-04-03T06:49:39.999Z</time></trkpt><trkpt lat="45.54702291789307" lon="9.323758202275448"><ele>142.5</ele><time>2026-04-03T06:49:41.001Z</time></trkpt><trkpt lat="45.54684374138107" lon="9.323485077152279"><ele>142.0</ele><time>2026-04-03T06:49:42.001Z</time></trkpt><trkpt lat="45.54667587532672" lon="9.323204964601388"><ele>142.5</ele><time>2026-04-03T06:49:43Z</time></trkpt><trkpt lat="45.54650603229889" lon="9.322916948528947"><ele>143.0</ele><time>2026-04-03T06:49:44.001Z</time></trkpt><trkpt lat="45.54634630726462" lon="9.322625875776824"><ele>142.0</ele><time>2026-04-03T06:49:45.001Z</time></trkpt><trkpt lat="45.5461918271561" lon="9.32232789546736"><ele>141.0</ele><time>2026-04-03T06:49:46Z</time></trkpt><trkpt lat="45.546044852806595" lon="9.322022687209875"><ele>141.0</ele><time>2026-04-03T06:49:47.001Z</time></trkpt><trkpt lat="45.54590580657982" lon="9.321709213165777"><ele>141.0</ele><time>2026-04-03T06:49:48.001Z</time></trkpt><trkpt lat="45.54577331825283" lon="9.32139193892436"><ele>140.5</ele><time>2026-04-03T06:49:49Z</time></trkpt><trkpt lat="45.545644690002945" lon="9.321072113401916"><ele>140.0</ele><time>2026-04-03T06:49:50Z</time></trkpt><trkpt lat="45.54551831636218" lon="9.32074905081928"><ele>140.5</ele><time>2026-04-03T06:49:51.001Z</time></trkpt><trkpt lat="45.545393723580126" lon="9.320426194567448"><ele>141.0</ele><time>2026-04-03T06:49:52Z</time></trkpt><trkpt lat="45.545267898858185" lon="9.32010501611462"><ele>141.0</ele><time>2026-04-03T06:49:53Z</time></trkpt><trkpt lat="45.5451373312769" lon="9.31978407626366"><ele>141.0</ele><time>2026-04-03T06:49:54Z</time></trkpt><trkpt lat="45.54499814042002" lon="9.31946617464111"><ele>141.0</ele><time>2026-04-03T06:49:55Z</time></trkpt><trkpt lat="45.544848948761334" lon="9.319157900332346"><ele>141.0</ele><time>2026-04-03T06:49:56Z</time></trkpt><trkpt lat="45.544689891727586" lon="9.318858022679946"><ele>140.5</ele><time>2026-04-03T06:49:57Z</time></trkpt><trkpt lat="45.54451720427071" lon="9.318572205857974"><ele>140.0</ele><time>2026-04-03T06:49:58Z</time></trkpt><trkpt lat="45.54433534102891" lon="9.318300007427458"><ele>140.0</ele><time>2026-04-03T06:49:59Z</time></trkpt><trkpt lat="45.54413811184222" lon="9.31804409879869"><ele>140.0</ele><time>2026-04-03T06:50:00Z</time></trkpt><trkpt lat="45.54392938952207" lon="9.317808800229075"><ele>140.0</ele><time>2026-04-03T06:50:01Z</time></trkpt><trkpt lat="45.54371417774413" lon="9.317584789544878"><ele>140.0</ele><time>2026-04-03T06:50:02Z</time></trkpt><trkpt lat="45.54348720905694" lon="9.317378312456668"><ele>140.5</ele><time>2026-04-03T06:50:03Z</time></trkpt><trkpt lat="45.54325401388305" lon="9.317195101521122"><ele>141.0</ele><time>2026-04-03T06:50:04Z</time></trkpt><trkpt lat="45.54301203153985" lon="9.317030903195851"><ele>140.5</ele><time>2026-04-03T06:50:05Z</time></trkpt><trkpt lat="45.542768061395606" lon="9.316871052767375"><ele>140.0</ele><time>2026-04-03T06:50:06Z</time></trkpt><trkpt lat="45.54252353951345" lon="9.316711334439512"><ele>140.0</ele><time>2026-04-03T06:50:07Z</time></trkpt><trkpt lat="45.54228117238276" lon="9.31654970981449"><ele>140.0</ele><time>2026-04-03T06:50:08Z</time></trkpt><trkpt lat="45.5420394812823" lon="9.316389148898148"><ele>138.5</ele><time>2026-04-03T06:50:09Z</time></trkpt><trkpt lat="45.541797607484526" lon="9.31623012959633"><ele>137.0</ele><time>2026-04-03T06:50:10Z</time></trkpt><trkpt lat="45.54155509736873" lon="9.31606522016631"><ele>137.0</ele><time>2026-04-03T06:50:11Z</time></trkpt><trkpt lat="45.54131728883743" lon="9.31589266744256"><ele>137.0</ele><time>2026-04-03T06:50:12Z</time></trkpt><trkpt lat="45.54108372350289" lon="9.315701259222717"><ele>137.5</ele><time>2026-04-03T06:50:13Z</time></trkpt><trkpt lat="45.54086191052573" lon="9.315491308399313"><ele>138.0</ele><time>2026-04-03T06:50:14Z</time></trkpt><trkpt lat="45.54064775635598" lon="9.315263112408365"><ele>138.0</ele><time>2026-04-03T06:50:15Z</time></trkpt><trkpt lat="45.540446137155264" lon="9.315016661962737"><ele>138.0</ele><time>2026-04-03T06:50:16Z</time></trkpt><trkpt lat="45.540253884168486" lon="9.314751797195132"><ele>136.5</ele><time>2026-04-03T06:50:17Z</time></trkpt><trkpt lat="45.54007193270989" lon="9.314475634150547"><ele>135.0</ele><time>2026-04-03T06:50:18Z</time></trkpt><trkpt lat="45.53990442498209" lon="9.314179711948515"><ele>135.5</ele><time>2026-04-03T06:50:19Z</time></trkpt><trkpt lat="45.53974666554994" lon="9.313877023396591"><ele>136.0</ele><time>2026-04-03T06:50:20Z</time></trkpt><trkpt lat="45.53960170072576" lon="9.31356103130955"><ele>136.5</ele><time>2026-04-03T06:50:21Z</time></trkpt><trkpt lat="45.539468320964524" lon="9.313234721145065"><ele>137.0</ele><time>2026-04-03T06:50:22Z</time></trkpt><trkpt lat="45.53935471402858" lon="9.31289377567142"><ele>136.0</ele><time>2026-04-03T06:50:23Z</time></trkpt><trkpt lat="45.53925988419798" lon="9.312542145746667"><ele>135.0</ele><time>2026-04-03T06:50:24Z</time></trkpt><trkpt lat="45.539182000836796" lon="9.312182587708994"><ele>134.5</ele><time>2026-04-03T06:50:25Z</time></trkpt><trkpt lat="45.539115056890225" lon="9.311819421421998"><ele>134.0</ele><time>2026-04-03T06:50:26Z</time></trkpt><trkpt lat="45.53905857019211" lon="9.31145423717504"><ele>134.5</ele><time>2026-04-03T06:50:27Z</time></trkpt><trkpt lat="45.53901314958061" lon="9.311083540488957"><ele>135.0</ele><time>2026-04-03T06:50:28Z</time></trkpt><trkpt lat="45.53897315653067" lon="9.310707414916337"><ele>136.0</ele><time>2026-04-03T06:50:29Z</time></trkpt><trkpt lat="45.53893599507447" lon="9.310330037525862"><ele>137.0</ele><time>2026-04-03T06:50:30Z</time></trkpt><trkpt lat="45.53889533096311" lon="9.309955952607202"><ele>137.0</ele><time>2026-04-03T06:50:31Z</time></trkpt><trkpt lat="45.538853068283544" lon="9.309578887831577"><ele>137.0</ele><time>2026-04-03T06:50:32Z</time></trkpt><trkpt lat="45.53881122351481" lon="9.309204872900505"><ele>137.5</ele><time>2026-04-03T06:50:33Z</time></trkpt><trkpt lat="45.53877089471278" lon="9.308829741864852"><ele>138.0</ele><time>2026-04-03T06:50:34Z</time></trkpt><trkpt lat="45.53873227458967" lon="9.308457178498054"><ele>138.0</ele><time>2026-04-03T06:50:35Z</time></trkpt><trkpt lat="45.53869481067682" lon="9.308081204198151"><ele>138.0</ele><time>2026-04-03T06:50:36Z</time></trkpt><trkpt lat="45.538655073573025" lon="9.307705194430083"><ele>137.5</ele><time>2026-04-03T06:50:37Z</time></trkpt><trkpt lat="45.538613845435854" lon="9.307324950647828"><ele>137.0</ele><time>2026-04-03T06:50:38Z</time></trkpt><trkpt lat="45.538572736272855" lon="9.306943383599473"><ele>135.0</ele><time>2026-04-03T06:50:39Z</time></trkpt><trkpt lat="45.53853174140366" lon="9.306558852313922"><ele>133.0</ele><time>2026-04-03T06:50:40Z</time></trkpt><trkpt lat="45.53848966145821" lon="9.306172181290385"><ele>133.0</ele><time>2026-04-03T06:50:41Z</time></trkpt><trkpt lat="45.53844678190258" lon="9.305789323384127"><ele>133.0</ele><time>2026-04-03T06:50:42Z</time></trkpt><trkpt lat="45.53840508778104" lon="9.305405187578987"><ele>133.5</ele><time>2026-04-03T06:50:43Z</time></trkpt><trkpt lat="45.53836154297756" lon="9.305022290449413"><ele>134.0</ele><time>2026-04-03T06:50:44Z</time></trkpt><trkpt lat="45.538318875081124" lon="9.3046400895866"><ele>134.0</ele><time>2026-04-03T06:50:45Z</time></trkpt><trkpt lat="45.5382786685328" lon="9.30425661255729"><ele>134.0</ele><time>2026-04-03T06:50:46Z</time></trkpt><trkpt lat="45.53823793964371" lon="9.303878135651901"><ele>133.5</ele><time>2026-04-03T06:50:47Z</time></trkpt><trkpt lat="45.538192922972044" lon="9.303498521916469"><ele>133.0</ele><time>2026-04-03T06:50:48Z</time></trkpt><trkpt lat="45.53814514779259" lon="9.303118493579518"><ele>134.5</ele><time>2026-04-03T06:50:49Z</time></trkpt><trkpt lat="45.53809611130496" lon="9.302743055820137"><ele>136.0</ele><time>2026-04-03T06:50:50Z</time></trkpt><trkpt lat="45.53804791607101" lon="9.302361428763188"><ele>136.5</ele><time>2026-04-03T06:50:51Z</time></trkpt><trkpt lat="45.5380058671219" lon="9.301981577198626"><ele>137.0</ele><time>2026-04-03T06:50:52Z</time></trkpt><trkpt lat="45.53796451569237" lon="9.301598587200962"><ele>137.5</ele><time>2026-04-03T06:50:53Z</time></trkpt><trkpt lat="45.53792357823341" lon="9.301220891821469"><ele>138.0</ele><time>2026-04-03T06:50:54Z</time></trkpt><trkpt lat="45.537880972539746" lon="9.300841360654266"><ele>135.0</ele><time>2026-04-03T06:50:55Z</time></trkpt><trkpt lat="45.537840455995685" lon="9.300463295852477"><ele>132.0</ele><time>2026-04-03T06:50:56Z</time></trkpt><trkpt lat="45.5378005703044" lon="9.30008700583802"><ele>132.0</ele><time>2026-04-03T06:50:57Z</time></trkpt><trkpt lat="45.53776091265265" lon="9.299710679477176"><ele>132.0</ele><time>2026-04-03T06:50:58Z</time></trkpt><trkpt lat="45.53772011176166" lon="9.29933148552874"><ele>132.0</ele><time>2026-04-03T06:50:59Z</time></trkpt><trkpt lat="45.53767928401184" lon="9.29895729880175"><ele>132.0</ele><time>2026-04-03T06:51:00Z</time></trkpt><trkpt lat="45.53763753803086" lon="9.298577562420899"><ele>131.5</ele><time>2026-04-03T06:51:01Z</time></trkpt><trkpt lat="45.537596639619636" lon="9.298198709616106"><ele>131.0</ele><time>2026-04-03T06:51:02Z</time></trkpt><trkpt lat="45.53755644242421" lon="9.29782578514945"><ele>131.0</ele><time>2026-04-03T06:51:03Z</time></trkpt><trkpt lat="45.5375132227692" lon="9.297448189297173"><ele>131.0</ele><time>2026-04-03T06:51:04Z</time></trkpt><trkpt lat="45.53747121243971" lon="9.297070844036398"><ele>132.0</ele><time>2026-04-03T06:51:05Z</time></trkpt><trkpt lat="45.53743062432454" lon="9.296696396334873"><ele>133.0</ele><time>2026-04-03T06:51:06Z</time></trkpt><trkpt lat="45.5373906037941" lon="9.296322535478048"><ele>133.5</ele><time>2026-04-03T06:51:07Z</time></trkpt><trkpt lat="45.537350777631964" lon="9.295948645031865"><ele>134.0</ele><time>2026-04-03T06:51:08Z</time></trkpt><trkpt lat="45.53731103241553" lon="9.295574289404286"><ele>137.0</ele><time>2026-04-03T06:51:09Z</time></trkpt><trkpt lat="45.53727020540619" lon="9.295199425770633"><ele>140.0</ele><time>2026-04-03T06:51:10Z</time></trkpt><trkpt lat="45.53722896404122" lon="9.294822753410283"><ele>141.0</ele><time>2026-04-03T06:51:11Z</time></trkpt><trkpt lat="45.53718765417794" lon="9.294446740872681"><ele>142.0</ele><time>2026-04-03T06:51:12Z</time></trkpt><trkpt lat="45.53714677134273" lon="9.294070217174534"><ele>140.5</ele><time>2026-04-03T06:51:13Z</time></trkpt><trkpt lat="45.537106025354284" lon="9.29369372370517"><ele>139.0</ele><time>2026-04-03T06:51:14Z</time></trkpt><trkpt lat="45.53706699073285" lon="9.29331986188611"><ele>137.0</ele><time>2026-04-03T06:51:15Z</time></trkpt><trkpt lat="45.53702712247625" lon="9.29294329699024"><ele>135.0</ele><time>2026-04-03T06:51:16Z</time></trkpt><trkpt lat="45.536988147616476" lon="9.292567607150238"><ele>133.5</ele><time>2026-04-03T06:51:17Z</time></trkpt><trkpt lat="45.5369488604715" lon="9.292195642629324"><ele>132.0</ele><time>2026-04-03T06:51:18Z</time></trkpt><trkpt lat="45.53690824849606" lon="9.291821809239263"><ele>132.0</ele><time>2026-04-03T06:51:18.999Z</time></trkpt><trkpt lat="45.53687098363971" lon="9.291453774059418"><ele>132.0</ele><time>2026-04-03T06:51:19.999Z</time></trkpt><trkpt lat="45.53684828416342" lon="9.291085127912057"><ele>133.5</ele><time>2026-04-03T06:51:20.999Z</time></trkpt><trkpt lat="45.536845877789084" lon="9.29071748616116"><ele>135.0</ele><time>2026-04-03T06:51:21.999Z</time></trkpt><trkpt lat="45.53686515817544" lon="9.290352489157712"><ele>135.0</ele><time>2026-04-03T06:51:22.999Z</time></trkpt><trkpt lat="45.53690886589553" lon="9.289992692484123"><ele>135.0</ele><time>2026-04-03T06:51:23.999Z</time></trkpt><trkpt lat="45.53696641519121" lon="9.289633638239179"><ele>135.5</ele><time>2026-04-03T06:51:24.999Z</time></trkpt><trkpt lat="45.537040372974" lon="9.289283993260755"><ele>136.0</ele><time>2026-04-03T06:51:25.999Z</time></trkpt><trkpt lat="45.53713102779062" lon="9.288935634209903"><ele>135.5</ele><time>2026-04-03T06:51:26.999Z</time></trkpt><trkpt lat="45.53724262760187" lon="9.288610637705592"><ele>135.0</ele><time>2026-04-03T06:51:27.999Z</time></trkpt><trkpt lat="45.537366941174525" lon="9.288288151629855"><ele>135.5</ele><time>2026-04-03T06:51:28.999Z</time></trkpt><trkpt lat="45.53749252237866" lon="9.287968726497187"><ele>136.0</ele><time>2026-04-03T06:51:29.999Z</time></trkpt><trkpt lat="45.537624430788206" lon="9.287654726374853"><ele>136.0</ele><time>2026-04-03T06:51:30.999Z</time></trkpt><trkpt lat="45.537745230470144" lon="9.287333097965687"><ele>136.0</ele><time>2026-04-03T06:51:31.999Z</time></trkpt><trkpt lat="45.537849025047215" lon="9.28699968265559"><ele>136.5</ele><time>2026-04-03T06:51:32.999Z</time></trkpt><trkpt lat="45.53792515026268" lon="9.28665563832271"><ele>137.0</ele><time>2026-04-03T06:51:33.999Z</time></trkpt><trkpt lat="45.53797826605096" lon="9.286309579998564"><ele>137.0</ele><time>2026-04-03T06:51:34.999Z</time></trkpt><trkpt lat="45.53801060830944" lon="9.285957973756139"><ele>137.0</ele><time>2026-04-03T06:51:35.999Z</time></trkpt><trkpt lat="45.53801884757283" lon="9.285605263118152"><ele>136.5</ele><time>2026-04-03T06:51:36.999Z</time></trkpt><trkpt lat="45.53800673323405" lon="9.28524887152325"><ele>136.0</ele><time>2026-04-03T06:51:37.999Z</time></trkpt><trkpt lat="45.53797221694662" lon="9.284901177304494"><ele>136.5</ele><time>2026-04-03T06:51:38.999Z</time></trkpt><trkpt lat="45.537916887302146" lon="9.284565922767564"><ele>137.0</ele><time>2026-04-03T06:51:39.999Z</time></trkpt><trkpt lat="45.53783562155371" lon="9.284240166686578"><ele>138.0</ele><time>2026-04-03T06:51:40.999Z</time></trkpt><trkpt lat="45.53773738541016" lon="9.28392539596796"><ele>139.0</ele><time>2026-04-03T06:51:41.999Z</time></trkpt><trkpt lat="45.53762924146635" lon="9.28362085488951"><ele>139.0</ele><time>2026-04-03T06:51:42.999Z</time></trkpt><trkpt lat="45.53750280774196" lon="9.283325124030506"><ele>139.0</ele><time>2026-04-03T06:51:43.999Z</time></trkpt><trkpt lat="45.53735633813579" lon="9.28305366103047"><ele>139.0</ele><time>2026-04-03T06:51:44.999Z</time></trkpt><trkpt lat="45.53720331470345" lon="9.282784851561834"><ele>139.0</ele><time>2026-04-03T06:51:45.999Z</time></trkpt><trkpt lat="45.53705364389642" lon="9.282507863799905"><ele>138.5</ele><time>2026-04-03T06:51:47Z</time></trkpt><trkpt lat="45.5369103233562" lon="9.282226488526042"><ele>138.0</ele><time>2026-04-03T06:51:48Z</time></trkpt><trkpt lat="45.536764768992946" lon="9.28193974797802"><ele>138.0</ele><time>2026-04-03T06:51:49Z</time></trkpt><trkpt lat="45.53662029416817" lon="9.281654098794728"><ele>138.0</ele><time>2026-04-03T06:51:50Z</time></trkpt><trkpt lat="45.53647618468354" lon="9.281367732683817"><ele>138.0</ele><time>2026-04-03T06:51:51Z</time></trkpt><trkpt lat="45.536332167603014" lon="9.281081012020174"><ele>138.0</ele><time>2026-04-03T06:51:52Z</time></trkpt><trkpt lat="45.53618853487528" lon="9.280793803875234"><ele>137.5</ele><time>2026-04-03T06:51:53Z</time></trkpt><trkpt lat="45.53604789376558" lon="9.280504668393027"><ele>137.0</ele><time>2026-04-03T06:51:54Z</time></trkpt><trkpt lat="45.53590852686226" lon="9.28021748425467"><ele>137.0</ele><time>2026-04-03T06:51:55Z</time></trkpt><trkpt lat="45.53576691038005" lon="9.279926486594047"><ele>137.0</ele><time>2026-04-03T06:51:56Z</time></trkpt><trkpt lat="45.535623728896454" lon="9.279636582719723"><ele>136.5</ele><time>2026-04-03T06:51:57Z</time></trkpt><trkpt lat="45.5354802142263" lon="9.27934543352945"><ele>136.0</ele><time>2026-04-03T06:51:58Z</time></trkpt><trkpt lat="45.53533683544329" lon="9.279050017277807"><ele>136.5</ele><time>2026-04-03T06:51:59Z</time></trkpt><trkpt lat="45.535189189322764" lon="9.278747895975611"><ele>137.0</ele><time>2026-04-03T06:52:00Z</time></trkpt><trkpt lat="45.535042206979206" lon="9.278437194257737"><ele>137.0</ele><time>2026-04-03T06:52:01Z</time></trkpt><trkpt lat="45.534893426455" lon="9.27811980688012"><ele>137.0</ele><time>2026-04-03T06:52:02Z</time></trkpt><trkpt lat="45.53473925769774" lon="9.27779416981529"><ele>138.0</ele><time>2026-04-03T06:52:03Z</time></trkpt><trkpt lat="45.534585276444595" lon="9.27746384220207"><ele>139.0</ele><time>2026-04-03T06:52:04Z</time></trkpt><trkpt lat="45.534433350698485" lon="9.277132014142081"><ele>137.0</ele><time>2026-04-03T06:52:05Z</time></trkpt><trkpt lat="45.53427983026788" lon="9.276802517117604"><ele>135.0</ele><time>2026-04-03T06:52:06Z</time></trkpt><trkpt lat="45.53412292799729" lon="9.276469053228904"><ele>135.5</ele><time>2026-04-03T06:52:07Z</time></trkpt><trkpt lat="45.53396632531671" lon="9.276134114938877"><ele>136.0</ele><time>2026-04-03T06:52:08Z</time></trkpt><trkpt lat="45.533808157220825" lon="9.275796498341496"><ele>136.0</ele><time>2026-04-03T06:52:09Z</time></trkpt><trkpt lat="45.533652041416055" lon="9.275457136081082"><ele>136.0</ele><time>2026-04-03T06:52:10Z</time></trkpt><trkpt lat="45.533498937231386" lon="9.275116763261778"><ele>136.0</ele><time>2026-04-03T06:52:11Z</time></trkpt><trkpt lat="45.5333459224686" lon="9.274778628109276"><ele>136.0</ele><time>2026-04-03T06:52:12Z</time></trkpt><trkpt lat="45.533191562125054" lon="9.274439742897334"><ele>136.0</ele><time>2026-04-03T06:52:13Z</time></trkpt><trkpt lat="45.533033155049594" lon="9.2741047184596"><ele>136.0</ele><time>2026-04-03T06:52:14Z</time></trkpt><trkpt lat="45.53287405127637" lon="9.273767989202145"><ele>136.0</ele><time>2026-04-03T06:52:15Z</time></trkpt><trkpt lat="45.53271447966121" lon="9.27343306082857"><ele>136.0</ele><time>2026-04-03T06:52:16Z</time></trkpt><trkpt lat="45.532553043052324" lon="9.273099799634917"><ele>135.5</ele><time>2026-04-03T06:52:17Z</time></trkpt><trkpt lat="45.53238883470908" lon="9.27276415099466"><ele>135.0</ele><time>2026-04-03T06:52:18Z</time></trkpt><trkpt lat="45.5322252768551" lon="9.27242998979839"><ele>136.0</ele><time>2026-04-03T06:52:19Z</time></trkpt><trkpt lat="45.53206254854008" lon="9.272095735320303"><ele>137.0</ele><time>2026-04-03T06:52:20Z</time></trkpt><trkpt lat="45.53189659641819" lon="9.27176068346834"><ele>136.0</ele><time>2026-04-03T06:52:21Z</time></trkpt><trkpt lat="45.531729557592975" lon="9.271430367356258"><ele>135.0</ele><time>2026-04-03T06:52:22Z</time></trkpt><trkpt lat="45.531561737417555" lon="9.271101225455558"><ele>135.0</ele><time>2026-04-03T06:52:23Z</time></trkpt><trkpt lat="45.53139412936028" lon="9.270769760822256"><ele>135.0</ele><time>2026-04-03T06:52:24Z</time></trkpt><trkpt lat="45.53123038677881" lon="9.270439322122126"><ele>135.5</ele><time>2026-04-03T06:52:25Z</time></trkpt><trkpt lat="45.53107263913846" lon="9.270107674129937"><ele>136.0</ele><time>2026-04-03T06:52:26Z</time></trkpt><trkpt lat="45.53091311963283" lon="9.269771842220067"><ele>136.5</ele><time>2026-04-03T06:52:27Z</time></trkpt><trkpt lat="45.53075310274445" lon="9.269439789327652"><ele>137.0</ele><time>2026-04-03T06:52:28Z</time></trkpt><trkpt lat="45.53059265982455" lon="9.269110034199086"><ele>136.5</ele><time>2026-04-03T06:52:29Z</time></trkpt><trkpt lat="45.530432399800965" lon="9.268782504102552"><ele>136.0</ele><time>2026-04-03T06:52:30Z</time></trkpt><trkpt lat="45.53026916682704" lon="9.268461958292121"><ele>136.0</ele><time>2026-04-03T06:52:31Z</time></trkpt><trkpt lat="45.53009337316727" lon="9.268153082817435"><ele>136.0</ele><time>2026-04-03T06:52:32Z</time></trkpt><trkpt lat="45.5299041530959" lon="9.26787250958657"><ele>136.5</ele><time>2026-04-03T06:52:33Z</time></trkpt><trkpt lat="45.529704476844806" lon="9.267605946195305"><ele>137.0</ele><time>2026-04-03T06:52:34Z</time></trkpt><trkpt lat="45.52949590347088" lon="9.267360400027421"><ele>135.5</ele><time>2026-04-03T06:52:35Z</time></trkpt><trkpt lat="45.529279337055215" lon="9.267128780778718"><ele>134.0</ele><time>2026-04-03T06:52:36Z</time></trkpt><trkpt lat="45.529057496505786" lon="9.266918358198787"><ele>134.0</ele><time>2026-04-03T06:52:37Z</time></trkpt><trkpt lat="45.52882928225871" lon="9.266720746986131"><ele>134.0</ele><time>2026-04-03T06:52:38Z</time></trkpt><trkpt lat="45.528594906553806" lon="9.266532815247581"><ele>136.5</ele><time>2026-04-03T06:52:39Z</time></trkpt><trkpt lat="45.52836000938279" lon="9.266346249926501"><ele>139.0</ele><time>2026-04-03T06:52:40Z</time></trkpt><trkpt lat="45.52812781687196" lon="9.266162415914888"><ele>138.5</ele><time>2026-04-03T06:52:41Z</time></trkpt><trkpt lat="45.52789301828159" lon="9.265971221114638"><ele>138.0</ele><time>2026-04-03T06:52:42Z</time></trkpt><trkpt lat="45.527665289774056" lon="9.26576918933659"><ele>135.0</ele><time>2026-04-03T06:52:43Z</time></trkpt><trkpt lat="45.52744672089349" lon="9.265549596741922"><ele>132.0</ele><time>2026-04-03T06:52:44Z</time></trkpt><trkpt lat="45.52723647941271" lon="9.26531123160101"><ele>134.5</ele><time>2026-04-03T06:52:45Z</time></trkpt><trkpt lat="45.5270358670799" lon="9.265052217070808"><ele>137.0</ele><time>2026-04-03T06:52:46Z</time></trkpt><trkpt lat="45.52684779338715" lon="9.264774606420726"><ele>137.0</ele><time>2026-04-03T06:52:47Z</time></trkpt><trkpt lat="45.526674011679845" lon="9.264469367092664"><ele>137.0</ele><time>2026-04-03T06:52:48Z</time></trkpt><trkpt lat="45.52651926527506" lon="9.264148281525523"><ele>136.5</ele><time>2026-04-03T06:52:49Z</time></trkpt><trkpt lat="45.52638069880489" lon="9.263810921068306"><ele>136.0</ele><time>2026-04-03T06:52:50Z</time></trkpt><trkpt lat="45.52624944680159" lon="9.263459005440085"><ele>134.5</ele><time>2026-04-03T06:52:51Z</time></trkpt><trkpt lat="45.526124688451915" lon="9.263100612891247"><ele>133.0</ele><time>2026-04-03T06:52:52Z</time></trkpt><trkpt lat="45.52599548089893" lon="9.262745558108756"><ele>133.0</ele><time>2026-04-03T06:52:53Z</time></trkpt><trkpt lat="45.52585065317513" lon="9.262397731909287"><ele>133.0</ele><time>2026-04-03T06:52:54Z</time></trkpt><trkpt lat="45.52568118412551" lon="9.262075404427053"><ele>133.0</ele><time>2026-04-03T06:52:55Z</time></trkpt><trkpt lat="45.52549480677082" lon="9.261777638432282"><ele>133.0</ele><time>2026-04-03T06:52:56Z</time></trkpt><trkpt lat="45.525292893441275" lon="9.261502284816531"><ele>131.0</ele><time>2026-04-03T06:52:57Z</time></trkpt><trkpt lat="45.52507264005608" lon="9.261251683008897"><ele>129.0</ele><time>2026-04-03T06:52:58Z</time></trkpt><trkpt lat="45.52483904117538" lon="9.26103171436382"><ele>129.0</ele><time>2026-04-03T06:52:59Z</time></trkpt><trkpt lat="45.52459247917975" lon="9.26084628068064"><ele>129.0</ele><time>2026-04-03T06:53:00Z</time></trkpt><trkpt lat="45.52433791515415" lon="9.26067965241035"><ele>129.5</ele><time>2026-04-03T06:53:01Z</time></trkpt><trkpt lat="45.52407690685866" lon="9.260553802834348"><ele>130.0</ele><time>2026-04-03T06:53:02Z</time></trkpt><trkpt lat="45.52380766293755" lon="9.260456634096478"><ele>130.0</ele><time>2026-04-03T06:53:03Z</time></trkpt><trkpt lat="45.52353769866784" lon="9.260398544985273"><ele>130.0</ele><time>2026-04-03T06:53:04Z</time></trkpt><trkpt lat="45.52326300714647" lon="9.260373316231698"><ele>130.0</ele><time>2026-04-03T06:53:05Z</time></trkpt><trkpt lat="45.52299126441122" lon="9.260374970721687"><ele>130.0</ele><time>2026-04-03T06:53:06Z</time></trkpt><trkpt lat="45.52271925076886" lon="9.260411100107575"><ele>129.0</ele><time>2026-04-03T06:53:07Z</time></trkpt><trkpt lat="45.522451075063934" lon="9.260470174106093"><ele>128.0</ele><time>2026-04-03T06:53:08Z</time></trkpt><trkpt lat="45.52218691239377" lon="9.260552462165947"><ele>129.5</ele><time>2026-04-03T06:53:09Z</time></trkpt><trkpt lat="45.52192238779844" lon="9.26064407629079"><ele>131.0</ele><time>2026-04-03T06:53:10Z</time></trkpt><trkpt lat="45.521655801781826" lon="9.260731100547238"><ele>131.0</ele><time>2026-04-03T06:53:11Z</time></trkpt><trkpt lat="45.52138804013789" lon="9.260809536417977"><ele>131.0</ele><time>2026-04-03T06:53:12Z</time></trkpt><trkpt lat="45.52112148187889" lon="9.260892553484803"><ele>130.0</ele><time>2026-04-03T06:53:13Z</time></trkpt><trkpt lat="45.52085490818828" lon="9.260977378885231"><ele>129.0</ele><time>2026-04-03T06:53:14Z</time></trkpt><trkpt lat="45.52059199457579" lon="9.261054978361372"><ele>129.5</ele><time>2026-04-03T06:53:15Z</time></trkpt><trkpt lat="45.52032595712668" lon="9.261125689061702"><ele>130.0</ele><time>2026-04-03T06:53:16Z</time></trkpt><trkpt lat="45.52006204935708" lon="9.261189677047467"><ele>130.0</ele><time>2026-04-03T06:53:17Z</time></trkpt><trkpt lat="45.51979770078858" lon="9.261246079813581"><ele>130.0</ele><time>2026-04-03T06:53:18Z</time></trkpt><trkpt lat="45.51953345457119" lon="9.261293438536942"><ele>128.0</ele><time>2026-04-03T06:53:19Z</time></trkpt><trkpt lat="45.51926729742409" lon="9.261336203890934"><ele>126.0</ele><time>2026-04-03T06:53:20Z</time></trkpt><trkpt lat="45.51900255757803" lon="9.261376721325357"><ele>126.0</ele><time>2026-04-03T06:53:21Z</time></trkpt><trkpt lat="45.51873653001616" lon="9.261417085449196"><ele>126.0</ele><time>2026-04-03T06:53:22Z</time></trkpt><trkpt lat="45.51847072702002" lon="9.261457031086634"><ele>125.5</ele><time>2026-04-03T06:53:23Z</time></trkpt><trkpt lat="45.51820713273516" lon="9.261498497172077"><ele>125.0</ele><time>2026-04-03T06:53:24Z</time></trkpt><trkpt lat="45.517940551060995" lon="9.26153848123252"><ele>124.0</ele><time>2026-04-03T06:53:25Z</time></trkpt><trkpt lat="45.51767454415012" lon="9.26156834899336"><ele>123.0</ele><time>2026-04-03T06:53:26Z</time></trkpt><trkpt lat="45.51741003004326" lon="9.261580677496744"><ele>123.0</ele><time>2026-04-03T06:53:27Z</time></trkpt><trkpt lat="45.517150229365924" lon="9.261585574401114"><ele>123.0</ele><time>2026-04-03T06:53:28Z</time></trkpt><trkpt lat="45.5168908858341" lon="9.261587402337684"><ele>124.0</ele><time>2026-04-03T06:53:28.999Z</time></trkpt><trkpt lat="45.516634432243826" lon="9.261589830759409"><ele>125.0</ele><time>2026-04-03T06:53:29.999Z</time></trkpt><trkpt lat="45.516384136786" lon="9.26158222899548"><ele>126.5</ele><time>2026-04-03T06:53:30.999Z</time></trkpt><trkpt lat="45.51613323987701" lon="9.261561753905362"><ele>128.0</ele><time>2026-04-03T06:53:31.999Z</time></trkpt><trkpt lat="45.51588422420013" lon="9.2615368343523"><ele>128.0</ele><time>2026-04-03T06:53:32.999Z</time></trkpt><trkpt lat="45.51563501354043" lon="9.261511206703517"><ele>128.0</ele><time>2026-04-03T06:53:33.999Z</time></trkpt><trkpt lat="45.51538766504869" lon="9.261482726748362"><ele>128.5</ele><time>2026-04-03T06:53:34.999Z</time></trkpt><trkpt lat="45.515140326169686" lon="9.261453563595387"><ele>129.0</ele><time>2026-04-03T06:53:35.999Z</time></trkpt><trkpt lat="45.51489467456703" lon="9.261424701392365"><ele>128.5</ele><time>2026-04-03T06:53:36.999Z</time></trkpt><trkpt lat="45.514648637237" lon="9.261391522707395"><ele>128.0</ele><time>2026-04-03T06:53:37.999Z</time></trkpt><trkpt lat="45.51440492370279" lon="9.261358247616442"><ele>128.0</ele><time>2026-04-03T06:53:38.999Z</time></trkpt><trkpt lat="45.51415634118699" lon="9.261331960973628"><ele>128.0</ele><time>2026-04-03T06:53:39.999Z</time></trkpt><trkpt lat="45.51390560283418" lon="9.261315966432814"><ele>130.5</ele><time>2026-04-03T06:53:40.999Z</time></trkpt><trkpt lat="45.513653847221676" lon="9.2613161102014"><ele>133.0</ele><time>2026-04-03T06:53:41.999Z</time></trkpt><trkpt lat="45.5134010613956" lon="9.261325852251789"><ele>133.0</ele><time>2026-04-03T06:53:42.999Z</time></trkpt><trkpt lat="45.51314475753603" lon="9.26133430751368"><ele>133.0</ele><time>2026-04-03T06:53:43.999Z</time></trkpt><trkpt lat="45.512888463423316" lon="9.26134967550838"><ele>131.0</ele><time>2026-04-03T06:53:44.999Z</time></trkpt><trkpt lat="45.51263013689096" lon="9.261369109567003"><ele>129.0</ele><time>2026-04-03T06:53:45.999Z</time></trkpt><trkpt lat="45.512367210583356" lon="9.261387531473407"><ele>129.0</ele><time>2026-04-03T06:53:46.999Z</time></trkpt><trkpt lat="45.512107752144324" lon="9.26140335556196"><ele>129.0</ele><time>2026-04-03T06:53:47.999Z</time></trkpt><trkpt lat="45.511840179702965" lon="9.26142351241931"><ele>128.5</ele><time>2026-04-03T06:53:48.999Z</time></trkpt><trkpt lat="45.511573334775804" lon="9.261453296098246"><ele>128.0</ele><time>2026-04-03T06:53:49.999Z</time></trkpt><trkpt lat="45.5113051340555" lon="9.261504048820585"><ele>126.5</ele><time>2026-04-03T06:53:50.999Z</time></trkpt><trkpt lat="45.511038593417446" lon="9.261583131635144"><ele>125.0</ele><time>2026-04-03T06:53:51.999Z</time></trkpt><trkpt lat="45.51077245900018" lon="9.26168056808504"><ele>125.0</ele><time>2026-04-03T06:53:53Z</time></trkpt><trkpt lat="45.51051777861132" lon="9.261753164011626"><ele>125.0</ele><time>2026-04-03T06:53:54Z</time></trkpt><trkpt lat="45.51025633688605" lon="9.261805502430493"><ele>125.0</ele><time>2026-04-03T06:53:55Z</time></trkpt><trkpt lat="45.50999395935594" lon="9.261823330339023"><ele>125.0</ele><time>2026-04-03T06:53:56Z</time></trkpt><trkpt lat="45.5097308177911" lon="9.26180886600675"><ele>124.5</ele><time>2026-04-03T06:53:57Z</time></trkpt><trkpt lat="45.50946953484756" lon="9.261762830901098"><ele>124.0</ele><time>2026-04-03T06:53:58Z</time></trkpt><trkpt lat="45.509209621545615" lon="9.261696043093375"><ele>124.0</ele><time>2026-04-03T06:53:59Z</time></trkpt><trkpt lat="45.50895251381638" lon="9.261601837831694"><ele>124.0</ele><time>2026-04-03T06:54:00Z</time></trkpt><trkpt lat="45.508704563878446" lon="9.261480787427223"><ele>123.5</ele><time>2026-04-03T06:54:01Z</time></trkpt><trkpt lat="45.508461825187986" lon="9.261337911307274"><ele>123.0</ele><time>2026-04-03T06:54:02Z</time></trkpt><trkpt lat="45.50822573103755" lon="9.261177208138157"><ele>123.0</ele><time>2026-04-03T06:54:03Z</time></trkpt><trkpt lat="45.507995338200196" lon="9.260996201268297"><ele>123.0</ele><time>2026-04-03T06:54:04Z</time></trkpt><trkpt lat="45.507767958880365" lon="9.260806813614407"><ele>123.5</ele><time>2026-04-03T06:54:05Z</time></trkpt><trkpt lat="45.507540073447146" lon="9.260618301872302"><ele>124.0</ele><time>2026-04-03T06:54:06Z</time></trkpt><trkpt lat="45.50731053767457" lon="9.26043680901909"><ele>124.0</ele><time>2026-04-03T06:54:07Z</time></trkpt><trkpt lat="45.50707857370814" lon="9.260258329544797"><ele>124.0</ele><time>2026-04-03T06:54:08Z</time></trkpt><trkpt lat="45.50685160661026" lon="9.260079943441774"><ele>123.5</ele><time>2026-04-03T06:54:09Z</time></trkpt><trkpt lat="45.506622399145044" lon="9.259889838003863"><ele>123.0</ele><time>2026-04-03T06:54:10Z</time></trkpt><trkpt lat="45.506396865396" lon="9.259698991892387"><ele>122.0</ele><time>2026-04-03T06:54:11Z</time></trkpt><trkpt lat="45.506164808050215" lon="9.25951335022452"><ele>121.0</ele><time>2026-04-03T06:54:12Z</time></trkpt><trkpt lat="45.50593017939612" lon="9.259334643081333"><ele>121.0</ele><time>2026-04-03T06:54:13Z</time></trkpt><trkpt lat="45.50569641706699" lon="9.259156492183932"><ele>121.0</ele><time>2026-04-03T06:54:14Z</time></trkpt><trkpt lat="45.505462504771295" lon="9.258974654999701"><ele>122.0</ele><time>2026-04-03T06:54:15Z</time></trkpt><trkpt lat="45.505228969260614" lon="9.258793294361674"><ele>123.0</ele><time>2026-04-03T06:54:16Z</time></trkpt><trkpt lat="45.504993986460704" lon="9.258617256780767"><ele>123.0</ele><time>2026-04-03T06:54:17Z</time></trkpt><trkpt lat="45.504758915246484" lon="9.258446363406948"><ele>123.0</ele><time>2026-04-03T06:54:18Z</time></trkpt><trkpt lat="45.504524159714485" lon="9.258273801892528"><ele>121.0</ele><time>2026-04-03T06:54:19Z</time></trkpt><trkpt lat="45.50429100232018" lon="9.25809961398683"><ele>119.0</ele><time>2026-04-03T06:54:20Z</time></trkpt><trkpt lat="45.50406355144894" lon="9.257924569066581"><ele>119.0</ele><time>2026-04-03T06:54:21Z</time></trkpt><trkpt lat="45.50383515194594" lon="9.257748198103421"><ele>119.0</ele><time>2026-04-03T06:54:22Z</time></trkpt><trkpt lat="45.503606499382215" lon="9.257571047462589"><ele>119.5</ele><time>2026-04-03T06:54:23Z</time></trkpt><trkpt lat="45.503380697682104" lon="9.257398996079143"><ele>120.0</ele><time>2026-04-03T06:54:24Z</time></trkpt><trkpt lat="45.503156565787066" lon="9.257224845073345"><ele>120.0</ele><time>2026-04-03T06:54:25Z</time></trkpt><trkpt lat="45.50293195229714" lon="9.257050859798222"><ele>120.0</ele><time>2026-04-03T06:54:26Z</time></trkpt><trkpt lat="45.502708392581035" lon="9.256879293998294"><ele>120.0</ele><time>2026-04-03T06:54:27Z</time></trkpt><trkpt lat="45.502487748490815" lon="9.256708487594809"><ele>120.0</ele><time>2026-04-03T06:54:28Z</time></trkpt><trkpt lat="45.50226735112875" lon="9.256538569636996"><ele>121.0</ele><time>2026-04-03T06:54:29Z</time></trkpt><trkpt lat="45.502049737755144" lon="9.256373262644805"><ele>122.0</ele><time>2026-04-03T06:54:30Z</time></trkpt><trkpt lat="45.50183491021562" lon="9.256211515447387"><ele>122.0</ele><time>2026-04-03T06:54:31Z</time></trkpt><trkpt lat="45.50161482895661" lon="9.25605811148172"><ele>122.0</ele><time>2026-04-03T06:54:32Z</time></trkpt><trkpt lat="45.50139160085555" lon="9.255923070382208"><ele>121.5</ele><time>2026-04-03T06:54:33Z</time></trkpt><trkpt lat="45.50116152907111" lon="9.255810979916545"><ele>121.0</ele><time>2026-04-03T06:54:34Z</time></trkpt><trkpt lat="45.500926720576444" lon="9.25570977196184"><ele>121.0</ele><time>2026-04-03T06:54:35Z</time></trkpt><trkpt lat="45.50068664713352" lon="9.255626638534025"><ele>121.0</ele><time>2026-04-03T06:54:36Z</time></trkpt><trkpt lat="45.50044179790575" lon="9.255553702268301"><ele>121.0</ele><time>2026-04-03T06:54:37Z</time></trkpt><trkpt lat="45.500196947510766" lon="9.255493621853448"><ele>121.0</ele><time>2026-04-03T06:54:38Z</time></trkpt><trkpt lat="45.49994964869369" lon="9.255448892470314"><ele>121.0</ele><time>2026-04-03T06:54:39Z</time></trkpt><trkpt lat="45.49970233547925" lon="9.255417244463903"><ele>121.0</ele><time>2026-04-03T06:54:40Z</time></trkpt><trkpt lat="45.49945743578958" lon="9.255390605155517"><ele>122.0</ele><time>2026-04-03T06:54:41Z</time></trkpt><trkpt lat="45.49921313706654" lon="9.255366273131424"><ele>123.0</ele><time>2026-04-03T06:54:42Z</time></trkpt><trkpt lat="45.49896980232454" lon="9.255338609334599"><ele>124.5</ele><time>2026-04-03T06:54:43Z</time></trkpt><trkpt lat="45.49872697763077" lon="9.255310086990495"><ele>126.0</ele><time>2026-04-03T06:54:44Z</time></trkpt><trkpt lat="45.49848172775942" lon="9.25528538498746"><ele>126.0</ele><time>2026-04-03T06:54:45Z</time></trkpt><trkpt lat="45.49823310147103" lon="9.255259478201461"><ele>126.0</ele><time>2026-04-03T06:54:46Z</time></trkpt><trkpt lat="45.49798804785017" lon="9.255233583645499"><ele>125.0</ele><time>2026-04-03T06:54:47Z</time></trkpt><trkpt lat="45.49774174142754" lon="9.255206474444341"><ele>124.0</ele><time>2026-04-03T06:54:48Z</time></trkpt><trkpt lat="45.49749544441242" lon="9.255176025212263"><ele>124.0</ele><time>2026-04-03T06:54:49Z</time></trkpt><trkpt lat="45.497249156927" lon="9.255146081064156"><ele>124.0</ele><time>2026-04-03T06:54:50Z</time></trkpt><trkpt lat="45.49700092994737" lon="9.25511262684605"><ele>121.5</ele><time>2026-04-03T06:54:51Z</time></trkpt><trkpt lat="45.496755181252624" lon="9.25506912080389"><ele>119.0</ele><time>2026-04-03T06:54:52Z</time></trkpt><trkpt lat="45.49651101467219" lon="9.255004623128546"><ele>119.0</ele><time>2026-04-03T06:54:53Z</time></trkpt><trkpt lat="45.49626739479432" lon="9.254921373437154"><ele>119.0</ele><time>2026-04-03T06:54:54Z</time></trkpt><trkpt lat="45.49602645025785" lon="9.254822436176902"><ele>122.0</ele><time>2026-04-03T06:54:55Z</time></trkpt><trkpt lat="45.495785452985714" lon="9.254703050993207"><ele>125.0</ele><time>2026-04-03T06:54:56Z</time></trkpt><trkpt lat="45.49554804297743" lon="9.254573462051408"><ele>122.5</ele><time>2026-04-03T06:54:57Z</time></trkpt><trkpt lat="45.4953090799779" lon="9.254435863312441"><ele>120.0</ele><time>2026-04-03T06:54:58Z</time></trkpt><trkpt lat="45.49507763583263" lon="9.254294796646608"><ele>120.0</ele><time>2026-04-03T06:54:59Z</time></trkpt><trkpt lat="45.49485044626293" lon="9.25415768309393"><ele>120.0</ele><time>2026-04-03T06:55:00Z</time></trkpt><trkpt lat="45.49462900817459" lon="9.254023914167217"><ele>119.0</ele><time>2026-04-03T06:55:01Z</time></trkpt><trkpt lat="45.49440890975068" lon="9.253888830444525"><ele>118.0</ele><time>2026-04-03T06:55:02Z</time></trkpt><trkpt lat="45.4941909881901" lon="9.25375105324765"><ele>118.0</ele><time>2026-04-03T06:55:03Z</time></trkpt><trkpt lat="45.49397710084637" lon="9.253610548336647"><ele>118.0</ele><time>2026-04-03T06:55:04Z</time></trkpt><trkpt lat="45.49376654718399" lon="9.253471434596804"><ele>119.5</ele><time>2026-04-03T06:55:05Z</time></trkpt><trkpt lat="45.49355888201294" lon="9.253333579082858"><ele>121.0</ele><time>2026-04-03T06:55:06Z</time></trkpt><trkpt lat="45.49334996840778" lon="9.253199077295667"><ele>121.0</ele><time>2026-04-03T06:55:07Z</time></trkpt><trkpt lat="45.49313920690296" lon="9.253066303627406"><ele>121.0</ele><time>2026-04-03T06:55:08Z</time></trkpt><trkpt lat="45.49292792480267" lon="9.25293734890448"><ele>121.0</ele><time>2026-04-03T06:55:09Z</time></trkpt><trkpt lat="45.49272319119601" lon="9.25281922505013"><ele>121.0</ele><time>2026-04-03T06:55:10Z</time></trkpt><trkpt lat="45.492522362146936" lon="9.252707635887552"><ele>121.0</ele><time>2026-04-03T06:55:11Z</time></trkpt><trkpt lat="45.49233101538926" lon="9.25260366233139"><ele>121.0</ele><time>2026-04-03T06:55:12Z</time></trkpt><trkpt lat="45.49214667540896" lon="9.252508583981156"><ele>121.0</ele><time>2026-04-03T06:55:13Z</time></trkpt><trkpt lat="45.49196958506952" lon="9.252421983840089"><ele>121.0</ele><time>2026-04-03T06:55:14Z</time></trkpt><trkpt lat="45.49179973716136" lon="9.25234355358424"><ele>122.0</ele><time>2026-04-03T06:55:15Z</time></trkpt><trkpt lat="45.49163566885206" lon="9.252273439814578"><ele>123.0</ele><time>2026-04-03T06:55:16Z</time></trkpt><trkpt lat="45.49147848824646" lon="9.252207785641705"><ele>124.0</ele><time>2026-04-03T06:55:17Z</time></trkpt><trkpt lat="45.49132620623533" lon="9.252149142268117"><ele>124.5</ele><time>2026-04-03T06:55:18Z</time></trkpt><trkpt lat="45.491177223737324" lon="9.25209601188297"><ele>125.0</ele><time>2026-04-03T06:55:19Z</time></trkpt><trkpt lat="45.49103288803225" lon="9.252049276020918"><ele>125.5</ele><time>2026-04-03T06:55:20Z</time></trkpt><trkpt lat="45.49088952787505" lon="9.252004913463464"><ele>126.0</ele><time>2026-04-03T06:55:21Z</time></trkpt><trkpt lat="45.49074898248266" lon="9.251964079640288"><ele>126.0</ele><time>2026-04-03T06:55:22Z</time></trkpt><trkpt lat="45.490626896212376" lon="9.251930475773934"><ele>126.0</ele><time>2026-04-03T06:55:23Z</time></trkpt><trkpt lat="45.49052992140733" lon="9.251907391493937"><ele>126.0</ele><time>2026-04-03T06:55:24Z</time></trkpt><trkpt lat="45.49044101465359" lon="9.251886442416554"><ele>126.0</ele><time>2026-04-03T06:55:25Z</time></trkpt><trkpt lat="45.49036394925499" lon="9.251869205832923"><ele>126.0</ele><time>2026-04-03T06:55:26Z</time></trkpt><trkpt lat="45.49029166476864" lon="9.251851334455155"><ele>125.16666666666667</ele><time>2026-04-03T06:55:27Z</time></trkpt><trkpt lat="45.49022244641471" lon="9.251834750318706"><ele>124.33333333333334</ele><time>2026-04-03T06:55:27.999Z</time></trkpt><trkpt lat="45.49015931550303" lon="9.25181940498855"><ele>123.5</ele><time>2026-04-03T06:55:28.999Z</time></trkpt><trkpt lat="45.490036519096016" lon="9.25179070478132"><ele>122.66666666666667</ele><time>2026-04-03T06:55:30.999Z</time></trkpt><trkpt lat="45.489972022446665" lon="9.251772303080259"><ele>121.83333333333334</ele><time>2026-04-03T06:55:31.999Z</time></trkpt><trkpt lat="45.489898563738" lon="9.251751422095328"><ele>121.0</ele><time>2026-04-03T06:55:32.999Z</time></trkpt><trkpt lat="45.48981106004921" lon="9.251725772042741"><ele>121.0</ele><time>2026-04-03T06:55:33.999Z</time></trkpt><trkpt lat="45.48970777808766" lon="9.25169598130212"><ele>121.0</ele><time>2026-04-03T06:55:34.999Z</time></trkpt><trkpt lat="45.489598621409584" lon="9.25166993268558"><ele>121.0</ele><time>2026-04-03T06:55:35.999Z</time></trkpt><trkpt lat="45.489490370487395" lon="9.251648919359722"><ele>121.0</ele><time>2026-04-03T06:55:36.999Z</time></trkpt><trkpt lat="45.489382753685824" lon="9.251630654788677"><ele>121.0</ele><time>2026-04-03T06:55:37.999Z</time></trkpt><trkpt lat="45.48927344352942" lon="9.25161298512091"><ele>121.0</ele><time>2026-04-03T06:55:38.999Z</time></trkpt><trkpt lat="45.489157951067696" lon="9.25159512727435"><ele>121.0</ele><time>2026-04-03T06:55:39.999Z</time></trkpt><trkpt lat="45.48903526867594" lon="9.251575339078524"><ele>121.0</ele><time>2026-04-03T06:55:40.999Z</time></trkpt><trkpt lat="45.48890920491186" lon="9.251555569482042"><ele>121.0</ele><time>2026-04-03T06:55:41.999Z</time></trkpt><trkpt lat="45.48877929457582" lon="9.25153676335807"><ele>120.5</ele><time>2026-04-03T06:55:42.999Z</time></trkpt><trkpt lat="45.48864244692626" lon="9.251517710318888"><ele>120.0</ele><time>2026-04-03T06:55:43.999Z</time></trkpt><trkpt lat="45.48850449818782" lon="9.251498256497673"><ele>119.5</ele><time>2026-04-03T06:55:44.999Z</time></trkpt><trkpt lat="45.488362276497426" lon="9.251477099783925"><ele>119.0</ele><time>2026-04-03T06:55:45.999Z</time></trkpt><trkpt lat="45.48821396072393" lon="9.251456335362308"><ele>119.0</ele><time>2026-04-03T06:55:46.999Z</time></trkpt><trkpt lat="45.4880634590226" lon="9.251439288567154"><ele>119.0</ele><time>2026-04-03T06:55:47.999Z</time></trkpt><trkpt lat="45.48791207700149" lon="9.251423547514566"><ele>119.0</ele><time>2026-04-03T06:55:48.999Z</time></trkpt><trkpt lat="45.48775812224483" lon="9.251402426922247"><ele>118.33333333333333</ele><time>2026-04-03T06:55:49.999Z</time></trkpt><trkpt lat="45.48759865659699" lon="9.251377368550912"><ele>117.66666666666666</ele><time>2026-04-03T06:55:50.999Z</time></trkpt><trkpt lat="45.48742816509649" lon="9.251352555562015"><ele>117.0</ele><time>2026-04-03T06:55:51.999Z</time></trkpt><trkpt lat="45.48724239759492" lon="9.251330375956687"><ele>116.66666666666666</ele><time>2026-04-03T06:55:52.999Z</time></trkpt><trkpt lat="45.4870452356656" lon="9.251302682250037"><ele>116.33333333333333</ele><time>2026-04-03T06:55:53.999Z</time></trkpt><trkpt lat="45.48685007272219" lon="9.25127096060691"><ele>116.0</ele><time>2026-04-03T06:55:54.999Z</time></trkpt><trkpt lat="45.48664988033226" lon="9.251239244540553"><ele>116.0</ele><time>2026-04-03T06:55:55.999Z</time></trkpt><trkpt lat="45.486449197626214" lon="9.251208442491706"><ele>116.0</ele><time>2026-04-03T06:55:56.999Z</time></trkpt><trkpt lat="45.486240826035925" lon="9.251174556784889"><ele>116.0</ele><time>2026-04-03T06:55:57.999Z</time></trkpt><trkpt lat="45.48602831610616" lon="9.251138249159006"><ele>116.66666666666666</ele><time>2026-04-03T06:55:59Z</time></trkpt><trkpt lat="45.485815446322746" lon="9.251101572412711"><ele>117.33333333333334</ele><time>2026-04-03T06:56:00Z</time></trkpt><trkpt lat="45.48560274332702" lon="9.251067703100802"><ele>118.0</ele><time>2026-04-03T06:56:01Z</time></trkpt><trkpt lat="45.48539123589952" lon="9.251037252172852"><ele>118.0</ele><time>2026-04-03T06:56:02Z</time></trkpt><trkpt lat="45.48518159220104" lon="9.251006267523856"><ele>118.0</ele><time>2026-04-03T06:56:03Z</time></trkpt><trkpt lat="45.484972745459714" lon="9.250978652616263"><ele>118.0</ele><time>2026-04-03T06:56:04Z</time></trkpt><trkpt lat="45.484766004043465" lon="9.250958224536763"><ele>118.66666666666667</ele><time>2026-04-03T06:56:05Z</time></trkpt><trkpt lat="45.484559705768866" lon="9.250943279330865"><ele>119.33333333333334</ele><time>2026-04-03T06:56:06Z</time></trkpt><trkpt lat="45.484353187695824" lon="9.250932889258346"><ele>120.0</ele><time>2026-04-03T06:56:07Z</time></trkpt><trkpt lat="45.484148298944035" lon="9.250930454907556"><ele>120.0</ele><time>2026-04-03T06:56:08Z</time></trkpt><trkpt lat="45.48394833453998" lon="9.250933495675692"><ele>120.0</ele><time>2026-04-03T06:56:09Z</time></trkpt><trkpt lat="45.48375854113906" lon="9.250947218282358"><ele>120.0</ele><time>2026-04-03T06:56:10Z</time></trkpt><trkpt lat="45.483574201707405" lon="9.250965284541401"><ele>119.33333333333334</ele><time>2026-04-03T06:56:11Z</time></trkpt><trkpt lat="45.48340350019836" lon="9.250986308074504"><ele>118.66666666666667</ele><time>2026-04-03T06:56:12Z</time></trkpt><trkpt lat="45.4832456637695" lon="9.251011592453773"><ele>118.0</ele><time>2026-04-03T06:56:13Z</time></trkpt><trkpt lat="45.483100168797584" lon="9.251041710174443"><ele>118.0</ele><time>2026-04-03T06:56:14Z</time></trkpt><trkpt lat="45.48296185573523" lon="9.251073082955557"><ele>118.0</ele><time>2026-04-03T06:56:15Z</time></trkpt><trkpt lat="45.48283616049668" lon="9.251104682432606"><ele>118.0</ele><time>2026-04-03T06:56:16Z</time></trkpt><trkpt lat="45.482714100311526" lon="9.251132758394872"><ele>118.0</ele><time>2026-04-03T06:56:17Z</time></trkpt><trkpt lat="45.48259365321085" lon="9.251163219939164"><ele>118.4</ele><time>2026-04-03T06:56:18Z</time></trkpt><trkpt lat="45.48248598060644" lon="9.251198775279796"><ele>118.80000000000001</ele><time>2026-04-03T06:56:19Z</time></trkpt><trkpt lat="45.482392468636974" lon="9.251234216041807"><ele>119.2</ele><time>2026-04-03T06:56:20Z</time></trkpt><trkpt lat="45.482305492356346" lon="9.251266877659894"><ele>119.6</ele><time>2026-04-03T06:56:21Z</time></trkpt><trkpt lat="45.48222465792827" lon="9.251297479766238"><ele>120.0</ele><time>2026-04-03T06:56:22Z</time></trkpt><trkpt lat="45.48214834299937" lon="9.251326062526847"><ele>120.14285714285714</ele><time>2026-04-03T06:56:23Z</time></trkpt><trkpt lat="45.48206938051412" lon="9.25135786292067"><ele>120.28571428571428</ele><time>2026-04-03T06:56:24Z</time></trkpt><trkpt lat="45.48199622405858" lon="9.251387101069145"><ele>120.42857142857142</ele><time>2026-04-03T06:56:25Z</time></trkpt><trkpt lat="45.48192822697755" lon="9.251411922499509"><ele>120.57142857142857</ele><time>2026-04-03T06:56:26Z</time></trkpt><trkpt lat="45.48186460361881" lon="9.251425090702913"><ele>120.7142857142857</ele><time>2026-04-03T06:56:27Z</time></trkpt><trkpt lat="45.48179871257787" lon="9.251435682110575"><ele>120.85714285714285</ele><time>2026-04-03T06:56:28Z</time></trkpt><trkpt lat="45.48171745075993" lon="9.251460087737296"><ele>121.0</ele><time>2026-04-03T06:56:29Z</time></trkpt><trkpt lat="45.481622569580786" lon="9.251498728806194"><ele>121.0</ele><time>2026-04-03T06:56:30Z</time></trkpt><trkpt lat="45.48151992092245" lon="9.251544095318067"><ele>121.0</ele><time>2026-04-03T06:56:31Z</time></trkpt><trkpt lat="45.48140853944859" lon="9.251596710831034"><ele>121.0</ele><time>2026-04-03T06:56:32Z</time></trkpt><trkpt lat="45.481293087779676" lon="9.251650127725426"><ele>121.0</ele><time>2026-04-03T06:56:33Z</time></trkpt><trkpt lat="45.48117722194871" lon="9.251704535113525"><ele>121.0</ele><time>2026-04-03T06:56:34Z</time></trkpt><trkpt lat="45.481062741989206" lon="9.251758699028555"><ele>121.0</ele><time>2026-04-03T06:56:35Z</time></trkpt><trkpt lat="45.48095091250521" lon="9.2518096696083"><ele>121.0</ele><time>2026-04-03T06:56:36Z</time></trkpt><trkpt lat="45.48083891815602" lon="9.251861820797993"><ele>121.0</ele><time>2026-04-03T06:56:37Z</time></trkpt><trkpt lat="45.480727777178366" lon="9.251912943319574"><ele>121.0</ele><time>2026-04-03T06:56:38Z</time></trkpt><trkpt lat="45.480617300619" lon="9.251963551805272"><ele>121.0</ele><time>2026-04-03T06:56:39Z</time></trkpt><trkpt lat="45.48050759943974" lon="9.252015756368044"><ele>121.0</ele><time>2026-04-03T06:56:40Z</time></trkpt><trkpt lat="45.48039594061511" lon="9.252068212898296"><ele>121.0</ele><time>2026-04-03T06:56:41Z</time></trkpt><trkpt lat="45.48027990479081" lon="9.252120987604668"><ele>120.0</ele><time>2026-04-03T06:56:42Z</time></trkpt><trkpt lat="45.48015882787195" lon="9.25217402974613"><ele>119.0</ele><time>2026-04-03T06:56:43Z</time></trkpt><trkpt lat="45.48003548148818" lon="9.252223393655443"><ele>118.0</ele><time>2026-04-03T06:56:44Z</time></trkpt><trkpt lat="45.47989861380426" lon="9.252266918879565"><ele>117.0</ele><time>2026-04-03T06:56:45Z</time></trkpt><trkpt lat="45.479758819398626" lon="9.25232258917988"><ele>117.0</ele><time>2026-04-03T06:56:46Z</time></trkpt><trkpt lat="45.479613246279534" lon="9.252392942414268"><ele>117.0</ele><time>2026-04-03T06:56:47Z</time></trkpt><trkpt lat="45.479464494927015" lon="9.252465983223896"><ele>117.0</ele><time>2026-04-03T06:56:48Z</time></trkpt><trkpt lat="45.47930820850552" lon="9.252536136026766"><ele>117.66666666666666</ele><time>2026-04-03T06:56:49Z</time></trkpt><trkpt lat="45.47913959425347" lon="9.252613318608011"><ele>118.33333333333333</ele><time>2026-04-03T06:56:50Z</time></trkpt><trkpt lat="45.47895983875459" lon="9.252693468963058"><ele>119.0</ele><time>2026-04-03T06:56:51Z</time></trkpt><trkpt lat="45.47877915691159" lon="9.252774048733714"><ele>118.0</ele><time>2026-04-03T06:56:52Z</time></trkpt><trkpt lat="45.47860280460973" lon="9.252854296024694"><ele>117.0</ele><time>2026-04-03T06:56:53Z</time></trkpt><trkpt lat="45.478427023246965" lon="9.252935286119964"><ele>116.0</ele><time>2026-04-03T06:56:54Z</time></trkpt><trkpt lat="45.47826616135366" lon="9.253010459755961"><ele>116.0</ele><time>2026-04-03T06:56:55Z</time></trkpt><trkpt lat="45.47811244614729" lon="9.25308749169334"><ele>116.0</ele><time>2026-04-03T06:56:56Z</time></trkpt><trkpt lat="45.47797156739305" lon="9.253156143307331"><ele>116.0</ele><time>2026-04-03T06:56:57Z</time></trkpt><trkpt lat="45.47782631705823" lon="9.253219770090466"><ele>115.33333333333333</ele><time>2026-04-03T06:56:58Z</time></trkpt><trkpt lat="45.47767408843042" lon="9.253279802643045"><ele>114.66666666666666</ele><time>2026-04-03T06:56:59Z</time></trkpt><trkpt lat="45.477522290024886" lon="9.253331949707274"><ele>114.0</ele><time>2026-04-03T06:57:00Z</time></trkpt><trkpt lat="45.47736872069148" lon="9.253378471586693"><ele>114.0</ele><time>2026-04-03T06:57:01Z</time></trkpt><trkpt lat="45.47721413408748" lon="9.253421856820905"><ele>114.0</ele><time>2026-04-03T06:57:02Z</time></trkpt><trkpt lat="45.47705131451104" lon="9.253462282143463"><ele>114.0</ele><time>2026-04-03T06:57:03Z</time></trkpt><trkpt lat="45.47688148104675" lon="9.253488086576212"><ele>115.0</ele><time>2026-04-03T06:57:04Z</time></trkpt><trkpt lat="45.476710817243905" lon="9.253505702606354"><ele>116.0</ele><time>2026-04-03T06:57:05Z</time></trkpt><trkpt lat="45.476538028353964" lon="9.253512548783814"><ele>117.0</ele><time>2026-04-03T06:57:06Z</time></trkpt><trkpt lat="45.4763683548479" lon="9.253510273053404"><ele>117.0</ele><time>2026-04-03T06:57:07Z</time></trkpt><trkpt lat="45.476204465538885" lon="9.253496744878138"><ele>117.0</ele><time>2026-04-03T06:57:08Z</time></trkpt><trkpt lat="45.47604383398503" lon="9.253482514092749"><ele>117.0</ele><time>2026-04-03T06:57:09Z</time></trkpt><trkpt lat="45.475890909363606" lon="9.253461948733051"><ele>117.0</ele><time>2026-04-03T06:57:10Z</time></trkpt><trkpt lat="45.47574183970512" lon="9.25343605139213"><ele>117.0</ele><time>2026-04-03T06:57:11Z</time></trkpt><trkpt lat="45.47560112433531" lon="9.25340709807887"><ele>117.0</ele><time>2026-04-03T06:57:12Z</time></trkpt><trkpt lat="45.47546817250753" lon="9.253373292421658"><ele>117.0</ele><time>2026-04-03T06:57:13Z</time></trkpt><trkpt lat="45.475338842038" lon="9.25333691140048"><ele>117.75</ele><time>2026-04-03T06:57:14Z</time></trkpt><trkpt lat="45.475210377207326" lon="9.253303100111633"><ele>118.5</ele><time>2026-04-03T06:57:15Z</time></trkpt><trkpt lat="45.47508475371412" lon="9.25326333218559"><ele>119.25</ele><time>2026-04-03T06:57:16Z</time></trkpt><trkpt lat="45.474963895970404" lon="9.253223409197728"><ele>120.0</ele><time>2026-04-03T06:57:17Z</time></trkpt><trkpt lat="45.47484325417321" lon="9.253177973449597"><ele>120.0</ele><time>2026-04-03T06:57:18Z</time></trkpt><trkpt lat="45.47472099800643" lon="9.253128856402855"><ele>120.0</ele><time>2026-04-03T06:57:19Z</time></trkpt><trkpt lat="45.47460734640203" lon="9.25308776194335"><ele>120.0</ele><time>2026-04-03T06:57:20Z</time></trkpt><trkpt lat="45.47448946407278" lon="9.253053114043086"><ele>120.0</ele><time>2026-04-03T06:57:21Z</time></trkpt><trkpt lat="45.474361440804124" lon="9.253015387080186"><ele>119.25</ele><time>2026-04-03T06:57:22Z</time></trkpt><trkpt lat="45.474229845173575" lon="9.252975123070579"><ele>118.5</ele><time>2026-04-03T06:57:23Z</time></trkpt><trkpt lat="45.47409637377209" lon="9.252934293663998"><ele>117.75</ele><time>2026-04-03T06:57:24Z</time></trkpt><trkpt lat="45.47396458328945" lon="9.252893458686508"><ele>117.0</ele><time>2026-04-03T06:57:25Z</time></trkpt><trkpt lat="45.473835196043744" lon="9.252854871355487"><ele>117.5</ele><time>2026-04-03T06:57:26Z</time></trkpt><trkpt lat="45.47370306718064" lon="9.25281133465377"><ele>118.0</ele><time>2026-04-03T06:57:27Z</time></trkpt><trkpt lat="45.47356627100559" lon="9.252766390956811"><ele>118.5</ele><time>2026-04-03T06:57:27.999Z</time></trkpt><trkpt lat="45.47342503425007" lon="9.252718681233155"><ele>119.0</ele><time>2026-04-03T06:57:28.999Z</time></trkpt><trkpt lat="45.47328126482452" lon="9.252668588654787"><ele>119.0</ele><time>2026-04-03T06:57:29.999Z</time></trkpt><trkpt lat="45.4731344384957" lon="9.25261836116166"><ele>119.0</ele><time>2026-04-03T06:57:30.999Z</time></trkpt><trkpt lat="45.47298936837573" lon="9.252571552700829"><ele>119.0</ele><time>2026-04-03T06:57:31.999Z</time></trkpt><trkpt lat="45.47284656612659" lon="9.252529461175694"><ele>119.0</ele><time>2026-04-03T06:57:32.999Z</time></trkpt><trkpt lat="45.47270922043125" lon="9.252487455685019"><ele>119.5</ele><time>2026-04-03T06:57:33.999Z</time></trkpt><trkpt lat="45.47257145693074" lon="9.252447612999731"><ele>120.0</ele><time>2026-04-03T06:57:34.999Z</time></trkpt><trkpt lat="45.47244112307943" lon="9.252411243218013"><ele>120.5</ele><time>2026-04-03T06:57:35.999Z</time></trkpt><trkpt lat="45.47231390805649" lon="9.252377878844316"><ele>121.0</ele><time>2026-04-03T06:57:36.999Z</time></trkpt><trkpt lat="45.47218658356805" lon="9.252347227881616"><ele>120.0</ele><time>2026-04-03T06:57:37.999Z</time></trkpt><trkpt lat="45.472056247971565" lon="9.252317341332676"><ele>119.0</ele><time>2026-04-03T06:57:38.999Z</time></trkpt><trkpt lat="45.4719248537668" lon="9.25228659342994"><ele>118.0</ele><time>2026-04-03T06:57:39.999Z</time></trkpt><trkpt lat="45.47178681548767" lon="9.252254826831173"><ele>117.0</ele><time>2026-04-03T06:57:40.999Z</time></trkpt><trkpt lat="45.471648187837026" lon="9.252222969030912"><ele>116.25</ele><time>2026-04-03T06:57:41.999Z</time></trkpt><trkpt lat="45.47150668538874" lon="9.252193269461273"><ele>115.5</ele><time>2026-04-03T06:57:42.999Z</time></trkpt><trkpt lat="45.47136798025605" lon="9.25216693362045"><ele>114.75</ele><time>2026-04-03T06:57:43.999Z</time></trkpt><trkpt lat="45.47123366079309" lon="9.252143854297435"><ele>114.0</ele><time>2026-04-03T06:57:44.999Z</time></trkpt><trkpt lat="45.47110048027715" lon="9.252120852799134"><ele>113.75</ele><time>2026-04-03T06:57:45.999Z</time></trkpt><trkpt lat="45.470960149737806" lon="9.252099412586794"><ele>113.5</ele><time>2026-04-03T06:57:46.999Z</time></trkpt><trkpt lat="45.470813983298164" lon="9.25207651276605"><ele>113.25</ele><time>2026-04-03T06:57:47.999Z</time></trkpt><trkpt lat="45.470662162855426" lon="9.252054032305418"><ele>113.0</ele><time>2026-04-03T06:57:48.999Z</time></trkpt><trkpt lat="45.470503974308386" lon="9.252033284085817"><ele>113.33333333333333</ele><time>2026-04-03T06:57:49.999Z</time></trkpt><trkpt lat="45.470343016147176" lon="9.252016217240403"><ele>113.66666666666666</ele><time>2026-04-03T06:57:50.999Z</time></trkpt><trkpt lat="45.470186321432195" lon="9.252003392573043"><ele>114.0</ele><time>2026-04-03T06:57:51.999Z</time></trkpt><trkpt lat="45.47003390203029" lon="9.251991954693564"><ele>114.0</ele><time>2026-04-03T06:57:52.999Z</time></trkpt><trkpt lat="45.46988659985964" lon="9.251982986987048"><ele>114.0</ele><time>2026-04-03T06:57:53.999Z</time></trkpt><trkpt lat="45.46974361810062" lon="9.251973430597692"><ele>114.0</ele><time>2026-04-03T06:57:54.999Z</time></trkpt><trkpt lat="45.46959994155034" lon="9.251966449088236"><ele>114.0</ele><time>2026-04-03T06:57:55.999Z</time></trkpt><trkpt lat="45.46945376697783" lon="9.251962144363048"><ele>113.33333333333334</ele><time>2026-04-03T06:57:56.999Z</time></trkpt><trkpt lat="45.46930315302267" lon="9.251958847937402"><ele>112.66666666666667</ele><time>2026-04-03T06:57:57.999Z</time></trkpt><trkpt lat="45.46914972645759" lon="9.251956713090404"><ele>112.0</ele><time>2026-04-03T06:57:58.999Z</time></trkpt><trkpt lat="45.46899780653389" lon="9.251956083231027"><ele>112.0</ele><time>2026-04-03T06:57:59.999Z</time></trkpt><trkpt lat="45.46885369164339" lon="9.25195611408609"><ele>112.0</ele><time>2026-04-03T06:58:00.999Z</time></trkpt><trkpt lat="45.46871542366116" lon="9.251959345489253"><ele>112.0</ele><time>2026-04-03T06:58:01.999Z</time></trkpt><trkpt lat="45.46858193687973" lon="9.25196316477902"><ele>112.0</ele><time>2026-04-03T06:58:02.999Z</time></trkpt><trkpt lat="45.46846440285052" lon="9.251967152319473"><ele>112.6</ele><time>2026-04-03T06:58:03.999Z</time></trkpt><trkpt lat="45.46836303251389" lon="9.251969798117425"><ele>113.19999999999999</ele><time>2026-04-03T06:58:05Z</time></trkpt><trkpt lat="45.46826767097607" lon="9.251968546554973"><ele>113.8</ele><time>2026-04-03T06:58:06Z</time></trkpt><trkpt lat="45.46816683557477" lon="9.251957255583246"><ele>114.4</ele><time>2026-04-03T06:58:07Z</time></trkpt><trkpt lat="45.46806399039968" lon="9.251941072892128"><ele>115.0</ele><time>2026-04-03T06:58:08Z</time></trkpt><trkpt lat="45.467968507357696" lon="9.251929335610253"><ele>115.0</ele><time>2026-04-03T06:58:09Z</time></trkpt><trkpt lat="45.467878222038266" lon="9.25192283220341"><ele>115.0</ele><time>2026-04-03T06:58:10Z</time></trkpt><trkpt lat="45.46779200438031" lon="9.251922507829793"><ele>115.0</ele><time>2026-04-03T06:58:11Z</time></trkpt><trkpt lat="45.46769774065583" lon="9.251925237159151"><ele>115.0</ele><time>2026-04-03T06:58:12Z</time></trkpt><trkpt lat="45.46759610097752" lon="9.251925342323023"><ele>115.0</ele><time>2026-04-03T06:58:13Z</time></trkpt><trkpt lat="45.46748655828188" lon="9.251923236882641"><ele>115.0</ele><time>2026-04-03T06:58:14Z</time></trkpt><trkpt lat="45.46737232994228" lon="9.251921835327957"><ele>115.0</ele><time>2026-04-03T06:58:15Z</time></trkpt><trkpt lat="45.46725069469252" lon="9.251916441752773"><ele>115.0</ele><time>2026-04-03T06:58:16Z</time></trkpt><trkpt lat="45.46712374109294" lon="9.251906044851482"><ele>115.0</ele><time>2026-04-03T06:58:17Z</time></trkpt><trkpt lat="45.46699868891575" lon="9.251892084039303"><ele>115.0</ele><time>2026-04-03T06:58:18Z</time></trkpt><trkpt lat="45.46686944227572" lon="9.251872654634342"><ele>115.0</ele><time>2026-04-03T06:58:19Z</time></trkpt><trkpt lat="45.466735218996945" lon="9.251848781938152"><ele>115.0</ele><time>2026-04-03T06:58:20Z</time></trkpt><trkpt lat="45.466598956013414" lon="9.251819999404985"><ele>115.0</ele><time>2026-04-03T06:58:21Z</time></trkpt><trkpt lat="45.46646184767845" lon="9.251787704363878"><ele>115.0</ele><time>2026-04-03T06:58:22Z</time></trkpt><trkpt lat="45.46632740547945" lon="9.251752428140895"><ele>115.0</ele><time>2026-04-03T06:58:23Z</time></trkpt><trkpt lat="45.46619565264869" lon="9.25171325111176"><ele>115.0</ele><time>2026-04-03T06:58:24Z</time></trkpt><trkpt lat="45.466066720786785" lon="9.251670431887767"><ele>115.0</ele><time>2026-04-03T06:58:25Z</time></trkpt><trkpt lat="45.465937929922006" lon="9.251623331559886"><ele>114.75</ele><time>2026-04-03T06:58:26Z</time></trkpt><trkpt lat="45.46581092569108" lon="9.251569234109908"><ele>114.5</ele><time>2026-04-03T06:58:27Z</time></trkpt><trkpt lat="45.46568479553873" lon="9.251510994992154"><ele>114.25</ele><time>2026-04-03T06:58:28Z</time></trkpt><trkpt lat="45.46556039048744" lon="9.251450632605454"><ele>114.0</ele><time>2026-04-03T06:58:29Z</time></trkpt><trkpt lat="45.46543573333401" lon="9.25139058701751"><ele>113.75</ele><time>2026-04-03T06:58:30Z</time></trkpt><trkpt lat="45.46531129387952" lon="9.251328665360498"><ele>113.5</ele><time>2026-04-03T06:58:31Z</time></trkpt><trkpt lat="45.46518837361586" lon="9.251266496211365"><ele>113.25</ele><time>2026-04-03T06:58:32Z</time></trkpt><trkpt lat="45.46506490796178" lon="9.251211636709588"><ele>113.0</ele><time>2026-04-03T06:58:33Z</time></trkpt><trkpt lat="45.4649397640247" lon="9.251162519313528"><ele>113.0</ele><time>2026-04-03T06:58:34Z</time></trkpt><trkpt lat="45.46481169540747" lon="9.251115916080847"><ele>113.0</ele><time>2026-04-03T06:58:35Z</time></trkpt><trkpt lat="45.46467986439268" lon="9.251073643223814"><ele>113.0</ele><time>2026-04-03T06:58:36Z</time></trkpt><trkpt lat="45.464544848558766" lon="9.251035879661453"><ele>113.0</ele><time>2026-04-03T06:58:37Z</time></trkpt><trkpt lat="45.46441523376626" lon="9.251003048196557"><ele>113.5</ele><time>2026-04-03T06:58:38Z</time></trkpt><trkpt lat="45.464286403333105" lon="9.250969196181899"><ele>114.0</ele><time>2026-04-03T06:58:39Z</time></trkpt><trkpt lat="45.464154292694126" lon="9.2509352016609"><ele>114.5</ele><time>2026-04-03T06:58:40Z</time></trkpt><trkpt lat="45.464017615546055" lon="9.250904907103505"><ele>115.0</ele><time>2026-04-03T06:58:41Z</time></trkpt><trkpt lat="45.46387330045849" lon="9.250884349907933"><ele>115.0</ele><time>2026-04-03T06:58:42Z</time></trkpt><trkpt lat="45.46372592975506" lon="9.250871485402094"><ele>115.0</ele><time>2026-04-03T06:58:43Z</time></trkpt><trkpt lat="45.46357817499483" lon="9.250864839001713"><ele>115.0</ele><time>2026-04-03T06:58:44Z</time></trkpt><trkpt lat="45.46342453497926" lon="9.250861766883657"><ele>115.0</ele><time>2026-04-03T06:58:45Z</time></trkpt><trkpt lat="45.463263627648736" lon="9.250859545236029"><ele>115.0</ele><time>2026-04-03T06:58:46Z</time></trkpt><trkpt lat="45.46310230386141" lon="9.250863375213694"><ele>115.0</ele><time>2026-04-03T06:58:47Z</time></trkpt><trkpt lat="45.46294414091605" lon="9.250877776890716"><ele>115.0</ele><time>2026-04-03T06:58:48Z</time></trkpt><trkpt lat="45.462798802678215" lon="9.250900352682693"><ele>113.25</ele><time>2026-04-03T06:58:49Z</time></trkpt><trkpt lat="45.462668084716356" lon="9.250922361778713"><ele>111.5</ele><time>2026-04-03T06:58:50Z</time></trkpt><trkpt lat="45.46254121335269" lon="9.250937051819081"><ele>109.75</ele><time>2026-04-03T06:58:51Z</time></trkpt><trkpt lat="45.462420454704954" lon="9.250947399040191"><ele>108.0</ele><time>2026-04-03T06:58:52Z</time></trkpt><trkpt lat="45.46230924359204" lon="9.250963625438514"><ele>108.0</ele><time>2026-04-03T06:58:53Z</time></trkpt><trkpt lat="45.46220312268121" lon="9.250980003674432"><ele>108.00000000000001</ele><time>2026-04-03T06:58:54Z</time></trkpt><trkpt lat="45.46210838740537" lon="9.250992743522668"><ele>108.00000000000001</ele><time>2026-04-03T06:58:55Z</time></trkpt><trkpt lat="45.4620159698951" lon="9.251002980710687"><ele>108.0</ele><time>2026-04-03T06:58:56Z</time></trkpt><trkpt lat="45.46192342804631" lon="9.251013654725716"><ele>108.0</ele><time>2026-04-03T06:58:57Z</time></trkpt><trkpt lat="45.46183263869603" lon="9.251022776282618"><ele>109.33333333333333</ele><time>2026-04-03T06:58:58Z</time></trkpt><trkpt lat="45.46174421681885" lon="9.251031319795231"><ele>110.66666666666666</ele><time>2026-04-03T06:58:59Z</time></trkpt><trkpt lat="45.46165862816519" lon="9.251038631448363"><ele>112.0</ele><time>2026-04-03T06:59:00Z</time></trkpt><trkpt lat="45.46157595407478" lon="9.251045077542141"><ele>113.33333333333333</ele><time>2026-04-03T06:59:01Z</time></trkpt><trkpt lat="45.46149328551454" lon="9.251052320363545"><ele>114.66666666666666</ele><time>2026-04-03T06:59:02Z</time></trkpt><trkpt lat="45.461407617598944" lon="9.251060190085429"><ele>116.0</ele><time>2026-04-03T06:59:03Z</time></trkpt><trkpt lat="45.46131690526885" lon="9.251070032165172"><ele>116.16666666666666</ele><time>2026-04-03T06:59:04Z</time></trkpt><trkpt lat="45.46122545106443" lon="9.251078122773086"><ele>116.33333333333333</ele><time>2026-04-03T06:59:05Z</time></trkpt><trkpt lat="45.46113149175488" lon="9.251085880590262"><ele>116.5</ele><time>2026-04-03T06:59:06Z</time></trkpt><trkpt lat="45.461042902045" lon="9.251092924095714"><ele>116.66666666666666</ele><time>2026-04-03T06:59:07Z</time></trkpt><trkpt lat="45.460963537760676" lon="9.251101500543198"><ele>116.83333333333333</ele><time>2026-04-03T06:59:08Z</time></trkpt><trkpt lat="45.460900399910315" lon="9.25110866882651"><ele>117.0</ele><time>2026-04-03T06:59:09Z</time></trkpt><trkpt lat="45.460792272974466" lon="9.25111019866309"><ele>117.0</ele><time>2026-04-03T06:59:11Z</time></trkpt><trkpt lat="45.460695685167025" lon="9.251106201348486"><ele>116.99999999999999</ele><time>2026-04-03T06:59:13Z</time></trkpt><trkpt lat="45.46056907566955" lon="9.25109369975207"><ele>116.99999999999999</ele><time>2026-04-03T06:59:15Z</time></trkpt><trkpt lat="45.460488401853915" lon="9.251097598313619"><ele>117.0</ele><time>2026-04-03T06:59:16Z</time></trkpt><trkpt lat="45.46039366648533" lon="9.251108441215589"><ele>117.0</ele><time>2026-04-03T06:59:17Z</time></trkpt><trkpt lat="45.46029007244822" lon="9.251118423619797"><ele>116.19999999999999</ele><time>2026-04-03T06:59:18Z</time></trkpt><trkpt lat="45.46018510440654" lon="9.25112795365204"><ele>115.39999999999999</ele><time>2026-04-03T06:59:19Z</time></trkpt><trkpt lat="45.460077641922545" lon="9.251137097325655"><ele>114.60000000000001</ele><time>2026-04-03T06:59:20Z</time></trkpt><trkpt lat="45.45996942198257" lon="9.251148309762215"><ele>113.80000000000001</ele><time>2026-04-03T06:59:21Z</time></trkpt><trkpt lat="45.45986012649408" lon="9.251163761860285"><ele>113.0</ele><time>2026-04-03T06:59:22Z</time></trkpt><trkpt lat="45.45975179712458" lon="9.251179431498278"><ele>113.0</ele><time>2026-04-03T06:59:23Z</time></trkpt><trkpt lat="45.459644123945075" lon="9.251190148021243"><ele>113.00000000000001</ele><time>2026-04-03T06:59:24Z</time></trkpt><trkpt lat="45.45953788455932" lon="9.251212927970586"><ele>113.00000000000001</ele><time>2026-04-03T06:59:25Z</time></trkpt><trkpt lat="45.45943397911323" lon="9.251238922983234"><ele>113.0</ele><time>2026-04-03T06:59:26Z</time></trkpt><trkpt lat="45.45932902699347" lon="9.251260301958824"><ele>113.0</ele><time>2026-04-03T06:59:27Z</time></trkpt><trkpt lat="45.459226625503746" lon="9.251287823328154"><ele>112.80000000000001</ele><time>2026-04-03T06:59:28Z</time></trkpt><trkpt lat="45.45912404243701" lon="9.25131335890926"><ele>112.60000000000001</ele><time>2026-04-03T06:59:29Z</time></trkpt><trkpt lat="45.45902319432292" lon="9.251341469168183"><ele>112.39999999999999</ele><time>2026-04-03T06:59:29.999Z</time></trkpt><trkpt lat="45.45892244821527" lon="9.251368552228032"><ele>112.19999999999999</ele><time>2026-04-03T06:59:30.999Z</time></trkpt><trkpt lat="45.45881998827736" lon="9.251395250503606"><ele>112.0</ele><time>2026-04-03T06:59:31.999Z</time></trkpt><trkpt lat="45.458718453145806" lon="9.251424663418895"><ele>112.39999999999999</ele><time>2026-04-03T06:59:32.999Z</time></trkpt><trkpt lat="45.458617600360476" lon="9.251458590413609"><ele>112.79999999999998</ele><time>2026-04-03T06:59:33.999Z</time></trkpt><trkpt lat="45.45851431383506" lon="9.251493420189803"><ele>113.2</ele><time>2026-04-03T06:59:34.999Z</time></trkpt><trkpt lat="45.45841178160246" lon="9.251530359202723"><ele>113.6</ele><time>2026-04-03T06:59:35.999Z</time></trkpt><trkpt lat="45.45830968505739" lon="9.251567059256919"><ele>114.0</ele><time>2026-04-03T06:59:36.999Z</time></trkpt><trkpt lat="45.45820782574597" lon="9.251609618494538"><ele>114.0</ele><time>2026-04-03T06:59:37.999Z</time></trkpt><trkpt lat="45.45810912825636" lon="9.25165106454063"><ele>114.0</ele><time>2026-04-03T06:59:38.999Z</time></trkpt><trkpt lat="45.45801317559138" lon="9.251690853066297"><ele>114.0</ele><time>2026-04-03T06:59:39.999Z</time></trkpt><trkpt lat="45.457918302260374" lon="9.251733188939799"><ele>114.0</ele><time>2026-04-03T06:59:40.999Z</time></trkpt><trkpt lat="45.45782358115069" lon="9.251778264092566"><ele>114.0</ele><time>2026-04-03T06:59:41.999Z</time></trkpt><trkpt lat="45.45773530382187" lon="9.25182611174656"><ele>113.4</ele><time>2026-04-03T06:59:42.999Z</time></trkpt><trkpt lat="45.457668441447495" lon="9.251871021013402"><ele>112.80000000000001</ele><time>2026-04-03T06:59:43.999Z</time></trkpt><trkpt lat="45.45757341007268" lon="9.251940030254756"><ele>112.19999999999999</ele><time>2026-04-03T06:59:45.999Z</time></trkpt><trkpt lat="45.457504736653405" lon="9.251981357895975"><ele>111.6</ele><time>2026-04-03T06:59:47.999Z</time></trkpt><trkpt lat="45.45743066100296" lon="9.252029854965425"><ele>111.0</ele><time>2026-04-03T06:59:49.999Z</time></trkpt><trkpt lat="45.45731867292276" lon="9.25209071996088"><ele>111.0</ele><time>2026-04-03T06:59:51.999Z</time></trkpt><trkpt lat="45.4572561213759" lon="9.252129494931365"><ele>111.0</ele><time>2026-04-03T06:59:52.999Z</time></trkpt><trkpt lat="45.457149099419134" lon="9.252199994361234"><ele>111.0</ele><time>2026-04-03T06:59:54.999Z</time></trkpt><trkpt lat="45.45707308302662" lon="9.252246503228635"><ele>111.0</ele><time>2026-04-03T06:59:56.999Z</time></trkpt><trkpt lat="45.45699154504293" lon="9.252302576341723"><ele>111.0</ele><time>2026-04-03T06:59:58.999Z</time></trkpt><trkpt lat="45.45693234359729" lon="9.252351906909128"><ele>111.0</ele><time>2026-04-03T06:59:59.999Z</time></trkpt><trkpt lat="45.45686062802205" lon="9.252407332236965"><ele>111.19999999999999</ele><time>2026-04-03T07:00:00.999Z</time></trkpt><trkpt lat="45.456778197914794" lon="9.252462549077753"><ele>111.39999999999999</ele><time>2026-04-03T07:00:01.999Z</time></trkpt><trkpt lat="45.456688678775365" lon="9.252525478807053"><ele>111.6</ele><time>2026-04-03T07:00:02.999Z</time></trkpt><trkpt lat="45.45660028437283" lon="9.252587200329303"><ele>111.8</ele><time>2026-04-03T07:00:03.999Z</time></trkpt><trkpt lat="45.456518886889974" lon="9.252644685217"><ele>112.0</ele><time>2026-04-03T07:00:04.999Z</time></trkpt><trkpt lat="45.456442316021" lon="9.252699244188763"><ele>112.00000000000001</ele><time>2026-04-03T07:00:05.999Z</time></trkpt><trkpt lat="45.456368808614016" lon="9.252755057390127"><ele>112.0</ele><time>2026-04-03T07:00:06.999Z</time></trkpt><trkpt lat="45.456296257716545" lon="9.252813724637129"><ele>112.0</ele><time>2026-04-03T07:00:07.999Z</time></trkpt><trkpt lat="45.4562209248598" lon="9.252876330904428"><ele>112.0</ele><time>2026-04-03T07:00:08.999Z</time></trkpt><trkpt lat="45.45614366764539" lon="9.252942913026523"><ele>112.00000000000001</ele><time>2026-04-03T07:00:09.999Z</time></trkpt><trkpt lat="45.45606389727412" lon="9.253012544371234"><ele>112.0</ele><time>2026-04-03T07:00:11Z</time></trkpt><trkpt lat="45.45597856726372" lon="9.253094696424291"><ele>111.75</ele><time>2026-04-03T07:00:12Z</time></trkpt><trkpt lat="45.45588274183736" lon="9.253180661562428"><ele>111.5</ele><time>2026-04-03T07:00:13Z</time></trkpt><trkpt lat="45.45578035732217" lon="9.253268202624296"><ele>111.25</ele><time>2026-04-03T07:00:14Z</time></trkpt><trkpt lat="45.455678479713924" lon="9.253357429020365"><ele>111.0</ele><time>2026-04-03T07:00:15Z</time></trkpt><trkpt lat="45.45557511085289" lon="9.253446661902366"><ele>111.0</ele><time>2026-04-03T07:00:16Z</time></trkpt><trkpt lat="45.45547097722006" lon="9.253534899909786"><ele>111.0</ele><time>2026-04-03T07:00:17Z</time></trkpt><trkpt lat="45.45536710477507" lon="9.253622550625572"><ele>111.0</ele><time>2026-04-03T07:00:18Z</time></trkpt><trkpt lat="45.45526456736062" lon="9.253711653604475"><ele>111.0</ele><time>2026-04-03T07:00:19Z</time></trkpt><trkpt lat="45.45516146436985" lon="9.253800039406162"><ele>110.75</ele><time>2026-04-03T07:00:20Z</time></trkpt><trkpt lat="45.45505533793534" lon="9.25388903423028"><ele>110.5</ele><time>2026-04-03T07:00:21Z</time></trkpt><trkpt lat="45.45494755889058" lon="9.253979379227209"><ele>110.25</ele><time>2026-04-03T07:00:22Z</time></trkpt><trkpt lat="45.454838265776424" lon="9.254071277539637"><ele>110.0</ele><time>2026-04-03T07:00:23Z</time></trkpt><trkpt lat="45.454725599794514" lon="9.254165123317076"><ele>109.75</ele><time>2026-04-03T07:00:24Z</time></trkpt><trkpt lat="45.454609343044375" lon="9.25426142504931"><ele>109.5</ele><time>2026-04-03T07:00:25Z</time></trkpt><trkpt lat="45.454490165623014" lon="9.254360433823912"><ele>109.25</ele><time>2026-04-03T07:00:26Z</time></trkpt><trkpt lat="45.45436864097984" lon="9.254465852421339"><ele>109.0</ele><time>2026-04-03T07:00:27Z</time></trkpt><trkpt lat="45.45424483511357" lon="9.254573028575189"><ele>109.0</ele><time>2026-04-03T07:00:28Z</time></trkpt><trkpt lat="45.454119731258054" lon="9.25467958904905"><ele>109.0</ele><time>2026-04-03T07:00:29Z</time></trkpt><trkpt lat="45.45399622647906" lon="9.254781205191971"><ele>109.0</ele><time>2026-04-03T07:00:30Z</time></trkpt><trkpt lat="45.45387428767761" lon="9.254883030927797"><ele>109.0</ele><time>2026-04-03T07:00:31Z</time></trkpt><trkpt lat="45.45375149740091" lon="9.254986453178267"><ele>109.25</ele><time>2026-04-03T07:00:32Z</time></trkpt><trkpt lat="45.45362422884463" lon="9.255092663101468"><ele>109.5</ele><time>2026-04-03T07:00:33Z</time></trkpt><trkpt lat="45.45349591514638" lon="9.255199438274767"><ele>109.75</ele><time>2026-04-03T07:00:34Z</time></trkpt><trkpt lat="45.45336926518076" lon="9.255304289853473"><ele>110.0</ele><time>2026-04-03T07:00:35Z</time></trkpt><trkpt lat="45.45324315091176" lon="9.255409306070472"><ele>110.0</ele><time>2026-04-03T07:00:36Z</time></trkpt><trkpt lat="45.453116992564595" lon="9.255515875501391"><ele>110.0</ele><time>2026-04-03T07:00:37Z</time></trkpt><trkpt lat="45.45298407846682" lon="9.255626516785469"><ele>110.0</ele><time>2026-04-03T07:00:38Z</time></trkpt><trkpt lat="45.452848951405684" lon="9.255737469527542"><ele>110.0</ele><time>2026-04-03T07:00:39Z</time></trkpt><trkpt lat="45.45270793494046" lon="9.255854259332441"><ele>110.0</ele><time>2026-04-03T07:00:40Z</time></trkpt><trkpt lat="45.4525634926314" lon="9.255971753097322"><ele>110.0</ele><time>2026-04-03T07:00:41Z</time></trkpt><trkpt lat="45.45241812503008" lon="9.256086207075786"><ele>110.0</ele><time>2026-04-03T07:00:42Z</time></trkpt><trkpt lat="45.45226360422056" lon="9.256203721246964"><ele>110.0</ele><time>2026-04-03T07:00:43Z</time></trkpt><trkpt lat="45.452105362157205" lon="9.2563271612297"><ele>110.0</ele><time>2026-04-03T07:00:44Z</time></trkpt><trkpt lat="45.45194494764556" lon="9.256456831017742"><ele>110.33333333333333</ele><time>2026-04-03T07:00:45Z</time></trkpt><trkpt lat="45.45177993047188" lon="9.2565903515937"><ele>110.66666666666666</ele><time>2026-04-03T07:00:46Z</time></trkpt><trkpt lat="45.45161951168605" lon="9.256723709394445"><ele>111.0</ele><time>2026-04-03T07:00:47Z</time></trkpt><trkpt lat="45.45145265811234" lon="9.2568616179633"><ele>111.33333333333334</ele><time>2026-04-03T07:00:48Z</time></trkpt><trkpt lat="45.45128399342948" lon="9.25700212341965"><ele>111.66666666666667</ele><time>2026-04-03T07:00:49Z</time></trkpt><trkpt lat="45.451112500631616" lon="9.257147710274138"><ele>112.0</ele><time>2026-04-03T07:00:50Z</time></trkpt><trkpt lat="45.450935062653926" lon="9.257300224347366"><ele>112.0</ele><time>2026-04-03T07:00:51Z</time></trkpt><trkpt lat="45.45075083454458" lon="9.25745508440249"><ele>112.0</ele><time>2026-04-03T07:00:52Z</time></trkpt><trkpt lat="45.4505628956875" lon="9.257614459254714"><ele>112.0</ele><time>2026-04-03T07:00:53Z</time></trkpt><trkpt lat="45.45036803463252" lon="9.257773087716142"><ele>112.5</ele><time>2026-04-03T07:00:54Z</time></trkpt><trkpt lat="45.450164901074054" lon="9.257922439058294"><ele>113.0</ele><time>2026-04-03T07:00:55Z</time></trkpt><trkpt lat="45.44995692956272" lon="9.258058071155201"><ele>112.5</ele><time>2026-04-03T07:00:56Z</time></trkpt><trkpt lat="45.44974147066648" lon="9.258178671626569"><ele>112.0</ele><time>2026-04-03T07:00:57Z</time></trkpt><trkpt lat="45.44951887048536" lon="9.258286312198756"><ele>110.5</ele><time>2026-04-03T07:00:58Z</time></trkpt><trkpt lat="45.44929219759978" lon="9.258370090945265"><ele>109.0</ele><time>2026-04-03T07:00:59Z</time></trkpt><trkpt lat="45.44905717592407" lon="9.25844118151857"><ele>109.0</ele><time>2026-04-03T07:01:00Z</time></trkpt><trkpt lat="45.4488143374393" lon="9.258505029268608"><ele>109.0</ele><time>2026-04-03T07:01:01Z</time></trkpt><trkpt lat="45.44856506588683" lon="9.258560416459982"><ele>108.0</ele><time>2026-04-03T07:01:02Z</time></trkpt><trkpt lat="45.44831397099246" lon="9.258601674445137"><ele>107.0</ele><time>2026-04-03T07:01:03Z</time></trkpt><trkpt lat="45.44805829888591" lon="9.258633587796327"><ele>105.5</ele><time>2026-04-03T07:01:04Z</time></trkpt><trkpt lat="45.44779928812816" lon="9.258655944072304"><ele>104.0</ele><time>2026-04-03T07:01:05Z</time></trkpt><trkpt lat="45.4475429552324" lon="9.25866170869345"><ele>104.0</ele><time>2026-04-03T07:01:06Z</time></trkpt><trkpt lat="45.44728423145463" lon="9.258661830735345"><ele>104.0</ele><time>2026-04-03T07:01:07Z</time></trkpt><trkpt lat="45.447027791615476" lon="9.258654352160477"><ele>107.5</ele><time>2026-04-03T07:01:08Z</time></trkpt><trkpt lat="45.44677127363473" lon="9.258637458711267"><ele>111.0</ele><time>2026-04-03T07:01:09Z</time></trkpt><trkpt lat="45.446514934908535" lon="9.258599511277264"><ele>106.0</ele><time>2026-04-03T07:01:10Z</time></trkpt><trkpt lat="45.446261548510584" lon="9.258543699721152"><ele>101.0</ele><time>2026-04-03T07:01:11Z</time></trkpt><trkpt lat="45.44601088353438" lon="9.258468029646869"><ele>101.0</ele><time>2026-04-03T07:01:12Z</time></trkpt><trkpt lat="45.445760891060125" lon="9.2583881700072"><ele>101.0</ele><time>2026-04-03T07:01:13Z</time></trkpt><trkpt lat="45.44550627107557" lon="9.25831155107112"><ele>96.0</ele><time>2026-04-03T07:01:14Z</time></trkpt><trkpt lat="45.44525032889651" lon="9.258237408367592"><ele>91.0</ele><time>2026-04-03T07:01:15Z</time></trkpt><trkpt lat="45.44499162016349" lon="9.258162978093136"><ele>92.5</ele><time>2026-04-03T07:01:16Z</time></trkpt><trkpt lat="45.44473316445013" lon="9.258090176412502"><ele>94.0</ele><time>2026-04-03T07:01:17Z</time></trkpt><trkpt lat="45.44446868763091" lon="9.258018445767222"><ele>94.0</ele><time>2026-04-03T07:01:18Z</time></trkpt><trkpt lat="45.44419830736296" lon="9.257945244960286"><ele>94.0</ele><time>2026-04-03T07:01:19Z</time></trkpt><trkpt lat="45.443928219420656" lon="9.257872639383733"><ele>95.5</ele><time>2026-04-03T07:01:20Z</time></trkpt><trkpt lat="45.443656789617776" lon="9.257801983886647"><ele>97.0</ele><time>2026-04-03T07:01:21Z</time></trkpt><trkpt lat="45.44337921618101" lon="9.257727732164986"><ele>97.0</ele><time>2026-04-03T07:01:22Z</time></trkpt><trkpt lat="45.44310347459401" lon="9.257654581661173"><ele>97.0</ele><time>2026-04-03T07:01:23Z</time></trkpt><trkpt lat="45.44282236672363" lon="9.257586989796906"><ele>100.5</ele><time>2026-04-03T07:01:24Z</time></trkpt><trkpt lat="45.442543468768086" lon="9.25752222188165"><ele>104.0</ele><time>2026-04-03T07:01:25Z</time></trkpt><trkpt lat="45.44226628161417" lon="9.257448200525982"><ele>104.0</ele><time>2026-04-03T07:01:26Z</time></trkpt><trkpt lat="45.44199108319753" lon="9.257366904766583"><ele>104.0</ele><time>2026-04-03T07:01:27Z</time></trkpt><trkpt lat="45.441719385730146" lon="9.2572850281802"><ele>104.0</ele><time>2026-04-03T07:01:28Z</time></trkpt><trkpt lat="45.441446048854814" lon="9.257203776755317"><ele>104.0</ele><time>2026-04-03T07:01:29Z</time></trkpt><trkpt lat="45.44117280327812" lon="9.257119162843104"><ele>104.0</ele><time>2026-04-03T07:01:30Z</time></trkpt><trkpt lat="45.4409025008916" lon="9.25703001522917"><ele>104.0</ele><time>2026-04-03T07:01:31Z</time></trkpt><trkpt lat="45.44063239013512" lon="9.256942084867957"><ele>104.5</ele><time>2026-04-03T07:01:32Z</time></trkpt><trkpt lat="45.44036038264885" lon="9.256859493432444"><ele>105.0</ele><time>2026-04-03T07:01:33Z</time></trkpt><trkpt lat="45.440090014342836" lon="9.256781727666038"><ele>105.0</ele><time>2026-04-03T07:01:33.999Z</time></trkpt><trkpt lat="45.439821612104375" lon="9.256707562349632"><ele>105.0</ele><time>2026-04-03T07:01:34.999Z</time></trkpt><trkpt lat="45.43955254080174" lon="9.256633212484985"><ele>104.5</ele><time>2026-04-03T07:01:35.999Z</time></trkpt><trkpt lat="45.43928547169113" lon="9.256557932037472"><ele>104.0</ele><time>2026-04-03T07:01:36.999Z</time></trkpt><trkpt lat="45.43901722145117" lon="9.256480241043203"><ele>104.5</ele><time>2026-04-03T07:01:37.999Z</time></trkpt><trkpt lat="45.43875246662357" lon="9.256403443960101"><ele>105.0</ele><time>2026-04-03T07:01:38.999Z</time></trkpt><trkpt lat="45.43848876721779" lon="9.256328624154046"><ele>105.0</ele><time>2026-04-03T07:01:39.999Z</time></trkpt><trkpt lat="45.43822472338825" lon="9.256253801183874"><ele>105.0</ele><time>2026-04-03T07:01:40.999Z</time></trkpt><trkpt lat="45.43796416347635" lon="9.256179762567042"><ele>106.5</ele><time>2026-04-03T07:01:41.999Z</time></trkpt><trkpt lat="45.437712353500274" lon="9.256108581305387"><ele>108.0</ele><time>2026-04-03T07:01:42.999Z</time></trkpt><trkpt lat="45.437460922908585" lon="9.256037873085512"><ele>108.0</ele><time>2026-04-03T07:01:43.999Z</time></trkpt><trkpt lat="45.43721130902605" lon="9.255962453580416"><ele>108.0</ele><time>2026-04-03T07:01:44.999Z</time></trkpt><trkpt lat="45.43696127709118" lon="9.255882394555165"><ele>107.0</ele><time>2026-04-03T07:01:45.999Z</time></trkpt><trkpt lat="45.436712591959775" lon="9.2557990056132"><ele>106.0</ele><time>2026-04-03T07:01:46.999Z</time></trkpt><trkpt lat="45.436462822192695" lon="9.255710633951912"><ele>104.5</ele><time>2026-04-03T07:01:47.999Z</time></trkpt><trkpt lat="45.43621650212847" lon="9.255616081501515"><ele>103.0</ele><time>2026-04-03T07:01:48.999Z</time></trkpt><trkpt lat="45.43597045067012" lon="9.255509229259403"><ele>103.0</ele><time>2026-04-03T07:01:49.999Z</time></trkpt><trkpt lat="45.43572500926804" lon="9.255391942211741"><ele>103.0</ele><time>2026-04-03T07:01:50.999Z</time></trkpt><trkpt lat="45.43548156841527" lon="9.255267538192028"><ele>104.5</ele><time>2026-04-03T07:01:51.999Z</time></trkpt><trkpt lat="45.435244880940786" lon="9.25513598056765"><ele>106.0</ele><time>2026-04-03T07:01:52.999Z</time></trkpt><trkpt lat="45.435010225136736" lon="9.255010294031695"><ele>106.0</ele><time>2026-04-03T07:01:53.999Z</time></trkpt><trkpt lat="45.434775996449005" lon="9.254857946108437"><ele>106.0</ele><time>2026-04-03T07:01:54.999Z</time></trkpt><trkpt lat="45.434544841440704" lon="9.254708897568577"><ele>106.5</ele><time>2026-04-03T07:01:55.999Z</time></trkpt><trkpt lat="45.43431636266839" lon="9.254554932911747"><ele>107.0</ele><time>2026-04-03T07:01:56.999Z</time></trkpt><trkpt lat="45.43409326343626" lon="9.254392783600705"><ele>107.0</ele><time>2026-04-03T07:01:57.999Z</time></trkpt><trkpt lat="45.43387501564401" lon="9.254224592654753"><ele>107.0</ele><time>2026-04-03T07:01:58.999Z</time></trkpt><trkpt lat="45.43366022173164" lon="9.254049843238858"><ele>107.0</ele><time>2026-04-03T07:01:59.999Z</time></trkpt><trkpt lat="45.43344886663583" lon="9.25387030912402"><ele>107.0</ele><time>2026-04-03T07:02:00.999Z</time></trkpt><trkpt lat="45.43324001163333" lon="9.2536880498895"><ele>107.0</ele><time>2026-04-03T07:02:01.999Z</time></trkpt><trkpt lat="45.43303663484368" lon="9.253500102069943"><ele>107.0</ele><time>2026-04-03T07:02:02.999Z</time></trkpt><trkpt lat="45.432838337748315" lon="9.25330864167687"><ele>104.5</ele><time>2026-04-03T07:02:03.999Z</time></trkpt><trkpt lat="45.432645637828955" lon="9.253113259427248"><ele>102.0</ele><time>2026-04-03T07:02:04.999Z</time></trkpt><trkpt lat="45.432454071934885" lon="9.252909294083423"><ele>102.0</ele><time>2026-04-03T07:02:05.999Z</time></trkpt><trkpt lat="45.4322644431468" lon="9.252702742586806"><ele>102.0</ele><time>2026-04-03T07:02:06.999Z</time></trkpt><trkpt lat="45.43207722550056" lon="9.252488467710789"><ele>103.5</ele><time>2026-04-03T07:02:07.999Z</time></trkpt><trkpt lat="45.4318931285039" lon="9.252265486366815"><ele>105.0</ele><time>2026-04-03T07:02:08.999Z</time></trkpt><trkpt lat="45.43171158004836" lon="9.252033958416428"><ele>105.0</ele><time>2026-04-03T07:02:09.999Z</time></trkpt><trkpt lat="45.431537073617505" lon="9.251797108278833"><ele>105.0</ele><time>2026-04-03T07:02:10.999Z</time></trkpt><trkpt lat="45.43135983738608" lon="9.251557648743546"><ele>105.5</ele><time>2026-04-03T07:02:11.999Z</time></trkpt><trkpt lat="45.431191217584335" lon="9.251315538840256"><ele>106.0</ele><time>2026-04-03T07:02:12.999Z</time></trkpt><trkpt lat="45.431022916288796" lon="9.251070040272998"><ele>106.0</ele><time>2026-04-03T07:02:13.999Z</time></trkpt><trkpt lat="45.430857825379846" lon="9.25082570912257"><ele>106.0</ele><time>2026-04-03T07:02:14.999Z</time></trkpt><trkpt lat="45.430694957233676" lon="9.25058189832397"><ele>106.5</ele><time>2026-04-03T07:02:15.999Z</time></trkpt><trkpt lat="45.43053208130094" lon="9.250338767918995"><ele>107.0</ele><time>2026-04-03T07:02:17Z</time></trkpt><trkpt lat="45.430376134745934" lon="9.250099922914899"><ele>107.0</ele><time>2026-04-03T07:02:18Z</time></trkpt><trkpt lat="45.43022302663898" lon="9.249861093656989"><ele>107.0</ele><time>2026-04-03T07:02:19Z</time></trkpt><trkpt lat="45.430070609182195" lon="9.249623295033048"><ele>107.0</ele><time>2026-04-03T07:02:20Z</time></trkpt><trkpt lat="45.42991844341325" lon="9.249385745812642"><ele>107.0</ele><time>2026-04-03T07:02:21Z</time></trkpt><trkpt lat="45.42976845642318" lon="9.249146333225479"><ele>108.5</ele><time>2026-04-03T07:02:22Z</time></trkpt><trkpt lat="45.42961821342197" lon="9.248908997671654"><ele>110.0</ele><time>2026-04-03T07:02:23Z</time></trkpt><trkpt lat="45.42946369615994" lon="9.248670610203499"><ele>110.0</ele><time>2026-04-03T07:02:24Z</time></trkpt><trkpt lat="45.42930581784205" lon="9.248436310877684"><ele>110.0</ele><time>2026-04-03T07:02:25Z</time></trkpt><trkpt lat="45.42914886919451" lon="9.248197892944921"><ele>109.0</ele><time>2026-04-03T07:02:26Z</time></trkpt><trkpt lat="45.42898937985265" lon="9.247952658778017"><ele>108.0</ele><time>2026-04-03T07:02:27Z</time></trkpt><trkpt lat="45.4288288210628" lon="9.247707248201007"><ele>109.5</ele><time>2026-04-03T07:02:28Z</time></trkpt><trkpt lat="45.428665860528874" lon="9.247467991689653"><ele>111.0</ele><time>2026-04-03T07:02:29Z</time></trkpt><trkpt lat="45.42848915471988" lon="9.247231458697101"><ele>111.5</ele><time>2026-04-03T07:02:30Z</time></trkpt><trkpt lat="45.42830317434546" lon="9.247006016264967"><ele>112.0</ele><time>2026-04-03T07:02:31Z</time></trkpt><trkpt lat="45.42810724230179" lon="9.246790478935425"><ele>109.0</ele><time>2026-04-03T07:02:32Z</time></trkpt><trkpt lat="45.427902624455825" lon="9.246588232726909"><ele>106.0</ele><time>2026-04-03T07:02:33Z</time></trkpt><trkpt lat="45.42769107962077" lon="9.246398285498184"><ele>105.0</ele><time>2026-04-03T07:02:34Z</time></trkpt><trkpt lat="45.427474839616934" lon="9.246218620593433"><ele>104.0</ele><time>2026-04-03T07:02:35Z</time></trkpt><trkpt lat="45.42724722464938" lon="9.24605419262465"><ele>102.5</ele><time>2026-04-03T07:02:36Z</time></trkpt><trkpt lat="45.42701394708993" lon="9.245906151393928"><ele>101.0</ele><time>2026-04-03T07:02:37Z</time></trkpt><trkpt lat="45.426775790718054" lon="9.245776797657543"><ele>101.0</ele><time>2026-04-03T07:02:38Z</time></trkpt><trkpt lat="45.4265268787013" lon="9.245668090800725"><ele>101.0</ele><time>2026-04-03T07:02:39Z</time></trkpt><trkpt lat="45.42627500913387" lon="9.245578053969188"><ele>103.0</ele><time>2026-04-03T07:02:40Z</time></trkpt><trkpt lat="45.42601792108167" lon="9.245510492226565"><ele>105.0</ele><time>2026-04-03T07:02:41Z</time></trkpt><trkpt lat="45.42575881474375" lon="9.245463410453997"><ele>105.0</ele><time>2026-04-03T07:02:42Z</time></trkpt><trkpt lat="45.42549818009941" lon="9.245434544808639"><ele>105.0</ele><time>2026-04-03T07:02:43Z</time></trkpt><trkpt lat="45.42523789470493" lon="9.245426819566534"><ele>104.5</ele><time>2026-04-03T07:02:44Z</time></trkpt><trkpt lat="45.42497584470029" lon="9.245436321923373"><ele>104.0</ele><time>2026-04-03T07:02:45Z</time></trkpt><trkpt lat="45.424720669782076" lon="9.245457916873413"><ele>104.0</ele><time>2026-04-03T07:02:46Z</time></trkpt><trkpt lat="45.42446085479454" lon="9.245485287588494"><ele>104.0</ele><time>2026-04-03T07:02:47Z</time></trkpt><trkpt lat="45.424196471510164" lon="9.245514127735264"><ele>104.0</ele><time>2026-04-03T07:02:48Z</time></trkpt><trkpt lat="45.423929945680555" lon="9.245543155930344"><ele>104.0</ele><time>2026-04-03T07:02:49Z</time></trkpt><trkpt lat="45.423663778330855" lon="9.245572312602366"><ele>104.5</ele><time>2026-04-03T07:02:50Z</time></trkpt><trkpt lat="45.42338947107796" lon="9.245605868786072"><ele>105.0</ele><time>2026-04-03T07:02:51Z</time></trkpt><trkpt lat="45.42311318146503" lon="9.245637525393233"><ele>105.0</ele><time>2026-04-03T07:02:52Z</time></trkpt><trkpt lat="45.42283428774609" lon="9.245671586577078"><ele>105.0</ele><time>2026-04-03T07:02:53Z</time></trkpt><trkpt lat="45.42255255133349" lon="9.245707855734"><ele>105.0</ele><time>2026-04-03T07:02:54Z</time></trkpt><trkpt lat="45.422267796327056" lon="9.245743731703179"><ele>105.0</ele><time>2026-04-03T07:02:55Z</time></trkpt><trkpt lat="45.42198078353403" lon="9.245778143509812"><ele>106.0</ele><time>2026-04-03T07:02:56Z</time></trkpt><trkpt lat="45.421691831103246" lon="9.245812599340134"><ele>107.0</ele><time>2026-04-03T07:02:57Z</time></trkpt><trkpt lat="45.42140230513769" lon="9.245848166250669"><ele>107.0</ele><time>2026-04-03T07:02:58Z</time></trkpt><trkpt lat="45.421111448538696" lon="9.245885678168088"><ele>107.0</ele><time>2026-04-03T07:02:59Z</time></trkpt><trkpt lat="45.42081898115762" lon="9.245925119197723"><ele>107.0</ele><time>2026-04-03T07:03:00Z</time></trkpt><trkpt lat="45.42052614532723" lon="9.245970213833752"><ele>107.0</ele><time>2026-04-03T07:03:01Z</time></trkpt><trkpt lat="45.420233091575945" lon="9.246031310222206"><ele>106.0</ele><time>2026-04-03T07:03:02Z</time></trkpt><trkpt lat="45.41994149740429" lon="9.246111569038716"><ele>105.0</ele><time>2026-04-03T07:03:03Z</time></trkpt><trkpt lat="45.419650849294776" lon="9.246216204136623"><ele>105.0</ele><time>2026-04-03T07:03:04Z</time></trkpt><trkpt lat="45.41937127834894" lon="9.246341542264815"><ele>105.0</ele><time>2026-04-03T07:03:05Z</time></trkpt><trkpt lat="45.419095969758175" lon="9.246487578538876"><ele>105.0</ele><time>2026-04-03T07:03:06Z</time></trkpt><trkpt lat="45.41882956462326" lon="9.246653894359214"><ele>105.0</ele><time>2026-04-03T07:03:07Z</time></trkpt><trkpt lat="45.418572010439966" lon="9.24684056931468"><ele>103.0</ele><time>2026-04-03T07:03:08Z</time></trkpt><trkpt lat="45.41832235576151" lon="9.247046614661363"><ele>101.0</ele><time>2026-04-03T07:03:09Z</time></trkpt><trkpt lat="45.4180818880361" lon="9.247264964013242"><ele>100.5</ele><time>2026-04-03T07:03:10Z</time></trkpt><trkpt lat="45.41784966457836" lon="9.247503830934898"><ele>100.0</ele><time>2026-04-03T07:03:11Z</time></trkpt><trkpt lat="45.41762947606278" lon="9.247760127115171"><ele>100.0</ele><time>2026-04-03T07:03:12Z</time></trkpt><trkpt lat="45.41741910397273" lon="9.248034264497177"><ele>100.0</ele><time>2026-04-03T07:03:13Z</time></trkpt><trkpt lat="45.417217158196124" lon="9.248312755151796"><ele>101.0</ele><time>2026-04-03T07:03:14Z</time></trkpt><trkpt lat="45.41701946624425" lon="9.248599691130734"><ele>102.0</ele><time>2026-04-03T07:03:15Z</time></trkpt><trkpt lat="45.41682356917461" lon="9.248892597308343"><ele>102.0</ele><time>2026-04-03T07:03:16Z</time></trkpt><trkpt lat="45.4166283117001" lon="9.249186212071438"><ele>102.0</ele><time>2026-04-03T07:03:17Z</time></trkpt><trkpt lat="45.41643269342857" lon="9.249479655846432"><ele>102.0</ele><time>2026-04-03T07:03:18Z</time></trkpt><trkpt lat="45.41623736769938" lon="9.249771915078844"><ele>102.0</ele><time>2026-04-03T07:03:19Z</time></trkpt><trkpt lat="45.41604232155995" lon="9.250062668550608"><ele>102.5</ele><time>2026-04-03T07:03:20Z</time></trkpt><trkpt lat="45.415848445420366" lon="9.250354308746887"><ele>103.0</ele><time>2026-04-03T07:03:21Z</time></trkpt><trkpt lat="45.41565604766513" lon="9.250646392612992"><ele>101.0</ele><time>2026-04-03T07:03:22Z</time></trkpt><trkpt lat="45.41546431773937" lon="9.250937182652878"><ele>99.0</ele><time>2026-04-03T07:03:23Z</time></trkpt><trkpt lat="45.41527269515653" lon="9.251225119719509"><ele>99.0</ele><time>2026-04-03T07:03:24Z</time></trkpt><trkpt lat="45.41507986683541" lon="9.25151423510105"><ele>99.0</ele><time>2026-04-03T07:03:25Z</time></trkpt><trkpt lat="45.41488836987102" lon="9.251798656551802"><ele>99.0</ele><time>2026-04-03T07:03:26Z</time></trkpt><trkpt lat="45.41470204771308" lon="9.252078441519357"><ele>99.0</ele><time>2026-04-03T07:03:27Z</time></trkpt><trkpt lat="45.41452460280176" lon="9.252340870012217"><ele>102.5</ele><time>2026-04-03T07:03:28Z</time></trkpt><trkpt lat="45.41435527852075" lon="9.252580304299595"><ele>106.0</ele><time>2026-04-03T07:03:29Z</time></trkpt><trkpt lat="45.414192641669175" lon="9.252807657620545"><ele>106.0</ele><time>2026-04-03T07:03:30Z</time></trkpt><trkpt lat="45.41403636720987" lon="9.253028348332363"><ele>106.0</ele><time>2026-04-03T07:03:31Z</time></trkpt><trkpt lat="45.41387816054418" lon="9.253250942811457"><ele>106.0</ele><time>2026-04-03T07:03:31.999Z</time></trkpt><trkpt lat="45.41371743011775" lon="9.253470631422337"><ele>105.0</ele><time>2026-04-03T07:03:32.999Z</time></trkpt><trkpt lat="45.413557737407096" lon="9.25368701876256"><ele>104.0</ele><time>2026-04-03T07:03:33.999Z</time></trkpt><trkpt lat="45.41339763733503" lon="9.25389777119867"><ele>103.0</ele><time>2026-04-03T07:03:34.999Z</time></trkpt><trkpt lat="45.413233892905275" lon="9.254111193861908"><ele>102.33333333333334</ele><time>2026-04-03T07:03:35.999Z</time></trkpt><trkpt lat="45.41306991953902" lon="9.254325337257853"><ele>101.66666666666666</ele><time>2026-04-03T07:03:36.999Z</time></trkpt><trkpt lat="45.412904165734126" lon="9.254539630779238"><ele>101.0</ele><time>2026-04-03T07:03:37.999Z</time></trkpt><trkpt lat="45.41273997505208" lon="9.254754534180849"><ele>100.66666666666666</ele><time>2026-04-03T07:03:38.999Z</time></trkpt><trkpt lat="45.41257735608663" lon="9.254967570859181"><ele>100.33333333333334</ele><time>2026-04-03T07:03:39.999Z</time></trkpt><trkpt lat="45.41241263366379" lon="9.255181816695288"><ele>100.0</ele><time>2026-04-03T07:03:40.999Z</time></trkpt><trkpt lat="45.41224781363874" lon="9.255394741380695"><ele>100.0</ele><time>2026-04-03T07:03:41.999Z</time></trkpt><trkpt lat="45.41208066003798" lon="9.255607745747099"><ele>100.0</ele><time>2026-04-03T07:03:42.999Z</time></trkpt><trkpt lat="45.4119124356501" lon="9.25582170927824"><ele>100.0</ele><time>2026-04-03T07:03:43.999Z</time></trkpt><trkpt lat="45.411744769679736" lon="9.256035406682988"><ele>100.0</ele><time>2026-04-03T07:03:44.999Z</time></trkpt><trkpt lat="45.41157385619853" lon="9.256249569675152"><ele>100.5</ele><time>2026-04-03T07:03:45.999Z</time></trkpt><trkpt lat="45.41140097782018" lon="9.256464389686839"><ele>101.0</ele><time>2026-04-03T07:03:46.999Z</time></trkpt><trkpt lat="45.41122854996527" lon="9.256677114177537"><ele>100.0</ele><time>2026-04-03T07:03:47.999Z</time></trkpt><trkpt lat="45.41105340969189" lon="9.25689484427123"><ele>99.0</ele><time>2026-04-03T07:03:48.999Z</time></trkpt><trkpt lat="45.41087884973643" lon="9.257111976996635"><ele>100.5</ele><time>2026-04-03T07:03:49.999Z</time></trkpt><trkpt lat="45.41070604172384" lon="9.257331157281026"><ele>102.0</ele><time>2026-04-03T07:03:50.999Z</time></trkpt><trkpt lat="45.41053396152055" lon="9.257550753966436"><ele>101.0</ele><time>2026-04-03T07:03:51.999Z</time></trkpt><trkpt lat="45.41036114407398" lon="9.257765010173399"><ele>100.0</ele><time>2026-04-03T07:03:52.999Z</time></trkpt><trkpt lat="45.4101863109472" lon="9.257972468194486"><ele>100.66666666666667</ele><time>2026-04-03T07:03:53.999Z</time></trkpt><trkpt lat="45.41001171680238" lon="9.258173610177943"><ele>101.33333333333334</ele><time>2026-04-03T07:03:54.999Z</time></trkpt><trkpt lat="45.40984490178378" lon="9.258364371637953"><ele>102.0</ele><time>2026-04-03T07:03:55.999Z</time></trkpt><trkpt lat="45.40967792244547" lon="9.25855705729113"><ele>100.66666666666666</ele><time>2026-04-03T07:03:56.999Z</time></trkpt><trkpt lat="45.40951249914967" lon="9.258751869684945"><ele>99.33333333333333</ele><time>2026-04-03T07:03:57.999Z</time></trkpt><trkpt lat="45.409348506603244" lon="9.258952259748071"><ele>98.0</ele><time>2026-04-03T07:03:58.999Z</time></trkpt><trkpt lat="45.409187008292896" lon="9.259151070772747"><ele>98.0</ele><time>2026-04-03T07:03:59.999Z</time></trkpt><trkpt lat="45.40902903108804" lon="9.25934837119494"><ele>98.0</ele><time>2026-04-03T07:04:00.999Z</time></trkpt><trkpt lat="45.40887128413202" lon="9.259544449905842"><ele>98.0</ele><time>2026-04-03T07:04:01.999Z</time></trkpt><trkpt lat="45.40871500456907" lon="9.259733083379112"><ele>98.0</ele><time>2026-04-03T07:04:02.999Z</time></trkpt><trkpt lat="45.40855331672717" lon="9.259919661019262"><ele>98.0</ele><time>2026-04-03T07:04:03.999Z</time></trkpt><trkpt lat="45.40839106508948" lon="9.260096047029363"><ele>98.0</ele><time>2026-04-03T07:04:04.999Z</time></trkpt><trkpt lat="45.40822465006377" lon="9.260263856112532"><ele>98.0</ele><time>2026-04-03T07:04:05.999Z</time></trkpt><trkpt lat="45.408054749598314" lon="9.2604212354073"><ele>98.0</ele><time>2026-04-03T07:04:06.999Z</time></trkpt><trkpt lat="45.40788364622016" lon="9.260563767684475"><ele>98.0</ele><time>2026-04-03T07:04:07.999Z</time></trkpt><trkpt lat="45.40770155408891" lon="9.260697603450854"><ele>98.0</ele><time>2026-04-03T07:04:08.999Z</time></trkpt><trkpt lat="45.407515767435335" lon="9.26081976621677"><ele>98.0</ele><time>2026-04-03T07:04:09.999Z</time></trkpt><trkpt lat="45.40732264458428" lon="9.260933005036582"><ele>98.0</ele><time>2026-04-03T07:04:10.999Z</time></trkpt><trkpt lat="45.40711849507987" lon="9.261028974349582"><ele>98.33333333333333</ele><time>2026-04-03T07:04:11.999Z</time></trkpt><trkpt lat="45.40690763049103" lon="9.261115388824082"><ele>98.66666666666666</ele><time>2026-04-03T07:04:12.999Z</time></trkpt><trkpt lat="45.40668801992027" lon="9.26118044408655"><ele>99.0</ele><time>2026-04-03T07:04:13.999Z</time></trkpt><trkpt lat="45.40646111982915" lon="9.261238886461348"><ele>99.5</ele><time>2026-04-03T07:04:14.999Z</time></trkpt><trkpt lat="45.40621720246657" lon="9.261284808480065"><ele>100.0</ele><time>2026-04-03T07:04:15.999Z</time></trkpt><trkpt lat="45.405971152941696" lon="9.26130421192164"><ele>100.0</ele><time>2026-04-03T07:04:16.999Z</time></trkpt><trkpt lat="45.4057208264592" lon="9.261301347056529"><ele>100.0</ele><time>2026-04-03T07:04:17.999Z</time></trkpt><trkpt lat="45.405465914594934" lon="9.26129184520971"><ele>99.0</ele><time>2026-04-03T07:04:18.999Z</time></trkpt><trkpt lat="45.40520955898717" lon="9.261270570494807"><ele>98.0</ele><time>2026-04-03T07:04:19.999Z</time></trkpt><trkpt lat="45.40495159155445" lon="9.261243332426215"><ele>98.0</ele><time>2026-04-03T07:04:20.999Z</time></trkpt><trkpt lat="45.40469216582728" lon="9.26120783586381"><ele>98.0</ele><time>2026-04-03T07:04:21.999Z</time></trkpt><trkpt lat="45.404432405906576" lon="9.261174632431556"><ele>98.5</ele><time>2026-04-03T07:04:23Z</time></trkpt><trkpt lat="45.40417101470846" lon="9.26114317195744"><ele>99.0</ele><time>2026-04-03T07:04:24Z</time></trkpt><trkpt lat="45.40390937389454" lon="9.261113599333674"><ele>99.5</ele><time>2026-04-03T07:04:25Z</time></trkpt><trkpt lat="45.4036487477053" lon="9.261082226329552"><ele>100.0</ele><time>2026-04-03T07:04:26Z</time></trkpt><trkpt lat="45.40338712174591" lon="9.261048682338032"><ele>100.0</ele><time>2026-04-03T07:04:27Z</time></trkpt><trkpt lat="45.40312123215156" lon="9.261017465469806"><ele>100.0</ele><time>2026-04-03T07:04:28Z</time></trkpt><trkpt lat="45.40285924759965" lon="9.260987344326885"><ele>99.5</ele><time>2026-04-03T07:04:29Z</time></trkpt><trkpt lat="45.402596529120956" lon="9.260962170267508"><ele>99.0</ele><time>2026-04-03T07:04:30Z</time></trkpt><trkpt lat="45.402332174703474" lon="9.260935510260628"><ele>99.0</ele><time>2026-04-03T07:04:31Z</time></trkpt><trkpt lat="45.40207326854431" lon="9.260905466830986"><ele>99.0</ele><time>2026-04-03T07:04:32Z</time></trkpt><trkpt lat="45.401810190301454" lon="9.260878977157365"><ele>99.0</ele><time>2026-04-03T07:04:33Z</time></trkpt><trkpt lat="45.401550702686706" lon="9.260849350201267"><ele>99.0</ele><time>2026-04-03T07:04:34Z</time></trkpt><trkpt lat="45.401290407954434" lon="9.260819861097707"><ele>98.5</ele><time>2026-04-03T07:04:35Z</time></trkpt><trkpt lat="45.401030802300404" lon="9.260791637702305"><ele>98.0</ele><time>2026-04-03T07:04:36Z</time></trkpt><trkpt lat="45.40077235110254" lon="9.260764488335296"><ele>98.0</ele><time>2026-04-03T07:04:37Z</time></trkpt><trkpt lat="45.40051373924455" lon="9.260738665113118"><ele>98.0</ele><time>2026-04-03T07:04:38Z</time></trkpt><trkpt lat="45.40025492826039" lon="9.260715764683482"><ele>98.0</ele><time>2026-04-03T07:04:39Z</time></trkpt><trkpt lat="45.39999849954064" lon="9.260689816313793"><ele>98.0</ele><time>2026-04-03T07:04:40Z</time></trkpt><trkpt lat="45.39973881426594" lon="9.260663940112478"><ele>99.0</ele><time>2026-04-03T07:04:41Z</time></trkpt><trkpt lat="45.399484130317866" lon="9.260635242203412"><ele>100.0</ele><time>2026-04-03T07:04:42Z</time></trkpt><trkpt lat="45.39922842054419" lon="9.260606976038307"><ele>100.0</ele><time>2026-04-03T07:04:43Z</time></trkpt><trkpt lat="45.398968129979664" lon="9.2605799380707"><ele>100.0</ele><time>2026-04-03T07:04:44Z</time></trkpt><trkpt lat="45.39870856599471" lon="9.260553639453622"><ele>100.5</ele><time>2026-04-03T07:04:45Z</time></trkpt><trkpt lat="45.39845070636605" lon="9.260527588944464"><ele>101.0</ele><time>2026-04-03T07:04:46Z</time></trkpt><trkpt lat="45.39819349153676" lon="9.260498789943114"><ele>101.0</ele><time>2026-04-03T07:04:47Z</time></trkpt><trkpt lat="45.39793473228358" lon="9.26046849637961"><ele>101.0</ele><time>2026-04-03T07:04:48Z</time></trkpt><trkpt lat="45.39766798114627" lon="9.26044103765987"><ele>101.0</ele><time>2026-04-03T07:04:49Z</time></trkpt><trkpt lat="45.3974162776466" lon="9.260407921953538"><ele>101.0</ele><time>2026-04-03T07:04:50Z</time></trkpt><trkpt lat="45.39715738371144" lon="9.260377503205158"><ele>100.5</ele><time>2026-04-03T07:04:51Z</time></trkpt><trkpt lat="45.39689920244653" lon="9.260349081200768"><ele>100.0</ele><time>2026-04-03T07:04:52Z</time></trkpt><trkpt lat="45.396640046941656" lon="9.260325458881127"><ele>100.0</ele><time>2026-04-03T07:04:53Z</time></trkpt><trkpt lat="45.39638118134966" lon="9.260306255213532"><ele>100.0</ele><time>2026-04-03T07:04:54Z</time></trkpt><trkpt lat="45.39612249930492" lon="9.26029159297656"><ele>100.0</ele><time>2026-04-03T07:04:55Z</time></trkpt><trkpt lat="45.39586283877922" lon="9.260281498056958"><ele>100.0</ele><time>2026-04-03T07:04:56Z</time></trkpt><trkpt lat="45.395602768937565" lon="9.260275797858684"><ele>100.0</ele><time>2026-04-03T07:04:57Z</time></trkpt><trkpt lat="45.39534275614934" lon="9.26027772724409"><ele>100.0</ele><time>2026-04-03T07:04:58Z</time></trkpt><trkpt lat="45.395083087311015" lon="9.260288755912486"><ele>100.0</ele><time>2026-04-03T07:04:59Z</time></trkpt><trkpt lat="45.3948258347949" lon="9.260306365398403"><ele>100.0</ele><time>2026-04-03T07:05:00Z</time></trkpt><trkpt lat="45.39456868580948" lon="9.260334270105204"><ele>101.0</ele><time>2026-04-03T07:05:01Z</time></trkpt><trkpt lat="45.39431240113164" lon="9.26036596473079"><ele>102.0</ele><time>2026-04-03T07:05:02Z</time></trkpt><trkpt lat="45.39405809587668" lon="9.260402618457908"><ele>101.5</ele><time>2026-04-03T07:05:03Z</time></trkpt><trkpt lat="45.39380355428923" lon="9.2604486027261"><ele>101.0</ele><time>2026-04-03T07:05:04Z</time></trkpt><trkpt lat="45.39355112190402" lon="9.260503875173073"><ele>101.0</ele><time>2026-04-03T07:05:05Z</time></trkpt><trkpt lat="45.3933011787995" lon="9.260572668199668"><ele>101.0</ele><time>2026-04-03T07:05:06Z</time></trkpt><trkpt lat="45.39305196109498" lon="9.260646984956875"><ele>101.0</ele><time>2026-04-03T07:05:07Z</time></trkpt><trkpt lat="45.392802220918455" lon="9.26073000507708"><ele>101.0</ele><time>2026-04-03T07:05:08Z</time></trkpt><trkpt lat="45.3925560596727" lon="9.260815852561551"><ele>101.0</ele><time>2026-04-03T07:05:09Z</time></trkpt><trkpt lat="45.39231667966737" lon="9.260906103838435"><ele>101.0</ele><time>2026-04-03T07:05:10Z</time></trkpt><trkpt lat="45.39208388273911" lon="9.261002475843298"><ele>99.5</ele><time>2026-04-03T07:05:11Z</time></trkpt><trkpt lat="45.391860090739385" lon="9.261104720846296"><ele>98.0</ele><time>2026-04-03T07:05:12Z</time></trkpt><trkpt lat="45.39164864073212" lon="9.261198082020936"><ele>98.0</ele><time>2026-04-03T07:05:13Z</time></trkpt><trkpt lat="45.39144101372274" lon="9.261302792251948"><ele>98.0</ele><time>2026-04-03T07:05:14Z</time></trkpt><trkpt lat="45.391243396915634" lon="9.261413368651686"><ele>98.0</ele><time>2026-04-03T07:05:15Z</time></trkpt><trkpt lat="45.39105026144969" lon="9.2615290545699"><ele>98.33333333333333</ele><time>2026-04-03T07:05:16Z</time></trkpt><trkpt lat="45.39086158049757" lon="9.261644951071291"><ele>98.66666666666666</ele><time>2026-04-03T07:05:17Z</time></trkpt><trkpt lat="45.390676832587864" lon="9.261766022028091"><ele>99.0</ele><time>2026-04-03T07:05:18Z</time></trkpt><trkpt lat="45.39049489351028" lon="9.261892458593692"><ele>99.0</ele><time>2026-04-03T07:05:19Z</time></trkpt><trkpt lat="45.39031154852506" lon="9.262029049803655"><ele>99.0</ele><time>2026-04-03T07:05:20Z</time></trkpt><trkpt lat="45.39012582698957" lon="9.262171696315466"><ele>99.0</ele><time>2026-04-03T07:05:21Z</time></trkpt><trkpt lat="45.3899404482229" lon="9.262322775307618"><ele>98.33333333333334</ele><time>2026-04-03T07:05:22Z</time></trkpt><trkpt lat="45.389756144195246" lon="9.262483748900662"><ele>97.66666666666667</ele><time>2026-04-03T07:05:23Z</time></trkpt><trkpt lat="45.38957133049095" lon="9.262649111844972"><ele>97.0</ele><time>2026-04-03T07:05:24Z</time></trkpt><trkpt lat="45.38938868289231" lon="9.262822246495093"><ele>97.0</ele><time>2026-04-03T07:05:25Z</time></trkpt><trkpt lat="45.38920696679421" lon="9.263001487572758"><ele>97.0</ele><time>2026-04-03T07:05:26Z</time></trkpt><trkpt lat="45.389025438927256" lon="9.263183118752103"><ele>97.0</ele><time>2026-04-03T07:05:27Z</time></trkpt><trkpt lat="45.388844870841616" lon="9.263365302844852"><ele>97.33333333333334</ele><time>2026-04-03T07:05:28Z</time></trkpt><trkpt lat="45.388666974155214" lon="9.263550834942466"><ele>97.66666666666666</ele><time>2026-04-03T07:05:29Z</time></trkpt><trkpt lat="45.3884901851161" lon="9.26373469050137"><ele>98.0</ele><time>2026-04-03T07:05:30Z</time></trkpt><trkpt lat="45.388315140296825" lon="9.263916505974176"><ele>98.33333333333333</ele><time>2026-04-03T07:05:31Z</time></trkpt><trkpt lat="45.388148284356625" lon="9.264094727820341"><ele>98.66666666666666</ele><time>2026-04-03T07:05:32Z</time></trkpt><trkpt lat="45.38798944605833" lon="9.264269690124353"><ele>99.0</ele><time>2026-04-03T07:05:32.999Z</time></trkpt><trkpt lat="45.38783908790917" lon="9.264436488430576"><ele>99.0</ele><time>2026-04-03T07:05:33.999Z</time></trkpt><trkpt lat="45.38769434679489" lon="9.264595297511159"><ele>99.0</ele><time>2026-04-03T07:05:34.999Z</time></trkpt><trkpt lat="45.38754660634448" lon="9.26476078702536"><ele>99.0</ele><time>2026-04-03T07:05:35.999Z</time></trkpt><trkpt lat="45.387402932983164" lon="9.264925494872312"><ele>98.66666666666666</ele><time>2026-04-03T07:05:36.999Z</time></trkpt><trkpt lat="45.387261161636275" lon="9.265091049669726"><ele>98.33333333333333</ele><time>2026-04-03T07:05:37.999Z</time></trkpt><trkpt lat="45.3871178798289" lon="9.265259035713438"><ele>98.0</ele><time>2026-04-03T07:05:38.999Z</time></trkpt><trkpt lat="45.38697702814266" lon="9.265422440260153"><ele>97.66666666666666</ele><time>2026-04-03T07:05:39.999Z</time></trkpt><trkpt lat="45.386838697812706" lon="9.265583328372694"><ele>97.33333333333334</ele><time>2026-04-03T07:05:40.999Z</time></trkpt><trkpt lat="45.38670031077611" lon="9.265746196325738"><ele>97.0</ele><time>2026-04-03T07:05:41.999Z</time></trkpt><trkpt lat="45.38656159521741" lon="9.265910764248282"><ele>97.0</ele><time>2026-04-03T07:05:42.999Z</time></trkpt><trkpt lat="45.38642511239578" lon="9.266073136618049"><ele>97.0</ele><time>2026-04-03T07:05:43.999Z</time></trkpt><trkpt lat="45.38628559088629" lon="9.266237563170542"><ele>97.0</ele><time>2026-04-03T07:05:44.999Z</time></trkpt><trkpt lat="45.386147746405435" lon="9.266402071548686"><ele>97.0</ele><time>2026-04-03T07:05:45.999Z</time></trkpt><trkpt lat="45.38601211968794" lon="9.266564740279593"><ele>97.0</ele><time>2026-04-03T07:05:46.999Z</time></trkpt><trkpt lat="45.385874341014954" lon="9.2667265488072"><ele>97.0</ele><time>2026-04-03T07:05:47.999Z</time></trkpt><trkpt lat="45.385729520698995" lon="9.266891663216835"><ele>97.0</ele><time>2026-04-03T07:05:48.999Z</time></trkpt><trkpt lat="45.38557968283206" lon="9.267044450174065"><ele>97.0</ele><time>2026-04-03T07:05:49.999Z</time></trkpt><trkpt lat="45.38541828761933" lon="9.267190188254194"><ele>97.0</ele><time>2026-04-03T07:05:50.999Z</time></trkpt><trkpt lat="45.385248999043796" lon="9.267310649958548"><ele>97.0</ele><time>2026-04-03T07:05:51.999Z</time></trkpt><trkpt lat="45.38506988298224" lon="9.267409370632054"><ele>97.0</ele><time>2026-04-03T07:05:52.999Z</time></trkpt><trkpt lat="45.38488455616002" lon="9.267489136946967"><ele>97.0</ele><time>2026-04-03T07:05:53.999Z</time></trkpt><trkpt lat="45.38469614676844" lon="9.267540844302005"><ele>97.66666666666667</ele><time>2026-04-03T07:05:54.999Z</time></trkpt><trkpt lat="45.384504339170796" lon="9.26757050466374"><ele>98.33333333333334</ele><time>2026-04-03T07:05:55.999Z</time></trkpt><trkpt lat="45.384315901853995" lon="9.26756683114289"><ele>99.0</ele><time>2026-04-03T07:05:56.999Z</time></trkpt><trkpt lat="45.38412761387262" lon="9.267533271537065"><ele>99.0</ele><time>2026-04-03T07:05:57.999Z</time></trkpt><trkpt lat="45.3839493906368" lon="9.26747100020545"><ele>99.0</ele><time>2026-04-03T07:05:58.999Z</time></trkpt><trkpt lat="45.38378177714076" lon="9.26738084757091"><ele>99.0</ele><time>2026-04-03T07:05:59.999Z</time></trkpt><trkpt lat="45.38362498357441" lon="9.267265692041795"><ele>99.66666666666666</ele><time>2026-04-03T07:06:00.999Z</time></trkpt><trkpt lat="45.383485785660426" lon="9.267123555082735"><ele>100.33333333333333</ele><time>2026-04-03T07:06:01.999Z</time></trkpt><trkpt lat="45.383367850656896" lon="9.266954658584048"><ele>101.0</ele><time>2026-04-03T07:06:02.999Z</time></trkpt><trkpt lat="45.38326557084276" lon="9.266771252764315"><ele>101.0</ele><time>2026-04-03T07:06:03.999Z</time></trkpt><trkpt lat="45.38316495273926" lon="9.266590644482195"><ele>101.0</ele><time>2026-04-03T07:06:04.999Z</time></trkpt><trkpt lat="45.383058543095615" lon="9.266416014341466"><ele>101.0</ele><time>2026-04-03T07:06:05.999Z</time></trkpt><trkpt lat="45.382957713612434" lon="9.266256246619855"><ele>100.75</ele><time>2026-04-03T07:06:06.999Z</time></trkpt><trkpt lat="45.382860615604024" lon="9.266101745416993"><ele>100.5</ele><time>2026-04-03T07:06:07.999Z</time></trkpt><trkpt lat="45.38276722321778" lon="9.265939840415301"><ele>100.25</ele><time>2026-04-03T07:06:08.999Z</time></trkpt><trkpt lat="45.38267798958965" lon="9.265764582099777"><ele>100.0</ele><time>2026-04-03T07:06:09.999Z</time></trkpt><trkpt lat="45.38260180568291" lon="9.26557594376479"><ele>100.0</ele><time>2026-04-03T07:06:10.999Z</time></trkpt><trkpt lat="45.38253739521946" lon="9.265372265141716"><ele>100.0</ele><time>2026-04-03T07:06:11.999Z</time></trkpt><trkpt lat="45.38247979628048" lon="9.26515737680251"><ele>100.0</ele><time>2026-04-03T07:06:12.999Z</time></trkpt><trkpt lat="45.3824321586367" lon="9.264928631790996"><ele>99.0</ele><time>2026-04-03T07:06:13.999Z</time></trkpt><trkpt lat="45.3823927848205" lon="9.264695088448438"><ele>98.0</ele><time>2026-04-03T07:06:14.999Z</time></trkpt><trkpt lat="45.3823711661783" lon="9.264446359620258"><ele>97.0</ele><time>2026-04-03T07:06:15.999Z</time></trkpt><trkpt lat="45.38236533391366" lon="9.264192241294806"><ele>97.0</ele><time>2026-04-03T07:06:16.999Z</time></trkpt><trkpt lat="45.38237308979971" lon="9.26393906907974"><ele>97.0</ele><time>2026-04-03T07:06:17.999Z</time></trkpt><trkpt lat="45.38237111484964" lon="9.263683740915624"><ele>97.0</ele><time>2026-04-03T07:06:18.999Z</time></trkpt><trkpt lat="45.382386997287156" lon="9.263419592185887"><ele>97.0</ele><time>2026-04-03T07:06:19.999Z</time></trkpt><trkpt lat="45.38241994597568" lon="9.263161891900609"><ele>97.0</ele><time>2026-04-03T07:06:20.999Z</time></trkpt><trkpt lat="45.38243501593866" lon="9.262898476895058"><ele>97.0</ele><time>2026-04-03T07:06:21.999Z</time></trkpt><trkpt lat="45.38244931373805" lon="9.262629463733942"><ele>97.33333333333334</ele><time>2026-04-03T07:06:22.999Z</time></trkpt><trkpt lat="45.38246636021685" lon="9.26236105734672"><ele>97.66666666666666</ele><time>2026-04-03T07:06:23.999Z</time></trkpt><trkpt lat="45.382481342479586" lon="9.262094241084576"><ele>98.0</ele><time>2026-04-03T07:06:24.999Z</time></trkpt><trkpt lat="45.38249677618433" lon="9.261826577542186"><ele>98.33333333333333</ele><time>2026-04-03T07:06:25.999Z</time></trkpt><trkpt lat="45.382512721272505" lon="9.261556335772426"><ele>98.66666666666666</ele><time>2026-04-03T07:06:26.999Z</time></trkpt><trkpt lat="45.38252962882793" lon="9.261286217672527"><ele>99.0</ele><time>2026-04-03T07:06:27.999Z</time></trkpt><trkpt lat="45.38254610865898" lon="9.261014719470177"><ele>98.33333333333334</ele><time>2026-04-03T07:06:29Z</time></trkpt><trkpt lat="45.382562953881596" lon="9.260741941671892"><ele>97.66666666666667</ele><time>2026-04-03T07:06:30Z</time></trkpt><trkpt lat="45.38257920679004" lon="9.260471448665948"><ele>97.0</ele><time>2026-04-03T07:06:31Z</time></trkpt><trkpt lat="45.38259619389276" lon="9.260198705321418"><ele>97.0</ele><time>2026-04-03T07:06:32Z</time></trkpt><trkpt lat="45.38261269975347" lon="9.259926475086962"><ele>97.0</ele><time>2026-04-03T07:06:33Z</time></trkpt><trkpt lat="45.382627433344034" lon="9.259652269260068"><ele>97.0</ele><time>2026-04-03T07:06:34Z</time></trkpt><trkpt lat="45.38263851366904" lon="9.259378402983705"><ele>97.33333333333334</ele><time>2026-04-03T07:06:35Z</time></trkpt><trkpt lat="45.38264764351597" lon="9.25910498591517"><ele>97.66666666666666</ele><time>2026-04-03T07:06:36Z</time></trkpt><trkpt lat="45.38266018032309" lon="9.258826927544892"><ele>98.0</ele><time>2026-04-03T07:06:37Z</time></trkpt><trkpt lat="45.382673178390895" lon="9.25854872868353"><ele>98.0</ele><time>2026-04-03T07:06:38Z</time></trkpt><trkpt lat="45.38268754900545" lon="9.258268469571693"><ele>98.0</ele><time>2026-04-03T07:06:39Z</time></trkpt><trkpt lat="45.38270320657045" lon="9.257983962683953"><ele>98.0</ele><time>2026-04-03T07:06:40Z</time></trkpt><trkpt lat="45.38271799075197" lon="9.257702467493738"><ele>98.0</ele><time>2026-04-03T07:06:41Z</time></trkpt><trkpt lat="45.382734664726186" lon="9.25741382569168"><ele>98.0</ele><time>2026-04-03T07:06:42Z</time></trkpt><trkpt lat="45.382752065892696" lon="9.257123466022822"><ele>98.0</ele><time>2026-04-03T07:06:43Z</time></trkpt><trkpt lat="45.38276911230079" lon="9.256834332892502"><ele>97.66666666666666</ele><time>2026-04-03T07:06:44Z</time></trkpt><trkpt lat="45.382786495272754" lon="9.256544523055432"><ele>97.33333333333334</ele><time>2026-04-03T07:06:45Z</time></trkpt><trkpt lat="45.38280357494089" lon="9.256250227197446"><ele>97.0</ele><time>2026-04-03T07:06:46Z</time></trkpt><trkpt lat="45.38282157913368" lon="9.255954073246093"><ele>97.0</ele><time>2026-04-03T07:06:47Z</time></trkpt><trkpt lat="45.38283911619497" lon="9.255659479279641"><ele>97.0</ele><time>2026-04-03T07:06:48Z</time></trkpt><trkpt lat="45.382858646106655" lon="9.255364699897477"><ele>97.0</ele><time>2026-04-03T07:06:49Z</time></trkpt><trkpt lat="45.38288062832788" lon="9.2550710145956"><ele>97.33333333333334</ele><time>2026-04-03T07:06:50Z</time></trkpt><trkpt lat="45.382902372770026" lon="9.254776309327612"><ele>97.66666666666666</ele><time>2026-04-03T07:06:51Z</time></trkpt><trkpt lat="45.38292467543969" lon="9.254489460918592"><ele>98.0</ele><time>2026-04-03T07:06:52Z</time></trkpt><trkpt lat="45.38294858472134" lon="9.254198440132487"><ele>98.0</ele><time>2026-04-03T07:06:53Z</time></trkpt><trkpt lat="45.38297006444082" lon="9.253910752153827"><ele>98.0</ele><time>2026-04-03T07:06:54Z</time></trkpt><trkpt lat="45.38298885260579" lon="9.253626092690915"><ele>98.0</ele><time>2026-04-03T07:06:55Z</time></trkpt><trkpt lat="45.383005903905605" lon="9.253358380917728"><ele>98.33333333333333</ele><time>2026-04-03T07:06:56Z</time></trkpt><trkpt lat="45.38302123585881" lon="9.253103150151784"><ele>98.66666666666666</ele><time>2026-04-03T07:06:57Z</time></trkpt><trkpt lat="45.38303830125912" lon="9.252858954489191"><ele>99.0</ele><time>2026-04-03T07:06:58Z</time></trkpt><trkpt lat="45.38305638338262" lon="9.25263001233988"><ele>99.0</ele><time>2026-04-03T07:06:59Z</time></trkpt><trkpt lat="45.383081358891715" lon="9.252415266585215"><ele>99.0</ele><time>2026-04-03T07:07:00Z</time></trkpt><trkpt lat="45.383124330183755" lon="9.252223156688586"><ele>99.0</ele><time>2026-04-03T07:07:01Z</time></trkpt><trkpt lat="45.383184934558045" lon="9.252054772423643"><ele>99.0</ele><time>2026-04-03T07:07:02Z</time></trkpt><trkpt lat="45.383247760751175" lon="9.251908691831204"><ele>99.2</ele><time>2026-04-03T07:07:03Z</time></trkpt><trkpt lat="45.383293726708736" lon="9.251775405210445"><ele>99.4</ele><time>2026-04-03T07:07:04Z</time></trkpt><trkpt lat="45.38332009311141" lon="9.251647164705016"><ele>99.6</ele><time>2026-04-03T07:07:05Z</time></trkpt><trkpt lat="45.38332811735334" lon="9.251534122449742"><ele>99.8</ele><time>2026-04-03T07:07:06Z</time></trkpt><trkpt lat="45.38332496190397" lon="9.25143542974009"><ele>100.0</ele><time>2026-04-03T07:07:07Z</time></trkpt><trkpt lat="45.383311705714966" lon="9.251269420852521"><ele>100.0</ele><time>2026-04-03T07:07:09Z</time></trkpt><trkpt lat="45.38324482228134" lon="9.251159657946307"><ele>100.0</ele><time>2026-04-03T07:07:11Z</time></trkpt><trkpt lat="45.38320969479073" lon="9.25105561537157"><ele>100.0</ele><time>2026-04-03T07:07:13Z</time></trkpt><trkpt lat="45.3832165158286" lon="9.25090970846258"><ele>100.0</ele><time>2026-04-03T07:07:15Z</time></trkpt><trkpt lat="45.383226676794074" lon="9.250764107258282"><ele>100.0</ele><time>2026-04-03T07:07:17Z</time></trkpt><trkpt lat="45.383252625256" lon="9.250635122452817"><ele>99.83333333333334</ele><time>2026-04-03T07:07:19Z</time></trkpt><trkpt lat="45.38329093127478" lon="9.250534890778358"><ele>99.66666666666667</ele><time>2026-04-03T07:07:22Z</time></trkpt><trkpt lat="45.38326704717712" lon="9.25042367948444"><ele>99.5</ele><time>2026-04-03T07:09:09Z</time></trkpt><trkpt lat="45.38327061772533" lon="9.250333014727413"><ele>99.33333333333334</ele><time>2026-04-03T07:09:10Z</time></trkpt><trkpt lat="45.38327399913496" lon="9.25022371767116"><ele>99.16666666666667</ele><time>2026-04-03T07:09:11Z</time></trkpt><trkpt lat="45.38327005981466" lon="9.250096519669567"><ele>99.0</ele><time>2026-04-03T07:09:12Z</time></trkpt><trkpt lat="45.38325989435189" lon="9.249956977681263"><ele>99.0</ele><time>2026-04-03T07:09:13Z</time></trkpt><trkpt lat="45.38325104069733" lon="9.249798214623413"><ele>99.0</ele><time>2026-04-03T07:09:14Z</time></trkpt><trkpt lat="45.383243298708315" lon="9.249636691946634"><ele>99.0</ele><time>2026-04-03T07:09:15Z</time></trkpt><trkpt lat="45.383245047571044" lon="9.249455542208336"><ele>99.0</ele><time>2026-04-03T07:09:16Z</time></trkpt><trkpt lat="45.38325658835051" lon="9.249264371636176"><ele>98.75</ele><time>2026-04-03T07:09:17Z</time></trkpt><trkpt lat="45.383270430193875" lon="9.249064500096413"><ele>98.5</ele><time>2026-04-03T07:09:18Z</time></trkpt><trkpt lat="45.38328116737187" lon="9.24885306953698"><ele>98.25</ele><time>2026-04-03T07:09:19Z</time></trkpt><trkpt lat="45.383289502096346" lon="9.248637961976767"><ele>98.0</ele><time>2026-04-03T07:09:20Z</time></trkpt><trkpt lat="45.38329489940129" lon="9.248413510764394"><ele>98.0</ele><time>2026-04-03T07:09:21Z</time></trkpt><trkpt lat="45.383299780208326" lon="9.24816910065148"><ele>98.0</ele><time>2026-04-03T07:09:22Z</time></trkpt><trkpt lat="45.38330467202556" lon="9.247922607303838"><ele>98.0</ele><time>2026-04-03T07:09:23Z</time></trkpt><trkpt lat="45.38331315095583" lon="9.247656391556724"><ele>98.0</ele><time>2026-04-03T07:09:24Z</time></trkpt><trkpt lat="45.38332424145841" lon="9.247381147680018"><ele>98.0</ele><time>2026-04-03T07:09:25Z</time></trkpt><trkpt lat="45.383339938206404" lon="9.247099957089487"><ele>98.0</ele><time>2026-04-03T07:09:26Z</time></trkpt><trkpt lat="45.383357034804106" lon="9.246818792494796"><ele>98.0</ele><time>2026-04-03T07:09:27Z</time></trkpt><trkpt lat="45.38337127320767" lon="9.24653247234496"><ele>98.0</ele><time>2026-04-03T07:09:28Z</time></trkpt><trkpt lat="45.38338587779143" lon="9.246239441425073"><ele>98.0</ele><time>2026-04-03T07:09:29Z</time></trkpt><trkpt lat="45.38340089494519" lon="9.245942209926834"><ele>98.0</ele><time>2026-04-03T07:09:29.999Z</time></trkpt><trkpt lat="45.38341630407665" lon="9.245641525898687"><ele>98.0</ele><time>2026-04-03T07:09:30.999Z</time></trkpt><trkpt lat="45.383432377397156" lon="9.245340267853685"><ele>98.0</ele><time>2026-04-03T07:09:31.999Z</time></trkpt><trkpt lat="45.38344727162624" lon="9.245032726630608"><ele>98.0</ele><time>2026-04-03T07:09:32.999Z</time></trkpt><trkpt lat="45.38345799448091" lon="9.244722311574982"><ele>98.0</ele><time>2026-04-03T07:09:33.999Z</time></trkpt><trkpt lat="45.38347559569017" lon="9.244411072929898"><ele>98.0</ele><time>2026-04-03T07:09:34.999Z</time></trkpt><trkpt lat="45.38349864604239" lon="9.244093364507714"><ele>98.0</ele><time>2026-04-03T07:09:35.999Z</time></trkpt><trkpt lat="45.38352652203985" lon="9.243772472162078"><ele>98.0</ele><time>2026-04-03T07:09:36.999Z</time></trkpt><trkpt lat="45.38355397314837" lon="9.243448761334589"><ele>97.5</ele><time>2026-04-03T07:09:37.999Z</time></trkpt><trkpt lat="45.38358700735275" lon="9.243121356603309"><ele>97.0</ele><time>2026-04-03T07:09:38.999Z</time></trkpt><trkpt lat="45.38362066887558" lon="9.242787956486959"><ele>97.0</ele><time>2026-04-03T07:09:39.999Z</time></trkpt><trkpt lat="45.38366147201704" lon="9.242446893014684"><ele>97.0</ele><time>2026-04-03T07:09:40.999Z</time></trkpt><trkpt lat="45.38370510865466" lon="9.242101579668278"><ele>97.5</ele><time>2026-04-03T07:09:41.999Z</time></trkpt><trkpt lat="45.3837484529477" lon="9.241759500960557"><ele>98.0</ele><time>2026-04-03T07:09:42.999Z</time></trkpt><trkpt lat="45.38379330513065" lon="9.24141123720589"><ele>99.0</ele><time>2026-04-03T07:09:43.999Z</time></trkpt><trkpt lat="45.383842272912446" lon="9.241063854775179"><ele>100.0</ele><time>2026-04-03T07:09:44.999Z</time></trkpt><trkpt lat="45.38389374873413" lon="9.240715402897111"><ele>100.0</ele><time>2026-04-03T07:09:45.999Z</time></trkpt><trkpt lat="45.38394724059609" lon="9.240365982948344"><ele>100.0</ele><time>2026-04-03T07:09:46.999Z</time></trkpt><trkpt lat="45.38400226568591" lon="9.240016587948721"><ele>100.0</ele><time>2026-04-03T07:09:47.999Z</time></trkpt><trkpt lat="45.384061173753466" lon="9.239664855819797"><ele>100.0</ele><time>2026-04-03T07:09:48.999Z</time></trkpt><trkpt lat="45.38412406250152" lon="9.239316796901347"><ele>100.0</ele><time>2026-04-03T07:09:49.999Z</time></trkpt><trkpt lat="45.3841889504191" lon="9.238963964164853"><ele>100.0</ele><time>2026-04-03T07:09:50.999Z</time></trkpt><trkpt lat="45.38425618077075" lon="9.238612776672985"><ele>100.0</ele><time>2026-04-03T07:09:51.999Z</time></trkpt><trkpt lat="45.3843273121198" lon="9.238259080003933"><ele>100.0</ele><time>2026-04-03T07:09:52.999Z</time></trkpt><trkpt lat="45.384400030378515" lon="9.237907833082721"><ele>99.5</ele><time>2026-04-03T07:09:53.999Z</time></trkpt><trkpt lat="45.38447366104074" lon="9.237557480549626"><ele>99.0</ele><time>2026-04-03T07:09:54.999Z</time></trkpt><trkpt lat="45.38454837231716" lon="9.237208255183527"><ele>99.0</ele><time>2026-04-03T07:09:55.999Z</time></trkpt><trkpt lat="45.384625170263185" lon="9.236857197873762"><ele>99.0</ele><time>2026-04-03T07:09:56.999Z</time></trkpt><trkpt lat="45.38470541471542" lon="9.236511008423061"><ele>100.0</ele><time>2026-04-03T07:09:57.999Z</time></trkpt><trkpt lat="45.38479171116526" lon="9.236165631281397"><ele>101.0</ele><time>2026-04-03T07:09:58.999Z</time></trkpt><trkpt lat="45.38487990926483" lon="9.235813894991397"><ele>100.5</ele><time>2026-04-03T07:09:59.999Z</time></trkpt><trkpt lat="45.384963370518264" lon="9.235477502103784"><ele>100.0</ele><time>2026-04-03T07:10:00.999Z</time></trkpt><trkpt lat="45.3850491226337" lon="9.235133779749347"><ele>100.0</ele><time>2026-04-03T07:10:01.999Z</time></trkpt><trkpt lat="45.38513367321357" lon="9.234789538063595"><ele>100.0</ele><time>2026-04-03T07:10:02.999Z</time></trkpt><trkpt lat="45.38521428293043" lon="9.234450873340055"><ele>100.0</ele><time>2026-04-03T07:10:03.999Z</time></trkpt><trkpt lat="45.38529547398786" lon="9.234112999014997"><ele>100.0</ele><time>2026-04-03T07:10:04.999Z</time></trkpt><trkpt lat="45.38537829007208" lon="9.233776805444466"><ele>100.5</ele><time>2026-04-03T07:10:05.999Z</time></trkpt><trkpt lat="45.3854617926667" lon="9.233438486672403"><ele>101.0</ele><time>2026-04-03T07:10:06.999Z</time></trkpt><trkpt lat="45.38554719987829" lon="9.233100715972956"><ele>101.0</ele><time>2026-04-03T07:10:07.999Z</time></trkpt><trkpt lat="45.385632959524315" lon="9.23276214761862"><ele>101.0</ele><time>2026-04-03T07:10:08.999Z</time></trkpt><trkpt lat="45.38571859156034" lon="9.232422563317982"><ele>102.0</ele><time>2026-04-03T07:10:09.999Z</time></trkpt><trkpt lat="45.385802772529864" lon="9.232082392433307"><ele>103.0</ele><time>2026-04-03T07:10:10.999Z</time></trkpt><trkpt lat="45.38588826434365" lon="9.23173936216561"><ele>104.0</ele><time>2026-04-03T07:10:11.999Z</time></trkpt><trkpt lat="45.38597268368903" lon="9.231393685135533"><ele>105.0</ele><time>2026-04-03T07:10:12.999Z</time></trkpt><trkpt lat="45.386057525165334" lon="9.23104373691895"><ele>105.0</ele><time>2026-04-03T07:10:13.999Z</time></trkpt><trkpt lat="45.38614351301115" lon="9.230688148447173"><ele>105.0</ele><time>2026-04-03T07:10:14.999Z</time></trkpt><trkpt lat="45.386228489285536" lon="9.23033908005175"><ele>104.5</ele><time>2026-04-03T07:10:15.999Z</time></trkpt><trkpt lat="45.386317374802154" lon="9.22998408180048"><ele>104.0</ele><time>2026-04-03T07:10:16.999Z</time></trkpt><trkpt lat="45.38640624693606" lon="9.229628939223504"><ele>104.0</ele><time>2026-04-03T07:10:17.999Z</time></trkpt><trkpt lat="45.38649539948994" lon="9.229272917266586"><ele>104.0</ele><time>2026-04-03T07:10:18.999Z</time></trkpt><trkpt lat="45.38658419630328" lon="9.228914537608915"><ele>102.5</ele><time>2026-04-03T07:10:19.999Z</time></trkpt><trkpt lat="45.38667247234013" lon="9.228559928872487"><ele>101.0</ele><time>2026-04-03T07:10:20.999Z</time></trkpt><trkpt lat="45.38675912961239" lon="9.228203052251663"><ele>100.0</ele><time>2026-04-03T07:10:21.999Z</time></trkpt><trkpt lat="45.38684718399926" lon="9.227845801709575"><ele>99.0</ele><time>2026-04-03T07:10:22.999Z</time></trkpt><trkpt lat="45.38693373853627" lon="9.227486921054123"><ele>99.0</ele><time>2026-04-03T07:10:23.999Z</time></trkpt><trkpt lat="45.387020938697034" lon="9.227131942383373"><ele>99.0</ele><time>2026-04-03T07:10:24.999Z</time></trkpt><trkpt lat="45.387111067638024" lon="9.226771177201366"><ele>100.0</ele><time>2026-04-03T07:10:25.999Z</time></trkpt><trkpt lat="45.38720032915098" lon="9.226415225393291"><ele>101.0</ele><time>2026-04-03T07:10:26.999Z</time></trkpt><trkpt lat="45.387289969431464" lon="9.226058023385981"><ele>101.0</ele><time>2026-04-03T07:10:27.999Z</time></trkpt><trkpt lat="45.38737776936555" lon="9.225700976128614"><ele>101.0</ele><time>2026-04-03T07:10:28.999Z</time></trkpt><trkpt lat="45.38746433559465" lon="9.225343982500133"><ele>101.5</ele><time>2026-04-03T07:10:29.999Z</time></trkpt><trkpt lat="45.387550241116756" lon="9.224985297719304"><ele>102.0</ele><time>2026-04-03T07:10:30.999Z</time></trkpt><trkpt lat="45.38763826002929" lon="9.224628866968924"><ele>100.5</ele><time>2026-04-03T07:10:31.999Z</time></trkpt><trkpt lat="45.38772764245025" lon="9.224268056467878"><ele>99.0</ele><time>2026-04-03T07:10:32.999Z</time></trkpt><trkpt lat="45.387815400550984" lon="9.223912268162966"><ele>99.0</ele><time>2026-04-03T07:10:33.999Z</time></trkpt><trkpt lat="45.387905749358296" lon="9.223551434841589"><ele>99.0</ele><time>2026-04-03T07:10:34.999Z</time></trkpt><trkpt lat="45.387994336170635" lon="9.223192853647797"><ele>100.0</ele><time>2026-04-03T07:10:35.999Z</time></trkpt><trkpt lat="45.38808306108784" lon="9.222838007343167"><ele>101.0</ele><time>2026-04-03T07:10:36.999Z</time></trkpt><trkpt lat="45.388169867434165" lon="9.222483504259026"><ele>100.5</ele><time>2026-04-03T07:10:37.999Z</time></trkpt><trkpt lat="45.388255308104725" lon="9.222135931646697"><ele>100.0</ele><time>2026-04-03T07:10:38.999Z</time></trkpt><trkpt lat="45.38833849337574" lon="9.22179978502957"><ele>100.5</ele><time>2026-04-03T07:10:39.999Z</time></trkpt><trkpt lat="45.38842189490891" lon="9.22146514337282"><ele>101.0</ele><time>2026-04-03T07:10:41Z</time></trkpt><trkpt lat="45.388502987314155" lon="9.221138607043756"><ele>101.0</ele><time>2026-04-03T07:10:42Z</time></trkpt><trkpt lat="45.38858380407357" lon="9.220816496397635"><ele>101.0</ele><time>2026-04-03T07:10:43Z</time></trkpt><trkpt lat="45.38866135687883" lon="9.220495069118565"><ele>100.5</ele><time>2026-04-03T07:10:44Z</time></trkpt><trkpt lat="45.38873737816055" lon="9.220178057046187"><ele>100.0</ele><time>2026-04-03T07:10:45Z</time></trkpt><trkpt lat="45.388814905518494" lon="9.21986121116949"><ele>102.0</ele><time>2026-04-03T07:10:46Z</time></trkpt><trkpt lat="45.388892391701475" lon="9.219543948703773"><ele>104.0</ele><time>2026-04-03T07:10:47Z</time></trkpt><trkpt lat="45.38897213170417" lon="9.219228792997"><ele>103.0</ele><time>2026-04-03T07:10:48Z</time></trkpt><trkpt lat="45.389050411502176" lon="9.218910012730879"><ele>102.0</ele><time>2026-04-03T07:10:49Z</time></trkpt><trkpt lat="45.38912704501098" lon="9.218589139848334"><ele>102.0</ele><time>2026-04-03T07:10:50Z</time></trkpt><trkpt lat="45.38920065045202" lon="9.218272386175762"><ele>102.0</ele><time>2026-04-03T07:10:51Z</time></trkpt><trkpt lat="45.38927430352177" lon="9.217964389559228"><ele>102.0</ele><time>2026-04-03T07:10:52Z</time></trkpt><trkpt lat="45.3893443111424" lon="9.217671072547837"><ele>102.0</ele><time>2026-04-03T07:10:53Z</time></trkpt><trkpt lat="45.389412973581486" lon="9.217381579480016"><ele>102.0</ele><time>2026-04-03T07:10:54Z</time></trkpt><trkpt lat="45.38947958911978" lon="9.21709223633732"><ele>101.0</ele><time>2026-04-03T07:10:55Z</time></trkpt><trkpt lat="45.38954325182908" lon="9.216809462205836"><ele>100.0</ele><time>2026-04-03T07:10:56Z</time></trkpt><trkpt lat="45.38960548269013" lon="9.216527375911166"><ele>99.0</ele><time>2026-04-03T07:10:57Z</time></trkpt><trkpt lat="45.38966913191212" lon="9.216240630657742"><ele>100.33333333333334</ele><time>2026-04-03T07:10:58Z</time></trkpt><trkpt lat="45.38973091065094" lon="9.215950992080126"><ele>101.66666666666667</ele><time>2026-04-03T07:10:59Z</time></trkpt><trkpt lat="45.38979206659518" lon="9.215658728526076"><ele>103.0</ele><time>2026-04-03T07:11:00Z</time></trkpt><trkpt lat="45.38985495146832" lon="9.215364072076369"><ele>103.0</ele><time>2026-04-03T07:11:01Z</time></trkpt><trkpt lat="45.38991571785081" lon="9.215070755383437"><ele>103.0</ele><time>2026-04-03T07:11:02Z</time></trkpt><trkpt lat="45.389974026692535" lon="9.214776001244688"><ele>103.0</ele><time>2026-04-03T07:11:03Z</time></trkpt><trkpt lat="45.39002985405696" lon="9.214482053737363"><ele>103.66666666666667</ele><time>2026-04-03T07:11:04Z</time></trkpt><trkpt lat="45.39008370417652" lon="9.214186431390216"><ele>104.33333333333334</ele><time>2026-04-03T07:11:05Z</time></trkpt><trkpt lat="45.390137963636015" lon="9.213890200706704"><ele>105.0</ele><time>2026-04-03T07:11:06Z</time></trkpt><trkpt lat="45.39019248948152" lon="9.213593459798444"><ele>105.0</ele><time>2026-04-03T07:11:07Z</time></trkpt><trkpt lat="45.39024747631996" lon="9.213298793042155"><ele>105.0</ele><time>2026-04-03T07:11:08Z</time></trkpt><trkpt lat="45.390298861641014" lon="9.213006550188702"><ele>105.0</ele><time>2026-04-03T07:11:09Z</time></trkpt><trkpt lat="45.390346644101506" lon="9.212720479510141"><ele>105.0</ele><time>2026-04-03T07:11:10Z</time></trkpt><trkpt lat="45.390391847176126" lon="9.212436942250187"><ele>105.0</ele><time>2026-04-03T07:11:11Z</time></trkpt><trkpt lat="45.39043771070504" lon="9.21215056272077"><ele>105.0</ele><time>2026-04-03T07:11:12Z</time></trkpt><trkpt lat="45.39048059446559" lon="9.21186622988002"><ele>104.66666666666666</ele><time>2026-04-03T07:11:13Z</time></trkpt><trkpt lat="45.39052422616485" lon="9.21157087670343"><ele>104.33333333333333</ele><time>2026-04-03T07:11:14Z</time></trkpt><trkpt lat="45.390566501392776" lon="9.211273578924285"><ele>104.0</ele><time>2026-04-03T07:11:15Z</time></trkpt><trkpt lat="45.39060833142019" lon="9.210971557098885"><ele>104.0</ele><time>2026-04-03T07:11:16Z</time></trkpt><trkpt lat="45.39064941268503" lon="9.210663924356865"><ele>104.0</ele><time>2026-04-03T07:11:17Z</time></trkpt><trkpt lat="45.390690841732415" lon="9.210349290910024"><ele>104.0</ele><time>2026-04-03T07:11:18Z</time></trkpt><trkpt lat="45.39073589085" lon="9.210032547279319"><ele>104.0</ele><time>2026-04-03T07:11:19Z</time></trkpt><trkpt lat="45.39078134831595" lon="9.209713300822209"><ele>104.0</ele><time>2026-04-03T07:11:20Z</time></trkpt><trkpt lat="45.39082396981202" lon="9.20939361069535"><ele>104.0</ele><time>2026-04-03T07:11:21Z</time></trkpt><trkpt lat="45.39086520140515" lon="9.209073083825766"><ele>104.0</ele><time>2026-04-03T07:11:22Z</time></trkpt><trkpt lat="45.390905369661176" lon="9.20874919199044"><ele>102.0</ele><time>2026-04-03T07:11:23Z</time></trkpt><trkpt lat="45.39094331931726" lon="9.208425580589068"><ele>100.0</ele><time>2026-04-03T07:11:24Z</time></trkpt><trkpt lat="45.3909805483872" lon="9.2081038630629"><ele>99.5</ele><time>2026-04-03T07:11:25Z</time></trkpt><trkpt lat="45.391017429057385" lon="9.20778037672698"><ele>99.0</ele><time>2026-04-03T07:11:26Z</time></trkpt><trkpt lat="45.39105585766918" lon="9.207457997337873"><ele>101.0</ele><time>2026-04-03T07:11:27Z</time></trkpt><trkpt lat="45.39109388934342" lon="9.207133054929011"><ele>103.0</ele><time>2026-04-03T07:11:28Z</time></trkpt><trkpt lat="45.39112930030078" lon="9.206803331036026"><ele>103.0</ele><time>2026-04-03T07:11:29Z</time></trkpt><trkpt lat="45.39116870416114" lon="9.206474278492538"><ele>103.0</ele><time>2026-04-03T07:11:30Z</time></trkpt><trkpt lat="45.39120916481102" lon="9.206134848638076"><ele>103.0</ele><time>2026-04-03T07:11:31Z</time></trkpt><trkpt lat="45.391245801885184" lon="9.205790619764796"><ele>103.0</ele><time>2026-04-03T07:11:31.999Z</time></trkpt><trkpt lat="45.39127942394959" lon="9.20543483587055"><ele>102.5</ele><time>2026-04-03T07:11:32.999Z</time></trkpt><trkpt lat="45.391308270372555" lon="9.20507455491952"><ele>102.0</ele><time>2026-04-03T07:11:33.999Z</time></trkpt><trkpt lat="45.39133893211994" lon="9.204704677980438"><ele>102.0</ele><time>2026-04-03T07:11:34.999Z</time></trkpt><trkpt lat="45.39136677808585" lon="9.20433087128388"><ele>102.0</ele><time>2026-04-03T07:11:35.999Z</time></trkpt><trkpt lat="45.39139200394136" lon="9.203956997018294"><ele>101.5</ele><time>2026-04-03T07:11:36.999Z</time></trkpt><trkpt lat="45.39140969938234" lon="9.203586641530418"><ele>101.0</ele><time>2026-04-03T07:11:37.999Z</time></trkpt><trkpt lat="45.3914252568417" lon="9.203220963295575"><ele>100.5</ele><time>2026-04-03T07:11:38.999Z</time></trkpt><trkpt lat="45.39143742640345" lon="9.202859364858073"><ele>100.0</ele><time>2026-04-03T07:11:39.999Z</time></trkpt><trkpt lat="45.39145061131704" lon="9.202497078616535"><ele>101.0</ele><time>2026-04-03T07:11:40.999Z</time></trkpt><trkpt lat="45.391462306890574" lon="9.20214184652604"><ele>102.0</ele><time>2026-04-03T07:11:41.999Z</time></trkpt><trkpt lat="45.391475292174896" lon="9.201785741935641"><ele>103.0</ele><time>2026-04-03T07:11:42.999Z</time></trkpt><trkpt lat="45.39148910284111" lon="9.201429951516976"><ele>104.0</ele><time>2026-04-03T07:11:43.999Z</time></trkpt><trkpt lat="45.391501491767684" lon="9.201073541875116"><ele>104.0</ele><time>2026-04-03T07:11:44.999Z</time></trkpt><trkpt lat="45.39151079193149" lon="9.200717207288827"><ele>104.0</ele><time>2026-04-03T07:11:45.999Z</time></trkpt><trkpt lat="45.39151943079189" lon="9.200354013544995"><ele>102.5</ele><time>2026-04-03T07:11:46.999Z</time></trkpt><trkpt lat="45.39152767227963" lon="9.199990334175709"><ele>101.0</ele><time>2026-04-03T07:11:47.999Z</time></trkpt><trkpt lat="45.391536488671925" lon="9.199625440934456"><ele>101.0</ele><time>2026-04-03T07:11:48.999Z</time></trkpt><trkpt lat="45.39154529450224" lon="9.199261738681596"><ele>101.0</ele><time>2026-04-03T07:11:49.999Z</time></trkpt><trkpt lat="45.39155251252694" lon="9.198891105148313"><ele>102.0</ele><time>2026-04-03T07:11:50.999Z</time></trkpt><trkpt lat="45.39155636432205" lon="9.198520805164836"><ele>103.0</ele><time>2026-04-03T07:11:51.999Z</time></trkpt><trkpt lat="45.3915580491614" lon="9.19814958687731"><ele>103.0</ele><time>2026-04-03T07:11:52.999Z</time></trkpt><trkpt lat="45.39155307163551" lon="9.197772539840066"><ele>103.0</ele><time>2026-04-03T07:11:53.999Z</time></trkpt><trkpt lat="45.39154609001664" lon="9.197395540334313"><ele>101.5</ele><time>2026-04-03T07:11:54.999Z</time></trkpt><trkpt lat="45.39153394008031" lon="9.197016598920555"><ele>100.0</ele><time>2026-04-03T07:11:55.999Z</time></trkpt><trkpt lat="45.39152498537791" lon="9.196636022771111"><ele>100.0</ele><time>2026-04-03T07:11:56.999Z</time></trkpt><trkpt lat="45.39151333218288" lon="9.196260677401344"><ele>100.0</ele><time>2026-04-03T07:11:57.999Z</time></trkpt><trkpt lat="45.39149908229524" lon="9.195885065157633"><ele>100.0</ele><time>2026-04-03T07:11:58.999Z</time></trkpt><trkpt lat="45.39148195958018" lon="9.195507770627428"><ele>100.0</ele><time>2026-04-03T07:11:59.999Z</time></trkpt><trkpt lat="45.39146174334489" lon="9.195128621289724"><ele>100.5</ele><time>2026-04-03T07:12:00.999Z</time></trkpt><trkpt lat="45.39144059999493" lon="9.194752378989591"><ele>101.0</ele><time>2026-04-03T07:12:01.999Z</time></trkpt><trkpt lat="45.39141871555685" lon="9.194372839347187"><ele>101.0</ele><time>2026-04-03T07:12:02.999Z</time></trkpt><trkpt lat="45.3913954977076" lon="9.193997592598881"><ele>101.0</ele><time>2026-04-03T07:12:03.999Z</time></trkpt><trkpt lat="45.391368082936815" lon="9.193618248754591"><ele>100.5</ele><time>2026-04-03T07:12:04.999Z</time></trkpt><trkpt lat="45.39133588069146" lon="9.193240134930004"><ele>100.0</ele><time>2026-04-03T07:12:05.999Z</time></trkpt><trkpt lat="45.391299331566344" lon="9.192857619190221"><ele>100.0</ele><time>2026-04-03T07:12:06.999Z</time></trkpt><trkpt lat="45.39126034841482" lon="9.19247404130643"><ele>100.0</ele><time>2026-04-03T07:12:07.999Z</time></trkpt><trkpt lat="45.39121868266304" lon="9.192090764348725"><ele>100.0</ele><time>2026-04-03T07:12:08.999Z</time></trkpt><trkpt lat="45.391175722063586" lon="9.191710524377255"><ele>100.0</ele><time>2026-04-03T07:12:09.999Z</time></trkpt><trkpt lat="45.39113300205303" lon="9.191330757218218"><ele>100.0</ele><time>2026-04-03T07:12:10.999Z</time></trkpt><trkpt lat="45.39108938630161" lon="9.190953315158003"><ele>100.0</ele><time>2026-04-03T07:12:11.999Z</time></trkpt><trkpt lat="45.39104112562374" lon="9.190575300889575"><ele>100.0</ele><time>2026-04-03T07:12:12.999Z</time></trkpt><trkpt lat="45.39099056471141" lon="9.190197764617269"><ele>100.0</ele><time>2026-04-03T07:12:13.999Z</time></trkpt><trkpt lat="45.39093600201121" lon="9.189820502991049"><ele>101.5</ele><time>2026-04-03T07:12:14.999Z</time></trkpt><trkpt lat="45.39087892965763" lon="9.189442578439936"><ele>103.0</ele><time>2026-04-03T07:12:15.999Z</time></trkpt><trkpt lat="45.39082186141893" lon="9.189067474565343"><ele>103.0</ele><time>2026-04-03T07:12:16.999Z</time></trkpt><trkpt lat="45.39076308968502" lon="9.188694355953142"><ele>103.0</ele><time>2026-04-03T07:12:17.999Z</time></trkpt><trkpt lat="45.39070085634895" lon="9.188321037873694"><ele>102.0</ele><time>2026-04-03T07:12:18.999Z</time></trkpt><trkpt lat="45.39063478019668" lon="9.187948839951353"><ele>101.0</ele><time>2026-04-03T07:12:19.999Z</time></trkpt><trkpt lat="45.390565394704765" lon="9.187575474257535"><ele>100.0</ele><time>2026-04-03T07:12:20.999Z</time></trkpt><trkpt lat="45.39049566310379" lon="9.187206778946056"><ele>99.0</ele><time>2026-04-03T07:12:21.999Z</time></trkpt><trkpt lat="45.39042323286903" lon="9.186840543777198"><ele>100.0</ele><time>2026-04-03T07:12:22.999Z</time></trkpt><trkpt lat="45.39034899385211" lon="9.18647537008225"><ele>101.0</ele><time>2026-04-03T07:12:23.999Z</time></trkpt><trkpt lat="45.39026856103625" lon="9.186110572447559"><ele>101.0</ele><time>2026-04-03T07:12:24.999Z</time></trkpt><trkpt lat="45.39018685009438" lon="9.185748829592303"><ele>101.0</ele><time>2026-04-03T07:12:25.999Z</time></trkpt><trkpt lat="45.39010553433697" lon="9.185385694117636"><ele>101.0</ele><time>2026-04-03T07:12:26.999Z</time></trkpt><trkpt lat="45.3900227294971" lon="9.18502329747371"><ele>101.0</ele><time>2026-04-03T07:12:27.999Z</time></trkpt><trkpt lat="45.38993668364216" lon="9.184661489745798"><ele>101.0</ele><time>2026-04-03T07:12:28.999Z</time></trkpt><trkpt lat="45.38984650925622" lon="9.184304907004885"><ele>101.0</ele><time>2026-04-03T07:12:29.999Z</time></trkpt><trkpt lat="45.38975469398656" lon="9.18394524979734"><ele>101.5</ele><time>2026-04-03T07:12:30.999Z</time></trkpt><trkpt lat="45.38965812261861" lon="9.183586430476613"><ele>102.0</ele><time>2026-04-03T07:12:31.999Z</time></trkpt><trkpt lat="45.38956157234446" lon="9.183230931113318"><ele>102.5</ele><time>2026-04-03T07:12:32.999Z</time></trkpt><trkpt lat="45.38946307745905" lon="9.18287735242086"><ele>103.0</ele><time>2026-04-03T07:12:33.999Z</time></trkpt><trkpt lat="45.38936168832326" lon="9.182523936665774"><ele>103.5</ele><time>2026-04-03T07:12:34.999Z</time></trkpt><trkpt lat="45.38926148275917" lon="9.182169961038202"><ele>104.0</ele><time>2026-04-03T07:12:35.999Z</time></trkpt><trkpt lat="45.38915806429771" lon="9.181816765393641"><ele>103.5</ele><time>2026-04-03T07:12:36.999Z</time></trkpt><trkpt lat="45.38905060575307" lon="9.181464181034537"><ele>103.0</ele><time>2026-04-03T07:12:37.999Z</time></trkpt><trkpt lat="45.388941926637095" lon="9.181112470333735"><ele>102.0</ele><time>2026-04-03T07:12:38.999Z</time></trkpt><trkpt lat="45.38882642222731" lon="9.180766506270887"><ele>101.0</ele><time>2026-04-03T07:12:39.999Z</time></trkpt><trkpt lat="45.388711234478876" lon="9.180420514780408"><ele>101.0</ele><time>2026-04-03T07:12:40.999Z</time></trkpt><trkpt lat="45.38859538717114" lon="9.180076172163119"><ele>101.0</ele><time>2026-04-03T07:12:41.999Z</time></trkpt><trkpt lat="45.38847687363774" lon="9.179731576839892"><ele>101.5</ele><time>2026-04-03T07:12:42.999Z</time></trkpt><trkpt lat="45.38835801482375" lon="9.179389385134344"><ele>102.0</ele><time>2026-04-03T07:12:43.999Z</time></trkpt><trkpt lat="45.38823409515283" lon="9.179050522993657"><ele>102.5</ele><time>2026-04-03T07:12:44.999Z</time></trkpt><trkpt lat="45.38810949988794" lon="9.178716021805762"><ele>103.0</ele><time>2026-04-03T07:12:45.999Z</time></trkpt><trkpt lat="45.387981613831876" lon="9.178382655754847"><ele>103.0</ele><time>2026-04-03T07:12:47Z</time></trkpt><trkpt lat="45.38785351399073" lon="9.178051297657296"><ele>103.0</ele><time>2026-04-03T07:12:48Z</time></trkpt><trkpt lat="45.38772134015321" lon="9.177719501103049"><ele>103.0</ele><time>2026-04-03T07:12:49Z</time></trkpt><trkpt lat="45.38758961247847" lon="9.177391121470817"><ele>103.0</ele><time>2026-04-03T07:12:50Z</time></trkpt><trkpt lat="45.38745861840258" lon="9.177061985059733"><ele>103.0</ele><time>2026-04-03T07:12:51Z</time></trkpt><trkpt lat="45.387330020500784" lon="9.176729829068911"><ele>103.0</ele><time>2026-04-03T07:12:52Z</time></trkpt><trkpt lat="45.38720747376973" lon="9.176397429588006"><ele>102.0</ele><time>2026-04-03T07:12:53Z</time></trkpt><trkpt lat="45.387086708530994" lon="9.176064595132884"><ele>101.0</ele><time>2026-04-03T07:12:54Z</time></trkpt><trkpt lat="45.38697533956945" lon="9.175730564082896"><ele>100.5</ele><time>2026-04-03T07:12:55Z</time></trkpt><trkpt lat="45.38687342024149" lon="9.17538960617038"><ele>100.0</ele><time>2026-04-03T07:12:56Z</time></trkpt><trkpt lat="45.38677999313096" lon="9.175044140126127"><ele>100.5</ele><time>2026-04-03T07:12:57Z</time></trkpt><trkpt lat="45.38669253655924" lon="9.174694405626184"><ele>101.0</ele><time>2026-04-03T07:12:58Z</time></trkpt><trkpt lat="45.386608558042006" lon="9.174342022926046"><ele>101.0</ele><time>2026-04-03T07:12:59Z</time></trkpt><trkpt lat="45.3865324483444" lon="9.173988328103674"><ele>101.0</ele><time>2026-04-03T07:13:00Z</time></trkpt><trkpt lat="45.38646662701482" lon="9.173631862964056"><ele>101.0</ele><time>2026-04-03T07:13:01Z</time></trkpt><trkpt lat="45.38640773356145" lon="9.173273265573133"><ele>101.0</ele><time>2026-04-03T07:13:02Z</time></trkpt><trkpt lat="45.386354761533966" lon="9.172912785801824"><ele>101.0</ele><time>2026-04-03T07:13:03Z</time></trkpt><trkpt lat="45.386307307019905" lon="9.172551139065481"><ele>101.0</ele><time>2026-04-03T07:13:04Z</time></trkpt><trkpt lat="45.38626911506679" lon="9.172186069088344"><ele>101.0</ele><time>2026-04-03T07:13:05Z</time></trkpt><trkpt lat="45.38624220292878" lon="9.171822791691845"><ele>101.0</ele><time>2026-04-03T07:13:06Z</time></trkpt><trkpt lat="45.386218238339325" lon="9.171459011287503"><ele>102.5</ele><time>2026-04-03T07:13:07Z</time></trkpt><trkpt lat="45.3861998195993" lon="9.17109224072426"><ele>104.0</ele><time>2026-04-03T07:13:08Z</time></trkpt><trkpt lat="45.3861911790348" lon="9.170727957082377"><ele>105.0</ele><time>2026-04-03T07:13:09Z</time></trkpt><trkpt lat="45.38619279964649" lon="9.170357122722296"><ele>106.0</ele><time>2026-04-03T07:13:10Z</time></trkpt><trkpt lat="45.38620461666117" lon="9.16998490036993"><ele>105.0</ele><time>2026-04-03T07:13:11Z</time></trkpt><trkpt lat="45.38622142449158" lon="9.169607671938751"><ele>104.0</ele><time>2026-04-03T07:13:12Z</time></trkpt><trkpt lat="45.38624815697262" lon="9.1692291118493"><ele>102.5</ele><time>2026-04-03T07:13:13Z</time></trkpt><trkpt lat="45.386280745750675" lon="9.168846088663624"><ele>101.0</ele><time>2026-04-03T07:13:14Z</time></trkpt><trkpt lat="45.38631999148778" lon="9.168461881209133"><ele>99.5</ele><time>2026-04-03T07:13:15Z</time></trkpt><trkpt lat="45.38636736093319" lon="9.168077647357546"><ele>98.0</ele><time>2026-04-03T07:13:16Z</time></trkpt><trkpt lat="45.38642256232642" lon="9.16769076689241"><ele>98.0</ele><time>2026-04-03T07:13:17Z</time></trkpt><trkpt lat="45.386488441441145" lon="9.167305045489977"><ele>98.0</ele><time>2026-04-03T07:13:18Z</time></trkpt><trkpt lat="45.38656335259887" lon="9.166929053270588"><ele>98.0</ele><time>2026-04-03T07:13:19Z</time></trkpt><trkpt lat="45.38664545206646" lon="9.166555282194157"><ele>98.0</ele><time>2026-04-03T07:13:20Z</time></trkpt><trkpt lat="45.38673999975311" lon="9.166183358706196"><ele>98.5</ele><time>2026-04-03T07:13:21Z</time></trkpt><trkpt lat="45.38684108845488" lon="9.165814438045087"><ele>99.0</ele><time>2026-04-03T07:13:22Z</time></trkpt><trkpt lat="45.38694858339654" lon="9.165447134151869"><ele>100.0</ele><time>2026-04-03T07:13:23Z</time></trkpt><trkpt lat="45.38706349772296" lon="9.16508745766482"><ele>101.0</ele><time>2026-04-03T07:13:24Z</time></trkpt><trkpt lat="45.38718286250422" lon="9.16473000415372"><ele>101.0</ele><time>2026-04-03T07:13:25Z</time></trkpt><trkpt lat="45.38730161670448" lon="9.164379335036921"><ele>101.0</ele><time>2026-04-03T07:13:26Z</time></trkpt><trkpt lat="45.38742512604767" lon="9.164028622909978"><ele>101.0</ele><time>2026-04-03T07:13:27Z</time></trkpt><trkpt lat="45.38755009989304" lon="9.16368243177607"><ele>101.0</ele><time>2026-04-03T07:13:28Z</time></trkpt><trkpt lat="45.38767417282211" lon="9.163336465682445"><ele>101.5</ele><time>2026-04-03T07:13:29Z</time></trkpt><trkpt lat="45.38779509249531" lon="9.162994926567684"><ele>102.0</ele><time>2026-04-03T07:13:30Z</time></trkpt><trkpt lat="45.3879154932853" lon="9.162654473434634"><ele>101.5</ele><time>2026-04-03T07:13:31Z</time></trkpt><trkpt lat="45.388035871860765" lon="9.162313864569402"><ele>101.0</ele><time>2026-04-03T07:13:32Z</time></trkpt><trkpt lat="45.388155296443756" lon="9.161973588306706"><ele>101.0</ele><time>2026-04-03T07:13:33Z</time></trkpt><trkpt lat="45.38827502868548" lon="9.16163539036373"><ele>101.0</ele><time>2026-04-03T07:13:34Z</time></trkpt><trkpt lat="45.388394297632104" lon="9.161297422394037"><ele>101.0</ele><time>2026-04-03T07:13:35Z</time></trkpt><trkpt lat="45.38851459510666" lon="9.160955320429371"><ele>101.0</ele><time>2026-04-03T07:13:35.999Z</time></trkpt><trkpt lat="45.388633802491384" lon="9.160614993418116"><ele>101.5</ele><time>2026-04-03T07:13:36.999Z</time></trkpt><trkpt lat="45.38875118227382" lon="9.160278650497773"><ele>102.0</ele><time>2026-04-03T07:13:37.999Z</time></trkpt><trkpt lat="45.38887022924452" lon="9.15993934979778"><ele>102.0</ele><time>2026-04-03T07:13:38.999Z</time></trkpt><trkpt lat="45.38898831455784" lon="9.159602924418197"><ele>102.0</ele><time>2026-04-03T07:13:39.999Z</time></trkpt><trkpt lat="45.38910820458008" lon="9.159267398420496"><ele>103.0</ele><time>2026-04-03T07:13:40.999Z</time></trkpt><trkpt lat="45.389228007477634" lon="9.158931003494498"><ele>104.0</ele><time>2026-04-03T07:13:41.999Z</time></trkpt><trkpt lat="45.38934689535452" lon="9.158595282281246"><ele>104.0</ele><time>2026-04-03T07:13:42.999Z</time></trkpt><trkpt lat="45.389468391231404" lon="9.158256378787584"><ele>104.0</ele><time>2026-04-03T07:13:43.999Z</time></trkpt><trkpt lat="45.38958714269184" lon="9.157921125286926"><ele>104.0</ele><time>2026-04-03T07:13:44.999Z</time></trkpt><trkpt lat="45.389703490569296" lon="9.157580644639463"><ele>104.0</ele><time>2026-04-03T07:13:45.999Z</time></trkpt><trkpt lat="45.3898232259532" lon="9.157241794680592"><ele>103.5</ele><time>2026-04-03T07:13:46.999Z</time></trkpt><trkpt lat="45.38994465023614" lon="9.156900251351866"><ele>103.0</ele><time>2026-04-03T07:13:47.999Z</time></trkpt><trkpt lat="45.39006646533959" lon="9.15656149405038"><ele>103.5</ele><time>2026-04-03T07:13:48.999Z</time></trkpt><trkpt lat="45.39019327917037" lon="9.156225923315557"><ele>104.0</ele><time>2026-04-03T07:13:49.999Z</time></trkpt><trkpt lat="45.39031802280185" lon="9.155887148951956"><ele>104.5</ele><time>2026-04-03T07:13:50.999Z</time></trkpt><trkpt lat="45.39044009018576" lon="9.155552943523992"><ele>105.0</ele><time>2026-04-03T07:13:51.999Z</time></trkpt><trkpt lat="45.39056211419506" lon="9.155215667590165"><ele>105.5</ele><time>2026-04-03T07:13:52.999Z</time></trkpt><trkpt lat="45.390682988198385" lon="9.154879973427732"><ele>106.0</ele><time>2026-04-03T07:13:53.999Z</time></trkpt><trkpt lat="45.39080147038603" lon="9.15454526263626"><ele>105.5</ele><time>2026-04-03T07:13:54.999Z</time></trkpt><trkpt lat="45.39091781122464" lon="9.154209803307376"><ele>105.0</ele><time>2026-04-03T07:13:55.999Z</time></trkpt><trkpt lat="45.39103494747996" lon="9.153872583140197"><ele>105.0</ele><time>2026-04-03T07:13:56.999Z</time></trkpt><trkpt lat="45.391151796593896" lon="9.153544398602563"><ele>105.0</ele><time>2026-04-03T07:13:57.999Z</time></trkpt><trkpt lat="45.39126971066442" lon="9.153215251949252"><ele>105.5</ele><time>2026-04-03T07:13:58.999Z</time></trkpt><trkpt lat="45.39138585867896" lon="9.152889954948334"><ele>106.0</ele><time>2026-04-03T07:13:59.999Z</time></trkpt><trkpt lat="45.39150206500666" lon="9.152559474560434"><ele>105.5</ele><time>2026-04-03T07:14:00.999Z</time></trkpt><trkpt lat="45.391617024897094" lon="9.152236249034098"><ele>105.0</ele><time>2026-04-03T07:14:01.999Z</time></trkpt><trkpt lat="45.391725686602534" lon="9.151919959938459"><ele>105.0</ele><time>2026-04-03T07:14:02.999Z</time></trkpt><trkpt lat="45.39182851753657" lon="9.15160816465241"><ele>105.0</ele><time>2026-04-03T07:14:03.999Z</time></trkpt><trkpt lat="45.391928533112534" lon="9.151296216492085"><ele>106.0</ele><time>2026-04-03T07:14:04.999Z</time></trkpt><trkpt lat="45.39202891480876" lon="9.15098989304705"><ele>107.0</ele><time>2026-04-03T07:14:05.999Z</time></trkpt><trkpt lat="45.392129757161875" lon="9.150696871217262"><ele>107.0</ele><time>2026-04-03T07:14:06.999Z</time></trkpt><trkpt lat="45.39222294309712" lon="9.150428110095987"><ele>107.0</ele><time>2026-04-03T07:14:07.999Z</time></trkpt><trkpt lat="45.39231211044016" lon="9.150174025073637"><ele>107.0</ele><time>2026-04-03T07:14:08.999Z</time></trkpt><trkpt lat="45.392400404490594" lon="9.149934018914061"><ele>106.66666666666666</ele><time>2026-04-03T07:14:09.999Z</time></trkpt><trkpt lat="45.39248766572098" lon="9.149699801854625"><ele>106.33333333333334</ele><time>2026-04-03T07:14:10.999Z</time></trkpt><trkpt lat="45.39257712782788" lon="9.149465225256685"><ele>106.0</ele><time>2026-04-03T07:14:11.999Z</time></trkpt><trkpt lat="45.39266934179528" lon="9.149236379287103"><ele>107.33333333333334</ele><time>2026-04-03T07:14:12.999Z</time></trkpt><trkpt lat="45.392759160520356" lon="9.149007297243655"><ele>108.66666666666666</ele><time>2026-04-03T07:14:13.999Z</time></trkpt><trkpt lat="45.39284458787041" lon="9.148785581160032"><ele>110.0</ele><time>2026-04-03T07:14:14.999Z</time></trkpt><trkpt lat="45.392926572667584" lon="9.148559703571411"><ele>110.66666666666666</ele><time>2026-04-03T07:14:15.999Z</time></trkpt><trkpt lat="45.39300839525747" lon="9.148337732442618"><ele>111.33333333333334</ele><time>2026-04-03T07:14:16.999Z</time></trkpt><trkpt lat="45.39309137613809" lon="9.148115735413787"><ele>112.0</ele><time>2026-04-03T07:14:17.999Z</time></trkpt><trkpt lat="45.393173371570015" lon="9.147891969225018"><ele>110.66666666666667</ele><time>2026-04-03T07:14:18.999Z</time></trkpt><trkpt lat="45.39325370615979" lon="9.147668928620517"><ele>109.33333333333334</ele><time>2026-04-03T07:14:19.999Z</time></trkpt><trkpt lat="45.393334711873216" lon="9.147452236964545"><ele>108.0</ele><time>2026-04-03T07:14:20.999Z</time></trkpt><trkpt lat="45.3934155132832" lon="9.147237620504153"><ele>108.0</ele><time>2026-04-03T07:14:21.999Z</time></trkpt><trkpt lat="45.39349575864088" lon="9.147024833514548"><ele>108.0</ele><time>2026-04-03T07:14:22.999Z</time></trkpt><trkpt lat="45.39357422571454" lon="9.14680990000038"><ele>108.0</ele><time>2026-04-03T07:14:23.999Z</time></trkpt><trkpt lat="45.39365130397123" lon="9.146596907412164"><ele>107.25</ele><time>2026-04-03T07:14:24.999Z</time></trkpt><trkpt lat="45.39372208124826" lon="9.146397405903498"><ele>106.5</ele><time>2026-04-03T07:14:25.999Z</time></trkpt><trkpt lat="45.393790720838204" lon="9.14620637365216"><ele>105.75</ele><time>2026-04-03T07:14:26.999Z</time></trkpt><trkpt lat="45.39385232972603" lon="9.14602696390437"><ele>105.0</ele><time>2026-04-03T07:14:27.999Z</time></trkpt><trkpt lat="45.393915741150096" lon="9.145839790975332"><ele>105.0</ele><time>2026-04-03T07:14:28.999Z</time></trkpt><trkpt lat="45.39398029577718" lon="9.145667392282734"><ele>105.0</ele><time>2026-04-03T07:14:29.999Z</time></trkpt><trkpt lat="45.3940441378436" lon="9.145503097914682"><ele>105.0</ele><time>2026-04-03T07:14:30.999Z</time></trkpt><trkpt lat="45.39409938134547" lon="9.145341008209014"><ele>105.0</ele><time>2026-04-03T07:14:31.999Z</time></trkpt><trkpt lat="45.39415303277602" lon="9.14519144976856"><ele>105.0</ele><time>2026-04-03T07:14:32.999Z</time></trkpt><trkpt lat="45.39420335328509" lon="9.145059667390342"><ele>105.0</ele><time>2026-04-03T07:14:33.999Z</time></trkpt><trkpt lat="45.39424526631061" lon="9.144949939916739"><ele>105.0</ele><time>2026-04-03T07:14:34.999Z</time></trkpt><trkpt lat="45.39428434096461" lon="9.144855888641741"><ele>105.0</ele><time>2026-04-03T07:14:35.999Z</time></trkpt><trkpt lat="45.39431800913068" lon="9.14477580395281"><ele>105.0</ele><time>2026-04-03T07:14:36.999Z</time></trkpt><trkpt lat="45.39437274280602" lon="9.1446379665417"><ele>105.0</ele><time>2026-04-03T07:14:38.999Z</time></trkpt><trkpt lat="45.39441818176559" lon="9.144538147287722"><ele>105.4</ele><time>2026-04-03T07:14:40.999Z</time></trkpt><trkpt lat="45.394449486821166" lon="9.144437971231893"><ele>105.8</ele><time>2026-04-03T07:14:42.999Z</time></trkpt><trkpt lat="45.39450952749617" lon="9.14426806776151"><ele>106.19999999999999</ele><time>2026-04-03T07:14:44.999Z</time></trkpt><trkpt lat="45.394561205196794" lon="9.14412696796398"><ele>106.6</ele><time>2026-04-03T07:14:45.999Z</time></trkpt><trkpt lat="45.394608577532296" lon="9.143995800363053"><ele>107.0</ele><time>2026-04-03T07:14:46.999Z</time></trkpt><trkpt lat="45.39465407476576" lon="9.143868525249127"><ele>106.83333333333333</ele><time>2026-04-03T07:14:47.999Z</time></trkpt><trkpt lat="45.394697396350985" lon="9.143747628651221"><ele>106.66666666666666</ele><time>2026-04-03T07:14:48.999Z</time></trkpt><trkpt lat="45.39473649521662" lon="9.143635734683395"><ele>106.5</ele><time>2026-04-03T07:14:49.999Z</time></trkpt><trkpt lat="45.39477408448084" lon="9.143528618774758"><ele>106.33333333333334</ele><time>2026-04-03T07:14:50.999Z</time></trkpt><trkpt lat="45.3948117218268" lon="9.143423964091166"><ele>106.16666666666667</ele><time>2026-04-03T07:14:52Z</time></trkpt><trkpt lat="45.39485098234923" lon="9.143321237944688"><ele>106.0</ele><time>2026-04-03T07:14:53Z</time></trkpt><trkpt lat="45.39489140337987" lon="9.14321155128382"><ele>106.0</ele><time>2026-04-03T07:14:54Z</time></trkpt><trkpt lat="45.3949304085134" lon="9.143099887590644"><ele>106.0</ele><time>2026-04-03T07:14:55Z</time></trkpt><trkpt lat="45.39496370137919" lon="9.142997430877942"><ele>106.0</ele><time>2026-04-03T07:14:56Z</time></trkpt><trkpt lat="45.3949967939354" lon="9.142901950831625"><ele>106.0</ele><time>2026-04-03T07:14:57Z</time></trkpt><trkpt lat="45.39502806864613" lon="9.142815823344518"><ele>106.0</ele><time>2026-04-03T07:14:58Z</time></trkpt><trkpt lat="45.395056699483476" lon="9.142734526671964"><ele>106.0</ele><time>2026-04-03T07:14:59Z</time></trkpt><trkpt lat="45.39508522817005" lon="9.14265452448181"><ele>106.0</ele><time>2026-04-03T07:15:00Z</time></trkpt><trkpt lat="45.395114941802134" lon="9.14257127757612"><ele>106.00000000000001</ele><time>2026-04-03T07:15:01Z</time></trkpt><trkpt lat="45.39514762586263" lon="9.142479301783265"><ele>106.0</ele><time>2026-04-03T07:15:02Z</time></trkpt><trkpt lat="45.395182786273686" lon="9.142379644813303"><ele>106.0</ele><time>2026-04-03T07:15:03Z</time></trkpt><trkpt lat="45.3952206350851" lon="9.142270544807213"><ele>106.0</ele><time>2026-04-03T07:15:04Z</time></trkpt><trkpt lat="45.39526057858048" lon="9.142158338828061"><ele>106.00000000000001</ele><time>2026-04-03T07:15:05Z</time></trkpt><trkpt lat="45.395301983462765" lon="9.142049065294996"><ele>106.0</ele><time>2026-04-03T07:15:06Z</time></trkpt><trkpt lat="45.39534331989486" lon="9.14194422311142"><ele>105.83333333333334</ele><time>2026-04-03T07:15:07Z</time></trkpt><trkpt lat="45.395382897972034" lon="9.141842379357621"><ele>105.66666666666667</ele><time>2026-04-03T07:15:08Z</time></trkpt><trkpt lat="45.395423886694125" lon="9.141736832417987"><ele>105.5</ele><time>2026-04-03T07:15:09Z</time></trkpt><trkpt lat="45.39546685622592" lon="9.141627871189906"><ele>105.33333333333334</ele><time>2026-04-03T07:15:10Z</time></trkpt><trkpt lat="45.395508101589705" lon="9.141512767901881"><ele>105.16666666666667</ele><time>2026-04-03T07:15:11Z</time></trkpt><trkpt lat="45.39555021296035" lon="9.141390419813966"><ele>105.0</ele><time>2026-04-03T07:15:12Z</time></trkpt><trkpt lat="45.39559434453855" lon="9.141267187581542"><ele>105.4</ele><time>2026-04-03T07:15:13Z</time></trkpt><trkpt lat="45.39563787497988" lon="9.141145030970787"><ele>105.8</ele><time>2026-04-03T07:15:14Z</time></trkpt><trkpt lat="45.39568281762102" lon="9.141022326410363"><ele>106.19999999999999</ele><time>2026-04-03T07:15:15Z</time></trkpt><trkpt lat="45.395728043011864" lon="9.140897690560992"><ele>106.6</ele><time>2026-04-03T07:15:16Z</time></trkpt><trkpt lat="45.395775520903655" lon="9.140775331830197"><ele>107.0</ele><time>2026-04-03T07:15:17Z</time></trkpt><trkpt lat="45.395826523446864" lon="9.140653995901147"><ele>107.8</ele><time>2026-04-03T07:15:18Z</time></trkpt><trkpt lat="45.39588500732243" lon="9.140540736405299"><ele>108.6</ele><time>2026-04-03T07:15:19Z</time></trkpt><trkpt lat="45.39595505718002" lon="9.140444513714186"><ele>109.39999999999999</ele><time>2026-04-03T07:15:20Z</time></trkpt><trkpt lat="45.39603149973277" lon="9.140358723980297"><ele>110.19999999999999</ele><time>2026-04-03T07:15:21Z</time></trkpt><trkpt lat="45.39611311411877" lon="9.140283746772116"><ele>111.0</ele><time>2026-04-03T07:15:22Z</time></trkpt><trkpt lat="45.396204554529426" lon="9.140220976702771"><ele>111.0</ele><time>2026-04-03T07:15:23Z</time></trkpt><trkpt lat="45.39630223061883" lon="9.140170502746548"><ele>111.0</ele><time>2026-04-03T07:15:24Z</time></trkpt><trkpt lat="45.39639911002152" lon="9.140133628650883"><ele>111.0</ele><time>2026-04-03T07:15:25Z</time></trkpt><trkpt lat="45.39649449885453" lon="9.14012311868132"><ele>111.0</ele><time>2026-04-03T07:15:26Z</time></trkpt><trkpt lat="45.3965838271505" lon="9.14014351780545"><ele>111.0</ele><time>2026-04-03T07:15:27Z</time></trkpt><trkpt lat="45.39665994140961" lon="9.140197285238317"><ele>110.33333333333333</ele><time>2026-04-03T07:15:28Z</time></trkpt><trkpt lat="45.3967220984433" lon="9.140276972516746"><ele>109.66666666666666</ele><time>2026-04-03T07:15:29Z</time></trkpt><trkpt lat="45.39677727856079" lon="9.140351580457024"><ele>109.0</ele><time>2026-04-03T07:15:30Z</time></trkpt><trkpt lat="45.39682350184469" lon="9.14043573594745"><ele>108.33333333333333</ele><time>2026-04-03T07:15:31Z</time></trkpt><trkpt lat="45.396857389850034" lon="9.140522238755157"><ele>107.66666666666666</ele><time>2026-04-03T07:15:32Z</time></trkpt><trkpt lat="45.39687799002961" lon="9.140608082769308"><ele>107.0</ele><time>2026-04-03T07:15:33Z</time></trkpt><trkpt lat="45.39689268265228" lon="9.140775190905483"><ele>106.6</ele><time>2026-04-03T07:15:34.999Z</time></trkpt><trkpt lat="45.39688259763976" lon="9.140917973714926"><ele>106.19999999999999</ele><time>2026-04-03T07:15:36.999Z</time></trkpt><trkpt lat="45.39685381789318" lon="9.141040446538785"><ele>105.8</ele><time>2026-04-03T07:15:38.999Z</time></trkpt><trkpt lat="45.396802603136656" lon="9.141149307412634"><ele>105.4</ele><time>2026-04-03T07:15:40.999Z</time></trkpt><trkpt lat="45.396714068179776" lon="9.141274964403738"><ele>105.0</ele><time>2026-04-03T07:15:42.999Z</time></trkpt><trkpt lat="45.39665348529971" lon="9.141336750323331"><ele>105.0</ele><time>2026-04-03T07:15:43.999Z</time></trkpt><trkpt lat="45.39659337900735" lon="9.141384113772077"><ele>105.0</ele><time>2026-04-03T07:15:44.999Z</time></trkpt><trkpt lat="45.3965311486848" lon="9.141423496944057"><ele>105.0</ele><time>2026-04-03T07:15:45.999Z</time></trkpt><trkpt lat="45.39642171527366" lon="9.141469536996711"><ele>105.0</ele><time>2026-04-03T07:15:47.999Z</time></trkpt><trkpt lat="45.39630666831816" lon="9.141501874203733"><ele>105.0</ele><time>2026-04-03T07:15:49.999Z</time></trkpt><trkpt lat="45.396231379144105" lon="9.14150961377994"><ele>105.0</ele><time>2026-04-03T07:15:50.999Z</time></trkpt><trkpt lat="45.39614707057414" lon="9.141492863529127"><ele>105.33333333333333</ele><time>2026-04-03T07:15:51.999Z</time></trkpt><trkpt lat="45.39606725696942" lon="9.141467220521905"><ele>105.66666666666666</ele><time>2026-04-03T07:15:52.999Z</time></trkpt><trkpt lat="45.39598588710248" lon="9.141437680529611"><ele>106.0</ele><time>2026-04-03T07:15:53.999Z</time></trkpt><trkpt lat="45.39590188598014" lon="9.141408815631287"><ele>106.33333333333333</ele><time>2026-04-03T07:15:54.999Z</time></trkpt><trkpt lat="45.395817338129945" lon="9.141379238632563"><ele>106.66666666666666</ele><time>2026-04-03T07:15:55.999Z</time></trkpt><trkpt lat="45.39573140046011" lon="9.141348762334344"><ele>107.0</ele><time>2026-04-03T07:15:56.999Z</time></trkpt><trkpt lat="45.39564495276541" lon="9.141316583129317"><ele>106.99999999999999</ele><time>2026-04-03T07:15:57.999Z</time></trkpt><trkpt lat="45.395564634037356" lon="9.141286134736164"><ele>107.0</ele><time>2026-04-03T07:15:58.999Z</time></trkpt><trkpt lat="45.39549566183259" lon="9.14125861345999"><ele>107.0</ele><time>2026-04-03T07:15:59.999Z</time></trkpt><trkpt lat="45.39537448478816" lon="9.141202809039111"><ele>107.0</ele><time>2026-04-03T07:16:01.999Z</time></trkpt><trkpt lat="45.39530725536206" lon="9.141166894667546"><ele>106.99999999999999</ele><time>2026-04-03T07:16:02.999Z</time></trkpt><trkpt lat="45.39523033087463" lon="9.14112945100814"><ele>107.0</ele><time>2026-04-03T07:16:03.999Z</time></trkpt><trkpt lat="45.39514091948475" lon="9.14109407559678"><ele>106.5</ele><time>2026-04-03T07:16:04.999Z</time></trkpt><trkpt lat="45.39503935375272" lon="9.141047997008059"><ele>106.0</ele><time>2026-04-03T07:16:05.999Z</time></trkpt><trkpt lat="45.39492649541685" lon="9.140995039720307"><ele>105.5</ele><time>2026-04-03T07:16:06.999Z</time></trkpt><trkpt lat="45.39481183659319" lon="9.140941175618519"><ele>105.0</ele><time>2026-04-03T07:16:07.999Z</time></trkpt><trkpt lat="45.39469484304912" lon="9.140890258672677"><ele>104.75</ele><time>2026-04-03T07:16:08.999Z</time></trkpt><trkpt lat="45.394574823024335" lon="9.140836472832191"><ele>104.5</ele><time>2026-04-03T07:16:09.999Z</time></trkpt><trkpt lat="45.39445357481973" lon="9.140781399142323"><ele>104.25</ele><time>2026-04-03T07:16:10.999Z</time></trkpt><trkpt lat="45.39433192534809" lon="9.140725553068437"><ele>104.0</ele><time>2026-04-03T07:16:11.999Z</time></trkpt><trkpt lat="45.394208485931074" lon="9.14066817589563"><ele>104.0</ele><time>2026-04-03T07:16:12.999Z</time></trkpt><trkpt lat="45.394083053916894" lon="9.140612241958253"><ele>104.0</ele><time>2026-04-03T07:16:13.999Z</time></trkpt><trkpt lat="45.39395667468438" lon="9.140559564275556"><ele>104.0</ele><time>2026-04-03T07:16:14.999Z</time></trkpt><trkpt lat="45.393828490316466" lon="9.140505948954452"><ele>104.0</ele><time>2026-04-03T07:16:15.999Z</time></trkpt><trkpt lat="45.39370026316013" lon="9.140452407252237"><ele>104.0</ele><time>2026-04-03T07:16:16.999Z</time></trkpt><trkpt lat="45.39357152722193" lon="9.140398901200962"><ele>104.0</ele><time>2026-04-03T07:16:17.999Z</time></trkpt><trkpt lat="45.39344299336473" lon="9.14034433119991"><ele>104.0</ele><time>2026-04-03T07:16:18.999Z</time></trkpt><trkpt lat="45.39331416848062" lon="9.140286101256352"><ele>104.0</ele><time>2026-04-03T07:16:19.999Z</time></trkpt><trkpt lat="45.393184543456606" lon="9.140227820779963"><ele>104.0</ele><time>2026-04-03T07:16:20.999Z</time></trkpt><trkpt lat="45.393053664532445" lon="9.140171070005657"><ele>104.0</ele><time>2026-04-03T07:16:21.999Z</time></trkpt><trkpt lat="45.39292147896674" lon="9.140116516187279"><ele>104.0</ele><time>2026-04-03T07:16:22.999Z</time></trkpt><trkpt lat="45.392787799612236" lon="9.140062835147631"><ele>104.0</ele><time>2026-04-03T07:16:23.999Z</time></trkpt><trkpt lat="45.392653665944145" lon="9.140041799120876"><ele>103.75</ele><time>2026-04-03T07:16:24.999Z</time></trkpt><trkpt lat="45.39251955195678" lon="9.1399548646136"><ele>103.5</ele><time>2026-04-03T07:16:25.999Z</time></trkpt><trkpt lat="45.392384654414876" lon="9.13989803214549"><ele>103.25</ele><time>2026-04-03T07:16:26.999Z</time></trkpt><trkpt lat="45.39225015647547" lon="9.1398398811181"><ele>103.0</ele><time>2026-04-03T07:16:27.999Z</time></trkpt><trkpt lat="45.39211458507271" lon="9.139780950473742"><ele>102.75</ele><time>2026-04-03T07:16:28.999Z</time></trkpt><trkpt lat="45.39197900702753" lon="9.139720507071864"><ele>102.5</ele><time>2026-04-03T07:16:29.999Z</time></trkpt><trkpt lat="45.391841633847015" lon="9.139658067225568"><ele>102.25</ele><time>2026-04-03T07:16:30.999Z</time></trkpt><trkpt lat="45.39170587554388" lon="9.139597125083922"><ele>102.0</ele><time>2026-04-03T07:16:31.999Z</time></trkpt><trkpt lat="45.39157238167701" lon="9.139537105023347"><ele>102.0</ele><time>2026-04-03T07:16:32.999Z</time></trkpt><trkpt lat="45.391441026484266" lon="9.13947658944277"><ele>102.0</ele><time>2026-04-03T07:16:33.999Z</time></trkpt><trkpt lat="45.391312478228954" lon="9.139416015515966"><ele>102.0</ele><time>2026-04-03T07:16:34.999Z</time></trkpt><trkpt lat="45.391187216738345" lon="9.139355734668532"><ele>102.0</ele><time>2026-04-03T07:16:35.999Z</time></trkpt><trkpt lat="45.39106610128752" lon="9.139293772685537"><ele>102.25</ele><time>2026-04-03T07:16:36.999Z</time></trkpt><trkpt lat="45.39094866284029" lon="9.139231479628638"><ele>102.5</ele><time>2026-04-03T07:16:37.999Z</time></trkpt><trkpt lat="45.39083644334117" lon="9.139169605059992"><ele>102.75</ele><time>2026-04-03T07:16:38.999Z</time></trkpt><trkpt lat="45.39072962678315" lon="9.139110999677618"><ele>103.0</ele><time>2026-04-03T07:16:39.999Z</time></trkpt><trkpt lat="45.39062700757851" lon="9.139053531924446"><ele>103.0</ele><time>2026-04-03T07:16:40.999Z</time></trkpt><trkpt lat="45.39053064830009" lon="9.138995977971275"><ele>103.0</ele><time>2026-04-03T07:16:41.999Z</time></trkpt><trkpt lat="45.39043958936443" lon="9.138939695728837"><ele>103.0</ele><time>2026-04-03T07:16:42.999Z</time></trkpt><trkpt lat="45.39035452583639" lon="9.138886969022602"><ele>103.0</ele><time>2026-04-03T07:16:43.999Z</time></trkpt><trkpt lat="45.39027617363849" lon="9.138836099631451"><ele>103.0</ele><time>2026-04-03T07:16:44.999Z</time></trkpt><trkpt lat="45.39020617656095" lon="9.13878629228815"><ele>103.00000000000001</ele><time>2026-04-03T07:16:45.999Z</time></trkpt><trkpt lat="45.39014272579426" lon="9.138736882184414"><ele>103.0</ele><time>2026-04-03T07:16:46.999Z</time></trkpt><trkpt lat="45.39008572823048" lon="9.138683639553342"><ele>103.0</ele><time>2026-04-03T07:16:47.999Z</time></trkpt><trkpt lat="45.390033234237755" lon="9.138632903342188"><ele>103.0</ele><time>2026-04-03T07:16:48.999Z</time></trkpt><trkpt lat="45.389922820727385" lon="9.13854629597131"><ele>103.00000000000001</ele><time>2026-04-03T07:16:50.999Z</time></trkpt><trkpt lat="45.38986423531995" lon="9.13850882794851"><ele>103.0</ele><time>2026-04-03T07:16:51.999Z</time></trkpt><trkpt lat="45.38975203928024" lon="9.138443109128918"><ele>103.0</ele><time>2026-04-03T07:16:53.999Z</time></trkpt><trkpt lat="45.38963250332662" lon="9.138372433687477"><ele>103.0</ele><time>2026-04-03T07:16:55.999Z</time></trkpt><trkpt lat="45.38957098246977" lon="9.138337745725508"><ele>103.0</ele><time>2026-04-03T07:16:56.999Z</time></trkpt><trkpt lat="45.3894622880741" lon="9.138276671930376"><ele>103.0</ele><time>2026-04-03T07:16:59Z</time></trkpt><trkpt lat="45.38933636416618" lon="9.138209473907102"><ele>103.0</ele><time>2026-04-03T07:17:01Z</time></trkpt><trkpt lat="45.389241839117894" lon="9.138162595611892"><ele>103.0</ele><time>2026-04-03T07:17:02Z</time></trkpt><trkpt lat="45.389144782815684" lon="9.138116682605041"><ele>103.0</ele><time>2026-04-03T07:17:03Z</time></trkpt><trkpt lat="45.38903304092977" lon="9.13806949203938"><ele>103.0</ele><time>2026-04-03T07:17:04Z</time></trkpt><trkpt lat="45.3889105723396" lon="9.138019239839124"><ele>103.0</ele><time>2026-04-03T07:17:05Z</time></trkpt><trkpt lat="45.38877790268778" lon="9.13797390941346"><ele>102.75</ele><time>2026-04-03T07:17:06Z</time></trkpt><trkpt lat="45.38864125943575" lon="9.137934203541946"><ele>102.5</ele><time>2026-04-03T07:17:07Z</time></trkpt><trkpt lat="45.38849787905622" lon="9.137896674872435"><ele>102.25</ele><time>2026-04-03T07:17:08Z</time></trkpt><trkpt lat="45.38834968426585" lon="9.137854719900895"><ele>102.0</ele><time>2026-04-03T07:17:09Z</time></trkpt><trkpt lat="45.38819368442276" lon="9.137808847644713"><ele>102.0</ele><time>2026-04-03T07:17:10Z</time></trkpt><trkpt lat="45.388032574035606" lon="9.137759800153477"><ele>102.0</ele><time>2026-04-03T07:17:11Z</time></trkpt><trkpt lat="45.38786545922912" lon="9.137700578573678"><ele>102.0</ele><time>2026-04-03T07:17:12Z</time></trkpt><trkpt lat="45.387697824292914" lon="9.137636130270932"><ele>102.0</ele><time>2026-04-03T07:17:13Z</time></trkpt><trkpt lat="45.38752752695948" lon="9.137562767175217"><ele>102.0</ele><time>2026-04-03T07:17:14Z</time></trkpt><trkpt lat="45.38735726241564" lon="9.137479343278088"><ele>102.0</ele><time>2026-04-03T07:17:15Z</time></trkpt><trkpt lat="45.38718419298993" lon="9.137380568331402"><ele>101.66666666666666</ele><time>2026-04-03T07:17:16Z</time></trkpt><trkpt lat="45.387009354294115" lon="9.13726911329556"><ele>101.33333333333333</ele><time>2026-04-03T07:17:17Z</time></trkpt><trkpt lat="45.38683394304844" lon="9.1371592310131"><ele>101.0</ele><time>2026-04-03T07:17:18Z</time></trkpt><trkpt lat="45.386653009889095" lon="9.137050311601149"><ele>101.0</ele><time>2026-04-03T07:17:19Z</time></trkpt><trkpt lat="45.38646862337166" lon="9.13694380775156"><ele>101.0</ele><time>2026-04-03T07:17:20Z</time></trkpt><trkpt lat="45.386279102027096" lon="9.136838391711674"><ele>101.0</ele><time>2026-04-03T07:17:21Z</time></trkpt><trkpt lat="45.38609098453485" lon="9.136731963936326"><ele>101.0</ele><time>2026-04-03T07:17:22Z</time></trkpt><trkpt lat="45.38590226218126" lon="9.13662018532012"><ele>101.0</ele><time>2026-04-03T07:17:23Z</time></trkpt><trkpt lat="45.38571274178003" lon="9.136505521612316"><ele>101.0</ele><time>2026-04-03T07:17:24Z</time></trkpt><trkpt lat="45.3855228427467" lon="9.136390667144575"><ele>100.33333333333333</ele><time>2026-04-03T07:17:25Z</time></trkpt><trkpt lat="45.38533315182879" lon="9.136278671787075"><ele>99.66666666666666</ele><time>2026-04-03T07:17:26Z</time></trkpt><trkpt lat="45.38514385585439" lon="9.136167967364345"><ele>99.0</ele><time>2026-04-03T07:17:27Z</time></trkpt><trkpt lat="45.38495348193775" lon="9.136060808174133"><ele>99.0</ele><time>2026-04-03T07:17:28Z</time></trkpt><trkpt lat="45.38475581696485" lon="9.13595325175001"><ele>99.0</ele><time>2026-04-03T07:17:29Z</time></trkpt><trkpt lat="45.38455362950827" lon="9.135840058615264"><ele>99.0</ele><time>2026-04-03T07:17:30Z</time></trkpt><trkpt lat="45.38433896534654" lon="9.135715742849229"><ele>100.0</ele><time>2026-04-03T07:17:31Z</time></trkpt><trkpt lat="45.384121625795544" lon="9.135589588622908"><ele>101.0</ele><time>2026-04-03T07:17:32Z</time></trkpt><trkpt lat="45.38390007659431" lon="9.1354670562216"><ele>101.0</ele><time>2026-04-03T07:17:33Z</time></trkpt><trkpt lat="45.38367644708648" lon="9.135343791953337"><ele>101.0</ele><time>2026-04-03T07:17:34Z</time></trkpt><trkpt lat="45.38345737905703" lon="9.135220019428507"><ele>101.0</ele><time>2026-04-03T07:17:35Z</time></trkpt><trkpt lat="45.38324098470064" lon="9.135094435529815"><ele>101.0</ele><time>2026-04-03T07:17:36Z</time></trkpt><trkpt lat="45.38302876950967" lon="9.134968416219344"><ele>101.0</ele><time>2026-04-03T07:17:37Z</time></trkpt><trkpt lat="45.38281435375357" lon="9.134842606074589"><ele>101.0</ele><time>2026-04-03T07:17:37.999Z</time></trkpt><trkpt lat="45.38260023577798" lon="9.134720259835163"><ele>101.0</ele><time>2026-04-03T07:17:38.999Z</time></trkpt><trkpt lat="45.382381677254436" lon="9.134598873899195"><ele>101.0</ele><time>2026-04-03T07:17:39.999Z</time></trkpt><trkpt lat="45.38215432805428" lon="9.134476144256142"><ele>102.0</ele><time>2026-04-03T07:17:40.999Z</time></trkpt><trkpt lat="45.381921519639995" lon="9.134349706959208"><ele>103.0</ele><time>2026-04-03T07:17:41.999Z</time></trkpt><trkpt lat="45.381688505373496" lon="9.134214027819933"><ele>103.0</ele><time>2026-04-03T07:17:42.999Z</time></trkpt><trkpt lat="45.381456044721084" lon="9.13407143532809"><ele>103.0</ele><time>2026-04-03T07:17:43.999Z</time></trkpt><trkpt lat="45.381215934161105" lon="9.133938596312596"><ele>102.5</ele><time>2026-04-03T07:17:44.999Z</time></trkpt><trkpt lat="45.38097528331674" lon="9.133797379422855"><ele>102.0</ele><time>2026-04-03T07:17:45.999Z</time></trkpt><trkpt lat="45.38073012536231" lon="9.133652837814408"><ele>102.0</ele><time>2026-04-03T07:17:46.999Z</time></trkpt><trkpt lat="45.3804846743555" lon="9.13350324481623"><ele>102.0</ele><time>2026-04-03T07:17:47.999Z</time></trkpt><trkpt lat="45.38024104029708" lon="9.13333910019823"><ele>101.5</ele><time>2026-04-03T07:17:48.999Z</time></trkpt><trkpt lat="45.37999688731074" lon="9.13317698102204"><ele>101.0</ele><time>2026-04-03T07:17:49.999Z</time></trkpt><trkpt lat="45.37974891847557" lon="9.1330213322463"><ele>101.0</ele><time>2026-04-03T07:17:50.999Z</time></trkpt><trkpt lat="45.379497920713675" lon="9.132873450996833"><ele>101.0</ele><time>2026-04-03T07:17:51.999Z</time></trkpt><trkpt lat="45.37924246489687" lon="9.132722108341413"><ele>101.0</ele><time>2026-04-03T07:17:52.999Z</time></trkpt><trkpt lat="45.37898659817406" lon="9.13256672206946"><ele>101.0</ele><time>2026-04-03T07:17:53.999Z</time></trkpt><trkpt lat="45.3787262199694" lon="9.132410018640801"><ele>102.0</ele><time>2026-04-03T07:17:54.999Z</time></trkpt><trkpt lat="45.3784660709021" lon="9.132253039501128"><ele>103.0</ele><time>2026-04-03T07:17:55.999Z</time></trkpt><trkpt lat="45.37820245624348" lon="9.132096971879298"><ele>101.5</ele><time>2026-04-03T07:17:56.999Z</time></trkpt><trkpt lat="45.377940571239726" lon="9.131939042173496"><ele>100.0</ele><time>2026-04-03T07:17:57.999Z</time></trkpt><trkpt lat="45.37768101114666" lon="9.131777924571947"><ele>100.0</ele><time>2026-04-03T07:17:58.999Z</time></trkpt><trkpt lat="45.37741912948346" lon="9.1316147268066"><ele>100.0</ele><time>2026-04-03T07:17:59.999Z</time></trkpt><trkpt lat="45.37715835982876" lon="9.13145242468724"><ele>100.5</ele><time>2026-04-03T07:18:00.999Z</time></trkpt><trkpt lat="45.37689490664129" lon="9.131296346357166"><ele>101.0</ele><time>2026-04-03T07:18:01.999Z</time></trkpt><trkpt lat="45.37663376880719" lon="9.131143272852267"><ele>101.0</ele><time>2026-04-03T07:18:02.999Z</time></trkpt><trkpt lat="45.37637030135114" lon="9.130985918082127"><ele>101.0</ele><time>2026-04-03T07:18:03.999Z</time></trkpt><trkpt lat="45.376112592233774" lon="9.130825984457573"><ele>100.0</ele><time>2026-04-03T07:18:04.999Z</time></trkpt><trkpt lat="45.375855930129624" lon="9.130661315359491"><ele>99.0</ele><time>2026-04-03T07:18:05.999Z</time></trkpt><trkpt lat="45.37559934681418" lon="9.130489966612375"><ele>100.0</ele><time>2026-04-03T07:18:06.999Z</time></trkpt><trkpt lat="45.37534300745078" lon="9.130313292781498"><ele>101.0</ele><time>2026-04-03T07:18:07.999Z</time></trkpt><trkpt lat="45.37508741158659" lon="9.130130308554001"><ele>101.0</ele><time>2026-04-03T07:18:08.999Z</time></trkpt><trkpt lat="45.37483576788143" lon="9.129943306741042"><ele>101.0</ele><time>2026-04-03T07:18:09.999Z</time></trkpt><trkpt lat="45.37458422984987" lon="9.129750198777245"><ele>102.0</ele><time>2026-04-03T07:18:10.999Z</time></trkpt><trkpt lat="45.374334813405895" lon="9.129548499483315"><ele>103.0</ele><time>2026-04-03T07:18:11.999Z</time></trkpt><trkpt lat="45.37408609816074" lon="9.129341150875511"><ele>103.0</ele><time>2026-04-03T07:18:12.999Z</time></trkpt><trkpt lat="45.37383938822688" lon="9.129126477107478"><ele>103.0</ele><time>2026-04-03T07:18:13.999Z</time></trkpt><trkpt lat="45.37359400798607" lon="9.128911131717377"><ele>101.0</ele><time>2026-04-03T07:18:14.999Z</time></trkpt><trkpt lat="45.373346410801766" lon="9.1286902103565"><ele>99.0</ele><time>2026-04-03T07:18:15.999Z</time></trkpt><trkpt lat="45.37310249393933" lon="9.128464816660065"><ele>99.5</ele><time>2026-04-03T07:18:16.999Z</time></trkpt><trkpt lat="45.3728608172623" lon="9.128236095498373"><ele>100.0</ele><time>2026-04-03T07:18:17.999Z</time></trkpt><trkpt lat="45.37261807952285" lon="9.12800537295311"><ele>100.5</ele><time>2026-04-03T07:18:18.999Z</time></trkpt><trkpt lat="45.372375650746946" lon="9.127780430826096"><ele>101.0</ele><time>2026-04-03T07:18:19.999Z</time></trkpt><trkpt lat="45.37213070654424" lon="9.127548660164862"><ele>100.5</ele><time>2026-04-03T07:18:20.999Z</time></trkpt><trkpt lat="45.371888045843285" lon="9.127322537091004"><ele>100.0</ele><time>2026-04-03T07:18:21.999Z</time></trkpt><trkpt lat="45.371643702033836" lon="9.127095919864942"><ele>100.0</ele><time>2026-04-03T07:18:22.999Z</time></trkpt><trkpt lat="45.371398887415104" lon="9.1268701541954"><ele>100.0</ele><time>2026-04-03T07:18:23.999Z</time></trkpt><trkpt lat="45.371154753560816" lon="9.12663892074923"><ele>99.0</ele><time>2026-04-03T07:18:24.999Z</time></trkpt><trkpt lat="45.37091281640912" lon="9.12640694384161"><ele>98.0</ele><time>2026-04-03T07:18:25.999Z</time></trkpt><trkpt lat="45.37067239036652" lon="9.126174347341685"><ele>99.0</ele><time>2026-04-03T07:18:26.999Z</time></trkpt><trkpt lat="45.370430763431116" lon="9.125943422207367"><ele>100.0</ele><time>2026-04-03T07:18:27.999Z</time></trkpt><trkpt lat="45.370189516263615" lon="9.1257126327243"><ele>100.0</ele><time>2026-04-03T07:18:28.999Z</time></trkpt><trkpt lat="45.36994772453261" lon="9.12548322256608"><ele>100.0</ele><time>2026-04-03T07:18:29.999Z</time></trkpt><trkpt lat="45.36970799871706" lon="9.125256236915932"><ele>100.5</ele><time>2026-04-03T07:18:30.999Z</time></trkpt><trkpt lat="45.36946787498055" lon="9.125030749993787"><ele>101.0</ele><time>2026-04-03T07:18:31.999Z</time></trkpt><trkpt lat="45.369231027529125" lon="9.124805339805995"><ele>101.0</ele><time>2026-04-03T07:18:32.999Z</time></trkpt><trkpt lat="45.36899610338718" lon="9.12458110874013"><ele>101.0</ele><time>2026-04-03T07:18:33.999Z</time></trkpt><trkpt lat="45.368764749747626" lon="9.124360363571395"><ele>101.0</ele><time>2026-04-03T07:18:34.999Z</time></trkpt><trkpt lat="45.36853539477641" lon="9.124149009451129"><ele>101.0</ele><time>2026-04-03T07:18:35.999Z</time></trkpt><trkpt lat="45.36830463746389" lon="9.123937216560304"><ele>101.0</ele><time>2026-04-03T07:18:36.999Z</time></trkpt><trkpt lat="45.368076281904806" lon="9.123725226354374"><ele>101.0</ele><time>2026-04-03T07:18:37.999Z</time></trkpt><trkpt lat="45.36784790511191" lon="9.123509019150966"><ele>101.0</ele><time>2026-04-03T07:18:38.999Z</time></trkpt><trkpt lat="45.367616774553184" lon="9.12329413053107"><ele>101.0</ele><time>2026-04-03T07:18:39.999Z</time></trkpt><trkpt lat="45.367382665327554" lon="9.123084354999598"><ele>101.5</ele><time>2026-04-03T07:18:40.999Z</time></trkpt><trkpt lat="45.367150435425515" lon="9.122877993867073"><ele>102.0</ele><time>2026-04-03T07:18:41.999Z</time></trkpt><trkpt lat="45.366918191104794" lon="9.122669374888174"><ele>102.0</ele><time>2026-04-03T07:18:42.999Z</time></trkpt><trkpt lat="45.36668701558999" lon="9.12245382440218"><ele>102.0</ele><time>2026-04-03T07:18:43.999Z</time></trkpt><trkpt lat="45.36645602056574" lon="9.122232929753263"><ele>102.0</ele><time>2026-04-03T07:18:44.999Z</time></trkpt><trkpt lat="45.366226225007345" lon="9.122012972325251"><ele>102.0</ele><time>2026-04-03T07:18:45.999Z</time></trkpt><trkpt lat="45.36599386173312" lon="9.121790390683394"><ele>102.0</ele><time>2026-04-03T07:18:46.999Z</time></trkpt><trkpt lat="45.36575864439585" lon="9.121569338135442"><ele>102.0</ele><time>2026-04-03T07:18:47.999Z</time></trkpt><trkpt lat="45.36552116927858" lon="9.121350300232724"><ele>101.0</ele><time>2026-04-03T07:18:48.999Z</time></trkpt><trkpt lat="45.36528509063532" lon="9.121129105771605"><ele>100.0</ele><time>2026-04-03T07:18:49.999Z</time></trkpt><trkpt lat="45.36504947084966" lon="9.120902839707593"><ele>100.0</ele><time>2026-04-03T07:18:50.999Z</time></trkpt><trkpt lat="45.36481247491488" lon="9.120669858040767"><ele>100.0</ele><time>2026-04-03T07:18:51.999Z</time></trkpt><trkpt lat="45.36457862639848" lon="9.120434791407236"><ele>100.0</ele><time>2026-04-03T07:18:52.999Z</time></trkpt><trkpt lat="45.36434392056889" lon="9.12019813282361"><ele>100.0</ele><time>2026-04-03T07:18:53.999Z</time></trkpt><trkpt lat="45.36410773173403" lon="9.119964777938895"><ele>100.5</ele><time>2026-04-03T07:18:54.999Z</time></trkpt><trkpt lat="45.36387062716992" lon="9.119740064884532"><ele>101.0</ele><time>2026-04-03T07:18:55.999Z</time></trkpt><trkpt lat="45.363631104876525" lon="9.119516562743659"><ele>101.5</ele><time>2026-04-03T07:18:56.999Z</time></trkpt><trkpt lat="45.36339453416984" lon="9.119295822511324"><ele>102.0</ele><time>2026-04-03T07:18:57.999Z</time></trkpt><trkpt lat="45.36315549559763" lon="9.11906962106147"><ele>102.5</ele><time>2026-04-03T07:18:58.999Z</time></trkpt><trkpt lat="45.362918217028685" lon="9.118842083311959"><ele>103.0</ele><time>2026-04-03T07:18:59.999Z</time></trkpt><trkpt lat="45.362683556262574" lon="9.118613625048472"><ele>103.0</ele><time>2026-04-03T07:19:00.999Z</time></trkpt><trkpt lat="45.36244692579677" lon="9.118386380494046"><ele>103.0</ele><time>2026-04-03T07:19:01.999Z</time></trkpt><trkpt lat="45.362209211707935" lon="9.118165768919088"><ele>101.5</ele><time>2026-04-03T07:19:02.999Z</time></trkpt><trkpt lat="45.36197215465631" lon="9.11793615781688"><ele>100.0</ele><time>2026-04-03T07:19:04Z</time></trkpt><trkpt lat="45.36173587430238" lon="9.11770852111894"><ele>100.0</ele><time>2026-04-03T07:19:05Z</time></trkpt><trkpt lat="45.3614994404995" lon="9.117486231639866"><ele>100.0</ele><time>2026-04-03T07:19:06Z</time></trkpt><trkpt lat="45.361263133699644" lon="9.11726609589037"><ele>99.5</ele><time>2026-04-03T07:19:07Z</time></trkpt><trkpt lat="45.361024290304684" lon="9.117044089365859"><ele>99.0</ele><time>2026-04-03T07:19:08Z</time></trkpt><trkpt lat="45.36078631680786" lon="9.116823765881383"><ele>99.0</ele><time>2026-04-03T07:19:09Z</time></trkpt><trkpt lat="45.36054659363319" lon="9.116612279306702"><ele>99.0</ele><time>2026-04-03T07:19:10Z</time></trkpt><trkpt lat="45.36030344402526" lon="9.116405056056857"><ele>98.5</ele><time>2026-04-03T07:19:11Z</time></trkpt><trkpt lat="45.36005950108905" lon="9.11619689979008"><ele>98.0</ele><time>2026-04-03T07:19:12Z</time></trkpt><trkpt lat="45.35981385865292" lon="9.1159890344792"><ele>99.0</ele><time>2026-04-03T07:19:13Z</time></trkpt><trkpt lat="45.359570407052466" lon="9.115782634310094"><ele>100.0</ele><time>2026-04-03T07:19:14Z</time></trkpt><trkpt lat="45.35932340378754" lon="9.115576003387314"><ele>100.0</ele><time>2026-04-03T07:19:15Z</time></trkpt><trkpt lat="45.35907792782217" lon="9.11536817026819"><ele>100.0</ele><time>2026-04-03T07:19:16Z</time></trkpt><trkpt lat="45.35883120437335" lon="9.115159040006908"><ele>100.5</ele><time>2026-04-03T07:19:17Z</time></trkpt><trkpt lat="45.358580656242836" lon="9.114949508037625"><ele>101.0</ele><time>2026-04-03T07:19:18Z</time></trkpt><trkpt lat="45.3583314166771" lon="9.114739302265718"><ele>101.0</ele><time>2026-04-03T07:19:19Z</time></trkpt><trkpt lat="45.358081898004805" lon="9.11452942665658"><ele>101.0</ele><time>2026-04-03T07:19:20Z</time></trkpt><trkpt lat="45.357833790155716" lon="9.114314573352294"><ele>101.0</ele><time>2026-04-03T07:19:21Z</time></trkpt><trkpt lat="45.357586722326644" lon="9.114101659339031"><ele>101.0</ele><time>2026-04-03T07:19:22Z</time></trkpt><trkpt lat="45.35733605768287" lon="9.113890506432854"><ele>100.5</ele><time>2026-04-03T07:19:23Z</time></trkpt><trkpt lat="45.35708647079982" lon="9.113683356943692"><ele>100.0</ele><time>2026-04-03T07:19:24Z</time></trkpt><trkpt lat="45.356836369047116" lon="9.113475788052655"><ele>100.0</ele><time>2026-04-03T07:19:25Z</time></trkpt><trkpt lat="45.3565863734952" lon="9.113267989039809"><ele>100.0</ele><time>2026-04-03T07:19:26Z</time></trkpt><trkpt lat="45.35633766906471" lon="9.113059251085712"><ele>100.5</ele><time>2026-04-03T07:19:27Z</time></trkpt><trkpt lat="45.356089343299224" lon="9.112848200803741"><ele>101.0</ele><time>2026-04-03T07:19:28Z</time></trkpt><trkpt lat="45.35583918222222" lon="9.112637965279903"><ele>101.0</ele><time>2026-04-03T07:19:29Z</time></trkpt><trkpt lat="45.355590238808404" lon="9.112429936515186"><ele>101.0</ele><time>2026-04-03T07:19:30Z</time></trkpt><trkpt lat="45.35534266340291" lon="9.112219562484263"><ele>100.0</ele><time>2026-04-03T07:19:31Z</time></trkpt><trkpt lat="45.35509670338604" lon="9.112007110216485"><ele>99.0</ele><time>2026-04-03T07:19:32Z</time></trkpt><trkpt lat="45.35485347553588" lon="9.111791031565504"><ele>99.0</ele><time>2026-04-03T07:19:33Z</time></trkpt><trkpt lat="45.35461125044133" lon="9.11157240537954"><ele>99.0</ele><time>2026-04-03T07:19:34Z</time></trkpt><trkpt lat="45.354369286485934" lon="9.111359028786286"><ele>99.0</ele><time>2026-04-03T07:19:35Z</time></trkpt><trkpt lat="45.35412859737139" lon="9.111152322657487"><ele>99.0</ele><time>2026-04-03T07:19:36Z</time></trkpt><trkpt lat="45.353882580031744" lon="9.110942885740554"><ele>99.0</ele><time>2026-04-03T07:19:36.999Z</time></trkpt><trkpt lat="45.35363840866703" lon="9.110735591726938"><ele>99.0</ele><time>2026-04-03T07:19:37.999Z</time></trkpt><trkpt lat="45.353395847857755" lon="9.110532216300427"><ele>99.0</ele><time>2026-04-03T07:19:38.999Z</time></trkpt><trkpt lat="45.3531518062738" lon="9.110325935582058"><ele>99.0</ele><time>2026-04-03T07:19:39.999Z</time></trkpt><trkpt lat="45.35290785157134" lon="9.11011970895842"><ele>99.0</ele><time>2026-04-03T07:19:40.999Z</time></trkpt><trkpt lat="45.35266449676525" lon="9.109913173050908"><ele>99.0</ele><time>2026-04-03T07:19:41.999Z</time></trkpt><trkpt lat="45.352423338666384" lon="9.109707048261578"><ele>99.0</ele><time>2026-04-03T07:19:42.999Z</time></trkpt><trkpt lat="45.35218079733489" lon="9.109501722689387"><ele>99.0</ele><time>2026-04-03T07:19:43.999Z</time></trkpt><trkpt lat="45.35193844084163" lon="9.109295945164796"><ele>99.0</ele><time>2026-04-03T07:19:44.999Z</time></trkpt><trkpt lat="45.35169871362111" lon="9.109090185417099"><ele>99.0</ele><time>2026-04-03T07:19:45.999Z</time></trkpt><trkpt lat="45.351457257646665" lon="9.108885355843537"><ele>98.0</ele><time>2026-04-03T07:19:46.999Z</time></trkpt><trkpt lat="45.35121246068568" lon="9.108681183289594"><ele>97.0</ele><time>2026-04-03T07:19:47.999Z</time></trkpt><trkpt lat="45.35097044824573" lon="9.108479378840984"><ele>97.0</ele><time>2026-04-03T07:19:48.999Z</time></trkpt><trkpt lat="45.35072914195666" lon="9.108276010576928"><ele>97.0</ele><time>2026-04-03T07:19:49.999Z</time></trkpt><trkpt lat="45.35048740925865" lon="9.10807044607749"><ele>97.0</ele><time>2026-04-03T07:19:50.999Z</time></trkpt><trkpt lat="45.350243377145404" lon="9.107861394974588"><ele>97.0</ele><time>2026-04-03T07:19:51.999Z</time></trkpt><trkpt lat="45.35000438526357" lon="9.107656158541566"><ele>97.0</ele><time>2026-04-03T07:19:52.999Z</time></trkpt><trkpt lat="45.34976188760823" lon="9.10744685029138"><ele>97.0</ele><time>2026-04-03T07:19:53.999Z</time></trkpt><trkpt lat="45.34952103257956" lon="9.107244085830503"><ele>98.0</ele><time>2026-04-03T07:19:54.999Z</time></trkpt><trkpt lat="45.349275393044685" lon="9.107038994410356"><ele>99.0</ele><time>2026-04-03T07:19:55.999Z</time></trkpt><trkpt lat="45.34903224539674" lon="9.1068365867379"><ele>99.0</ele><time>2026-04-03T07:19:56.999Z</time></trkpt><trkpt lat="45.34878763583802" lon="9.106630927528899"><ele>99.0</ele><time>2026-04-03T07:19:57.999Z</time></trkpt><trkpt lat="45.348542133886134" lon="9.10642986770018"><ele>99.0</ele><time>2026-04-03T07:19:58.999Z</time></trkpt><trkpt lat="45.348296967825554" lon="9.106232034229562"><ele>99.0</ele><time>2026-04-03T07:19:59.999Z</time></trkpt><trkpt lat="45.34805210836712" lon="9.106027546006121"><ele>98.5</ele><time>2026-04-03T07:20:00.999Z</time></trkpt><trkpt lat="45.347809450282455" lon="9.105819773465802"><ele>98.0</ele><time>2026-04-03T07:20:01.999Z</time></trkpt><trkpt lat="45.347567581010985" lon="9.105611812241511"><ele>98.0</ele><time>2026-04-03T07:20:02.999Z</time></trkpt><trkpt lat="45.347325864688074" lon="9.105408024477931"><ele>98.0</ele><time>2026-04-03T07:20:03.999Z</time></trkpt><trkpt lat="45.34708284139296" lon="9.105201876025935"><ele>97.5</ele><time>2026-04-03T07:20:04.999Z</time></trkpt><trkpt lat="45.34684059135548" lon="9.104998420735914"><ele>97.0</ele><time>2026-04-03T07:20:05.999Z</time></trkpt><trkpt lat="45.346598440674086" lon="9.104794854944341"><ele>97.0</ele><time>2026-04-03T07:20:06.999Z</time></trkpt><trkpt lat="45.346357944126126" lon="9.104592463130272"><ele>97.0</ele><time>2026-04-03T07:20:07.999Z</time></trkpt><trkpt lat="45.34611983347639" lon="9.104391554205357"><ele>97.0</ele><time>2026-04-03T07:20:08.999Z</time></trkpt><trkpt lat="45.345883350139765" lon="9.10418938518657"><ele>97.0</ele><time>2026-04-03T07:20:09.999Z</time></trkpt><trkpt lat="45.34564680181407" lon="9.10398491887764"><ele>97.5</ele><time>2026-04-03T07:20:10.999Z</time></trkpt><trkpt lat="45.34541305204558" lon="9.103779082461484"><ele>98.0</ele><time>2026-04-03T07:20:11.999Z</time></trkpt><trkpt lat="45.345181776739466" lon="9.103569996509389"><ele>98.0</ele><time>2026-04-03T07:20:12.999Z</time></trkpt><trkpt lat="45.34495303573147" lon="9.103358525839361"><ele>98.0</ele><time>2026-04-03T07:20:13.999Z</time></trkpt><trkpt lat="45.34472561674786" lon="9.103143281125197"><ele>98.0</ele><time>2026-04-03T07:20:14.999Z</time></trkpt><trkpt lat="45.344498900179744" lon="9.10292941317396"><ele>98.0</ele><time>2026-04-03T07:20:15.999Z</time></trkpt><trkpt lat="45.34427216432009" lon="9.102716069442085"><ele>98.0</ele><time>2026-04-03T07:20:16.999Z</time></trkpt><trkpt lat="45.34404405912674" lon="9.102503023726511"><ele>98.0</ele><time>2026-04-03T07:20:17.999Z</time></trkpt><trkpt lat="45.34381598151868" lon="9.102290647796579"><ele>99.0</ele><time>2026-04-03T07:20:18.999Z</time></trkpt><trkpt lat="45.343588875598996" lon="9.102081800479949"><ele>100.0</ele><time>2026-04-03T07:20:19.999Z</time></trkpt><trkpt lat="45.34336011306025" lon="9.101870866725562"><ele>100.0</ele><time>2026-04-03T07:20:20.999Z</time></trkpt><trkpt lat="45.34313235037619" lon="9.101659162000775"><ele>100.0</ele><time>2026-04-03T07:20:21.999Z</time></trkpt><trkpt lat="45.34290498293214" lon="9.101446469280683"><ele>99.0</ele><time>2026-04-03T07:20:22.999Z</time></trkpt><trkpt lat="45.342678425002525" lon="9.101233449566369"><ele>98.0</ele><time>2026-04-03T07:20:23.999Z</time></trkpt><trkpt lat="45.34245409266524" lon="9.101020029503065"><ele>98.0</ele><time>2026-04-03T07:20:24.999Z</time></trkpt><trkpt lat="45.342232645346016" lon="9.100809099524142"><ele>98.0</ele><time>2026-04-03T07:20:25.999Z</time></trkpt><trkpt lat="45.342009429621534" lon="9.100598379527899"><ele>99.0</ele><time>2026-04-03T07:20:26.999Z</time></trkpt><trkpt lat="45.34178516198973" lon="9.100387891796927"><ele>100.0</ele><time>2026-04-03T07:20:27.999Z</time></trkpt><trkpt lat="45.341561718766464" lon="9.10017658052445"><ele>100.0</ele><time>2026-04-03T07:20:28.999Z</time></trkpt><trkpt lat="45.341338440959824" lon="9.099965119823292"><ele>100.0</ele><time>2026-04-03T07:20:29.999Z</time></trkpt><trkpt lat="45.34111483804495" lon="9.099756680277757"><ele>100.0</ele><time>2026-04-03T07:20:30.999Z</time></trkpt><trkpt lat="45.34089076111549" lon="9.099549505102715"><ele>100.0</ele><time>2026-04-03T07:20:31.999Z</time></trkpt><trkpt lat="45.340669147927166" lon="9.099339453449492"><ele>99.5</ele><time>2026-04-03T07:20:32.999Z</time></trkpt><trkpt lat="45.34044710770041" lon="9.09912145274644"><ele>99.0</ele><time>2026-04-03T07:20:33.999Z</time></trkpt><trkpt lat="45.3402273996807" lon="9.09890573870399"><ele>99.0</ele><time>2026-04-03T07:20:34.999Z</time></trkpt><trkpt lat="45.34000215297236" lon="9.098690356392256"><ele>99.0</ele><time>2026-04-03T07:20:35.999Z</time></trkpt><trkpt lat="45.339780398133904" lon="9.098480566717889"><ele>98.5</ele><time>2026-04-03T07:20:36.999Z</time></trkpt><trkpt lat="45.33955460871015" lon="9.0982687811397"><ele>98.0</ele><time>2026-04-03T07:20:37.999Z</time></trkpt><trkpt lat="45.33933084433163" lon="9.098059491968089"><ele>98.0</ele><time>2026-04-03T07:20:38.999Z</time></trkpt><trkpt lat="45.33910651758829" lon="9.097849062751616"><ele>98.0</ele><time>2026-04-03T07:20:39.999Z</time></trkpt><trkpt lat="45.33888796959798" lon="9.097634152652414"><ele>98.5</ele><time>2026-04-03T07:20:40.999Z</time></trkpt><trkpt lat="45.33866947834556" lon="9.097420671173936"><ele>99.0</ele><time>2026-04-03T07:20:41.999Z</time></trkpt><trkpt lat="45.33845249021497" lon="9.097214828832904"><ele>99.0</ele><time>2026-04-03T07:20:42.999Z</time></trkpt><trkpt lat="45.338237944897564" lon="9.097013395523991"><ele>99.0</ele><time>2026-04-03T07:20:43.999Z</time></trkpt><trkpt lat="45.33802330948636" lon="9.0968195457709"><ele>99.0</ele><time>2026-04-03T07:20:44.999Z</time></trkpt><trkpt lat="45.33780659937949" lon="9.096629323512868"><ele>99.0</ele><time>2026-04-03T07:20:45.999Z</time></trkpt><trkpt lat="45.337587736845116" lon="9.096445938602592"><ele>99.0</ele><time>2026-04-03T07:20:46.999Z</time></trkpt><trkpt lat="45.33736690557063" lon="9.096263781986025"><ele>99.0</ele><time>2026-04-03T07:20:47.999Z</time></trkpt><trkpt lat="45.33714549770888" lon="9.096086092814716"><ele>98.5</ele><time>2026-04-03T07:20:48.999Z</time></trkpt><trkpt lat="45.3369188848364" lon="9.095910852807007"><ele>98.0</ele><time>2026-04-03T07:20:49.999Z</time></trkpt><trkpt lat="45.33669022744193" lon="9.095740223733063"><ele>98.0</ele><time>2026-04-03T07:20:50.999Z</time></trkpt><trkpt lat="45.33646157652039" lon="9.095575270232798"><ele>98.0</ele><time>2026-04-03T07:20:51.999Z</time></trkpt><trkpt lat="45.33623069593486" lon="9.095411486167503"><ele>99.0</ele><time>2026-04-03T07:20:52.999Z</time></trkpt><trkpt lat="45.335997215158024" lon="9.095247041431776"><ele>100.0</ele><time>2026-04-03T07:20:53.999Z</time></trkpt><trkpt lat="45.33577065654618" lon="9.095091872258424"><ele>100.0</ele><time>2026-04-03T07:20:54.999Z</time></trkpt><trkpt lat="45.335539483890855" lon="9.094939925832213"><ele>100.0</ele><time>2026-04-03T07:20:55.999Z</time></trkpt><trkpt lat="45.33530759786534" lon="9.094796343272524"><ele>100.0</ele><time>2026-04-03T07:20:56.999Z</time></trkpt><trkpt lat="45.33507473651022" lon="9.094657950047157"><ele>100.0</ele><time>2026-04-03T07:20:57.999Z</time></trkpt><trkpt lat="45.334839153386625" lon="9.094523753119905"><ele>100.0</ele><time>2026-04-03T07:20:58.999Z</time></trkpt><trkpt lat="45.334603362595445" lon="9.094400297079893"><ele>100.0</ele><time>2026-04-03T07:20:59.999Z</time></trkpt><trkpt lat="45.33436475377716" lon="9.094286239481765"><ele>100.0</ele><time>2026-04-03T07:21:00.999Z</time></trkpt><trkpt lat="45.33412606947015" lon="9.094171079270199"><ele>100.0</ele><time>2026-04-03T07:21:01.999Z</time></trkpt><trkpt lat="45.333890624664384" lon="9.094047776009402"><ele>98.5</ele><time>2026-04-03T07:21:02.999Z</time></trkpt><trkpt lat="45.33365579881289" lon="9.093918040545976"><ele>97.0</ele><time>2026-04-03T07:21:03.998Z</time></trkpt><trkpt lat="45.33342372280936" lon="9.093779886955664"><ele>97.0</ele><time>2026-04-03T07:21:04.998Z</time></trkpt><trkpt lat="45.333193876783895" lon="9.093640540737603"><ele>97.0</ele><time>2026-04-03T07:21:05.998Z</time></trkpt><trkpt lat="45.33295978200171" lon="9.093500569719039"><ele>98.0</ele><time>2026-04-03T07:21:06.998Z</time></trkpt><trkpt lat="45.33272908373103" lon="9.093367897079728"><ele>99.0</ele><time>2026-04-03T07:21:07.998Z</time></trkpt><trkpt lat="45.33249560632654" lon="9.093232672418138"><ele>100.0</ele><time>2026-04-03T07:21:08.998Z</time></trkpt><trkpt lat="45.33226108244955" lon="9.093098403716466"><ele>101.0</ele><time>2026-04-03T07:21:10Z</time></trkpt><trkpt lat="45.33202974823772" lon="9.092966190514923"><ele>101.5</ele><time>2026-04-03T07:21:11Z</time></trkpt><trkpt lat="45.33179753774427" lon="9.09283318681754"><ele>102.0</ele><time>2026-04-03T07:21:12Z</time></trkpt><trkpt lat="45.33156573097152" lon="9.092696123813448"><ele>101.0</ele><time>2026-04-03T07:21:13Z</time></trkpt><trkpt lat="45.331335735819486" lon="9.092553875447656"><ele>100.0</ele><time>2026-04-03T07:21:14Z</time></trkpt><trkpt lat="45.331106568582506" lon="9.092400924905789"><ele>99.0</ele><time>2026-04-03T07:21:15Z</time></trkpt><trkpt lat="45.330879649949765" lon="9.092254085007776"><ele>98.0</ele><time>2026-04-03T07:21:16Z</time></trkpt><trkpt lat="45.33065008636883" lon="9.092110723832475"><ele>99.0</ele><time>2026-04-03T07:21:17Z</time></trkpt><trkpt lat="45.33041423678582" lon="9.091965576045821"><ele>100.0</ele><time>2026-04-03T07:21:18Z</time></trkpt><trkpt lat="45.33017859313503" lon="9.09181762005371"><ele>100.0</ele><time>2026-04-03T07:21:19Z</time></trkpt><trkpt lat="45.32994112598349" lon="9.091676256033685"><ele>100.0</ele><time>2026-04-03T07:21:20Z</time></trkpt><trkpt lat="45.32970136343808" lon="9.091538986500181"><ele>99.5</ele><time>2026-04-03T07:21:21Z</time></trkpt><trkpt lat="45.32945812232769" lon="9.091401300222579"><ele>99.0</ele><time>2026-04-03T07:21:22Z</time></trkpt><trkpt lat="45.32920901223064" lon="9.091261238915802"><ele>99.0</ele><time>2026-04-03T07:21:23Z</time></trkpt><trkpt lat="45.328960534087734" lon="9.091119382029905"><ele>99.0</ele><time>2026-04-03T07:21:24Z</time></trkpt><trkpt lat="45.328709381135965" lon="9.090977973691034"><ele>99.5</ele><time>2026-04-03T07:21:25Z</time></trkpt><trkpt lat="45.32845889510197" lon="9.090834179828988"><ele>100.0</ele><time>2026-04-03T07:21:26Z</time></trkpt><trkpt lat="45.328205053208336" lon="9.090690804191617"><ele>100.5</ele><time>2026-04-03T07:21:27Z</time></trkpt><trkpt lat="45.32795493624728" lon="9.090548906102093"><ele>101.0</ele><time>2026-04-03T07:21:28Z</time></trkpt><trkpt lat="45.32770115579211" lon="9.09040388898204"><ele>101.0</ele><time>2026-04-03T07:21:29Z</time></trkpt><trkpt lat="45.32744985281898" lon="9.090261328819496"><ele>101.0</ele><time>2026-04-03T07:21:30Z</time></trkpt><trkpt lat="45.3271970395051" lon="9.090120296952282"><ele>100.5</ele><time>2026-04-03T07:21:31Z</time></trkpt><trkpt lat="45.32694645481783" lon="9.08998160672086"><ele>100.0</ele><time>2026-04-03T07:21:32Z</time></trkpt><trkpt lat="45.32669358287508" lon="9.08983666736051"><ele>100.0</ele><time>2026-04-03T07:21:33Z</time></trkpt><trkpt lat="45.32643931277167" lon="9.0896923836631"><ele>100.0</ele><time>2026-04-03T07:21:34Z</time></trkpt><trkpt lat="45.32618471676689" lon="9.089546955693578"><ele>99.0</ele><time>2026-04-03T07:21:35Z</time></trkpt><trkpt lat="45.32593166305121" lon="9.089404749673905"><ele>98.0</ele><time>2026-04-03T07:21:35.999Z</time></trkpt><trkpt lat="45.3256772932576" lon="9.089261541336462"><ele>98.5</ele><time>2026-04-03T07:21:36.999Z</time></trkpt><trkpt lat="45.32542266166691" lon="9.089117644976453"><ele>99.0</ele><time>2026-04-03T07:21:37.999Z</time></trkpt><trkpt lat="45.32516633075683" lon="9.088969628023051"><ele>99.0</ele><time>2026-04-03T07:21:38.999Z</time></trkpt><trkpt lat="45.32491074211786" lon="9.088822844343285"><ele>99.0</ele><time>2026-04-03T07:21:39.999Z</time></trkpt><trkpt lat="45.32465485001486" lon="9.088677661660228"><ele>99.0</ele><time>2026-04-03T07:21:40.999Z</time></trkpt><trkpt lat="45.32439664324822" lon="9.088531263721512"><ele>99.0</ele><time>2026-04-03T07:21:41.999Z</time></trkpt><trkpt lat="45.32414300922606" lon="9.088387506398188"><ele>98.5</ele><time>2026-04-03T07:21:42.999Z</time></trkpt><trkpt lat="45.32388798602803" lon="9.08824335525257"><ele>98.0</ele><time>2026-04-03T07:21:43.999Z</time></trkpt><trkpt lat="45.32363011253416" lon="9.088099033649174"><ele>98.0</ele><time>2026-04-03T07:21:44.999Z</time></trkpt><trkpt lat="45.32337338859811" lon="9.087953369440553"><ele>98.0</ele><time>2026-04-03T07:21:45.999Z</time></trkpt><trkpt lat="45.32311880113051" lon="9.087807123956988"><ele>98.0</ele><time>2026-04-03T07:21:46.999Z</time></trkpt><trkpt lat="45.322867361979185" lon="9.087661165083299"><ele>98.0</ele><time>2026-04-03T07:21:47.999Z</time></trkpt><trkpt lat="45.32261695521434" lon="9.08751493120971"><ele>97.5</ele><time>2026-04-03T07:21:48.999Z</time></trkpt><trkpt lat="45.32236864582415" lon="9.0873587124043"><ele>97.0</ele><time>2026-04-03T07:21:49.999Z</time></trkpt><trkpt lat="45.322130192466155" lon="9.087193443246834"><ele>97.0</ele><time>2026-04-03T07:21:50.999Z</time></trkpt><trkpt lat="45.321895597397315" lon="9.087018300650683"><ele>97.0</ele><time>2026-04-03T07:21:51.999Z</time></trkpt><trkpt lat="45.32166685276721" lon="9.086833867171215"><ele>97.0</ele><time>2026-04-03T07:21:52.999Z</time></trkpt><trkpt lat="45.32143851250383" lon="9.086640158397568"><ele>97.0</ele><time>2026-04-03T07:21:53.999Z</time></trkpt><trkpt lat="45.32121597817619" lon="9.086440669711365"><ele>96.5</ele><time>2026-04-03T07:21:54.999Z</time></trkpt><trkpt lat="45.32099680381188" lon="9.086234928570546"><ele>96.0</ele><time>2026-04-03T07:21:55.999Z</time></trkpt><trkpt lat="45.3207784211345" lon="9.086027238790134"><ele>96.5</ele><time>2026-04-03T07:21:56.999Z</time></trkpt><trkpt lat="45.32056154453908" lon="9.085819353177703"><ele>97.0</ele><time>2026-04-03T07:21:57.999Z</time></trkpt><trkpt lat="45.320346727492094" lon="9.085610044306893"><ele>97.0</ele><time>2026-04-03T07:21:58.999Z</time></trkpt><trkpt lat="45.32013119524558" lon="9.085401323351542"><ele>97.0</ele><time>2026-04-03T07:21:59.999Z</time></trkpt><trkpt lat="45.31991488194015" lon="9.085194043435843"><ele>96.5</ele><time>2026-04-03T07:22:00.999Z</time></trkpt><trkpt lat="45.31969630290748" lon="9.08498615572487"><ele>96.0</ele><time>2026-04-03T07:22:01.999Z</time></trkpt><trkpt lat="45.31947595350993" lon="9.084783946902931"><ele>96.0</ele><time>2026-04-03T07:22:02.999Z</time></trkpt><trkpt lat="45.31925571467588" lon="9.08458253070898"><ele>96.0</ele><time>2026-04-03T07:22:03.999Z</time></trkpt><trkpt lat="45.319036265092116" lon="9.08438261955671"><ele>96.0</ele><time>2026-04-03T07:22:04.999Z</time></trkpt><trkpt lat="45.31881746936878" lon="9.084184451150604"><ele>96.0</ele><time>2026-04-03T07:22:05.999Z</time></trkpt><trkpt lat="45.31859596866747" lon="9.083979984426776"><ele>96.0</ele><time>2026-04-03T07:22:06.999Z</time></trkpt><trkpt lat="45.31837887107631" lon="9.083772723669199"><ele>96.0</ele><time>2026-04-03T07:22:07.999Z</time></trkpt><trkpt lat="45.318159484784786" lon="9.083566150547137"><ele>96.5</ele><time>2026-04-03T07:22:08.999Z</time></trkpt><trkpt lat="45.31794093674663" lon="9.083357855378232"><ele>97.0</ele><time>2026-04-03T07:22:09.999Z</time></trkpt><trkpt lat="45.31772194983487" lon="9.083151831809328"><ele>97.0</ele><time>2026-04-03T07:22:10.999Z</time></trkpt><trkpt lat="45.31750239492624" lon="9.082945826991953"><ele>97.0</ele><time>2026-04-03T07:22:11.999Z</time></trkpt><trkpt lat="45.317284498771315" lon="9.082739778138665"><ele>96.5</ele><time>2026-04-03T07:22:12.999Z</time></trkpt><trkpt lat="45.31706802774938" lon="9.082533708791008"><ele>96.0</ele><time>2026-04-03T07:22:13.999Z</time></trkpt><trkpt lat="45.316849626488185" lon="9.082330621587781"><ele>96.0</ele><time>2026-04-03T07:22:14.999Z</time></trkpt><trkpt lat="45.316632117343055" lon="9.082126313366972"><ele>96.0</ele><time>2026-04-03T07:22:15.999Z</time></trkpt><trkpt lat="45.316416845844145" lon="9.081923916864852"><ele>96.0</ele><time>2026-04-03T07:22:16.999Z</time></trkpt><trkpt lat="45.31620127343284" lon="9.081716844561596"><ele>96.0</ele><time>2026-04-03T07:22:17.999Z</time></trkpt><trkpt lat="45.31598657124109" lon="9.08150936040833"><ele>96.5</ele><time>2026-04-03T07:22:18.999Z</time></trkpt><trkpt lat="45.31577097282296" lon="9.081303406439565"><ele>97.0</ele><time>2026-04-03T07:22:19.999Z</time></trkpt><trkpt lat="45.31555622188524" lon="9.0810979209179"><ele>96.5</ele><time>2026-04-03T07:22:20.999Z</time></trkpt><trkpt lat="45.315342591811316" lon="9.080891519740032"><ele>96.0</ele><time>2026-04-03T07:22:21.999Z</time></trkpt><trkpt lat="45.315129339836126" lon="9.080688234391651"><ele>96.0</ele><time>2026-04-03T07:22:22.999Z</time></trkpt><trkpt lat="45.314914185735454" lon="9.080482378087039"><ele>96.0</ele><time>2026-04-03T07:22:23.999Z</time></trkpt><trkpt lat="45.314696269352474" lon="9.080274130090565"><ele>96.0</ele><time>2026-04-03T07:22:24.999Z</time></trkpt><trkpt lat="45.314472242882026" lon="9.08006206977767"><ele>96.0</ele><time>2026-04-03T07:22:25.999Z</time></trkpt><trkpt lat="45.31424435977898" lon="9.079845990203884"><ele>96.0</ele><time>2026-04-03T07:22:26.999Z</time></trkpt><trkpt lat="45.31400887548618" lon="9.079620633004778"><ele>96.0</ele><time>2026-04-03T07:22:27.999Z</time></trkpt><trkpt lat="45.31376797561562" lon="9.079388114026013"><ele>96.0</ele><time>2026-04-03T07:22:28.999Z</time></trkpt><trkpt lat="45.3135255760887" lon="9.079153222987566"><ele>96.0</ele><time>2026-04-03T07:22:29.999Z</time></trkpt><trkpt lat="45.313282014313" lon="9.078920777001366"><ele>95.5</ele><time>2026-04-03T07:22:30.999Z</time></trkpt><trkpt lat="45.31303732141132" lon="9.0786863182292"><ele>95.0</ele><time>2026-04-03T07:22:31.999Z</time></trkpt><trkpt lat="45.31279153643251" lon="9.078451620130688"><ele>95.5</ele><time>2026-04-03T07:22:32.999Z</time></trkpt><trkpt lat="45.31254467276007" lon="9.078214672033766"><ele>96.0</ele><time>2026-04-03T07:22:33.999Z</time></trkpt><trkpt lat="45.31229818964172" lon="9.077981288923183"><ele>96.0</ele><time>2026-04-03T07:22:34.999Z</time></trkpt><trkpt lat="45.31205284586393" lon="9.077747618435318"><ele>96.0</ele><time>2026-04-03T07:22:35.999Z</time></trkpt><trkpt lat="45.31180831206252" lon="9.077512804501637"><ele>96.5</ele><time>2026-04-03T07:22:36.999Z</time></trkpt><trkpt lat="45.31156607022408" lon="9.077281014762457"><ele>97.0</ele><time>2026-04-03T07:22:37.999Z</time></trkpt><trkpt lat="45.31132402362759" lon="9.077048652642048"><ele>96.5</ele><time>2026-04-03T07:22:38.999Z</time></trkpt><trkpt lat="45.311084716616946" lon="9.076819957424854"><ele>96.0</ele><time>2026-04-03T07:22:39.999Z</time></trkpt><trkpt lat="45.31084473311275" lon="9.076592071988523"><ele>96.0</ele><time>2026-04-03T07:22:40.999Z</time></trkpt><trkpt lat="45.31060633131783" lon="9.076364317089764"><ele>96.0</ele><time>2026-04-03T07:22:41.999Z</time></trkpt><trkpt lat="45.31036628573671" lon="9.076138366538073"><ele>96.0</ele><time>2026-04-03T07:22:42.999Z</time></trkpt><trkpt lat="45.31012868564675" lon="9.07591127761189"><ele>96.0</ele><time>2026-04-03T07:22:43.999Z</time></trkpt><trkpt lat="45.3098898647739" lon="9.075687202935658"><ele>94.5</ele><time>2026-04-03T07:22:44.999Z</time></trkpt><trkpt lat="45.309650266423155" lon="9.075462403940602"><ele>93.0</ele><time>2026-04-03T07:22:45.999Z</time></trkpt><trkpt lat="45.30941165932823" lon="9.075244469828013"><ele>93.0</ele><time>2026-04-03T07:22:46.999Z</time></trkpt><trkpt lat="45.30916846811092" lon="9.07503619516978"><ele>93.0</ele><time>2026-04-03T07:22:47.999Z</time></trkpt><trkpt lat="45.3089185874862" lon="9.074836698545601"><ele>94.5</ele><time>2026-04-03T07:22:48.999Z</time></trkpt><trkpt lat="45.30866428845811" lon="9.074645645559267"><ele>96.0</ele><time>2026-04-03T07:22:49.999Z</time></trkpt><trkpt lat="45.30840770100526" lon="9.07446542918589"><ele>96.0</ele><time>2026-04-03T07:22:50.999Z</time></trkpt><trkpt lat="45.3081503566198" lon="9.074287793902657"><ele>96.0</ele><time>2026-04-03T07:22:51.999Z</time></trkpt><trkpt lat="45.307892973758214" lon="9.074105333117334"><ele>96.0</ele><time>2026-04-03T07:22:52.999Z</time></trkpt><trkpt lat="45.30763730006003" lon="9.073922670825118"><ele>96.0</ele><time>2026-04-03T07:22:53.999Z</time></trkpt><trkpt lat="45.30738233422486" lon="9.073744086219016"><ele>96.0</ele><time>2026-04-03T07:22:54.999Z</time></trkpt><trkpt lat="45.307124893323056" lon="9.073568024030417"><ele>96.0</ele><time>2026-04-03T07:22:55.999Z</time></trkpt><trkpt lat="45.30686787153674" lon="9.073394518036086"><ele>96.0</ele><time>2026-04-03T07:22:56.999Z</time></trkpt><trkpt lat="45.306613590199134" lon="9.073224298366846"><ele>96.0</ele><time>2026-04-03T07:22:57.999Z</time></trkpt><trkpt lat="45.30635784357294" lon="9.073053290227742"><ele>96.0</ele><time>2026-04-03T07:22:58.999Z</time></trkpt><trkpt lat="45.306104194411674" lon="9.072883421614602"><ele>96.0</ele><time>2026-04-03T07:22:59.999Z</time></trkpt><trkpt lat="45.30584859418055" lon="9.072710238258658"><ele>96.0</ele><time>2026-04-03T07:23:00.999Z</time></trkpt><trkpt lat="45.305592224803846" lon="9.072535678379623"><ele>96.0</ele><time>2026-04-03T07:23:01.999Z</time></trkpt><trkpt lat="45.305336760111686" lon="9.072363740381777"><ele>95.5</ele><time>2026-04-03T07:23:02.999Z</time></trkpt><trkpt lat="45.305081174961025" lon="9.072191856526509"><ele>95.0</ele><time>2026-04-03T07:23:03.998Z</time></trkpt><trkpt lat="45.3048242854362" lon="9.072020192963274"><ele>95.5</ele><time>2026-04-03T07:23:04.998Z</time></trkpt><trkpt lat="45.30456814271775" lon="9.07184804356464"><ele>96.0</ele><time>2026-04-03T07:23:05.998Z</time></trkpt><trkpt lat="45.30431237528793" lon="9.071675065008245"><ele>96.0</ele><time>2026-04-03T07:23:06.998Z</time></trkpt><trkpt lat="45.30406028633479" lon="9.071503491730937"><ele>96.0</ele><time>2026-04-03T07:23:07.998Z</time></trkpt><trkpt lat="45.30380632524625" lon="9.07133157903023"><ele>95.5</ele><time>2026-04-03T07:23:08.998Z</time></trkpt><trkpt lat="45.303554449343125" lon="9.071162546792612"><ele>95.0</ele><time>2026-04-03T07:23:09.998Z</time></trkpt><trkpt lat="45.30330299532674" lon="9.070993347017193"><ele>95.0</ele><time>2026-04-03T07:23:10.998Z</time></trkpt><trkpt lat="45.30304742934368" lon="9.070823612031116"><ele>95.0</ele><time>2026-04-03T07:23:11.998Z</time></trkpt><trkpt lat="45.302793657752765" lon="9.070654400911186"><ele>95.5</ele><time>2026-04-03T07:23:12.998Z</time></trkpt><trkpt lat="45.302539019745886" lon="9.070483313299183"><ele>96.0</ele><time>2026-04-03T07:23:13.998Z</time></trkpt><trkpt lat="45.30228617904194" lon="9.070311847119742"><ele>96.0</ele><time>2026-04-03T07:23:15Z</time></trkpt><trkpt lat="45.30203341256989" lon="9.070141445053205"><ele>96.0</ele><time>2026-04-03T07:23:16Z</time></trkpt><trkpt lat="45.30178020599559" lon="9.069971428306303"><ele>96.0</ele><time>2026-04-03T07:23:17Z</time></trkpt><trkpt lat="45.30152791633544" lon="9.069800924813089"><ele>96.0</ele><time>2026-04-03T07:23:18Z</time></trkpt><trkpt lat="45.30127421346064" lon="9.06963039832617"><ele>96.0</ele><time>2026-04-03T07:23:19Z</time></trkpt><trkpt lat="45.30101838897054" lon="9.069456617999329"><ele>96.0</ele><time>2026-04-03T07:23:20Z</time></trkpt><trkpt lat="45.300761179579695" lon="9.069285417302224"><ele>96.0</ele><time>2026-04-03T07:23:21Z</time></trkpt><trkpt lat="45.300503789899935" lon="9.069115403185336"><ele>96.0</ele><time>2026-04-03T07:23:22Z</time></trkpt><trkpt lat="45.30024656557416" lon="9.068951361316241"><ele>96.0</ele><time>2026-04-03T07:23:23Z</time></trkpt><trkpt lat="45.29998712555123" lon="9.068785170536044"><ele>96.0</ele><time>2026-04-03T07:23:24Z</time></trkpt><trkpt lat="45.29972983277446" lon="9.068620021862339"><ele>95.5</ele><time>2026-04-03T07:23:25Z</time></trkpt><trkpt lat="45.29947077174638" lon="9.068458942505142"><ele>95.0</ele><time>2026-04-03T07:23:26Z</time></trkpt><trkpt lat="45.29921185038073" lon="9.068293336708527"><ele>94.5</ele><time>2026-04-03T07:23:27Z</time></trkpt><trkpt lat="45.298955993433104" lon="9.068122697177165"><ele>94.0</ele><time>2026-04-03T07:23:28Z</time></trkpt><trkpt lat="45.29869907017272" lon="9.067949093484275"><ele>93.5</ele><time>2026-04-03T07:23:29Z</time></trkpt><trkpt lat="45.29844289943821" lon="9.067774152273852"><ele>93.0</ele><time>2026-04-03T07:23:30Z</time></trkpt><trkpt lat="45.29818790946702" lon="9.067599717050545"><ele>94.0</ele><time>2026-04-03T07:23:31Z</time></trkpt><trkpt lat="45.29793295492391" lon="9.06742654050915"><ele>95.0</ele><time>2026-04-03T07:23:32Z</time></trkpt><trkpt lat="45.29767886657158" lon="9.067255939284296"><ele>95.0</ele><time>2026-04-03T07:23:32.999Z</time></trkpt><trkpt lat="45.29742448609157" lon="9.067089051573848"><ele>95.0</ele><time>2026-04-03T07:23:33.999Z</time></trkpt><trkpt lat="45.2971681671925" lon="9.066920019258202"><ele>94.5</ele><time>2026-04-03T07:23:34.999Z</time></trkpt><trkpt lat="45.29691257025578" lon="9.06674855145598"><ele>94.0</ele><time>2026-04-03T07:23:35.999Z</time></trkpt><trkpt lat="45.296659390239135" lon="9.066576140446152"><ele>94.0</ele><time>2026-04-03T07:23:36.999Z</time></trkpt><trkpt lat="45.29640532818506" lon="9.066403745150927"><ele>94.0</ele><time>2026-04-03T07:23:37.999Z</time></trkpt><trkpt lat="45.296153076075676" lon="9.066231637634385"><ele>94.0</ele><time>2026-04-03T07:23:38.999Z</time></trkpt><trkpt lat="45.29590023277081" lon="9.06605944167539"><ele>94.0</ele><time>2026-04-03T07:23:39.999Z</time></trkpt><trkpt lat="45.2956453164404" lon="9.065888004970182"><ele>94.0</ele><time>2026-04-03T07:23:40.999Z</time></trkpt><trkpt lat="45.29538828228377" lon="9.065715760542545"><ele>94.0</ele><time>2026-04-03T07:23:41.999Z</time></trkpt><trkpt lat="45.295128657826744" lon="9.06554188358978"><ele>94.0</ele><time>2026-04-03T07:23:42.999Z</time></trkpt><trkpt lat="45.294872899562954" lon="9.065370405845742"><ele>94.0</ele><time>2026-04-03T07:23:43.999Z</time></trkpt><trkpt lat="45.29461454823254" lon="9.06519688948672"><ele>94.5</ele><time>2026-04-03T07:23:44.999Z</time></trkpt><trkpt lat="45.29435810956948" lon="9.065024376548521"><ele>95.0</ele><time>2026-04-03T07:23:45.999Z</time></trkpt><trkpt lat="45.294100247845314" lon="9.064850899619643"><ele>94.0</ele><time>2026-04-03T07:23:46.999Z</time></trkpt><trkpt lat="45.29384387796801" lon="9.064682055274627"><ele>93.0</ele><time>2026-04-03T07:23:47.999Z</time></trkpt><trkpt lat="45.29358284883929" lon="9.064516486413787"><ele>93.0</ele><time>2026-04-03T07:23:48.999Z</time></trkpt><trkpt lat="45.29331937212211" lon="9.064360308969372"><ele>93.0</ele><time>2026-04-03T07:23:49.999Z</time></trkpt><trkpt lat="45.29305238258172" lon="9.06421762994653"><ele>94.5</ele><time>2026-04-03T07:23:50.999Z</time></trkpt><trkpt lat="45.29277832988367" lon="9.064087756288181"><ele>96.0</ele><time>2026-04-03T07:23:51.999Z</time></trkpt><trkpt lat="45.29250147209496" lon="9.063971577370316"><ele>96.0</ele><time>2026-04-03T07:23:52.999Z</time></trkpt><trkpt lat="45.292220457712794" lon="9.063867143099728"><ele>96.0</ele><time>2026-04-03T07:23:53.999Z</time></trkpt><trkpt lat="45.291939123561896" lon="9.063768256397847"><ele>96.0</ele><time>2026-04-03T07:23:54.999Z</time></trkpt><trkpt lat="45.29165520048561" lon="9.063668817815111"><ele>96.0</ele><time>2026-04-03T07:23:55.999Z</time></trkpt><trkpt lat="45.291373807799" lon="9.063565289254274"><ele>96.0</ele><time>2026-04-03T07:23:56.999Z</time></trkpt><trkpt lat="45.2910914308234" lon="9.063461226490064"><ele>96.0</ele><time>2026-04-03T07:23:57.999Z</time></trkpt><trkpt lat="45.29081033796111" lon="9.063356571788857"><ele>94.5</ele><time>2026-04-03T07:23:58.999Z</time></trkpt><trkpt lat="45.290530517548554" lon="9.063248496372783"><ele>93.0</ele><time>2026-04-03T07:23:59.999Z</time></trkpt><trkpt lat="45.29025116390415" lon="9.063140545584682"><ele>93.0</ele><time>2026-04-03T07:24:00.999Z</time></trkpt><trkpt lat="45.289974077419856" lon="9.063036999468853"><ele>93.0</ele><time>2026-04-03T07:24:01.999Z</time></trkpt><trkpt lat="45.28969635663296" lon="9.062935050674932"><ele>93.5</ele><time>2026-04-03T07:24:02.999Z</time></trkpt><trkpt lat="45.289417341741405" lon="9.062835956877507"><ele>94.0</ele><time>2026-04-03T07:24:03.999Z</time></trkpt><trkpt lat="45.289136805754914" lon="9.06273289272997"><ele>94.5</ele><time>2026-04-03T07:24:04.999Z</time></trkpt><trkpt lat="45.28885643919115" lon="9.062629366890514"><ele>95.0</ele><time>2026-04-03T07:24:05.999Z</time></trkpt><trkpt lat="45.28857552413876" lon="9.062527099367834"><ele>95.0</ele><time>2026-04-03T07:24:06.999Z</time></trkpt><trkpt lat="45.28829700203585" lon="9.062425445556812"><ele>95.0</ele><time>2026-04-03T07:24:07.999Z</time></trkpt><trkpt lat="45.28801781487269" lon="9.062321442777032"><ele>96.0</ele><time>2026-04-03T07:24:08.999Z</time></trkpt><trkpt lat="45.28774067917517" lon="9.062217003643392"><ele>97.0</ele><time>2026-04-03T07:24:09.999Z</time></trkpt><trkpt lat="45.28746554334312" lon="9.062113406631962"><ele>95.5</ele><time>2026-04-03T07:24:10.999Z</time></trkpt><trkpt lat="45.28718561856367" lon="9.062008545194107"><ele>94.0</ele><time>2026-04-03T07:24:11.999Z</time></trkpt><trkpt lat="45.28690922986302" lon="9.061907688180463"><ele>94.0</ele><time>2026-04-03T07:24:12.999Z</time></trkpt><trkpt lat="45.286632812854286" lon="9.061805945528251"><ele>94.0</ele><time>2026-04-03T07:24:13.999Z</time></trkpt><trkpt lat="45.28635757119468" lon="9.061701039471993"><ele>94.0</ele><time>2026-04-03T07:24:14.999Z</time></trkpt><trkpt lat="45.28608364414075" lon="9.061590559155999"><ele>94.0</ele><time>2026-04-03T07:24:15.999Z</time></trkpt><trkpt lat="45.28581117364637" lon="9.061480342793876"><ele>93.5</ele><time>2026-04-03T07:24:16.999Z</time></trkpt><trkpt lat="45.28553905159717" lon="9.061376081662717"><ele>93.0</ele><time>2026-04-03T07:24:17.999Z</time></trkpt><trkpt lat="45.285267666117655" lon="9.061277574358675"><ele>93.0</ele><time>2026-04-03T07:24:18.999Z</time></trkpt><trkpt lat="45.2849981028459" lon="9.061179734948302"><ele>93.0</ele><time>2026-04-03T07:24:19.999Z</time></trkpt><trkpt lat="45.28472887458621" lon="9.061079432575244"><ele>93.0</ele><time>2026-04-03T07:24:20.999Z</time></trkpt><trkpt lat="45.28446171752485" lon="9.060979927515884"><ele>93.0</ele><time>2026-04-03T07:24:21.999Z</time></trkpt><trkpt lat="45.284195446804205" lon="9.060880278555166"><ele>93.0</ele><time>2026-04-03T07:24:22.999Z</time></trkpt><trkpt lat="45.28392877077398" lon="9.06078197638703"><ele>93.0</ele><time>2026-04-03T07:24:23.999Z</time></trkpt><trkpt lat="45.28366436243237" lon="9.060684632922287"><ele>93.0</ele><time>2026-04-03T07:24:24.999Z</time></trkpt><trkpt lat="45.28340108038587" lon="9.060587488555658"><ele>93.0</ele><time>2026-04-03T07:24:25.999Z</time></trkpt><trkpt lat="45.283137035033334" lon="9.060489688087529"><ele>94.0</ele><time>2026-04-03T07:24:26.999Z</time></trkpt><trkpt lat="45.282873415030245" lon="9.060392771105294"><ele>95.0</ele><time>2026-04-03T07:24:27.999Z</time></trkpt><trkpt lat="45.28261011044704" lon="9.06029884992858"><ele>95.0</ele><time>2026-04-03T07:24:28.999Z</time></trkpt><trkpt lat="45.282347404429636" lon="9.060208106603573"><ele>95.0</ele><time>2026-04-03T07:24:29.999Z</time></trkpt><trkpt lat="45.28207990551079" lon="9.060118072174385"><ele>95.0</ele><time>2026-04-03T07:24:30.999Z</time></trkpt><trkpt lat="45.28181895014418" lon="9.060033713104756"><ele>95.0</ele><time>2026-04-03T07:24:31.999Z</time></trkpt><trkpt lat="45.28155674306344" lon="9.059944375829991"><ele>95.0</ele><time>2026-04-03T07:24:32.999Z</time></trkpt><trkpt lat="45.281294824704894" lon="9.05985378664617"><ele>95.0</ele><time>2026-04-03T07:24:33.999Z</time></trkpt><trkpt lat="45.28103534792414" lon="9.05975848928123"><ele>95.0</ele><time>2026-04-03T07:24:34.999Z</time></trkpt><trkpt lat="45.28077612214709" lon="9.059659287916377"><ele>95.0</ele><time>2026-04-03T07:24:35.999Z</time></trkpt><trkpt lat="45.28052063343165" lon="9.059559626804633"><ele>94.5</ele><time>2026-04-03T07:24:36.999Z</time></trkpt><trkpt lat="45.2802640035622" lon="9.059463918292186"><ele>94.0</ele><time>2026-04-03T07:24:37.999Z</time></trkpt><trkpt lat="45.2800081072198" lon="9.05937108538358"><ele>94.0</ele><time>2026-04-03T07:24:38.999Z</time></trkpt><trkpt lat="45.27975357882541" lon="9.059276683581482"><ele>94.0</ele><time>2026-04-03T07:24:39.999Z</time></trkpt><trkpt lat="45.27949845684413" lon="9.059183365850703"><ele>93.0</ele><time>2026-04-03T07:24:40.999Z</time></trkpt><trkpt lat="45.27924191954276" lon="9.059091163814447"><ele>92.0</ele><time>2026-04-03T07:24:41.999Z</time></trkpt><trkpt lat="45.27898427469249" lon="9.058996940162187"><ele>92.0</ele><time>2026-04-03T07:24:42.999Z</time></trkpt><trkpt lat="45.27872724759484" lon="9.058901524018417"><ele>92.0</ele><time>2026-04-03T07:24:43.999Z</time></trkpt><trkpt lat="45.27846992324078" lon="9.05880405669063"><ele>92.0</ele><time>2026-04-03T07:24:44.999Z</time></trkpt><trkpt lat="45.27821330355651" lon="9.058706593373143"><ele>92.0</ele><time>2026-04-03T07:24:45.999Z</time></trkpt><trkpt lat="45.27795076774522" lon="9.05861194980628"><ele>92.5</ele><time>2026-04-03T07:24:46.999Z</time></trkpt><trkpt lat="45.27768603936963" lon="9.05851853258184"><ele>93.0</ele><time>2026-04-03T07:24:47.999Z</time></trkpt><trkpt lat="45.27742021156931" lon="9.058421453168291"><ele>93.0</ele><time>2026-04-03T07:24:48.999Z</time></trkpt><trkpt lat="45.27715331398381" lon="9.058320960874653"><ele>93.0</ele><time>2026-04-03T07:24:49.999Z</time></trkpt><trkpt lat="45.276888055073485" lon="9.058224523851647"><ele>93.0</ele><time>2026-04-03T07:24:50.999Z</time></trkpt><trkpt lat="45.276619152095996" lon="9.058118352813118"><ele>93.0</ele><time>2026-04-03T07:24:51.999Z</time></trkpt><trkpt lat="45.27635295525222" lon="9.058005472390265"><ele>93.0</ele><time>2026-04-03T07:24:52.999Z</time></trkpt><trkpt lat="45.27608519750184" lon="9.057897647901235"><ele>93.0</ele><time>2026-04-03T07:24:53.999Z</time></trkpt><trkpt lat="45.2758144657099" lon="9.057793941976001"><ele>92.5</ele><time>2026-04-03T07:24:54.999Z</time></trkpt><trkpt lat="45.27554474508757" lon="9.0576928264081"><ele>92.0</ele><time>2026-04-03T07:24:55.999Z</time></trkpt><trkpt lat="45.27526805058427" lon="9.057590542589276"><ele>92.0</ele><time>2026-04-03T07:24:56.999Z</time></trkpt><trkpt lat="45.27499097508011" lon="9.057488052438654"><ele>92.0</ele><time>2026-04-03T07:24:57.999Z</time></trkpt><trkpt lat="45.27471475127579" lon="9.05738530822656"><ele>93.0</ele><time>2026-04-03T07:24:58.999Z</time></trkpt><trkpt lat="45.27443655293765" lon="9.057281074308236"><ele>94.0</ele><time>2026-04-03T07:24:59.999Z</time></trkpt><trkpt lat="45.274157975548526" lon="9.057177587402112"><ele>93.5</ele><time>2026-04-03T07:25:00.999Z</time></trkpt><trkpt lat="45.2738805728221" lon="9.057075421255066"><ele>93.0</ele><time>2026-04-03T07:25:01.999Z</time></trkpt><trkpt lat="45.273601698107775" lon="9.05697314945698"><ele>93.0</ele><time>2026-04-03T07:25:02.999Z</time></trkpt><trkpt lat="45.27332409990836" lon="9.056871410333839"><ele>93.0</ele><time>2026-04-03T07:25:03.998Z</time></trkpt><trkpt lat="45.27304396597412" lon="9.056769502663716"><ele>93.0</ele><time>2026-04-03T07:25:04.998Z</time></trkpt><trkpt lat="45.272764585047135" lon="9.05666816390515"><ele>93.0</ele><time>2026-04-03T07:25:05.998Z</time></trkpt><trkpt lat="45.27248308788888" lon="9.05656566655275"><ele>92.5</ele><time>2026-04-03T07:25:06.998Z</time></trkpt><trkpt lat="45.27220549145601" lon="9.05646520012983"><ele>92.0</ele><time>2026-04-03T07:25:07.998Z</time></trkpt><trkpt lat="45.27192433082744" lon="9.056362525262227"><ele>92.0</ele><time>2026-04-03T07:25:08.998Z</time></trkpt><trkpt lat="45.27164605730306" lon="9.056262163105385"><ele>92.0</ele><time>2026-04-03T07:25:09.998Z</time></trkpt><trkpt lat="45.27136719564451" lon="9.056158928416094"><ele>92.5</ele><time>2026-04-03T07:25:10.998Z</time></trkpt><trkpt lat="45.271088626406616" lon="9.056055160401613"><ele>93.0</ele><time>2026-04-03T07:25:11.998Z</time></trkpt><trkpt lat="45.27081239578423" lon="9.055951613958984"><ele>93.0</ele><time>2026-04-03T07:25:12.998Z</time></trkpt><trkpt lat="45.27053232611811" lon="9.05584608053052"><ele>93.0</ele><time>2026-04-03T07:25:13.998Z</time></trkpt><trkpt lat="45.27025321211701" lon="9.055740841272042"><ele>92.0</ele><time>2026-04-03T07:25:14.998Z</time></trkpt><trkpt lat="45.269975268413475" lon="9.055636399917786"><ele>91.0</ele><time>2026-04-03T07:25:15.998Z</time></trkpt><trkpt lat="45.26969486100507" lon="9.05553202775425"><ele>91.0</ele><time>2026-04-03T07:25:16.998Z</time></trkpt><trkpt lat="45.269414858207" lon="9.055432728047798"><ele>91.0</ele><time>2026-04-03T07:25:17.998Z</time></trkpt><trkpt lat="45.26913489291356" lon="9.05533325272371"><ele>91.0</ele><time>2026-04-03T07:25:18.998Z</time></trkpt><trkpt lat="45.2688549390891" lon="9.055233699626557"><ele>91.0</ele><time>2026-04-03T07:25:19.998Z</time></trkpt><trkpt lat="45.268575372924474" lon="9.055131888034662"><ele>91.0</ele><time>2026-04-03T07:25:20.999Z</time></trkpt><trkpt lat="45.268297754598336" lon="9.055029078783294"><ele>91.0</ele><time>2026-04-03T07:25:21.999Z</time></trkpt><trkpt lat="45.26801956896746" lon="9.054925023876656"><ele>91.5</ele><time>2026-04-03T07:25:22.999Z</time></trkpt><trkpt lat="45.26774058264511" lon="9.054819830527011"><ele>92.0</ele><time>2026-04-03T07:25:23.999Z</time></trkpt><trkpt lat="45.26746066106849" lon="9.05471396584232"><ele>91.5</ele><time>2026-04-03T07:25:24.999Z</time></trkpt><trkpt lat="45.267181716888615" lon="9.05461092411236"><ele>91.0</ele><time>2026-04-03T07:25:25.999Z</time></trkpt><trkpt lat="45.266903267772065" lon="9.054508396340506"><ele>91.0</ele><time>2026-04-03T07:25:26.999Z</time></trkpt><trkpt lat="45.2666226441078" lon="9.054405929614646"><ele>91.0</ele><time>2026-04-03T07:25:27.999Z</time></trkpt><trkpt lat="45.26634174674916" lon="9.05430486609943"><ele>91.0</ele><time>2026-04-03T07:25:28.999Z</time></trkpt><trkpt lat="45.26606395751714" lon="9.054204325819919"><ele>91.0</ele><time>2026-04-03T07:25:30Z</time></trkpt><trkpt lat="45.265784128712056" lon="9.054101991475841"><ele>91.5</ele><time>2026-04-03T07:25:30.999Z</time></trkpt><trkpt lat="45.26550518239185" lon="9.054001423243887"><ele>92.0</ele><time>2026-04-03T07:25:31.999Z</time></trkpt><trkpt lat="45.26522437230622" lon="9.053897887001911"><ele>92.0</ele><time>2026-04-03T07:25:32.999Z</time></trkpt><trkpt lat="45.26494326266354" lon="9.053793201013375"><ele>92.0</ele><time>2026-04-03T07:25:33.999Z</time></trkpt><trkpt lat="45.2646617682069" lon="9.053688633276028"><ele>92.0</ele><time>2026-04-03T07:25:34.999Z</time></trkpt><trkpt lat="45.26437936451379" lon="9.053581770186026"><ele>92.0</ele><time>2026-04-03T07:25:35.999Z</time></trkpt><trkpt lat="45.264097472057415" lon="9.05347393151964"><ele>91.5</ele><time>2026-04-03T07:25:36.999Z</time></trkpt><trkpt lat="45.26381778452077" lon="9.053360668384512"><ele>91.0</ele><time>2026-04-03T07:25:37.999Z</time></trkpt><trkpt lat="45.26353435857452" lon="9.053232940564271"><ele>90.5</ele><time>2026-04-03T07:25:38.999Z</time></trkpt><trkpt lat="45.26325087236042" lon="9.053089419770533"><ele>90.0</ele><time>2026-04-03T07:25:39.999Z</time></trkpt><trkpt lat="45.262970508705415" lon="9.052933549297922"><ele>90.0</ele><time>2026-04-03T07:25:40.999Z</time></trkpt><trkpt lat="45.26269005684061" lon="9.052760992206354"><ele>90.0</ele><time>2026-04-03T07:25:41.999Z</time></trkpt><trkpt lat="45.262413713434555" lon="9.05258173250742"><ele>91.0</ele><time>2026-04-03T07:25:42.999Z</time></trkpt><trkpt lat="45.26213795148586" lon="9.052400856577687"><ele>92.0</ele><time>2026-04-03T07:25:43.999Z</time></trkpt><trkpt lat="45.26186269808875" lon="9.052219107656933"><ele>92.0</ele><time>2026-04-03T07:25:44.999Z</time></trkpt><trkpt lat="45.261584090846725" lon="9.052035841926498"><ele>92.0</ele><time>2026-04-03T07:25:45.999Z</time></trkpt><trkpt lat="45.26130458668744" lon="9.051856659049712"><ele>92.0</ele><time>2026-04-03T07:25:46.999Z</time></trkpt><trkpt lat="45.26102703132743" lon="9.05168131535132"><ele>92.0</ele><time>2026-04-03T07:25:47.999Z</time></trkpt><trkpt lat="45.260748079385664" lon="9.051507487898117"><ele>92.0</ele><time>2026-04-03T07:25:48.999Z</time></trkpt><trkpt lat="45.26046922942706" lon="9.051333088983492"><ele>92.0</ele><time>2026-04-03T07:25:49.999Z</time></trkpt><trkpt lat="45.260192871958324" lon="9.051153755249269"><ele>92.0</ele><time>2026-04-03T07:25:50.999Z</time></trkpt><trkpt lat="45.259917873366454" lon="9.050974077382467"><ele>92.0</ele><time>2026-04-03T07:25:51.999Z</time></trkpt><trkpt lat="45.25964250909604" lon="9.050797109492398"><ele>92.5</ele><time>2026-04-03T07:25:52.999Z</time></trkpt><trkpt lat="45.25936957281626" lon="9.050623145918209"><ele>93.0</ele><time>2026-04-03T07:25:53.999Z</time></trkpt><trkpt lat="45.2590954942486" lon="9.050444682940261"><ele>92.0</ele><time>2026-04-03T07:25:54.999Z</time></trkpt><trkpt lat="45.258822945006294" lon="9.050267655376429"><ele>91.0</ele><time>2026-04-03T07:25:55.999Z</time></trkpt><trkpt lat="45.25855212357466" lon="9.050090143091273"><ele>91.0</ele><time>2026-04-03T07:25:56.999Z</time></trkpt><trkpt lat="45.25828206324055" lon="9.04991863302701"><ele>91.0</ele><time>2026-04-03T07:25:57.999Z</time></trkpt><trkpt lat="45.25801098054133" lon="9.049749829817696"><ele>91.0</ele><time>2026-04-03T07:25:58.999Z</time></trkpt><trkpt lat="45.257741476542115" lon="9.049581368672966"><ele>91.0</ele><time>2026-04-03T07:25:59.999Z</time></trkpt><trkpt lat="45.257474472910886" lon="9.049410276817303"><ele>91.5</ele><time>2026-04-03T07:26:00.999Z</time></trkpt><trkpt lat="45.25720772765825" lon="9.049243027357512"><ele>92.0</ele><time>2026-04-03T07:26:01.999Z</time></trkpt><trkpt lat="45.25694078255876" lon="9.049083999145072"><ele>92.0</ele><time>2026-04-03T07:26:02.999Z</time></trkpt><trkpt lat="45.256673616789776" lon="9.048930017905166"><ele>92.0</ele><time>2026-04-03T07:26:03.999Z</time></trkpt><trkpt lat="45.25640711421712" lon="9.048769268499544"><ele>91.5</ele><time>2026-04-03T07:26:04.999Z</time></trkpt><trkpt lat="45.256141747201156" lon="9.048600235726532"><ele>91.0</ele><time>2026-04-03T07:26:05.999Z</time></trkpt><trkpt lat="45.255876820193016" lon="9.04842844277653"><ele>92.0</ele><time>2026-04-03T07:26:06.999Z</time></trkpt><trkpt lat="45.25561219241311" lon="9.048257872516029"><ele>93.0</ele><time>2026-04-03T07:26:07.999Z</time></trkpt><trkpt lat="45.25535059513826" lon="9.048090779708598"><ele>93.0</ele><time>2026-04-03T07:26:08.999Z</time></trkpt><trkpt lat="45.25508703101277" lon="9.047921066226467"><ele>93.0</ele><time>2026-04-03T07:26:09.999Z</time></trkpt><trkpt lat="45.25482179257501" lon="9.047750451040871"><ele>92.5</ele><time>2026-04-03T07:26:10.999Z</time></trkpt><trkpt lat="45.25455532351128" lon="9.047579452704513"><ele>92.0</ele><time>2026-04-03T07:26:11.999Z</time></trkpt><trkpt lat="45.25429081811051" lon="9.047411542478127"><ele>92.0</ele><time>2026-04-03T07:26:12.999Z</time></trkpt><trkpt lat="45.25402510558002" lon="9.047245937734962"><ele>92.0</ele><time>2026-04-03T07:26:13.999Z</time></trkpt><trkpt lat="45.25376057615619" lon="9.047079856228853"><ele>92.0</ele><time>2026-04-03T07:26:14.999Z</time></trkpt><trkpt lat="45.25349541254566" lon="9.046912705371529"><ele>92.0</ele><time>2026-04-03T07:26:15.999Z</time></trkpt><trkpt lat="45.25323202729523" lon="9.046745658715162"><ele>92.0</ele><time>2026-04-03T07:26:16.999Z</time></trkpt><trkpt lat="45.25296832385635" lon="9.046578527748263"><ele>92.0</ele><time>2026-04-03T07:26:17.999Z</time></trkpt><trkpt lat="45.25270544147344" lon="9.046413148353107"><ele>92.0</ele><time>2026-04-03T07:26:18.999Z</time></trkpt><trkpt lat="45.252440608378336" lon="9.046245589189418"><ele>92.0</ele><time>2026-04-03T07:26:19.999Z</time></trkpt><trkpt lat="45.25217695751873" lon="9.0460792957447"><ele>92.0</ele><time>2026-04-03T07:26:20.999Z</time></trkpt><trkpt lat="45.25191182188526" lon="9.045918871609294"><ele>92.0</ele><time>2026-04-03T07:26:21.999Z</time></trkpt><trkpt lat="45.25164647872304" lon="9.045760958014252"><ele>92.0</ele><time>2026-04-03T07:26:22.999Z</time></trkpt><trkpt lat="45.25138568737284" lon="9.045596686065316"><ele>92.0</ele><time>2026-04-03T07:26:23.999Z</time></trkpt><trkpt lat="45.25112791109666" lon="9.045426105147131"><ele>92.0</ele><time>2026-04-03T07:26:24.999Z</time></trkpt><trkpt lat="45.25087249656044" lon="9.045250274230732"><ele>92.0</ele><time>2026-04-03T07:26:25.999Z</time></trkpt><trkpt lat="45.25062003353216" lon="9.045076061121446"><ele>91.5</ele><time>2026-04-03T07:26:26.999Z</time></trkpt><trkpt lat="45.25036429432189" lon="9.044902823290945"><ele>91.0</ele><time>2026-04-03T07:26:27.999Z</time></trkpt><trkpt lat="45.25010722419248" lon="9.044734685430583"><ele>91.0</ele><time>2026-04-03T07:26:28.999Z</time></trkpt><trkpt lat="45.249850241835425" lon="9.04457105744343"><ele>91.0</ele><time>2026-04-03T07:26:29.999Z</time></trkpt><trkpt lat="45.24959224215822" lon="9.044408431703951"><ele>91.0</ele><time>2026-04-03T07:26:30.999Z</time></trkpt><trkpt lat="45.24933640004568" lon="9.044246022562383"><ele>91.0</ele><time>2026-04-03T07:26:31.999Z</time></trkpt><trkpt lat="45.24908105721365" lon="9.04408161188478"><ele>91.5</ele><time>2026-04-03T07:26:32.999Z</time></trkpt><trkpt lat="45.248828437922576" lon="9.04391492935561"><ele>92.0</ele><time>2026-04-03T07:26:33.999Z</time></trkpt><trkpt lat="45.248572330458046" lon="9.043747288006994"><ele>92.0</ele><time>2026-04-03T07:26:34.999Z</time></trkpt><trkpt lat="45.24831727238564" lon="9.043584218762557"><ele>92.0</ele><time>2026-04-03T07:26:35.999Z</time></trkpt><trkpt lat="45.24805940170416" lon="9.04342162847557"><ele>91.0</ele><time>2026-04-03T07:26:36.999Z</time></trkpt><trkpt lat="45.247806060876925" lon="9.043261132447068"><ele>90.0</ele><time>2026-04-03T07:26:37.999Z</time></trkpt><trkpt lat="45.247551203720064" lon="9.043099391197124"><ele>90.0</ele><time>2026-04-03T07:26:38.999Z</time></trkpt><trkpt lat="45.24729674384216" lon="9.042932613665082"><ele>90.0</ele><time>2026-04-03T07:26:39.999Z</time></trkpt><trkpt lat="45.247044061159244" lon="9.042769520140624"><ele>89.5</ele><time>2026-04-03T07:26:40.999Z</time></trkpt><trkpt lat="45.24679186853489" lon="9.04260846023769"><ele>89.0</ele><time>2026-04-03T07:26:41.999Z</time></trkpt><trkpt lat="45.246540443734936" lon="9.042446681838285"><ele>90.0</ele><time>2026-04-03T07:26:42.999Z</time></trkpt><trkpt lat="45.246288274827606" lon="9.042290230198825"><ele>91.0</ele><time>2026-04-03T07:26:43.999Z</time></trkpt><trkpt lat="45.2460348993766" lon="9.042130126198934"><ele>91.0</ele><time>2026-04-03T07:26:44.999Z</time></trkpt><trkpt lat="45.24578343815665" lon="9.041968770342702"><ele>91.0</ele><time>2026-04-03T07:26:45.999Z</time></trkpt><trkpt lat="45.24552547945956" lon="9.041801239789429"><ele>91.0</ele><time>2026-04-03T07:26:46.999Z</time></trkpt><trkpt lat="45.24527352630474" lon="9.041635073924057"><ele>91.0</ele><time>2026-04-03T07:26:47.999Z</time></trkpt><trkpt lat="45.24501730917528" lon="9.04146658813052"><ele>90.0</ele><time>2026-04-03T07:26:48.999Z</time></trkpt><trkpt lat="45.24476096934361" lon="9.041295419345198"><ele>89.0</ele><time>2026-04-03T07:26:49.999Z</time></trkpt><trkpt lat="45.24450377126471" lon="9.041121245520573"><ele>89.0</ele><time>2026-04-03T07:26:50.999Z</time></trkpt><trkpt lat="45.24424907379609" lon="9.04093825733071"><ele>89.0</ele><time>2026-04-03T07:26:51.999Z</time></trkpt><trkpt lat="45.24399760950282" lon="9.040739931692887"><ele>88.0</ele><time>2026-04-03T07:26:52.999Z</time></trkpt><trkpt lat="45.2437486683733" lon="9.040530105844748"><ele>87.0</ele><time>2026-04-03T07:26:53.999Z</time></trkpt><trkpt lat="45.243503632596976" lon="9.04031343332027"><ele>87.0</ele><time>2026-04-03T07:26:54.999Z</time></trkpt><trkpt lat="45.24325817447462" lon="9.040093302927964"><ele>87.0</ele><time>2026-04-03T07:26:55.999Z</time></trkpt><trkpt lat="45.243010340968254" lon="9.039874953198089"><ele>85.5</ele><time>2026-04-03T07:26:56.999Z</time></trkpt><trkpt lat="45.2427604649473" lon="9.03965935638622"><ele>84.0</ele><time>2026-04-03T07:26:57.999Z</time></trkpt><trkpt lat="45.24251063779433" lon="9.03944917059388"><ele>84.5</ele><time>2026-04-03T07:26:58.999Z</time></trkpt><trkpt lat="45.242258799390555" lon="9.039234102474992"><ele>85.0</ele><time>2026-04-03T07:26:59.999Z</time></trkpt><trkpt lat="45.24200970209575" lon="9.039016622872554"><ele>85.0</ele><time>2026-04-03T07:27:00.999Z</time></trkpt><trkpt lat="45.241762011204806" lon="9.03879758027916"><ele>85.0</ele><time>2026-04-03T07:27:01.999Z</time></trkpt><trkpt lat="45.241512824821534" lon="9.038579059237467"><ele>84.5</ele><time>2026-04-03T07:27:02.999Z</time></trkpt><trkpt lat="45.24126017760726" lon="9.03835762985382"><ele>84.0</ele><time>2026-04-03T07:27:03.999Z</time></trkpt><trkpt lat="45.241012984615395" lon="9.038142451027678"><ele>83.0</ele><time>2026-04-03T07:27:04.999Z</time></trkpt><trkpt lat="45.240762697782756" lon="9.037924768597906"><ele>82.0</ele><time>2026-04-03T07:27:05.998Z</time></trkpt><trkpt lat="45.24051500910406" lon="9.037705512856707"><ele>82.0</ele><time>2026-04-03T07:27:06.998Z</time></trkpt><trkpt lat="45.24026534734445" lon="9.03748543617956"><ele>82.0</ele><time>2026-04-03T07:27:07.998Z</time></trkpt><trkpt lat="45.24001580402892" lon="9.037265892175544"><ele>80.5</ele><time>2026-04-03T07:27:08.998Z</time></trkpt><trkpt lat="45.23976804783165" lon="9.03704638701262"><ele>79.0</ele><time>2026-04-03T07:27:09.998Z</time></trkpt><trkpt lat="45.23952016487568" lon="9.036828878724751"><ele>80.0</ele><time>2026-04-03T07:27:10.998Z</time></trkpt><trkpt lat="45.23927054211898" lon="9.036611783490889"><ele>81.0</ele><time>2026-04-03T07:27:11.998Z</time></trkpt><trkpt lat="45.23901989562665" lon="9.036395840176798"><ele>76.5</ele><time>2026-04-03T07:27:12.998Z</time></trkpt><trkpt lat="45.23877115277831" lon="9.036179058669749"><ele>72.0</ele><time>2026-04-03T07:27:13.998Z</time></trkpt><trkpt lat="45.238522297269284" lon="9.035960193757562"><ele>73.0</ele><time>2026-04-03T07:27:14.998Z</time></trkpt><trkpt lat="45.23827202498572" lon="9.035742267238849"><ele>74.0</ele><time>2026-04-03T07:27:15.998Z</time></trkpt><trkpt lat="45.23802138913311" lon="9.035523215739397"><ele>71.5</ele><time>2026-04-03T07:27:16.998Z</time></trkpt><trkpt lat="45.23777014896659" lon="9.035299538880034"><ele>69.0</ele><time>2026-04-03T07:27:17.998Z</time></trkpt><trkpt lat="45.23751780511573" lon="9.035075663220121"><ele>69.0</ele><time>2026-04-03T07:27:18.998Z</time></trkpt><trkpt lat="45.237265303956285" lon="9.034853860692186"><ele>69.0</ele><time>2026-04-03T07:27:19.998Z</time></trkpt><trkpt lat="45.237010060083705" lon="9.034630563347235"><ele>69.0</ele><time>2026-04-03T07:27:20.998Z</time></trkpt><trkpt lat="45.236755345498096" lon="9.03440930763239"><ele>69.0</ele><time>2026-04-03T07:27:21.998Z</time></trkpt><trkpt lat="45.236499475425994" lon="9.034186378763644"><ele>67.0</ele><time>2026-04-03T07:27:22.998Z</time></trkpt><trkpt lat="45.23624387025425" lon="9.03396234094021"><ele>65.0</ele><time>2026-04-03T07:27:23.998Z</time></trkpt><trkpt lat="45.23598927809191" lon="9.033735840474947"><ele>65.0</ele><time>2026-04-03T07:27:24.998Z</time></trkpt><trkpt lat="45.235735954188016" lon="9.033510198070429"><ele>65.0</ele><time>2026-04-03T07:27:25.998Z</time></trkpt><trkpt lat="45.23548137079057" lon="9.033288649416054"><ele>66.5</ele><time>2026-04-03T07:27:26.999Z</time></trkpt><trkpt lat="45.23522529503346" lon="9.033069378574087"><ele>68.0</ele><time>2026-04-03T07:27:27.999Z</time></trkpt><trkpt lat="45.23497030793866" lon="9.032850144269675"><ele>67.5</ele><time>2026-04-03T07:27:28.999Z</time></trkpt><trkpt lat="45.234719350015204" lon="9.032631184363249"><ele>67.0</ele><time>2026-04-03T07:27:29.999Z</time></trkpt><trkpt lat="45.23446699177873" lon="9.032408622685422"><ele>67.0</ele><time>2026-04-03T07:27:30.999Z</time></trkpt><trkpt lat="45.23421611591424" lon="9.032188550954416"><ele>67.0</ele><time>2026-04-03T07:27:31.999Z</time></trkpt><trkpt lat="45.23396502575475" lon="9.031972521750133"><ele>66.0</ele><time>2026-04-03T07:27:32.999Z</time></trkpt><trkpt lat="45.23371280887157" lon="9.031753513816653"><ele>65.0</ele><time>2026-04-03T07:27:33.999Z</time></trkpt><trkpt lat="45.23346040294959" lon="9.031535151081865"><ele>65.0</ele><time>2026-04-03T07:27:34.999Z</time></trkpt><trkpt lat="45.2332078822978" lon="9.031314403356946"><ele>65.0</ele><time>2026-04-03T07:27:35.999Z</time></trkpt><trkpt lat="45.232955174155855" lon="9.031096568928508"><ele>65.0</ele><time>2026-04-03T07:27:36.999Z</time></trkpt><trkpt lat="45.23270361184813" lon="9.030881331326535"><ele>65.0</ele><time>2026-04-03T07:27:37.999Z</time></trkpt><trkpt lat="45.232453968585084" lon="9.03066457531078"><ele>64.5</ele><time>2026-04-03T07:27:38.999Z</time></trkpt><trkpt lat="45.23220568416165" lon="9.030449327895901"><ele>64.0</ele><time>2026-04-03T07:27:39.999Z</time></trkpt><trkpt lat="45.23195761624658" lon="9.030234025316975"><ele>64.0</ele><time>2026-04-03T07:27:40.999Z</time></trkpt><trkpt lat="45.23171211639511" lon="9.030019723550677"><ele>64.0</ele><time>2026-04-03T07:27:41.999Z</time></trkpt><trkpt lat="45.231466301685934" lon="9.029806032704903"><ele>64.0</ele><time>2026-04-03T07:27:42.999Z</time></trkpt><trkpt lat="45.23122091760977" lon="9.029594725500985"><ele>64.0</ele><time>2026-04-03T07:27:43.999Z</time></trkpt><trkpt lat="45.23098011583369" lon="9.029385506606882"><ele>64.0</ele><time>2026-04-03T07:27:44.999Z</time></trkpt><trkpt lat="45.23074004401209" lon="9.029178357708675"><ele>64.0</ele><time>2026-04-03T07:27:45.999Z</time></trkpt><trkpt lat="45.230500454454656" lon="9.028970997645246"><ele>64.0</ele><time>2026-04-03T07:27:46.999Z</time></trkpt><trkpt lat="45.23026620614114" lon="9.028769149230271"><ele>64.0</ele><time>2026-04-03T07:27:47.999Z</time></trkpt><trkpt lat="45.230035844148105" lon="9.028569654571903"><ele>65.0</ele><time>2026-04-03T07:27:48.999Z</time></trkpt><trkpt lat="45.22980810704094" lon="9.028370963689342"><ele>66.0</ele><time>2026-04-03T07:27:50Z</time></trkpt><trkpt lat="45.229580781257084" lon="9.028172800387003"><ele>66.5</ele><time>2026-04-03T07:27:51Z</time></trkpt><trkpt lat="45.229365393697194" lon="9.027983833470572"><ele>67.0</ele><time>2026-04-03T07:27:52Z</time></trkpt><trkpt lat="45.2291486828275" lon="9.027793346312976"><ele>67.5</ele><time>2026-04-03T07:27:53Z</time></trkpt><trkpt lat="45.22892997045811" lon="9.027601228669377"><ele>68.0</ele><time>2026-04-03T07:27:54Z</time></trkpt><trkpt lat="45.22871146323259" lon="9.027409667720319"><ele>66.5</ele><time>2026-04-03T07:27:55Z</time></trkpt><trkpt lat="45.228491990698025" lon="9.027214912867045"><ele>65.0</ele><time>2026-04-03T07:27:56Z</time></trkpt><trkpt lat="45.22827270251117" lon="9.027018497697451"><ele>65.0</ele><time>2026-04-03T07:27:57Z</time></trkpt><trkpt lat="45.22805502213985" lon="9.026820644309142"><ele>65.0</ele><time>2026-04-03T07:27:58Z</time></trkpt><trkpt lat="45.227837137087185" lon="9.02662528824792"><ele>65.0</ele><time>2026-04-03T07:27:59Z</time></trkpt><trkpt lat="45.22761461194301" lon="9.026429968613572"><ele>65.0</ele><time>2026-04-03T07:28:00Z</time></trkpt><trkpt lat="45.227391773222095" lon="9.026237553006535"><ele>65.0</ele><time>2026-04-03T07:28:01Z</time></trkpt><trkpt lat="45.227166878616956" lon="9.026042184522579"><ele>65.0</ele><time>2026-04-03T07:28:02Z</time></trkpt><trkpt lat="45.22694107690167" lon="9.025844625910148"><ele>64.0</ele><time>2026-04-03T07:28:03Z</time></trkpt><trkpt lat="45.2267127190473" lon="9.025646611563124"><ele>63.0</ele><time>2026-04-03T07:28:04Z</time></trkpt><trkpt lat="45.22648411066307" lon="9.025448479246206"><ele>62.5</ele><time>2026-04-03T07:28:05Z</time></trkpt><trkpt lat="45.22625483631684" lon="9.025247139541019"><ele>62.0</ele><time>2026-04-03T07:28:06Z</time></trkpt><trkpt lat="45.22602331398828" lon="9.025043896595918"><ele>61.5</ele><time>2026-04-03T07:28:07Z</time></trkpt><trkpt lat="45.22579043122779" lon="9.0248436429801"><ele>61.0</ele><time>2026-04-03T07:28:08Z</time></trkpt><trkpt lat="45.22555215209545" lon="9.024639448374051"><ele>61.0</ele><time>2026-04-03T07:28:09Z</time></trkpt><trkpt lat="45.22531490822336" lon="9.024433733287111"><ele>61.0</ele><time>2026-04-03T07:28:10Z</time></trkpt><trkpt lat="45.225075234309635" lon="9.024224494599416"><ele>61.5</ele><time>2026-04-03T07:28:11Z</time></trkpt><trkpt lat="45.22483575310764" lon="9.024017268309127"><ele>62.0</ele><time>2026-04-03T07:28:12Z</time></trkpt><trkpt lat="45.22460866011343" lon="9.02382025560259"><ele>62.5</ele><time>2026-04-03T07:28:13Z</time></trkpt><trkpt lat="45.22438559010203" lon="9.023627409027743"><ele>63.0</ele><time>2026-04-03T07:28:14Z</time></trkpt><trkpt lat="45.22416272268983" lon="9.023431520945023"><ele>63.5</ele><time>2026-04-03T07:28:15Z</time></trkpt><trkpt lat="45.223937254535215" lon="9.023233046441065"><ele>64.0</ele><time>2026-04-03T07:28:16Z</time></trkpt><trkpt lat="45.22370835421038" lon="9.023031940556598"><ele>64.0</ele><time>2026-04-03T07:28:17Z</time></trkpt><trkpt lat="45.22347771135696" lon="9.022834000928553"><ele>64.0</ele><time>2026-04-03T07:28:18Z</time></trkpt><trkpt lat="45.2232460296288" lon="9.0226396534593"><ele>62.5</ele><time>2026-04-03T07:28:19Z</time></trkpt><trkpt lat="45.223016621552944" lon="9.022441843370615"><ele>61.0</ele><time>2026-04-03T07:28:20Z</time></trkpt><trkpt lat="45.222787411529005" lon="9.02223898784514"><ele>61.0</ele><time>2026-04-03T07:28:21Z</time></trkpt><trkpt lat="45.222559834237806" lon="9.022033468750054"><ele>61.0</ele><time>2026-04-03T07:28:22Z</time></trkpt><trkpt lat="45.22232843625177" lon="9.021827819042668"><ele>62.5</ele><time>2026-04-03T07:28:23Z</time></trkpt><trkpt lat="45.22209493959302" lon="9.021622693062781"><ele>64.0</ele><time>2026-04-03T07:28:24Z</time></trkpt><trkpt lat="45.2218620835447" lon="9.02141199628123"><ele>64.0</ele><time>2026-04-03T07:28:25Z</time></trkpt><trkpt lat="45.22162751938776" lon="9.021193176660027"><ele>64.0</ele><time>2026-04-03T07:28:26Z</time></trkpt><trkpt lat="45.2213909440197" lon="9.020970504619962"><ele>63.5</ele><time>2026-04-03T07:28:27Z</time></trkpt><trkpt lat="45.221153960910115" lon="9.020754351466943"><ele>63.0</ele><time>2026-04-03T07:28:28Z</time></trkpt><trkpt lat="45.22091128872078" lon="9.020541842961196"><ele>63.0</ele><time>2026-04-03T07:28:29Z</time></trkpt><trkpt lat="45.2206707489028" lon="9.020333132465815"><ele>63.0</ele><time>2026-04-03T07:28:30Z</time></trkpt><trkpt lat="45.22042831712631" lon="9.020124182808384"><ele>62.5</ele><time>2026-04-03T07:28:31Z</time></trkpt><trkpt lat="45.22018790334529" lon="9.019912219387294"><ele>62.0</ele><time>2026-04-03T07:28:32Z</time></trkpt><trkpt lat="45.21994831686324" lon="9.019699801863585"><ele>63.0</ele><time>2026-04-03T07:28:33Z</time></trkpt><trkpt lat="45.21971011273351" lon="9.019489253152315"><ele>64.0</ele><time>2026-04-03T07:28:34Z</time></trkpt><trkpt lat="45.2194704496222" lon="9.019288788502802"><ele>64.0</ele><time>2026-04-03T07:28:35Z</time></trkpt><trkpt lat="45.219226104263164" lon="9.019097851832216"><ele>64.0</ele><time>2026-04-03T07:28:36Z</time></trkpt><trkpt lat="45.21897827388915" lon="9.018919502067998"><ele>64.0</ele><time>2026-04-03T07:28:37Z</time></trkpt><trkpt lat="45.218728214209484" lon="9.018752627929537"><ele>64.0</ele><time>2026-04-03T07:28:38Z</time></trkpt><trkpt lat="45.21847154595356" lon="9.018590086935292"><ele>64.0</ele><time>2026-04-03T07:28:39Z</time></trkpt><trkpt lat="45.218213814238815" lon="9.01844021328743"><ele>64.0</ele><time>2026-04-03T07:28:40Z</time></trkpt><trkpt lat="45.21795169604434" lon="9.018300607662388"><ele>63.5</ele><time>2026-04-03T07:28:41Z</time></trkpt><trkpt lat="45.21768472116899" lon="9.018170353942043"><ele>63.0</ele><time>2026-04-03T07:28:42Z</time></trkpt><trkpt lat="45.2174155340941" lon="9.018049826211026"><ele>64.5</ele><time>2026-04-03T07:28:43Z</time></trkpt><trkpt lat="45.21714443376017" lon="9.017938857839084"><ele>66.0</ele><time>2026-04-03T07:28:44Z</time></trkpt><trkpt lat="45.21687237499813" lon="9.01783311966309"><ele>66.0</ele><time>2026-04-03T07:28:45Z</time></trkpt><trkpt lat="45.21659969555727" lon="9.017735567605964"><ele>66.0</ele><time>2026-04-03T07:28:46Z</time></trkpt><trkpt lat="45.216326475762" lon="9.01765096668467"><ele>64.5</ele><time>2026-04-03T07:28:47Z</time></trkpt><trkpt lat="45.21604536099944" lon="9.017577374042599"><ele>63.0</ele><time>2026-04-03T07:28:48Z</time></trkpt><trkpt lat="45.215766473999665" lon="9.017507908083775"><ele>63.5</ele><time>2026-04-03T07:28:49Z</time></trkpt><trkpt lat="45.21548461982317" lon="9.017442684302553"><ele>64.0</ele><time>2026-04-03T07:28:50Z</time></trkpt><trkpt lat="45.21520549865662" lon="9.017385289015895"><ele>64.0</ele><time>2026-04-03T07:28:51Z</time></trkpt><trkpt lat="45.21492702412325" lon="9.01733093130711"><ele>64.0</ele><time>2026-04-03T07:28:52Z</time></trkpt><trkpt lat="45.214648388898475" lon="9.017273782172174"><ele>64.0</ele><time>2026-04-03T07:28:53Z</time></trkpt><trkpt lat="45.214373151967195" lon="9.017210575812985"><ele>64.0</ele><time>2026-04-03T07:28:54Z</time></trkpt><trkpt lat="45.21409782835022" lon="9.017149237020638"><ele>64.0</ele><time>2026-04-03T07:28:55Z</time></trkpt><trkpt lat="45.21382398114538" lon="9.01709247536427"><ele>64.0</ele><time>2026-04-03T07:28:56Z</time></trkpt><trkpt lat="45.213548010291085" lon="9.017032297688857"><ele>64.0</ele><time>2026-04-03T07:28:57Z</time></trkpt><trkpt lat="45.2132714443702" lon="9.016969798700778"><ele>64.0</ele><time>2026-04-03T07:28:58Z</time></trkpt><trkpt lat="45.21299733410497" lon="9.016908213264763"><ele>64.0</ele><time>2026-04-03T07:28:59Z</time></trkpt><trkpt lat="45.212721669096425" lon="9.016848022930077"><ele>64.0</ele><time>2026-04-03T07:29:00Z</time></trkpt><trkpt lat="45.21244698930954" lon="9.016789602861584"><ele>63.5</ele><time>2026-04-03T07:29:01Z</time></trkpt><trkpt lat="45.212172738616424" lon="9.016733606813684"><ele>63.0</ele><time>2026-04-03T07:29:02Z</time></trkpt><trkpt lat="45.21189748752326" lon="9.016674972272039"><ele>63.0</ele><time>2026-04-03T07:29:03Z</time></trkpt><trkpt lat="45.21162030066223" lon="9.016618205775842"><ele>63.0</ele><time>2026-04-03T07:29:04Z</time></trkpt><trkpt lat="45.211340653651554" lon="9.01656493023414"><ele>64.0</ele><time>2026-04-03T07:29:05Z</time></trkpt><trkpt lat="45.211060624447235" lon="9.016517288072015"><ele>65.0</ele><time>2026-04-03T07:29:06Z</time></trkpt><trkpt lat="45.210777647347186" lon="9.016484011788458"><ele>65.0</ele><time>2026-04-03T07:29:06.999Z</time></trkpt><trkpt lat="45.21049286718015" lon="9.016463311230902"><ele>65.0</ele><time>2026-04-03T07:29:07.999Z</time></trkpt><trkpt lat="45.21021017865116" lon="9.016450255961741"><ele>65.0</ele><time>2026-04-03T07:29:08.999Z</time></trkpt><trkpt lat="45.20992595283868" lon="9.01645085110503"><ele>65.0</ele><time>2026-04-03T07:29:09.999Z</time></trkpt><trkpt lat="45.20964221447443" lon="9.016458876820895"><ele>65.0</ele><time>2026-04-03T07:29:10.999Z</time></trkpt><trkpt lat="45.20935829288673" lon="9.016475806844623"><ele>65.0</ele><time>2026-04-03T07:29:11.999Z</time></trkpt><trkpt lat="45.20907084436011" lon="9.016503881696751"><ele>64.5</ele><time>2026-04-03T07:29:12.999Z</time></trkpt><trkpt lat="45.20878417151247" lon="9.016545918896286"><ele>64.0</ele><time>2026-04-03T07:29:13.999Z</time></trkpt><trkpt lat="45.20849878045835" lon="9.016594784113526"><ele>65.0</ele><time>2026-04-03T07:29:14.999Z</time></trkpt><trkpt lat="45.20821278719873" lon="9.01665716676156"><ele>66.0</ele><time>2026-04-03T07:29:15.999Z</time></trkpt><trkpt lat="45.20792566190302" lon="9.016723021171543"><ele>66.0</ele><time>2026-04-03T07:29:16.999Z</time></trkpt><trkpt lat="45.20763502850763" lon="9.016785980698474"><ele>66.0</ele><time>2026-04-03T07:29:17.999Z</time></trkpt><trkpt lat="45.20734609319977" lon="9.016847447551358"><ele>66.0</ele><time>2026-04-03T07:29:18.999Z</time></trkpt><trkpt lat="45.20705603541875" lon="9.01690867530058"><ele>66.0</ele><time>2026-04-03T07:29:19.999Z</time></trkpt><trkpt lat="45.20676029637216" lon="9.016970315095627"><ele>66.0</ele><time>2026-04-03T07:29:20.999Z</time></trkpt><trkpt lat="45.20646658587415" lon="9.017032332707384"><ele>66.0</ele><time>2026-04-03T07:29:21.999Z</time></trkpt><trkpt lat="45.20617192401626" lon="9.017095154244105"><ele>66.0</ele><time>2026-04-03T07:29:22.999Z</time></trkpt><trkpt lat="45.20587632994537" lon="9.01715743640025"><ele>66.0</ele><time>2026-04-03T07:29:23.999Z</time></trkpt><trkpt lat="45.20557950369861" lon="9.01721852821046"><ele>66.5</ele><time>2026-04-03T07:29:24.999Z</time></trkpt><trkpt lat="45.20528480567099" lon="9.017280389827995"><ele>67.0</ele><time>2026-04-03T07:29:25.999Z</time></trkpt><trkpt lat="45.20498669660119" lon="9.01734262341414"><ele>67.0</ele><time>2026-04-03T07:29:26.999Z</time></trkpt><trkpt lat="45.20469329077319" lon="9.017407059057795"><ele>67.0</ele><time>2026-04-03T07:29:27.999Z</time></trkpt><trkpt lat="45.204393969092216" lon="9.01747112297493"><ele>67.0</ele><time>2026-04-03T07:29:28.999Z</time></trkpt><trkpt lat="45.204096772917836" lon="9.017535320447882"><ele>67.0</ele><time>2026-04-03T07:29:29.999Z</time></trkpt><trkpt lat="45.20379741636797" lon="9.017599235592783"><ele>67.0</ele><time>2026-04-03T07:29:30.999Z</time></trkpt><trkpt lat="45.20349495758618" lon="9.017662644261412"><ele>67.0</ele><time>2026-04-03T07:29:31.999Z</time></trkpt><trkpt lat="45.20319249681032" lon="9.017724754175372"><ele>66.5</ele><time>2026-04-03T07:29:33Z</time></trkpt><trkpt lat="45.20289011813348" lon="9.017787245655208"><ele>66.0</ele><time>2026-04-03T07:29:34Z</time></trkpt><trkpt lat="45.20258771208315" lon="9.017851977009895"><ele>65.0</ele><time>2026-04-03T07:29:35Z</time></trkpt><trkpt lat="45.20228819512121" lon="9.017918134837178"><ele>64.0</ele><time>2026-04-03T07:29:36Z</time></trkpt><trkpt lat="45.20198663865965" lon="9.017981431654619"><ele>64.0</ele><time>2026-04-03T07:29:37Z</time></trkpt><trkpt lat="45.20168632378851" lon="9.018042474028148"><ele>64.0</ele><time>2026-04-03T07:29:38Z</time></trkpt><trkpt lat="45.201385918055735" lon="9.018100844121912"><ele>64.5</ele><time>2026-04-03T07:29:39Z</time></trkpt><trkpt lat="45.20108733373171" lon="9.018158312811781"><ele>65.0</ele><time>2026-04-03T07:29:40Z</time></trkpt><trkpt lat="45.20079211280674" lon="9.018211410202648"><ele>65.0</ele><time>2026-04-03T07:29:41Z</time></trkpt><trkpt lat="45.20049563580627" lon="9.018248058602046"><ele>65.0</ele><time>2026-04-03T07:29:42Z</time></trkpt><trkpt lat="45.20019998943595" lon="9.018264672942761"><ele>65.0</ele><time>2026-04-03T07:29:43Z</time></trkpt><trkpt lat="45.199906440646025" lon="9.018263257322236"><ele>65.0</ele><time>2026-04-03T07:29:44Z</time></trkpt><trkpt lat="45.1996136013839" lon="9.018246515803376"><ele>65.0</ele><time>2026-04-03T07:29:45Z</time></trkpt><trkpt lat="45.19932175875791" lon="9.018222297772592"><ele>65.0</ele><time>2026-04-03T07:29:46Z</time></trkpt><trkpt lat="45.199031480043686" lon="9.018183562188083"><ele>64.5</ele><time>2026-04-03T07:29:47Z</time></trkpt><trkpt lat="45.19874264317442" lon="9.018130992898886"><ele>64.0</ele><time>2026-04-03T07:29:48Z</time></trkpt><trkpt lat="45.19845712797398" lon="9.018063159554464"><ele>64.0</ele><time>2026-04-03T07:29:49Z</time></trkpt><trkpt lat="45.19817488419867" lon="9.017981520854851"><ele>64.0</ele><time>2026-04-03T07:29:50Z</time></trkpt><trkpt lat="45.19789578277089" lon="9.017886415495663"><ele>64.0</ele><time>2026-04-03T07:29:51Z</time></trkpt><trkpt lat="45.1976236823427" lon="9.01777566767336"><ele>64.0</ele><time>2026-04-03T07:29:52Z</time></trkpt><trkpt lat="45.19735434184226" lon="9.017652674845944"><ele>64.5</ele><time>2026-04-03T07:29:53Z</time></trkpt><trkpt lat="45.19709133969786" lon="9.017519372328945"><ele>65.0</ele><time>2026-04-03T07:29:54Z</time></trkpt><trkpt lat="45.196829473515855" lon="9.017374335310823"><ele>65.0</ele><time>2026-04-03T07:29:55Z</time></trkpt><trkpt lat="45.196569393166314" lon="9.01722604439037"><ele>65.0</ele><time>2026-04-03T07:29:56Z</time></trkpt><trkpt lat="45.19631079341322" lon="9.017073678259345"><ele>65.0</ele><time>2026-04-03T07:29:57Z</time></trkpt><trkpt lat="45.19605209249023" lon="9.016915028214616"><ele>65.0</ele><time>2026-04-03T07:29:58Z</time></trkpt><trkpt lat="45.19579347648193" lon="9.01675836989744"><ele>65.0</ele><time>2026-04-03T07:29:59Z</time></trkpt><trkpt lat="45.195535447946014" lon="9.016604895571309"><ele>65.0</ele><time>2026-04-03T07:30:00Z</time></trkpt><trkpt lat="45.19527552730254" lon="9.016452909777241"><ele>65.0</ele><time>2026-04-03T07:30:01Z</time></trkpt><trkpt lat="45.19501475639549" lon="9.016299664240195"><ele>65.0</ele><time>2026-04-03T07:30:02Z</time></trkpt><trkpt lat="45.19475552389661" lon="9.016145621677344"><ele>65.0</ele><time>2026-04-03T07:30:03Z</time></trkpt><trkpt lat="45.19449416420838" lon="9.015990999791606"><ele>65.0</ele><time>2026-04-03T07:30:04Z</time></trkpt><trkpt lat="45.19423293890612" lon="9.01583482381431"><ele>65.0</ele><time>2026-04-03T07:30:05Z</time></trkpt><trkpt lat="45.193973337378" lon="9.015678814337866"><ele>65.0</ele><time>2026-04-03T07:30:06Z</time></trkpt><trkpt lat="45.19371480753112" lon="9.015524185142231"><ele>65.0</ele><time>2026-04-03T07:30:07Z</time></trkpt><trkpt lat="45.19345695715312" lon="9.015373513425072"><ele>65.0</ele><time>2026-04-03T07:30:08Z</time></trkpt><trkpt lat="45.193196764087794" lon="9.015223142509202"><ele>65.0</ele><time>2026-04-03T07:30:09Z</time></trkpt><trkpt lat="45.192935881979906" lon="9.015074450484958"><ele>65.0</ele><time>2026-04-03T07:30:10Z</time></trkpt><trkpt lat="45.192678239417354" lon="9.014930647075362"><ele>65.0</ele><time>2026-04-03T07:30:11Z</time></trkpt><trkpt lat="45.19241266499638" lon="9.014783201445507"><ele>65.0</ele><time>2026-04-03T07:30:12Z</time></trkpt><trkpt lat="45.19214983911431" lon="9.01463125265921"><ele>65.0</ele><time>2026-04-03T07:30:13Z</time></trkpt><trkpt lat="45.191886476098446" lon="9.014474943596472"><ele>65.0</ele><time>2026-04-03T07:30:14Z</time></trkpt><trkpt lat="45.19162505311683" lon="9.014320178535504"><ele>65.0</ele><time>2026-04-03T07:30:15Z</time></trkpt><trkpt lat="45.191365988035194" lon="9.01416549175142"><ele>65.0</ele><time>2026-04-03T07:30:16Z</time></trkpt><trkpt lat="45.191103829710244" lon="9.014011363528907"><ele>65.0</ele><time>2026-04-03T07:30:17Z</time></trkpt><trkpt lat="45.19084319132917" lon="9.013857982077354"><ele>65.0</ele><time>2026-04-03T07:30:18Z</time></trkpt><trkpt lat="45.19058240745127" lon="9.013705311679322"><ele>65.0</ele><time>2026-04-03T07:30:19Z</time></trkpt><trkpt lat="45.190323559380445" lon="9.013552460762414"><ele>65.0</ele><time>2026-04-03T07:30:20Z</time></trkpt><trkpt lat="45.190069854886836" lon="9.013398333246498"><ele>65.0</ele><time>2026-04-03T07:30:21Z</time></trkpt><trkpt lat="45.18981331681674" lon="9.013246205274747"><ele>65.0</ele><time>2026-04-03T07:30:22Z</time></trkpt><trkpt lat="45.18955958550809" lon="9.013094063926717"><ele>65.0</ele><time>2026-04-03T07:30:23Z</time></trkpt><trkpt lat="45.18930522258993" lon="9.012940059552383"><ele>65.0</ele><time>2026-04-03T07:30:24Z</time></trkpt><trkpt lat="45.189049938936726" lon="9.012784341803158"><ele>66.0</ele><time>2026-04-03T07:30:25Z</time></trkpt><trkpt lat="45.18879321088369" lon="9.012627946195494"><ele>67.0</ele><time>2026-04-03T07:30:26Z</time></trkpt><trkpt lat="45.18853622969717" lon="9.01246463881184"><ele>67.0</ele><time>2026-04-03T07:30:27Z</time></trkpt><trkpt lat="45.18828110701282" lon="9.012300568038537"><ele>67.0</ele><time>2026-04-03T07:30:28Z</time></trkpt><trkpt lat="45.188022422041904" lon="9.012138356188261"><ele>66.5</ele><time>2026-04-03T07:30:29Z</time></trkpt><trkpt lat="45.18775968016028" lon="9.011982475349326"><ele>66.0</ele><time>2026-04-03T07:30:30Z</time></trkpt><trkpt lat="45.18749655483093" lon="9.011826107088474"><ele>66.0</ele><time>2026-04-03T07:30:31Z</time></trkpt><trkpt lat="45.18723170620952" lon="9.011667781125565"><ele>66.0</ele><time>2026-04-03T07:30:32Z</time></trkpt><trkpt lat="45.186967440892175" lon="9.011509292149706"><ele>66.0</ele><time>2026-04-03T07:30:33Z</time></trkpt><trkpt lat="45.1867005852716" lon="9.011352398451736"><ele>66.0</ele><time>2026-04-03T07:30:34Z</time></trkpt><trkpt lat="45.18643351934123" lon="9.011193795138192"><ele>65.0</ele><time>2026-04-03T07:30:35Z</time></trkpt><trkpt lat="45.18616285813431" lon="9.011034109534434"><ele>64.0</ele><time>2026-04-03T07:30:36Z</time></trkpt><trkpt lat="45.18589181906339" lon="9.01087301626882"><ele>64.0</ele><time>2026-04-03T07:30:37Z</time></trkpt><trkpt lat="45.18562031998359" lon="9.010715078319588"><ele>64.0</ele><time>2026-04-03T07:30:38Z</time></trkpt><trkpt lat="45.18534650887088" lon="9.010562363194234"><ele>64.0</ele><time>2026-04-03T07:30:39Z</time></trkpt><trkpt lat="45.185071941790106" lon="9.010408086823873"><ele>64.0</ele><time>2026-04-03T07:30:40Z</time></trkpt><trkpt lat="45.18479813741458" lon="9.010251485011961"><ele>64.0</ele><time>2026-04-03T07:30:41Z</time></trkpt><trkpt lat="45.184526208139296" lon="9.010091881814212"><ele>64.0</ele><time>2026-04-03T07:30:42Z</time></trkpt><trkpt lat="45.18425494137159" lon="9.00993154546343"><ele>64.5</ele><time>2026-04-03T07:30:43Z</time></trkpt><trkpt lat="45.1839807343514" lon="9.009770757171909"><ele>65.0</ele><time>2026-04-03T07:30:44Z</time></trkpt><trkpt lat="45.18370800866504" lon="9.00961082309136"><ele>65.0</ele><time>2026-04-03T07:30:45Z</time></trkpt><trkpt lat="45.183436419844725" lon="9.009449619092901"><ele>65.0</ele><time>2026-04-03T07:30:46Z</time></trkpt><trkpt lat="45.18316741996027" lon="9.009288522819052"><ele>65.0</ele><time>2026-04-03T07:30:47Z</time></trkpt><trkpt lat="45.18289951236168" lon="9.009130412816255"><ele>65.0</ele><time>2026-04-03T07:30:48Z</time></trkpt><trkpt lat="45.18263165300716" lon="9.008975146740545"><ele>65.0</ele><time>2026-04-03T07:30:49Z</time></trkpt><trkpt lat="45.1823619895232" lon="9.008821328154617"><ele>65.0</ele><time>2026-04-03T07:30:50Z</time></trkpt><trkpt lat="45.18209463110997" lon="9.008662096822544"><ele>66.5</ele><time>2026-04-03T07:30:51Z</time></trkpt><trkpt lat="45.18182722518047" lon="9.008500243109374"><ele>68.0</ele><time>2026-04-03T07:30:52Z</time></trkpt><trkpt lat="45.181557538333664" lon="9.008338810634175"><ele>67.0</ele><time>2026-04-03T07:30:53Z</time></trkpt><trkpt lat="45.181286338973074" lon="9.008178837780644"><ele>66.0</ele><time>2026-04-03T07:30:54Z</time></trkpt><trkpt lat="45.181011967910905" lon="9.00801603649875"><ele>66.0</ele><time>2026-04-03T07:30:55Z</time></trkpt><trkpt lat="45.180737095251914" lon="9.007852727338303"><ele>66.0</ele><time>2026-04-03T07:30:56Z</time></trkpt><trkpt lat="45.18046431562505" lon="9.007688303783949"><ele>66.0</ele><time>2026-04-03T07:30:57Z</time></trkpt><trkpt lat="45.18019127538908" lon="9.007522374357029"><ele>66.0</ele><time>2026-04-03T07:30:58Z</time></trkpt><trkpt lat="45.17991903452115" lon="9.00735672924943"><ele>69.0</ele><time>2026-04-03T07:30:59Z</time></trkpt><trkpt lat="45.17964617786791" lon="9.007191353443421"><ele>72.0</ele><time>2026-04-03T07:31:00Z</time></trkpt><trkpt lat="45.17937277424465" lon="9.007031808252497"><ele>72.0</ele><time>2026-04-03T07:31:01Z</time></trkpt><trkpt lat="45.1791015650385" lon="9.006873296071864"><ele>72.0</ele><time>2026-04-03T07:31:02Z</time></trkpt><trkpt lat="45.178829241894896" lon="9.006713353109548"><ele>73.5</ele><time>2026-04-03T07:31:03Z</time></trkpt><trkpt lat="45.17855784961561" lon="9.006552525335142"><ele>75.0</ele><time>2026-04-03T07:31:04Z</time></trkpt><trkpt lat="45.17828425254745" lon="9.006391750032387"><ele>77.5</ele><time>2026-04-03T07:31:05Z</time></trkpt><trkpt lat="45.17801345263837" lon="9.006230050357749"><ele>80.0</ele><time>2026-04-03T07:31:06Z</time></trkpt><trkpt lat="45.17774145648467" lon="9.00606650978931"><ele>80.0</ele><time>2026-04-03T07:31:07Z</time></trkpt><trkpt lat="45.177470580017555" lon="9.005904683117853"><ele>80.0</ele><time>2026-04-03T07:31:08Z</time></trkpt><trkpt lat="45.17719987195654" lon="9.005743809626978"><ele>83.0</ele><time>2026-04-03T07:31:09Z</time></trkpt><trkpt lat="45.176930012644334" lon="9.005587123462382"><ele>86.0</ele><time>2026-04-03T07:31:10Z</time></trkpt><trkpt lat="45.17665814428037" lon="9.005436267233613"><ele>85.5</ele><time>2026-04-03T07:31:11Z</time></trkpt><trkpt lat="45.17638606995078" lon="9.005293719084506"><ele>85.0</ele><time>2026-04-03T07:31:11.999Z</time></trkpt><trkpt lat="45.17610646058501" lon="9.005158223888493"><ele>85.0</ele><time>2026-04-03T07:31:12.999Z</time></trkpt><trkpt lat="45.175831057689926" lon="9.00502949087465"><ele>85.0</ele><time>2026-04-03T07:31:13.999Z</time></trkpt><trkpt lat="45.175554187795605" lon="9.00489943538384"><ele>86.0</ele><time>2026-04-03T07:31:14.999Z</time></trkpt><trkpt lat="45.175277772668466" lon="9.004763519578855"><ele>87.0</ele><time>2026-04-03T07:31:15.999Z</time></trkpt><trkpt lat="45.17500396775672" lon="9.004626276258188"><ele>87.0</ele><time>2026-04-03T07:31:16.999Z</time></trkpt><trkpt lat="45.174729204986946" lon="9.00448960287445"><ele>87.0</ele><time>2026-04-03T07:31:17.999Z</time></trkpt><trkpt lat="45.17445215809948" lon="9.004353115653513"><ele>87.0</ele><time>2026-04-03T07:31:18.999Z</time></trkpt><trkpt lat="45.17417790404945" lon="9.004222198861754"><ele>87.0</ele><time>2026-04-03T07:31:19.999Z</time></trkpt><trkpt lat="45.173899748074575" lon="9.00408453242505"><ele>87.0</ele><time>2026-04-03T07:31:20.999Z</time></trkpt><trkpt lat="45.173624376252626" lon="9.003956855650769"><ele>87.0</ele><time>2026-04-03T07:31:21.999Z</time></trkpt><trkpt lat="45.17334755595663" lon="9.003826853223366"><ele>86.5</ele><time>2026-04-03T07:31:22.999Z</time></trkpt><trkpt lat="45.17307321400262" lon="9.00369254619392"><ele>86.0</ele><time>2026-04-03T07:31:23.999Z</time></trkpt><trkpt lat="45.17279764289392" lon="9.003558964479597"><ele>86.0</ele><time>2026-04-03T07:31:24.999Z</time></trkpt><trkpt lat="45.172523583848815" lon="9.003427666460917"><ele>86.0</ele><time>2026-04-03T07:31:25.999Z</time></trkpt><trkpt lat="45.17225310363048" lon="9.00329647647914"><ele>85.5</ele><time>2026-04-03T07:31:26.999Z</time></trkpt><trkpt lat="45.17198130336154" lon="9.003166652224765"><ele>85.0</ele><time>2026-04-03T07:31:27.999Z</time></trkpt><trkpt lat="45.17170879131177" lon="9.003035192999885"><ele>85.5</ele><time>2026-04-03T07:31:28.999Z</time></trkpt><trkpt lat="45.171438767909024" lon="9.002900591397083"><ele>86.0</ele><time>2026-04-03T07:31:29.999Z</time></trkpt><trkpt lat="45.171167876713696" lon="9.002766944508627"><ele>86.0</ele><time>2026-04-03T07:31:30.999Z</time></trkpt><trkpt lat="45.17089500462568" lon="9.002636517918395"><ele>86.0</ele><time>2026-04-03T07:31:31.999Z</time></trkpt><trkpt lat="45.170621264779705" lon="9.002507812515605"><ele>86.0</ele><time>2026-04-03T07:31:32.999Z</time></trkpt><trkpt lat="45.1703461045925" lon="9.002376803583054"><ele>86.0</ele><time>2026-04-03T07:31:33.999Z</time></trkpt><trkpt lat="45.170072908445185" lon="9.002247016069669"><ele>85.5</ele><time>2026-04-03T07:31:34.999Z</time></trkpt><trkpt lat="45.16979720226868" lon="9.002114884384259"><ele>85.0</ele><time>2026-04-03T07:31:35.999Z</time></trkpt><trkpt lat="45.1695239063142" lon="9.001982300501716"><ele>85.0</ele><time>2026-04-03T07:31:36.999Z</time></trkpt><trkpt lat="45.169249795582175" lon="9.001847434685306"><ele>85.0</ele><time>2026-04-03T07:31:37.999Z</time></trkpt><trkpt lat="45.168976131771096" lon="9.001713109941004"><ele>85.0</ele><time>2026-04-03T07:31:39Z</time></trkpt><trkpt lat="45.168701683313365" lon="9.001580235806584"><ele>85.0</ele><time>2026-04-03T07:31:40Z</time></trkpt><trkpt lat="45.16842713182417" lon="9.001449300076438"><ele>85.0</ele><time>2026-04-03T07:31:41Z</time></trkpt><trkpt lat="45.16815206055155" lon="9.00131819593285"><ele>85.0</ele><time>2026-04-03T07:31:42Z</time></trkpt><trkpt lat="45.16787756259214" lon="9.001184867121296"><ele>85.0</ele><time>2026-04-03T07:31:43Z</time></trkpt><trkpt lat="45.167605400246174" lon="9.001052521996584"><ele>85.0</ele><time>2026-04-03T07:31:44Z</time></trkpt><trkpt lat="45.1673303300159" lon="9.000917902220909"><ele>85.0</ele><time>2026-04-03T07:31:45Z</time></trkpt><trkpt lat="45.16705659417748" lon="9.000786684182126"><ele>85.0</ele><time>2026-04-03T07:31:46Z</time></trkpt><trkpt lat="45.16678359164009" lon="9.00065489282169"><ele>85.5</ele><time>2026-04-03T07:31:47Z</time></trkpt><trkpt lat="45.166509761373405" lon="9.000526226602675"><ele>86.0</ele><time>2026-04-03T07:31:48Z</time></trkpt><trkpt lat="45.16623632254834" lon="9.000397098283935"><ele>86.0</ele><time>2026-04-03T07:31:49Z</time></trkpt><trkpt lat="45.165964844644705" lon="9.000269036072886"><ele>86.0</ele><time>2026-04-03T07:31:50Z</time></trkpt><trkpt lat="45.16569437766587" lon="9.000138815758834"><ele>86.5</ele><time>2026-04-03T07:31:51Z</time></trkpt><trkpt lat="45.16542490155312" lon="9.000010393161046"><ele>87.0</ele><time>2026-04-03T07:31:52Z</time></trkpt><trkpt lat="45.16515191370008" lon="8.999877211707762"><ele>87.0</ele><time>2026-04-03T07:31:53Z</time></trkpt><trkpt lat="45.16488261192176" lon="8.99974976888461"><ele>87.0</ele><time>2026-04-03T07:31:54Z</time></trkpt><trkpt lat="45.16461044758147" lon="8.99962090812129"><ele>86.5</ele><time>2026-04-03T07:31:55Z</time></trkpt><trkpt lat="45.164338085855775" lon="8.999494529301755"><ele>86.0</ele><time>2026-04-03T07:31:56Z</time></trkpt><trkpt lat="45.16406481498365" lon="8.999365717962785"><ele>85.5</ele><time>2026-04-03T07:31:57Z</time></trkpt><trkpt lat="45.16379304108631" lon="8.999237694564956"><ele>85.0</ele><time>2026-04-03T07:31:58Z</time></trkpt><trkpt lat="45.163522179875876" lon="8.999113098628568"><ele>85.0</ele><time>2026-04-03T07:31:59Z</time></trkpt><trkpt lat="45.16325169521881" lon="8.998992085402472"><ele>85.0</ele><time>2026-04-03T07:32:00Z</time></trkpt><trkpt lat="45.16298250540216" lon="8.998866087995424"><ele>85.0</ele><time>2026-04-03T07:32:01Z</time></trkpt><trkpt lat="45.1627172271696" lon="8.998738079124236"><ele>85.0</ele><time>2026-04-03T07:32:02Z</time></trkpt><trkpt lat="45.16245324222932" lon="8.998609299978499"><ele>85.5</ele><time>2026-04-03T07:32:03Z</time></trkpt><trkpt lat="45.162190741129294" lon="8.998485059301236"><ele>86.0</ele><time>2026-04-03T07:32:04Z</time></trkpt><trkpt lat="45.161928173329905" lon="8.998360247473004"><ele>86.0</ele><time>2026-04-03T07:32:05Z</time></trkpt><trkpt lat="45.16166631691083" lon="8.998234044636014"><ele>86.0</ele><time>2026-04-03T07:32:06Z</time></trkpt><trkpt lat="45.16140485062609" lon="8.998106239973618"><ele>86.5</ele><time>2026-04-03T07:32:07Z</time></trkpt><trkpt lat="45.16114303316037" lon="8.997978422425662"><ele>87.0</ele><time>2026-04-03T07:32:08Z</time></trkpt><trkpt lat="45.16088332601008" lon="8.997852756558538"><ele>87.0</ele><time>2026-04-03T07:32:09Z</time></trkpt><trkpt lat="45.16061867025012" lon="8.997727498587878"><ele>87.0</ele><time>2026-04-03T07:32:10Z</time></trkpt><trkpt lat="45.16035009308388" lon="8.997601181795003"><ele>87.0</ele><time>2026-04-03T07:32:11Z</time></trkpt><trkpt lat="45.1600790766608" lon="8.997472160968655"><ele>87.0</ele><time>2026-04-03T07:32:12Z</time></trkpt><trkpt lat="45.159806159620636" lon="8.997339540792893"><ele>86.5</ele><time>2026-04-03T07:32:13Z</time></trkpt><trkpt lat="45.15953104120016" lon="8.997203317460299"><ele>86.0</ele><time>2026-04-03T07:32:14Z</time></trkpt><trkpt lat="45.15925583584006" lon="8.997064949271849"><ele>86.5</ele><time>2026-04-03T07:32:15Z</time></trkpt><trkpt lat="45.158984946926644" lon="8.996925767188772"><ele>87.0</ele><time>2026-04-03T07:32:16Z</time></trkpt><trkpt lat="45.15871360384309" lon="8.99678306362428"><ele>87.5</ele><time>2026-04-03T07:32:17Z</time></trkpt><trkpt lat="45.158442375834476" lon="8.996642177890308"><ele>88.0</ele><time>2026-04-03T07:32:18Z</time></trkpt><trkpt lat="45.158174678506725" lon="8.99650806961005"><ele>88.0</ele><time>2026-04-03T07:32:19Z</time></trkpt><trkpt lat="45.15790405516527" lon="8.996375168555701"><ele>88.0</ele><time>2026-04-03T07:32:20Z</time></trkpt><trkpt lat="45.1576329477707" lon="8.99624016938265"><ele>88.5</ele><time>2026-04-03T07:32:21Z</time></trkpt><trkpt lat="45.157360787553294" lon="8.996105009911695"><ele>89.0</ele><time>2026-04-03T07:32:22Z</time></trkpt><trkpt lat="45.15708636710183" lon="8.99596845373015"><ele>88.5</ele><time>2026-04-03T07:32:23Z</time></trkpt><trkpt lat="45.1568129762121" lon="8.995834544956917"><ele>88.0</ele><time>2026-04-03T07:32:24Z</time></trkpt><trkpt lat="45.15654201111264" lon="8.995702852397773"><ele>87.5</ele><time>2026-04-03T07:32:25Z</time></trkpt><trkpt lat="45.156270948200685" lon="8.99556955409211"><ele>87.0</ele><time>2026-04-03T07:32:26Z</time></trkpt><trkpt lat="45.155999979655235" lon="8.9954350585722"><ele>87.0</ele><time>2026-04-03T07:32:27Z</time></trkpt><trkpt lat="45.15572955884315" lon="8.995297989806541"><ele>87.0</ele><time>2026-04-03T07:32:28Z</time></trkpt><trkpt lat="45.15546098199287" lon="8.995156676399715"><ele>86.0</ele><time>2026-04-03T07:32:29Z</time></trkpt><trkpt lat="45.15519542351349" lon="8.995017878971572"><ele>85.0</ele><time>2026-04-03T07:32:30Z</time></trkpt><trkpt lat="45.15492913533923" lon="8.994885092434812"><ele>85.0</ele><time>2026-04-03T07:32:31Z</time></trkpt><trkpt lat="45.15466452292926" lon="8.99475248392011"><ele>85.0</ele><time>2026-04-03T07:32:32Z</time></trkpt><trkpt lat="45.15440172578409" lon="8.994625112143789"><ele>85.0</ele><time>2026-04-03T07:32:33Z</time></trkpt><trkpt lat="45.154135191615076" lon="8.994500315152084"><ele>85.0</ele><time>2026-04-03T07:32:34Z</time></trkpt><trkpt lat="45.1538705581325" lon="8.994374833149061"><ele>85.0</ele><time>2026-04-03T07:32:35Z</time></trkpt><trkpt lat="45.153606786946526" lon="8.994250801336138"><ele>85.0</ele><time>2026-04-03T07:32:36Z</time></trkpt><trkpt lat="45.153344336023196" lon="8.994123052986891"><ele>84.5</ele><time>2026-04-03T07:32:37Z</time></trkpt><trkpt lat="45.15308070454027" lon="8.993995332873034"><ele>84.0</ele><time>2026-04-03T07:32:38Z</time></trkpt><trkpt lat="45.152819321264275" lon="8.993865630543315"><ele>84.0</ele><time>2026-04-03T07:32:39Z</time></trkpt><trkpt lat="45.152554883444594" lon="8.993734625673955"><ele>84.0</ele><time>2026-04-03T07:32:40Z</time></trkpt><trkpt lat="45.152293577787454" lon="8.993607699649136"><ele>83.5</ele><time>2026-04-03T07:32:41Z</time></trkpt><trkpt lat="45.15203313501842" lon="8.993481635305097"><ele>83.0</ele><time>2026-04-03T07:32:42Z</time></trkpt><trkpt lat="45.151771105936604" lon="8.993356336287507"><ele>84.5</ele><time>2026-04-03T07:32:43Z</time></trkpt><trkpt lat="45.15150932385703" lon="8.993230795556535"><ele>86.0</ele><time>2026-04-03T07:32:44Z</time></trkpt><trkpt lat="45.15125009144086" lon="8.993104512906887"><ele>86.0</ele><time>2026-04-03T07:32:45Z</time></trkpt><trkpt lat="45.150990441081696" lon="8.99297932991627"><ele>86.0</ele><time>2026-04-03T07:32:46Z</time></trkpt><trkpt lat="45.150731491008216" lon="8.992854189032734"><ele>86.5</ele><time>2026-04-03T07:32:47Z</time></trkpt><trkpt lat="45.15047140234449" lon="8.992726773460996"><ele>87.0</ele><time>2026-04-03T07:32:48Z</time></trkpt><trkpt lat="45.15021301100649" lon="8.992595555643563"><ele>87.0</ele><time>2026-04-03T07:32:49Z</time></trkpt><trkpt lat="45.14995883094177" lon="8.992453988692791"><ele>87.0</ele><time>2026-04-03T07:32:50Z</time></trkpt><trkpt lat="45.14970475338145" lon="8.9923037330936"><ele>87.0</ele><time>2026-04-03T07:32:51Z</time></trkpt><trkpt lat="45.14945437936997" lon="8.992146839664077"><ele>87.0</ele><time>2026-04-03T07:32:52Z</time></trkpt><trkpt lat="45.149203916364954" lon="8.991987552080792"><ele>87.0</ele><time>2026-04-03T07:32:53Z</time></trkpt><trkpt lat="45.148951475444925" lon="8.991831950213705"><ele>87.0</ele><time>2026-04-03T07:32:54Z</time></trkpt><trkpt lat="45.14869749386369" lon="8.991675369718838"><ele>87.5</ele><time>2026-04-03T07:32:55Z</time></trkpt><trkpt lat="45.148445647342" lon="8.99152045969201"><ele>88.0</ele><time>2026-04-03T07:32:56Z</time></trkpt><trkpt lat="45.14819600587214" lon="8.991366549725425"><ele>88.5</ele><time>2026-04-03T07:32:57Z</time></trkpt><trkpt lat="45.147953770878324" lon="8.991218936326717"><ele>89.0</ele><time>2026-04-03T07:32:58Z</time></trkpt><trkpt lat="45.14772058702272" lon="8.991066261596284"><ele>89.0</ele><time>2026-04-03T07:32:59Z</time></trkpt><trkpt lat="45.14749008773933" lon="8.990932714753875"><ele>89.0</ele><time>2026-04-03T07:33:00Z</time></trkpt><trkpt lat="45.14727259912922" lon="8.990797945578265"><ele>89.0</ele><time>2026-04-03T07:33:01Z</time></trkpt><trkpt lat="45.14707222980228" lon="8.990675000263714"><ele>89.0</ele><time>2026-04-03T07:33:02Z</time></trkpt><trkpt lat="45.14687966835295" lon="8.990558796237126"><ele>89.0</ele><time>2026-04-03T07:33:03Z</time></trkpt><trkpt lat="45.146702024757" lon="8.990453269664416"><ele>89.0</ele><time>2026-04-03T07:33:04Z</time></trkpt><trkpt lat="45.146554721662675" lon="8.990361181201923"><ele>89.0</ele><time>2026-04-03T07:33:05Z</time></trkpt><trkpt lat="45.14641896416687" lon="8.990279139614364"><ele>89.0</ele><time>2026-04-03T07:33:06Z</time></trkpt><trkpt lat="45.146281479801516" lon="8.990192774322761"><ele>87.66666666666667</ele><time>2026-04-03T07:33:07Z</time></trkpt><trkpt lat="45.14613354021568" lon="8.990098698798588"><ele>86.33333333333333</ele><time>2026-04-03T07:33:08Z</time></trkpt><trkpt lat="45.145981477901174" lon="8.990000116941395"><ele>85.0</ele><time>2026-04-03T07:33:09Z</time></trkpt><trkpt lat="45.14582062343238" lon="8.98989516511569"><ele>84.0</ele><time>2026-04-03T07:33:10Z</time></trkpt><trkpt lat="45.14565822874126" lon="8.98979547051149"><ele>83.0</ele><time>2026-04-03T07:33:11Z</time></trkpt><trkpt lat="45.14548995321119" lon="8.989694017101314"><ele>82.0</ele><time>2026-04-03T07:33:12Z</time></trkpt><trkpt lat="45.14532290354678" lon="8.989593540963883"><ele>82.0</ele><time>2026-04-03T07:33:13Z</time></trkpt><trkpt lat="45.14515333287664" lon="8.989491976189514"><ele>82.0</ele><time>2026-04-03T07:33:14Z</time></trkpt><trkpt lat="45.14498146665355" lon="8.98938864810554"><ele>82.0</ele><time>2026-04-03T07:33:15Z</time></trkpt><trkpt lat="45.14480701535262" lon="8.989281863716107"><ele>82.33333333333333</ele><time>2026-04-03T07:33:16Z</time></trkpt><trkpt lat="45.144630446035286" lon="8.989174978216017"><ele>82.66666666666667</ele><time>2026-04-03T07:33:16.999Z</time></trkpt><trkpt lat="45.1444558676524" lon="8.98906571390039"><ele>83.0</ele><time>2026-04-03T07:33:17.999Z</time></trkpt><trkpt lat="45.14427568755698" lon="8.988955653673338"><ele>83.0</ele><time>2026-04-03T07:33:18.999Z</time></trkpt><trkpt lat="45.14409164716555" lon="8.988845861784691"><ele>83.0</ele><time>2026-04-03T07:33:19.999Z</time></trkpt><trkpt lat="45.14390618470954" lon="8.988731559439415"><ele>83.0</ele><time>2026-04-03T07:33:20.999Z</time></trkpt><trkpt lat="45.143717105549904" lon="8.988613742240402"><ele>83.33333333333334</ele><time>2026-04-03T07:33:21.999Z</time></trkpt><trkpt lat="45.14352896232373" lon="8.988497061339702"><ele>83.66666666666667</ele><time>2026-04-03T07:33:22.999Z</time></trkpt><trkpt lat="45.14333811917881" lon="8.98838031359173"><ele>84.0</ele><time>2026-04-03T07:33:23.999Z</time></trkpt><trkpt lat="45.14314726449697" lon="8.98826208064431"><ele>84.33333333333333</ele><time>2026-04-03T07:33:24.999Z</time></trkpt><trkpt lat="45.14295634239085" lon="8.988145994449663"><ele>84.66666666666666</ele><time>2026-04-03T07:33:25.999Z</time></trkpt><trkpt lat="45.14276239913171" lon="8.988027126778745"><ele>85.0</ele><time>2026-04-03T07:33:26.999Z</time></trkpt><trkpt lat="45.142564214782226" lon="8.987911100469038"><ele>84.66666666666666</ele><time>2026-04-03T07:33:27.999Z</time></trkpt><trkpt lat="45.1423607906927" lon="8.987796557746668"><ele>84.33333333333333</ele><time>2026-04-03T07:33:28.999Z</time></trkpt><trkpt lat="45.14215183756029" lon="8.987674038042218"><ele>84.0</ele><time>2026-04-03T07:33:29.999Z</time></trkpt><trkpt lat="45.14194432850755" lon="8.987548147639808"><ele>84.0</ele><time>2026-04-03T07:33:30.999Z</time></trkpt><trkpt lat="45.14173624499072" lon="8.987425528371972"><ele>84.0</ele><time>2026-04-03T07:33:31.999Z</time></trkpt><trkpt lat="45.141528043903136" lon="8.987301433442282"><ele>83.5</ele><time>2026-04-03T07:33:32.999Z</time></trkpt><trkpt lat="45.141317541896825" lon="8.987171642866741"><ele>83.0</ele><time>2026-04-03T07:33:33.999Z</time></trkpt><trkpt lat="45.14110227200312" lon="8.987037951733159"><ele>83.0</ele><time>2026-04-03T07:33:34.999Z</time></trkpt><trkpt lat="45.1408795916407" lon="8.986898511353418"><ele>83.0</ele><time>2026-04-03T07:33:35.999Z</time></trkpt><trkpt lat="45.1406527261369" lon="8.98675696492082"><ele>83.0</ele><time>2026-04-03T07:33:36.999Z</time></trkpt><trkpt lat="45.14042232829777" lon="8.986616097577883"><ele>83.0</ele><time>2026-04-03T07:33:37.999Z</time></trkpt><trkpt lat="45.14019047245207" lon="8.986475472203844"><ele>83.0</ele><time>2026-04-03T07:33:38.999Z</time></trkpt><trkpt lat="45.13995535287394" lon="8.986331785100377"><ele>83.0</ele><time>2026-04-03T07:33:39.999Z</time></trkpt><trkpt lat="45.13971914742064" lon="8.986183577860912"><ele>83.0</ele><time>2026-04-03T07:33:40.999Z</time></trkpt><trkpt lat="45.13947931139945" lon="8.98602987043531"><ele>83.0</ele><time>2026-04-03T07:33:41.999Z</time></trkpt><trkpt lat="45.13923253012766" lon="8.985876146316867"><ele>83.0</ele><time>2026-04-03T07:33:42.999Z</time></trkpt><trkpt lat="45.13898743168649" lon="8.985720804022439"><ele>83.0</ele><time>2026-04-03T07:33:43.999Z</time></trkpt><trkpt lat="45.13873611815525" lon="8.98556148993294"><ele>83.0</ele><time>2026-04-03T07:33:45Z</time></trkpt><trkpt lat="45.13848350269194" lon="8.985406928525977"><ele>83.0</ele><time>2026-04-03T07:33:46Z</time></trkpt><trkpt lat="45.13822762806743" lon="8.985251742330055"><ele>83.5</ele><time>2026-04-03T07:33:47Z</time></trkpt><trkpt lat="45.137970437172896" lon="8.985095002378591"><ele>84.0</ele><time>2026-04-03T07:33:48Z</time></trkpt><trkpt lat="45.13771381840151" lon="8.984937091804195"><ele>84.5</ele><time>2026-04-03T07:33:49Z</time></trkpt><trkpt lat="45.137451815849474" lon="8.98477311002311"><ele>85.0</ele><time>2026-04-03T07:33:50Z</time></trkpt><trkpt lat="45.137189203003004" lon="8.984612504990558"><ele>83.5</ele><time>2026-04-03T07:33:51Z</time></trkpt><trkpt lat="45.13692880893493" lon="8.984449096214309"><ele>82.0</ele><time>2026-04-03T07:33:52Z</time></trkpt><trkpt lat="45.13666878333473" lon="8.984289949441184"><ele>82.0</ele><time>2026-04-03T07:33:53Z</time></trkpt><trkpt lat="45.136405433812996" lon="8.984129790776983"><ele>82.0</ele><time>2026-04-03T07:33:54Z</time></trkpt><trkpt lat="45.136141125915614" lon="8.983967446083893"><ele>82.0</ele><time>2026-04-03T07:33:55Z</time></trkpt><trkpt lat="45.135875794035464" lon="8.983806091544787"><ele>82.0</ele><time>2026-04-03T07:33:56Z</time></trkpt><trkpt lat="45.13561265716969" lon="8.98364688349484"><ele>82.0</ele><time>2026-04-03T07:33:57Z</time></trkpt><trkpt lat="45.13534870231382" lon="8.983486057292433"><ele>82.0</ele><time>2026-04-03T07:33:58Z</time></trkpt><trkpt lat="45.13508920776684" lon="8.983324701981438"><ele>81.5</ele><time>2026-04-03T07:33:59Z</time></trkpt><trkpt lat="45.13482816997332" lon="8.983166452748748"><ele>81.0</ele><time>2026-04-03T07:34:00Z</time></trkpt><trkpt lat="45.13456678241675" lon="8.983008474465885"><ele>81.0</ele><time>2026-04-03T07:34:01Z</time></trkpt><trkpt lat="45.13430772895159" lon="8.982848102071026"><ele>81.0</ele><time>2026-04-03T07:34:02Z</time></trkpt><trkpt lat="45.13404785625281" lon="8.98268680715293"><ele>80.5</ele><time>2026-04-03T07:34:03Z</time></trkpt><trkpt lat="45.13379126366015" lon="8.982526705945716"><ele>80.0</ele><time>2026-04-03T07:34:04Z</time></trkpt><trkpt lat="45.133532797664934" lon="8.98236709257152"><ele>80.0</ele><time>2026-04-03T07:34:05Z</time></trkpt><trkpt lat="45.13327470026916" lon="8.982207622731641"><ele>80.0</ele><time>2026-04-03T07:34:06Z</time></trkpt><trkpt lat="45.133016084999504" lon="8.982049574979925"><ele>81.0</ele><time>2026-04-03T07:34:07Z</time></trkpt><trkpt lat="45.132758983196624" lon="8.98189164033167"><ele>82.0</ele><time>2026-04-03T07:34:08Z</time></trkpt><trkpt lat="45.13250046691231" lon="8.981733297843858"><ele>82.5</ele><time>2026-04-03T07:34:09Z</time></trkpt><trkpt lat="45.13224520452004" lon="8.981574528767224"><ele>83.0</ele><time>2026-04-03T07:34:10Z</time></trkpt><trkpt lat="45.131990501056876" lon="8.981414900675695"><ele>83.0</ele><time>2026-04-03T07:34:11Z</time></trkpt><trkpt lat="45.13173379509407" lon="8.981254443516137"><ele>83.0</ele><time>2026-04-03T07:34:12Z</time></trkpt><trkpt lat="45.13147745037243" lon="8.98109571025781"><ele>83.5</ele><time>2026-04-03T07:34:13Z</time></trkpt><trkpt lat="45.13121971844428" lon="8.98093822308064"><ele>84.0</ele><time>2026-04-03T07:34:14Z</time></trkpt><trkpt lat="45.13096170654328" lon="8.980780604638044"><ele>82.0</ele><time>2026-04-03T07:34:15Z</time></trkpt><trkpt lat="45.130703363698274" lon="8.98062320497263"><ele>80.0</ele><time>2026-04-03T07:34:16Z</time></trkpt><trkpt lat="45.13044708320257" lon="8.980465121109775"><ele>80.0</ele><time>2026-04-03T07:34:17Z</time></trkpt><trkpt lat="45.13019462897678" lon="8.980311056928434"><ele>80.0</ele><time>2026-04-03T07:34:18Z</time></trkpt><trkpt lat="45.12994151799638" lon="8.98015521923206"><ele>80.0</ele><time>2026-04-03T07:34:19Z</time></trkpt><trkpt lat="45.129688467499186" lon="8.980000154956574"><ele>80.0</ele><time>2026-04-03T07:34:20Z</time></trkpt><trkpt lat="45.12943969928021" lon="8.979842983343737"><ele>80.0</ele><time>2026-04-03T07:34:21Z</time></trkpt><trkpt lat="45.12919053632442" lon="8.979688441534803"><ele>80.0</ele><time>2026-04-03T07:34:22Z</time></trkpt><trkpt lat="45.12893920520521" lon="8.9795285460282"><ele>79.5</ele><time>2026-04-03T07:34:23Z</time></trkpt><trkpt lat="45.12868848004772" lon="8.979373714882344"><ele>79.0</ele><time>2026-04-03T07:34:24Z</time></trkpt><trkpt lat="45.12843675306097" lon="8.979221985659445"><ele>80.0</ele><time>2026-04-03T07:34:25Z</time></trkpt><trkpt lat="45.128181089454614" lon="8.97906906856028"><ele>81.0</ele><time>2026-04-03T07:34:26Z</time></trkpt><trkpt lat="45.12792461232129" lon="8.97892183785696"><ele>81.0</ele><time>2026-04-03T07:34:27Z</time></trkpt><trkpt lat="45.12766521963505" lon="8.978780102803894"><ele>81.0</ele><time>2026-04-03T07:34:28Z</time></trkpt><trkpt lat="45.127405170832986" lon="8.97864443302483"><ele>80.0</ele><time>2026-04-03T07:34:29Z</time></trkpt><trkpt lat="45.12714404946725" lon="8.978523270349417"><ele>79.0</ele><time>2026-04-03T07:34:30Z</time></trkpt><trkpt lat="45.12687716297381" lon="8.978409996693387"><ele>79.5</ele><time>2026-04-03T07:34:31Z</time></trkpt><trkpt lat="45.12661171885532" lon="8.978307739989123"><ele>80.0</ele><time>2026-04-03T07:34:32Z</time></trkpt><trkpt lat="45.1263423008792" lon="8.978207938703875"><ele>80.5</ele><time>2026-04-03T07:34:33Z</time></trkpt><trkpt lat="45.12607220470424" lon="8.97811521474701"><ele>81.0</ele><time>2026-04-03T07:34:34Z</time></trkpt><trkpt lat="45.12579691043754" lon="8.978028497946248"><ele>79.5</ele><time>2026-04-03T07:34:35Z</time></trkpt><trkpt lat="45.125524443378914" lon="8.97795458227183"><ele>78.0</ele><time>2026-04-03T07:34:36Z</time></trkpt><trkpt lat="45.1252473927234" lon="8.977883687711167"><ele>78.0</ele><time>2026-04-03T07:34:37Z</time></trkpt><trkpt lat="45.12497333088368" lon="8.977821976164776"><ele>78.0</ele><time>2026-04-03T07:34:38Z</time></trkpt><trkpt lat="45.124700174053885" lon="8.977767133204956"><ele>78.0</ele><time>2026-04-03T07:34:39Z</time></trkpt><trkpt lat="45.12442487866891" lon="8.977717470980165"><ele>78.0</ele><time>2026-04-03T07:34:40Z</time></trkpt><trkpt lat="45.124148828844284" lon="8.977669978814202"><ele>76.5</ele><time>2026-04-03T07:34:41Z</time></trkpt><trkpt lat="45.12387334814438" lon="8.977620888895858"><ele>75.0</ele><time>2026-04-03T07:34:42Z</time></trkpt><trkpt lat="45.12359968733211" lon="8.97757263964682"><ele>75.0</ele><time>2026-04-03T07:34:43Z</time></trkpt><trkpt lat="45.1233253582396" lon="8.977522681640693"><ele>75.0</ele><time>2026-04-03T07:34:44Z</time></trkpt><trkpt lat="45.123052529812625" lon="8.977471355322617"><ele>73.5</ele><time>2026-04-03T07:34:45Z</time></trkpt><trkpt lat="45.12277819138342" lon="8.977420386380075"><ele>72.0</ele><time>2026-04-03T07:34:46Z</time></trkpt><trkpt lat="45.12250522151186" lon="8.977368707742551"><ele>72.5</ele><time>2026-04-03T07:34:47Z</time></trkpt><trkpt lat="45.122231113930496" lon="8.977316669692831"><ele>73.0</ele><time>2026-04-03T07:34:48Z</time></trkpt><trkpt lat="45.12195882407723" lon="8.977265214165838"><ele>73.0</ele><time>2026-04-03T07:34:49Z</time></trkpt><trkpt lat="45.12168688291314" lon="8.977215213206748"><ele>73.0</ele><time>2026-04-03T07:34:50Z</time></trkpt><trkpt lat="45.12141540220935" lon="8.977165495190436"><ele>72.0</ele><time>2026-04-03T07:34:51Z</time></trkpt><trkpt lat="45.12114474715388" lon="8.97711934667504"><ele>71.0</ele><time>2026-04-03T07:34:52Z</time></trkpt><trkpt lat="45.12087518711877" lon="8.97707484782228"><ele>71.5</ele><time>2026-04-03T07:34:53Z</time></trkpt><trkpt lat="45.12060730684928" lon="8.9770286204079"><ele>72.0</ele><time>2026-04-03T07:34:54Z</time></trkpt><trkpt lat="45.120343377709744" lon="8.976980030429042"><ele>72.0</ele><time>2026-04-03T07:34:55Z</time></trkpt><trkpt lat="45.120073403014906" lon="8.976931124139742"><ele>72.0</ele><time>2026-04-03T07:34:56Z</time></trkpt><trkpt lat="45.11980294536705" lon="8.97687769302386"><ele>73.5</ele><time>2026-04-03T07:34:57Z</time></trkpt><trkpt lat="45.11953301504624" lon="8.976822615811967"><ele>75.0</ele><time>2026-04-03T07:34:58Z</time></trkpt><trkpt lat="45.119263052768304" lon="8.976770580378567"><ele>76.5</ele><time>2026-04-03T07:34:59Z</time></trkpt><trkpt lat="45.118997617975" lon="8.97672283183652"><ele>78.0</ele><time>2026-04-03T07:35:00Z</time></trkpt><trkpt lat="45.118726575227164" lon="8.976674476026071"><ele>78.0</ele><time>2026-04-03T07:35:01Z</time></trkpt><trkpt lat="45.11846201019247" lon="8.9766278530564"><ele>78.0</ele><time>2026-04-03T07:35:02Z</time></trkpt><trkpt lat="45.118195247184374" lon="8.976579633118488"><ele>79.5</ele><time>2026-04-03T07:35:03Z</time></trkpt><trkpt lat="45.11792878414767" lon="8.976529992501705"><ele>81.0</ele><time>2026-04-03T07:35:04Z</time></trkpt><trkpt lat="45.11766803301505" lon="8.976481854515441"><ele>81.0</ele><time>2026-04-03T07:35:05Z</time></trkpt><trkpt lat="45.11740835019429" lon="8.976437738882298"><ele>81.0</ele><time>2026-04-03T07:35:06Z</time></trkpt><trkpt lat="45.117150453483546" lon="8.976388066800368"><ele>78.5</ele><time>2026-04-03T07:35:07Z</time></trkpt><trkpt lat="45.116890299913685" lon="8.976345789716481"><ele>76.0</ele><time>2026-04-03T07:35:08Z</time></trkpt><trkpt lat="45.116626521864006" lon="8.976296226707289"><ele>76.5</ele><time>2026-04-03T07:35:09Z</time></trkpt><trkpt lat="45.11636559412391" lon="8.976248797240915"><ele>77.0</ele><time>2026-04-03T07:35:10Z</time></trkpt><trkpt lat="45.11610325402115" lon="8.976200642412875"><ele>77.0</ele><time>2026-04-03T07:35:11Z</time></trkpt><trkpt lat="45.11583891425632" lon="8.976153823302505"><ele>77.0</ele><time>2026-04-03T07:35:12Z</time></trkpt><trkpt lat="45.11557467221" lon="8.976107680715911"><ele>76.5</ele><time>2026-04-03T07:35:13Z</time></trkpt><trkpt lat="45.11531027742041" lon="8.976058332882793"><ele>76.0</ele><time>2026-04-03T07:35:14Z</time></trkpt><trkpt lat="45.115045198232856" lon="8.976004519070687"><ele>73.5</ele><time>2026-04-03T07:35:15Z</time></trkpt><trkpt lat="45.11477870747991" lon="8.975950154680103"><ele>71.0</ele><time>2026-04-03T07:35:16Z</time></trkpt><trkpt lat="45.114508807069555" lon="8.975897192317294"><ele>71.0</ele><time>2026-04-03T07:35:16.999Z</time></trkpt><trkpt lat="45.114238402853225" lon="8.975847251017766"><ele>71.0</ele><time>2026-04-03T07:35:17.999Z</time></trkpt><trkpt lat="45.11396753164957" lon="8.975799091447064"><ele>69.0</ele><time>2026-04-03T07:35:18.999Z</time></trkpt><trkpt lat="45.113691508276666" lon="8.975748255790705"><ele>67.0</ele><time>2026-04-03T07:35:19.999Z</time></trkpt><trkpt lat="45.11341383967996" lon="8.975698130719744"><ele>67.5</ele><time>2026-04-03T07:35:20.999Z</time></trkpt><trkpt lat="45.11313631587622" lon="8.975647845821326"><ele>68.0</ele><time>2026-04-03T07:35:21.999Z</time></trkpt><trkpt lat="45.11285714359991" lon="8.975596453552527"><ele>68.0</ele><time>2026-04-03T07:35:22.999Z</time></trkpt><trkpt lat="45.11257941918128" lon="8.975544869293804"><ele>68.0</ele><time>2026-04-03T07:35:23.999Z</time></trkpt><trkpt lat="45.11229981808977" lon="8.975483540736658"><ele>68.5</ele><time>2026-04-03T07:35:24.999Z</time></trkpt><trkpt lat="45.11202318525372" lon="8.975409210865843"><ele>69.0</ele><time>2026-04-03T07:35:25.999Z</time></trkpt><trkpt lat="45.11174753283933" lon="8.975323012899992"><ele>70.5</ele><time>2026-04-03T07:35:26.999Z</time></trkpt><trkpt lat="45.11147127599528" lon="8.975226758718522"><ele>72.0</ele><time>2026-04-03T07:35:27.999Z</time></trkpt><trkpt lat="45.11120115304033" lon="8.975125300827257"><ele>70.5</ele><time>2026-04-03T07:35:28.999Z</time></trkpt><trkpt lat="45.110930363246354" lon="8.975016759759995"><ele>69.0</ele><time>2026-04-03T07:35:29.999Z</time></trkpt><trkpt lat="45.110663891145414" lon="8.974902528388467"><ele>68.5</ele><time>2026-04-03T07:35:30.999Z</time></trkpt><trkpt lat="45.11040193567908" lon="8.974784417594083"><ele>68.0</ele><time>2026-04-03T07:35:31.999Z</time></trkpt><trkpt lat="45.110141027852116" lon="8.97466542011367"><ele>67.0</ele><time>2026-04-03T07:35:32.999Z</time></trkpt><trkpt lat="45.10988227146275" lon="8.974552561152894"><ele>66.0</ele><time>2026-04-03T07:35:33.999Z</time></trkpt><trkpt lat="45.10962333405046" lon="8.974442885593307"><ele>66.0</ele><time>2026-04-03T07:35:34.999Z</time></trkpt><trkpt lat="45.109366767126666" lon="8.97433223848729"><ele>66.0</ele><time>2026-04-03T07:35:35.999Z</time></trkpt><trkpt lat="45.109110094929136" lon="8.974220190626177"><ele>67.0</ele><time>2026-04-03T07:35:36.999Z</time></trkpt><trkpt lat="45.10885756357609" lon="8.974109134579372"><ele>68.0</ele><time>2026-04-03T07:35:37.999Z</time></trkpt><trkpt lat="45.10860601021243" lon="8.973999929603922"><ele>68.0</ele><time>2026-04-03T07:35:38.999Z</time></trkpt><trkpt lat="45.10835670538048" lon="8.97388939505616"><ele>68.0</ele><time>2026-04-03T07:35:39.999Z</time></trkpt><trkpt lat="45.108107272147016" lon="8.973781422819648"><ele>66.5</ele><time>2026-04-03T07:35:40.999Z</time></trkpt><trkpt lat="45.10785971120609" lon="8.973672752608994"><ele>65.0</ele><time>2026-04-03T07:35:41.999Z</time></trkpt><trkpt lat="45.10761226559515" lon="8.97356426837048"><ele>65.0</ele><time>2026-04-03T07:35:42.999Z</time></trkpt><trkpt lat="45.10736370838396" lon="8.973457508538921"><ele>65.0</ele><time>2026-04-03T07:35:43.999Z</time></trkpt><trkpt lat="45.10711738558676" lon="8.973349519388364"><ele>65.0</ele><time>2026-04-03T07:35:44.999Z</time></trkpt><trkpt lat="45.10687284381407" lon="8.973240104756709"><ele>65.0</ele><time>2026-04-03T07:35:45.999Z</time></trkpt><trkpt lat="45.10662923042718" lon="8.973132058604396"><ele>65.0</ele><time>2026-04-03T07:35:46.999Z</time></trkpt><trkpt lat="45.106384672557006" lon="8.973022085968887"><ele>65.0</ele><time>2026-04-03T07:35:47.999Z</time></trkpt><trkpt lat="45.10614104565828" lon="8.972914430970407"><ele>65.0</ele><time>2026-04-03T07:35:48.999Z</time></trkpt><trkpt lat="45.105893657388854" lon="8.972806478826822"><ele>65.0</ele><time>2026-04-03T07:35:49.999Z</time></trkpt><trkpt lat="45.10564214262105" lon="8.972697255721986"><ele>65.0</ele><time>2026-04-03T07:35:51Z</time></trkpt><trkpt lat="45.10539076593581" lon="8.972586725967536"><ele>65.0</ele><time>2026-04-03T07:35:52Z</time></trkpt><trkpt lat="45.10513648373319" lon="8.972473984667598"><ele>65.0</ele><time>2026-04-03T07:35:53Z</time></trkpt><trkpt lat="45.104882089099576" lon="8.97236080358702"><ele>65.0</ele><time>2026-04-03T07:35:54Z</time></trkpt><trkpt lat="45.10462420520774" lon="8.972247254961005"><ele>65.0</ele><time>2026-04-03T07:35:55Z</time></trkpt><trkpt lat="45.10436588804244" lon="8.972133754801908"><ele>65.0</ele><time>2026-04-03T07:35:56Z</time></trkpt><trkpt lat="45.10410674560438" lon="8.972022736300602"><ele>66.5</ele><time>2026-04-03T07:35:57Z</time></trkpt><trkpt lat="45.103847282636124" lon="8.971912240556401"><ele>68.0</ele><time>2026-04-03T07:35:58Z</time></trkpt><trkpt lat="45.10359056982568" lon="8.97179969963272"><ele>68.0</ele><time>2026-04-03T07:35:59Z</time></trkpt><trkpt lat="45.103332271254615" lon="8.971683370671409"><ele>68.0</ele><time>2026-04-03T07:36:00Z</time></trkpt><trkpt lat="45.103075716752485" lon="8.97156943879512"><ele>67.0</ele><time>2026-04-03T07:36:01Z</time></trkpt><trkpt lat="45.10281924274215" lon="8.971456389190305"><ele>66.0</ele><time>2026-04-03T07:36:02Z</time></trkpt><trkpt lat="45.1025610905498" lon="8.971349209107084"><ele>66.0</ele><time>2026-04-03T07:36:03Z</time></trkpt><trkpt lat="45.102305118152024" lon="8.971242724575934"><ele>66.0</ele><time>2026-04-03T07:36:04Z</time></trkpt><trkpt lat="45.10204925203559" lon="8.971133343256383"><ele>66.0</ele><time>2026-04-03T07:36:05Z</time></trkpt><trkpt lat="45.101793466211284" lon="8.971020602723689"><ele>66.0</ele><time>2026-04-03T07:36:06Z</time></trkpt><trkpt lat="45.101537834232865" lon="8.97090663273288"><ele>66.0</ele><time>2026-04-03T07:36:07Z</time></trkpt><trkpt lat="45.10128193645535" lon="8.970793145104711"><ele>66.0</ele><time>2026-04-03T07:36:08Z</time></trkpt><trkpt lat="45.10102456155492" lon="8.970679707997935"><ele>66.0</ele><time>2026-04-03T07:36:09Z</time></trkpt><trkpt lat="45.10076221529227" lon="8.9705624466503"><ele>66.0</ele><time>2026-04-03T07:36:10Z</time></trkpt><trkpt lat="45.100498791081876" lon="8.970444090128753"><ele>66.0</ele><time>2026-04-03T07:36:11Z</time></trkpt><trkpt lat="45.10023268037814" lon="8.970326296616975"><ele>66.0</ele><time>2026-04-03T07:36:12Z</time></trkpt><trkpt lat="45.09996566202606" lon="8.970208544642164"><ele>65.5</ele><time>2026-04-03T07:36:13Z</time></trkpt><trkpt lat="45.09969624312807" lon="8.970089565314892"><ele>65.0</ele><time>2026-04-03T07:36:14Z</time></trkpt><trkpt lat="45.09942480525468" lon="8.969970141864248"><ele>64.5</ele><time>2026-04-03T07:36:15Z</time></trkpt><trkpt lat="45.09915083318506" lon="8.969850486013627"><ele>64.0</ele><time>2026-04-03T07:36:16Z</time></trkpt><trkpt lat="45.09887831016319" lon="8.969730606562871"><ele>65.0</ele><time>2026-04-03T07:36:17Z</time></trkpt><trkpt lat="45.09860260211491" lon="8.969609034825567"><ele>66.0</ele><time>2026-04-03T07:36:18Z</time></trkpt><trkpt lat="45.09832766105118" lon="8.969487954590331"><ele>66.0</ele><time>2026-04-03T07:36:19Z</time></trkpt><trkpt lat="45.09805058024795" lon="8.969367571395253"><ele>66.0</ele><time>2026-04-03T07:36:20Z</time></trkpt><trkpt lat="45.097773065349095" lon="8.969246723395962"><ele>66.0</ele><time>2026-04-03T07:36:21Z</time></trkpt><trkpt lat="45.0974939565909" lon="8.969130067156486"><ele>66.0</ele><time>2026-04-03T07:36:22Z</time></trkpt><trkpt lat="45.09721498911082" lon="8.969018271466853"><ele>66.5</ele><time>2026-04-03T07:36:23Z</time></trkpt><trkpt lat="45.09693432066264" lon="8.968913821034564"><ele>67.0</ele><time>2026-04-03T07:36:24Z</time></trkpt><trkpt lat="45.09665359756853" lon="8.968817505195414"><ele>66.5</ele><time>2026-04-03T07:36:25Z</time></trkpt><trkpt lat="45.09637192272669" lon="8.968728986363212"><ele>66.0</ele><time>2026-04-03T07:36:26Z</time></trkpt><trkpt lat="45.09608953927807" lon="8.9686471093077"><ele>66.0</ele><time>2026-04-03T07:36:27Z</time></trkpt><trkpt lat="45.095801017466485" lon="8.968574278503679"><ele>66.0</ele><time>2026-04-03T07:36:28Z</time></trkpt><trkpt lat="45.09551453172895" lon="8.96851630120205"><ele>66.5</ele><time>2026-04-03T07:36:29Z</time></trkpt><trkpt lat="45.09522499385814" lon="8.96846060498895"><ele>67.0</ele><time>2026-04-03T07:36:30Z</time></trkpt><trkpt lat="45.094936020795416" lon="8.968413368967198"><ele>66.5</ele><time>2026-04-03T07:36:31Z</time></trkpt><trkpt lat="45.094644637999835" lon="8.968372395580518"><ele>66.0</ele><time>2026-04-03T07:36:32Z</time></trkpt><trkpt lat="45.09435475748686" lon="8.968339326432433"><ele>66.5</ele><time>2026-04-03T07:36:33Z</time></trkpt><trkpt lat="45.09406245692672" lon="8.968319096534684"><ele>67.0</ele><time>2026-04-03T07:36:34Z</time></trkpt><trkpt lat="45.093775527816696" lon="8.968308315676259"><ele>67.0</ele><time>2026-04-03T07:36:35Z</time></trkpt><trkpt lat="45.09348538198764" lon="8.968306949812968"><ele>67.0</ele><time>2026-04-03T07:36:36Z</time></trkpt><trkpt lat="45.09319993879911" lon="8.968314464150293"><ele>67.5</ele><time>2026-04-03T07:36:37Z</time></trkpt><trkpt lat="45.09291355977809" lon="8.968331975328558"><ele>68.0</ele><time>2026-04-03T07:36:38Z</time></trkpt><trkpt lat="45.09262899425087" lon="8.968359858506492"><ele>68.5</ele><time>2026-04-03T07:36:39Z</time></trkpt><trkpt lat="45.09234625622004" lon="8.968394582195906"><ele>69.0</ele><time>2026-04-03T07:36:40Z</time></trkpt><trkpt lat="45.09206111440432" lon="8.96843494382478"><ele>69.0</ele><time>2026-04-03T07:36:41Z</time></trkpt><trkpt lat="45.09177749270315" lon="8.96848163964946"><ele>69.0</ele><time>2026-04-03T07:36:42Z</time></trkpt><trkpt lat="45.09149630066631" lon="8.968539652994483"><ele>68.5</ele><time>2026-04-03T07:36:43Z</time></trkpt><trkpt lat="45.09121703645527" lon="8.968603238155623"><ele>68.0</ele><time>2026-04-03T07:36:44Z</time></trkpt><trkpt lat="45.09093658270202" lon="8.968675805549998"><ele>68.0</ele><time>2026-04-03T07:36:45Z</time></trkpt><trkpt lat="45.090657793413136" lon="8.968755589543221"><ele>68.0</ele><time>2026-04-03T07:36:46Z</time></trkpt><trkpt lat="45.090381112958795" lon="8.968844382001489"><ele>68.0</ele><time>2026-04-03T07:36:47Z</time></trkpt><trkpt lat="45.090103811508435" lon="8.968941251268735"><ele>68.0</ele><time>2026-04-03T07:36:48Z</time></trkpt><trkpt lat="45.089830344120955" lon="8.969041820626513"><ele>68.0</ele><time>2026-04-03T07:36:49Z</time></trkpt><trkpt lat="45.08955461876018" lon="8.969146245103248"><ele>68.0</ele><time>2026-04-03T07:36:50Z</time></trkpt><trkpt lat="45.08928311347976" lon="8.96925567814583"><ele>69.5</ele><time>2026-04-03T07:36:51Z</time></trkpt><trkpt lat="45.089009145547585" lon="8.96937029637382"><ele>71.0</ele><time>2026-04-03T07:36:52Z</time></trkpt><trkpt lat="45.08873715097569" lon="8.969484917335276"><ele>71.0</ele><time>2026-04-03T07:36:53Z</time></trkpt><trkpt lat="45.08846690949641" lon="8.969599323226504"><ele>71.0</ele><time>2026-04-03T07:36:54Z</time></trkpt><trkpt lat="45.08819641323054" lon="8.969713652482907"><ele>70.5</ele><time>2026-04-03T07:36:55Z</time></trkpt><trkpt lat="45.08792918281997" lon="8.969827329946886"><ele>70.0</ele><time>2026-04-03T07:36:56Z</time></trkpt><trkpt lat="45.08765759467821" lon="8.969943491635467"><ele>69.0</ele><time>2026-04-03T07:36:57Z</time></trkpt><trkpt lat="45.08738886059536" lon="8.970058657985973"><ele>68.0</ele><time>2026-04-03T07:36:58Z</time></trkpt><trkpt lat="45.08711986959122" lon="8.970172583030548"><ele>68.0</ele><time>2026-04-03T07:36:59Z</time></trkpt><trkpt lat="45.08685096196599" lon="8.970286021515832"><ele>68.0</ele><time>2026-04-03T07:37:00Z</time></trkpt><trkpt lat="45.08658569540424" lon="8.970400546243777"><ele>67.5</ele><time>2026-04-03T07:37:01Z</time></trkpt><trkpt lat="45.086317188011904" lon="8.97051295267059"><ele>67.0</ele><time>2026-04-03T07:37:02Z</time></trkpt><trkpt lat="45.0860490479856" lon="8.970622140663089"><ele>67.0</ele><time>2026-04-03T07:37:03Z</time></trkpt><trkpt lat="45.085783614152945" lon="8.970729119534537"><ele>67.0</ele><time>2026-04-03T07:37:04Z</time></trkpt><trkpt lat="45.08551999547103" lon="8.970839612237025"><ele>67.0</ele><time>2026-04-03T07:37:05Z</time></trkpt><trkpt lat="45.08525700410704" lon="8.970947017669992"><ele>67.0</ele><time>2026-04-03T07:37:06Z</time></trkpt><trkpt lat="45.08499423333419" lon="8.971055787499314"><ele>65.5</ele><time>2026-04-03T07:37:07Z</time></trkpt><trkpt lat="45.08473041469813" lon="8.971167418028486"><ele>64.0</ele><time>2026-04-03T07:37:08Z</time></trkpt><trkpt lat="45.084469639624416" lon="8.971277771097046"><ele>64.0</ele><time>2026-04-03T07:37:09Z</time></trkpt><trkpt lat="45.08420746452484" lon="8.971388812375013"><ele>64.0</ele><time>2026-04-03T07:37:10Z</time></trkpt><trkpt lat="45.08394685276697" lon="8.971498428850568"><ele>63.0</ele><time>2026-04-03T07:37:11Z</time></trkpt><trkpt lat="45.08368054923024" lon="8.97160962460693"><ele>62.0</ele><time>2026-04-03T07:37:12Z</time></trkpt><trkpt lat="45.08341420074197" lon="8.971718314344832"><ele>62.5</ele><time>2026-04-03T07:37:13Z</time></trkpt><trkpt lat="45.083148366973084" lon="8.971826367227212"><ele>63.0</ele><time>2026-04-03T07:37:14Z</time></trkpt><trkpt lat="45.08288457894218" lon="8.971936444756077"><ele>63.0</ele><time>2026-04-03T07:37:15Z</time></trkpt><trkpt lat="45.0826197215177" lon="8.972047785305332"><ele>63.0</ele><time>2026-04-03T07:37:16Z</time></trkpt><trkpt lat="45.082356227117955" lon="8.972159214481811"><ele>62.5</ele><time>2026-04-03T07:37:17Z</time></trkpt><trkpt lat="45.08209200669401" lon="8.972270973247722"><ele>62.0</ele><time>2026-04-03T07:37:18Z</time></trkpt><trkpt lat="45.08182900346396" lon="8.972381035453907"><ele>61.5</ele><time>2026-04-03T07:37:19Z</time></trkpt><trkpt lat="45.08156280888893" lon="8.972492602156557"><ele>61.0</ele><time>2026-04-03T07:37:20Z</time></trkpt><trkpt lat="45.081294205990346" lon="8.972605309376123"><ele>63.0</ele><time>2026-04-03T07:37:20.999Z</time></trkpt><trkpt lat="45.081028544151124" lon="8.9727198524532"><ele>65.0</ele><time>2026-04-03T07:37:21.999Z</time></trkpt><trkpt lat="45.080760766803465" lon="8.972831819093614"><ele>68.5</ele><time>2026-04-03T07:37:22.999Z</time></trkpt><trkpt lat="45.08049676932745" lon="8.972942307407926"><ele>72.0</ele><time>2026-04-03T07:37:23.999Z</time></trkpt><trkpt lat="45.08023050966404" lon="8.973053707878854"><ele>72.0</ele><time>2026-04-03T07:37:24.999Z</time></trkpt><trkpt lat="45.079965581414" lon="8.973162077520918"><ele>72.0</ele><time>2026-04-03T07:37:25.999Z</time></trkpt><trkpt lat="45.079703022290616" lon="8.973272546735918"><ele>71.0</ele><time>2026-04-03T07:37:26.999Z</time></trkpt><trkpt lat="45.07944026378896" lon="8.97338259475625"><ele>70.0</ele><time>2026-04-03T07:37:27.999Z</time></trkpt><trkpt lat="45.07917738614899" lon="8.973484922752869"><ele>70.0</ele><time>2026-04-03T07:37:28.999Z</time></trkpt><trkpt lat="45.07891130806199" lon="8.97357281963915"><ele>70.0</ele><time>2026-04-03T07:37:29.999Z</time></trkpt><trkpt lat="45.07864209102017" lon="8.973645117695154"><ele>70.0</ele><time>2026-04-03T07:37:30.999Z</time></trkpt><trkpt lat="45.078370219983526" lon="8.973701160572936"><ele>70.0</ele><time>2026-04-03T07:37:31.999Z</time></trkpt><trkpt lat="45.078094709967964" lon="8.97374073884509"><ele>69.5</ele><time>2026-04-03T07:37:32.999Z</time></trkpt><trkpt lat="45.07781420678657" lon="8.973761310605045"><ele>69.0</ele><time>2026-04-03T07:37:33.999Z</time></trkpt><trkpt lat="45.077537243282045" lon="8.97376897879946"><ele>69.0</ele><time>2026-04-03T07:37:34.999Z</time></trkpt><trkpt lat="45.077259229909956" lon="8.973762943766932"><ele>69.0</ele><time>2026-04-03T07:37:35.999Z</time></trkpt><trkpt lat="45.07697906727618" lon="8.97374442136669"><ele>69.0</ele><time>2026-04-03T07:37:36.999Z</time></trkpt><trkpt lat="45.0767033100457" lon="8.973714891046038"><ele>69.0</ele><time>2026-04-03T07:37:37.999Z</time></trkpt><trkpt lat="45.076429494720706" lon="8.973667930599206"><ele>68.5</ele><time>2026-04-03T07:37:38.999Z</time></trkpt><trkpt lat="45.07615761379739" lon="8.973602915453398"><ele>68.0</ele><time>2026-04-03T07:37:39.999Z</time></trkpt><trkpt lat="45.075891113309446" lon="8.97352286485827"><ele>67.5</ele><time>2026-04-03T07:37:40.999Z</time></trkpt><trkpt lat="45.075621272547885" lon="8.973433042696794"><ele>67.0</ele><time>2026-04-03T07:37:41.999Z</time></trkpt><trkpt lat="45.0753559298481" lon="8.973336455834248"><ele>67.0</ele><time>2026-04-03T07:37:42.999Z</time></trkpt><trkpt lat="45.07509122027448" lon="8.973227553673128"><ele>67.0</ele><time>2026-04-03T07:37:43.999Z</time></trkpt><trkpt lat="45.07482860404846" lon="8.973101834831237"><ele>67.0</ele><time>2026-04-03T07:37:44.999Z</time></trkpt><trkpt lat="45.07457015655212" lon="8.972958815035692"><ele>67.0</ele><time>2026-04-03T07:37:45.999Z</time></trkpt><trkpt lat="45.07431459469027" lon="8.972796496022767"><ele>67.5</ele><time>2026-04-03T07:37:46.999Z</time></trkpt><trkpt lat="45.07406517297539" lon="8.972616281645626"><ele>68.0</ele><time>2026-04-03T07:37:47.999Z</time></trkpt><trkpt lat="45.073817718392554" lon="8.972426357125698"><ele>68.0</ele><time>2026-04-03T07:37:48.999Z</time></trkpt><trkpt lat="45.073571749567854" lon="8.972227048677786"><ele>68.0</ele><time>2026-04-03T07:37:49.999Z</time></trkpt><trkpt lat="45.07332860393693" lon="8.972016876323046"><ele>68.5</ele><time>2026-04-03T07:37:50.999Z</time></trkpt><trkpt lat="45.07308869859612" lon="8.971796674873547"><ele>69.0</ele><time>2026-04-03T07:37:51.999Z</time></trkpt><trkpt lat="45.072854917568016" lon="8.971565020559785"><ele>69.5</ele><time>2026-04-03T07:37:52.999Z</time></trkpt><trkpt lat="45.072624100051854" lon="8.971322080775769"><ele>70.0</ele><time>2026-04-03T07:37:53.999Z</time></trkpt><trkpt lat="45.07240363202607" lon="8.97107256612223"><ele>69.0</ele><time>2026-04-03T07:37:54.999Z</time></trkpt><trkpt lat="45.072183184993094" lon="8.97082180728166"><ele>68.0</ele><time>2026-04-03T07:37:55.999Z</time></trkpt><trkpt lat="45.07196332353086" lon="8.97057794035744"><ele>68.0</ele><time>2026-04-03T07:37:57Z</time></trkpt><trkpt lat="45.071741754295154" lon="8.970338708115149"><ele>68.0</ele><time>2026-04-03T07:37:58Z</time></trkpt><trkpt lat="45.07151941507536" lon="8.970102503147611"><ele>68.5</ele><time>2026-04-03T07:37:59Z</time></trkpt><trkpt lat="45.0713015914957" lon="8.969865842994679"><ele>69.0</ele><time>2026-04-03T07:38:00Z</time></trkpt><trkpt lat="45.07108341517226" lon="8.969621807631848"><ele>69.0</ele><time>2026-04-03T07:38:01Z</time></trkpt><trkpt lat="45.07086717068125" lon="8.969377082899847"><ele>69.0</ele><time>2026-04-03T07:38:02Z</time></trkpt><trkpt lat="45.07065607279613" lon="8.969129842121582"><ele>69.0</ele><time>2026-04-03T07:38:03Z</time></trkpt><trkpt lat="45.07044367659496" lon="8.968881532568647"><ele>69.0</ele><time>2026-04-03T07:38:04Z</time></trkpt><trkpt lat="45.07023227405812" lon="8.968640758008826"><ele>69.0</ele><time>2026-04-03T07:38:05Z</time></trkpt><trkpt lat="45.07001830280813" lon="8.968402921672038"><ele>69.0</ele><time>2026-04-03T07:38:06Z</time></trkpt><trkpt lat="45.06980256879176" lon="8.968166302137616"><ele>69.0</ele><time>2026-04-03T07:38:07Z</time></trkpt><trkpt lat="45.06959043690014" lon="8.967931320039346"><ele>69.0</ele><time>2026-04-03T07:38:08Z</time></trkpt><trkpt lat="45.0693764565848" lon="8.967697714096484"><ele>69.5</ele><time>2026-04-03T07:38:09Z</time></trkpt><trkpt lat="45.06916230954595" lon="8.96746559949159"><ele>70.0</ele><time>2026-04-03T07:38:10Z</time></trkpt><trkpt lat="45.068946195880486" lon="8.967233914766632"><ele>68.5</ele><time>2026-04-03T07:38:11Z</time></trkpt><trkpt lat="45.06873184369412" lon="8.9670005758049"><ele>67.0</ele><time>2026-04-03T07:38:12Z</time></trkpt><trkpt lat="45.06851757972738" lon="8.966765159646163"><ele>68.0</ele><time>2026-04-03T07:38:13Z</time></trkpt><trkpt lat="45.06830110486321" lon="8.966530289954099"><ele>69.0</ele><time>2026-04-03T07:38:14Z</time></trkpt><trkpt lat="45.06808525220641" lon="8.96630114486509"><ele>69.0</ele><time>2026-04-03T07:38:15Z</time></trkpt><trkpt lat="45.067865832642894" lon="8.9660762642494"><ele>69.0</ele><time>2026-04-03T07:38:16Z</time></trkpt><trkpt lat="45.067649060107144" lon="8.9658492228798"><ele>69.0</ele><time>2026-04-03T07:38:17Z</time></trkpt><trkpt lat="45.067434804786245" lon="8.96561890165431"><ele>69.0</ele><time>2026-04-03T07:38:18Z</time></trkpt><trkpt lat="45.06722253663" lon="8.965386036648813"><ele>69.0</ele><time>2026-04-03T07:38:19Z</time></trkpt><trkpt lat="45.06701259763993" lon="8.965155994365395"><ele>69.0</ele><time>2026-04-03T07:38:20Z</time></trkpt><trkpt lat="45.06680332053283" lon="8.964925034106153"><ele>69.5</ele><time>2026-04-03T07:38:21Z</time></trkpt><trkpt lat="45.066594966919965" lon="8.964691735235617"><ele>70.0</ele><time>2026-04-03T07:38:22Z</time></trkpt><trkpt lat="45.06638455885442" lon="8.964458408818793"><ele>70.0</ele><time>2026-04-03T07:38:23Z</time></trkpt><trkpt lat="45.066174962493534" lon="8.9642261313534"><ele>70.0</ele><time>2026-04-03T07:38:24Z</time></trkpt><trkpt lat="45.06596201799523" lon="8.963993375640449"><ele>69.5</ele><time>2026-04-03T07:38:25Z</time></trkpt><trkpt lat="45.06575429625669" lon="8.963755891027667"><ele>69.0</ele><time>2026-04-03T07:38:26Z</time></trkpt><trkpt lat="45.06554600880732" lon="8.963519003972472"><ele>68.5</ele><time>2026-04-03T07:38:27Z</time></trkpt><trkpt lat="45.06533690337397" lon="8.963284889330064"><ele>68.0</ele><time>2026-04-03T07:38:28Z</time></trkpt><trkpt lat="45.065127270694596" lon="8.963053799712812"><ele>68.5</ele><time>2026-04-03T07:38:29Z</time></trkpt><trkpt lat="45.064919188043696" lon="8.962822443441592"><ele>69.0</ele><time>2026-04-03T07:38:30Z</time></trkpt><trkpt lat="45.064712390154455" lon="8.962591580781076"><ele>69.0</ele><time>2026-04-03T07:38:31Z</time></trkpt><trkpt lat="45.06450847055906" lon="8.962361098326884"><ele>69.0</ele><time>2026-04-03T07:38:32Z</time></trkpt><trkpt lat="45.06430354637554" lon="8.962134077705777"><ele>68.5</ele><time>2026-04-03T07:38:33Z</time></trkpt><trkpt lat="45.06409888612525" lon="8.961912887271774"><ele>68.0</ele><time>2026-04-03T07:38:34Z</time></trkpt><trkpt lat="45.063893452413765" lon="8.961693066328891"><ele>68.0</ele><time>2026-04-03T07:38:35Z</time></trkpt><trkpt lat="45.06368794804009" lon="8.961473475757735"><ele>68.0</ele><time>2026-04-03T07:38:36Z</time></trkpt><trkpt lat="45.06348282340841" lon="8.961251272006617"><ele>68.0</ele><time>2026-04-03T07:38:37Z</time></trkpt><trkpt lat="45.06327872544191" lon="8.961029312318226"><ele>68.0</ele><time>2026-04-03T07:38:38Z</time></trkpt><trkpt lat="45.0630699360051" lon="8.960799211813901"><ele>68.0</ele><time>2026-04-03T07:38:39Z</time></trkpt><trkpt lat="45.06285596799874" lon="8.960562657940542"><ele>68.0</ele><time>2026-04-03T07:38:40Z</time></trkpt><trkpt lat="45.06263684517045" lon="8.960323502410803"><ele>68.5</ele><time>2026-04-03T07:38:41Z</time></trkpt><trkpt lat="45.06241335407699" lon="8.960084422640254"><ele>69.0</ele><time>2026-04-03T07:38:42Z</time></trkpt><trkpt lat="45.06218972464828" lon="8.959840220863104"><ele>69.5</ele><time>2026-04-03T07:38:43Z</time></trkpt><trkpt lat="45.061967998718885" lon="8.959600300993863"><ele>70.0</ele><time>2026-04-03T07:38:44Z</time></trkpt><trkpt lat="45.06174599619716" lon="8.95935706844108"><ele>70.0</ele><time>2026-04-03T07:38:45Z</time></trkpt><trkpt lat="45.061521160399" lon="8.959108856409713"><ele>70.0</ele><time>2026-04-03T07:38:46Z</time></trkpt><trkpt lat="45.06129526960433" lon="8.958860782277272"><ele>70.0</ele><time>2026-04-03T07:38:47Z</time></trkpt><trkpt lat="45.06106986307612" lon="8.958611792902666"><ele>70.0</ele><time>2026-04-03T07:38:48Z</time></trkpt><trkpt lat="45.06084077826274" lon="8.9583633687352"><ele>69.0</ele><time>2026-04-03T07:38:49Z</time></trkpt><trkpt lat="45.06061447296923" lon="8.95811385424593"><ele>68.0</ele><time>2026-04-03T07:38:50Z</time></trkpt><trkpt lat="45.06038948354959" lon="8.957864549874397"><ele>68.0</ele><time>2026-04-03T07:38:51Z</time></trkpt><trkpt lat="45.060162083729416" lon="8.957618045347596"><ele>68.0</ele><time>2026-04-03T07:38:52Z</time></trkpt><trkpt lat="45.059937602402606" lon="8.957371067794648"><ele>68.5</ele><time>2026-04-03T07:38:53Z</time></trkpt><trkpt lat="45.05971148976139" lon="8.957126419287244"><ele>69.0</ele><time>2026-04-03T07:38:54Z</time></trkpt><trkpt lat="45.05948689369242" lon="8.956878525550316"><ele>69.0</ele><time>2026-04-03T07:38:55Z</time></trkpt><trkpt lat="45.05926450577697" lon="8.956629473551114"><ele>69.0</ele><time>2026-04-03T07:38:56Z</time></trkpt><trkpt lat="45.0590396559315" lon="8.95638154721876"><ele>69.0</ele><time>2026-04-03T07:38:57Z</time></trkpt><trkpt lat="45.058815137971514" lon="8.95613690169422"><ele>69.0</ele><time>2026-04-03T07:38:58Z</time></trkpt><trkpt lat="45.05858923578707" lon="8.955893398943765"><ele>69.0</ele><time>2026-04-03T07:38:59Z</time></trkpt><trkpt lat="45.05836702761747" lon="8.95565209428448"><ele>69.0</ele><time>2026-04-03T07:39:00Z</time></trkpt><trkpt lat="45.05814266051949" lon="8.955410643722782"><ele>69.0</ele><time>2026-04-03T07:39:01Z</time></trkpt><trkpt lat="45.057919758489206" lon="8.95516711893817"><ele>69.0</ele><time>2026-04-03T07:39:02Z</time></trkpt><trkpt lat="45.05769706604781" lon="8.954923049025783"><ele>69.0</ele><time>2026-04-03T07:39:03Z</time></trkpt><trkpt lat="45.05747415524698" lon="8.954679028455553"><ele>69.0</ele><time>2026-04-03T07:39:04Z</time></trkpt><trkpt lat="45.05725304069379" lon="8.954435910615535"><ele>69.5</ele><time>2026-04-03T07:39:05Z</time></trkpt><trkpt lat="45.057030951690365" lon="8.954195859287626"><ele>70.0</ele><time>2026-04-03T07:39:06Z</time></trkpt><trkpt lat="45.05680856693223" lon="8.953959516906238"><ele>68.5</ele><time>2026-04-03T07:39:07Z</time></trkpt><trkpt lat="45.05658255257352" lon="8.953728854208634"><ele>67.0</ele><time>2026-04-03T07:39:08Z</time></trkpt><trkpt lat="45.05635408014251" lon="8.953507110172755"><ele>67.0</ele><time>2026-04-03T07:39:09Z</time></trkpt><trkpt lat="45.05612528257686" lon="8.953298568545573"><ele>67.0</ele><time>2026-04-03T07:39:10Z</time></trkpt><trkpt lat="45.05588807923216" lon="8.953112417302773"><ele>68.0</ele><time>2026-04-03T07:39:11Z</time></trkpt><trkpt lat="45.05565039793166" lon="8.952939835205537"><ele>69.0</ele><time>2026-04-03T07:39:12Z</time></trkpt><trkpt lat="45.05541411738447" lon="8.952774131964615"><ele>69.0</ele><time>2026-04-03T07:39:13Z</time></trkpt><trkpt lat="45.05518107417175" lon="8.952610425514592"><ele>69.0</ele><time>2026-04-03T07:39:14Z</time></trkpt><trkpt lat="45.05495025837783" lon="8.952445804005935"><ele>70.5</ele><time>2026-04-03T07:39:15Z</time></trkpt><trkpt lat="45.054721704370294" lon="8.952279311821185"><ele>72.0</ele><time>2026-04-03T07:39:16Z</time></trkpt><trkpt lat="45.054494530652924" lon="8.952111983710518"><ele>72.0</ele><time>2026-04-03T07:39:17Z</time></trkpt><trkpt lat="45.05426857952652" lon="8.951947245602415"><ele>72.0</ele><time>2026-04-03T07:39:18Z</time></trkpt><trkpt lat="45.054038098451244" lon="8.95178046931684"><ele>72.0</ele><time>2026-04-03T07:39:19Z</time></trkpt><trkpt lat="45.053807067301484" lon="8.951612486949216"><ele>72.0</ele><time>2026-04-03T07:39:19.999Z</time></trkpt><trkpt lat="45.0535786527401" lon="8.951450235846606"><ele>72.0</ele><time>2026-04-03T07:39:20.999Z</time></trkpt><trkpt lat="45.053345274429795" lon="8.951286074166672"><ele>72.0</ele><time>2026-04-03T07:39:21.999Z</time></trkpt><trkpt lat="45.05311281467833" lon="8.951122623568901"><ele>72.5</ele><time>2026-04-03T07:39:22.999Z</time></trkpt><trkpt lat="45.05288289887923" lon="8.950955580404699"><ele>73.0</ele><time>2026-04-03T07:39:23.999Z</time></trkpt><trkpt lat="45.05265190479243" lon="8.950792290547817"><ele>73.0</ele><time>2026-04-03T07:39:24.999Z</time></trkpt><trkpt lat="45.05241711647135" lon="8.95062580345346"><ele>73.0</ele><time>2026-04-03T07:39:25.999Z</time></trkpt><trkpt lat="45.052185284286885" lon="8.950458057774046"><ele>73.0</ele><time>2026-04-03T07:39:26.999Z</time></trkpt><trkpt lat="45.05194866096374" lon="8.950287670454962"><ele>73.0</ele><time>2026-04-03T07:39:27.999Z</time></trkpt><trkpt lat="45.05170636510213" lon="8.950114643537455"><ele>71.5</ele><time>2026-04-03T07:39:28.999Z</time></trkpt><trkpt lat="45.05146133269219" lon="8.949939263790387"><ele>70.0</ele><time>2026-04-03T07:39:29.999Z</time></trkpt><trkpt lat="45.0512156934838" lon="8.949763512500647"><ele>70.0</ele><time>2026-04-03T07:39:30.999Z</time></trkpt><trkpt lat="45.05096671581223" lon="8.949584760515659"><ele>70.0</ele><time>2026-04-03T07:39:31.999Z</time></trkpt><trkpt lat="45.050718450297566" lon="8.949408029983074"><ele>70.5</ele><time>2026-04-03T07:39:32.999Z</time></trkpt><trkpt lat="45.05046577893461" lon="8.949229728750526"><ele>71.0</ele><time>2026-04-03T07:39:33.999Z</time></trkpt><trkpt lat="45.05021024243515" lon="8.949047703595921"><ele>71.5</ele><time>2026-04-03T07:39:34.999Z</time></trkpt><trkpt lat="45.04995584436275" lon="8.94886639292775"><ele>72.0</ele><time>2026-04-03T07:39:35.999Z</time></trkpt><trkpt lat="45.049701141227295" lon="8.948682568405674"><ele>72.0</ele><time>2026-04-03T07:39:36.999Z</time></trkpt><trkpt lat="45.04944572065982" lon="8.948498136676218"><ele>72.0</ele><time>2026-04-03T07:39:37.999Z</time></trkpt><trkpt lat="45.04918916505102" lon="8.948315080557288"><ele>72.5</ele><time>2026-04-03T07:39:38.999Z</time></trkpt><trkpt lat="45.048931344246775" lon="8.948133386915442"><ele>73.0</ele><time>2026-04-03T07:39:39.999Z</time></trkpt><trkpt lat="45.04867366749741" lon="8.947953800443274"><ele>73.0</ele><time>2026-04-03T07:39:40.999Z</time></trkpt><trkpt lat="45.048412722550836" lon="8.947769619950046"><ele>73.0</ele><time>2026-04-03T07:39:41.999Z</time></trkpt><trkpt lat="45.04815511838412" lon="8.947587326646499"><ele>72.5</ele><time>2026-04-03T07:39:42.999Z</time></trkpt><trkpt lat="45.04789773001373" lon="8.947400326361395"><ele>72.0</ele><time>2026-04-03T07:39:43.999Z</time></trkpt><trkpt lat="45.047638818623895" lon="8.947209318622221"><ele>73.0</ele><time>2026-04-03T07:39:44.999Z</time></trkpt><trkpt lat="45.04737809520608" lon="8.947019107376692"><ele>74.0</ele><time>2026-04-03T07:39:45.999Z</time></trkpt><trkpt lat="45.04711556205429" lon="8.946834072670569"><ele>73.5</ele><time>2026-04-03T07:39:46.999Z</time></trkpt><trkpt lat="45.046850895270296" lon="8.946649850674993"><ele>73.0</ele><time>2026-04-03T07:39:47.999Z</time></trkpt><trkpt lat="45.046585930338225" lon="8.946465979194336"><ele>74.5</ele><time>2026-04-03T07:39:48.999Z</time></trkpt><trkpt lat="45.0463196211807" lon="8.946278942041692"><ele>76.0</ele><time>2026-04-03T07:39:49.999Z</time></trkpt><trkpt lat="45.046054916368035" lon="8.946092848905714"><ele>75.5</ele><time>2026-04-03T07:39:50.999Z</time></trkpt><trkpt lat="45.045787484433966" lon="8.945908004589162"><ele>75.0</ele><time>2026-04-03T07:39:51.999Z</time></trkpt><trkpt lat="45.0455165896393" lon="8.945726512541746"><ele>75.0</ele><time>2026-04-03T07:39:52.999Z</time></trkpt><trkpt lat="45.04524887431635" lon="8.94553323405522"><ele>75.0</ele><time>2026-04-03T07:39:53.999Z</time></trkpt><trkpt lat="45.04497995333036" lon="8.94534677967245"><ele>73.5</ele><time>2026-04-03T07:39:54.999Z</time></trkpt><trkpt lat="45.04470890136884" lon="8.945159626899736"><ele>72.0</ele><time>2026-04-03T07:39:55.999Z</time></trkpt><trkpt lat="45.04443928379693" lon="8.944969853160844"><ele>72.0</ele><time>2026-04-03T07:39:56.999Z</time></trkpt><trkpt lat="45.04416607071931" lon="8.944780836651223"><ele>72.0</ele><time>2026-04-03T07:39:57.999Z</time></trkpt><trkpt lat="45.04389523444086" lon="8.944593121821768"><ele>72.0</ele><time>2026-04-03T07:39:58.999Z</time></trkpt><trkpt lat="45.043624155981696" lon="8.944401369982932"><ele>72.0</ele><time>2026-04-03T07:39:59.999Z</time></trkpt><trkpt lat="45.04335330254801" lon="8.944211134169764"><ele>72.0</ele><time>2026-04-03T07:40:00.999Z</time></trkpt><trkpt lat="45.04308099281099" lon="8.944020316703492"><ele>72.0</ele><time>2026-04-03T07:40:01.999Z</time></trkpt><trkpt lat="45.04281212503304" lon="8.94382718992826"><ele>72.0</ele><time>2026-04-03T07:40:03Z</time></trkpt><trkpt lat="45.042541523961134" lon="8.943632210694776"><ele>72.0</ele><time>2026-04-03T07:40:04Z</time></trkpt><trkpt lat="45.0422721416537" lon="8.943439378138008"><ele>72.5</ele><time>2026-04-03T07:40:05Z</time></trkpt><trkpt lat="45.04200445819108" lon="8.943250748550808"><ele>73.0</ele><time>2026-04-03T07:40:06Z</time></trkpt><trkpt lat="45.041736049190995" lon="8.943058702637174"><ele>72.5</ele><time>2026-04-03T07:40:07Z</time></trkpt><trkpt lat="45.04146871266535" lon="8.942867262894248"><ele>72.0</ele><time>2026-04-03T07:40:08Z</time></trkpt><trkpt lat="45.041200115225074" lon="8.942674336215248"><ele>71.5</ele><time>2026-04-03T07:40:09Z</time></trkpt><trkpt lat="45.040933399808544" lon="8.94248170337835"><ele>71.0</ele><time>2026-04-03T07:40:10Z</time></trkpt><trkpt lat="45.04066945775037" lon="8.942286526322723"><ele>73.0</ele><time>2026-04-03T07:40:11Z</time></trkpt><trkpt lat="45.04040865695905" lon="8.9420833351263"><ele>75.0</ele><time>2026-04-03T07:40:12Z</time></trkpt><trkpt lat="45.04014582432243" lon="8.941882497174138"><ele>74.0</ele><time>2026-04-03T07:40:13Z</time></trkpt><trkpt lat="45.039879968586085" lon="8.941686123098606"><ele>73.0</ele><time>2026-04-03T07:40:14Z</time></trkpt><trkpt lat="45.03961167472062" lon="8.941490393208346"><ele>73.0</ele><time>2026-04-03T07:40:15Z</time></trkpt><trkpt lat="45.03934281630073" lon="8.941303437700178"><ele>73.0</ele><time>2026-04-03T07:40:16Z</time></trkpt><trkpt lat="45.039075072270855" lon="8.941116063244108"><ele>73.0</ele><time>2026-04-03T07:40:17Z</time></trkpt><trkpt lat="45.03879866176973" lon="8.940928646426245"><ele>73.0</ele><time>2026-04-03T07:40:18Z</time></trkpt><trkpt lat="45.03852642359376" lon="8.940741684019697"><ele>73.5</ele><time>2026-04-03T07:40:19Z</time></trkpt><trkpt lat="45.0382521235827" lon="8.940554146182274"><ele>74.0</ele><time>2026-04-03T07:40:20Z</time></trkpt><trkpt lat="45.03797806908527" lon="8.940370046036247"><ele>74.0</ele><time>2026-04-03T07:40:21Z</time></trkpt><trkpt lat="45.03770162161797" lon="8.940188296543578"><ele>74.0</ele><time>2026-04-03T07:40:22Z</time></trkpt><trkpt lat="45.037428106309335" lon="8.940009524866921"><ele>73.0</ele><time>2026-04-03T07:40:23Z</time></trkpt><trkpt lat="45.03715702128517" lon="8.939826006852728"><ele>72.0</ele><time>2026-04-03T07:40:24Z</time></trkpt><trkpt lat="45.03688921567775" lon="8.93964147613072"><ele>72.0</ele><time>2026-04-03T07:40:25Z</time></trkpt><trkpt lat="45.03662203280391" lon="8.93945491353755"><ele>72.0</ele><time>2026-04-03T07:40:26Z</time></trkpt><trkpt lat="45.03635369861531" lon="8.93926980166584"><ele>72.0</ele><time>2026-04-03T07:40:27Z</time></trkpt><trkpt lat="45.036087634676655" lon="8.93908277042213"><ele>72.0</ele><time>2026-04-03T07:40:28Z</time></trkpt><trkpt lat="45.035821107111225" lon="8.938897924389686"><ele>72.5</ele><time>2026-04-03T07:40:29Z</time></trkpt><trkpt lat="45.0355562862003" lon="8.938711056112945"><ele>73.0</ele><time>2026-04-03T07:40:30Z</time></trkpt><trkpt lat="45.035290206090835" lon="8.938523120820646"><ele>72.5</ele><time>2026-04-03T07:40:31Z</time></trkpt><trkpt lat="45.035025158947576" lon="8.938335298145875"><ele>72.0</ele><time>2026-04-03T07:40:32Z</time></trkpt><trkpt lat="45.03476036929167" lon="8.938150104242597"><ele>74.0</ele><time>2026-04-03T07:40:33Z</time></trkpt><trkpt lat="45.03449525002652" lon="8.937965697511116"><ele>76.0</ele><time>2026-04-03T07:40:34Z</time></trkpt><trkpt lat="45.03422877358918" lon="8.937778165841765"><ele>75.5</ele><time>2026-04-03T07:40:35Z</time></trkpt><trkpt lat="45.03396671272985" lon="8.937593951144573"><ele>75.0</ele><time>2026-04-03T07:40:36Z</time></trkpt><trkpt lat="45.03370229113697" lon="8.937410137708246"><ele>75.0</ele><time>2026-04-03T07:40:37Z</time></trkpt><trkpt lat="45.03343844140802" lon="8.937226438042558"><ele>75.0</ele><time>2026-04-03T07:40:38Z</time></trkpt><trkpt lat="45.03317393797456" lon="8.937041786198574"><ele>74.0</ele><time>2026-04-03T07:40:39Z</time></trkpt><trkpt lat="45.03290756038135" lon="8.936855564299194"><ele>73.0</ele><time>2026-04-03T07:40:40Z</time></trkpt><trkpt lat="45.032643737303474" lon="8.93667150788026"><ele>74.0</ele><time>2026-04-03T07:40:41Z</time></trkpt><trkpt lat="45.03238019477186" lon="8.936488583593512"><ele>75.0</ele><time>2026-04-03T07:40:42Z</time></trkpt><trkpt lat="45.03211527445951" lon="8.936303827804357"><ele>75.0</ele><time>2026-04-03T07:40:43Z</time></trkpt><trkpt lat="45.03184895598538" lon="8.936115502402078"><ele>75.0</ele><time>2026-04-03T07:40:44Z</time></trkpt><trkpt lat="45.031583946298255" lon="8.935927833535548"><ele>75.5</ele><time>2026-04-03T07:40:45Z</time></trkpt><trkpt lat="45.031315984962994" lon="8.935739275527272"><ele>76.0</ele><time>2026-04-03T07:40:46Z</time></trkpt><trkpt lat="45.031056703448535" lon="8.935558581147763"><ele>76.0</ele><time>2026-04-03T07:40:47Z</time></trkpt><trkpt lat="45.0308123468665" lon="8.935389312194808"><ele>76.0</ele><time>2026-04-03T07:40:48Z</time></trkpt><trkpt lat="45.03057251768448" lon="8.93521832297738"><ele>76.0</ele><time>2026-04-03T07:40:49Z</time></trkpt><trkpt lat="45.030326824286156" lon="8.935047450965886"><ele>76.0</ele><time>2026-04-03T07:40:50Z</time></trkpt><trkpt lat="45.03008132543239" lon="8.93487682845032"><ele>77.0</ele><time>2026-04-03T07:40:51Z</time></trkpt><trkpt lat="45.02983506640867" lon="8.934709247649531"><ele>78.0</ele><time>2026-04-03T07:40:52Z</time></trkpt><trkpt lat="45.029588288784524" lon="8.934535474263583"><ele>78.0</ele><time>2026-04-03T07:40:53Z</time></trkpt><trkpt lat="45.029347589475954" lon="8.93436354634196"><ele>78.0</ele><time>2026-04-03T07:40:54Z</time></trkpt><trkpt lat="45.02910581108903" lon="8.934189974201654"><ele>77.5</ele><time>2026-04-03T07:40:55Z</time></trkpt><trkpt lat="45.02886355865726" lon="8.934018466692109"><ele>77.0</ele><time>2026-04-03T07:40:56Z</time></trkpt><trkpt lat="45.02861509743729" lon="8.933847678792292"><ele>77.0</ele><time>2026-04-03T07:40:57Z</time></trkpt><trkpt lat="45.028368470940784" lon="8.933677358558688"><ele>77.0</ele><time>2026-04-03T07:40:58Z</time></trkpt><trkpt lat="45.02812020592617" lon="8.933507709996597"><ele>77.5</ele><time>2026-04-03T07:40:59Z</time></trkpt><trkpt lat="45.027875152663206" lon="8.933339042075524"><ele>78.0</ele><time>2026-04-03T07:41:00Z</time></trkpt><trkpt lat="45.02763032926795" lon="8.933167274438802"><ele>76.5</ele><time>2026-04-03T07:41:01Z</time></trkpt><trkpt lat="45.02738785816084" lon="8.932988266763012"><ele>75.0</ele><time>2026-04-03T07:41:02Z</time></trkpt><trkpt lat="45.02715241979501" lon="8.932804578059713"><ele>75.0</ele><time>2026-04-03T07:41:03Z</time></trkpt><trkpt lat="45.026909710984896" lon="8.932618622474013"><ele>75.0</ele><time>2026-04-03T07:41:04Z</time></trkpt><trkpt lat="45.02666564322704" lon="8.932433832849737"><ele>75.5</ele><time>2026-04-03T07:41:05Z</time></trkpt><trkpt lat="45.02641783734176" lon="8.932256311255609"><ele>76.0</ele><time>2026-04-03T07:41:06Z</time></trkpt><trkpt lat="45.02616807682301" lon="8.932080113460666"><ele>76.0</ele><time>2026-04-03T07:41:07Z</time></trkpt><trkpt lat="45.02591560574316" lon="8.931902960397608"><ele>76.0</ele><time>2026-04-03T07:41:08Z</time></trkpt><trkpt lat="45.02566113967652" lon="8.931724239466762"><ele>76.5</ele><time>2026-04-03T07:41:09Z</time></trkpt><trkpt lat="45.02540815973602" lon="8.93154797859491"><ele>77.0</ele><time>2026-04-03T07:41:10Z</time></trkpt><trkpt lat="45.025160295298186" lon="8.931379257983677"><ele>78.0</ele><time>2026-04-03T07:41:11Z</time></trkpt><trkpt lat="45.02492075446979" lon="8.931220127904226"><ele>79.0</ele><time>2026-04-03T07:41:12Z</time></trkpt><trkpt lat="45.024693321887526" lon="8.931070376093992"><ele>79.0</ele><time>2026-04-03T07:41:13Z</time></trkpt><trkpt lat="45.02447135524551" lon="8.930922721229763"><ele>79.0</ele><time>2026-04-03T07:41:14Z</time></trkpt><trkpt lat="45.024250617088065" lon="8.930772644252439"><ele>78.0</ele><time>2026-04-03T07:41:15Z</time></trkpt><trkpt lat="45.02403412749319" lon="8.930624287480926"><ele>77.0</ele><time>2026-04-03T07:41:16Z</time></trkpt><trkpt lat="45.0238179224275" lon="8.930474304239976"><ele>77.0</ele><time>2026-04-03T07:41:17Z</time></trkpt><trkpt lat="45.02359774384755" lon="8.930322619271026"><ele>77.0</ele><time>2026-04-03T07:41:18Z</time></trkpt><trkpt lat="45.023374815009184" lon="8.930169444795833"><ele>77.5</ele><time>2026-04-03T07:41:19Z</time></trkpt><trkpt lat="45.023147632546" lon="8.930014935861676"><ele>78.0</ele><time>2026-04-03T07:41:20Z</time></trkpt><trkpt lat="45.02291780965842" lon="8.929858186679649"><ele>78.0</ele><time>2026-04-03T07:41:21Z</time></trkpt><trkpt lat="45.02268531242559" lon="8.929699538099914"><ele>78.0</ele><time>2026-04-03T07:41:22Z</time></trkpt><trkpt lat="45.022450443310305" lon="8.92954013516496"><ele>78.0</ele><time>2026-04-03T07:41:23Z</time></trkpt><trkpt lat="45.02221196691456" lon="8.929375295760305"><ele>78.0</ele><time>2026-04-03T07:41:24Z</time></trkpt><trkpt lat="45.021969073304156" lon="8.929209660656124"><ele>78.0</ele><time>2026-04-03T07:41:24.999Z</time></trkpt><trkpt lat="45.021725692651" lon="8.929041178655636"><ele>78.0</ele><time>2026-04-03T07:41:25.999Z</time></trkpt><trkpt lat="45.021475975903506" lon="8.928867253402682"><ele>78.5</ele><time>2026-04-03T07:41:26.999Z</time></trkpt><trkpt lat="45.0212213066412" lon="8.928687259052921"><ele>79.0</ele><time>2026-04-03T07:41:27.999Z</time></trkpt><trkpt lat="45.02096241427431" lon="8.928507533668832"><ele>80.0</ele><time>2026-04-03T07:41:28.999Z</time></trkpt><trkpt lat="45.020695843323736" lon="8.928333612822765"><ele>81.0</ele><time>2026-04-03T07:41:29.999Z</time></trkpt><trkpt lat="45.02042615178001" lon="8.928160055020921"><ele>81.0</ele><time>2026-04-03T07:41:30.999Z</time></trkpt><trkpt lat="45.0201581957915" lon="8.927980816252193"><ele>81.0</ele><time>2026-04-03T07:41:31.999Z</time></trkpt><trkpt lat="45.019893448783364" lon="8.927797236697375"><ele>81.0</ele><time>2026-04-03T07:41:32.999Z</time></trkpt><trkpt lat="45.019624242768096" lon="8.927607524711542"><ele>81.0</ele><time>2026-04-03T07:41:33.999Z</time></trkpt><trkpt lat="45.01936104012611" lon="8.927423463925999"><ele>80.5</ele><time>2026-04-03T07:41:34.999Z</time></trkpt><trkpt lat="45.01909441774243" lon="8.927237214005899"><ele>80.0</ele><time>2026-04-03T07:41:35.999Z</time></trkpt><trkpt lat="45.01882841706326" lon="8.927046837127975"><ele>80.0</ele><time>2026-04-03T07:41:36.999Z</time></trkpt><trkpt lat="45.018562950380826" lon="8.92685880467677"><ele>80.0</ele><time>2026-04-03T07:41:37.999Z</time></trkpt><trkpt lat="45.018297041808" lon="8.926670283420115"><ele>79.0</ele><time>2026-04-03T07:41:38.999Z</time></trkpt><trkpt lat="45.01803143004434" lon="8.926484152700239"><ele>78.0</ele><time>2026-04-03T07:41:39.999Z</time></trkpt><trkpt lat="45.01776649350941" lon="8.926285492811155"><ele>78.0</ele><time>2026-04-03T07:41:40.999Z</time></trkpt><trkpt lat="45.01750391611155" lon="8.926083048789662"><ele>78.0</ele><time>2026-04-03T07:41:41.999Z</time></trkpt><trkpt lat="45.01724340024547" lon="8.925880591551621"><ele>79.0</ele><time>2026-04-03T07:41:42.999Z</time></trkpt><trkpt lat="45.016986785384006" lon="8.925687855897255"><ele>80.0</ele><time>2026-04-03T07:41:43.999Z</time></trkpt><trkpt lat="45.01672120765838" lon="8.925491550352692"><ele>79.0</ele><time>2026-04-03T07:41:44.999Z</time></trkpt><trkpt lat="45.01645698047632" lon="8.925297617051259"><ele>78.0</ele><time>2026-04-03T07:41:45.999Z</time></trkpt><trkpt lat="45.016195668566944" lon="8.925105652656129"><ele>77.5</ele><time>2026-04-03T07:41:46.999Z</time></trkpt><trkpt lat="45.01593246861227" lon="8.924912402901594"><ele>77.0</ele><time>2026-04-03T07:41:47.999Z</time></trkpt><trkpt lat="45.015671649238044" lon="8.924719489816061"><ele>77.0</ele><time>2026-04-03T07:41:48.999Z</time></trkpt><trkpt lat="45.015410219331805" lon="8.924525614837043"><ele>77.0</ele><time>2026-04-03T07:41:49.999Z</time></trkpt><trkpt lat="45.01514619848631" lon="8.924330710010839"><ele>77.5</ele><time>2026-04-03T07:41:50.999Z</time></trkpt><trkpt lat="45.01488203679826" lon="8.924139076801197"><ele>78.0</ele><time>2026-04-03T07:41:51.999Z</time></trkpt><trkpt lat="45.01461760830733" lon="8.923946322059795"><ele>78.0</ele><time>2026-04-03T07:41:52.999Z</time></trkpt><trkpt lat="45.01434998347508" lon="8.923753899316344"><ele>78.0</ele><time>2026-04-03T07:41:53.999Z</time></trkpt><trkpt lat="45.01408401348138" lon="8.92356212853458"><ele>76.5</ele><time>2026-04-03T07:41:54.999Z</time></trkpt><trkpt lat="45.01381359715426" lon="8.923374944572702"><ele>75.0</ele><time>2026-04-03T07:41:55.999Z</time></trkpt><trkpt lat="45.013546569863806" lon="8.923184558937166"><ele>75.5</ele><time>2026-04-03T07:41:56.999Z</time></trkpt><trkpt lat="45.01328066182927" lon="8.922995846125549"><ele>76.0</ele><time>2026-04-03T07:41:57.999Z</time></trkpt><trkpt lat="45.01301278522936" lon="8.922802779705885"><ele>76.0</ele><time>2026-04-03T07:41:58.999Z</time></trkpt><trkpt lat="45.01274879489622" lon="8.922611773964478"><ele>76.0</ele><time>2026-04-03T07:41:59.999Z</time></trkpt><trkpt lat="45.012482604433906" lon="8.922417708861394"><ele>78.5</ele><time>2026-04-03T07:42:00.999Z</time></trkpt><trkpt lat="45.0122163248415" lon="8.922223508221142"><ele>81.0</ele><time>2026-04-03T07:42:01.999Z</time></trkpt><trkpt lat="45.0119452769617" lon="8.922027217380704"><ele>81.0</ele><time>2026-04-03T07:42:02.999Z</time></trkpt><trkpt lat="45.011674305635815" lon="8.92183399484144"><ele>81.0</ele><time>2026-04-03T07:42:03.999Z</time></trkpt><trkpt lat="45.01140135923166" lon="8.921641923574255"><ele>80.0</ele><time>2026-04-03T07:42:04.999Z</time></trkpt><trkpt lat="45.01112692644041" lon="8.921448260125784"><ele>79.0</ele><time>2026-04-03T07:42:05.999Z</time></trkpt><trkpt lat="45.01085219815386" lon="8.921253470102153"><ele>78.5</ele><time>2026-04-03T07:42:06.999Z</time></trkpt><trkpt lat="45.01057685768882" lon="8.92105796490158"><ele>78.0</ele><time>2026-04-03T07:42:07.999Z</time></trkpt><trkpt lat="45.01030589007448" lon="8.920863832362203"><ele>78.0</ele><time>2026-04-03T07:42:09Z</time></trkpt><trkpt lat="45.010035780232315" lon="8.920670119002951"><ele>78.0</ele><time>2026-04-03T07:42:10Z</time></trkpt><trkpt lat="45.009763850075835" lon="8.920473410019673"><ele>78.0</ele><time>2026-04-03T07:42:11Z</time></trkpt><trkpt lat="45.00949485663434" lon="8.920276565411495"><ele>78.0</ele><time>2026-04-03T07:42:12Z</time></trkpt><trkpt lat="45.00922679995295" lon="8.920079437405098"><ele>78.5</ele><time>2026-04-03T07:42:13Z</time></trkpt><trkpt lat="45.00895588548396" lon="8.919882248574693"><ele>79.0</ele><time>2026-04-03T07:42:14Z</time></trkpt><trkpt lat="45.008681975210166" lon="8.919686297127306"><ele>79.0</ele><time>2026-04-03T07:42:15Z</time></trkpt><trkpt lat="45.0084102977012" lon="8.919492145600081"><ele>79.0</ele><time>2026-04-03T07:42:16Z</time></trkpt><trkpt lat="45.00814007388415" lon="8.919299515327252"><ele>78.5</ele><time>2026-04-03T07:42:17Z</time></trkpt><trkpt lat="45.007867085936454" lon="8.919104058731014"><ele>78.0</ele><time>2026-04-03T07:42:18Z</time></trkpt><trkpt lat="45.00759462000733" lon="8.918907658747706"><ele>77.5</ele><time>2026-04-03T07:42:19Z</time></trkpt><trkpt lat="45.00732262636243" lon="8.918709178836547"><ele>77.0</ele><time>2026-04-03T07:42:20Z</time></trkpt><trkpt lat="45.00705218454887" lon="8.918509327879914"><ele>77.5</ele><time>2026-04-03T07:42:21Z</time></trkpt><trkpt lat="45.00678044402905" lon="8.918309517169247"><ele>78.0</ele><time>2026-04-03T07:42:22Z</time></trkpt><trkpt lat="45.006509895444765" lon="8.918112859543443"><ele>78.5</ele><time>2026-04-03T07:42:23Z</time></trkpt><trkpt lat="45.00623830589848" lon="8.917919938851854"><ele>79.0</ele><time>2026-04-03T07:42:24Z</time></trkpt><trkpt lat="45.005965832984494" lon="8.917725873067285"><ele>77.5</ele><time>2026-04-03T07:42:25Z</time></trkpt><trkpt lat="45.00569634474177" lon="8.917533547662487"><ele>76.0</ele><time>2026-04-03T07:42:26Z</time></trkpt><trkpt lat="45.00542389488978" lon="8.91734519319195"><ele>76.0</ele><time>2026-04-03T07:42:27Z</time></trkpt><trkpt lat="45.00515385748403" lon="8.917159625610863"><ele>76.0</ele><time>2026-04-03T07:42:28Z</time></trkpt><trkpt lat="45.004884907699584" lon="8.916972756728748"><ele>76.0</ele><time>2026-04-03T07:42:29Z</time></trkpt><trkpt lat="45.004617077659255" lon="8.916780553454897"><ele>76.0</ele><time>2026-04-03T07:42:30Z</time></trkpt><trkpt lat="45.00435084372298" lon="8.916588685930732"><ele>77.5</ele><time>2026-04-03T07:42:31Z</time></trkpt><trkpt lat="45.00408628870458" lon="8.91639696768655"><ele>79.0</ele><time>2026-04-03T07:42:32Z</time></trkpt><trkpt lat="45.003821257379656" lon="8.916203514861389"><ele>79.0</ele><time>2026-04-03T07:42:33Z</time></trkpt><trkpt lat="45.00355734389183" lon="8.916013264415362"><ele>79.0</ele><time>2026-04-03T07:42:34Z</time></trkpt><trkpt lat="45.00329229277244" lon="8.915825983723492"><ele>78.0</ele><time>2026-04-03T07:42:35Z</time></trkpt><trkpt lat="45.00302693934601" lon="8.915640848166518"><ele>77.0</ele><time>2026-04-03T07:42:36Z</time></trkpt><trkpt lat="45.00275609444581" lon="8.915449909631251"><ele>76.5</ele><time>2026-04-03T07:42:37Z</time></trkpt><trkpt lat="45.002486050632214" lon="8.915268337134938"><ele>76.0</ele><time>2026-04-03T07:42:38Z</time></trkpt><trkpt lat="45.00221939101081" lon="8.915089926458444"><ele>76.0</ele><time>2026-04-03T07:42:39Z</time></trkpt><trkpt lat="45.001952711292994" lon="8.914907396981768"><ele>76.0</ele><time>2026-04-03T07:42:40Z</time></trkpt><trkpt lat="45.00168781867722" lon="8.914723460853972"><ele>76.0</ele><time>2026-04-03T07:42:41Z</time></trkpt><trkpt lat="45.0014260133022" lon="8.914537262172898"><ele>76.0</ele><time>2026-04-03T07:42:42Z</time></trkpt><trkpt lat="45.00116497583036" lon="8.914347418898405"><ele>76.5</ele><time>2026-04-03T07:42:43Z</time></trkpt><trkpt lat="45.000903533766916" lon="8.914158819581449"><ele>77.0</ele><time>2026-04-03T07:42:44Z</time></trkpt><trkpt lat="45.00064109685288" lon="8.913969969814213"><ele>78.0</ele><time>2026-04-03T07:42:45Z</time></trkpt><trkpt lat="45.00037984057304" lon="8.913783557296181"><ele>79.0</ele><time>2026-04-03T07:42:46Z</time></trkpt><trkpt lat="45.000119102030894" lon="8.913600282831366"><ele>79.0</ele><time>2026-04-03T07:42:47Z</time></trkpt><trkpt lat="44.999858323789965" lon="8.91341271377286"><ele>79.0</ele><time>2026-04-03T07:42:48Z</time></trkpt><trkpt lat="44.999601149110575" lon="8.913224871714815"><ele>79.5</ele><time>2026-04-03T07:42:49Z</time></trkpt><trkpt lat="44.99934763283029" lon="8.913029098290774"><ele>80.0</ele><time>2026-04-03T07:42:50Z</time></trkpt><trkpt lat="44.99909374584573" lon="8.91283037711304"><ele>80.0</ele><time>2026-04-03T07:42:51Z</time></trkpt><trkpt lat="44.99883724265595" lon="8.912633283951415"><ele>80.0</ele><time>2026-04-03T07:42:52Z</time></trkpt><trkpt lat="44.998580226323384" lon="8.912446121733769"><ele>79.5</ele><time>2026-04-03T07:42:53Z</time></trkpt><trkpt lat="44.998324131066084" lon="8.912264758345982"><ele>79.0</ele><time>2026-04-03T07:42:54Z</time></trkpt><trkpt lat="44.9980673799987" lon="8.91208304045919"><ele>79.0</ele><time>2026-04-03T07:42:55Z</time></trkpt><trkpt lat="44.99781078874515" lon="8.911900063931785"><ele>79.0</ele><time>2026-04-03T07:42:56Z</time></trkpt><trkpt lat="44.99755375480299" lon="8.91171628772675"><ele>79.0</ele><time>2026-04-03T07:42:57Z</time></trkpt><trkpt lat="44.99729633660248" lon="8.911532701062823"><ele>79.0</ele><time>2026-04-03T07:42:58Z</time></trkpt><trkpt lat="44.997041251523235" lon="8.911351062101886"><ele>79.0</ele><time>2026-04-03T07:42:59Z</time></trkpt><trkpt lat="44.996786991942386" lon="8.911169123418215"><ele>79.0</ele><time>2026-04-03T07:43:00Z</time></trkpt><trkpt lat="44.9965308648412" lon="8.910986743324012"><ele>78.5</ele><time>2026-04-03T07:43:01Z</time></trkpt><trkpt lat="44.99627833799195" lon="8.910803517579136"><ele>78.0</ele><time>2026-04-03T07:43:02Z</time></trkpt><trkpt lat="44.99602059928219" lon="8.910615312475644"><ele>78.0</ele><time>2026-04-03T07:43:03Z</time></trkpt><trkpt lat="44.995764976290545" lon="8.910432014380728"><ele>78.0</ele><time>2026-04-03T07:43:04Z</time></trkpt><trkpt lat="44.99551014237444" lon="8.910251692586078"><ele>78.0</ele><time>2026-04-03T07:43:05Z</time></trkpt><trkpt lat="44.995253332372194" lon="8.910071076482367"><ele>78.0</ele><time>2026-04-03T07:43:06Z</time></trkpt><trkpt lat="44.99499579005163" lon="8.909887582213043"><ele>78.0</ele><time>2026-04-03T07:43:07Z</time></trkpt><trkpt lat="44.99473884575097" lon="8.909702642314867"><ele>78.0</ele><time>2026-04-03T07:43:08Z</time></trkpt><trkpt lat="44.99448110655485" lon="8.909517982058988"><ele>78.0</ele><time>2026-04-03T07:43:09Z</time></trkpt><trkpt lat="44.994223145714514" lon="8.909334206576338"><ele>78.0</ele><time>2026-04-03T07:43:10Z</time></trkpt><trkpt lat="44.99396386895661" lon="8.909150193792785"><ele>78.5</ele><time>2026-04-03T07:43:11Z</time></trkpt><trkpt lat="44.99370278260215" lon="8.908962409331906"><ele>79.0</ele><time>2026-04-03T07:43:12Z</time></trkpt><trkpt lat="44.993442489485616" lon="8.908776540116028"><ele>79.0</ele><time>2026-04-03T07:43:13Z</time></trkpt><trkpt lat="44.99318297280614" lon="8.908589650066753"><ele>79.0</ele><time>2026-04-03T07:43:14Z</time></trkpt><trkpt lat="44.99292174645016" lon="8.908402598421663"><ele>79.5</ele><time>2026-04-03T07:43:15Z</time></trkpt><trkpt lat="44.992662067920385" lon="8.908217595500743"><ele>80.0</ele><time>2026-04-03T07:43:16Z</time></trkpt><trkpt lat="44.992400495255374" lon="8.908032116648466"><ele>80.0</ele><time>2026-04-03T07:43:17Z</time></trkpt><trkpt lat="44.99213953585455" lon="8.90784546788732"><ele>80.0</ele><time>2026-04-03T07:43:18Z</time></trkpt><trkpt lat="44.99188131210232" lon="8.907657810414573"><ele>81.5</ele><time>2026-04-03T07:43:19Z</time></trkpt><trkpt lat="44.99162068552063" lon="8.907470001635444"><ele>83.0</ele><time>2026-04-03T07:43:20Z</time></trkpt><trkpt lat="44.991360583856945" lon="8.907284038543608"><ele>83.0</ele><time>2026-04-03T07:43:21Z</time></trkpt><trkpt lat="44.991100508723605" lon="8.907096516600488"><ele>83.0</ele><time>2026-04-03T07:43:22Z</time></trkpt><trkpt lat="44.99084031192351" lon="8.90690892072211"><ele>82.5</ele><time>2026-04-03T07:43:23Z</time></trkpt><trkpt lat="44.99057912042872" lon="8.90672375154119"><ele>82.0</ele><time>2026-04-03T07:43:24Z</time></trkpt><trkpt lat="44.99032042490472" lon="8.906539492421453"><ele>82.0</ele><time>2026-04-03T07:43:25Z</time></trkpt><trkpt lat="44.99006228197851" lon="8.906355146013174"><ele>82.0</ele><time>2026-04-03T07:43:25.999Z</time></trkpt><trkpt lat="44.989802449150126" lon="8.906170217455681"><ele>82.0</ele><time>2026-04-03T07:43:26.999Z</time></trkpt><trkpt lat="44.98954626051027" lon="8.905986042629303"><ele>82.0</ele><time>2026-04-03T07:43:27.999Z</time></trkpt><trkpt lat="44.989287938694886" lon="8.905802443349437"><ele>82.0</ele><time>2026-04-03T07:43:28.999Z</time></trkpt><trkpt lat="44.9890302450294" lon="8.905619168236859"><ele>82.0</ele><time>2026-04-03T07:43:29.999Z</time></trkpt><trkpt lat="44.98877665038298" lon="8.905434114149031"><ele>82.0</ele><time>2026-04-03T07:43:30.999Z</time></trkpt><trkpt lat="44.98851891228683" lon="8.90524729297416"><ele>82.0</ele><time>2026-04-03T07:43:31.999Z</time></trkpt><trkpt lat="44.98826811802531" lon="8.905067899842882"><ele>81.5</ele><time>2026-04-03T07:43:32.999Z</time></trkpt><trkpt lat="44.98801591753912" lon="8.904884861908357"><ele>81.0</ele><time>2026-04-03T07:43:33.999Z</time></trkpt><trkpt lat="44.98776456729508" lon="8.904706879621841"><ele>81.0</ele><time>2026-04-03T07:43:34.999Z</time></trkpt><trkpt lat="44.987513296708116" lon="8.904528714225314"><ele>81.0</ele><time>2026-04-03T07:43:35.999Z</time></trkpt><trkpt lat="44.98726382329009" lon="8.904352270925571"><ele>80.5</ele><time>2026-04-03T07:43:36.999Z</time></trkpt><trkpt lat="44.987011430116624" lon="8.904175042160245"><ele>80.0</ele><time>2026-04-03T07:43:37.999Z</time></trkpt><trkpt lat="44.98676239371564" lon="8.903995769839803"><ele>79.5</ele><time>2026-04-03T07:43:38.999Z</time></trkpt><trkpt lat="44.986513026435226" lon="8.903814790987518"><ele>79.0</ele><time>2026-04-03T07:43:39.999Z</time></trkpt><trkpt lat="44.98626485869264" lon="8.90363223397489"><ele>79.0</ele><time>2026-04-03T07:43:40.999Z</time></trkpt><trkpt lat="44.98601688198689" lon="8.90345289459492"><ele>79.0</ele><time>2026-04-03T07:43:41.999Z</time></trkpt><trkpt lat="44.98576957825918" lon="8.903273432873089"><ele>80.0</ele><time>2026-04-03T07:43:42.999Z</time></trkpt><trkpt lat="44.98552193127051" lon="8.903095306623554"><ele>81.0</ele><time>2026-04-03T07:43:43.999Z</time></trkpt><trkpt lat="44.98527670305616" lon="8.902921480402442"><ele>81.0</ele><time>2026-04-03T07:43:44.999Z</time></trkpt><trkpt lat="44.985033042354246" lon="8.90274952856368"><ele>81.0</ele><time>2026-04-03T07:43:45.999Z</time></trkpt><trkpt lat="44.98478778156045" lon="8.902578516140169"><ele>80.5</ele><time>2026-04-03T07:43:46.999Z</time></trkpt><trkpt lat="44.98454591593468" lon="8.902408920842001"><ele>80.0</ele><time>2026-04-03T07:43:47.999Z</time></trkpt><trkpt lat="44.98430160257003" lon="8.902234701612889"><ele>81.0</ele><time>2026-04-03T07:43:48.999Z</time></trkpt><trkpt lat="44.98406146389211" lon="8.902061195620364"><ele>82.0</ele><time>2026-04-03T07:43:49.999Z</time></trkpt><trkpt lat="44.98381723481522" lon="8.90188828340719"><ele>82.5</ele><time>2026-04-03T07:43:50.999Z</time></trkpt><trkpt lat="44.98357896644316" lon="8.901720149953059"><ele>83.0</ele><time>2026-04-03T07:43:51.999Z</time></trkpt><trkpt lat="44.983338855285574" lon="8.901554118839448"><ele>83.0</ele><time>2026-04-03T07:43:52.999Z</time></trkpt><trkpt lat="44.98311289418447" lon="8.901398131772408"><ele>83.0</ele><time>2026-04-03T07:43:53.999Z</time></trkpt><trkpt lat="44.98289762334862" lon="8.901243885748588"><ele>83.0</ele><time>2026-04-03T07:43:54.999Z</time></trkpt><trkpt lat="44.982699348220606" lon="8.901096132580674"><ele>83.0</ele><time>2026-04-03T07:43:55.999Z</time></trkpt><trkpt lat="44.98249874220229" lon="8.900954810529312"><ele>83.0</ele><time>2026-04-03T07:43:56.999Z</time></trkpt><trkpt lat="44.98229094546823" lon="8.900811344752912"><ele>82.5</ele><time>2026-04-03T07:43:57.999Z</time></trkpt><trkpt lat="44.982076351288725" lon="8.900665690605594"><ele>82.0</ele><time>2026-04-03T07:43:58.999Z</time></trkpt><trkpt lat="44.98185973800355" lon="8.900520845489583"><ele>82.0</ele><time>2026-04-03T07:43:59.999Z</time></trkpt><trkpt lat="44.98163993240955" lon="8.900374723108747"><ele>82.0</ele><time>2026-04-03T07:44:00.999Z</time></trkpt><trkpt lat="44.981420167369635" lon="8.90022981487654"><ele>82.0</ele><time>2026-04-03T07:44:01.999Z</time></trkpt><trkpt lat="44.98120547254922" lon="8.90007998362687"><ele>82.0</ele><time>2026-04-03T07:44:02.999Z</time></trkpt><trkpt lat="44.980992798248614" lon="8.899928022899017"><ele>82.5</ele><time>2026-04-03T07:44:03.999Z</time></trkpt><trkpt lat="44.98078192629672" lon="8.899775405120439"><ele>83.0</ele><time>2026-04-03T07:44:04.999Z</time></trkpt><trkpt lat="44.980562797389695" lon="8.899625640494087"><ele>83.0</ele><time>2026-04-03T07:44:05.999Z</time></trkpt><trkpt lat="44.980324582438996" lon="8.899471828679749"><ele>83.0</ele><time>2026-04-03T07:44:06.999Z</time></trkpt><trkpt lat="44.98007802757353" lon="8.899295700962584"><ele>83.0</ele><time>2026-04-03T07:44:07.999Z</time></trkpt><trkpt lat="44.97982791377202" lon="8.899114277289515"><ele>83.0</ele><time>2026-04-03T07:44:08.999Z</time></trkpt><trkpt lat="44.97957855026512" lon="8.898932482314708"><ele>83.0</ele><time>2026-04-03T07:44:09.999Z</time></trkpt><trkpt lat="44.97933036267373" lon="8.898737676377507"><ele>83.0</ele><time>2026-04-03T07:44:10.999Z</time></trkpt><trkpt lat="44.97907903949433" lon="8.898544889761606"><ele>83.5</ele><time>2026-04-03T07:44:11.999Z</time></trkpt><trkpt lat="44.97882910293597" lon="8.898361215137093"><ele>84.0</ele><time>2026-04-03T07:44:12.999Z</time></trkpt><trkpt lat="44.978572267984674" lon="8.898185569277324"><ele>84.5</ele><time>2026-04-03T07:44:14Z</time></trkpt><trkpt lat="44.9783211753057" lon="8.898003195576985"><ele>85.0</ele><time>2026-04-03T07:44:15Z</time></trkpt><trkpt lat="44.97807050449672" lon="8.897816387940473"><ele>85.0</ele><time>2026-04-03T07:44:16Z</time></trkpt><trkpt lat="44.977822355589666" lon="8.89762022980837"><ele>85.0</ele><time>2026-04-03T07:44:17Z</time></trkpt><trkpt lat="44.97757401786307" lon="8.897424605663641"><ele>85.0</ele><time>2026-04-03T07:44:18Z</time></trkpt><trkpt lat="44.977320407254346" lon="8.897234791671629"><ele>85.0</ele><time>2026-04-03T07:44:19Z</time></trkpt><trkpt lat="44.97706843012404" lon="8.897055742355489"><ele>85.0</ele><time>2026-04-03T07:44:20Z</time></trkpt><trkpt lat="44.976811785769335" lon="8.896870942971217"><ele>85.0</ele><time>2026-04-03T07:44:21Z</time></trkpt><trkpt lat="44.97656160248256" lon="8.896674636473739"><ele>84.0</ele><time>2026-04-03T07:44:22Z</time></trkpt><trkpt lat="44.97631184584815" lon="8.896474165866813"><ele>83.0</ele><time>2026-04-03T07:44:23Z</time></trkpt><trkpt lat="44.97606752846407" lon="8.896262930778422"><ele>82.5</ele><time>2026-04-03T07:44:24Z</time></trkpt><trkpt lat="44.97583239880529" lon="8.896032381891057"><ele>82.0</ele><time>2026-04-03T07:44:25Z</time></trkpt><trkpt lat="44.975601001155006" lon="8.895794464748388"><ele>82.0</ele><time>2026-04-03T07:44:26Z</time></trkpt><trkpt lat="44.9753726577477" lon="8.895548742633048"><ele>82.0</ele><time>2026-04-03T07:44:27Z</time></trkpt><trkpt lat="44.975144405327065" lon="8.895306378893073"><ele>82.0</ele><time>2026-04-03T07:44:28Z</time></trkpt><trkpt lat="44.97491586306842" lon="8.895066674497565"><ele>82.0</ele><time>2026-04-03T07:44:29Z</time></trkpt><trkpt lat="44.974686889374794" lon="8.894824536443677"><ele>82.0</ele><time>2026-04-03T07:44:30Z</time></trkpt><trkpt lat="44.97446084336786" lon="8.894586112486598"><ele>82.0</ele><time>2026-04-03T07:44:31Z</time></trkpt><trkpt lat="44.974239431944326" lon="8.894351338449697"><ele>83.0</ele><time>2026-04-03T07:44:32Z</time></trkpt><trkpt lat="44.97401853640581" lon="8.894117815239538"><ele>84.0</ele><time>2026-04-03T07:44:33Z</time></trkpt><trkpt lat="44.97379902378721" lon="8.893880928719037"><ele>84.0</ele><time>2026-04-03T07:44:34Z</time></trkpt><trkpt lat="44.9735727841544" lon="8.893640899664897"><ele>84.0</ele><time>2026-04-03T07:44:35Z</time></trkpt><trkpt lat="44.97334549002412" lon="8.89339863143273"><ele>84.5</ele><time>2026-04-03T07:44:36Z</time></trkpt><trkpt lat="44.973114251217766" lon="8.893153909769815"><ele>85.0</ele><time>2026-04-03T07:44:37Z</time></trkpt><trkpt lat="44.97288342770814" lon="8.8929110918384"><ele>85.0</ele><time>2026-04-03T07:44:38Z</time></trkpt><trkpt lat="44.97264923061708" lon="8.892660435359703"><ele>85.0</ele><time>2026-04-03T07:44:39Z</time></trkpt><trkpt lat="44.972418479111596" lon="8.892411337697693"><ele>84.5</ele><time>2026-04-03T07:44:40Z</time></trkpt><trkpt lat="44.97218675784805" lon="8.892161499908994"><ele>84.0</ele><time>2026-04-03T07:44:41Z</time></trkpt><trkpt lat="44.9719554646523" lon="8.891915321906058"><ele>84.0</ele><time>2026-04-03T07:44:42Z</time></trkpt><trkpt lat="44.9717266378414" lon="8.891668833481585"><ele>84.0</ele><time>2026-04-03T07:44:43Z</time></trkpt><trkpt lat="44.97149578732325" lon="8.891420569707503"><ele>83.0</ele><time>2026-04-03T07:44:44Z</time></trkpt><trkpt lat="44.97126401319895" lon="8.891173612651786"><ele>82.0</ele><time>2026-04-03T07:44:45Z</time></trkpt><trkpt lat="44.97103299526866" lon="8.890930226329647"><ele>84.0</ele><time>2026-04-03T07:44:46Z</time></trkpt><trkpt lat="44.97079861961043" lon="8.890686049636614"><ele>86.0</ele><time>2026-04-03T07:44:47Z</time></trkpt><trkpt lat="44.970567312777156" lon="8.890441487018126"><ele>86.0</ele><time>2026-04-03T07:44:48Z</time></trkpt><trkpt lat="44.970336110019375" lon="8.890197068381985"><ele>86.0</ele><time>2026-04-03T07:44:49Z</time></trkpt><trkpt lat="44.9701014867645" lon="8.889950333468313"><ele>86.5</ele><time>2026-04-03T07:44:50Z</time></trkpt><trkpt lat="44.96986865124868" lon="8.889703954950859"><ele>87.0</ele><time>2026-04-03T07:44:51Z</time></trkpt><trkpt lat="44.96963690520406" lon="8.889456962305214"><ele>86.0</ele><time>2026-04-03T07:44:52Z</time></trkpt><trkpt lat="44.96940376125872" lon="8.889210021086132"><ele>85.0</ele><time>2026-04-03T07:44:53Z</time></trkpt><trkpt lat="44.969173887922416" lon="8.888965368236317"><ele>87.0</ele><time>2026-04-03T07:44:54Z</time></trkpt><trkpt lat="44.96894447672082" lon="8.8887173641411"><ele>89.0</ele><time>2026-04-03T07:44:55Z</time></trkpt><trkpt lat="44.968714129281565" lon="8.88847445147223"><ele>88.5</ele><time>2026-04-03T07:44:56Z</time></trkpt><trkpt lat="44.968484065147514" lon="8.8882272031435"><ele>88.0</ele><time>2026-04-03T07:44:57Z</time></trkpt><trkpt lat="44.96825357378909" lon="8.887979883721107"><ele>88.0</ele><time>2026-04-03T07:44:58Z</time></trkpt><trkpt lat="44.96802143790581" lon="8.887733751557994"><ele>88.0</ele><time>2026-04-03T07:44:59Z</time></trkpt><trkpt lat="44.96779039712287" lon="8.887484411692443"><ele>88.0</ele><time>2026-04-03T07:45:00Z</time></trkpt><trkpt lat="44.967557958065086" lon="8.887241476119558"><ele>88.0</ele><time>2026-04-03T07:45:01Z</time></trkpt><trkpt lat="44.96732586035721" lon="8.886993800922884"><ele>87.5</ele><time>2026-04-03T07:45:02Z</time></trkpt><trkpt lat="44.96709191770074" lon="8.88674669513488"><ele>87.0</ele><time>2026-04-03T07:45:03Z</time></trkpt><trkpt lat="44.96685757515455" lon="8.886498983771151"><ele>88.0</ele><time>2026-04-03T07:45:04Z</time></trkpt><trkpt lat="44.96662267906633" lon="8.886253174114815"><ele>89.0</ele><time>2026-04-03T07:45:05Z</time></trkpt><trkpt lat="44.966388100370835" lon="8.886003729317624"><ele>87.0</ele><time>2026-04-03T07:45:06Z</time></trkpt><trkpt lat="44.966154028706896" lon="8.885747127750426"><ele>85.0</ele><time>2026-04-03T07:45:07Z</time></trkpt><trkpt lat="44.9659210747522" lon="8.88549913281099"><ele>86.0</ele><time>2026-04-03T07:45:08Z</time></trkpt><trkpt lat="44.96568611669082" lon="8.885245760585363"><ele>87.0</ele><time>2026-04-03T07:45:09Z</time></trkpt><trkpt lat="44.96545233310688" lon="8.884995899873472"><ele>87.0</ele><time>2026-04-03T07:45:10Z</time></trkpt><trkpt lat="44.96521700417852" lon="8.884746898967828"><ele>87.0</ele><time>2026-04-03T07:45:11Z</time></trkpt><trkpt lat="44.964982817603705" lon="8.884494159654112"><ele>87.0</ele><time>2026-04-03T07:45:12Z</time></trkpt><trkpt lat="44.96474680378918" lon="8.88424723627032"><ele>87.0</ele><time>2026-04-03T07:45:13Z</time></trkpt><trkpt lat="44.96451091880648" lon="8.884003834120566"><ele>87.0</ele><time>2026-04-03T07:45:14Z</time></trkpt><trkpt lat="44.96427545582216" lon="8.883755201766904"><ele>87.0</ele><time>2026-04-03T07:45:15Z</time></trkpt><trkpt lat="44.96404038146883" lon="8.883507901952733"><ele>86.0</ele><time>2026-04-03T07:45:16Z</time></trkpt><trkpt lat="44.963805600328826" lon="8.88325676457749"><ele>85.0</ele><time>2026-04-03T07:45:17Z</time></trkpt><trkpt lat="44.963571535311004" lon="8.883008319809246"><ele>87.5</ele><time>2026-04-03T07:45:18Z</time></trkpt><trkpt lat="44.963335028769244" lon="8.882759847430368"><ele>90.0</ele><time>2026-04-03T07:45:19Z</time></trkpt><trkpt lat="44.96309986810259" lon="8.882515734413401"><ele>90.0</ele><time>2026-04-03T07:45:20Z</time></trkpt><trkpt lat="44.962864577858426" lon="8.882270030355123"><ele>90.0</ele><time>2026-04-03T07:45:21Z</time></trkpt><trkpt lat="44.962632135440536" lon="8.882018615211981"><ele>90.0</ele><time>2026-04-03T07:45:22Z</time></trkpt><trkpt lat="44.9623978660093" lon="8.881768870049328"><ele>90.0</ele><time>2026-04-03T07:45:23Z</time></trkpt><trkpt lat="44.96216116877734" lon="8.881514663392474"><ele>90.5</ele><time>2026-04-03T07:45:24Z</time></trkpt><trkpt lat="44.96192463425096" lon="8.881264880150814"><ele>91.0</ele><time>2026-04-03T07:45:24.999Z</time></trkpt><trkpt lat="44.961688522318184" lon="8.881013707373622"><ele>89.5</ele><time>2026-04-03T07:45:25.999Z</time></trkpt><trkpt lat="44.961453344754524" lon="8.880758220966046"><ele>88.0</ele><time>2026-04-03T07:45:26.999Z</time></trkpt><trkpt lat="44.961218535207415" lon="8.880506813980048"><ele>88.0</ele><time>2026-04-03T07:45:27.999Z</time></trkpt><trkpt lat="44.960985397595095" lon="8.88025768094862"><ele>88.0</ele><time>2026-04-03T07:45:28.999Z</time></trkpt><trkpt lat="44.96075060391188" lon="8.880011250632242"><ele>88.5</ele><time>2026-04-03T07:45:29.999Z</time></trkpt><trkpt lat="44.96051752258802" lon="8.879765609287588"><ele>89.0</ele><time>2026-04-03T07:45:30.999Z</time></trkpt><trkpt lat="44.96028393726604" lon="8.879521373217015"><ele>89.0</ele><time>2026-04-03T07:45:31.999Z</time></trkpt><trkpt lat="44.96005144843407" lon="8.879277006984198"><ele>89.0</ele><time>2026-04-03T07:45:32.999Z</time></trkpt><trkpt lat="44.959818993273664" lon="8.879032612712253"><ele>88.0</ele><time>2026-04-03T07:45:33.999Z</time></trkpt><trkpt lat="44.95958846657738" lon="8.878784932889983"><ele>87.0</ele><time>2026-04-03T07:45:34.999Z</time></trkpt><trkpt lat="44.95935903127874" lon="8.8785358113694"><ele>88.5</ele><time>2026-04-03T07:45:35.999Z</time></trkpt><trkpt lat="44.95913172438061" lon="8.878285278918035"><ele>90.0</ele><time>2026-04-03T07:45:36.999Z</time></trkpt><trkpt lat="44.95890345195732" lon="8.878036941322325"><ele>90.0</ele><time>2026-04-03T07:45:37.999Z</time></trkpt><trkpt lat="44.958669965092696" lon="8.87779275045723"><ele>90.0</ele><time>2026-04-03T07:45:38.999Z</time></trkpt><trkpt lat="44.95843907705368" lon="8.877554663689118"><ele>90.0</ele><time>2026-04-03T07:45:39.999Z</time></trkpt><trkpt lat="44.95820878498243" lon="8.87731101336992"><ele>90.0</ele><time>2026-04-03T07:45:40.999Z</time></trkpt><trkpt lat="44.957980836081866" lon="8.877066503514424"><ele>90.0</ele><time>2026-04-03T07:45:41.999Z</time></trkpt><trkpt lat="44.95775427303547" lon="8.876823750803569"><ele>90.0</ele><time>2026-04-03T07:45:42.999Z</time></trkpt><trkpt lat="44.95752795331744" lon="8.876582864555974"><ele>89.5</ele><time>2026-04-03T07:45:43.999Z</time></trkpt><trkpt lat="44.957301271812526" lon="8.876341469257168"><ele>89.0</ele><time>2026-04-03T07:45:44.999Z</time></trkpt><trkpt lat="44.95707501231104" lon="8.876104758960565"><ele>89.5</ele><time>2026-04-03T07:45:45.999Z</time></trkpt><trkpt lat="44.95684652456535" lon="8.87586940557814"><ele>90.0</ele><time>2026-04-03T07:45:46.999Z</time></trkpt><trkpt lat="44.95662019251958" lon="8.875632193210286"><ele>90.0</ele><time>2026-04-03T07:45:47.999Z</time></trkpt><trkpt lat="44.956393782204" lon="8.875393556973766"><ele>90.0</ele><time>2026-04-03T07:45:48.999Z</time></trkpt><trkpt lat="44.95617181335601" lon="8.875153494340335"><ele>90.0</ele><time>2026-04-03T07:45:49.999Z</time></trkpt><trkpt lat="44.9559514984294" lon="8.87490402432783"><ele>90.0</ele><time>2026-04-03T07:45:50.999Z</time></trkpt><trkpt lat="44.955739999001935" lon="8.874649646391635"><ele>90.0</ele><time>2026-04-03T07:45:51.999Z</time></trkpt><trkpt lat="44.9555322719887" lon="8.874383581580414"><ele>90.0</ele><time>2026-04-03T07:45:52.999Z</time></trkpt><trkpt lat="44.95532894072349" lon="8.874108654102928"><ele>90.0</ele><time>2026-04-03T07:45:53.999Z</time></trkpt><trkpt lat="44.95513660096556" lon="8.873823080463069"><ele>90.0</ele><time>2026-04-03T07:45:54.999Z</time></trkpt><trkpt lat="44.95495199354716" lon="8.87352635218489"><ele>89.5</ele><time>2026-04-03T07:45:55.999Z</time></trkpt><trkpt lat="44.95476827751132" lon="8.873217467825196"><ele>89.0</ele><time>2026-04-03T07:45:56.999Z</time></trkpt><trkpt lat="44.95459788558981" lon="8.87290581350315"><ele>89.5</ele><time>2026-04-03T07:45:57.999Z</time></trkpt><trkpt lat="44.95443326294923" lon="8.872586090413058"><ele>90.0</ele><time>2026-04-03T07:45:58.999Z</time></trkpt><trkpt lat="44.954275029801806" lon="8.872254932074078"><ele>90.0</ele><time>2026-04-03T07:45:59.999Z</time></trkpt><trkpt lat="44.954122736369214" lon="8.87192521379093"><ele>90.0</ele><time>2026-04-03T07:46:00.999Z</time></trkpt><trkpt lat="44.95397492727244" lon="8.871585854002069"><ele>90.0</ele><time>2026-04-03T07:46:01.999Z</time></trkpt><trkpt lat="44.95383292808984" lon="8.871243636266955"><ele>90.0</ele><time>2026-04-03T07:46:02.999Z</time></trkpt><trkpt lat="44.95369893754098" lon="8.870902838250025"><ele>90.0</ele><time>2026-04-03T07:46:03.999Z</time></trkpt><trkpt lat="44.95356425919354" lon="8.870551531200759"><ele>90.0</ele><time>2026-04-03T07:46:04.999Z</time></trkpt><trkpt lat="44.95343333043759" lon="8.870204396208097"><ele>90.0</ele><time>2026-04-03T07:46:05.999Z</time></trkpt><trkpt lat="44.95330179451302" lon="8.869851492366422"><ele>90.0</ele><time>2026-04-03T07:46:06.999Z</time></trkpt><trkpt lat="44.95316766326341" lon="8.869503777349603"><ele>89.0</ele><time>2026-04-03T07:46:07.999Z</time></trkpt><trkpt lat="44.953028620709155" lon="8.869152373986005"><ele>88.0</ele><time>2026-04-03T07:46:08.999Z</time></trkpt><trkpt lat="44.95289052534567" lon="8.86880189924804"><ele>88.0</ele><time>2026-04-03T07:46:09.999Z</time></trkpt><trkpt lat="44.952753284093" lon="8.868449456491952"><ele>88.0</ele><time>2026-04-03T07:46:10.999Z</time></trkpt><trkpt lat="44.95261691504878" lon="8.868095659414692"><ele>89.5</ele><time>2026-04-03T07:46:11.999Z</time></trkpt><trkpt lat="44.952479972178004" lon="8.867739732655462"><ele>91.0</ele><time>2026-04-03T07:46:12.999Z</time></trkpt><trkpt lat="44.95234046126584" lon="8.867382280756875"><ele>91.5</ele><time>2026-04-03T07:46:13.999Z</time></trkpt><trkpt lat="44.95220029039417" lon="8.867025149879229"><ele>92.0</ele><time>2026-04-03T07:46:14.999Z</time></trkpt><trkpt lat="44.95205612012037" lon="8.866671446913976"><ele>92.0</ele><time>2026-04-03T07:46:15.999Z</time></trkpt><trkpt lat="44.95190735416245" lon="8.866320693452474"><ele>92.0</ele><time>2026-04-03T07:46:16.999Z</time></trkpt><trkpt lat="44.95175252270775" lon="8.865971936997376"><ele>93.5</ele><time>2026-04-03T07:46:17.999Z</time></trkpt><trkpt lat="44.95159051968038" lon="8.86563058591204"><ele>95.0</ele><time>2026-04-03T07:46:19Z</time></trkpt><trkpt lat="44.95142189124407" lon="8.865293512674205"><ele>93.5</ele><time>2026-04-03T07:46:20Z</time></trkpt><trkpt lat="44.95124196289181" lon="8.864970077523022"><ele>92.0</ele><time>2026-04-03T07:46:21Z</time></trkpt><trkpt lat="44.95105667983228" lon="8.86465640392568"><ele>92.0</ele><time>2026-04-03T07:46:22Z</time></trkpt><trkpt lat="44.950864118951756" lon="8.864350663257648"><ele>92.0</ele><time>2026-04-03T07:46:23Z</time></trkpt><trkpt lat="44.95066344946741" lon="8.86405716108703"><ele>91.5</ele><time>2026-04-03T07:46:24Z</time></trkpt><trkpt lat="44.950455409427136" lon="8.86376892731783"><ele>91.0</ele><time>2026-04-03T07:46:25Z</time></trkpt><trkpt lat="44.950243812974065" lon="8.86349162246515"><ele>90.5</ele><time>2026-04-03T07:46:26Z</time></trkpt><trkpt lat="44.95002363367208" lon="8.86322043519437"><ele>90.0</ele><time>2026-04-03T07:46:27Z</time></trkpt><trkpt lat="44.949800623904984" lon="8.862959079273844"><ele>90.0</ele><time>2026-04-03T07:46:28Z</time></trkpt><trkpt lat="44.94957012070946" lon="8.862708564296634"><ele>90.0</ele><time>2026-04-03T07:46:29Z</time></trkpt><trkpt lat="44.94933295132644" lon="8.862467921797103"><ele>90.5</ele><time>2026-04-03T07:46:30Z</time></trkpt><trkpt lat="44.94908845316862" lon="8.86223944591163"><ele>91.0</ele><time>2026-04-03T07:46:31Z</time></trkpt><trkpt lat="44.948838888326726" lon="8.862022476802016"><ele>91.0</ele><time>2026-04-03T07:46:32Z</time></trkpt><trkpt lat="44.948583214896686" lon="8.861818527865953"><ele>91.0</ele><time>2026-04-03T07:46:33Z</time></trkpt><trkpt lat="44.94832562617414" lon="8.861624827434499"><ele>91.0</ele><time>2026-04-03T07:46:34Z</time></trkpt><trkpt lat="44.94806256134143" lon="8.861443449483922"><ele>91.0</ele><time>2026-04-03T07:46:35Z</time></trkpt><trkpt lat="44.94779631279393" lon="8.861273235900674"><ele>91.5</ele><time>2026-04-03T07:46:36Z</time></trkpt><trkpt lat="44.94752703551124" lon="8.861112491836437"><ele>92.0</ele><time>2026-04-03T07:46:37Z</time></trkpt><trkpt lat="44.94725901076634" lon="8.860952490639692"><ele>92.5</ele><time>2026-04-03T07:46:38Z</time></trkpt><trkpt lat="44.94699100029858" lon="8.860789486997295"><ele>93.0</ele><time>2026-04-03T07:46:39Z</time></trkpt><trkpt lat="44.94672509380606" lon="8.860622076796147"><ele>93.0</ele><time>2026-04-03T07:46:40Z</time></trkpt><trkpt lat="44.946458549413066" lon="8.860451613605974"><ele>93.0</ele><time>2026-04-03T07:46:41Z</time></trkpt><trkpt lat="44.946192174790326" lon="8.860283000344474"><ele>93.0</ele><time>2026-04-03T07:46:42Z</time></trkpt><trkpt lat="44.94592461647689" lon="8.860114401791996"><ele>93.0</ele><time>2026-04-03T07:46:43Z</time></trkpt><trkpt lat="44.945658368440334" lon="8.859944112943039"><ele>93.0</ele><time>2026-04-03T07:46:44Z</time></trkpt><trkpt lat="44.94540646599176" lon="8.859785811977808"><ele>93.0</ele><time>2026-04-03T07:46:45Z</time></trkpt><trkpt lat="44.94515866649429" lon="8.859631412688437"><ele>93.0</ele><time>2026-04-03T07:46:46Z</time></trkpt><trkpt lat="44.94491341429502" lon="8.859479190349989"><ele>93.0</ele><time>2026-04-03T07:46:47Z</time></trkpt><trkpt lat="44.94467132371085" lon="8.859330438535265"><ele>93.5</ele><time>2026-04-03T07:46:48Z</time></trkpt><trkpt lat="44.94442996138534" lon="8.859180234926667"><ele>94.0</ele><time>2026-04-03T07:46:49Z</time></trkpt><trkpt lat="44.94418808346423" lon="8.859027355759437"><ele>95.0</ele><time>2026-04-03T07:46:50Z</time></trkpt><trkpt lat="44.94394858057882" lon="8.858876525506366"><ele>96.0</ele><time>2026-04-03T07:46:51Z</time></trkpt><trkpt lat="44.94370900238982" lon="8.858728358544882"><ele>96.0</ele><time>2026-04-03T07:46:52Z</time></trkpt><trkpt lat="44.943472545788595" lon="8.858580843155956"><ele>96.0</ele><time>2026-04-03T07:46:53Z</time></trkpt><trkpt lat="44.94323350730732" lon="8.858435477844045"><ele>97.0</ele><time>2026-04-03T07:46:54Z</time></trkpt><trkpt lat="44.94300415077003" lon="8.858290352148265"><ele>98.0</ele><time>2026-04-03T07:46:55Z</time></trkpt><trkpt lat="44.94278920416829" lon="8.858149538387604"><ele>98.0</ele><time>2026-04-03T07:46:56Z</time></trkpt><trkpt lat="44.942578314494384" lon="8.858017252535932"><ele>98.0</ele><time>2026-04-03T07:46:57Z</time></trkpt><trkpt lat="44.94235372469308" lon="8.857889424712079"><ele>96.5</ele><time>2026-04-03T07:46:58Z</time></trkpt><trkpt lat="44.9421268265948" lon="8.857759395076329"><ele>95.0</ele><time>2026-04-03T07:46:59Z</time></trkpt><trkpt lat="44.9418964316621" lon="8.857618008105732"><ele>94.5</ele><time>2026-04-03T07:47:00Z</time></trkpt><trkpt lat="44.94166939694229" lon="8.857474197207747"><ele>94.0</ele><time>2026-04-03T07:47:01Z</time></trkpt><trkpt lat="44.94144158409525" lon="8.857329583029056"><ele>94.0</ele><time>2026-04-03T07:47:02Z</time></trkpt><trkpt lat="44.941211472033956" lon="8.857182788059898"><ele>94.0</ele><time>2026-04-03T07:47:03Z</time></trkpt><trkpt lat="44.94098439460833" lon="8.857029976933317"><ele>94.0</ele><time>2026-04-03T07:47:04Z</time></trkpt><trkpt lat="44.94075525213156" lon="8.856871038215408"><ele>94.0</ele><time>2026-04-03T07:47:05Z</time></trkpt><trkpt lat="44.940527500669205" lon="8.856713617661168"><ele>94.5</ele><time>2026-04-03T07:47:06Z</time></trkpt><trkpt lat="44.94029312397638" lon="8.856558968536941"><ele>95.0</ele><time>2026-04-03T07:47:07Z</time></trkpt><trkpt lat="44.940058690589375" lon="8.856406795227079"><ele>95.0</ele><time>2026-04-03T07:47:08Z</time></trkpt><trkpt lat="44.93982633551161" lon="8.856257400739423"><ele>95.0</ele><time>2026-04-03T07:47:09Z</time></trkpt><trkpt lat="44.939591423450814" lon="8.856106948589735"><ele>95.0</ele><time>2026-04-03T07:47:10Z</time></trkpt><trkpt lat="44.939355593418334" lon="8.855956617397673"><ele>95.0</ele><time>2026-04-03T07:47:11Z</time></trkpt><trkpt lat="44.939118934134314" lon="8.855807295822713"><ele>95.5</ele><time>2026-04-03T07:47:12Z</time></trkpt><trkpt lat="44.93888377144214" lon="8.855660550747123"><ele>96.0</ele><time>2026-04-03T07:47:13Z</time></trkpt><trkpt lat="44.93864796611609" lon="8.855512536744396"><ele>96.0</ele><time>2026-04-03T07:47:14Z</time></trkpt><trkpt lat="44.93841309893237" lon="8.855367876873325"><ele>96.0</ele><time>2026-04-03T07:47:15Z</time></trkpt><trkpt lat="44.93817881251343" lon="8.855222145145209"><ele>96.0</ele><time>2026-04-03T07:47:16Z</time></trkpt><trkpt lat="44.93794708699967" lon="8.855073647700028"><ele>96.0</ele><time>2026-04-03T07:47:17Z</time></trkpt><trkpt lat="44.93771535775354" lon="8.85492667822338"><ele>96.5</ele><time>2026-04-03T07:47:18Z</time></trkpt><trkpt lat="44.93748453670315" lon="8.854777361479426"><ele>97.0</ele><time>2026-04-03T07:47:19Z</time></trkpt><trkpt lat="44.93725565095144" lon="8.854628990085523"><ele>97.0</ele><time>2026-04-03T07:47:20Z</time></trkpt><trkpt lat="44.93702758345577" lon="8.854477813674853"><ele>97.0</ele><time>2026-04-03T07:47:21Z</time></trkpt><trkpt lat="44.93679913891598" lon="8.854325802030724"><ele>97.5</ele><time>2026-04-03T07:47:22Z</time></trkpt><trkpt lat="44.93657219683987" lon="8.854176824399362"><ele>98.0</ele><time>2026-04-03T07:47:23Z</time></trkpt><trkpt lat="44.93634615339859" lon="8.8540303785766"><ele>98.0</ele><time>2026-04-03T07:47:24Z</time></trkpt><trkpt lat="44.93612307419961" lon="8.853888155976659"><ele>98.0</ele><time>2026-04-03T07:47:25Z</time></trkpt><trkpt lat="44.9359114343098" lon="8.853753748846506"><ele>97.33333333333333</ele><time>2026-04-03T07:47:26Z</time></trkpt><trkpt lat="44.93571346726204" lon="8.85362967376581"><ele>96.66666666666666</ele><time>2026-04-03T07:47:27Z</time></trkpt><trkpt lat="44.93552813710256" lon="8.853512143268022"><ele>96.0</ele><time>2026-04-03T07:47:27.999Z</time></trkpt><trkpt lat="44.935355624583494" lon="8.853396903188276"><ele>96.0</ele><time>2026-04-03T07:47:28.999Z</time></trkpt><trkpt lat="44.935200003681196" lon="8.853276139930607"><ele>96.0</ele><time>2026-04-03T07:47:29.999Z</time></trkpt><trkpt lat="44.9350758938847" lon="8.853152094447974"><ele>96.0</ele><time>2026-04-03T07:47:30.999Z</time></trkpt><trkpt lat="44.93500354233808" lon="8.853055041336647"><ele>96.0</ele><time>2026-04-03T07:47:31.999Z</time></trkpt><trkpt lat="44.93492069091497" lon="8.852967609120704"><ele>96.66666666666667</ele><time>2026-04-03T07:47:32.999Z</time></trkpt><trkpt lat="44.93484332800859" lon="8.852897205539746"><ele>97.33333333333334</ele><time>2026-04-03T07:47:33.999Z</time></trkpt><trkpt lat="44.93477408435788" lon="8.852837634184276"><ele>98.0</ele><time>2026-04-03T07:47:34.999Z</time></trkpt><trkpt lat="44.93471586045607" lon="8.852793691368182"><ele>98.66666666666667</ele><time>2026-04-03T07:47:35.999Z</time></trkpt><trkpt lat="44.934616845132155" lon="8.852718379901315"><ele>99.33333333333334</ele><time>2026-04-03T07:47:37.999Z</time></trkpt><trkpt lat="44.9345548623146" lon="8.852636019699814"><ele>100.0</ele><time>2026-04-03T07:47:39.999Z</time></trkpt><trkpt lat="44.93447441094203" lon="8.852606410153669"><ele>100.00000000000001</ele><time>2026-04-03T07:47:42.999Z</time></trkpt><trkpt lat="44.93446010597499" lon="8.852420742295578"><ele>100.0</ele><time>2026-04-03T07:47:44.999Z</time></trkpt><trkpt lat="44.93439718035745" lon="8.85236179428664"><ele>100.0</ele><time>2026-04-03T07:47:47.999Z</time></trkpt><trkpt lat="44.934426156514704" lon="8.85244517510219"><ele>100.0</ele><time>2026-04-03T07:47:51.999Z</time></trkpt><trkpt lat="44.934373397404656" lon="8.852392219181885"><ele>100.00000000000001</ele><time>2026-04-03T07:51:39.999Z</time></trkpt><trkpt lat="44.93430852363088" lon="8.852340865455632"><ele>100.0</ele><time>2026-04-03T07:51:52.999Z</time></trkpt><trkpt lat="44.9342621505012" lon="8.852268882073522"><ele>100.16666666666667</ele><time>2026-04-03T07:52:00.999Z</time></trkpt><trkpt lat="44.93419587172553" lon="8.852236212161296"><ele>100.33333333333334</ele><time>2026-04-03T07:52:09.999Z</time></trkpt><trkpt lat="44.934131133707446" lon="8.852225030612527"><ele>100.5</ele><time>2026-04-03T07:52:19.999Z</time></trkpt><trkpt lat="44.93410488238029" lon="8.852139643378393"><ele>100.66666666666666</ele><time>2026-04-03T07:55:41.999Z</time></trkpt><trkpt lat="44.9340428185836" lon="8.852166345083159"><ele>100.83333333333333</ele><time>2026-04-03T07:57:24Z</time></trkpt><trkpt lat="44.933933813215354" lon="8.85211923359614"><ele>101.0</ele><time>2026-04-03T07:57:31Z</time></trkpt><trkpt lat="44.93403146821333" lon="8.852137880318953"><ele>100.99999999999999</ele><time>2026-04-03T07:57:40.999Z</time></trkpt><trkpt lat="44.93396965259398" lon="8.852076856449175"><ele>101.0</ele><time>2026-04-03T07:58:02.999Z</time></trkpt><trkpt lat="44.93390851709674" lon="8.852043061970136"><ele>101.0</ele><time>2026-04-03T07:58:09.999Z</time></trkpt><trkpt lat="44.93393333868968" lon="8.852146142445633"><ele>101.0</ele><time>2026-04-03T07:58:16.999Z</time></trkpt><trkpt lat="44.93402828879272" lon="8.852209033015237"><ele>100.99999999999999</ele><time>2026-04-03T07:58:19.999Z</time></trkpt><trkpt lat="44.93399330338881" lon="8.852129092379641"><ele>101.0</ele><time>2026-04-03T07:58:33.999Z</time></trkpt><trkpt lat="44.934061946344116" lon="8.852119174077025"><ele>100.99999999999999</ele><time>2026-04-03T07:58:35.999Z</time></trkpt><trkpt lat="44.93407309765465" lon="8.852018380532776"><ele>101.0</ele><time>2026-04-03T07:58:40.999Z</time></trkpt><trkpt lat="44.93416543438111" lon="8.852028881526401"><ele>101.0</ele><time>2026-04-03T07:58:45.999Z</time></trkpt><trkpt lat="44.93408750693375" lon="8.852042654044356"><ele>101.0</ele><time>2026-04-03T07:59:04Z</time></trkpt><trkpt lat="44.93399720592837" lon="8.852053906072465"><ele>100.99999999999999</ele><time>2026-04-03T07:59:05Z</time></trkpt><trkpt lat="44.93393340079592" lon="8.852058142431654"><ele>101.0</ele><time>2026-04-03T07:59:07Z</time></trkpt><trkpt lat="44.9338798996768" lon="8.85189799713903"><ele>101.0</ele><time>2026-04-03T07:59:42.999Z</time></trkpt><trkpt lat="44.93384241932449" lon="8.852007059933472"><ele>101.0</ele><time>2026-04-03T07:59:44.999Z</time></trkpt><trkpt lat="44.93377210717723" lon="8.851936764935616"><ele>101.0</ele><time>2026-04-03T07:59:51.999Z</time></trkpt><trkpt lat="44.93394802493371" lon="8.85205639431199"><ele>101.0</ele><time>2026-04-03T07:59:54.999Z</time></trkpt><trkpt lat="44.93398647542685" lon="8.852152428654458"><ele>101.0</ele><time>2026-04-03T07:59:57.999Z</time></trkpt><trkpt lat="44.93358518138743" lon="8.852037293196519"><ele>101.0</ele><time>2026-04-03T08:00:09.04Z</time></trkpt><trkpt lat="44.93382316405285" lon="8.852049474804526"><ele>101.0</ele><time>2026-04-03T08:00:33.039Z</time></trkpt><trkpt lat="44.93389109894217" lon="8.852058386468352"><ele>101.0</ele><time>2026-04-03T08:00:35.037Z</time></trkpt><trkpt lat="44.933838918937376" lon="8.852001911966173"><ele>101.0</ele><time>2026-04-03T08:00:38.039Z</time></trkpt><trkpt lat="44.93405743570085" lon="8.852019425983721"><ele>101.0</ele><time>2026-04-03T08:01:02Z</time></trkpt><trkpt lat="44.933962758058044" lon="8.852066014634712"><ele>101.0</ele><time>2026-04-03T08:01:38.999Z</time></trkpt><trkpt lat="44.934057008206246" lon="8.85210673608225"><ele>101.0</ele><time>2026-04-03T08:02:31.485Z</time></trkpt><trkpt lat="44.93405691807582" lon="8.852002979179826"><ele>101.0</ele><time>2026-04-03T08:03:02.998Z</time></trkpt><trkpt lat="44.93400571323262" lon="8.85205841245128"><ele>101.0</ele><time>2026-04-03T08:03:07Z</time></trkpt><trkpt lat="44.93414592349852" lon="8.852176970609792"><ele>100.99999999999999</ele><time>2026-04-03T08:05:22.998Z</time></trkpt><trkpt lat="44.934181248192466" lon="8.852254020597995"><ele>101.0</ele><time>2026-04-03T08:05:25.998Z</time></trkpt><trkpt lat="44.93423057988158" lon="8.852329495183593"><ele>101.0</ele><time>2026-04-03T08:05:35Z</time></trkpt><trkpt lat="44.93429588400066" lon="8.85239160487951"><ele>101.0</ele><time>2026-04-03T08:05:42Z</time></trkpt><trkpt lat="44.93435116121007" lon="8.852443460071354"><ele>100.99999999999999</ele><time>2026-04-03T08:05:48.999Z</time></trkpt><trkpt lat="44.934415899771174" lon="8.85243521228719"><ele>101.0</ele><time>2026-04-03T08:10:20Z</time></trkpt><trkpt lat="44.93432207786419" lon="8.852358865196528"><ele>100.99999999999999</ele><time>2026-04-03T08:10:22Z</time></trkpt><trkpt lat="44.934266035471204" lon="8.85231731590896"><ele>101.0</ele><time>2026-04-03T08:10:24Z</time></trkpt><trkpt lat="44.93416065340826" lon="8.852243355690522"><ele>101.0</ele><time>2026-04-03T08:10:26Z</time></trkpt><trkpt lat="44.934073182026125" lon="8.852228399408114"><ele>101.0</ele><time>2026-04-03T08:10:28Z</time></trkpt><trkpt lat="44.934006366804894" lon="8.85225318166405"><ele>100.99999999999999</ele><time>2026-04-03T08:10:30Z</time></trkpt><trkpt lat="44.93391170286088" lon="8.852240784893933"><ele>101.0</ele><time>2026-04-03T08:10:32Z</time></trkpt><trkpt lat="44.933794495327334" lon="8.85217210195256"><ele>101.0</ele><time>2026-04-03T08:10:34Z</time></trkpt><trkpt lat="44.9337095675697" lon="8.852148584466834"><ele>101.0</ele><time>2026-04-03T08:10:35Z</time></trkpt><trkpt lat="44.93360544400693" lon="8.85212433128041"><ele>101.0</ele><time>2026-04-03T08:10:36Z</time></trkpt><trkpt lat="44.93348040233546" lon="8.852105816797975"><ele>101.0</ele><time>2026-04-03T08:10:37Z</time></trkpt><trkpt lat="44.93335014879368" lon="8.852079590279457"><ele>101.0</ele><time>2026-04-03T08:10:38Z</time></trkpt><trkpt lat="44.933210676451516" lon="8.852039331928367"><ele>101.0</ele><time>2026-04-03T08:10:39Z</time></trkpt><trkpt lat="44.93307159288292" lon="8.85196966402335"><ele>101.0</ele><time>2026-04-03T08:10:40Z</time></trkpt><trkpt lat="44.93293390611809" lon="8.851878015494242"><ele>101.0</ele><time>2026-04-03T08:10:41Z</time></trkpt><trkpt lat="44.93279565641125" lon="8.851782778877675"><ele>101.0</ele><time>2026-04-03T08:10:42Z</time></trkpt><trkpt lat="44.93264931910198" lon="8.851695988833132"><ele>101.0</ele><time>2026-04-03T08:10:43Z</time></trkpt><trkpt lat="44.9324969421613" lon="8.851609430664551"><ele>101.0</ele><time>2026-04-03T08:10:44Z</time></trkpt><trkpt lat="44.9323518184338" lon="8.8515225569644"><ele>101.0</ele><time>2026-04-03T08:10:45Z</time></trkpt><trkpt lat="44.93220097237956" lon="8.851432808206829"><ele>101.0</ele><time>2026-04-03T08:10:46Z</time></trkpt><trkpt lat="44.93204158489021" lon="8.851338012940307"><ele>101.0</ele><time>2026-04-03T08:10:47Z</time></trkpt><trkpt lat="44.93187953357961" lon="8.851239630440901"><ele>101.0</ele><time>2026-04-03T08:10:48Z</time></trkpt><trkpt lat="44.93171276675321" lon="8.851136650477434"><ele>101.0</ele><time>2026-04-03T08:10:49Z</time></trkpt><trkpt lat="44.93154500462328" lon="8.851032098838195"><ele>101.0</ele><time>2026-04-03T08:10:50Z</time></trkpt><trkpt lat="44.93137801828922" lon="8.850929912386597"><ele>100.33333333333333</ele><time>2026-04-03T08:10:51Z</time></trkpt><trkpt lat="44.93119951792169" lon="8.850818475771076"><ele>99.66666666666666</ele><time>2026-04-03T08:10:52Z</time></trkpt><trkpt lat="44.931013441940074" lon="8.850699208813603"><ele>99.0</ele><time>2026-04-03T08:10:53Z</time></trkpt><trkpt lat="44.93081975387708" lon="8.850584963723561"><ele>99.0</ele><time>2026-04-03T08:10:54Z</time></trkpt><trkpt lat="44.93062500044291" lon="8.850466403447449"><ele>99.0</ele><time>2026-04-03T08:10:55Z</time></trkpt><trkpt lat="44.930420859358975" lon="8.850342993937517"><ele>99.0</ele><time>2026-04-03T08:10:56Z</time></trkpt><trkpt lat="44.93022166174017" lon="8.850219206418556"><ele>99.66666666666666</ele><time>2026-04-03T08:10:57Z</time></trkpt><trkpt lat="44.93002191799455" lon="8.850087838850946"><ele>100.33333333333333</ele><time>2026-04-03T08:10:58Z</time></trkpt><trkpt lat="44.92981484666331" lon="8.849951848927198"><ele>101.0</ele><time>2026-04-03T08:10:59Z</time></trkpt><trkpt lat="44.92960212863334" lon="8.849817463396878"><ele>101.0</ele><time>2026-04-03T08:11:00Z</time></trkpt><trkpt lat="44.929388233447426" lon="8.849682967154402"><ele>101.0</ele><time>2026-04-03T08:11:01Z</time></trkpt><trkpt lat="44.92916940528355" lon="8.849541815711033"><ele>101.0</ele><time>2026-04-03T08:11:02Z</time></trkpt><trkpt lat="44.92894658347604" lon="8.849406252104338"><ele>101.0</ele><time>2026-04-03T08:11:03Z</time></trkpt><trkpt lat="44.92872425199161" lon="8.849271453600528"><ele>100.0</ele><time>2026-04-03T08:11:04Z</time></trkpt><trkpt lat="44.928495636066884" lon="8.849130808580462"><ele>99.0</ele><time>2026-04-03T08:11:05Z</time></trkpt><trkpt lat="44.92826843764721" lon="8.848984676345136"><ele>99.0</ele><time>2026-04-03T08:11:06Z</time></trkpt><trkpt lat="44.92803623241915" lon="8.848846513781977"><ele>99.0</ele><time>2026-04-03T08:11:06.999Z</time></trkpt><trkpt lat="44.927808315137746" lon="8.848706277128855"><ele>99.0</ele><time>2026-04-03T08:11:07.999Z</time></trkpt><trkpt lat="44.92758219931448" lon="8.848560831307688"><ele>99.0</ele><time>2026-04-03T08:11:08.999Z</time></trkpt><trkpt lat="44.92735648855547" lon="8.84840960393304"><ele>99.5</ele><time>2026-04-03T08:11:09.999Z</time></trkpt><trkpt lat="44.927129208955385" lon="8.848264826852569"><ele>100.0</ele><time>2026-04-03T08:11:10.999Z</time></trkpt><trkpt lat="44.92689744425303" lon="8.848123221691983"><ele>100.0</ele><time>2026-04-03T08:11:11.999Z</time></trkpt><trkpt lat="44.926668819954806" lon="8.847984563947"><ele>100.0</ele><time>2026-04-03T08:11:12.999Z</time></trkpt><trkpt lat="44.92643802221212" lon="8.84783868011482"><ele>100.0</ele><time>2026-04-03T08:11:13.999Z</time></trkpt><trkpt lat="44.926207533296" lon="8.847691806220672"><ele>100.0</ele><time>2026-04-03T08:11:14.999Z</time></trkpt><trkpt lat="44.92597506987591" lon="8.847540340118154"><ele>100.0</ele><time>2026-04-03T08:11:15.999Z</time></trkpt><trkpt lat="44.925741586556576" lon="8.847390199580094"><ele>100.0</ele><time>2026-04-03T08:11:16.999Z</time></trkpt><trkpt lat="44.925506910033285" lon="8.847241437031737"><ele>100.0</ele><time>2026-04-03T08:11:17.999Z</time></trkpt><trkpt lat="44.925270624999285" lon="8.847090954682887"><ele>100.0</ele><time>2026-04-03T08:11:18.999Z</time></trkpt><trkpt lat="44.92503345620931" lon="8.846940543136267"><ele>101.5</ele><time>2026-04-03T08:11:19.999Z</time></trkpt><trkpt lat="44.92479404724116" lon="8.846788962828578"><ele>103.0</ele><time>2026-04-03T08:11:20.999Z</time></trkpt><trkpt lat="44.92455054910529" lon="8.846637711327343"><ele>103.0</ele><time>2026-04-03T08:11:21.999Z</time></trkpt><trkpt lat="44.92431000526538" lon="8.846489586951625"><ele>103.0</ele><time>2026-04-03T08:11:22.999Z</time></trkpt><trkpt lat="44.924065232146525" lon="8.84634579485501"><ele>103.0</ele><time>2026-04-03T08:11:23.999Z</time></trkpt><trkpt lat="44.92381605229149" lon="8.846206616531624"><ele>103.0</ele><time>2026-04-03T08:11:24.999Z</time></trkpt><trkpt lat="44.92356473804793" lon="8.846071785769015"><ele>103.0</ele><time>2026-04-03T08:11:25.999Z</time></trkpt><trkpt lat="44.92331082792993" lon="8.84594150012426"><ele>103.0</ele><time>2026-04-03T08:11:26.999Z</time></trkpt><trkpt lat="44.923051964798965" lon="8.845811838283236"><ele>103.0</ele><time>2026-04-03T08:11:27.999Z</time></trkpt><trkpt lat="44.92279361388759" lon="8.845687255595648"><ele>103.0</ele><time>2026-04-03T08:11:28.999Z</time></trkpt><trkpt lat="44.92253588430021" lon="8.845569994748445"><ele>104.0</ele><time>2026-04-03T08:11:29.999Z</time></trkpt><trkpt lat="44.92227439911658" lon="8.845459307678196"><ele>105.0</ele><time>2026-04-03T08:11:30.999Z</time></trkpt><trkpt lat="44.92201409831321" lon="8.845352807012834"><ele>105.0</ele><time>2026-04-03T08:11:31.999Z</time></trkpt><trkpt lat="44.921753057398185" lon="8.84525088045891"><ele>105.0</ele><time>2026-04-03T08:11:32.999Z</time></trkpt><trkpt lat="44.921491587750495" lon="8.845152669546536"><ele>105.5</ele><time>2026-04-03T08:11:33.999Z</time></trkpt><trkpt lat="44.92122725020923" lon="8.845062220458034"><ele>106.0</ele><time>2026-04-03T08:11:34.999Z</time></trkpt><trkpt lat="44.92096560702757" lon="8.844979142338701"><ele>106.5</ele><time>2026-04-03T08:11:35.999Z</time></trkpt><trkpt lat="44.920699636935296" lon="8.844904105988913"><ele>107.0</ele><time>2026-04-03T08:11:36.999Z</time></trkpt><trkpt lat="44.920432524540146" lon="8.844836277758244"><ele>107.0</ele><time>2026-04-03T08:11:37.999Z</time></trkpt><trkpt lat="44.92016306514822" lon="8.844766757111858"><ele>107.0</ele><time>2026-04-03T08:11:38.999Z</time></trkpt><trkpt lat="44.919893755841684" lon="8.84471824788033"><ele>106.0</ele><time>2026-04-03T08:11:39.999Z</time></trkpt><trkpt lat="44.9196290884781" lon="8.844663592234133"><ele>105.0</ele><time>2026-04-03T08:11:40.999Z</time></trkpt><trkpt lat="44.91936195074728" lon="8.844615908871782"><ele>105.5</ele><time>2026-04-03T08:11:41.999Z</time></trkpt><trkpt lat="44.91909377870898" lon="8.84457335612052"><ele>106.0</ele><time>2026-04-03T08:11:42.999Z</time></trkpt><trkpt lat="44.918822936920144" lon="8.84453589506591"><ele>106.0</ele><time>2026-04-03T08:11:44Z</time></trkpt><trkpt lat="44.91855195059227" lon="8.84450170735689"><ele>106.0</ele><time>2026-04-03T08:11:45Z</time></trkpt><trkpt lat="44.91828149799794" lon="8.844470365072699"><ele>105.5</ele><time>2026-04-03T08:11:46Z</time></trkpt><trkpt lat="44.91800940813906" lon="8.844443817536373"><ele>105.0</ele><time>2026-04-03T08:11:47Z</time></trkpt><trkpt lat="44.91773575894399" lon="8.844419318086223"><ele>105.5</ele><time>2026-04-03T08:11:48Z</time></trkpt><trkpt lat="44.917463846695966" lon="8.844393773793394"><ele>106.0</ele><time>2026-04-03T08:11:49Z</time></trkpt><trkpt lat="44.917192383114795" lon="8.84436749871538"><ele>106.0</ele><time>2026-04-03T08:11:50Z</time></trkpt><trkpt lat="44.91691972737337" lon="8.84434222951116"><ele>106.0</ele><time>2026-04-03T08:11:51Z</time></trkpt><trkpt lat="44.91664571114027" lon="8.844315680177708"><ele>108.5</ele><time>2026-04-03T08:11:52Z</time></trkpt><trkpt lat="44.91637107947192" lon="8.844290011867207"><ele>111.0</ele><time>2026-04-03T08:11:53Z</time></trkpt><trkpt lat="44.91609453315436" lon="8.844247916343871"><ele>110.0</ele><time>2026-04-03T08:11:54Z</time></trkpt><trkpt lat="44.915820697192196" lon="8.844228519056088"><ele>109.0</ele><time>2026-04-03T08:11:55Z</time></trkpt><trkpt lat="44.91554171836263" lon="8.844211751892914"><ele>109.0</ele><time>2026-04-03T08:11:56Z</time></trkpt><trkpt lat="44.91526506849737" lon="8.844189801602665"><ele>109.0</ele><time>2026-04-03T08:11:57Z</time></trkpt><trkpt lat="44.91499021974107" lon="8.844165446023789"><ele>108.0</ele><time>2026-04-03T08:11:58Z</time></trkpt><trkpt lat="44.91471483923307" lon="8.844142869251705"><ele>107.0</ele><time>2026-04-03T08:11:59Z</time></trkpt><trkpt lat="44.91443923977324" lon="8.844119475865083"><ele>106.0</ele><time>2026-04-03T08:12:00Z</time></trkpt><trkpt lat="44.91416428929047" lon="8.844090041244689"><ele>105.0</ele><time>2026-04-03T08:12:01Z</time></trkpt><trkpt lat="44.91388830063063" lon="8.844063053477809"><ele>105.0</ele><time>2026-04-03T08:12:02Z</time></trkpt><trkpt lat="44.913612675402334" lon="8.844040250671211"><ele>105.0</ele><time>2026-04-03T08:12:03Z</time></trkpt><trkpt lat="44.91333432519881" lon="8.844017974272406"><ele>105.5</ele><time>2026-04-03T08:12:04Z</time></trkpt><trkpt lat="44.91305664099804" lon="8.843992658401138"><ele>106.0</ele><time>2026-04-03T08:12:05Z</time></trkpt><trkpt lat="44.91277736277879" lon="8.843965748028769"><ele>105.5</ele><time>2026-04-03T08:12:06Z</time></trkpt><trkpt lat="44.9124990318625" lon="8.843937081917938"><ele>105.0</ele><time>2026-04-03T08:12:07Z</time></trkpt><trkpt lat="44.9122202103868" lon="8.843909047356057"><ele>105.0</ele><time>2026-04-03T08:12:08Z</time></trkpt><trkpt lat="44.91194193189258" lon="8.843880679288128"><ele>105.0</ele><time>2026-04-03T08:12:09Z</time></trkpt><trkpt lat="44.91166083764811" lon="8.843854043462052"><ele>105.0</ele><time>2026-04-03T08:12:10Z</time></trkpt><trkpt lat="44.91138041037048" lon="8.843829278707236"><ele>105.0</ele><time>2026-04-03T08:12:11Z</time></trkpt><trkpt lat="44.9111013006104" lon="8.84380458292426"><ele>106.0</ele><time>2026-04-03T08:12:12Z</time></trkpt><trkpt lat="44.91082173325047" lon="8.843780863343657"><ele>107.0</ele><time>2026-04-03T08:12:13Z</time></trkpt><trkpt lat="44.91054263453269" lon="8.843756625718607"><ele>107.0</ele><time>2026-04-03T08:12:14Z</time></trkpt><trkpt lat="44.91026669933328" lon="8.843731735298366"><ele>107.0</ele><time>2026-04-03T08:12:15Z</time></trkpt><trkpt lat="44.90998879477508" lon="8.843706442358222"><ele>107.5</ele><time>2026-04-03T08:12:16Z</time></trkpt><trkpt lat="44.909714299879234" lon="8.843681521098633"><ele>108.0</ele><time>2026-04-03T08:12:17Z</time></trkpt><trkpt lat="44.90943982912646" lon="8.8436548274447"><ele>108.0</ele><time>2026-04-03T08:12:18Z</time></trkpt><trkpt lat="44.909165362575386" lon="8.843625874948128"><ele>108.0</ele><time>2026-04-03T08:12:19Z</time></trkpt><trkpt lat="44.90889284721245" lon="8.843602621099757"><ele>108.0</ele><time>2026-04-03T08:12:20Z</time></trkpt><trkpt lat="44.90862311059262" lon="8.843580232124069"><ele>108.0</ele><time>2026-04-03T08:12:21Z</time></trkpt><trkpt lat="44.908349839387846" lon="8.843557038739952"><ele>108.5</ele><time>2026-04-03T08:12:22Z</time></trkpt><trkpt lat="44.90807679870778" lon="8.843529147636579"><ele>109.0</ele><time>2026-04-03T08:12:23Z</time></trkpt><trkpt lat="44.90780541098126" lon="8.843502882266733"><ele>109.0</ele><time>2026-04-03T08:12:24Z</time></trkpt><trkpt lat="44.90753384799062" lon="8.843475652553247"><ele>109.0</ele><time>2026-04-03T08:12:25Z</time></trkpt><trkpt lat="44.90726249205235" lon="8.843449687038273"><ele>109.0</ele><time>2026-04-03T08:12:26Z</time></trkpt><trkpt lat="44.906991005816934" lon="8.843423619928105"><ele>109.0</ele><time>2026-04-03T08:12:27Z</time></trkpt><trkpt lat="44.90672243881797" lon="8.843395858547328"><ele>108.0</ele><time>2026-04-03T08:12:28Z</time></trkpt><trkpt lat="44.90645438655622" lon="8.843369329937149"><ele>107.0</ele><time>2026-04-03T08:12:29Z</time></trkpt><trkpt lat="44.90618336765607" lon="8.843341999087396"><ele>107.0</ele><time>2026-04-03T08:12:30Z</time></trkpt><trkpt lat="44.90591320592373" lon="8.843315667105896"><ele>107.0</ele><time>2026-04-03T08:12:31Z</time></trkpt><trkpt lat="44.9056443915153" lon="8.843290755184755"><ele>108.0</ele><time>2026-04-03T08:12:32Z</time></trkpt><trkpt lat="44.90537481987337" lon="8.84326756829715"><ele>109.0</ele><time>2026-04-03T08:12:33Z</time></trkpt><trkpt lat="44.9051048343432" lon="8.843245397837084"><ele>109.0</ele><time>2026-04-03T08:12:34Z</time></trkpt><trkpt lat="44.904834670250516" lon="8.843221004483445"><ele>109.0</ele><time>2026-04-03T08:12:35Z</time></trkpt><trkpt lat="44.90456220268113" lon="8.843195616312183"><ele>109.0</ele><time>2026-04-03T08:12:36Z</time></trkpt><trkpt lat="44.904289310268815" lon="8.843170920625015"><ele>109.0</ele><time>2026-04-03T08:12:37Z</time></trkpt><trkpt lat="44.90401518726556" lon="8.84314591318494"><ele>110.0</ele><time>2026-04-03T08:12:38Z</time></trkpt><trkpt lat="44.90374068615496" lon="8.843120408432355"><ele>111.0</ele><time>2026-04-03T08:12:39Z</time></trkpt><trkpt lat="44.903464528573195" lon="8.843094033987965"><ele>110.0</ele><time>2026-04-03T08:12:40Z</time></trkpt><trkpt lat="44.90318593874951" lon="8.84306734182372"><ele>109.0</ele><time>2026-04-03T08:12:41Z</time></trkpt><trkpt lat="44.902910971010975" lon="8.843044355227034"><ele>109.0</ele><time>2026-04-03T08:12:42Z</time></trkpt><trkpt lat="44.90263563236536" lon="8.843014745328551"><ele>109.0</ele><time>2026-04-03T08:12:43Z</time></trkpt><trkpt lat="44.90236074047221" lon="8.842986905697567"><ele>110.5</ele><time>2026-04-03T08:12:44Z</time></trkpt><trkpt lat="44.902086810361574" lon="8.842960434526384"><ele>112.0</ele><time>2026-04-03T08:12:45Z</time></trkpt><trkpt lat="44.90181000585751" lon="8.84293201826643"><ele>111.0</ele><time>2026-04-03T08:12:46Z</time></trkpt><trkpt lat="44.90153247770208" lon="8.842898839931154"><ele>110.0</ele><time>2026-04-03T08:12:47Z</time></trkpt><trkpt lat="44.90125922887076" lon="8.84286331255965"><ele>110.0</ele><time>2026-04-03T08:12:48Z</time></trkpt><trkpt lat="44.90098194247984" lon="8.842827848737903"><ele>110.0</ele><time>2026-04-03T08:12:49Z</time></trkpt><trkpt lat="44.900710675957946" lon="8.842792421940688"><ele>110.0</ele><time>2026-04-03T08:12:50Z</time></trkpt><trkpt lat="44.9004366131288" lon="8.842753581199831"><ele>110.0</ele><time>2026-04-03T08:12:51Z</time></trkpt><trkpt lat="44.900163073497644" lon="8.842713487655683"><ele>111.0</ele><time>2026-04-03T08:12:52Z</time></trkpt><trkpt lat="44.89989330373739" lon="8.842671623905044"><ele>112.0</ele><time>2026-04-03T08:12:53Z</time></trkpt><trkpt lat="44.89962101994465" lon="8.842627659554653"><ele>112.0</ele><time>2026-04-03T08:12:54Z</time></trkpt><trkpt lat="44.89934969314068" lon="8.842581325704698"><ele>112.0</ele><time>2026-04-03T08:12:55Z</time></trkpt><trkpt lat="44.899076049763124" lon="8.842534896934644"><ele>113.0</ele><time>2026-04-03T08:12:56Z</time></trkpt><trkpt lat="44.898805395957815" lon="8.842489724477428"><ele>114.0</ele><time>2026-04-03T08:12:57Z</time></trkpt><trkpt lat="44.89853205372745" lon="8.8424471966378"><ele>114.5</ele><time>2026-04-03T08:12:58Z</time></trkpt><trkpt lat="44.89825961145427" lon="8.842403161157941"><ele>115.0</ele><time>2026-04-03T08:12:59Z</time></trkpt><trkpt lat="44.89798705988086" lon="8.842358598756157"><ele>115.0</ele><time>2026-04-03T08:13:00Z</time></trkpt><trkpt lat="44.89771374836363" lon="8.842314987834103"><ele>115.0</ele><time>2026-04-03T08:13:01Z</time></trkpt><trkpt lat="44.89743791195986" lon="8.84227511273255"><ele>115.5</ele><time>2026-04-03T08:13:02Z</time></trkpt><trkpt lat="44.897162229334235" lon="8.842237516417933"><ele>116.0</ele><time>2026-04-03T08:13:03Z</time></trkpt><trkpt lat="44.89688600195501" lon="8.842200704994653"><ele>115.0</ele><time>2026-04-03T08:13:04Z</time></trkpt><trkpt lat="44.89660953480402" lon="8.84216320493691"><ele>114.0</ele><time>2026-04-03T08:13:05Z</time></trkpt><trkpt lat="44.89633342015446" lon="8.842124443752407"><ele>114.0</ele><time>2026-04-03T08:13:06Z</time></trkpt><trkpt lat="44.89605575881319" lon="8.84208356440535"><ele>114.0</ele><time>2026-04-03T08:13:06.999Z</time></trkpt><trkpt lat="44.8957802731094" lon="8.842040979654545"><ele>115.5</ele><time>2026-04-03T08:13:07.999Z</time></trkpt><trkpt lat="44.8955023154827" lon="8.841997610578757"><ele>117.0</ele><time>2026-04-03T08:13:08.999Z</time></trkpt><trkpt lat="44.89522469591276" lon="8.841952562241586"><ele>116.5</ele><time>2026-04-03T08:13:09.999Z</time></trkpt><trkpt lat="44.89494726732855" lon="8.84190613318254"><ele>116.0</ele><time>2026-04-03T08:13:10.999Z</time></trkpt><trkpt lat="44.894671422890426" lon="8.841858898546551"><ele>116.0</ele><time>2026-04-03T08:13:11.999Z</time></trkpt><trkpt lat="44.894395640898495" lon="8.841813815491152"><ele>116.0</ele><time>2026-04-03T08:13:12.999Z</time></trkpt><trkpt lat="44.89411431107828" lon="8.841770636068505"><ele>117.0</ele><time>2026-04-03T08:13:13.999Z</time></trkpt><trkpt lat="44.89383560375514" lon="8.841728070921082"><ele>118.0</ele><time>2026-04-03T08:13:14.999Z</time></trkpt><trkpt lat="44.893557156305654" lon="8.841682332139678"><ele>117.5</ele><time>2026-04-03T08:13:15.999Z</time></trkpt><trkpt lat="44.89327920254127" lon="8.841639284949226"><ele>117.0</ele><time>2026-04-03T08:13:16.999Z</time></trkpt><trkpt lat="44.8930062928014" lon="8.841592560502319"><ele>117.0</ele><time>2026-04-03T08:13:17.999Z</time></trkpt><trkpt lat="44.892732612937635" lon="8.841543983130142"><ele>117.0</ele><time>2026-04-03T08:13:18.999Z</time></trkpt><trkpt lat="44.8924594846537" lon="8.841493206999793"><ele>116.5</ele><time>2026-04-03T08:13:19.999Z</time></trkpt><trkpt lat="44.89218758611973" lon="8.841442983988248"><ele>116.0</ele><time>2026-04-03T08:13:20.999Z</time></trkpt><trkpt lat="44.89191560595363" lon="8.84138678393042"><ele>115.5</ele><time>2026-04-03T08:13:21.999Z</time></trkpt><trkpt lat="44.8916415762476" lon="8.841322650247402"><ele>115.0</ele><time>2026-04-03T08:13:22.999Z</time></trkpt><trkpt lat="44.89136944929187" lon="8.841251907454014"><ele>115.0</ele><time>2026-04-03T08:13:23.999Z</time></trkpt><trkpt lat="44.891096530540686" lon="8.841174771934748"><ele>115.0</ele><time>2026-04-03T08:13:24.999Z</time></trkpt><trkpt lat="44.890824717510284" lon="8.841094511991821"><ele>116.0</ele><time>2026-04-03T08:13:25.999Z</time></trkpt><trkpt lat="44.89055383387608" lon="8.841012022808147"><ele>117.0</ele><time>2026-04-03T08:13:26.999Z</time></trkpt><trkpt lat="44.89028230778527" lon="8.840924697315128"><ele>117.5</ele><time>2026-04-03T08:13:27.999Z</time></trkpt><trkpt lat="44.89001468971941" lon="8.840834390139298"><ele>118.0</ele><time>2026-04-03T08:13:28.999Z</time></trkpt><trkpt lat="44.88974753232418" lon="8.840741518202886"><ele>118.0</ele><time>2026-04-03T08:13:29.999Z</time></trkpt><trkpt lat="44.88948009763461" lon="8.840641877086803"><ele>118.0</ele><time>2026-04-03T08:13:30.999Z</time></trkpt><trkpt lat="44.889213410168125" lon="8.840541403270823"><ele>117.5</ele><time>2026-04-03T08:13:31.999Z</time></trkpt><trkpt lat="44.88894528160623" lon="8.840440938580018"><ele>117.0</ele><time>2026-04-03T08:13:32.999Z</time></trkpt><trkpt lat="44.8886760741414" lon="8.840333256888742"><ele>117.0</ele><time>2026-04-03T08:13:33.999Z</time></trkpt><trkpt lat="44.888410805982424" lon="8.84021891304496"><ele>117.0</ele><time>2026-04-03T08:13:34.999Z</time></trkpt><trkpt lat="44.88814416495138" lon="8.840097196943491"><ele>117.5</ele><time>2026-04-03T08:13:35.999Z</time></trkpt><trkpt lat="44.88787921632356" lon="8.839970862781577"><ele>118.0</ele><time>2026-04-03T08:13:36.999Z</time></trkpt><trkpt lat="44.88761286129501" lon="8.839833982890339"><ele>117.5</ele><time>2026-04-03T08:13:37.999Z</time></trkpt><trkpt lat="44.88734526762365" lon="8.839695431027906"><ele>117.0</ele><time>2026-04-03T08:13:38.999Z</time></trkpt><trkpt lat="44.88707368111092" lon="8.83955707938439"><ele>117.0</ele><time>2026-04-03T08:13:39.999Z</time></trkpt><trkpt lat="44.88680377667649" lon="8.839423569077807"><ele>117.0</ele><time>2026-04-03T08:13:40.999Z</time></trkpt><trkpt lat="44.886529673805846" lon="8.839291831618779"><ele>117.0</ele><time>2026-04-03T08:13:41.999Z</time></trkpt><trkpt lat="44.88625535675149" lon="8.839162991197965"><ele>117.0</ele><time>2026-04-03T08:13:42.999Z</time></trkpt><trkpt lat="44.88598115379527" lon="8.839036312171858"><ele>118.0</ele><time>2026-04-03T08:13:43.999Z</time></trkpt><trkpt lat="44.88570602889208" lon="8.838909723027808"><ele>119.0</ele><time>2026-04-03T08:13:44.999Z</time></trkpt><trkpt lat="44.88543231175169" lon="8.838779510426058"><ele>119.0</ele><time>2026-04-03T08:13:45.999Z</time></trkpt><trkpt lat="44.885160830711655" lon="8.838649538173103"><ele>119.0</ele><time>2026-04-03T08:13:46.999Z</time></trkpt><trkpt lat="44.88488896715592" lon="8.838519933813032"><ele>119.0</ele><time>2026-04-03T08:13:47.999Z</time></trkpt><trkpt lat="44.88461603044793" lon="8.8383926770497"><ele>119.0</ele><time>2026-04-03T08:13:48.999Z</time></trkpt><trkpt lat="44.88434615014554" lon="8.838262043379416"><ele>118.0</ele><time>2026-04-03T08:13:50Z</time></trkpt><trkpt lat="44.88407758901185" lon="8.83813352860605"><ele>117.0</ele><time>2026-04-03T08:13:51Z</time></trkpt><trkpt lat="44.8838089193731" lon="8.838005579793322"><ele>117.0</ele><time>2026-04-03T08:13:52Z</time></trkpt><trkpt lat="44.88353902220014" lon="8.837881117835929"><ele>117.0</ele><time>2026-04-03T08:13:53Z</time></trkpt><trkpt lat="44.883269380817474" lon="8.837758764340087"><ele>118.5</ele><time>2026-04-03T08:13:54Z</time></trkpt><trkpt lat="44.883001879882706" lon="8.837635449489001"><ele>120.0</ele><time>2026-04-03T08:13:55Z</time></trkpt><trkpt lat="44.88273533896065" lon="8.837508135077599"><ele>120.0</ele><time>2026-04-03T08:13:56Z</time></trkpt><trkpt lat="44.88246725750247" lon="8.837379232297423"><ele>120.0</ele><time>2026-04-03T08:13:57Z</time></trkpt><trkpt lat="44.88220178403568" lon="8.837253664268273"><ele>120.0</ele><time>2026-04-03T08:13:58Z</time></trkpt><trkpt lat="44.88193844749962" lon="8.837129486650847"><ele>120.0</ele><time>2026-04-03T08:13:59Z</time></trkpt><trkpt lat="44.88167449126423" lon="8.837006480088919"><ele>119.0</ele><time>2026-04-03T08:14:00Z</time></trkpt><trkpt lat="44.88141207982146" lon="8.836884914516311"><ele>118.0</ele><time>2026-04-03T08:14:01Z</time></trkpt><trkpt lat="44.88115055966494" lon="8.836763416399403"><ele>119.5</ele><time>2026-04-03T08:14:02Z</time></trkpt><trkpt lat="44.88088991183752" lon="8.836640377693751"><ele>121.0</ele><time>2026-04-03T08:14:03Z</time></trkpt><trkpt lat="44.88062992281987" lon="8.836518466643476"><ele>121.0</ele><time>2026-04-03T08:14:04Z</time></trkpt><trkpt lat="44.880371024302704" lon="8.83639741490107"><ele>121.0</ele><time>2026-04-03T08:14:05Z</time></trkpt><trkpt lat="44.880111600262104" lon="8.836274167274563"><ele>122.0</ele><time>2026-04-03T08:14:06Z</time></trkpt><trkpt lat="44.87985318430411" lon="8.836147993274441"><ele>123.0</ele><time>2026-04-03T08:14:07Z</time></trkpt><trkpt lat="44.879596210739344" lon="8.836022590854514"><ele>123.5</ele><time>2026-04-03T08:14:08Z</time></trkpt><trkpt lat="44.879338685147886" lon="8.835901311547186"><ele>124.0</ele><time>2026-04-03T08:14:09Z</time></trkpt><trkpt lat="44.87907850961678" lon="8.835782664329638"><ele>124.0</ele><time>2026-04-03T08:14:10Z</time></trkpt><trkpt lat="44.87881706831148" lon="8.835664767179297"><ele>124.0</ele><time>2026-04-03T08:14:11Z</time></trkpt><trkpt lat="44.878556743817256" lon="8.835540007422107"><ele>123.5</ele><time>2026-04-03T08:14:12Z</time></trkpt><trkpt lat="44.878297925011495" lon="8.8354151666991"><ele>123.0</ele><time>2026-04-03T08:14:13Z</time></trkpt><trkpt lat="44.87803576416265" lon="8.835288928349067"><ele>123.0</ele><time>2026-04-03T08:14:14Z</time></trkpt><trkpt lat="44.87777340637564" lon="8.835165557250834"><ele>123.0</ele><time>2026-04-03T08:14:15Z</time></trkpt><trkpt lat="44.87750916131621" lon="8.835043681052369"><ele>123.0</ele><time>2026-04-03T08:14:16Z</time></trkpt><trkpt lat="44.877248095459635" lon="8.83492628154302"><ele>123.0</ele><time>2026-04-03T08:14:17Z</time></trkpt><trkpt lat="44.876984497051915" lon="8.834811942693221"><ele>122.5</ele><time>2026-04-03T08:14:18Z</time></trkpt><trkpt lat="44.876724088661426" lon="8.83469942874074"><ele>122.0</ele><time>2026-04-03T08:14:19Z</time></trkpt><trkpt lat="44.87646139223721" lon="8.834587120752833"><ele>122.0</ele><time>2026-04-03T08:14:20Z</time></trkpt><trkpt lat="44.876202576179665" lon="8.834474405343942"><ele>122.0</ele><time>2026-04-03T08:14:21Z</time></trkpt><trkpt lat="44.87594399939062" lon="8.834362722976707"><ele>122.0</ele><time>2026-04-03T08:14:22Z</time></trkpt><trkpt lat="44.87568861505513" lon="8.834248986690081"><ele>122.0</ele><time>2026-04-03T08:14:23Z</time></trkpt><trkpt lat="44.87543342184383" lon="8.834138202537757"><ele>122.0</ele><time>2026-04-03T08:14:24Z</time></trkpt><trkpt lat="44.87518050324528" lon="8.8340298864069"><ele>122.0</ele><time>2026-04-03T08:14:25Z</time></trkpt><trkpt lat="44.874927674722485" lon="8.833918736072718"><ele>123.0</ele><time>2026-04-03T08:14:26Z</time></trkpt><trkpt lat="44.87467540721969" lon="8.833808346834516"><ele>124.0</ele><time>2026-04-03T08:14:27Z</time></trkpt><trkpt lat="44.87442252367062" lon="8.83369798492714"><ele>124.5</ele><time>2026-04-03T08:14:28Z</time></trkpt><trkpt lat="44.87416821550766" lon="8.833584803964825"><ele>125.0</ele><time>2026-04-03T08:14:29Z</time></trkpt><trkpt lat="44.87391097488437" lon="8.833472431894032"><ele>124.5</ele><time>2026-04-03T08:14:30Z</time></trkpt><trkpt lat="44.873652601054005" lon="8.833360105061194"><ele>124.0</ele><time>2026-04-03T08:14:31Z</time></trkpt><trkpt lat="44.87339552128645" lon="8.833250086229604"><ele>124.0</ele><time>2026-04-03T08:14:32Z</time></trkpt><trkpt lat="44.873137622812834" lon="8.833135785068082"><ele>124.0</ele><time>2026-04-03T08:14:33Z</time></trkpt><trkpt lat="44.87287872864246" lon="8.833020375626186"><ele>124.0</ele><time>2026-04-03T08:14:34Z</time></trkpt><trkpt lat="44.872617705471775" lon="8.832907879541022"><ele>124.0</ele><time>2026-04-03T08:14:35Z</time></trkpt><trkpt lat="44.8723587198298" lon="8.832797051490772"><ele>124.0</ele><time>2026-04-03T08:14:36Z</time></trkpt><trkpt lat="44.87210016892357" lon="8.832685898865682"><ele>124.0</ele><time>2026-04-03T08:14:37Z</time></trkpt><trkpt lat="44.87184066389328" lon="8.832573473033097"><ele>123.5</ele><time>2026-04-03T08:14:38Z</time></trkpt><trkpt lat="44.87157970703744" lon="8.832460229400382"><ele>123.0</ele><time>2026-04-03T08:14:39Z</time></trkpt><trkpt lat="44.87131917299811" lon="8.832346144904177"><ele>123.0</ele><time>2026-04-03T08:14:40Z</time></trkpt><trkpt lat="44.87105753883546" lon="8.83222791642012"><ele>123.0</ele><time>2026-04-03T08:14:41Z</time></trkpt><trkpt lat="44.870790980878056" lon="8.832106337811929"><ele>123.0</ele><time>2026-04-03T08:14:42Z</time></trkpt><trkpt lat="44.87052263083338" lon="8.831986302382798"><ele>123.0</ele><time>2026-04-03T08:14:43Z</time></trkpt><trkpt lat="44.87025256372784" lon="8.831868057696708"><ele>123.5</ele><time>2026-04-03T08:14:44Z</time></trkpt><trkpt lat="44.86998057056762" lon="8.831748611879412"><ele>124.0</ele><time>2026-04-03T08:14:45Z</time></trkpt><trkpt lat="44.869707173277774" lon="8.831631477705924"><ele>124.0</ele><time>2026-04-03T08:14:46Z</time></trkpt><trkpt lat="44.86943291015552" lon="8.831514729472586"><ele>124.0</ele><time>2026-04-03T08:14:47Z</time></trkpt><trkpt lat="44.869158179178996" lon="8.831396767616942"><ele>125.0</ele><time>2026-04-03T08:14:48Z</time></trkpt><trkpt lat="44.868886417750424" lon="8.831279676337765"><ele>126.0</ele><time>2026-04-03T08:14:49Z</time></trkpt><trkpt lat="44.86861146867299" lon="8.831162103515467"><ele>126.0</ele><time>2026-04-03T08:14:50Z</time></trkpt><trkpt lat="44.868338509004474" lon="8.831046596204008"><ele>126.0</ele><time>2026-04-03T08:14:51Z</time></trkpt><trkpt lat="44.8680659367244" lon="8.830933926364475"><ele>125.5</ele><time>2026-04-03T08:14:52Z</time></trkpt><trkpt lat="44.86779391054947" lon="8.830826601034653"><ele>125.0</ele><time>2026-04-03T08:14:53Z</time></trkpt><trkpt lat="44.86752052761229" lon="8.830725510756233"><ele>124.5</ele><time>2026-04-03T08:14:54Z</time></trkpt><trkpt lat="44.86724717198334" lon="8.830635398839703"><ele>124.0</ele><time>2026-04-03T08:14:55Z</time></trkpt><trkpt lat="44.86697491647952" lon="8.830554350650718"><ele>124.5</ele><time>2026-04-03T08:14:56Z</time></trkpt><trkpt lat="44.8666986188715" lon="8.830478725531727"><ele>125.0</ele><time>2026-04-03T08:14:57Z</time></trkpt><trkpt lat="44.86642406629013" lon="8.8304040163923"><ele>125.0</ele><time>2026-04-03T08:14:58Z</time></trkpt><trkpt lat="44.86614824926652" lon="8.830331112753498"><ele>125.0</ele><time>2026-04-03T08:14:59Z</time></trkpt><trkpt lat="44.86587570127986" lon="8.830266374918809"><ele>126.0</ele><time>2026-04-03T08:15:00Z</time></trkpt><trkpt lat="44.865599963087874" lon="8.830211505821728"><ele>127.0</ele><time>2026-04-03T08:15:01Z</time></trkpt><trkpt lat="44.86532477881063" lon="8.830165921184344"><ele>126.5</ele><time>2026-04-03T08:15:02Z</time></trkpt><trkpt lat="44.86504995064574" lon="8.830128355683037"><ele>126.0</ele><time>2026-04-03T08:15:03Z</time></trkpt><trkpt lat="44.864777110648774" lon="8.830097642226475"><ele>126.0</ele><time>2026-04-03T08:15:04Z</time></trkpt><trkpt lat="44.8645011206052" lon="8.830067556138228"><ele>126.0</ele><time>2026-04-03T08:15:05Z</time></trkpt><trkpt lat="44.8642265723073" lon="8.83004049059234"><ele>126.0</ele><time>2026-04-03T08:15:06Z</time></trkpt><trkpt lat="44.86395334740549" lon="8.83002152926745"><ele>126.0</ele><time>2026-04-03T08:15:07Z</time></trkpt><trkpt lat="44.863679170072636" lon="8.83000686911831"><ele>126.5</ele><time>2026-04-03T08:15:08Z</time></trkpt><trkpt lat="44.86340792015009" lon="8.829995422134695"><ele>127.0</ele><time>2026-04-03T08:15:09Z</time></trkpt><trkpt lat="44.863137010141884" lon="8.829980911350221"><ele>127.0</ele><time>2026-04-03T08:15:09.999Z</time></trkpt><trkpt lat="44.862864950195636" lon="8.829964871329027"><ele>127.0</ele><time>2026-04-03T08:15:10.999Z</time></trkpt><trkpt lat="44.86260106766025" lon="8.82995219849071"><ele>128.0</ele><time>2026-04-03T08:15:11.999Z</time></trkpt><trkpt lat="44.86233500192704" lon="8.829936801094146"><ele>129.0</ele><time>2026-04-03T08:15:12.999Z</time></trkpt><trkpt lat="44.86207058752355" lon="8.829921882072446"><ele>129.0</ele><time>2026-04-03T08:15:13.999Z</time></trkpt><trkpt lat="44.861805433669424" lon="8.829909305420832"><ele>129.0</ele><time>2026-04-03T08:15:14.999Z</time></trkpt><trkpt lat="44.86154230833769" lon="8.82989542240435"><ele>128.0</ele><time>2026-04-03T08:15:15.999Z</time></trkpt><trkpt lat="44.86128027424005" lon="8.829882672527049"><ele>127.0</ele><time>2026-04-03T08:15:16.999Z</time></trkpt><trkpt lat="44.86102066402452" lon="8.829867059877323"><ele>128.0</ele><time>2026-04-03T08:15:17.999Z</time></trkpt><trkpt lat="44.86076120343697" lon="8.829851517563204"><ele>129.0</ele><time>2026-04-03T08:15:18.999Z</time></trkpt><trkpt lat="44.860501075296874" lon="8.829838066477935"><ele>129.0</ele><time>2026-04-03T08:15:19.999Z</time></trkpt><trkpt lat="44.86024025894309" lon="8.829825990860558"><ele>129.0</ele><time>2026-04-03T08:15:20.999Z</time></trkpt><trkpt lat="44.859979634739766" lon="8.829813369023634"><ele>129.0</ele><time>2026-04-03T08:15:21.999Z</time></trkpt><trkpt lat="44.85971709580338" lon="8.829801925556275"><ele>129.0</ele><time>2026-04-03T08:15:22.999Z</time></trkpt><trkpt lat="44.85945584258212" lon="8.829788444683496"><ele>128.5</ele><time>2026-04-03T08:15:23.999Z</time></trkpt><trkpt lat="44.85919401399211" lon="8.829775337739955"><ele>128.0</ele><time>2026-04-03T08:15:24.999Z</time></trkpt><trkpt lat="44.858933707339" lon="8.829764237875706"><ele>128.0</ele><time>2026-04-03T08:15:25.999Z</time></trkpt><trkpt lat="44.85867312013683" lon="8.829759550174439"><ele>128.0</ele><time>2026-04-03T08:15:26.999Z</time></trkpt><trkpt lat="44.85841270561118" lon="8.829755324484134"><ele>128.5</ele><time>2026-04-03T08:15:27.999Z</time></trkpt><trkpt lat="44.85815067979827" lon="8.829749814733189"><ele>129.0</ele><time>2026-04-03T08:15:28.999Z</time></trkpt><trkpt lat="44.85788682812311" lon="8.829739065502686"><ele>129.0</ele><time>2026-04-03T08:15:29.999Z</time></trkpt><trkpt lat="44.85762409626341" lon="8.829724122815707"><ele>129.0</ele><time>2026-04-03T08:15:30.999Z</time></trkpt><trkpt lat="44.857357164017294" lon="8.829710512824896"><ele>129.5</ele><time>2026-04-03T08:15:31.999Z</time></trkpt><trkpt lat="44.85709254109725" lon="8.829695198521932"><ele>130.0</ele><time>2026-04-03T08:15:32.999Z</time></trkpt><trkpt lat="44.8568293248469" lon="8.829680383390697"><ele>129.5</ele><time>2026-04-03T08:15:33.999Z</time></trkpt><trkpt lat="44.85656176978431" lon="8.829667009866219"><ele>129.0</ele><time>2026-04-03T08:15:34.999Z</time></trkpt><trkpt lat="44.85629326425527" lon="8.829653413813343"><ele>129.0</ele><time>2026-04-03T08:15:35.999Z</time></trkpt><trkpt lat="44.85602455343954" lon="8.829638719542103"><ele>129.0</ele><time>2026-04-03T08:15:36.999Z</time></trkpt><trkpt lat="44.85575162160654" lon="8.829626867719503"><ele>130.0</ele><time>2026-04-03T08:15:37.999Z</time></trkpt><trkpt lat="44.85547978693741" lon="8.82961458214721"><ele>131.0</ele><time>2026-04-03T08:15:38.999Z</time></trkpt><trkpt lat="44.85520563463531" lon="8.82959987952187"><ele>131.5</ele><time>2026-04-03T08:15:39.999Z</time></trkpt><trkpt lat="44.854930985975734" lon="8.829584517828888"><ele>132.0</ele><time>2026-04-03T08:15:40.999Z</time></trkpt><trkpt lat="44.85465648055397" lon="8.829570680746142"><ele>132.0</ele><time>2026-04-03T08:15:41.999Z</time></trkpt><trkpt lat="44.85438425728007" lon="8.829556763971276"><ele>132.0</ele><time>2026-04-03T08:15:42.999Z</time></trkpt><trkpt lat="44.854112971101735" lon="8.829541937934634"><ele>133.0</ele><time>2026-04-03T08:15:43.999Z</time></trkpt><trkpt lat="44.85383886576647" lon="8.829523985511555"><ele>134.0</ele><time>2026-04-03T08:15:44.999Z</time></trkpt><trkpt lat="44.85356460207035" lon="8.829505619102168"><ele>135.0</ele><time>2026-04-03T08:15:45.999Z</time></trkpt><trkpt lat="44.8532865018067" lon="8.829489176083037"><ele>136.0</ele><time>2026-04-03T08:15:46.999Z</time></trkpt><trkpt lat="44.8530139015996" lon="8.829472131605774"><ele>136.0</ele><time>2026-04-03T08:15:47.999Z</time></trkpt><trkpt lat="44.85273594705174" lon="8.829457169160966"><ele>136.0</ele><time>2026-04-03T08:15:48.999Z</time></trkpt><trkpt lat="44.852461253448254" lon="8.829440827255846"><ele>135.0</ele><time>2026-04-03T08:15:49.999Z</time></trkpt><trkpt lat="44.852184217572734" lon="8.82942538069878"><ele>134.0</ele><time>2026-04-03T08:15:50.999Z</time></trkpt><trkpt lat="44.85190743822511" lon="8.829408060743857"><ele>134.0</ele><time>2026-04-03T08:15:51.999Z</time></trkpt><trkpt lat="44.851627752899724" lon="8.829391036597167"><ele>134.0</ele><time>2026-04-03T08:15:52.999Z</time></trkpt><trkpt lat="44.85134897290543" lon="8.829373959537401"><ele>134.0</ele><time>2026-04-03T08:15:53.999Z</time></trkpt><trkpt lat="44.85106920718421" lon="8.829359378249166"><ele>134.0</ele><time>2026-04-03T08:15:54.999Z</time></trkpt><trkpt lat="44.85078692204312" lon="8.829343938520854"><ele>135.0</ele><time>2026-04-03T08:15:56Z</time></trkpt><trkpt lat="44.85050885101336" lon="8.829328677173235"><ele>136.0</ele><time>2026-04-03T08:15:57Z</time></trkpt><trkpt lat="44.85022728435789" lon="8.829314611123904"><ele>136.0</ele><time>2026-04-03T08:15:58Z</time></trkpt><trkpt lat="44.84994538542375" lon="8.829301933594458"><ele>136.0</ele><time>2026-04-03T08:15:59Z</time></trkpt><trkpt lat="44.84965967894182" lon="8.829286214175418"><ele>136.0</ele><time>2026-04-03T08:16:00Z</time></trkpt><trkpt lat="44.84938015697164" lon="8.829268142089395"><ele>136.0</ele><time>2026-04-03T08:16:01Z</time></trkpt><trkpt lat="44.849098046118065" lon="8.82925008000386"><ele>136.0</ele><time>2026-04-03T08:16:02Z</time></trkpt><trkpt lat="44.84881451723623" lon="8.829236460675812"><ele>136.0</ele><time>2026-04-03T08:16:03Z</time></trkpt><trkpt lat="44.848532254692245" lon="8.829226033124977"><ele>136.5</ele><time>2026-04-03T08:16:04Z</time></trkpt><trkpt lat="44.84825203352278" lon="8.829213179220526"><ele>137.0</ele><time>2026-04-03T08:16:05Z</time></trkpt><trkpt lat="44.8479724864821" lon="8.82919984924886"><ele>137.0</ele><time>2026-04-03T08:16:06Z</time></trkpt><trkpt lat="44.8476905639732" lon="8.829184440747447"><ele>137.0</ele><time>2026-04-03T08:16:07Z</time></trkpt><trkpt lat="44.84741187877633" lon="8.82916814000502"><ele>138.0</ele><time>2026-04-03T08:16:08Z</time></trkpt><trkpt lat="44.847133142583736" lon="8.829153167930134"><ele>139.0</ele><time>2026-04-03T08:16:09Z</time></trkpt><trkpt lat="44.84685271252394" lon="8.829140686435665"><ele>137.5</ele><time>2026-04-03T08:16:10Z</time></trkpt><trkpt lat="44.84657448430635" lon="8.82912321938788"><ele>136.0</ele><time>2026-04-03T08:16:11Z</time></trkpt><trkpt lat="44.84629834127127" lon="8.829107659969758"><ele>136.0</ele><time>2026-04-03T08:16:12Z</time></trkpt><trkpt lat="44.84601979661595" lon="8.829093741133775"><ele>136.0</ele><time>2026-04-03T08:16:13Z</time></trkpt><trkpt lat="44.845741597219764" lon="8.829079838338194"><ele>137.0</ele><time>2026-04-03T08:16:14Z</time></trkpt><trkpt lat="44.84546189333859" lon="8.829064091348112"><ele>138.0</ele><time>2026-04-03T08:16:15Z</time></trkpt><trkpt lat="44.84518292854093" lon="8.829042160340116"><ele>138.0</ele><time>2026-04-03T08:16:16Z</time></trkpt><trkpt lat="44.84490160256872" lon="8.82901786700123"><ele>138.0</ele><time>2026-04-03T08:16:17Z</time></trkpt><trkpt lat="44.844619720058105" lon="8.828991858192898"><ele>138.0</ele><time>2026-04-03T08:16:18Z</time></trkpt><trkpt lat="44.844337507097904" lon="8.82897240928005"><ele>138.0</ele><time>2026-04-03T08:16:19Z</time></trkpt><trkpt lat="44.84405656684534" lon="8.828954526730026"><ele>138.0</ele><time>2026-04-03T08:16:20Z</time></trkpt><trkpt lat="44.843774937637455" lon="8.828939299004299"><ele>138.0</ele><time>2026-04-03T08:16:21Z</time></trkpt><trkpt lat="44.843494545942725" lon="8.828923445768366"><ele>138.0</ele><time>2026-04-03T08:16:22Z</time></trkpt><trkpt lat="44.84321486913575" lon="8.828903950923788"><ele>138.0</ele><time>2026-04-03T08:16:23Z</time></trkpt><trkpt lat="44.8429345878239" lon="8.828883896142225"><ele>138.0</ele><time>2026-04-03T08:16:24Z</time></trkpt><trkpt lat="44.84265219455155" lon="8.82886536376714"><ele>138.0</ele><time>2026-04-03T08:16:25Z</time></trkpt><trkpt lat="44.84237007634552" lon="8.828849121378285"><ele>138.5</ele><time>2026-04-03T08:16:26Z</time></trkpt><trkpt lat="44.84208762366013" lon="8.828833815942865"><ele>139.0</ele><time>2026-04-03T08:16:27Z</time></trkpt><trkpt lat="44.84180377086723" lon="8.828817626542602"><ele>139.5</ele><time>2026-04-03T08:16:28Z</time></trkpt><trkpt lat="44.84151918215007" lon="8.828801868309199"><ele>140.0</ele><time>2026-04-03T08:16:29Z</time></trkpt><trkpt lat="44.84123765625803" lon="8.828788100387063"><ele>140.0</ele><time>2026-04-03T08:16:30Z</time></trkpt><trkpt lat="44.840954983970796" lon="8.82877454061765"><ele>140.0</ele><time>2026-04-03T08:16:31Z</time></trkpt><trkpt lat="44.84067552028937" lon="8.828760712365252"><ele>140.0</ele><time>2026-04-03T08:16:32Z</time></trkpt><trkpt lat="44.84039424188023" lon="8.828747992432934"><ele>140.0</ele><time>2026-04-03T08:16:33Z</time></trkpt><trkpt lat="44.84011657965344" lon="8.828734355093726"><ele>139.5</ele><time>2026-04-03T08:16:34Z</time></trkpt><trkpt lat="44.83983838750474" lon="8.828716341349873"><ele>139.0</ele><time>2026-04-03T08:16:35Z</time></trkpt><trkpt lat="44.8395613909789" lon="8.828700659256297"><ele>139.5</ele><time>2026-04-03T08:16:36Z</time></trkpt><trkpt lat="44.839283231974" lon="8.828683287404177"><ele>140.0</ele><time>2026-04-03T08:16:37Z</time></trkpt><trkpt lat="44.83901067907694" lon="8.828667722540294"><ele>140.0</ele><time>2026-04-03T08:16:38Z</time></trkpt><trkpt lat="44.8387338192053" lon="8.828649203088808"><ele>140.0</ele><time>2026-04-03T08:16:39Z</time></trkpt><trkpt lat="44.8384573732426" lon="8.828631642946586"><ele>141.5</ele><time>2026-04-03T08:16:40Z</time></trkpt><trkpt lat="44.838183683285585" lon="8.828617681357887"><ele>143.0</ele><time>2026-04-03T08:16:41Z</time></trkpt><trkpt lat="44.83791176747815" lon="8.82860593656559"><ele>143.0</ele><time>2026-04-03T08:16:42Z</time></trkpt><trkpt lat="44.837640408576185" lon="8.828593523917517"><ele>143.0</ele><time>2026-04-03T08:16:43Z</time></trkpt><trkpt lat="44.837368331994554" lon="8.828579807237631"><ele>142.0</ele><time>2026-04-03T08:16:44Z</time></trkpt><trkpt lat="44.837099237036355" lon="8.828565435111464"><ele>141.0</ele><time>2026-04-03T08:16:45Z</time></trkpt><trkpt lat="44.83682940221961" lon="8.82855408382785"><ele>141.5</ele><time>2026-04-03T08:16:46Z</time></trkpt><trkpt lat="44.83655889174356" lon="8.82854042714908"><ele>142.0</ele><time>2026-04-03T08:16:47Z</time></trkpt><trkpt lat="44.836290156436654" lon="8.828528180539447"><ele>142.0</ele><time>2026-04-03T08:16:48Z</time></trkpt><trkpt lat="44.83602432821263" lon="8.828510182291996"><ele>142.0</ele><time>2026-04-03T08:16:49Z</time></trkpt><trkpt lat="44.835756746982284" lon="8.828493052440471"><ele>142.5</ele><time>2026-04-03T08:16:50Z</time></trkpt><trkpt lat="44.83549001632038" lon="8.82847607983126"><ele>143.0</ele><time>2026-04-03T08:16:51Z</time></trkpt><trkpt lat="44.835220548830094" lon="8.82845997856985"><ele>144.5</ele><time>2026-04-03T08:16:52Z</time></trkpt><trkpt lat="44.83494988170244" lon="8.828444983248886"><ele>146.0</ele><time>2026-04-03T08:16:53Z</time></trkpt><trkpt lat="44.83467877131121" lon="8.828426559519853"><ele>146.0</ele><time>2026-04-03T08:16:54Z</time></trkpt><trkpt lat="44.83440575507704" lon="8.828411815266616"><ele>146.0</ele><time>2026-04-03T08:16:55Z</time></trkpt><trkpt lat="44.83413043303344" lon="8.828396128900842"><ele>146.0</ele><time>2026-04-03T08:16:56Z</time></trkpt><trkpt lat="44.83385743936517" lon="8.828380033637949"><ele>146.0</ele><time>2026-04-03T08:16:57Z</time></trkpt><trkpt lat="44.83358316375238" lon="8.828363884603732"><ele>146.5</ele><time>2026-04-03T08:16:58Z</time></trkpt><trkpt lat="44.83330968726751" lon="8.82834841611821"><ele>147.0</ele><time>2026-04-03T08:16:59Z</time></trkpt><trkpt lat="44.833037208659384" lon="8.828340083556684"><ele>147.0</ele><time>2026-04-03T08:17:00Z</time></trkpt><trkpt lat="44.83276026334685" lon="8.82832564010411"><ele>147.0</ele><time>2026-04-03T08:17:01Z</time></trkpt><trkpt lat="44.832480233511475" lon="8.828308794657636"><ele>146.5</ele><time>2026-04-03T08:17:02Z</time></trkpt><trkpt lat="44.83220149111425" lon="8.828296487071842"><ele>146.0</ele><time>2026-04-03T08:17:03Z</time></trkpt><trkpt lat="44.83192456028499" lon="8.828284962288352"><ele>146.0</ele><time>2026-04-03T08:17:04Z</time></trkpt><trkpt lat="44.831645355663085" lon="8.828271413591857"><ele>146.0</ele><time>2026-04-03T08:17:05Z</time></trkpt><trkpt lat="44.83136934659743" lon="8.828253130245086"><ele>146.0</ele><time>2026-04-03T08:17:06Z</time></trkpt><trkpt lat="44.83109111734919" lon="8.82823406153669"><ele>146.0</ele><time>2026-04-03T08:17:07Z</time></trkpt><trkpt lat="44.83081373268093" lon="8.828215665413865"><ele>145.0</ele><time>2026-04-03T08:17:08Z</time></trkpt><trkpt lat="44.83053832760953" lon="8.828201240591357"><ele>144.0</ele><time>2026-04-03T08:17:09Z</time></trkpt><trkpt lat="44.83026254317804" lon="8.828185941237471"><ele>144.5</ele><time>2026-04-03T08:17:10Z</time></trkpt><trkpt lat="44.82998667844017" lon="8.828171308693873"><ele>145.0</ele><time>2026-04-03T08:17:11Z</time></trkpt><trkpt lat="44.82971065805824" lon="8.82815719411078"><ele>145.0</ele><time>2026-04-03T08:17:11.999Z</time></trkpt><trkpt lat="44.829434839415384" lon="8.82814272371047"><ele>145.0</ele><time>2026-04-03T08:17:12.999Z</time></trkpt><trkpt lat="44.829159206778975" lon="8.828127908531123"><ele>144.5</ele><time>2026-04-03T08:17:13.999Z</time></trkpt><trkpt lat="44.828883347875376" lon="8.82811217381914"><ele>144.0</ele><time>2026-04-03T08:17:14.999Z</time></trkpt><trkpt lat="44.8286104466812" lon="8.828102076408586"><ele>145.0</ele><time>2026-04-03T08:17:15.999Z</time></trkpt><trkpt lat="44.8283352889197" lon="8.828094730345548"><ele>146.0</ele><time>2026-04-03T08:17:16.999Z</time></trkpt><trkpt lat="44.82805978590792" lon="8.828087114418592"><ele>146.0</ele><time>2026-04-03T08:17:17.999Z</time></trkpt><trkpt lat="44.82778594239924" lon="8.828081313646955"><ele>146.0</ele><time>2026-04-03T08:17:18.999Z</time></trkpt><trkpt lat="44.827511929311676" lon="8.828087831751574"><ele>147.0</ele><time>2026-04-03T08:17:19.999Z</time></trkpt><trkpt lat="44.82723511470197" lon="8.828094861547358"><ele>148.0</ele><time>2026-04-03T08:17:20.999Z</time></trkpt><trkpt lat="44.82696077750194" lon="8.82810641987337"><ele>149.5</ele><time>2026-04-03T08:17:21.999Z</time></trkpt><trkpt lat="44.826684412896554" lon="8.828118701129439"><ele>151.0</ele><time>2026-04-03T08:17:22.999Z</time></trkpt><trkpt lat="44.826408029209794" lon="8.828135023136104"><ele>151.0</ele><time>2026-04-03T08:17:23.999Z</time></trkpt><trkpt lat="44.82613216805198" lon="8.828153722750978"><ele>151.0</ele><time>2026-04-03T08:17:24.999Z</time></trkpt><trkpt lat="44.825857426324035" lon="8.828175914218834"><ele>150.5</ele><time>2026-04-03T08:17:25.999Z</time></trkpt><trkpt lat="44.825581334111654" lon="8.828201139202557"><ele>150.0</ele><time>2026-04-03T08:17:26.999Z</time></trkpt><trkpt lat="44.825304163879885" lon="8.828229659295934"><ele>150.5</ele><time>2026-04-03T08:17:27.999Z</time></trkpt><trkpt lat="44.825028366925025" lon="8.828257260357917"><ele>151.0</ele><time>2026-04-03T08:17:28.999Z</time></trkpt><trkpt lat="44.824751999458265" lon="8.828283474791055"><ele>151.0</ele><time>2026-04-03T08:17:29.999Z</time></trkpt><trkpt lat="44.82447517507873" lon="8.828308123672306"><ele>151.0</ele><time>2026-04-03T08:17:30.999Z</time></trkpt><trkpt lat="44.82419667660223" lon="8.828334309588712"><ele>152.0</ele><time>2026-04-03T08:17:31.999Z</time></trkpt><trkpt lat="44.82392066723932" lon="8.828356367145167"><ele>153.0</ele><time>2026-04-03T08:17:32.999Z</time></trkpt><trkpt lat="44.82364142762114" lon="8.828382998332811"><ele>153.0</ele><time>2026-04-03T08:17:33.999Z</time></trkpt><trkpt lat="44.8233637065185" lon="8.828409678089127"><ele>153.0</ele><time>2026-04-03T08:17:34.999Z</time></trkpt><trkpt lat="44.82308378184304" lon="8.828436037183131"><ele>153.0</ele><time>2026-04-03T08:17:35.999Z</time></trkpt><trkpt lat="44.822803937565446" lon="8.828463256037917"><ele>153.0</ele><time>2026-04-03T08:17:36.999Z</time></trkpt><trkpt lat="44.82252557533107" lon="8.828486311245753"><ele>154.0</ele><time>2026-04-03T08:17:37.999Z</time></trkpt><trkpt lat="44.82224414452873" lon="8.828509215753972"><ele>155.0</ele><time>2026-04-03T08:17:38.999Z</time></trkpt><trkpt lat="44.82196252012354" lon="8.828533977301975"><ele>154.0</ele><time>2026-04-03T08:17:39.999Z</time></trkpt><trkpt lat="44.82168052911513" lon="8.828560275346517"><ele>153.0</ele><time>2026-04-03T08:17:40.999Z</time></trkpt><trkpt lat="44.821400389228685" lon="8.828588775328091"><ele>153.0</ele><time>2026-04-03T08:17:41.999Z</time></trkpt><trkpt lat="44.82111944740245" lon="8.828618587123197"><ele>153.0</ele><time>2026-04-03T08:17:42.999Z</time></trkpt><trkpt lat="44.82083713016072" lon="8.828647866645852"><ele>153.5</ele><time>2026-04-03T08:17:43.999Z</time></trkpt><trkpt lat="44.820558226529954" lon="8.828672763982649"><ele>154.0</ele><time>2026-04-03T08:17:44.999Z</time></trkpt><trkpt lat="44.820279922565014" lon="8.828693851395458"><ele>154.0</ele><time>2026-04-03T08:17:45.999Z</time></trkpt><trkpt lat="44.82000407852706" lon="8.828715784897332"><ele>154.0</ele><time>2026-04-03T08:17:46.999Z</time></trkpt><trkpt lat="44.81973123368284" lon="8.828742148727393"><ele>154.0</ele><time>2026-04-03T08:17:47.999Z</time></trkpt><trkpt lat="44.819459053818704" lon="8.828769649252477"><ele>154.0</ele><time>2026-04-03T08:17:48.999Z</time></trkpt><trkpt lat="44.819188212279364" lon="8.828795823406317"><ele>155.5</ele><time>2026-04-03T08:17:49.999Z</time></trkpt><trkpt lat="44.81891790174999" lon="8.828820364928054"><ele>157.0</ele><time>2026-04-03T08:17:50.999Z</time></trkpt><trkpt lat="44.81864707123571" lon="8.828847615459765"><ele>156.5</ele><time>2026-04-03T08:17:51.999Z</time></trkpt><trkpt lat="44.81837701193775" lon="8.828872625062962"><ele>156.0</ele><time>2026-04-03T08:17:52.999Z</time></trkpt><trkpt lat="44.81810520360691" lon="8.828900123018574"><ele>156.0</ele><time>2026-04-03T08:17:53.999Z</time></trkpt><trkpt lat="44.81783167343746" lon="8.828926204278709"><ele>156.0</ele><time>2026-04-03T08:17:54.999Z</time></trkpt><trkpt lat="44.81755595137096" lon="8.828952622334613"><ele>157.0</ele><time>2026-04-03T08:17:55.999Z</time></trkpt><trkpt lat="44.81728318272687" lon="8.828978192537075"><ele>158.0</ele><time>2026-04-03T08:17:56.999Z</time></trkpt><trkpt lat="44.81700807848833" lon="8.829004718847825"><ele>158.5</ele><time>2026-04-03T08:17:57.999Z</time></trkpt><trkpt lat="44.816735039209114" lon="8.82903187021139"><ele>159.0</ele><time>2026-04-03T08:17:58.999Z</time></trkpt><trkpt lat="44.816461833678666" lon="8.829058053270824"><ele>159.0</ele><time>2026-04-03T08:17:59.999Z</time></trkpt><trkpt lat="44.81618718002104" lon="8.829085429042474"><ele>159.0</ele><time>2026-04-03T08:18:01Z</time></trkpt><trkpt lat="44.815913604963114" lon="8.82911101070002"><ele>159.5</ele><time>2026-04-03T08:18:02Z</time></trkpt><trkpt lat="44.81564285626935" lon="8.829138688860445"><ele>160.0</ele><time>2026-04-03T08:18:03Z</time></trkpt><trkpt lat="44.815368846206525" lon="8.829159998981826"><ele>159.0</ele><time>2026-04-03T08:18:04Z</time></trkpt><trkpt lat="44.81509398066457" lon="8.829186711669557"><ele>158.0</ele><time>2026-04-03T08:18:05Z</time></trkpt><trkpt lat="44.814822174221895" lon="8.829210464680065"><ele>158.0</ele><time>2026-04-03T08:18:06Z</time></trkpt><trkpt lat="44.814548872672106" lon="8.829234421698336"><ele>158.0</ele><time>2026-04-03T08:18:07Z</time></trkpt><trkpt lat="44.814273604325756" lon="8.829259344032385"><ele>159.5</ele><time>2026-04-03T08:18:08Z</time></trkpt><trkpt lat="44.813998956500726" lon="8.829286420267243"><ele>161.0</ele><time>2026-04-03T08:18:09Z</time></trkpt><trkpt lat="44.81372367050841" lon="8.829312441382886"><ele>161.0</ele><time>2026-04-03T08:18:10Z</time></trkpt><trkpt lat="44.81344763535337" lon="8.829338844538587"><ele>161.0</ele><time>2026-04-03T08:18:11Z</time></trkpt><trkpt lat="44.81317141996551" lon="8.829364152586546"><ele>161.0</ele><time>2026-04-03T08:18:12Z</time></trkpt><trkpt lat="44.812898584961374" lon="8.829389171443482"><ele>161.0</ele><time>2026-04-03T08:18:13Z</time></trkpt><trkpt lat="44.81262450883674" lon="8.829411927437915"><ele>161.0</ele><time>2026-04-03T08:18:14Z</time></trkpt><trkpt lat="44.81235414024974" lon="8.829435248401937"><ele>161.0</ele><time>2026-04-03T08:18:15Z</time></trkpt><trkpt lat="44.812083284091834" lon="8.829461087052414"><ele>161.5</ele><time>2026-04-03T08:18:16Z</time></trkpt><trkpt lat="44.811813975694925" lon="8.829490035697926"><ele>162.0</ele><time>2026-04-03T08:18:17Z</time></trkpt><trkpt lat="44.811544224099066" lon="8.829521330875057"><ele>162.0</ele><time>2026-04-03T08:18:18Z</time></trkpt><trkpt lat="44.81127318917771" lon="8.829555142285495"><ele>162.0</ele><time>2026-04-03T08:18:19Z</time></trkpt><trkpt lat="44.8110018019834" lon="8.829588955642038"><ele>162.0</ele><time>2026-04-03T08:18:20Z</time></trkpt><trkpt lat="44.810729875427334" lon="8.829623294475578"><ele>162.0</ele><time>2026-04-03T08:18:21Z</time></trkpt><trkpt lat="44.81045700645288" lon="8.829649225836897"><ele>162.0</ele><time>2026-04-03T08:18:22Z</time></trkpt><trkpt lat="44.81018403126408" lon="8.829675522643932"><ele>162.0</ele><time>2026-04-03T08:18:23Z</time></trkpt><trkpt lat="44.809912027741746" lon="8.82969909341884"><ele>162.0</ele><time>2026-04-03T08:18:24Z</time></trkpt><trkpt lat="44.809642758405644" lon="8.829722203034828"><ele>162.0</ele><time>2026-04-03T08:18:25Z</time></trkpt><trkpt lat="44.80937501222052" lon="8.829746736136661"><ele>161.5</ele><time>2026-04-03T08:18:26Z</time></trkpt><trkpt lat="44.809108325585036" lon="8.829775120678319"><ele>161.0</ele><time>2026-04-03T08:18:27Z</time></trkpt><trkpt lat="44.808843427122774" lon="8.829804340291606"><ele>161.0</ele><time>2026-04-03T08:18:28Z</time></trkpt><trkpt lat="44.80857794795855" lon="8.829840863694605"><ele>161.0</ele><time>2026-04-03T08:18:29Z</time></trkpt><trkpt lat="44.808315318964794" lon="8.82987831966086"><ele>162.0</ele><time>2026-04-03T08:18:30Z</time></trkpt><trkpt lat="44.80805371476377" lon="8.8299239475615"><ele>163.0</ele><time>2026-04-03T08:18:31Z</time></trkpt><trkpt lat="44.80779159425421" lon="8.829973441005556"><ele>164.0</ele><time>2026-04-03T08:18:32Z</time></trkpt><trkpt lat="44.807531060940086" lon="8.83002791495163"><ele>165.0</ele><time>2026-04-03T08:18:33Z</time></trkpt><trkpt lat="44.80727064808986" lon="8.830088275368217"><ele>165.0</ele><time>2026-04-03T08:18:34Z</time></trkpt><trkpt lat="44.80701189717712" lon="8.830150554732658"><ele>165.0</ele><time>2026-04-03T08:18:35Z</time></trkpt><trkpt lat="44.80675449142156" lon="8.83021903588592"><ele>165.0</ele><time>2026-04-03T08:18:36Z</time></trkpt><trkpt lat="44.80649574454363" lon="8.830290017272795"><ele>165.0</ele><time>2026-04-03T08:18:37Z</time></trkpt><trkpt lat="44.806235276953835" lon="8.830365394919767"><ele>165.0</ele><time>2026-04-03T08:18:38Z</time></trkpt><trkpt lat="44.805975463971386" lon="8.830444005182018"><ele>165.0</ele><time>2026-04-03T08:18:39Z</time></trkpt><trkpt lat="44.80571738802914" lon="8.830522039147413"><ele>165.0</ele><time>2026-04-03T08:18:40Z</time></trkpt><trkpt lat="44.80545938121984" lon="8.830603204259297"><ele>165.0</ele><time>2026-04-03T08:18:41Z</time></trkpt><trkpt lat="44.805199390353366" lon="8.830687239657866"><ele>166.0</ele><time>2026-04-03T08:18:42Z</time></trkpt><trkpt lat="44.80493982913441" lon="8.830773542940648"><ele>167.0</ele><time>2026-04-03T08:18:43Z</time></trkpt><trkpt lat="44.80467687165224" lon="8.83086276266878"><ele>167.0</ele><time>2026-04-03T08:18:44Z</time></trkpt><trkpt lat="44.80441609480074" lon="8.830947943689115"><ele>167.0</ele><time>2026-04-03T08:18:45Z</time></trkpt><trkpt lat="44.80415442220302" lon="8.831033786128744"><ele>167.0</ele><time>2026-04-03T08:18:46Z</time></trkpt><trkpt lat="44.803891918703755" lon="8.831120744262083"><ele>167.0</ele><time>2026-04-03T08:18:47Z</time></trkpt><trkpt lat="44.80363254190231" lon="8.831207150038782"><ele>168.0</ele><time>2026-04-03T08:18:48Z</time></trkpt><trkpt lat="44.803372493920186" lon="8.83129370350016"><ele>169.0</ele><time>2026-04-03T08:18:49Z</time></trkpt><trkpt lat="44.803111869970046" lon="8.831379510748764"><ele>169.0</ele><time>2026-04-03T08:18:50Z</time></trkpt><trkpt lat="44.802851123793516" lon="8.83146636153133"><ele>169.0</ele><time>2026-04-03T08:18:51Z</time></trkpt><trkpt lat="44.80259249830373" lon="8.831552570829494"><ele>169.5</ele><time>2026-04-03T08:18:52Z</time></trkpt><trkpt lat="44.802332714367935" lon="8.83163902086899"><ele>170.0</ele><time>2026-04-03T08:18:53Z</time></trkpt><trkpt lat="44.80206627145087" lon="8.831728475841356"><ele>169.0</ele><time>2026-04-03T08:18:54Z</time></trkpt><trkpt lat="44.80180682617485" lon="8.831811897955268"><ele>168.0</ele><time>2026-04-03T08:18:55Z</time></trkpt><trkpt lat="44.80154547593016" lon="8.831896214710877"><ele>168.0</ele><time>2026-04-03T08:18:56Z</time></trkpt><trkpt lat="44.801282958980835" lon="8.831978433310072"><ele>168.0</ele><time>2026-04-03T08:18:57Z</time></trkpt><trkpt lat="44.80102239111878" lon="8.832055602429833"><ele>169.0</ele><time>2026-04-03T08:18:58Z</time></trkpt><trkpt lat="44.800760789136724" lon="8.832133313686214"><ele>170.0</ele><time>2026-04-03T08:18:59Z</time></trkpt><trkpt lat="44.80049943194023" lon="8.832205920819725"><ele>170.0</ele><time>2026-04-03T08:19:00Z</time></trkpt><trkpt lat="44.8002355793879" lon="8.832274515486516"><ele>170.0</ele><time>2026-04-03T08:19:01Z</time></trkpt><trkpt lat="44.79997061905551" lon="8.8323343346938"><ele>169.0</ele><time>2026-04-03T08:19:02Z</time></trkpt><trkpt lat="44.79970374955015" lon="8.832389074386839"><ele>168.0</ele><time>2026-04-03T08:19:03Z</time></trkpt><trkpt lat="44.79943529336736" lon="8.832444641968152"><ele>168.5</ele><time>2026-04-03T08:19:04Z</time></trkpt><trkpt lat="44.79916829727504" lon="8.832495367482467"><ele>169.0</ele><time>2026-04-03T08:19:05Z</time></trkpt><trkpt lat="44.79889706081521" lon="8.832548804373687"><ele>169.0</ele><time>2026-04-03T08:19:06Z</time></trkpt><trkpt lat="44.79862831933111" lon="8.832596818419072"><ele>169.0</ele><time>2026-04-03T08:19:07Z</time></trkpt><trkpt lat="44.79835784514164" lon="8.832645729656758"><ele>170.0</ele><time>2026-04-03T08:19:08Z</time></trkpt><trkpt lat="44.79808444734593" lon="8.832696923921189"><ele>171.0</ele><time>2026-04-03T08:19:09Z</time></trkpt><trkpt lat="44.79781195385811" lon="8.83274896910924"><ele>171.5</ele><time>2026-04-03T08:19:10Z</time></trkpt><trkpt lat="44.797541854785884" lon="8.832797347510365"><ele>172.0</ele><time>2026-04-03T08:19:11Z</time></trkpt><trkpt lat="44.79726812812706" lon="8.83284696614879"><ele>172.0</ele><time>2026-04-03T08:19:12Z</time></trkpt><trkpt lat="44.79699353204433" lon="8.83289626625308"><ele>172.0</ele><time>2026-04-03T08:19:13Z</time></trkpt><trkpt lat="44.79671886878212" lon="8.832943422446565"><ele>171.0</ele><time>2026-04-03T08:19:13.999Z</time></trkpt><trkpt lat="44.796443078600866" lon="8.832989358345278"><ele>170.0</ele><time>2026-04-03T08:19:14.999Z</time></trkpt><trkpt lat="44.796168239922444" lon="8.833034036118283"><ele>171.0</ele><time>2026-04-03T08:19:15.999Z</time></trkpt><trkpt lat="44.79589398118852" lon="8.833079830572254"><ele>172.0</ele><time>2026-04-03T08:19:16.999Z</time></trkpt><trkpt lat="44.79561947323427" lon="8.833130109191389"><ele>172.0</ele><time>2026-04-03T08:19:17.999Z</time></trkpt><trkpt lat="44.79534750160885" lon="8.83317898339133"><ele>172.0</ele><time>2026-04-03T08:19:18.999Z</time></trkpt><trkpt lat="44.79507591488991" lon="8.833227778311747"><ele>172.5</ele><time>2026-04-03T08:19:19.999Z</time></trkpt><trkpt lat="44.79480213632807" lon="8.833277833757753"><ele>173.0</ele><time>2026-04-03T08:19:20.999Z</time></trkpt><trkpt lat="44.794530873695024" lon="8.83332850140387"><ele>173.5</ele><time>2026-04-03T08:19:21.999Z</time></trkpt><trkpt lat="44.79425783232768" lon="8.833378988209171"><ele>174.0</ele><time>2026-04-03T08:19:22.999Z</time></trkpt><trkpt lat="44.793986652961095" lon="8.833428313508223"><ele>174.0</ele><time>2026-04-03T08:19:23.999Z</time></trkpt><trkpt lat="44.79371505967084" lon="8.83347834978885"><ele>174.0</ele><time>2026-04-03T08:19:24.999Z</time></trkpt><trkpt lat="44.793447281906445" lon="8.83352628148838"><ele>174.0</ele><time>2026-04-03T08:19:25.999Z</time></trkpt><trkpt lat="44.793177825781186" lon="8.833579299580958"><ele>174.0</ele><time>2026-04-03T08:19:26.999Z</time></trkpt><trkpt lat="44.79291134360738" lon="8.833641297690297"><ele>175.0</ele><time>2026-04-03T08:19:27.999Z</time></trkpt><trkpt lat="44.79264015329009" lon="8.833703498234708"><ele>176.0</ele><time>2026-04-03T08:19:28.999Z</time></trkpt><trkpt lat="44.7923722971212" lon="8.833757298532372"><ele>176.0</ele><time>2026-04-03T08:19:29.999Z</time></trkpt><trkpt lat="44.792102017335445" lon="8.83380454550741"><ele>176.0</ele><time>2026-04-03T08:19:30.999Z</time></trkpt><trkpt lat="44.79182828870156" lon="8.833851571902368"><ele>175.0</ele><time>2026-04-03T08:19:31.999Z</time></trkpt><trkpt lat="44.7915533578631" lon="8.833898272268573"><ele>174.0</ele><time>2026-04-03T08:19:32.999Z</time></trkpt><trkpt lat="44.79128215883233" lon="8.833945264102447"><ele>174.0</ele><time>2026-04-03T08:19:33.999Z</time></trkpt><trkpt lat="44.791008697061685" lon="8.833994842990684"><ele>174.0</ele><time>2026-04-03T08:19:34.999Z</time></trkpt><trkpt lat="44.790737014466686" lon="8.834047279114698"><ele>174.5</ele><time>2026-04-03T08:19:35.999Z</time></trkpt><trkpt lat="44.79046153957405" lon="8.834097313735544"><ele>175.0</ele><time>2026-04-03T08:19:36.999Z</time></trkpt><trkpt lat="44.79018675646823" lon="8.834144811149516"><ele>174.0</ele><time>2026-04-03T08:19:37.999Z</time></trkpt><trkpt lat="44.789913594979886" lon="8.834191922368648"><ele>173.0</ele><time>2026-04-03T08:19:38.999Z</time></trkpt><trkpt lat="44.78963994756345" lon="8.834239951498349"><ele>173.0</ele><time>2026-04-03T08:19:39.999Z</time></trkpt><trkpt lat="44.78936591723891" lon="8.834289062119272"><ele>173.0</ele><time>2026-04-03T08:19:40.999Z</time></trkpt><trkpt lat="44.7890940376323" lon="8.8343346977264"><ele>175.0</ele><time>2026-04-03T08:19:41.999Z</time></trkpt><trkpt lat="44.788823211242985" lon="8.834385083065527"><ele>177.0</ele><time>2026-04-03T08:19:42.999Z</time></trkpt><trkpt lat="44.78855577913405" lon="8.834434151288706"><ele>177.5</ele><time>2026-04-03T08:19:43.999Z</time></trkpt><trkpt lat="44.78828352910651" lon="8.834483738881039"><ele>178.0</ele><time>2026-04-03T08:19:44.999Z</time></trkpt><trkpt lat="44.788014230891285" lon="8.834531760444204"><ele>178.0</ele><time>2026-04-03T08:19:45.999Z</time></trkpt><trkpt lat="44.78774570002882" lon="8.834574265505104"><ele>178.0</ele><time>2026-04-03T08:19:46.999Z</time></trkpt><trkpt lat="44.78747412230092" lon="8.834614870476026"><ele>178.5</ele><time>2026-04-03T08:19:47.999Z</time></trkpt><trkpt lat="44.78720645356118" lon="8.83465769495996"><ele>179.0</ele><time>2026-04-03T08:19:48.999Z</time></trkpt><trkpt lat="44.78693445430181" lon="8.834702691265868"><ele>179.0</ele><time>2026-04-03T08:19:49.999Z</time></trkpt><trkpt lat="44.78666602916841" lon="8.83475252367238"><ele>179.0</ele><time>2026-04-03T08:19:50.999Z</time></trkpt><trkpt lat="44.786396772773514" lon="8.834801496820054"><ele>179.0</ele><time>2026-04-03T08:19:51.999Z</time></trkpt><trkpt lat="44.786126460665905" lon="8.83485313193773"><ele>179.0</ele><time>2026-04-03T08:19:52.999Z</time></trkpt><trkpt lat="44.78585571556203" lon="8.834904072555537"><ele>178.5</ele><time>2026-04-03T08:19:53.999Z</time></trkpt><trkpt lat="44.785583256347394" lon="8.83495407353526"><ele>178.0</ele><time>2026-04-03T08:19:54.999Z</time></trkpt><trkpt lat="44.78531075170325" lon="8.835003236683908"><ele>179.0</ele><time>2026-04-03T08:19:55.999Z</time></trkpt><trkpt lat="44.785037454861005" lon="8.835050365164502"><ele>180.0</ele><time>2026-04-03T08:19:56.999Z</time></trkpt><trkpt lat="44.78476728981607" lon="8.835095059395483"><ele>180.0</ele><time>2026-04-03T08:19:57.999Z</time></trkpt><trkpt lat="44.78449292077827" lon="8.83513354885732"><ele>180.0</ele><time>2026-04-03T08:19:58.999Z</time></trkpt><trkpt lat="44.78422155804356" lon="8.835168858185659"><ele>179.5</ele><time>2026-04-03T08:19:59.999Z</time></trkpt><trkpt lat="44.783949300799996" lon="8.835206220330916"><ele>179.0</ele><time>2026-04-03T08:20:00.999Z</time></trkpt><trkpt lat="44.78367851689675" lon="8.835251258121279"><ele>180.0</ele><time>2026-04-03T08:20:01.999Z</time></trkpt><trkpt lat="44.783407606301076" lon="8.835300588103523"><ele>181.0</ele><time>2026-04-03T08:20:02.999Z</time></trkpt><trkpt lat="44.78313815983148" lon="8.835350323985972"><ele>181.0</ele><time>2026-04-03T08:20:03.999Z</time></trkpt><trkpt lat="44.78286965389169" lon="8.835398529386321"><ele>181.0</ele><time>2026-04-03T08:20:04.999Z</time></trkpt><trkpt lat="44.78260020069729" lon="8.835444881245426"><ele>180.5</ele><time>2026-04-03T08:20:05.999Z</time></trkpt><trkpt lat="44.782327111226095" lon="8.835490051715704"><ele>180.0</ele><time>2026-04-03T08:20:07Z</time></trkpt><trkpt lat="44.782056977206835" lon="8.835534306858547"><ele>180.5</ele><time>2026-04-03T08:20:08Z</time></trkpt><trkpt lat="44.781786438832654" lon="8.835582295425217"><ele>181.0</ele><time>2026-04-03T08:20:09Z</time></trkpt><trkpt lat="44.78151542068634" lon="8.835630746504274"><ele>181.0</ele><time>2026-04-03T08:20:10Z</time></trkpt><trkpt lat="44.781241312878045" lon="8.835680398386074"><ele>181.0</ele><time>2026-04-03T08:20:11Z</time></trkpt><trkpt lat="44.78096803251332" lon="8.835729798977875"><ele>182.5</ele><time>2026-04-03T08:20:12Z</time></trkpt><trkpt lat="44.78069762527016" lon="8.835777995800331"><ele>184.0</ele><time>2026-04-03T08:20:13Z</time></trkpt><trkpt lat="44.78042442060387" lon="8.835825615353231"><ele>182.5</ele><time>2026-04-03T08:20:14Z</time></trkpt><trkpt lat="44.78015049802808" lon="8.835873308516323"><ele>181.0</ele><time>2026-04-03T08:20:15Z</time></trkpt><trkpt lat="44.77987498934032" lon="8.835920472913552"><ele>181.0</ele><time>2026-04-03T08:20:16Z</time></trkpt><trkpt lat="44.77959931916244" lon="8.835961010946738"><ele>181.0</ele><time>2026-04-03T08:20:17Z</time></trkpt><trkpt lat="44.77932548599883" lon="8.8359934587709"><ele>181.0</ele><time>2026-04-03T08:20:18Z</time></trkpt><trkpt lat="44.77904760518574" lon="8.836021835719508"><ele>181.0</ele><time>2026-04-03T08:20:19Z</time></trkpt><trkpt lat="44.778769299475194" lon="8.836044952408711"><ele>182.0</ele><time>2026-04-03T08:20:20Z</time></trkpt><trkpt lat="44.778491666261786" lon="8.836067500527445"><ele>183.0</ele><time>2026-04-03T08:20:21Z</time></trkpt><trkpt lat="44.778214638371296" lon="8.836090943861704"><ele>183.0</ele><time>2026-04-03T08:20:22Z</time></trkpt><trkpt lat="44.77793331711722" lon="8.836118928807545"><ele>183.0</ele><time>2026-04-03T08:20:23Z</time></trkpt><trkpt lat="44.777655934133655" lon="8.836145596518833"><ele>183.5</ele><time>2026-04-03T08:20:24Z</time></trkpt><trkpt lat="44.77738035488047" lon="8.836171571375733"><ele>184.0</ele><time>2026-04-03T08:20:25Z</time></trkpt><trkpt lat="44.77710594980194" lon="8.836196304959632"><ele>183.0</ele><time>2026-04-03T08:20:26Z</time></trkpt><trkpt lat="44.776833376303195" lon="8.836221959509404"><ele>182.0</ele><time>2026-04-03T08:20:27Z</time></trkpt><trkpt lat="44.776563400968904" lon="8.836247592104675"><ele>182.0</ele><time>2026-04-03T08:20:28Z</time></trkpt><trkpt lat="44.77629520123958" lon="8.836272914421722"><ele>182.0</ele><time>2026-04-03T08:20:29Z</time></trkpt><trkpt lat="44.77603242182714" lon="8.836298583336253"><ele>182.5</ele><time>2026-04-03T08:20:30Z</time></trkpt><trkpt lat="44.7757673428531" lon="8.836322611117874"><ele>183.0</ele><time>2026-04-03T08:20:31Z</time></trkpt><trkpt lat="44.775506771207446" lon="8.836346019718782"><ele>183.0</ele><time>2026-04-03T08:20:32Z</time></trkpt><trkpt lat="44.77524843666831" lon="8.836374140213755"><ele>183.0</ele><time>2026-04-03T08:20:33Z</time></trkpt><trkpt lat="44.7749877256759" lon="8.836405861531366"><ele>183.0</ele><time>2026-04-03T08:20:34Z</time></trkpt><trkpt lat="44.77472435251277" lon="8.836442706082613"><ele>183.0</ele><time>2026-04-03T08:20:35Z</time></trkpt><trkpt lat="44.7744628355517" lon="8.83647818155026"><ele>183.5</ele><time>2026-04-03T08:20:36Z</time></trkpt><trkpt lat="44.774198808372006" lon="8.836507482553493"><ele>184.0</ele><time>2026-04-03T08:20:37Z</time></trkpt><trkpt lat="44.773932003851236" lon="8.836533118817655"><ele>184.0</ele><time>2026-04-03T08:20:38Z</time></trkpt><trkpt lat="44.773664666908466" lon="8.836555845727283"><ele>184.0</ele><time>2026-04-03T08:20:39Z</time></trkpt><trkpt lat="44.77339810280987" lon="8.836576455744844"><ele>185.0</ele><time>2026-04-03T08:20:40Z</time></trkpt><trkpt lat="44.7731286440106" lon="8.836598847423444"><ele>186.0</ele><time>2026-04-03T08:20:41Z</time></trkpt><trkpt lat="44.77286395945211" lon="8.836622372806874"><ele>187.0</ele><time>2026-04-03T08:20:42Z</time></trkpt><trkpt lat="44.772598039940604" lon="8.836646610092053"><ele>188.0</ele><time>2026-04-03T08:20:43Z</time></trkpt><trkpt lat="44.77233287179702" lon="8.836670005340833"><ele>188.0</ele><time>2026-04-03T08:20:44Z</time></trkpt><trkpt lat="44.772070136154205" lon="8.836695078562977"><ele>188.0</ele><time>2026-04-03T08:20:45Z</time></trkpt><trkpt lat="44.77180620716765" lon="8.836719254651852"><ele>188.0</ele><time>2026-04-03T08:20:46Z</time></trkpt><trkpt lat="44.771545378581216" lon="8.83674325867878"><ele>188.0</ele><time>2026-04-03T08:20:47Z</time></trkpt><trkpt lat="44.771284155002505" lon="8.836764152618466"><ele>188.5</ele><time>2026-04-03T08:20:48Z</time></trkpt><trkpt lat="44.77101962786947" lon="8.836779603167713"><ele>189.0</ele><time>2026-04-03T08:20:49Z</time></trkpt><trkpt lat="44.77075204166313" lon="8.83678806371789"><ele>189.0</ele><time>2026-04-03T08:20:50Z</time></trkpt><trkpt lat="44.77048199913221" lon="8.836795923029477"><ele>189.0</ele><time>2026-04-03T08:20:51Z</time></trkpt><trkpt lat="44.77021078855522" lon="8.8368129058341"><ele>188.5</ele><time>2026-04-03T08:20:52Z</time></trkpt><trkpt lat="44.769932810822944" lon="8.836837510059825"><ele>188.0</ele><time>2026-04-03T08:20:53Z</time></trkpt><trkpt lat="44.76965486494338" lon="8.836864239265626"><ele>188.0</ele><time>2026-04-03T08:20:54Z</time></trkpt><trkpt lat="44.76937655605644" lon="8.836891029440757"><ele>188.0</ele><time>2026-04-03T08:20:55Z</time></trkpt><trkpt lat="44.76909896884501" lon="8.836917875578125"><ele>188.0</ele><time>2026-04-03T08:20:56Z</time></trkpt><trkpt lat="44.76882380799178" lon="8.83694232233216"><ele>188.0</ele><time>2026-04-03T08:20:57Z</time></trkpt><trkpt lat="44.768545231443824" lon="8.836967864799517"><ele>187.0</ele><time>2026-04-03T08:20:58Z</time></trkpt><trkpt lat="44.768267532325275" lon="8.836994338953188"><ele>186.0</ele><time>2026-04-03T08:20:59Z</time></trkpt><trkpt lat="44.76798937825317" lon="8.837021741585772"><ele>186.0</ele><time>2026-04-03T08:21:00Z</time></trkpt><trkpt lat="44.76771308638752" lon="8.837045699618544"><ele>186.0</ele><time>2026-04-03T08:21:01Z</time></trkpt><trkpt lat="44.767433856062716" lon="8.83707152257176"><ele>188.0</ele><time>2026-04-03T08:21:02Z</time></trkpt><trkpt lat="44.76715811586371" lon="8.837096208764681"><ele>190.0</ele><time>2026-04-03T08:21:03Z</time></trkpt><trkpt lat="44.766881778499815" lon="8.837120897133845"><ele>190.5</ele><time>2026-04-03T08:21:04Z</time></trkpt><trkpt lat="44.76660829151603" lon="8.837142180423465"><ele>191.0</ele><time>2026-04-03T08:21:05Z</time></trkpt><trkpt lat="44.76633287735775" lon="8.837166811252462"><ele>191.0</ele><time>2026-04-03T08:21:06Z</time></trkpt><trkpt lat="44.76605970171928" lon="8.83719078721192"><ele>191.0</ele><time>2026-04-03T08:21:07Z</time></trkpt><trkpt lat="44.76578705941544" lon="8.83721530651028"><ele>190.5</ele><time>2026-04-03T08:21:08Z</time></trkpt><trkpt lat="44.765514397394575" lon="8.837242869924115"><ele>190.0</ele><time>2026-04-03T08:21:09Z</time></trkpt><trkpt lat="44.76524385608034" lon="8.837271239565084"><ele>190.0</ele><time>2026-04-03T08:21:10Z</time></trkpt><trkpt lat="44.76497381498718" lon="8.837299454096497"><ele>190.0</ele><time>2026-04-03T08:21:11Z</time></trkpt><trkpt lat="44.76470664920791" lon="8.837327200640663"><ele>190.0</ele><time>2026-04-03T08:21:12Z</time></trkpt><trkpt lat="44.76443854209877" lon="8.837352770561514"><ele>190.0</ele><time>2026-04-03T08:21:13Z</time></trkpt><trkpt lat="44.76417013383505" lon="8.837377159335771"><ele>190.5</ele><time>2026-04-03T08:21:14Z</time></trkpt><trkpt lat="44.76389991986851" lon="8.837401883475186"><ele>191.0</ele><time>2026-04-03T08:21:14.999Z</time></trkpt><trkpt lat="44.76363167266474" lon="8.837426573826711"><ele>191.5</ele><time>2026-04-03T08:21:15.999Z</time></trkpt><trkpt lat="44.76336209044704" lon="8.83745139937571"><ele>192.0</ele><time>2026-04-03T08:21:16.999Z</time></trkpt><trkpt lat="44.76309088835107" lon="8.837475538863252"><ele>192.0</ele><time>2026-04-03T08:21:17.999Z</time></trkpt><trkpt lat="44.76282111018767" lon="8.837500506274477"><ele>192.0</ele><time>2026-04-03T08:21:18.999Z</time></trkpt><trkpt lat="44.76255307141655" lon="8.83752554050741"><ele>192.0</ele><time>2026-04-03T08:21:19.999Z</time></trkpt><trkpt lat="44.76228237776927" lon="8.83755085199687"><ele>192.0</ele><time>2026-04-03T08:21:20.999Z</time></trkpt><trkpt lat="44.76201572097936" lon="8.837575009097772"><ele>192.0</ele><time>2026-04-03T08:21:21.999Z</time></trkpt><trkpt lat="44.761751136115045" lon="8.837603743470616"><ele>192.0</ele><time>2026-04-03T08:21:22.999Z</time></trkpt><trkpt lat="44.7614864340714" lon="8.837641181314538"><ele>192.5</ele><time>2026-04-03T08:21:23.999Z</time></trkpt><trkpt lat="44.76122271727313" lon="8.837682269599208"><ele>193.0</ele><time>2026-04-03T08:21:24.999Z</time></trkpt><trkpt lat="44.760954182102196" lon="8.837718813678213"><ele>193.5</ele><time>2026-04-03T08:21:25.999Z</time></trkpt><trkpt lat="44.76068845300544" lon="8.83775346609571"><ele>194.0</ele><time>2026-04-03T08:21:26.999Z</time></trkpt><trkpt lat="44.7604212953106" lon="8.837792969947055"><ele>194.5</ele><time>2026-04-03T08:21:27.999Z</time></trkpt><trkpt lat="44.760159120807884" lon="8.837841565159898"><ele>195.0</ele><time>2026-04-03T08:21:28.999Z</time></trkpt><trkpt lat="44.759894411065936" lon="8.837894548639905"><ele>195.0</ele><time>2026-04-03T08:21:29.999Z</time></trkpt><trkpt lat="44.75963332926717" lon="8.837947374811877"><ele>195.0</ele><time>2026-04-03T08:21:30.999Z</time></trkpt><trkpt lat="44.75937119572076" lon="8.838000491869368"><ele>194.5</ele><time>2026-04-03T08:21:31.999Z</time></trkpt><trkpt lat="44.7591088354708" lon="8.838057428088199"><ele>194.0</ele><time>2026-04-03T08:21:32.999Z</time></trkpt><trkpt lat="44.75884829528312" lon="8.83811871661401"><ele>194.0</ele><time>2026-04-03T08:21:33.999Z</time></trkpt><trkpt lat="44.75858829034418" lon="8.838181961948665"><ele>194.0</ele><time>2026-04-03T08:21:34.999Z</time></trkpt><trkpt lat="44.758330421270664" lon="8.838249598781745"><ele>192.5</ele><time>2026-04-03T08:21:35.999Z</time></trkpt><trkpt lat="44.758074051763145" lon="8.838320493421595"><ele>191.0</ele><time>2026-04-03T08:21:36.999Z</time></trkpt><trkpt lat="44.75781741437284" lon="8.838394935575376"><ele>192.5</ele><time>2026-04-03T08:21:37.999Z</time></trkpt><trkpt lat="44.75755915752476" lon="8.838472642708302"><ele>194.0</ele><time>2026-04-03T08:21:38.999Z</time></trkpt><trkpt lat="44.75730176491122" lon="8.8385534496338"><ele>194.0</ele><time>2026-04-03T08:21:39.999Z</time></trkpt><trkpt lat="44.75704162824715" lon="8.838630824006884"><ele>194.0</ele><time>2026-04-03T08:21:40.999Z</time></trkpt><trkpt lat="44.756784167567154" lon="8.838703587407737"><ele>194.5</ele><time>2026-04-03T08:21:41.999Z</time></trkpt><trkpt lat="44.75652481241815" lon="8.838775070249794"><ele>195.0</ele><time>2026-04-03T08:21:42.999Z</time></trkpt><trkpt lat="44.75626718851494" lon="8.838849293503733"><ele>195.5</ele><time>2026-04-03T08:21:43.999Z</time></trkpt><trkpt lat="44.756006593291396" lon="8.838927844213629"><ele>196.0</ele><time>2026-04-03T08:21:44.999Z</time></trkpt><trkpt lat="44.755746039641316" lon="8.839010142511782"><ele>196.0</ele><time>2026-04-03T08:21:45.999Z</time></trkpt><trkpt lat="44.75548087231045" lon="8.839089355438018"><ele>196.0</ele><time>2026-04-03T08:21:46.999Z</time></trkpt><trkpt lat="44.75521946335787" lon="8.839170585174681"><ele>196.5</ele><time>2026-04-03T08:21:47.999Z</time></trkpt><trkpt lat="44.754955945650174" lon="8.839253020107977"><ele>197.0</ele><time>2026-04-03T08:21:48.999Z</time></trkpt><trkpt lat="44.75469369811888" lon="8.839333541609935"><ele>197.0</ele><time>2026-04-03T08:21:49.999Z</time></trkpt><trkpt lat="44.75442974560137" lon="8.839414031270534"><ele>197.0</ele><time>2026-04-03T08:21:50.999Z</time></trkpt><trkpt lat="44.75416724108739" lon="8.839491946038265"><ele>197.5</ele><time>2026-04-03T08:21:51.999Z</time></trkpt><trkpt lat="44.75390489978199" lon="8.839569925966387"><ele>198.0</ele><time>2026-04-03T08:21:52.999Z</time></trkpt><trkpt lat="44.75364105538109" lon="8.839647266822924"><ele>198.0</ele><time>2026-04-03T08:21:53.999Z</time></trkpt><trkpt lat="44.75337671061781" lon="8.839728448285939"><ele>198.0</ele><time>2026-04-03T08:21:54.999Z</time></trkpt><trkpt lat="44.753113013077694" lon="8.83980891387146"><ele>198.0</ele><time>2026-04-03T08:21:55.999Z</time></trkpt><trkpt lat="44.75284660271345" lon="8.839885228691688"><ele>198.0</ele><time>2026-04-03T08:21:56.999Z</time></trkpt><trkpt lat="44.75258107771253" lon="8.839957122538282"><ele>198.0</ele><time>2026-04-03T08:21:57.999Z</time></trkpt><trkpt lat="44.75231418598216" lon="8.840027008165873"><ele>198.0</ele><time>2026-04-03T08:21:58.999Z</time></trkpt><trkpt lat="44.75204577292532" lon="8.84010701092718"><ele>199.0</ele><time>2026-04-03T08:21:59.999Z</time></trkpt><trkpt lat="44.75178023446076" lon="8.840193491388268"><ele>200.0</ele><time>2026-04-03T08:22:00.999Z</time></trkpt><trkpt lat="44.75151523328878" lon="8.840285124247645"><ele>200.0</ele><time>2026-04-03T08:22:01.999Z</time></trkpt><trkpt lat="44.75125066306787" lon="8.840381708953803"><ele>200.0</ele><time>2026-04-03T08:22:02.999Z</time></trkpt><trkpt lat="44.75098706016428" lon="8.840485861811839"><ele>200.0</ele><time>2026-04-03T08:22:03.999Z</time></trkpt><trkpt lat="44.750724465449665" lon="8.840593820105148"><ele>200.0</ele><time>2026-04-03T08:22:04.999Z</time></trkpt><trkpt lat="44.75046323807954" lon="8.84070338568785"><ele>200.5</ele><time>2026-04-03T08:22:05.999Z</time></trkpt><trkpt lat="44.75020146734634" lon="8.840817542970708"><ele>201.0</ele><time>2026-04-03T08:22:06.999Z</time></trkpt><trkpt lat="44.74994229581074" lon="8.840934287847137"><ele>200.5</ele><time>2026-04-03T08:22:07.999Z</time></trkpt><trkpt lat="44.749683246688434" lon="8.8410532127521"><ele>200.0</ele><time>2026-04-03T08:22:08.999Z</time></trkpt><trkpt lat="44.74942373378307" lon="8.841175948177467"><ele>201.5</ele><time>2026-04-03T08:22:09.999Z</time></trkpt><trkpt lat="44.74916698719118" lon="8.841302241202504"><ele>203.0</ele><time>2026-04-03T08:22:10.999Z</time></trkpt><trkpt lat="44.74891040783364" lon="8.841432050052207"><ele>203.0</ele><time>2026-04-03T08:22:12Z</time></trkpt><trkpt lat="44.74865355045239" lon="8.841561435992054"><ele>203.0</ele><time>2026-04-03T08:22:13Z</time></trkpt><trkpt lat="44.74839353452829" lon="8.84168621049076"><ele>202.5</ele><time>2026-04-03T08:22:14Z</time></trkpt><trkpt lat="44.748137274912104" lon="8.841807173575669"><ele>202.0</ele><time>2026-04-03T08:22:15Z</time></trkpt><trkpt lat="44.74788128196246" lon="8.841934316772663"><ele>202.5</ele><time>2026-04-03T08:22:16Z</time></trkpt><trkpt lat="44.74762797641719" lon="8.842063664771741"><ele>203.0</ele><time>2026-04-03T08:22:17Z</time></trkpt><trkpt lat="44.74737486311704" lon="8.842191257667261"><ele>203.0</ele><time>2026-04-03T08:22:18Z</time></trkpt><trkpt lat="44.747118981470116" lon="8.842314403664478"><ele>203.0</ele><time>2026-04-03T08:22:19Z</time></trkpt><trkpt lat="44.746862044948465" lon="8.842437181794766"><ele>202.5</ele><time>2026-04-03T08:22:20Z</time></trkpt><trkpt lat="44.7466046970962" lon="8.842562876532103"><ele>202.0</ele><time>2026-04-03T08:22:21Z</time></trkpt><trkpt lat="44.74635239714119" lon="8.8426880277579"><ele>202.0</ele><time>2026-04-03T08:22:22Z</time></trkpt><trkpt lat="44.74610059696576" lon="8.842813731999303"><ele>202.0</ele><time>2026-04-03T08:22:23Z</time></trkpt><trkpt lat="44.74585249411632" lon="8.842937088852565"><ele>202.5</ele><time>2026-04-03T08:22:24Z</time></trkpt><trkpt lat="44.74561005114533" lon="8.84305580832639"><ele>203.0</ele><time>2026-04-03T08:22:25Z</time></trkpt><trkpt lat="44.745375851193565" lon="8.843170820744064"><ele>203.5</ele><time>2026-04-03T08:22:26Z</time></trkpt><trkpt lat="44.74514774996044" lon="8.84328353699107"><ele>204.0</ele><time>2026-04-03T08:22:27Z</time></trkpt><trkpt lat="44.744925820931535" lon="8.8433934563714"><ele>204.0</ele><time>2026-04-03T08:22:28Z</time></trkpt><trkpt lat="44.74470651181204" lon="8.843499978797318"><ele>204.0</ele><time>2026-04-03T08:22:29Z</time></trkpt><trkpt lat="44.74449286249782" lon="8.84360274867252"><ele>204.0</ele><time>2026-04-03T08:22:30Z</time></trkpt><trkpt lat="44.74428227389847" lon="8.843707725844267"><ele>204.0</ele><time>2026-04-03T08:22:31Z</time></trkpt><trkpt lat="44.74407181747217" lon="8.843813613179051"><ele>204.0</ele><time>2026-04-03T08:22:32Z</time></trkpt><trkpt lat="44.743859828020376" lon="8.843918321032406"><ele>204.0</ele><time>2026-04-03T08:22:33Z</time></trkpt><trkpt lat="44.74365416359588" lon="8.844021607959744"><ele>204.0</ele><time>2026-04-03T08:22:34Z</time></trkpt><trkpt lat="44.74345323239446" lon="8.844127632495733"><ele>204.0</ele><time>2026-04-03T08:22:35Z</time></trkpt><trkpt lat="44.74325828959035" lon="8.84424637214693"><ele>204.33333333333331</ele><time>2026-04-03T08:22:36Z</time></trkpt><trkpt lat="44.74307380651482" lon="8.844371790601365"><ele>204.66666666666666</ele><time>2026-04-03T08:22:37Z</time></trkpt><trkpt lat="44.74288825445177" lon="8.844503654988873"><ele>205.0</ele><time>2026-04-03T08:22:38Z</time></trkpt><trkpt lat="44.74269910547052" lon="8.844643964907894"><ele>205.0</ele><time>2026-04-03T08:22:39Z</time></trkpt><trkpt lat="44.74250719119534" lon="8.84479276732379"><ele>205.0</ele><time>2026-04-03T08:22:40Z</time></trkpt><trkpt lat="44.74231690475494" lon="8.844946416106348"><ele>205.0</ele><time>2026-04-03T08:22:41Z</time></trkpt><trkpt lat="44.74212527211967" lon="8.845110781756693"><ele>205.33333333333331</ele><time>2026-04-03T08:22:42Z</time></trkpt><trkpt lat="44.74193637340866" lon="8.845280062809877"><ele>205.66666666666669</ele><time>2026-04-03T08:22:43Z</time></trkpt><trkpt lat="44.74174859317543" lon="8.845451691715216"><ele>206.0</ele><time>2026-04-03T08:22:44Z</time></trkpt><trkpt lat="44.74156098194838" lon="8.845629067432151"><ele>206.0</ele><time>2026-04-03T08:22:45Z</time></trkpt><trkpt lat="44.741378154146375" lon="8.845821647949101"><ele>206.0</ele><time>2026-04-03T08:22:46Z</time></trkpt><trkpt lat="44.74119824775018" lon="8.846026686222917"><ele>205.5</ele><time>2026-04-03T08:22:47Z</time></trkpt><trkpt lat="44.74101565206641" lon="8.846240560786033"><ele>205.0</ele><time>2026-04-03T08:22:48Z</time></trkpt><trkpt lat="44.740841137050325" lon="8.846456077675818"><ele>205.0</ele><time>2026-04-03T08:22:49Z</time></trkpt><trkpt lat="44.74067500446591" lon="8.846684571285634"><ele>205.0</ele><time>2026-04-03T08:22:50Z</time></trkpt><trkpt lat="44.74051005206582" lon="8.846919249611336"><ele>205.0</ele><time>2026-04-03T08:22:51Z</time></trkpt><trkpt lat="44.74034686544366" lon="8.847152509348494"><ele>205.0</ele><time>2026-04-03T08:22:52Z</time></trkpt><trkpt lat="44.74018210981033" lon="8.84739052130749"><ele>205.0</ele><time>2026-04-03T08:22:53Z</time></trkpt><trkpt lat="44.74002129614794" lon="8.84762919863176"><ele>205.0</ele><time>2026-04-03T08:22:54Z</time></trkpt><trkpt lat="44.73985655031682" lon="8.84787140156973"><ele>205.0</ele><time>2026-04-03T08:22:55Z</time></trkpt><trkpt lat="44.73968741017762" lon="8.848108959531965"><ele>205.0</ele><time>2026-04-03T08:22:56Z</time></trkpt><trkpt lat="44.73951968011238" lon="8.848346089419683"><ele>204.0</ele><time>2026-04-03T08:22:57Z</time></trkpt><trkpt lat="44.73935400317925" lon="8.848581521959376"><ele>203.0</ele><time>2026-04-03T08:22:58Z</time></trkpt><trkpt lat="44.739190407621805" lon="8.848818107199877"><ele>203.0</ele><time>2026-04-03T08:22:59Z</time></trkpt><trkpt lat="44.73902762032828" lon="8.849054452109701"><ele>203.0</ele><time>2026-04-03T08:23:00Z</time></trkpt><trkpt lat="44.73886535130737" lon="8.849290773832486"><ele>202.0</ele><time>2026-04-03T08:23:01Z</time></trkpt><trkpt lat="44.738702077665714" lon="8.849524562344971"><ele>201.0</ele><time>2026-04-03T08:23:02Z</time></trkpt><trkpt lat="44.738533979095614" lon="8.84975310632334"><ele>197.5</ele><time>2026-04-03T08:23:03Z</time></trkpt><trkpt lat="44.73835656143218" lon="8.84997334057876"><ele>194.0</ele><time>2026-04-03T08:23:04Z</time></trkpt><trkpt lat="44.73817373084748" lon="8.850185565164134"><ele>193.5</ele><time>2026-04-03T08:23:05Z</time></trkpt><trkpt lat="44.737988544528406" lon="8.850384973814684"><ele>193.0</ele><time>2026-04-03T08:23:06Z</time></trkpt><trkpt lat="44.737801394936746" lon="8.850582740848823"><ele>193.0</ele><time>2026-04-03T08:23:07Z</time></trkpt><trkpt lat="44.73761721742441" lon="8.850770937099659"><ele>193.0</ele><time>2026-04-03T08:23:08Z</time></trkpt><trkpt lat="44.73742987970481" lon="8.850956804271469"><ele>192.5</ele><time>2026-04-03T08:23:09Z</time></trkpt><trkpt lat="44.737241313213055" lon="8.851135373043167"><ele>192.0</ele><time>2026-04-03T08:23:10Z</time></trkpt><trkpt lat="44.73704856392042" lon="8.851301212995647"><ele>192.0</ele><time>2026-04-03T08:23:11Z</time></trkpt><trkpt lat="44.73685361859388" lon="8.851450793771965"><ele>192.0</ele><time>2026-04-03T08:23:12Z</time></trkpt><trkpt lat="44.73665742628757" lon="8.85159161024934"><ele>192.0</ele><time>2026-04-03T08:23:13Z</time></trkpt><trkpt lat="44.73645990046873" lon="8.851736606233212"><ele>192.0</ele><time>2026-04-03T08:23:14Z</time></trkpt><trkpt lat="44.73626711643162" lon="8.851888548678616"><ele>192.0</ele><time>2026-04-03T08:23:15Z</time></trkpt><trkpt lat="44.73607650265893" lon="8.852042277770941"><ele>192.0</ele><time>2026-04-03T08:23:15.999Z</time></trkpt><trkpt lat="44.735888995018634" lon="8.852190724023046"><ele>192.66666666666669</ele><time>2026-04-03T08:23:16.999Z</time></trkpt><trkpt lat="44.73570311690327" lon="8.85233647851983"><ele>193.33333333333334</ele><time>2026-04-03T08:23:17.999Z</time></trkpt><trkpt lat="44.73551936124943" lon="8.85247842473235"><ele>194.0</ele><time>2026-04-03T08:23:18.999Z</time></trkpt><trkpt lat="44.73533380485768" lon="8.85261516584443"><ele>193.33333333333334</ele><time>2026-04-03T08:23:19.999Z</time></trkpt><trkpt lat="44.735148629496386" lon="8.852755835561045"><ele>192.66666666666669</ele><time>2026-04-03T08:23:20.999Z</time></trkpt><trkpt lat="44.734958677162865" lon="8.85290849403793"><ele>192.0</ele><time>2026-04-03T08:23:21.999Z</time></trkpt><trkpt lat="44.73476478617218" lon="8.853057496022265"><ele>192.0</ele><time>2026-04-03T08:23:22.999Z</time></trkpt><trkpt lat="44.73457064625769" lon="8.85320767470854"><ele>192.0</ele><time>2026-04-03T08:23:23.999Z</time></trkpt><trkpt lat="44.73437570325844" lon="8.853361076665983"><ele>192.0</ele><time>2026-04-03T08:23:24.999Z</time></trkpt><trkpt lat="44.73418023981353" lon="8.853513526299798"><ele>192.33333333333331</ele><time>2026-04-03T08:23:25.999Z</time></trkpt><trkpt lat="44.73398325596322" lon="8.853663783646027"><ele>192.66666666666666</ele><time>2026-04-03T08:23:26.999Z</time></trkpt><trkpt lat="44.73379278163371" lon="8.853810149244628"><ele>193.0</ele><time>2026-04-03T08:23:27.999Z</time></trkpt><trkpt lat="44.73360842676771" lon="8.853954622159836"><ele>193.0</ele><time>2026-04-03T08:23:28.999Z</time></trkpt><trkpt lat="44.73342352509361" lon="8.85409357796038"><ele>193.0</ele><time>2026-04-03T08:23:29.999Z</time></trkpt><trkpt lat="44.73323718662481" lon="8.85423366163856"><ele>193.0</ele><time>2026-04-03T08:23:30.999Z</time></trkpt><trkpt lat="44.73305035983916" lon="8.854375346145073"><ele>193.0</ele><time>2026-04-03T08:23:31.999Z</time></trkpt><trkpt lat="44.73286633666873" lon="8.854518260156917"><ele>193.0</ele><time>2026-04-03T08:23:32.999Z</time></trkpt><trkpt lat="44.73267937831989" lon="8.854668065494495"><ele>193.0</ele><time>2026-04-03T08:23:33.999Z</time></trkpt><trkpt lat="44.732494413626625" lon="8.854816729323693"><ele>193.66666666666666</ele><time>2026-04-03T08:23:34.999Z</time></trkpt><trkpt lat="44.73230452285584" lon="8.854967093457024"><ele>194.33333333333331</ele><time>2026-04-03T08:23:35.999Z</time></trkpt><trkpt lat="44.73211415439692" lon="8.855112333728304"><ele>195.0</ele><time>2026-04-03T08:23:36.999Z</time></trkpt><trkpt lat="44.731918662662345" lon="8.855262475946107"><ele>196.0</ele><time>2026-04-03T08:23:37.999Z</time></trkpt><trkpt lat="44.73172102986257" lon="8.855421263755545"><ele>197.0</ele><time>2026-04-03T08:23:38.999Z</time></trkpt><trkpt lat="44.731517811184894" lon="8.85558580999784"><ele>197.0</ele><time>2026-04-03T08:23:39.999Z</time></trkpt><trkpt lat="44.73130227678036" lon="8.855756450888856"><ele>197.0</ele><time>2026-04-03T08:23:40.999Z</time></trkpt><trkpt lat="44.731076407245055" lon="8.855921530966409"><ele>195.0</ele><time>2026-04-03T08:23:41.999Z</time></trkpt><trkpt lat="44.730842615541675" lon="8.856055021098667"><ele>193.0</ele><time>2026-04-03T08:23:42.999Z</time></trkpt><trkpt lat="44.73059980486708" lon="8.856164892185497"><ele>193.0</ele><time>2026-04-03T08:23:43.999Z</time></trkpt><trkpt lat="44.73035591352246" lon="8.856241830487587"><ele>193.0</ele><time>2026-04-03T08:23:44.999Z</time></trkpt><trkpt lat="44.73011866366647" lon="8.856291308984213"><ele>195.0</ele><time>2026-04-03T08:23:45.999Z</time></trkpt><trkpt lat="44.729880479929214" lon="8.85631380161391"><ele>197.0</ele><time>2026-04-03T08:23:46.999Z</time></trkpt><trkpt lat="44.7296448069893" lon="8.856313773864558"><ele>197.0</ele><time>2026-04-03T08:23:47.999Z</time></trkpt><trkpt lat="44.72940609723866" lon="8.856298874503342"><ele>197.0</ele><time>2026-04-03T08:23:48.999Z</time></trkpt><trkpt lat="44.729163295198546" lon="8.856278887849813"><ele>199.5</ele><time>2026-04-03T08:23:49.999Z</time></trkpt><trkpt lat="44.72892003178787" lon="8.856258529042185"><ele>202.0</ele><time>2026-04-03T08:23:50.999Z</time></trkpt><trkpt lat="44.728684784981354" lon="8.856251122041087"><ele>203.66666666666666</ele><time>2026-04-03T08:23:51.999Z</time></trkpt><trkpt lat="44.72847727804684" lon="8.856258002754405"><ele>205.33333333333331</ele><time>2026-04-03T08:23:52.999Z</time></trkpt><trkpt lat="44.72830640503078" lon="8.856281341647078"><ele>207.0</ele><time>2026-04-03T08:23:53.999Z</time></trkpt><trkpt lat="44.72815203629554" lon="8.856321086333004"><ele>207.0</ele><time>2026-04-03T08:23:54.999Z</time></trkpt><trkpt lat="44.728010831896796" lon="8.856374571154937"><ele>207.0</ele><time>2026-04-03T08:23:55.999Z</time></trkpt><trkpt lat="44.727873785733635" lon="8.856431368845172"><ele>207.0</ele><time>2026-04-03T08:23:56.999Z</time></trkpt><trkpt lat="44.72773997932055" lon="8.856489657632501"><ele>207.0</ele><time>2026-04-03T08:23:57.999Z</time></trkpt><trkpt lat="44.72759231156359" lon="8.856528842791986"><ele>206.66666666666669</ele><time>2026-04-03T08:23:58.999Z</time></trkpt><trkpt lat="44.727448005983966" lon="8.856672245216794"><ele>206.33333333333334</ele><time>2026-04-03T08:23:59.999Z</time></trkpt><trkpt lat="44.72729090230292" lon="8.856781545007108"><ele>206.0</ele><time>2026-04-03T08:24:00.999Z</time></trkpt><trkpt lat="44.7271233832895" lon="8.856895808819635"><ele>206.0</ele><time>2026-04-03T08:24:01.999Z</time></trkpt><trkpt lat="44.72695463578294" lon="8.85701221863161"><ele>206.0</ele><time>2026-04-03T08:24:02.999Z</time></trkpt><trkpt lat="44.72678484952544" lon="8.857138568590864"><ele>206.0</ele><time>2026-04-03T08:24:03.999Z</time></trkpt><trkpt lat="44.72662852416657" lon="8.857281272222181"><ele>207.0</ele><time>2026-04-03T08:24:04.999Z</time></trkpt><trkpt lat="44.726481982428915" lon="8.857438743141286"><ele>208.0</ele><time>2026-04-03T08:24:05.999Z</time></trkpt><trkpt lat="44.72634640224793" lon="8.857605672764258"><ele>209.0</ele><time>2026-04-03T08:24:06.999Z</time></trkpt><trkpt lat="44.726211184306685" lon="8.85779818249353"><ele>210.66666666666669</ele><time>2026-04-03T08:24:07.999Z</time></trkpt><trkpt lat="44.72608062210175" lon="8.85800233042832"><ele>212.33333333333331</ele><time>2026-04-03T08:24:08.999Z</time></trkpt><trkpt lat="44.72595823650823" lon="8.858207033521357"><ele>214.0</ele><time>2026-04-03T08:24:09.999Z</time></trkpt><trkpt lat="44.72584396233586" lon="8.858403058931223"><ele>210.33333333333331</ele><time>2026-04-03T08:24:10.999Z</time></trkpt><trkpt lat="44.72573311418039" lon="8.858585115670069"><ele>206.66666666666669</ele><time>2026-04-03T08:24:11.999Z</time></trkpt><trkpt lat="44.72562156486094" lon="8.858757621514846"><ele>203.0</ele><time>2026-04-03T08:24:12.999Z</time></trkpt><trkpt lat="44.725507741109574" lon="8.858934385611384"><ele>203.0</ele><time>2026-04-03T08:24:13.999Z</time></trkpt><trkpt lat="44.72539485671139" lon="8.859115565623053"><ele>203.0</ele><time>2026-04-03T08:24:14.999Z</time></trkpt><trkpt lat="44.725283424876004" lon="8.85929552580426"><ele>203.0</ele><time>2026-04-03T08:24:15.999Z</time></trkpt><trkpt lat="44.72517212068445" lon="8.859471406089812"><ele>203.33333333333334</ele><time>2026-04-03T08:24:16.999Z</time></trkpt><trkpt lat="44.72506266083434" lon="8.859644005042407"><ele>203.66666666666669</ele><time>2026-04-03T08:24:18Z</time></trkpt><trkpt lat="44.72495735178583" lon="8.859809317892381"><ele>204.0</ele><time>2026-04-03T08:24:19Z</time></trkpt><trkpt lat="44.72485378656239" lon="8.859973824387929"><ele>202.0</ele><time>2026-04-03T08:24:20Z</time></trkpt><trkpt lat="44.72475064336934" lon="8.860131608319858"><ele>200.0</ele><time>2026-04-03T08:24:21Z</time></trkpt><trkpt lat="44.724648864780015" lon="8.86029322579775"><ele>198.0</ele><time>2026-04-03T08:24:22Z</time></trkpt><trkpt lat="44.724537381549204" lon="8.860474975656594"><ele>198.0</ele><time>2026-04-03T08:24:23Z</time></trkpt><trkpt lat="44.72442229036234" lon="8.860660434777095"><ele>198.0</ele><time>2026-04-03T08:24:24Z</time></trkpt><trkpt lat="44.72430400815629" lon="8.86085454468787"><ele>198.0</ele><time>2026-04-03T08:24:25Z</time></trkpt><trkpt lat="44.72417813097849" lon="8.861057707195462"><ele>201.0</ele><time>2026-04-03T08:24:26Z</time></trkpt><trkpt lat="44.72405174305473" lon="8.861261833108662"><ele>204.0</ele><time>2026-04-03T08:24:27Z</time></trkpt><trkpt lat="44.72392000774294" lon="8.861464229666389"><ele>207.0</ele><time>2026-04-03T08:24:28Z</time></trkpt><trkpt lat="44.72378665022663" lon="8.86166354527009"><ele>210.33333333333331</ele><time>2026-04-03T08:24:29Z</time></trkpt><trkpt lat="44.72365191130303" lon="8.861852434248036"><ele>213.66666666666666</ele><time>2026-04-03T08:24:30Z</time></trkpt><trkpt lat="44.723507642273795" lon="8.862024167965757"><ele>217.0</ele><time>2026-04-03T08:24:31Z</time></trkpt><trkpt lat="44.72335476871995" lon="8.862173782707039"><ele>217.0</ele><time>2026-04-03T08:24:32Z</time></trkpt><trkpt lat="44.72319246901176" lon="8.86230219757326"><ele>217.0</ele><time>2026-04-03T08:24:33Z</time></trkpt><trkpt lat="44.723017612235076" lon="8.862412800680321"><ele>217.0</ele><time>2026-04-03T08:24:34Z</time></trkpt><trkpt lat="44.72283559787414" lon="8.862505889105629"><ele>217.0</ele><time>2026-04-03T08:24:35Z</time></trkpt><trkpt lat="44.72264618336447" lon="8.862583630578905"><ele>217.0</ele><time>2026-04-03T08:24:36Z</time></trkpt><trkpt lat="44.722455424960536" lon="8.86264998043514"><ele>217.0</ele><time>2026-04-03T08:24:37Z</time></trkpt><trkpt lat="44.72226639456012" lon="8.86272130959831"><ele>217.0</ele><time>2026-04-03T08:24:38Z</time></trkpt><trkpt lat="44.72208557815937" lon="8.862799223578111"><ele>217.0</ele><time>2026-04-03T08:24:39Z</time></trkpt><trkpt lat="44.72190831807868" lon="8.862872689303337"><ele>217.0</ele><time>2026-04-03T08:24:40Z</time></trkpt><trkpt lat="44.721727702643875" lon="8.862941461863302"><ele>217.0</ele><time>2026-04-03T08:24:41Z</time></trkpt><trkpt lat="44.72154625473825" lon="8.8629943335763"><ele>217.0</ele><time>2026-04-03T08:24:42Z</time></trkpt><trkpt lat="44.72136577674161" lon="8.863033034190327"><ele>217.0</ele><time>2026-04-03T08:24:43Z</time></trkpt><trkpt lat="44.721181736749784" lon="8.863058238711282"><ele>216.66666666666666</ele><time>2026-04-03T08:24:44Z</time></trkpt><trkpt lat="44.72100025632039" lon="8.863095359860164"><ele>216.33333333333331</ele><time>2026-04-03T08:24:45Z</time></trkpt><trkpt lat="44.72081633833444" lon="8.863138751635"><ele>216.0</ele><time>2026-04-03T08:24:46Z</time></trkpt><trkpt lat="44.72062999348962" lon="8.863182275290368"><ele>216.0</ele><time>2026-04-03T08:24:47Z</time></trkpt><trkpt lat="44.720442757620276" lon="8.863221851175473"><ele>216.0</ele><time>2026-04-03T08:24:48Z</time></trkpt><trkpt lat="44.720252499662244" lon="8.863264141752126"><ele>216.0</ele><time>2026-04-03T08:24:49Z</time></trkpt><trkpt lat="44.720061135331726" lon="8.86330685479605"><ele>215.66666666666669</ele><time>2026-04-03T08:24:50Z</time></trkpt><trkpt lat="44.71986728170097" lon="8.86335245286681"><ele>215.33333333333334</ele><time>2026-04-03T08:24:51Z</time></trkpt><trkpt lat="44.71966844939101" lon="8.86340411798826"><ele>215.0</ele><time>2026-04-03T08:24:52Z</time></trkpt><trkpt lat="44.71947215671358" lon="8.863448651298324"><ele>215.66666666666669</ele><time>2026-04-03T08:24:53Z</time></trkpt><trkpt lat="44.719275048411276" lon="8.863489097051186"><ele>216.33333333333331</ele><time>2026-04-03T08:24:54Z</time></trkpt><trkpt lat="44.7190785795146" lon="8.863532302492528"><ele>217.0</ele><time>2026-04-03T08:24:55Z</time></trkpt><trkpt lat="44.71888574095835" lon="8.863577418700213"><ele>217.0</ele><time>2026-04-03T08:24:56Z</time></trkpt><trkpt lat="44.71869213286593" lon="8.863626895669368"><ele>217.0</ele><time>2026-04-03T08:24:57Z</time></trkpt><trkpt lat="44.71849555258635" lon="8.86368375653967"><ele>217.0</ele><time>2026-04-03T08:24:58Z</time></trkpt><trkpt lat="44.71829363478902" lon="8.863745263477277"><ele>216.66666666666666</ele><time>2026-04-03T08:24:59Z</time></trkpt><trkpt lat="44.71808891211439" lon="8.86380194052119"><ele>216.33333333333331</ele><time>2026-04-03T08:25:00Z</time></trkpt><trkpt lat="44.717878520968796" lon="8.863851257403509"><ele>216.0</ele><time>2026-04-03T08:25:01Z</time></trkpt><trkpt lat="44.71767107198931" lon="8.863894992229858"><ele>216.0</ele><time>2026-04-03T08:25:02Z</time></trkpt><trkpt lat="44.71746878413558" lon="8.863944374792071"><ele>216.0</ele><time>2026-04-03T08:25:03Z</time></trkpt><trkpt lat="44.717265321901706" lon="8.863990374524972"><ele>216.0</ele><time>2026-04-03T08:25:04Z</time></trkpt><trkpt lat="44.71706099101673" lon="8.864036569751974"><ele>214.33333333333331</ele><time>2026-04-03T08:25:05Z</time></trkpt><trkpt lat="44.716855249424405" lon="8.864079489907043"><ele>212.66666666666666</ele><time>2026-04-03T08:25:06Z</time></trkpt><trkpt lat="44.716646955579826" lon="8.864108555795521"><ele>211.0</ele><time>2026-04-03T08:25:07Z</time></trkpt><trkpt lat="44.71643369454557" lon="8.864110547538193"><ele>211.0</ele><time>2026-04-03T08:25:08Z</time></trkpt><trkpt lat="44.716224351982" lon="8.864083772502743"><ele>211.0</ele><time>2026-04-03T08:25:09Z</time></trkpt><trkpt lat="44.71601969944768" lon="8.864032691983791"><ele>211.0</ele><time>2026-04-03T08:25:10Z</time></trkpt><trkpt lat="44.71581831675708" lon="8.863974915090727"><ele>211.0</ele><time>2026-04-03T08:25:11Z</time></trkpt><trkpt lat="44.715614753816936" lon="8.863918318028194"><ele>211.0</ele><time>2026-04-03T08:25:12Z</time></trkpt><trkpt lat="44.715409329165865" lon="8.863868385516747"><ele>211.0</ele><time>2026-04-03T08:25:13Z</time></trkpt><trkpt lat="44.71520549631305" lon="8.863820662950735"><ele>212.33333333333331</ele><time>2026-04-03T08:25:14Z</time></trkpt><trkpt lat="44.715003539775715" lon="8.863770576883928"><ele>213.66666666666669</ele><time>2026-04-03T08:25:15Z</time></trkpt><trkpt lat="44.714799200461165" lon="8.86372034006502"><ele>215.0</ele><time>2026-04-03T08:25:16Z</time></trkpt><trkpt lat="44.71459153707224" lon="8.863671339490446"><ele>215.0</ele><time>2026-04-03T08:25:16.999Z</time></trkpt><trkpt lat="44.714385938636816" lon="8.863630794372767"><ele>215.0</ele><time>2026-04-03T08:25:17.999Z</time></trkpt><trkpt lat="44.71417702275851" lon="8.863623167297977"><ele>215.0</ele><time>2026-04-03T08:25:18.999Z</time></trkpt><trkpt lat="44.71397327132096" lon="8.863668094082405"><ele>215.0</ele><time>2026-04-03T08:25:19.999Z</time></trkpt><trkpt lat="44.71377883993915" lon="8.86376872010384"><ele>215.0</ele><time>2026-04-03T08:25:20.999Z</time></trkpt><trkpt lat="44.71359850234658" lon="8.86391307368204"><ele>215.0</ele><time>2026-04-03T08:25:21.999Z</time></trkpt><trkpt lat="44.71343442254213" lon="8.864101629145138"><ele>215.33333333333334</ele><time>2026-04-03T08:25:22.999Z</time></trkpt><trkpt lat="44.71329090549893" lon="8.864326172929532"><ele>215.66666666666669</ele><time>2026-04-03T08:25:23.999Z</time></trkpt><trkpt lat="44.713167831352365" lon="8.864578173182872"><ele>216.0</ele><time>2026-04-03T08:25:24.999Z</time></trkpt><trkpt lat="44.71305657581471" lon="8.864842866692136"><ele>216.0</ele><time>2026-04-03T08:25:25.999Z</time></trkpt><trkpt lat="44.71293243813934" lon="8.865085128808818"><ele>216.0</ele><time>2026-04-03T08:25:26.999Z</time></trkpt><trkpt lat="44.71281178830725" lon="8.86532855073792"><ele>216.0</ele><time>2026-04-03T08:25:27.999Z</time></trkpt><trkpt lat="44.71269013635951" lon="8.865576707926172"><ele>215.0</ele><time>2026-04-03T08:25:28.999Z</time></trkpt><trkpt lat="44.71257483123668" lon="8.865836554024588"><ele>214.0</ele><time>2026-04-03T08:25:29.999Z</time></trkpt><trkpt lat="44.712474015280804" lon="8.866113396701135"><ele>213.0</ele><time>2026-04-03T08:25:30.999Z</time></trkpt><trkpt lat="44.71239442551084" lon="8.866407954216216"><ele>213.0</ele><time>2026-04-03T08:25:31.999Z</time></trkpt><trkpt lat="44.71233082479834" lon="8.866711194121853"><ele>213.0</ele><time>2026-04-03T08:25:32.999Z</time></trkpt><trkpt lat="44.71227272278189" lon="8.867003620466585"><ele>213.0</ele><time>2026-04-03T08:25:33.999Z</time></trkpt><trkpt lat="44.71221561970534" lon="8.867290980409457"><ele>213.0</ele><time>2026-04-03T08:25:34.999Z</time></trkpt><trkpt lat="44.71215615888547" lon="8.867574877643644"><ele>213.0</ele><time>2026-04-03T08:25:35.999Z</time></trkpt><trkpt lat="44.71209522271501" lon="8.867847558363733"><ele>213.0</ele><time>2026-04-03T08:25:36.999Z</time></trkpt><trkpt lat="44.71202766638557" lon="8.868105122376006"><ele>213.0</ele><time>2026-04-03T08:25:37.999Z</time></trkpt><trkpt lat="44.71195304077725" lon="8.868347377691574"><ele>213.0</ele><time>2026-04-03T08:25:38.999Z</time></trkpt><trkpt lat="44.71186390089803" lon="8.868584181936024"><ele>213.0</ele><time>2026-04-03T08:25:39.999Z</time></trkpt><trkpt lat="44.711761889069855" lon="8.868811547047823"><ele>213.0</ele><time>2026-04-03T08:25:40.999Z</time></trkpt><trkpt lat="44.71164836440283" lon="8.869032673137324"><ele>213.0</ele><time>2026-04-03T08:25:41.999Z</time></trkpt><trkpt lat="44.71152482010522" lon="8.869253222888096"><ele>213.0</ele><time>2026-04-03T08:25:42.999Z</time></trkpt><trkpt lat="44.71139762835728" lon="8.869470261476101"><ele>214.33333333333331</ele><time>2026-04-03T08:25:43.999Z</time></trkpt><trkpt lat="44.71126443080048" lon="8.869698772219301"><ele>215.66666666666666</ele><time>2026-04-03T08:25:44.999Z</time></trkpt><trkpt lat="44.71113461167494" lon="8.869931073941894"><ele>217.0</ele><time>2026-04-03T08:25:45.999Z</time></trkpt><trkpt lat="44.71101645903419" lon="8.870182087760883"><ele>217.0</ele><time>2026-04-03T08:25:46.999Z</time></trkpt><trkpt lat="44.710921904354024" lon="8.870442827694536"><ele>217.0</ele><time>2026-04-03T08:25:47.999Z</time></trkpt><trkpt lat="44.710848690268584" lon="8.870728248637013"><ele>217.0</ele><time>2026-04-03T08:25:48.999Z</time></trkpt><trkpt lat="44.710793783610484" lon="8.871010098528055"><ele>218.33333333333331</ele><time>2026-04-03T08:25:49.999Z</time></trkpt><trkpt lat="44.710753847149796" lon="8.871293033488715"><ele>219.66666666666669</ele><time>2026-04-03T08:25:50.999Z</time></trkpt><trkpt lat="44.710731480131024" lon="8.871580451242563"><ele>221.0</ele><time>2026-04-03T08:25:51.999Z</time></trkpt><trkpt lat="44.710725501077405" lon="8.871862659374843"><ele>221.33333333333334</ele><time>2026-04-03T08:25:52.999Z</time></trkpt><trkpt lat="44.7107262955541" lon="8.872148190422992"><ele>221.66666666666669</ele><time>2026-04-03T08:25:53.999Z</time></trkpt><trkpt lat="44.710723030371796" lon="8.872436373484218"><ele>222.0</ele><time>2026-04-03T08:25:54.999Z</time></trkpt><trkpt lat="44.710709928092385" lon="8.872728184699866"><ele>220.33333333333331</ele><time>2026-04-03T08:25:55.999Z</time></trkpt><trkpt lat="44.710685282605894" lon="8.87301807076084"><ele>218.66666666666666</ele><time>2026-04-03T08:25:56.999Z</time></trkpt><trkpt lat="44.710640406217266" lon="8.873308007449845"><ele>217.0</ele><time>2026-04-03T08:25:57.999Z</time></trkpt><trkpt lat="44.710577401417595" lon="8.873589404545847"><ele>216.33333333333331</ele><time>2026-04-03T08:25:58.999Z</time></trkpt><trkpt lat="44.7104969266721" lon="8.873860260766172"><ele>215.66666666666669</ele><time>2026-04-03T08:25:59.999Z</time></trkpt><trkpt lat="44.71039873473552" lon="8.8741165326849"><ele>215.0</ele><time>2026-04-03T08:26:00.999Z</time></trkpt><trkpt lat="44.71028082093887" lon="8.874357951353694"><ele>213.0</ele><time>2026-04-03T08:26:01.999Z</time></trkpt><trkpt lat="44.71014811890496" lon="8.874593327640097"><ele>211.0</ele><time>2026-04-03T08:26:02.999Z</time></trkpt><trkpt lat="44.7099994918325" lon="8.874823040150796"><ele>209.0</ele><time>2026-04-03T08:26:03.999Z</time></trkpt><trkpt lat="44.70984237619495" lon="8.875052255261485"><ele>210.0</ele><time>2026-04-03T08:26:04.999Z</time></trkpt><trkpt lat="44.70968265452237" lon="8.875293228638892"><ele>211.0</ele><time>2026-04-03T08:26:05.999Z</time></trkpt><trkpt lat="44.70952614355303" lon="8.875540254681791"><ele>211.0</ele><time>2026-04-03T08:26:06.999Z</time></trkpt><trkpt lat="44.70937055929713" lon="8.875791110613275"><ele>211.0</ele><time>2026-04-03T08:26:07.999Z</time></trkpt><trkpt lat="44.70921122709047" lon="8.876047203290513"><ele>212.0</ele><time>2026-04-03T08:26:08.999Z</time></trkpt><trkpt lat="44.7090507051767" lon="8.876302560485549"><ele>213.0</ele><time>2026-04-03T08:26:09.999Z</time></trkpt><trkpt lat="44.70888954180222" lon="8.876553542768475"><ele>212.5</ele><time>2026-04-03T08:26:10.999Z</time></trkpt><trkpt lat="44.708724469738755" lon="8.876809606340766"><ele>212.0</ele><time>2026-04-03T08:26:11.999Z</time></trkpt><trkpt lat="44.70855319762062" lon="8.877065212399902"><ele>213.0</ele><time>2026-04-03T08:26:12.999Z</time></trkpt><trkpt lat="44.70837534446633" lon="8.877315349009168"><ele>214.0</ele><time>2026-04-03T08:26:13.999Z</time></trkpt><trkpt lat="44.70819101051036" lon="8.877562409706007"><ele>213.0</ele><time>2026-04-03T08:26:14.999Z</time></trkpt><trkpt lat="44.70800159492631" lon="8.877813280407146"><ele>212.0</ele><time>2026-04-03T08:26:15.999Z</time></trkpt><trkpt lat="44.707813379660735" lon="8.878063620757256"><ele>212.0</ele><time>2026-04-03T08:26:16.999Z</time></trkpt><trkpt lat="44.70762443814561" lon="8.878320883556508"><ele>212.0</ele><time>2026-04-03T08:26:17.999Z</time></trkpt><trkpt lat="44.70743328504106" lon="8.878586424395309"><ele>211.5</ele><time>2026-04-03T08:26:18.999Z</time></trkpt><trkpt lat="44.70723889145061" lon="8.878853620243998"><ele>211.0</ele><time>2026-04-03T08:26:19.999Z</time></trkpt><trkpt lat="44.707040366807945" lon="8.879121000604249"><ele>211.5</ele><time>2026-04-03T08:26:20.999Z</time></trkpt><trkpt lat="44.70684271570799" lon="8.879386913078713"><ele>212.0</ele><time>2026-04-03T08:26:21.999Z</time></trkpt><trkpt lat="44.70664109808976" lon="8.879655828163422"><ele>212.0</ele><time>2026-04-03T08:26:22.999Z</time></trkpt><trkpt lat="44.70643417272941" lon="8.879929473256114"><ele>212.0</ele><time>2026-04-03T08:26:24Z</time></trkpt><trkpt lat="44.70622315937415" lon="8.880202542810125"><ele>214.5</ele><time>2026-04-03T08:26:25Z</time></trkpt><trkpt lat="44.70601188935917" lon="8.880467218376008"><ele>217.0</ele><time>2026-04-03T08:26:26Z</time></trkpt><trkpt lat="44.705793586599015" lon="8.88071057754558"><ele>217.0</ele><time>2026-04-03T08:26:27Z</time></trkpt><trkpt lat="44.70556315965983" lon="8.880929725922746"><ele>217.0</ele><time>2026-04-03T08:26:28Z</time></trkpt><trkpt lat="44.705329578287596" lon="8.881130560536631"><ele>220.0</ele><time>2026-04-03T08:26:29Z</time></trkpt><trkpt lat="44.70509817868066" lon="8.881329219728643"><ele>223.0</ele><time>2026-04-03T08:26:30Z</time></trkpt><trkpt lat="44.704876392976495" lon="8.88154279293642"><ele>227.5</ele><time>2026-04-03T08:26:31Z</time></trkpt><trkpt lat="44.70466904637122" lon="8.88178102975546"><ele>232.0</ele><time>2026-04-03T08:26:32Z</time></trkpt><trkpt lat="44.70448528397073" lon="8.882041106708442"><ele>231.0</ele><time>2026-04-03T08:26:33Z</time></trkpt><trkpt lat="44.70431920802987" lon="8.882324501542255"><ele>230.0</ele><time>2026-04-03T08:26:34Z</time></trkpt><trkpt lat="44.70416836611782" lon="8.882616804990743"><ele>230.0</ele><time>2026-04-03T08:26:35Z</time></trkpt><trkpt lat="44.70402657299959" lon="8.882915715148433"><ele>230.0</ele><time>2026-04-03T08:26:36Z</time></trkpt><trkpt lat="44.70388721539363" lon="8.88321470651221"><ele>232.5</ele><time>2026-04-03T08:26:37Z</time></trkpt><trkpt lat="44.70374694390956" lon="8.883506084054716"><ele>235.0</ele><time>2026-04-03T08:26:38Z</time></trkpt><trkpt lat="44.70361009861769" lon="8.88379680499455"><ele>231.5</ele><time>2026-04-03T08:26:39Z</time></trkpt><trkpt lat="44.70348432007134" lon="8.8840962631038"><ele>228.0</ele><time>2026-04-03T08:26:40Z</time></trkpt><trkpt lat="44.703374935184286" lon="8.884401913685444"><ele>228.0</ele><time>2026-04-03T08:26:41Z</time></trkpt><trkpt lat="44.703279821328955" lon="8.884714423112404"><ele>228.0</ele><time>2026-04-03T08:26:42Z</time></trkpt><trkpt lat="44.70319532915839" lon="8.885033938268496"><ele>229.5</ele><time>2026-04-03T08:26:43Z</time></trkpt><trkpt lat="44.70311771588334" lon="8.885359273106493"><ele>231.0</ele><time>2026-04-03T08:26:44Z</time></trkpt><trkpt lat="44.703045282999646" lon="8.885690005581887"><ele>234.5</ele><time>2026-04-03T08:26:45Z</time></trkpt><trkpt lat="44.70297771827417" lon="8.886023633094084"><ele>238.0</ele><time>2026-04-03T08:26:46Z</time></trkpt><trkpt lat="44.70290845708487" lon="8.886358734323284"><ele>238.0</ele><time>2026-04-03T08:26:47Z</time></trkpt><trkpt lat="44.70283865051353" lon="8.886692090803624"><ele>238.0</ele><time>2026-04-03T08:26:48Z</time></trkpt><trkpt lat="44.702767618778374" lon="8.887026258455785"><ele>235.0</ele><time>2026-04-03T08:26:49Z</time></trkpt><trkpt lat="44.702693716138185" lon="8.887361632380244"><ele>232.0</ele><time>2026-04-03T08:26:50Z</time></trkpt><trkpt lat="44.702608992223475" lon="8.88769417710574"><ele>232.0</ele><time>2026-04-03T08:26:51Z</time></trkpt><trkpt lat="44.702505944338775" lon="8.888014608799994"><ele>232.0</ele><time>2026-04-03T08:26:52Z</time></trkpt><trkpt lat="44.702378584076904" lon="8.888319553953302"><ele>235.0</ele><time>2026-04-03T08:26:53Z</time></trkpt><trkpt lat="44.70223937769288" lon="8.888614695158289"><ele>238.0</ele><time>2026-04-03T08:26:54Z</time></trkpt><trkpt lat="44.70210836051714" lon="8.888905858690965"><ele>238.0</ele><time>2026-04-03T08:26:55Z</time></trkpt><trkpt lat="44.70198349339724" lon="8.88919817423235"><ele>238.0</ele><time>2026-04-03T08:26:56Z</time></trkpt><trkpt lat="44.70186372676395" lon="8.88949077013803"><ele>232.0</ele><time>2026-04-03T08:26:57Z</time></trkpt><trkpt lat="44.701746027695584" lon="8.889777492796652"><ele>226.0</ele><time>2026-04-03T08:26:58Z</time></trkpt><trkpt lat="44.7016256132437" lon="8.890065525698253"><ele>229.5</ele><time>2026-04-03T08:26:59Z</time></trkpt><trkpt lat="44.701507750910224" lon="8.890341806693234"><ele>233.0</ele><time>2026-04-03T08:27:00Z</time></trkpt><trkpt lat="44.70139160566451" lon="8.890608356179296"><ele>233.0</ele><time>2026-04-03T08:27:01Z</time></trkpt><trkpt lat="44.70126459859294" lon="8.890859157041909"><ele>233.0</ele><time>2026-04-03T08:27:02Z</time></trkpt><trkpt lat="44.70111887391162" lon="8.891085888499582"><ele>233.0</ele><time>2026-04-03T08:27:03Z</time></trkpt><trkpt lat="44.70096099178478" lon="8.891288154030947"><ele>233.0</ele><time>2026-04-03T08:27:04Z</time></trkpt><trkpt lat="44.700796128041894" lon="8.891471267208793"><ele>233.0</ele><time>2026-04-03T08:27:05Z</time></trkpt><trkpt lat="44.70062906945566" lon="8.891643616247222"><ele>233.0</ele><time>2026-04-03T08:27:06Z</time></trkpt><trkpt lat="44.7004646632679" lon="8.891814370936386"><ele>231.0</ele><time>2026-04-03T08:27:07Z</time></trkpt><trkpt lat="44.70030513410149" lon="8.891984014133769"><ele>229.0</ele><time>2026-04-03T08:27:08Z</time></trkpt><trkpt lat="44.70015077197381" lon="8.892153745882412"><ele>227.0</ele><time>2026-04-03T08:27:09Z</time></trkpt><trkpt lat="44.69999592074331" lon="8.892323990435596"><ele>227.0</ele><time>2026-04-03T08:27:10Z</time></trkpt><trkpt lat="44.69983835947282" lon="8.892497873386432"><ele>227.0</ele><time>2026-04-03T08:27:11Z</time></trkpt><trkpt lat="44.69968047917633" lon="8.892674296556866"><ele>227.0</ele><time>2026-04-03T08:27:12Z</time></trkpt><trkpt lat="44.699519434939845" lon="8.892853855968374"><ele>227.0</ele><time>2026-04-03T08:27:13Z</time></trkpt><trkpt lat="44.69934694436958" lon="8.893039102287318"><ele>227.0</ele><time>2026-04-03T08:27:14Z</time></trkpt><trkpt lat="44.69916762463918" lon="8.893228530557245"><ele>227.0</ele><time>2026-04-03T08:27:15Z</time></trkpt><trkpt lat="44.698984163224615" lon="8.893421112420604"><ele>231.0</ele><time>2026-04-03T08:27:16Z</time></trkpt><trkpt lat="44.698800999751555" lon="8.893616814329734"><ele>235.0</ele><time>2026-04-03T08:27:17Z</time></trkpt><trkpt lat="44.69861766781918" lon="8.893807937643578"><ele>232.33333333333331</ele><time>2026-04-03T08:27:17.999Z</time></trkpt><trkpt lat="44.698427912006444" lon="8.893973536248467"><ele>229.66666666666669</ele><time>2026-04-03T08:27:18.999Z</time></trkpt><trkpt lat="44.69822277974308" lon="8.894105397942493"><ele>227.0</ele><time>2026-04-03T08:27:19.999Z</time></trkpt><trkpt lat="44.69801167270155" lon="8.894215044610759"><ele>228.0</ele><time>2026-04-03T08:27:20.999Z</time></trkpt><trkpt lat="44.69779422353104" lon="8.894312854605433"><ele>229.0</ele><time>2026-04-03T08:27:21.999Z</time></trkpt><trkpt lat="44.69757083240554" lon="8.894393411124666"><ele>231.0</ele><time>2026-04-03T08:27:22.999Z</time></trkpt><trkpt lat="44.69734732699503" lon="8.894451040879577"><ele>233.0</ele><time>2026-04-03T08:27:23.999Z</time></trkpt><trkpt lat="44.69712992328849" lon="8.894527546175931"><ele>233.0</ele><time>2026-04-03T08:27:24.999Z</time></trkpt><trkpt lat="44.69693365461344" lon="8.894630342964144"><ele>233.0</ele><time>2026-04-03T08:27:25.999Z</time></trkpt><trkpt lat="44.69673735049368" lon="8.894764211539107"><ele>233.0</ele><time>2026-04-03T08:27:26.999Z</time></trkpt><trkpt lat="44.69654314870043" lon="8.894921109013183"><ele>236.0</ele><time>2026-04-03T08:27:27.999Z</time></trkpt><trkpt lat="44.6963497408416" lon="8.895090950802501"><ele>239.0</ele><time>2026-04-03T08:27:28.999Z</time></trkpt><trkpt lat="44.69615770650486" lon="8.895265895562448"><ele>236.0</ele><time>2026-04-03T08:27:29.999Z</time></trkpt><trkpt lat="44.69596241059382" lon="8.895444814703078"><ele>233.0</ele><time>2026-04-03T08:27:30.999Z</time></trkpt><trkpt lat="44.69576923123927" lon="8.89561194214222"><ele>233.0</ele><time>2026-04-03T08:27:31.999Z</time></trkpt><trkpt lat="44.69557198594843" lon="8.895780684250461"><ele>233.0</ele><time>2026-04-03T08:27:32.999Z</time></trkpt><trkpt lat="44.69537907343193" lon="8.89594794661024"><ele>233.0</ele><time>2026-04-03T08:27:33.999Z</time></trkpt><trkpt lat="44.695191505497" lon="8.896110769368956"><ele>233.0</ele><time>2026-04-03T08:27:34.999Z</time></trkpt><trkpt lat="44.69500064414169" lon="8.896276564595654"><ele>233.0</ele><time>2026-04-03T08:27:35.999Z</time></trkpt><trkpt lat="44.69481023172785" lon="8.896445683418923"><ele>233.0</ele><time>2026-04-03T08:27:36.999Z</time></trkpt><trkpt lat="44.694614516085565" lon="8.896615479375527"><ele>233.0</ele><time>2026-04-03T08:27:37.999Z</time></trkpt><trkpt lat="44.694411044013094" lon="8.896791342712977"><ele>236.0</ele><time>2026-04-03T08:27:38.999Z</time></trkpt><trkpt lat="44.694200735746186" lon="8.896975301667126"><ele>239.0</ele><time>2026-04-03T08:27:39.999Z</time></trkpt><trkpt lat="44.69398889025554" lon="8.897160725425328"><ele>239.0</ele><time>2026-04-03T08:27:40.999Z</time></trkpt><trkpt lat="44.693777893267296" lon="8.897346113297816"><ele>239.0</ele><time>2026-04-03T08:27:41.999Z</time></trkpt><trkpt lat="44.69357196123747" lon="8.897525257500954"><ele>231.5</ele><time>2026-04-03T08:27:42.999Z</time></trkpt><trkpt lat="44.693366216354654" lon="8.897706930145247"><ele>224.0</ele><time>2026-04-03T08:27:43.999Z</time></trkpt><trkpt lat="44.69316282816355" lon="8.897882220434177"><ele>224.0</ele><time>2026-04-03T08:27:44.999Z</time></trkpt><trkpt lat="44.692959567913434" lon="8.898059699926517"><ele>224.0</ele><time>2026-04-03T08:27:45.999Z</time></trkpt><trkpt lat="44.69275481753392" lon="8.898236024894818"><ele>222.5</ele><time>2026-04-03T08:27:46.999Z</time></trkpt><trkpt lat="44.692545916341444" lon="8.89841701063416"><ele>221.0</ele><time>2026-04-03T08:27:47.999Z</time></trkpt><trkpt lat="44.69234154316382" lon="8.898596839828247"><ele>221.0</ele><time>2026-04-03T08:27:48.999Z</time></trkpt><trkpt lat="44.692133568784136" lon="8.89878086419123"><ele>221.0</ele><time>2026-04-03T08:27:49.999Z</time></trkpt><trkpt lat="44.69192550443584" lon="8.898965961394223"><ele>221.5</ele><time>2026-04-03T08:27:50.999Z</time></trkpt><trkpt lat="44.69171497935246" lon="8.899149714225722"><ele>222.0</ele><time>2026-04-03T08:27:51.999Z</time></trkpt><trkpt lat="44.691498781717854" lon="8.899332320117031"><ele>223.5</ele><time>2026-04-03T08:27:52.999Z</time></trkpt><trkpt lat="44.69128575710022" lon="8.899518137636752"><ele>225.0</ele><time>2026-04-03T08:27:53.999Z</time></trkpt><trkpt lat="44.69107017019962" lon="8.899708287827"><ele>226.0</ele><time>2026-04-03T08:27:54.999Z</time></trkpt><trkpt lat="44.69084869350408" lon="8.89989912453951"><ele>227.0</ele><time>2026-04-03T08:27:55.999Z</time></trkpt><trkpt lat="44.690621466978435" lon="8.90007903086181"><ele>231.0</ele><time>2026-04-03T08:27:56.999Z</time></trkpt><trkpt lat="44.690386683097806" lon="8.900243630727028"><ele>235.0</ele><time>2026-04-03T08:27:57.999Z</time></trkpt><trkpt lat="44.6901456181114" lon="8.900391076782926"><ele>235.0</ele><time>2026-04-03T08:27:58.999Z</time></trkpt><trkpt lat="44.68989692728043" lon="8.900516053514586"><ele>235.0</ele><time>2026-04-03T08:27:59.999Z</time></trkpt><trkpt lat="44.689647680636284" lon="8.900619972335864"><ele>234.5</ele><time>2026-04-03T08:28:00.999Z</time></trkpt><trkpt lat="44.6893911213755" lon="8.900705690277185"><ele>234.0</ele><time>2026-04-03T08:28:01.999Z</time></trkpt><trkpt lat="44.68913266996652" lon="8.900783843312999"><ele>234.0</ele><time>2026-04-03T08:28:02.999Z</time></trkpt><trkpt lat="44.6888759686655" lon="8.900861598543047"><ele>234.0</ele><time>2026-04-03T08:28:03.999Z</time></trkpt><trkpt lat="44.68861949107224" lon="8.900944397947171"><ele>239.5</ele><time>2026-04-03T08:28:04.999Z</time></trkpt><trkpt lat="44.68836599782043" lon="8.901027529410907"><ele>245.0</ele><time>2026-04-03T08:28:05.999Z</time></trkpt><trkpt lat="44.68811061980085" lon="8.901110689479268"><ele>245.0</ele><time>2026-04-03T08:28:06.999Z</time></trkpt><trkpt lat="44.68785996651091" lon="8.90119206935891"><ele>245.0</ele><time>2026-04-03T08:28:07.999Z</time></trkpt><trkpt lat="44.68760787538408" lon="8.90127405355914"><ele>247.0</ele><time>2026-04-03T08:28:08.999Z</time></trkpt><trkpt lat="44.68735897551548" lon="8.901356033639345"><ele>249.0</ele><time>2026-04-03T08:28:09.999Z</time></trkpt><trkpt lat="44.687109140906394" lon="8.901438293998638"><ele>242.5</ele><time>2026-04-03T08:28:10.999Z</time></trkpt><trkpt lat="44.68686314429365" lon="8.901528042816164"><ele>236.0</ele><time>2026-04-03T08:28:11.999Z</time></trkpt><trkpt lat="44.68662713636226" lon="8.901637957711884"><ele>248.5</ele><time>2026-04-03T08:28:12.999Z</time></trkpt><trkpt lat="44.686400567451905" lon="8.90177481192871"><ele>261.0</ele><time>2026-04-03T08:28:13.999Z</time></trkpt><trkpt lat="44.686184554440075" lon="8.901935733623926"><ele>254.0</ele><time>2026-04-03T08:28:14.999Z</time></trkpt><trkpt lat="44.68597754210224" lon="8.902103014408993"><ele>247.0</ele><time>2026-04-03T08:28:15.999Z</time></trkpt><trkpt lat="44.6857737209923" lon="8.902265598781971"><ele>247.0</ele><time>2026-04-03T08:28:16.999Z</time></trkpt><trkpt lat="44.685572079807066" lon="8.902424229372075"><ele>247.0</ele><time>2026-04-03T08:28:17.999Z</time></trkpt><trkpt lat="44.685370968842726" lon="8.902578361145416"><ele>251.5</ele><time>2026-04-03T08:28:18.999Z</time></trkpt><trkpt lat="44.685168620584186" lon="8.90273239960582"><ele>256.0</ele><time>2026-04-03T08:28:19.999Z</time></trkpt><trkpt lat="44.684968403148595" lon="8.902885781459384"><ele>256.0</ele><time>2026-04-03T08:28:20.999Z</time></trkpt><trkpt lat="44.68477490268617" lon="8.903030292155504"><ele>256.0</ele><time>2026-04-03T08:28:21.999Z</time></trkpt><trkpt lat="44.684566523466074" lon="8.903190377995278"><ele>259.5</ele><time>2026-04-03T08:28:22.999Z</time></trkpt><trkpt lat="44.68436381628189" lon="8.903345146715996"><ele>263.0</ele><time>2026-04-03T08:28:23.999Z</time></trkpt><trkpt lat="44.68416238765711" lon="8.90349877636055"><ele>263.0</ele><time>2026-04-03T08:28:24.999Z</time></trkpt><trkpt lat="44.6839647030221" lon="8.903649338499555"><ele>263.0</ele><time>2026-04-03T08:28:25.999Z</time></trkpt><trkpt lat="44.68376473394743" lon="8.90380143401341"><ele>258.6666666666667</ele><time>2026-04-03T08:28:26.999Z</time></trkpt><trkpt lat="44.683571066225575" lon="8.90393882631239"><ele>254.33333333333331</ele><time>2026-04-03T08:28:27.999Z</time></trkpt><trkpt lat="44.683375726838584" lon="8.904064714916752"><ele>250.0</ele><time>2026-04-03T08:28:28.999Z</time></trkpt><trkpt lat="44.68317306940849" lon="8.9041654313769"><ele>250.0</ele><time>2026-04-03T08:28:30Z</time></trkpt><trkpt lat="44.68296334618197" lon="8.90423606352606"><ele>250.0</ele><time>2026-04-03T08:28:31Z</time></trkpt><trkpt lat="44.682746819269965" lon="8.904284327636068"><ele>250.0</ele><time>2026-04-03T08:28:32Z</time></trkpt><trkpt lat="44.68252010627499" lon="8.904302124670151"><ele>258.0</ele><time>2026-04-03T08:28:33Z</time></trkpt><trkpt lat="44.6822883369894" lon="8.904292080327888"><ele>266.0</ele><time>2026-04-03T08:28:34Z</time></trkpt><trkpt lat="44.68204790851459" lon="8.904252615968357"><ele>256.0</ele><time>2026-04-03T08:28:35Z</time></trkpt><trkpt lat="44.68180657759828" lon="8.904181430961051"><ele>246.0</ele><time>2026-04-03T08:28:36Z</time></trkpt><trkpt lat="44.681569111511855" lon="8.904084913718476"><ele>246.0</ele><time>2026-04-03T08:28:37Z</time></trkpt><trkpt lat="44.6813372519039" lon="8.903977623999202"><ele>246.0</ele><time>2026-04-03T08:28:38Z</time></trkpt><trkpt lat="44.68110811862558" lon="8.903884760209015"><ele>252.0</ele><time>2026-04-03T08:28:39Z</time></trkpt><trkpt lat="44.68087935321823" lon="8.903832292145102"><ele>258.0</ele><time>2026-04-03T08:28:40Z</time></trkpt><trkpt lat="44.68065008845669" lon="8.903817696212109"><ele>258.0</ele><time>2026-04-03T08:28:41Z</time></trkpt><trkpt lat="44.68042163561265" lon="8.903821637609887"><ele>258.0</ele><time>2026-04-03T08:28:42Z</time></trkpt><trkpt lat="44.680191896436035" lon="8.903858473037541"><ele>259.0</ele><time>2026-04-03T08:28:43Z</time></trkpt><trkpt lat="44.6799632674676" lon="8.903916005536905"><ele>260.0</ele><time>2026-04-03T08:28:44Z</time></trkpt><trkpt lat="44.67973615313787" lon="8.903992571991635"><ele>260.0</ele><time>2026-04-03T08:28:45Z</time></trkpt><trkpt lat="44.679506867940525" lon="8.904075633901456"><ele>260.0</ele><time>2026-04-03T08:28:46Z</time></trkpt><trkpt lat="44.6792693807116" lon="8.904160321945547"><ele>255.0</ele><time>2026-04-03T08:28:47Z</time></trkpt><trkpt lat="44.679031573134345" lon="8.904240313381113"><ele>250.0</ele><time>2026-04-03T08:28:48Z</time></trkpt><trkpt lat="44.67879251606855" lon="8.904321163398597"><ele>256.0</ele><time>2026-04-03T08:28:49Z</time></trkpt><trkpt lat="44.678550394654906" lon="8.904399373425479"><ele>262.0</ele><time>2026-04-03T08:28:50Z</time></trkpt><trkpt lat="44.678310381598195" lon="8.904480443053558"><ele>262.0</ele><time>2026-04-03T08:28:51Z</time></trkpt><trkpt lat="44.678065455578775" lon="8.90456014539205"><ele>262.0</ele><time>2026-04-03T08:28:52Z</time></trkpt><trkpt lat="44.67781895225571" lon="8.904641961893267"><ele>259.0</ele><time>2026-04-03T08:28:53Z</time></trkpt><trkpt lat="44.67756988706764" lon="8.904723045524495"><ele>256.0</ele><time>2026-04-03T08:28:54Z</time></trkpt><trkpt lat="44.67731694597008" lon="8.904809337262902"><ele>256.0</ele><time>2026-04-03T08:28:55Z</time></trkpt><trkpt lat="44.67705263957065" lon="8.904898632128331"><ele>256.0</ele><time>2026-04-03T08:28:56Z</time></trkpt><trkpt lat="44.67677687712849" lon="8.904989154465808"><ele>254.5</ele><time>2026-04-03T08:28:57Z</time></trkpt><trkpt lat="44.67649203230564" lon="8.905066824680391"><ele>253.0</ele><time>2026-04-03T08:28:58Z</time></trkpt><trkpt lat="44.67620572336153" lon="8.905111728087553"><ele>261.5</ele><time>2026-04-03T08:28:59Z</time></trkpt><trkpt lat="44.67591210570413" lon="8.905123549973377"><ele>270.0</ele><time>2026-04-03T08:29:00Z</time></trkpt><trkpt lat="44.67562512315446" lon="8.905108422271939"><ele>263.5</ele><time>2026-04-03T08:29:01Z</time></trkpt><trkpt lat="44.67533517403219" lon="8.905071181227253"><ele>257.0</ele><time>2026-04-03T08:29:02Z</time></trkpt><trkpt lat="44.67505033778811" lon="8.905024323152402"><ele>257.0</ele><time>2026-04-03T08:29:03Z</time></trkpt><trkpt lat="44.674763690542314" lon="8.904990521573396"><ele>257.0</ele><time>2026-04-03T08:29:04Z</time></trkpt><trkpt lat="44.67448089625508" lon="8.904986452744321"><ele>257.5</ele><time>2026-04-03T08:29:05Z</time></trkpt><trkpt lat="44.674200181831175" lon="8.9050049899495"><ele>258.0</ele><time>2026-04-03T08:29:06Z</time></trkpt><trkpt lat="44.67391952297649" lon="8.905053519715771"><ele>260.5</ele><time>2026-04-03T08:29:07Z</time></trkpt><trkpt lat="44.67363811376092" lon="8.905124526041885"><ele>263.0</ele><time>2026-04-03T08:29:08Z</time></trkpt><trkpt lat="44.67335799106425" lon="8.90521131338693"><ele>263.0</ele><time>2026-04-03T08:29:09Z</time></trkpt><trkpt lat="44.67307820155508" lon="8.90530348800408"><ele>263.0</ele><time>2026-04-03T08:29:10Z</time></trkpt><trkpt lat="44.672796935708696" lon="8.905392186956389"><ele>263.0</ele><time>2026-04-03T08:29:11Z</time></trkpt><trkpt lat="44.67251910264277" lon="8.905474412020208"><ele>263.0</ele><time>2026-04-03T08:29:12Z</time></trkpt><trkpt lat="44.672243079603916" lon="8.905550014490254"><ele>263.0</ele><time>2026-04-03T08:29:13Z</time></trkpt><trkpt lat="44.67196904624942" lon="8.905624831134041"><ele>263.0</ele><time>2026-04-03T08:29:14Z</time></trkpt><trkpt lat="44.67169902133657" lon="8.905708286846451"><ele>263.0</ele><time>2026-04-03T08:29:15Z</time></trkpt><trkpt lat="44.67142975111119" lon="8.905804056575855"><ele>263.0</ele><time>2026-04-03T08:29:16Z</time></trkpt><trkpt lat="44.671163530550395" lon="8.90591194872698"><ele>264.5</ele><time>2026-04-03T08:29:17Z</time></trkpt><trkpt lat="44.67089659859995" lon="8.906027158047937"><ele>266.0</ele><time>2026-04-03T08:29:18Z</time></trkpt><trkpt lat="44.67063161003796" lon="8.90615180315661"><ele>266.0</ele><time>2026-04-03T08:29:18.999Z</time></trkpt><trkpt lat="44.67036833129821" lon="8.90628611612885"><ele>266.0</ele><time>2026-04-03T08:29:19.999Z</time></trkpt><trkpt lat="44.67010528753184" lon="8.90643117763862"><ele>265.0</ele><time>2026-04-03T08:29:20.999Z</time></trkpt><trkpt lat="44.66984330280177" lon="8.906581942024571"><ele>264.0</ele><time>2026-04-03T08:29:21.999Z</time></trkpt><trkpt lat="44.66957886277794" lon="8.906732783159356"><ele>265.0</ele><time>2026-04-03T08:29:22.999Z</time></trkpt><trkpt lat="44.66931814067236" lon="8.906877503621837"><ele>266.0</ele><time>2026-04-03T08:29:23.999Z</time></trkpt><trkpt lat="44.66906433880484" lon="8.907018936132522"><ele>266.0</ele><time>2026-04-03T08:29:24.999Z</time></trkpt><trkpt lat="44.66882064782903" lon="8.907157322406308"><ele>266.0</ele><time>2026-04-03T08:29:25.999Z</time></trkpt><trkpt lat="44.66859129024182" lon="8.907297917236319"><ele>266.0</ele><time>2026-04-03T08:29:26.999Z</time></trkpt><trkpt lat="44.66837623426497" lon="8.907441656802074"><ele>266.0</ele><time>2026-04-03T08:29:27.999Z</time></trkpt><trkpt lat="44.66817660091627" lon="8.907594546445244"><ele>266.0</ele><time>2026-04-03T08:29:28.999Z</time></trkpt><trkpt lat="44.667978815697495" lon="8.907763187336547"><ele>266.0</ele><time>2026-04-03T08:29:29.999Z</time></trkpt><trkpt lat="44.66778235348918" lon="8.907949367315537"><ele>265.5</ele><time>2026-04-03T08:29:30.999Z</time></trkpt><trkpt lat="44.66758469388271" lon="8.908140634428769"><ele>265.0</ele><time>2026-04-03T08:29:31.999Z</time></trkpt><trkpt lat="44.66738184627074" lon="8.90833868033816"><ele>267.0</ele><time>2026-04-03T08:29:32.999Z</time></trkpt><trkpt lat="44.667166325600164" lon="8.908544043291734"><ele>269.0</ele><time>2026-04-03T08:29:33.999Z</time></trkpt><trkpt lat="44.66694689348621" lon="8.908753613144837"><ele>266.0</ele><time>2026-04-03T08:29:34.999Z</time></trkpt><trkpt lat="44.666724954119424" lon="8.908969760850805"><ele>263.0</ele><time>2026-04-03T08:29:35.999Z</time></trkpt><trkpt lat="44.66650260444215" lon="8.90918654670597"><ele>264.0</ele><time>2026-04-03T08:29:36.999Z</time></trkpt><trkpt lat="44.66627628948623" lon="8.90940195231816"><ele>265.0</ele><time>2026-04-03T08:29:37.999Z</time></trkpt><trkpt lat="44.6660486629159" lon="8.909612596569701"><ele>263.0</ele><time>2026-04-03T08:29:38.999Z</time></trkpt><trkpt lat="44.66581674071143" lon="8.909824796517364"><ele>261.0</ele><time>2026-04-03T08:29:39.999Z</time></trkpt><trkpt lat="44.665584301660914" lon="8.910039996920347"><ele>262.5</ele><time>2026-04-03T08:29:40.999Z</time></trkpt><trkpt lat="44.66535330751316" lon="8.910264302143927"><ele>264.0</ele><time>2026-04-03T08:29:41.999Z</time></trkpt><trkpt lat="44.665123362975116" lon="8.910491036372079"><ele>264.0</ele><time>2026-04-03T08:29:42.999Z</time></trkpt><trkpt lat="44.66488936443304" lon="8.91071711208347"><ele>264.0</ele><time>2026-04-03T08:29:43.999Z</time></trkpt><trkpt lat="44.66465688847819" lon="8.910946739390335"><ele>263.0</ele><time>2026-04-03T08:29:44.999Z</time></trkpt><trkpt lat="44.66443724627488" lon="8.911191251250184"><ele>262.0</ele><time>2026-04-03T08:29:45.999Z</time></trkpt><trkpt lat="44.664228704997676" lon="8.911468091945558"><ele>266.0</ele><time>2026-04-03T08:29:46.999Z</time></trkpt><trkpt lat="44.66403053173875" lon="8.911761492143649"><ele>270.0</ele><time>2026-04-03T08:29:47.999Z</time></trkpt><trkpt lat="44.6638389869267" lon="8.912064797928876"><ele>270.0</ele><time>2026-04-03T08:29:48.999Z</time></trkpt><trkpt lat="44.66364675077259" lon="8.912363456832287"><ele>270.0</ele><time>2026-04-03T08:29:49.999Z</time></trkpt><trkpt lat="44.66346111160575" lon="8.912655383185674"><ele>275.0</ele><time>2026-04-03T08:29:50.999Z</time></trkpt><trkpt lat="44.663285311259195" lon="8.912925275523424"><ele>280.0</ele><time>2026-04-03T08:29:51.999Z</time></trkpt><trkpt lat="44.66312242012024" lon="8.913170923174576"><ele>280.0</ele><time>2026-04-03T08:29:52.999Z</time></trkpt><trkpt lat="44.66297301883337" lon="8.913399162856422"><ele>280.0</ele><time>2026-04-03T08:29:53.999Z</time></trkpt><trkpt lat="44.66282597944721" lon="8.913619525274937"><ele>280.0</ele><time>2026-04-03T08:29:54.999Z</time></trkpt><trkpt lat="44.662692048502436" lon="8.91383388359547"><ele>274.0</ele><time>2026-04-03T08:29:55.999Z</time></trkpt><trkpt lat="44.66256166504008" lon="8.914047667874634"><ele>268.0</ele><time>2026-04-03T08:29:56.999Z</time></trkpt><trkpt lat="44.66243434779399" lon="8.914254307811566"><ele>262.0</ele><time>2026-04-03T08:29:57.999Z</time></trkpt><trkpt lat="44.66229990591986" lon="8.914465556056316"><ele>263.0</ele><time>2026-04-03T08:29:58.999Z</time></trkpt><trkpt lat="44.66215981450926" lon="8.91467334642224"><ele>264.0</ele><time>2026-04-03T08:29:59.999Z</time></trkpt><trkpt lat="44.66202389768493" lon="8.914880858877392"><ele>265.0</ele><time>2026-04-03T08:30:00.999Z</time></trkpt><trkpt lat="44.6618842596814" lon="8.915093124907598"><ele>265.0</ele><time>2026-04-03T08:30:01.999Z</time></trkpt><trkpt lat="44.66175091859449" lon="8.915314176137201"><ele>265.0</ele><time>2026-04-03T08:30:02.999Z</time></trkpt><trkpt lat="44.661636453920494" lon="8.915549367216302"><ele>265.0</ele><time>2026-04-03T08:30:03.999Z</time></trkpt><trkpt lat="44.66153434565176" lon="8.915802722615439"><ele>261.66666666666663</ele><time>2026-04-03T08:30:04.999Z</time></trkpt><trkpt lat="44.66143936145738" lon="8.916054706639509"><ele>258.3333333333333</ele><time>2026-04-03T08:30:05.999Z</time></trkpt><trkpt lat="44.6613459836788" lon="8.916304495660897"><ele>255.0</ele><time>2026-04-03T08:30:06.999Z</time></trkpt><trkpt lat="44.66124738084708" lon="8.916550496869947"><ele>257.6666666666667</ele><time>2026-04-03T08:30:07.999Z</time></trkpt><trkpt lat="44.66114407184228" lon="8.916796666622583"><ele>260.33333333333337</ele><time>2026-04-03T08:30:08.999Z</time></trkpt><trkpt lat="44.66103911332337" lon="8.917038954399953"><ele>263.0</ele><time>2026-04-03T08:30:09.999Z</time></trkpt><trkpt lat="44.66093237606221" lon="8.91727666179726"><ele>264.0</ele><time>2026-04-03T08:30:10.999Z</time></trkpt><trkpt lat="44.66080837976627" lon="8.917495389741447"><ele>265.0</ele><time>2026-04-03T08:30:11.999Z</time></trkpt><trkpt lat="44.660650852975095" lon="8.917670105752517"><ele>266.0</ele><time>2026-04-03T08:30:12.999Z</time></trkpt><trkpt lat="44.66047345655949" lon="8.917806256753437"><ele>268.33333333333337</ele><time>2026-04-03T08:30:13.999Z</time></trkpt><trkpt lat="44.66028437773849" lon="8.917948449433895"><ele>270.6666666666667</ele><time>2026-04-03T08:30:14.999Z</time></trkpt><trkpt lat="44.6600930370777" lon="8.918111563285683"><ele>273.0</ele><time>2026-04-03T08:30:15.999Z</time></trkpt><trkpt lat="44.65989992086643" lon="8.918293084995682"><ele>268.0</ele><time>2026-04-03T08:30:16.999Z</time></trkpt><trkpt lat="44.65970381630943" lon="8.918474817264537"><ele>263.0</ele><time>2026-04-03T08:30:17.999Z</time></trkpt><trkpt lat="44.65949310414118" lon="8.918657964593894"><ele>268.0</ele><time>2026-04-03T08:30:18.999Z</time></trkpt><trkpt lat="44.659275752057766" lon="8.918865514870548"><ele>273.0</ele><time>2026-04-03T08:30:19.999Z</time></trkpt><trkpt lat="44.659069371859" lon="8.91908793484169"><ele>265.5</ele><time>2026-04-03T08:30:20.999Z</time></trkpt><trkpt lat="44.65888725312383" lon="8.919293566748474"><ele>258.0</ele><time>2026-04-03T08:30:21.999Z</time></trkpt><trkpt lat="44.65874910849396" lon="8.919538380174362"><ele>258.0</ele><time>2026-04-03T08:30:22.999Z</time></trkpt><trkpt lat="44.65864241340809" lon="8.919831905906964"><ele>258.0</ele><time>2026-04-03T08:30:23.999Z</time></trkpt><trkpt lat="44.65854403671584" lon="8.920133427908985"><ele>261.5</ele><time>2026-04-03T08:30:24.999Z</time></trkpt><trkpt lat="44.65844255277683" lon="8.92043284237657"><ele>265.0</ele><time>2026-04-03T08:30:25.999Z</time></trkpt><trkpt lat="44.65835764484987" lon="8.920736309915787"><ele>266.0</ele><time>2026-04-03T08:30:26.999Z</time></trkpt><trkpt lat="44.658295810413165" lon="8.92104986922043"><ele>267.0</ele><time>2026-04-03T08:30:27.999Z</time></trkpt><trkpt lat="44.65825053572386" lon="8.921360052231918"><ele>267.0</ele><time>2026-04-03T08:30:28.999Z</time></trkpt><trkpt lat="44.65822601237727" lon="8.921670241134429"><ele>267.0</ele><time>2026-04-03T08:30:29.999Z</time></trkpt><trkpt lat="44.658215750115566" lon="8.921980407549807"><ele>267.0</ele><time>2026-04-03T08:30:30.999Z</time></trkpt><trkpt lat="44.6582200780983" lon="8.922276703403483"><ele>268.3333333333333</ele><time>2026-04-03T08:30:31.999Z</time></trkpt><trkpt lat="44.65823854428997" lon="8.922572200096235"><ele>269.66666666666663</ele><time>2026-04-03T08:30:32.999Z</time></trkpt><trkpt lat="44.65825975394268" lon="8.922880613737664"><ele>271.0</ele><time>2026-04-03T08:30:33.999Z</time></trkpt><trkpt lat="44.65827523453594" lon="8.92318940847739"><ele>270.3333333333333</ele><time>2026-04-03T08:30:34.999Z</time></trkpt><trkpt lat="44.658283645697615" lon="8.923490603089496"><ele>269.6666666666667</ele><time>2026-04-03T08:30:36Z</time></trkpt><trkpt lat="44.65829163391355" lon="8.923784240701641"><ele>269.0</ele><time>2026-04-03T08:30:37Z</time></trkpt><trkpt lat="44.658301762694286" lon="8.924082847115457"><ele>270.0</ele><time>2026-04-03T08:30:38Z</time></trkpt><trkpt lat="44.65831753272786" lon="8.924366654808471"><ele>271.0</ele><time>2026-04-03T08:30:39Z</time></trkpt><trkpt lat="44.65832779330553" lon="8.924631801574755"><ele>272.0</ele><time>2026-04-03T08:30:40Z</time></trkpt><trkpt lat="44.65833242480916" lon="8.924861641807023"><ele>274.33333333333337</ele><time>2026-04-03T08:30:41Z</time></trkpt><trkpt lat="44.65834125139099" lon="8.925071926566778"><ele>276.6666666666667</ele><time>2026-04-03T08:30:42Z</time></trkpt><trkpt lat="44.658371180006945" lon="8.925285597153161"><ele>279.0</ele><time>2026-04-03T08:30:43Z</time></trkpt><trkpt lat="44.658431828188476" lon="8.925484657160446"><ele>279.0</ele><time>2026-04-03T08:30:44Z</time></trkpt><trkpt lat="44.65851893318038" lon="8.925672606042854"><ele>279.0</ele><time>2026-04-03T08:30:45Z</time></trkpt><trkpt lat="44.658626813378554" lon="8.92583184616731"><ele>279.0</ele><time>2026-04-03T08:30:46Z</time></trkpt><trkpt lat="44.65875383521498" lon="8.925972778349122"><ele>272.6666666666667</ele><time>2026-04-03T08:30:47Z</time></trkpt><trkpt lat="44.65889808765056" lon="8.926095979491718"><ele>266.33333333333337</ele><time>2026-04-03T08:30:48Z</time></trkpt><trkpt lat="44.65905086841246" lon="8.926219028779137"><ele>260.0</ele><time>2026-04-03T08:30:49Z</time></trkpt><trkpt lat="44.65920061389248" lon="8.926348449988259"><ele>260.0</ele><time>2026-04-03T08:30:50Z</time></trkpt><trkpt lat="44.65934727380997" lon="8.926487073499104"><ele>260.0</ele><time>2026-04-03T08:30:51Z</time></trkpt><trkpt lat="44.65949371718343" lon="8.926626854675941"><ele>260.0</ele><time>2026-04-03T08:30:52Z</time></trkpt><trkpt lat="44.65964452439108" lon="8.926769306030048"><ele>262.0</ele><time>2026-04-03T08:30:53Z</time></trkpt><trkpt lat="44.659799402367916" lon="8.926915534326644"><ele>264.0</ele><time>2026-04-03T08:30:54Z</time></trkpt><trkpt lat="44.65995976435868" lon="8.92706525748279"><ele>266.0</ele><time>2026-04-03T08:30:55Z</time></trkpt><trkpt lat="44.66012431736753" lon="8.927222191814597"><ele>266.0</ele><time>2026-04-03T08:30:56Z</time></trkpt><trkpt lat="44.66030109442869" lon="8.927390066002447"><ele>266.0</ele><time>2026-04-03T08:30:57Z</time></trkpt><trkpt lat="44.660486992179344" lon="8.927572613169936"><ele>266.0</ele><time>2026-04-03T08:30:58Z</time></trkpt><trkpt lat="44.660666053591285" lon="8.927745676803085"><ele>266.0</ele><time>2026-04-03T08:30:59Z</time></trkpt><trkpt lat="44.66084489433089" lon="8.927886896380892"><ele>266.0</ele><time>2026-04-03T08:31:00Z</time></trkpt><trkpt lat="44.661022177890416" lon="8.927974734545527"><ele>266.0</ele><time>2026-04-03T08:31:01Z</time></trkpt><trkpt lat="44.66119462153958" lon="8.928012256532876"><ele>264.6666666666667</ele><time>2026-04-03T08:31:02Z</time></trkpt><trkpt lat="44.66135482533738" lon="8.92801770327276"><ele>263.3333333333333</ele><time>2026-04-03T08:31:03Z</time></trkpt><trkpt lat="44.66151613911075" lon="8.927996342936167"><ele>262.0</ele><time>2026-04-03T08:31:04Z</time></trkpt><trkpt lat="44.66167448793936" lon="8.927991704612198"><ele>262.0</ele><time>2026-04-03T08:31:05Z</time></trkpt><trkpt lat="44.6618350321896" lon="8.927999512571477"><ele>262.0</ele><time>2026-04-03T08:31:06Z</time></trkpt><trkpt lat="44.66199856691778" lon="8.927998789327264"><ele>262.0</ele><time>2026-04-03T08:31:07Z</time></trkpt><trkpt lat="44.662171261868394" lon="8.927990496876797"><ele>261.0</ele><time>2026-04-03T08:31:08Z</time></trkpt><trkpt lat="44.662352451340375" lon="8.927989139882069"><ele>260.0</ele><time>2026-04-03T08:31:09Z</time></trkpt><trkpt lat="44.662545048825564" lon="8.927993990121953"><ele>259.0</ele><time>2026-04-03T08:31:10Z</time></trkpt><trkpt lat="44.662747582350384" lon="8.927998050347384"><ele>263.66666666666663</ele><time>2026-04-03T08:31:11Z</time></trkpt><trkpt lat="44.66295947221857" lon="8.927999821457533"><ele>268.3333333333333</ele><time>2026-04-03T08:31:12Z</time></trkpt><trkpt lat="44.66317631970347" lon="8.92800822044715"><ele>273.0</ele><time>2026-04-03T08:31:13Z</time></trkpt><trkpt lat="44.66340318962537" lon="8.928034306954618"><ele>280.5</ele><time>2026-04-03T08:31:14Z</time></trkpt><trkpt lat="44.663624700201595" lon="8.928089134256828"><ele>288.0</ele><time>2026-04-03T08:31:15Z</time></trkpt><trkpt lat="44.663848117978844" lon="8.928173238979976"><ele>288.0</ele><time>2026-04-03T08:31:16Z</time></trkpt><trkpt lat="44.66407460550291" lon="8.928294652428795"><ele>288.0</ele><time>2026-04-03T08:31:17Z</time></trkpt><trkpt lat="44.66430644630444" lon="8.928459256447649"><ele>282.5</ele><time>2026-04-03T08:31:18Z</time></trkpt><trkpt lat="44.664526956381074" lon="8.928652441998512"><ele>277.0</ele><time>2026-04-03T08:31:18.999Z</time></trkpt><trkpt lat="44.66473472865546" lon="8.92887683630606"><ele>277.0</ele><time>2026-04-03T08:31:19.999Z</time></trkpt><trkpt lat="44.664931595207456" lon="8.929133695709764"><ele>277.0</ele><time>2026-04-03T08:31:20.999Z</time></trkpt><trkpt lat="44.665113336079685" lon="8.929416270367646"><ele>273.5</ele><time>2026-04-03T08:31:21.999Z</time></trkpt><trkpt lat="44.665276641335836" lon="8.929735241131182"><ele>270.0</ele><time>2026-04-03T08:31:22.999Z</time></trkpt><trkpt lat="44.665421163036875" lon="8.930080523945739"><ele>278.5</ele><time>2026-04-03T08:31:23.999Z</time></trkpt><trkpt lat="44.66554099971641" lon="8.930444560526553"><ele>287.0</ele><time>2026-04-03T08:31:24.999Z</time></trkpt><trkpt lat="44.665639839076164" lon="8.93082184675982"><ele>287.5</ele><time>2026-04-03T08:31:25.999Z</time></trkpt><trkpt lat="44.66572339604151" lon="8.9312128617408"><ele>288.0</ele><time>2026-04-03T08:31:26.999Z</time></trkpt><trkpt lat="44.6657899667545" lon="8.93161031837746"><ele>288.5</ele><time>2026-04-03T08:31:27.999Z</time></trkpt><trkpt lat="44.66583948770212" lon="8.932010307895824"><ele>289.0</ele><time>2026-04-03T08:31:28.999Z</time></trkpt><trkpt lat="44.66587255759806" lon="8.932412607761682"><ele>289.5</ele><time>2026-04-03T08:31:29.999Z</time></trkpt><trkpt lat="44.66588280444853" lon="8.93281161731134"><ele>290.0</ele><time>2026-04-03T08:31:30.999Z</time></trkpt><trkpt lat="44.66586639645146" lon="8.933210104208584"><ele>289.5</ele><time>2026-04-03T08:31:31.999Z</time></trkpt><trkpt lat="44.665837461913405" lon="8.933611623908906"><ele>289.0</ele><time>2026-04-03T08:31:32.999Z</time></trkpt><trkpt lat="44.66580435309973" lon="8.934006903267672"><ele>288.5</ele><time>2026-04-03T08:31:33.999Z</time></trkpt><trkpt lat="44.665774401901196" lon="8.934412788181548"><ele>288.0</ele><time>2026-04-03T08:31:34.999Z</time></trkpt><trkpt lat="44.6657481374516" lon="8.934818545398192"><ele>287.5</ele><time>2026-04-03T08:31:35.999Z</time></trkpt><trkpt lat="44.66572021444068" lon="8.935224316554908"><ele>287.0</ele><time>2026-04-03T08:31:36.999Z</time></trkpt><trkpt lat="44.665688813310325" lon="8.935628929750788"><ele>285.0</ele><time>2026-04-03T08:31:37.999Z</time></trkpt><trkpt lat="44.66565579162211" lon="8.93603115430192"><ele>283.0</ele><time>2026-04-03T08:31:38.999Z</time></trkpt><trkpt lat="44.66562681741883" lon="8.93643223416419"><ele>283.0</ele><time>2026-04-03T08:31:39.999Z</time></trkpt><trkpt lat="44.665597827761424" lon="8.936834923665046"><ele>283.0</ele><time>2026-04-03T08:31:40.999Z</time></trkpt><trkpt lat="44.66556931045081" lon="8.937230890245548"><ele>285.0</ele><time>2026-04-03T08:31:41.999Z</time></trkpt><trkpt lat="44.66553142998997" lon="8.93762196156552"><ele>287.0</ele><time>2026-04-03T08:31:42.999Z</time></trkpt><trkpt lat="44.6654806447678" lon="8.93800731131834"><ele>287.0</ele><time>2026-04-03T08:31:43.999Z</time></trkpt><trkpt lat="44.665413972394795" lon="8.938384452060188"><ele>287.0</ele><time>2026-04-03T08:31:44.999Z</time></trkpt><trkpt lat="44.6653397719407" lon="8.938751694398919"><ele>286.0</ele><time>2026-04-03T08:31:45.999Z</time></trkpt><trkpt lat="44.665256818584155" lon="8.93911505460116"><ele>285.0</ele><time>2026-04-03T08:31:46.999Z</time></trkpt><trkpt lat="44.665163800065436" lon="8.939469544907823"><ele>285.0</ele><time>2026-04-03T08:31:47.999Z</time></trkpt><trkpt lat="44.6650657148494" lon="8.93982314607962"><ele>285.0</ele><time>2026-04-03T08:31:48.999Z</time></trkpt><trkpt lat="44.6649675984206" lon="8.940175584132888"><ele>286.0</ele><time>2026-04-03T08:31:49.999Z</time></trkpt><trkpt lat="44.664873147379794" lon="8.940524110196167"><ele>287.0</ele><time>2026-04-03T08:31:50.999Z</time></trkpt><trkpt lat="44.66478066144306" lon="8.940868401823177"><ele>289.0</ele><time>2026-04-03T08:31:51.999Z</time></trkpt><trkpt lat="44.664689613484114" lon="8.941212968451815"><ele>291.0</ele><time>2026-04-03T08:31:52.999Z</time></trkpt><trkpt lat="44.66460042531271" lon="8.941554015154537"><ele>287.5</ele><time>2026-04-03T08:31:53.999Z</time></trkpt><trkpt lat="44.6645101799366" lon="8.94189079924465"><ele>284.0</ele><time>2026-04-03T08:31:54.999Z</time></trkpt><trkpt lat="44.66442190121853" lon="8.94221966446873"><ele>284.0</ele><time>2026-04-03T08:31:55.999Z</time></trkpt><trkpt lat="44.66433969791246" lon="8.942534992512737"><ele>284.0</ele><time>2026-04-03T08:31:56.999Z</time></trkpt><trkpt lat="44.66426775173936" lon="8.942845861483251"><ele>285.0</ele><time>2026-04-03T08:31:57.999Z</time></trkpt><trkpt lat="44.664214647108736" lon="8.94315609191598"><ele>286.0</ele><time>2026-04-03T08:31:58.999Z</time></trkpt><trkpt lat="44.66417822782641" lon="8.943468625353258"><ele>286.0</ele><time>2026-04-03T08:31:59.999Z</time></trkpt><trkpt lat="44.664165672070716" lon="8.943782395190388"><ele>286.0</ele><time>2026-04-03T08:32:00.999Z</time></trkpt><trkpt lat="44.664172609894536" lon="8.944100127580095"><ele>283.0</ele><time>2026-04-03T08:32:01.999Z</time></trkpt><trkpt lat="44.664199357985005" lon="8.944416594505157"><ele>280.0</ele><time>2026-04-03T08:32:02.999Z</time></trkpt><trkpt lat="44.664235421688566" lon="8.944727846338303"><ele>280.0</ele><time>2026-04-03T08:32:03.999Z</time></trkpt><trkpt lat="44.664285541477035" lon="8.945039988972649"><ele>280.0</ele><time>2026-04-03T08:32:04.999Z</time></trkpt><trkpt lat="44.66433846217275" lon="8.945347015395821"><ele>278.0</ele><time>2026-04-03T08:32:05.999Z</time></trkpt><trkpt lat="44.664385704964936" lon="8.945646648372328"><ele>276.0</ele><time>2026-04-03T08:32:06.999Z</time></trkpt><trkpt lat="44.66442871254862" lon="8.945948355394608"><ele>274.0</ele><time>2026-04-03T08:32:07.999Z</time></trkpt><trkpt lat="44.664464363573266" lon="8.946246747825157"><ele>288.0</ele><time>2026-04-03T08:32:08.999Z</time></trkpt><trkpt lat="44.66448597652167" lon="8.94654047067207"><ele>302.0</ele><time>2026-04-03T08:32:09.999Z</time></trkpt><trkpt lat="44.66448604499764" lon="8.94683441324242"><ele>316.0</ele><time>2026-04-03T08:32:10.999Z</time></trkpt><trkpt lat="44.664465343168295" lon="8.947129954890213"><ele>306.3333333333333</ele><time>2026-04-03T08:32:11.999Z</time></trkpt><trkpt lat="44.664424997258564" lon="8.947420986118653"><ele>296.6666666666667</ele><time>2026-04-03T08:32:12.999Z</time></trkpt><trkpt lat="44.6643648455758" lon="8.94769557964959"><ele>287.0</ele><time>2026-04-03T08:32:13.999Z</time></trkpt><trkpt lat="44.66428623182864" lon="8.947962313701016"><ele>287.0</ele><time>2026-04-03T08:32:14.999Z</time></trkpt><trkpt lat="44.66419193851346" lon="8.9482147296724"><ele>287.0</ele><time>2026-04-03T08:32:15.999Z</time></trkpt><trkpt lat="44.66408260364093" lon="8.94845152919478"><ele>287.0</ele><time>2026-04-03T08:32:16.999Z</time></trkpt><trkpt lat="44.66396410752062" lon="8.948676366352595"><ele>286.33333333333337</ele><time>2026-04-03T08:32:17.999Z</time></trkpt><trkpt lat="44.663837038486626" lon="8.948888638493775"><ele>285.6666666666667</ele><time>2026-04-03T08:32:18.999Z</time></trkpt><trkpt lat="44.66370559681295" lon="8.949099398172331"><ele>285.0</ele><time>2026-04-03T08:32:19.999Z</time></trkpt><trkpt lat="44.66357969435378" lon="8.949308236386825"><ele>285.0</ele><time>2026-04-03T08:32:20.999Z</time></trkpt><trkpt lat="44.66345473711523" lon="8.949520455142611"><ele>285.0</ele><time>2026-04-03T08:32:21.999Z</time></trkpt><trkpt lat="44.663330971644385" lon="8.949733098283193"><ele>285.0</ele><time>2026-04-03T08:32:22.999Z</time></trkpt><trkpt lat="44.6632027606694" lon="8.949941254168483"><ele>285.6666666666667</ele><time>2026-04-03T08:32:23.999Z</time></trkpt><trkpt lat="44.66306630064165" lon="8.9501403805239"><ele>286.33333333333337</ele><time>2026-04-03T08:32:24.999Z</time></trkpt><trkpt lat="44.66291919439039" lon="8.950322017108213"><ele>287.0</ele><time>2026-04-03T08:32:25.999Z</time></trkpt><trkpt lat="44.66276110925065" lon="8.950478764144107"><ele>287.0</ele><time>2026-04-03T08:32:26.999Z</time></trkpt><trkpt lat="44.662598107352245" lon="8.950613449120745"><ele>287.0</ele><time>2026-04-03T08:32:27.999Z</time></trkpt><trkpt lat="44.66243280677193" lon="8.950733937371837"><ele>287.0</ele><time>2026-04-03T08:32:28.999Z</time></trkpt><trkpt lat="44.662268772291426" lon="8.950831269295664"><ele>289.33333333333337</ele><time>2026-04-03T08:32:29.999Z</time></trkpt><trkpt lat="44.662097856729034" lon="8.950914842611246"><ele>291.6666666666667</ele><time>2026-04-03T08:32:30.999Z</time></trkpt><trkpt lat="44.66192050017538" lon="8.950979583448998"><ele>294.0</ele><time>2026-04-03T08:32:31.999Z</time></trkpt><trkpt lat="44.66173669452419" lon="8.95101712766422"><ele>294.0</ele><time>2026-04-03T08:32:32.999Z</time></trkpt><trkpt lat="44.66154677556944" lon="8.951037471392214"><ele>294.0</ele><time>2026-04-03T08:32:33.999Z</time></trkpt><trkpt lat="44.66135501277074" lon="8.951039996209584"><ele>294.0</ele><time>2026-04-03T08:32:34.999Z</time></trkpt><trkpt lat="44.66116155182978" lon="8.951018852356466"><ele>295.3333333333333</ele><time>2026-04-03T08:32:35.999Z</time></trkpt><trkpt lat="44.66096376924749" lon="8.950968810948648"><ele>296.66666666666663</ele><time>2026-04-03T08:32:36.999Z</time></trkpt><trkpt lat="44.66077158724322" lon="8.950896587311819"><ele>298.0</ele><time>2026-04-03T08:32:37.999Z</time></trkpt><trkpt lat="44.660577842471014" lon="8.950803998151944"><ele>296.66666666666663</ele><time>2026-04-03T08:32:38.999Z</time></trkpt><trkpt lat="44.66039149805177" lon="8.950680837692229"><ele>295.3333333333333</ele><time>2026-04-03T08:32:39.999Z</time></trkpt><trkpt lat="44.66020368340959" lon="8.950546267354907"><ele>294.0</ele><time>2026-04-03T08:32:40.999Z</time></trkpt><trkpt lat="44.660016545529004" lon="8.950406220073036"><ele>294.0</ele><time>2026-04-03T08:32:42Z</time></trkpt><trkpt lat="44.659824743342924" lon="8.95026635265735"><ele>294.0</ele><time>2026-04-03T08:32:43Z</time></trkpt><trkpt lat="44.65962505560986" lon="8.95012860970244"><ele>294.0</ele><time>2026-04-03T08:32:44Z</time></trkpt><trkpt lat="44.659425819755214" lon="8.949991429825227"><ele>292.6666666666667</ele><time>2026-04-03T08:32:45Z</time></trkpt><trkpt lat="44.65922540296857" lon="8.949851915669557"><ele>291.33333333333337</ele><time>2026-04-03T08:32:46Z</time></trkpt><trkpt lat="44.65902347495427" lon="8.949710724658395"><ele>290.0</ele><time>2026-04-03T08:32:47Z</time></trkpt><trkpt lat="44.658818592198095" lon="8.949566558631014"><ele>293.0</ele><time>2026-04-03T08:32:48Z</time></trkpt><trkpt lat="44.658607220174744" lon="8.949416645516328"><ele>296.0</ele><time>2026-04-03T08:32:49Z</time></trkpt><trkpt lat="44.658397899967994" lon="8.949267216687158"><ele>294.0</ele><time>2026-04-03T08:32:50Z</time></trkpt><trkpt lat="44.658191002935006" lon="8.949121689321531"><ele>292.0</ele><time>2026-04-03T08:32:51Z</time></trkpt><trkpt lat="44.657983933909904" lon="8.948976757188866"><ele>297.5</ele><time>2026-04-03T08:32:52Z</time></trkpt><trkpt lat="44.65778093250812" lon="8.948834935924282"><ele>303.0</ele><time>2026-04-03T08:32:53Z</time></trkpt><trkpt lat="44.657580802430466" lon="8.948696876978156"><ele>303.0</ele><time>2026-04-03T08:32:54Z</time></trkpt><trkpt lat="44.657388423270376" lon="8.948558784067751"><ele>303.0</ele><time>2026-04-03T08:32:55Z</time></trkpt><trkpt lat="44.65719660645684" lon="8.948425008024246"><ele>303.0</ele><time>2026-04-03T08:32:56Z</time></trkpt><trkpt lat="44.65699152726793" lon="8.948285596876726"><ele>302.6666666666667</ele><time>2026-04-03T08:32:57Z</time></trkpt><trkpt lat="44.65679359807222" lon="8.948139021240845"><ele>302.33333333333337</ele><time>2026-04-03T08:32:58Z</time></trkpt><trkpt lat="44.65659945710072" lon="8.947997682251442"><ele>302.0</ele><time>2026-04-03T08:32:59Z</time></trkpt><trkpt lat="44.65641043913245" lon="8.947851856084782"><ele>302.0</ele><time>2026-04-03T08:33:00Z</time></trkpt><trkpt lat="44.65622637026497" lon="8.947694443769123"><ele>302.0</ele><time>2026-04-03T08:33:01Z</time></trkpt><trkpt lat="44.65604664194281" lon="8.947541700794332"><ele>302.0</ele><time>2026-04-03T08:33:02Z</time></trkpt><trkpt lat="44.65587853985727" lon="8.947393228938962"><ele>302.0</ele><time>2026-04-03T08:33:03Z</time></trkpt><trkpt lat="44.65571885702564" lon="8.947260634633748"><ele>302.0</ele><time>2026-04-03T08:33:04Z</time></trkpt><trkpt lat="44.655559258957354" lon="8.947152906681811"><ele>302.0</ele><time>2026-04-03T08:33:05Z</time></trkpt><trkpt lat="44.65539858735721" lon="8.947064937398153"><ele>304.6666666666667</ele><time>2026-04-03T08:33:06Z</time></trkpt><trkpt lat="44.65523729453305" lon="8.947024263206"><ele>307.3333333333333</ele><time>2026-04-03T08:33:07Z</time></trkpt><trkpt lat="44.655059994619904" lon="8.947023431562325"><ele>310.0</ele><time>2026-04-03T08:33:08Z</time></trkpt><trkpt lat="44.65488107504435" lon="8.947070758798473"><ele>310.0</ele><time>2026-04-03T08:33:09Z</time></trkpt><trkpt lat="44.654709806131194" lon="8.947159774088698"><ele>310.0</ele><time>2026-04-03T08:33:10Z</time></trkpt><trkpt lat="44.65454408524195" lon="8.947277286022212"><ele>310.0</ele><time>2026-04-03T08:33:11Z</time></trkpt><trkpt lat="44.65437649506993" lon="8.947410629817051"><ele>315.3333333333333</ele><time>2026-04-03T08:33:12Z</time></trkpt><trkpt lat="44.654203087234734" lon="8.947537776410512"><ele>320.6666666666667</ele><time>2026-04-03T08:33:13Z</time></trkpt><trkpt lat="44.65402093356481" lon="8.947659352697087"><ele>326.0</ele><time>2026-04-03T08:33:14Z</time></trkpt><trkpt lat="44.653832183181635" lon="8.947786065108454"><ele>326.0</ele><time>2026-04-03T08:33:15Z</time></trkpt><trkpt lat="44.65364175579761" lon="8.947913790732267"><ele>326.0</ele><time>2026-04-03T08:33:16Z</time></trkpt><trkpt lat="44.6534475699012" lon="8.948043480910352"><ele>326.0</ele><time>2026-04-03T08:33:17Z</time></trkpt><trkpt lat="44.653250266725735" lon="8.948180212081688"><ele>334.5</ele><time>2026-04-03T08:33:18Z</time></trkpt><trkpt lat="44.65305176417703" lon="8.948322421449374"><ele>343.0</ele><time>2026-04-03T08:33:19Z</time></trkpt><trkpt lat="44.65284645267337" lon="8.94846004080481"><ele>327.5</ele><time>2026-04-03T08:33:20Z</time></trkpt><trkpt lat="44.652634124602336" lon="8.948600847671386"><ele>312.0</ele><time>2026-04-03T08:33:21Z</time></trkpt><trkpt lat="44.65240787718914" lon="8.94875304194319"><ele>312.0</ele><time>2026-04-03T08:33:21.999Z</time></trkpt><trkpt lat="44.65218077505396" lon="8.948907298554241"><ele>312.0</ele><time>2026-04-03T08:33:22.999Z</time></trkpt><trkpt lat="44.65195755168866" lon="8.949063584007419"><ele>313.5</ele><time>2026-04-03T08:33:23.999Z</time></trkpt><trkpt lat="44.65174048945374" lon="8.949240882946404"><ele>315.0</ele><time>2026-04-03T08:33:24.999Z</time></trkpt><trkpt lat="44.6515404083114" lon="8.94945742676653"><ele>315.0</ele><time>2026-04-03T08:33:25.999Z</time></trkpt><trkpt lat="44.65137833471175" lon="8.949715240946515"><ele>315.0</ele><time>2026-04-03T08:33:26.999Z</time></trkpt><trkpt lat="44.651246466742215" lon="8.949999900408983"><ele>323.5</ele><time>2026-04-03T08:33:27.999Z</time></trkpt><trkpt lat="44.65114361254901" lon="8.950305207032356"><ele>332.0</ele><time>2026-04-03T08:33:28.999Z</time></trkpt><trkpt lat="44.65107153248867" lon="8.950622336170293"><ele>312.0</ele><time>2026-04-03T08:33:29.999Z</time></trkpt><trkpt lat="44.651022390699175" lon="8.950946680335397"><ele>292.0</ele><time>2026-04-03T08:33:30.999Z</time></trkpt><trkpt lat="44.65100466794972" lon="8.951279531517686"><ele>292.0</ele><time>2026-04-03T08:33:31.999Z</time></trkpt><trkpt lat="44.65101122934291" lon="8.951617057003382"><ele>292.0</ele><time>2026-04-03T08:33:32.999Z</time></trkpt><trkpt lat="44.651018284768305" lon="8.951955994753412"><ele>291.5</ele><time>2026-04-03T08:33:33.999Z</time></trkpt><trkpt lat="44.65102109584295" lon="8.9523079498502"><ele>291.0</ele><time>2026-04-03T08:33:34.999Z</time></trkpt><trkpt lat="44.65102205519349" lon="8.952668408553594"><ele>291.0</ele><time>2026-04-03T08:33:35.999Z</time></trkpt><trkpt lat="44.6510235628244" lon="8.953033906233197"><ele>291.0</ele><time>2026-04-03T08:33:36.999Z</time></trkpt><trkpt lat="44.65102463860854" lon="8.95340200322929"><ele>292.5</ele><time>2026-04-03T08:33:37.999Z</time></trkpt><trkpt lat="44.65102629240812" lon="8.953770498506323"><ele>294.0</ele><time>2026-04-03T08:33:38.999Z</time></trkpt><trkpt lat="44.65102662472373" lon="8.95413788651412"><ele>292.5</ele><time>2026-04-03T08:33:39.999Z</time></trkpt><trkpt lat="44.651021900759055" lon="8.954500122359612"><ele>291.0</ele><time>2026-04-03T08:33:40.999Z</time></trkpt><trkpt lat="44.651014471732836" lon="8.954857707997652"><ele>290.0</ele><time>2026-04-03T08:33:41.999Z</time></trkpt><trkpt lat="44.65101297182641" lon="8.955221360051675"><ele>289.0</ele><time>2026-04-03T08:33:42.999Z</time></trkpt><trkpt lat="44.65100899948649" lon="8.955570212249205"><ele>290.0</ele><time>2026-04-03T08:33:43.999Z</time></trkpt><trkpt lat="44.6510057768017" lon="8.955922339858313"><ele>291.0</ele><time>2026-04-03T08:33:44.999Z</time></trkpt><trkpt lat="44.65100340563737" lon="8.956264385865241"><ele>291.0</ele><time>2026-04-03T08:33:45.999Z</time></trkpt><trkpt lat="44.650996075335925" lon="8.956584640067609"><ele>291.0</ele><time>2026-04-03T08:33:46.999Z</time></trkpt><trkpt lat="44.650957038979925" lon="8.956886154314269"><ele>291.0</ele><time>2026-04-03T08:33:47.999Z</time></trkpt><trkpt lat="44.65088090928628" lon="8.95717454015297"><ele>294.0</ele><time>2026-04-03T08:33:48.999Z</time></trkpt><trkpt lat="44.6507710477839" lon="8.957446158242917"><ele>297.0</ele><time>2026-04-03T08:33:49.999Z</time></trkpt><trkpt lat="44.650639579005066" lon="8.957708296173491"><ele>299.6666666666667</ele><time>2026-04-03T08:33:50.999Z</time></trkpt><trkpt lat="44.65049615190074" lon="8.957949756805489"><ele>302.33333333333337</ele><time>2026-04-03T08:33:51.999Z</time></trkpt><trkpt lat="44.65033658653481" lon="8.958167784290328"><ele>305.0</ele><time>2026-04-03T08:33:52.999Z</time></trkpt><trkpt lat="44.65017096076449" lon="8.958371851246081"><ele>308.0</ele><time>2026-04-03T08:33:53.999Z</time></trkpt><trkpt lat="44.65001349216624" lon="8.958567986436147"><ele>311.0</ele><time>2026-04-03T08:33:54.999Z</time></trkpt><trkpt lat="44.649858302596144" lon="8.95874530736892"><ele>314.0</ele><time>2026-04-03T08:33:55.999Z</time></trkpt><trkpt lat="44.649680874335374" lon="8.958885811080489"><ele>314.0</ele><time>2026-04-03T08:33:56.999Z</time></trkpt><trkpt lat="44.64947712395243" lon="8.95896534929413"><ele>314.0</ele><time>2026-04-03T08:33:57.999Z</time></trkpt><trkpt lat="44.64926401543367" lon="8.958997939240962"><ele>314.0</ele><time>2026-04-03T08:33:58.999Z</time></trkpt><trkpt lat="44.6490642138428" lon="8.959013285008476"><ele>313.0</ele><time>2026-04-03T08:33:59.999Z</time></trkpt><trkpt lat="44.64888706194335" lon="8.95903502055659"><ele>312.0</ele><time>2026-04-03T08:34:00.999Z</time></trkpt><trkpt lat="44.648700031252986" lon="8.959066164593024"><ele>311.0</ele><time>2026-04-03T08:34:01.999Z</time></trkpt><trkpt lat="44.648497628167206" lon="8.959101021377565"><ele>308.33333333333337</ele><time>2026-04-03T08:34:02.999Z</time></trkpt><trkpt lat="44.6482839549816" lon="8.959130842259283"><ele>305.6666666666667</ele><time>2026-04-03T08:34:03.999Z</time></trkpt><trkpt lat="44.64806506655042" lon="8.959155839125172"><ele>303.0</ele><time>2026-04-03T08:34:04.999Z</time></trkpt><trkpt lat="44.64784269295153" lon="8.959181315645008"><ele>308.0</ele><time>2026-04-03T08:34:05.999Z</time></trkpt><trkpt lat="44.647617077851685" lon="8.959210940893827"><ele>313.0</ele><time>2026-04-03T08:34:06.999Z</time></trkpt><trkpt lat="44.64738804218062" lon="8.959244983781637"><ele>313.0</ele><time>2026-04-03T08:34:07.999Z</time></trkpt><trkpt lat="44.64716051714337" lon="8.959276787172644"><ele>313.0</ele><time>2026-04-03T08:34:08.999Z</time></trkpt><trkpt lat="44.646929481760715" lon="8.959305752001253"><ele>311.0</ele><time>2026-04-03T08:34:09.999Z</time></trkpt><trkpt lat="44.646701026397054" lon="8.959332500870927"><ele>309.0</ele><time>2026-04-03T08:34:10.999Z</time></trkpt><trkpt lat="44.64647890849614" lon="8.95936084303949"><ele>309.0</ele><time>2026-04-03T08:34:11.999Z</time></trkpt><trkpt lat="44.6462656288072" lon="8.959391942447116"><ele>309.0</ele><time>2026-04-03T08:34:12.999Z</time></trkpt><trkpt lat="44.64606324283867" lon="8.959411140670937"><ele>309.0</ele><time>2026-04-03T08:34:13.999Z</time></trkpt><trkpt lat="44.6458722833759" lon="8.959407704693755"><ele>307.0</ele><time>2026-04-03T08:34:14.999Z</time></trkpt><trkpt lat="44.64568516117948" lon="8.959373475680565"><ele>305.0</ele><time>2026-04-03T08:34:15.999Z</time></trkpt><trkpt lat="44.64550068976915" lon="8.959316824671447"><ele>303.0</ele><time>2026-04-03T08:34:16.999Z</time></trkpt><trkpt lat="44.645315207978456" lon="8.959246549424327"><ele>299.0</ele><time>2026-04-03T08:34:17.999Z</time></trkpt><trkpt lat="44.64512692460747" lon="8.959175907105223"><ele>295.0</ele><time>2026-04-03T08:34:18.999Z</time></trkpt><trkpt lat="44.64493905020389" lon="8.959111898361014"><ele>291.0</ele><time>2026-04-03T08:34:19.999Z</time></trkpt><trkpt lat="44.64474896506719" lon="8.959049307149884"><ele>291.0</ele><time>2026-04-03T08:34:20.999Z</time></trkpt><trkpt lat="44.64455937273514" lon="8.958985451486662"><ele>291.0</ele><time>2026-04-03T08:34:21.999Z</time></trkpt><trkpt lat="44.6443681500721" lon="8.958915198878525"><ele>291.0</ele><time>2026-04-03T08:34:22.999Z</time></trkpt><trkpt lat="44.64417532826875" lon="8.958835725526729"><ele>292.3333333333333</ele><time>2026-04-03T08:34:23.999Z</time></trkpt><trkpt lat="44.643984221532385" lon="8.95874545506437"><ele>293.66666666666663</ele><time>2026-04-03T08:34:24.999Z</time></trkpt><trkpt lat="44.643797664244765" lon="8.958647698791607"><ele>295.0</ele><time>2026-04-03T08:34:25.999Z</time></trkpt><trkpt lat="44.64361695107175" lon="8.958549351611522"><ele>299.5</ele><time>2026-04-03T08:34:26.999Z</time></trkpt><trkpt lat="44.64347052176975" lon="8.958464931985935"><ele>304.0</ele><time>2026-04-03T08:34:27.999Z</time></trkpt><trkpt lat="44.64335081122134" lon="8.9583941676164"><ele>308.5</ele><time>2026-04-03T08:34:28.999Z</time></trkpt><trkpt lat="44.64323847952971" lon="8.95832384442365"><ele>313.0</ele><time>2026-04-03T08:34:29.999Z</time></trkpt><trkpt lat="44.64312871388991" lon="8.958253213977523"><ele>313.0</ele><time>2026-04-03T08:34:30.999Z</time></trkpt><trkpt lat="44.64302861597641" lon="8.958186989152837"><ele>313.0</ele><time>2026-04-03T08:34:31.999Z</time></trkpt><trkpt lat="44.64293982148287" lon="8.958127880026147"><ele>313.0</ele><time>2026-04-03T08:34:32.999Z</time></trkpt><trkpt lat="44.64286162356138" lon="8.958076503798516"><ele>313.0</ele><time>2026-04-03T08:34:33.999Z</time></trkpt><trkpt lat="44.64278952601093" lon="8.95802745179267"><ele>313.0</ele><time>2026-04-03T08:34:34.999Z</time></trkpt><trkpt lat="44.64272240516439" lon="8.957980066751661"><ele>316.2</ele><time>2026-04-03T08:34:35.999Z</time></trkpt><trkpt lat="44.64266627109288" lon="8.957938716824863"><ele>319.4</ele><time>2026-04-03T08:34:36.999Z</time></trkpt><trkpt lat="44.642561430864816" lon="8.957857178626872"><ele>322.59999999999997</ele><time>2026-04-03T08:34:38.999Z</time></trkpt><trkpt lat="44.64245695742849" lon="8.957786074170777"><ele>325.8</ele><time>2026-04-03T08:34:40.999Z</time></trkpt><trkpt lat="44.64237940248226" lon="8.95772145308411"><ele>329.0</ele><time>2026-04-03T08:34:42.999Z</time></trkpt><trkpt lat="44.64227225695895" lon="8.957614148697498"><ele>329.0</ele><time>2026-04-03T08:34:44.999Z</time></trkpt><trkpt lat="44.642221355597066" lon="8.957556132420592"><ele>329.0</ele><time>2026-04-03T08:34:45.999Z</time></trkpt><trkpt lat="44.64217282514582" lon="8.957493882395474"><ele>329.0</ele><time>2026-04-03T08:34:46.998Z</time></trkpt><trkpt lat="44.64208710025569" lon="8.95737728016579"><ele>329.0</ele><time>2026-04-03T08:34:49Z</time></trkpt><trkpt lat="44.6420387567389" lon="8.957318232053462"><ele>329.0</ele><time>2026-04-03T08:34:50Z</time></trkpt><trkpt lat="44.64199680378267" lon="8.957237373229074"><ele>329.0</ele><time>2026-04-03T08:34:52Z</time></trkpt><trkpt lat="44.6419452630383" lon="8.957170425907151"><ele>327.0</ele><time>2026-04-03T08:34:56Z</time></trkpt><trkpt lat="44.64188678344401" lon="8.957038989444644"><ele>325.0</ele><time>2026-04-03T08:34:58Z</time></trkpt><trkpt lat="44.641824426991654" lon="8.956927823291132"><ele>323.0</ele><time>2026-04-03T08:35:00Z</time></trkpt><trkpt lat="44.641769058269844" lon="8.956829068003742"><ele>321.0</ele><time>2026-04-03T08:35:02Z</time></trkpt><trkpt lat="44.64171869259411" lon="8.956734819040655"><ele>319.0</ele><time>2026-04-03T08:35:04Z</time></trkpt><trkpt lat="44.64166908505235" lon="8.956645332353698"><ele>316.8333333333333</ele><time>2026-04-03T08:35:06Z</time></trkpt><trkpt lat="44.64162088563148" lon="8.956558146385554"><ele>314.66666666666663</ele><time>2026-04-03T08:35:08Z</time></trkpt><trkpt lat="44.64156919586767" lon="8.956466188857052"><ele>312.5</ele><time>2026-04-03T08:35:10Z</time></trkpt><trkpt lat="44.641515032932396" lon="8.956363990632909"><ele>310.3333333333333</ele><time>2026-04-03T08:35:12Z</time></trkpt><trkpt lat="44.64146044979274" lon="8.956279058740252"><ele>308.1666666666667</ele><time>2026-04-03T08:35:14Z</time></trkpt><trkpt lat="44.64141940773398" lon="8.956205488690621"><ele>306.0</ele><time>2026-04-03T08:35:16Z</time></trkpt><trkpt lat="44.64137816095574" lon="8.956119709377488"><ele>306.0</ele><time>2026-04-03T08:35:19Z</time></trkpt><trkpt lat="44.64134102198197" lon="8.956035310371693"><ele>306.0</ele><time>2026-04-03T08:35:22Z</time></trkpt><trkpt lat="44.641276188801406" lon="8.955884177816602"><ele>306.0</ele><time>2026-04-03T08:35:23.999Z</time></trkpt><trkpt lat="44.641207008315206" lon="8.955790651299912"><ele>306.0</ele><time>2026-04-03T08:35:24.999Z</time></trkpt><trkpt lat="44.64114884983889" lon="8.955677821200394"><ele>306.0</ele><time>2026-04-03T08:35:25.999Z</time></trkpt><trkpt lat="44.64109003531811" lon="8.955570767948966"><ele>305.5</ele><time>2026-04-03T08:35:26.999Z</time></trkpt><trkpt lat="44.64103444396238" lon="8.955479791764835"><ele>305.0</ele><time>2026-04-03T08:35:27.999Z</time></trkpt><trkpt lat="44.64099115609361" lon="8.955401200186985"><ele>304.5</ele><time>2026-04-03T08:35:28.999Z</time></trkpt><trkpt lat="44.64095277300989" lon="8.955328380333338"><ele>304.0</ele><time>2026-04-03T08:35:29.999Z</time></trkpt><trkpt lat="44.64091473509528" lon="8.955257524474456"><ele>303.5</ele><time>2026-04-03T08:35:30.999Z</time></trkpt><trkpt lat="44.64083086871758" lon="8.955116934943668"><ele>303.0</ele><time>2026-04-03T08:35:32.999Z</time></trkpt><trkpt lat="44.64079032850504" lon="8.955027841867322"><ele>303.0</ele><time>2026-04-03T08:35:33.999Z</time></trkpt><trkpt lat="44.6407802203326" lon="8.95492029765971"><ele>303.0</ele><time>2026-04-03T08:35:34.999Z</time></trkpt><trkpt lat="44.64079534722541" lon="8.95481736848226"><ele>303.0</ele><time>2026-04-03T08:35:35.999Z</time></trkpt><trkpt lat="44.64083436067794" lon="8.954718620476983"><ele>303.0</ele><time>2026-04-03T08:35:36.999Z</time></trkpt><trkpt lat="44.64089028615089" lon="8.954642715203956"><ele>303.0</ele><time>2026-04-03T08:35:37.999Z</time></trkpt><trkpt lat="44.64096437234406" lon="8.954588118608712"><ele>303.0</ele><time>2026-04-03T08:35:38.999Z</time></trkpt><trkpt lat="44.641042520972675" lon="8.95457759379331"><ele>303.0</ele><time>2026-04-03T08:35:39.999Z</time></trkpt><trkpt lat="44.64111194336857" lon="8.95460958898069"><ele>303.0</ele><time>2026-04-03T08:35:40.999Z</time></trkpt><trkpt lat="44.64117899055229" lon="8.954685207261932"><ele>303.0</ele><time>2026-04-03T08:35:42.999Z</time></trkpt><trkpt lat="44.641228787901206" lon="8.954748902688351"><ele>303.0</ele><time>2026-04-03T08:35:46.999Z</time></trkpt><trkpt lat="44.64128779579303" lon="8.954839780182764"><ele>303.0</ele><time>2026-04-03T08:36:00.999Z</time></trkpt><trkpt lat="44.64129342064701" lon="8.955004843044504"><ele>303.0</ele><time>2026-04-03T08:36:02.999Z</time></trkpt><trkpt lat="44.641293582196845" lon="8.95514525128836"><ele>302.8</ele><time>2026-04-03T08:36:04.999Z</time></trkpt><trkpt lat="44.64123848898254" lon="8.955229186702153"><ele>302.6</ele><time>2026-04-03T08:36:05.999Z</time></trkpt><trkpt lat="44.64121673431821" lon="8.955313487165236"><ele>302.4</ele><time>2026-04-03T08:36:06.999Z</time></trkpt><trkpt lat="44.64120815099981" lon="8.955471802188333"><ele>302.2</ele><time>2026-04-03T08:36:08.999Z</time></trkpt><trkpt lat="44.641220751756705" lon="8.955633034755229"><ele>302.0</ele><time>2026-04-03T08:36:10.999Z</time></trkpt><trkpt lat="44.64128909528725" lon="8.955780173240145"><ele>302.6666666666667</ele><time>2026-04-03T08:36:12.999Z</time></trkpt><trkpt lat="44.64133083106378" lon="8.955888421773219"><ele>303.33333333333337</ele><time>2026-04-03T08:36:13.999Z</time></trkpt><trkpt lat="44.641399994932726" lon="8.956002767069213"><ele>304.0</ele><time>2026-04-03T08:36:14.999Z</time></trkpt><trkpt lat="44.64145882082643" lon="8.95609956548628"><ele>304.6666666666667</ele><time>2026-04-03T08:36:15.999Z</time></trkpt><trkpt lat="44.64151369977362" lon="8.956192844752428"><ele>305.3333333333333</ele><time>2026-04-03T08:36:16.999Z</time></trkpt><trkpt lat="44.6415546739533" lon="8.956263459807706"><ele>306.0</ele><time>2026-04-03T08:36:17.999Z</time></trkpt><trkpt lat="44.64160505298131" lon="8.956327624819282"><ele>306.0</ele><time>2026-04-03T08:36:19.999Z</time></trkpt><trkpt lat="44.64163598503382" lon="8.956407128441956"><ele>306.0</ele><time>2026-04-03T08:36:24.999Z</time></trkpt><trkpt lat="44.64169000990527" lon="8.956532168082303"><ele>306.0</ele><time>2026-04-03T08:36:26.999Z</time></trkpt><trkpt lat="44.641776115870265" lon="8.956631803436888"><ele>306.0</ele><time>2026-04-03T08:36:28.999Z</time></trkpt><trkpt lat="44.64185527638954" lon="8.95675037037924"><ele>306.0</ele><time>2026-04-03T08:36:30.999Z</time></trkpt><trkpt lat="44.64193009182028" lon="8.956866013585678"><ele>305.8333333333333</ele><time>2026-04-03T08:36:32.999Z</time></trkpt><trkpt lat="44.642002114006495" lon="8.956998102822565"><ele>305.6666666666667</ele><time>2026-04-03T08:36:34.999Z</time></trkpt><trkpt lat="44.642037630059114" lon="8.957081197845683"><ele>305.5</ele><time>2026-04-03T08:36:35.999Z</time></trkpt><trkpt lat="44.64206385613832" lon="8.957191123482064"><ele>305.33333333333337</ele><time>2026-04-03T08:36:36.999Z</time></trkpt><trkpt lat="44.64210991135441" lon="8.95726471411732"><ele>305.1666666666667</ele><time>2026-04-03T08:36:37.999Z</time></trkpt><trkpt lat="44.64216160657095" lon="8.95734120053063"><ele>305.0</ele><time>2026-04-03T08:36:38.999Z</time></trkpt><trkpt lat="44.64221820621692" lon="8.957406677059407"><ele>305.0</ele><time>2026-04-03T08:36:39.999Z</time></trkpt><trkpt lat="44.64231198134641" lon="8.957465548482258"><ele>305.0</ele><time>2026-04-03T08:36:41.999Z</time></trkpt><trkpt lat="44.64238043595657" lon="8.957434912168646"><ele>305.0</ele><time>2026-04-03T08:36:43.999Z</time></trkpt><trkpt lat="44.64243736335294" lon="8.95734853893143"><ele>305.0</ele><time>2026-04-03T08:36:45.999Z</time></trkpt><trkpt lat="44.642399528520976" lon="8.957186020231552"><ele>305.0</ele><time>2026-04-03T08:36:56Z</time></trkpt><trkpt lat="44.64232953029183" lon="8.95711526803064"><ele>305.0</ele><time>2026-04-03T08:36:57Z</time></trkpt><trkpt lat="44.64225955285688" lon="8.95702535248049"><ele>305.0</ele><time>2026-04-03T08:36:58Z</time></trkpt><trkpt lat="44.64218863006666" lon="8.956912587794893"><ele>305.0</ele><time>2026-04-03T08:36:59Z</time></trkpt><trkpt lat="44.64213710360939" lon="8.956766711065269"><ele>305.0</ele><time>2026-04-03T08:37:00Z</time></trkpt><trkpt lat="44.642078040755386" lon="8.956617129537172"><ele>305.0</ele><time>2026-04-03T08:37:01Z</time></trkpt><trkpt lat="44.64199952923254" lon="8.956473970001472"><ele>305.2</ele><time>2026-04-03T08:37:02Z</time></trkpt><trkpt lat="44.64193772758547" lon="8.95632569030887"><ele>305.4</ele><time>2026-04-03T08:37:03Z</time></trkpt><trkpt lat="44.64186896405966" lon="8.956208395116906"><ele>305.6</ele><time>2026-04-03T08:37:04Z</time></trkpt><trkpt lat="44.64178291860631" lon="8.956127442570804"><ele>305.8</ele><time>2026-04-03T08:37:05Z</time></trkpt><trkpt lat="44.64168223533231" lon="8.95606295557232"><ele>306.0</ele><time>2026-04-03T08:37:06Z</time></trkpt><trkpt lat="44.64158174499569" lon="8.955999352346609"><ele>306.0</ele><time>2026-04-03T08:37:07Z</time></trkpt><trkpt lat="44.64149345703875" lon="8.955906624694618"><ele>306.0</ele><time>2026-04-03T08:37:08Z</time></trkpt><trkpt lat="44.64142147794782" lon="8.955785817575698"><ele>306.0</ele><time>2026-04-03T08:37:09Z</time></trkpt><trkpt lat="44.641364689536275" lon="8.955650238454849"><ele>306.0</ele><time>2026-04-03T08:37:10Z</time></trkpt><trkpt lat="44.64134114096012" lon="8.955502682023777"><ele>306.0</ele><time>2026-04-03T08:37:11Z</time></trkpt><trkpt lat="44.64138975547404" lon="8.955358523396148"><ele>305.0</ele><time>2026-04-03T08:37:12Z</time></trkpt><trkpt lat="44.64142896192996" lon="8.955209644604441"><ele>304.0</ele><time>2026-04-03T08:37:13Z</time></trkpt><trkpt lat="44.6414891070354" lon="8.955051984323203"><ele>303.0</ele><time>2026-04-03T08:37:14Z</time></trkpt><trkpt lat="44.64150865009543" lon="8.954859603322184"><ele>302.0</ele><time>2026-04-03T08:37:15Z</time></trkpt><trkpt lat="44.64148346217742" lon="8.954663972889248"><ele>301.75</ele><time>2026-04-03T08:37:16Z</time></trkpt><trkpt lat="44.641430888079064" lon="8.954473010112054"><ele>301.5</ele><time>2026-04-03T08:37:17Z</time></trkpt><trkpt lat="44.64136915811254" lon="8.954283919308228"><ele>301.25</ele><time>2026-04-03T08:37:18Z</time></trkpt><trkpt lat="44.641312377936856" lon="8.954083871896724"><ele>301.0</ele><time>2026-04-03T08:37:19Z</time></trkpt><trkpt lat="44.64126672542405" lon="8.953873403951139"><ele>299.3333333333333</ele><time>2026-04-03T08:37:20Z</time></trkpt><trkpt lat="44.64121994287146" lon="8.953662218901275"><ele>297.6666666666667</ele><time>2026-04-03T08:37:21Z</time></trkpt><trkpt lat="44.64116779210603" lon="8.953446866290339"><ele>296.0</ele><time>2026-04-03T08:37:22Z</time></trkpt><trkpt lat="44.641116027738" lon="8.953233274318215"><ele>296.0</ele><time>2026-04-03T08:37:23Z</time></trkpt><trkpt lat="44.64106694422657" lon="8.95301654280008"><ele>296.0</ele><time>2026-04-03T08:37:23.999Z</time></trkpt><trkpt lat="44.641020876956155" lon="8.952808616455897"><ele>296.0</ele><time>2026-04-03T08:37:24.999Z</time></trkpt><trkpt lat="44.64097066104867" lon="8.952618414073116"><ele>301.5</ele><time>2026-04-03T08:37:25.999Z</time></trkpt><trkpt lat="44.640901195634754" lon="8.952452779340954"><ele>307.0</ele><time>2026-04-03T08:37:26.999Z</time></trkpt><trkpt lat="44.640810251198886" lon="8.95232591510624"><ele>312.5</ele><time>2026-04-03T08:37:27.999Z</time></trkpt><trkpt lat="44.640705067581905" lon="8.952239129077856"><ele>318.0</ele><time>2026-04-03T08:37:28.999Z</time></trkpt><trkpt lat="44.640612296839265" lon="8.952209870798026"><ele>318.0</ele><time>2026-04-03T08:37:29.999Z</time></trkpt><trkpt lat="44.64052628785377" lon="8.952232620106203"><ele>318.0</ele><time>2026-04-03T08:37:30.999Z</time></trkpt><trkpt lat="44.64044629820858" lon="8.952308108182892"><ele>318.0</ele><time>2026-04-03T08:37:31.999Z</time></trkpt><trkpt lat="44.64038483449249" lon="8.952416501291724"><ele>318.0</ele><time>2026-04-03T08:37:32.999Z</time></trkpt><trkpt lat="44.64033204517051" lon="8.952523542508205"><ele>318.0</ele><time>2026-04-03T08:37:33.999Z</time></trkpt><trkpt lat="44.64027716373331" lon="8.9525962878953"><ele>313.0</ele><time>2026-04-03T08:37:34.999Z</time></trkpt><trkpt lat="44.640215277552365" lon="8.952638201847963"><ele>308.0</ele><time>2026-04-03T08:37:36.999Z</time></trkpt><trkpt lat="44.640096950993666" lon="8.952656691318998"><ele>303.0</ele><time>2026-04-03T08:37:38.999Z</time></trkpt><trkpt lat="44.640008212189144" lon="8.952697681910918"><ele>298.0</ele><time>2026-04-03T08:37:39.999Z</time></trkpt><trkpt lat="44.639887517727175" lon="8.95260061140796"><ele>293.0</ele><time>2026-04-03T08:37:40.999Z</time></trkpt><trkpt lat="44.639768785499896" lon="8.952562103692705"><ele>295.5</ele><time>2026-04-03T08:37:41.999Z</time></trkpt><trkpt lat="44.63963588435628" lon="8.952514607004739"><ele>298.0</ele><time>2026-04-03T08:37:42.999Z</time></trkpt><trkpt lat="44.63950445898588" lon="8.95246539342045"><ele>300.5</ele><time>2026-04-03T08:37:43.999Z</time></trkpt><trkpt lat="44.63937336666555" lon="8.95241234482888"><ele>303.0</ele><time>2026-04-03T08:37:44.999Z</time></trkpt><trkpt lat="44.63924634283675" lon="8.952357853881685"><ele>303.0</ele><time>2026-04-03T08:37:45.999Z</time></trkpt><trkpt lat="44.63912176113725" lon="8.952303756471958"><ele>303.0</ele><time>2026-04-03T08:37:46.999Z</time></trkpt><trkpt lat="44.639002503752906" lon="8.95224483336932"><ele>303.0</ele><time>2026-04-03T08:37:47.999Z</time></trkpt><trkpt lat="44.63887442465205" lon="8.952189826534887"><ele>303.0</ele><time>2026-04-03T08:37:48.999Z</time></trkpt><trkpt lat="44.638728194583194" lon="8.952145942792793"><ele>301.6666666666667</ele><time>2026-04-03T08:37:49.999Z</time></trkpt><trkpt lat="44.63857306741671" lon="8.952089930418655"><ele>300.33333333333337</ele><time>2026-04-03T08:37:50.999Z</time></trkpt><trkpt lat="44.63841105716514" lon="8.952018458332109"><ele>299.0</ele><time>2026-04-03T08:37:51.999Z</time></trkpt><trkpt lat="44.638226171440586" lon="8.951923980924152"><ele>299.0</ele><time>2026-04-03T08:37:52.999Z</time></trkpt><trkpt lat="44.63802449165797" lon="8.95183764008569"><ele>299.0</ele><time>2026-04-03T08:37:53.999Z</time></trkpt><trkpt lat="44.63782612446399" lon="8.95176435531311"><ele>299.0</ele><time>2026-04-03T08:37:54.999Z</time></trkpt><trkpt lat="44.637645178999506" lon="8.951664532181692"><ele>300.33333333333337</ele><time>2026-04-03T08:37:55.999Z</time></trkpt><trkpt lat="44.63746800234632" lon="8.951540489901335"><ele>301.6666666666667</ele><time>2026-04-03T08:37:56.999Z</time></trkpt><trkpt lat="44.637302962920444" lon="8.9513912892942"><ele>303.0</ele><time>2026-04-03T08:37:57.999Z</time></trkpt><trkpt lat="44.63712862367886" lon="8.951225222336289"><ele>301.6666666666667</ele><time>2026-04-03T08:37:58.999Z</time></trkpt><trkpt lat="44.63695067788042" lon="8.951064917118574"><ele>300.33333333333337</ele><time>2026-04-03T08:37:59.999Z</time></trkpt><trkpt lat="44.63676790090935" lon="8.95090794512383"><ele>299.0</ele><time>2026-04-03T08:38:00.999Z</time></trkpt><trkpt lat="44.636586136496156" lon="8.950749262064578"><ele>299.0</ele><time>2026-04-03T08:38:01.999Z</time></trkpt><trkpt lat="44.636407107890214" lon="8.950591019503745"><ele>299.0</ele><time>2026-04-03T08:38:02.999Z</time></trkpt><trkpt lat="44.636235830553076" lon="8.950437248065848"><ele>299.0</ele><time>2026-04-03T08:38:03.999Z</time></trkpt><trkpt lat="44.63606827681775" lon="8.950287388540165"><ele>299.0</ele><time>2026-04-03T08:38:04.999Z</time></trkpt><trkpt lat="44.63590618929095" lon="8.95014045055512"><ele>299.0</ele><time>2026-04-03T08:38:05.999Z</time></trkpt><trkpt lat="44.63574739715269" lon="8.949993557003967"><ele>299.0</ele><time>2026-04-03T08:38:06.999Z</time></trkpt><trkpt lat="44.635592956962896" lon="8.949855690813456"><ele>297.6666666666667</ele><time>2026-04-03T08:38:07.999Z</time></trkpt><trkpt lat="44.63544468764456" lon="8.949729034509787"><ele>296.3333333333333</ele><time>2026-04-03T08:38:08.999Z</time></trkpt><trkpt lat="44.63530665559276" lon="8.949609331511327"><ele>295.0</ele><time>2026-04-03T08:38:09.999Z</time></trkpt><trkpt lat="44.635177430405456" lon="8.94948653266796"><ele>295.0</ele><time>2026-04-03T08:38:10.999Z</time></trkpt><trkpt lat="44.63506253479677" lon="8.949356260890045"><ele>295.0</ele><time>2026-04-03T08:38:11.999Z</time></trkpt><trkpt lat="44.63497643606832" lon="8.949208685655318"><ele>295.0</ele><time>2026-04-03T08:38:12.999Z</time></trkpt><trkpt lat="44.63492723329672" lon="8.949043105768915"><ele>295.0</ele><time>2026-04-03T08:38:13.999Z</time></trkpt><trkpt lat="44.63491792169396" lon="8.94887015012278"><ele>297.75</ele><time>2026-04-03T08:38:14.999Z</time></trkpt><trkpt lat="44.63493124734882" lon="8.948685826197211"><ele>300.5</ele><time>2026-04-03T08:38:15.999Z</time></trkpt><trkpt lat="44.63494457134291" lon="8.948489096758587"><ele>303.25</ele><time>2026-04-03T08:38:16.999Z</time></trkpt><trkpt lat="44.63494867762878" lon="8.948273227269183"><ele>306.0</ele><time>2026-04-03T08:38:17.999Z</time></trkpt><trkpt lat="44.63494310171083" lon="8.948043257564116"><ele>309.6666666666667</ele><time>2026-04-03T08:38:18.999Z</time></trkpt><trkpt lat="44.6349285637391" lon="8.947805228641013"><ele>313.33333333333337</ele><time>2026-04-03T08:38:19.999Z</time></trkpt><trkpt lat="44.63489706611581" lon="8.947553710046941"><ele>317.0</ele><time>2026-04-03T08:38:20.999Z</time></trkpt><trkpt lat="44.6348570029766" lon="8.947310217031712"><ele>320.0</ele><time>2026-04-03T08:38:21.999Z</time></trkpt><trkpt lat="44.634820989793184" lon="8.947086824436598"><ele>323.0</ele><time>2026-04-03T08:38:22.999Z</time></trkpt><trkpt lat="44.63478675020957" lon="8.946862357555087"><ele>326.0</ele><time>2026-04-03T08:38:23.999Z</time></trkpt><trkpt lat="44.634739660270384" lon="8.946642695691768"><ele>329.33333333333337</ele><time>2026-04-03T08:38:24.999Z</time></trkpt><trkpt lat="44.634672470847605" lon="8.946445101535671"><ele>332.6666666666667</ele><time>2026-04-03T08:38:25.999Z</time></trkpt><trkpt lat="44.63457899573301" lon="8.946255963794803"><ele>336.0</ele><time>2026-04-03T08:38:26.999Z</time></trkpt><trkpt lat="44.634446369006305" lon="8.946046021840694"><ele>324.0</ele><time>2026-04-03T08:38:27.999Z</time></trkpt><trkpt lat="44.634279146577235" lon="8.945837788583846"><ele>312.0</ele><time>2026-04-03T08:38:28.999Z</time></trkpt><trkpt lat="44.63409981355046" lon="8.945618041149475"><ele>312.0</ele><time>2026-04-03T08:38:29.999Z</time></trkpt><trkpt lat="44.63393659369262" lon="8.945381935475533"><ele>312.0</ele><time>2026-04-03T08:38:30.999Z</time></trkpt><trkpt lat="44.63378484556474" lon="8.945122877516866"><ele>309.0</ele><time>2026-04-03T08:38:31.999Z</time></trkpt><trkpt lat="44.63363536817005" lon="8.944860514438334"><ele>306.0</ele><time>2026-04-03T08:38:32.999Z</time></trkpt><trkpt lat="44.63349035799515" lon="8.944612554775766"><ele>306.0</ele><time>2026-04-03T08:38:33.999Z</time></trkpt><trkpt lat="44.63336355550155" lon="8.944356655983563"><ele>306.0</ele><time>2026-04-03T08:38:34.999Z</time></trkpt><trkpt lat="44.63322304702653" lon="8.944147441933"><ele>306.0</ele><time>2026-04-03T08:38:35.999Z</time></trkpt><trkpt lat="44.63310451681161" lon="8.943933398199059"><ele>307.0</ele><time>2026-04-03T08:38:36.999Z</time></trkpt><trkpt lat="44.63298307842461" lon="8.943719954956645"><ele>308.0</ele><time>2026-04-03T08:38:37.999Z</time></trkpt><trkpt lat="44.632862567901505" lon="8.943496408497909"><ele>309.0</ele><time>2026-04-03T08:38:38.999Z</time></trkpt><trkpt lat="44.63274879910744" lon="8.943267515979823"><ele>309.0</ele><time>2026-04-03T08:38:39.999Z</time></trkpt><trkpt lat="44.632629263317504" lon="8.943039664596268"><ele>309.0</ele><time>2026-04-03T08:38:40.999Z</time></trkpt><trkpt lat="44.63250429883529" lon="8.942812320851825"><ele>309.0</ele><time>2026-04-03T08:38:41.999Z</time></trkpt><trkpt lat="44.632382510482735" lon="8.94259369121093"><ele>307.6666666666667</ele><time>2026-04-03T08:38:42.999Z</time></trkpt><trkpt lat="44.63225981235251" lon="8.942394296218133"><ele>306.33333333333337</ele><time>2026-04-03T08:38:43.999Z</time></trkpt><trkpt lat="44.63211245165347" lon="8.942236577307261"><ele>305.0</ele><time>2026-04-03T08:38:44.999Z</time></trkpt><trkpt lat="44.631934678720384" lon="8.942138776163603"><ele>305.0</ele><time>2026-04-03T08:38:45.999Z</time></trkpt><trkpt lat="44.63174328242688" lon="8.942042225222345"><ele>305.0</ele><time>2026-04-03T08:38:46.999Z</time></trkpt><trkpt lat="44.63156781622231" lon="8.94190893462012"><ele>305.0</ele><time>2026-04-03T08:38:47.999Z</time></trkpt><trkpt lat="44.63140252308353" lon="8.941756480634146"><ele>305.33333333333337</ele><time>2026-04-03T08:38:48.999Z</time></trkpt><trkpt lat="44.631233492795445" lon="8.941604310129396"><ele>305.6666666666667</ele><time>2026-04-03T08:38:49.998Z</time></trkpt><trkpt lat="44.63106422030036" lon="8.94145366973077"><ele>306.0</ele><time>2026-04-03T08:38:50.998Z</time></trkpt><trkpt lat="44.63089408462819" lon="8.941311053702226"><ele>306.0</ele><time>2026-04-03T08:38:51.998Z</time></trkpt><trkpt lat="44.63071673050484" lon="8.941199576826481"><ele>306.0</ele><time>2026-04-03T08:38:52.998Z</time></trkpt><trkpt lat="44.630531910300505" lon="8.941126733881816"><ele>306.0</ele><time>2026-04-03T08:38:53.998Z</time></trkpt><trkpt lat="44.63035626022163" lon="8.94107988106312"><ele>305.0</ele><time>2026-04-03T08:38:54.998Z</time></trkpt><trkpt lat="44.63020017992912" lon="8.94104666713422"><ele>304.0</ele><time>2026-04-03T08:38:55.998Z</time></trkpt><trkpt lat="44.63004714479986" lon="8.94106721411501"><ele>303.0</ele><time>2026-04-03T08:38:56.998Z</time></trkpt><trkpt lat="44.62989038262198" lon="8.94114741269865"><ele>303.0</ele><time>2026-04-03T08:38:57.998Z</time></trkpt><trkpt lat="44.62973202167701" lon="8.941277549013467"><ele>303.0</ele><time>2026-04-03T08:38:58.998Z</time></trkpt><trkpt lat="44.62956303804054" lon="8.94140683481731"><ele>303.0</ele><time>2026-04-03T08:39:00Z</time></trkpt><trkpt lat="44.629387265470896" lon="8.941535845608826"><ele>303.0</ele><time>2026-04-03T08:39:01Z</time></trkpt><trkpt lat="44.629211624183235" lon="8.941662648968274"><ele>303.0</ele><time>2026-04-03T08:39:02Z</time></trkpt><trkpt lat="44.6290362270744" lon="8.941784922612614"><ele>303.0</ele><time>2026-04-03T08:39:03Z</time></trkpt><trkpt lat="44.62885764314262" lon="8.941904154158983"><ele>303.0</ele><time>2026-04-03T08:39:04Z</time></trkpt><trkpt lat="44.62867956236181" lon="8.942023529055346"><ele>303.0</ele><time>2026-04-03T08:39:05Z</time></trkpt><trkpt lat="44.62850331881386" lon="8.942144748654057"><ele>303.0</ele><time>2026-04-03T08:39:06Z</time></trkpt><trkpt lat="44.62832817813212" lon="8.942267348194358"><ele>302.6666666666667</ele><time>2026-04-03T08:39:07Z</time></trkpt><trkpt lat="44.62815973732867" lon="8.942389527964528"><ele>302.33333333333337</ele><time>2026-04-03T08:39:08Z</time></trkpt><trkpt lat="44.62800046818434" lon="8.942518014101942"><ele>302.0</ele><time>2026-04-03T08:39:09Z</time></trkpt><trkpt lat="44.627854054655884" lon="8.942677783143573"><ele>304.6666666666667</ele><time>2026-04-03T08:39:10Z</time></trkpt><trkpt lat="44.62772168967725" lon="8.942873590807208"><ele>307.3333333333333</ele><time>2026-04-03T08:39:11Z</time></trkpt><trkpt lat="44.62760308038483" lon="8.943093269463441"><ele>310.0</ele><time>2026-04-03T08:39:12Z</time></trkpt><trkpt lat="44.62748294699937" lon="8.94331914956637"><ele>308.0</ele><time>2026-04-03T08:39:13Z</time></trkpt><trkpt lat="44.62735205907979" lon="8.943548408374733"><ele>306.0</ele><time>2026-04-03T08:39:14Z</time></trkpt><trkpt lat="44.62721300771544" lon="8.94377863625724"><ele>304.0</ele><time>2026-04-03T08:39:15Z</time></trkpt><trkpt lat="44.62706789962273" lon="8.944016585894719"><ele>307.5</ele><time>2026-04-03T08:39:16Z</time></trkpt><trkpt lat="44.62689998366194" lon="8.944253166761522"><ele>311.0</ele><time>2026-04-03T08:39:17Z</time></trkpt><trkpt lat="44.62672936937024" lon="8.944522701223132"><ele>311.0</ele><time>2026-04-03T08:39:18Z</time></trkpt><trkpt lat="44.62655872742018" lon="8.94479210603304"><ele>311.0</ele><time>2026-04-03T08:39:19Z</time></trkpt><trkpt lat="44.62639344059649" lon="8.945079122322056"><ele>308.0</ele><time>2026-04-03T08:39:20Z</time></trkpt><trkpt lat="44.62620857189397" lon="8.94534803668506"><ele>305.0</ele><time>2026-04-03T08:39:21Z</time></trkpt><trkpt lat="44.62603045109681" lon="8.945615892239394"><ele>308.5</ele><time>2026-04-03T08:39:22Z</time></trkpt><trkpt lat="44.62586588278626" lon="8.945887602977448"><ele>312.0</ele><time>2026-04-03T08:39:23Z</time></trkpt><trkpt lat="44.62571888547632" lon="8.946168854067814"><ele>312.0</ele><time>2026-04-03T08:39:24Z</time></trkpt><trkpt lat="44.62558166459912" lon="8.94646304910035"><ele>312.0</ele><time>2026-04-03T08:39:25Z</time></trkpt><trkpt lat="44.625451710592465" lon="8.946762536384353"><ele>308.5</ele><time>2026-04-03T08:39:26Z</time></trkpt><trkpt lat="44.62532347040184" lon="8.947059024796284"><ele>305.0</ele><time>2026-04-03T08:39:27Z</time></trkpt><trkpt lat="44.62519515150956" lon="8.947344527185477"><ele>310.0</ele><time>2026-04-03T08:39:28Z</time></trkpt><trkpt lat="44.62506167787215" lon="8.947620324922708"><ele>315.0</ele><time>2026-04-03T08:39:28.999Z</time></trkpt><trkpt lat="44.62492037856477" lon="8.947880886815275"><ele>315.0</ele><time>2026-04-03T08:39:29.999Z</time></trkpt><trkpt lat="44.6247664685768" lon="8.94813645719651"><ele>315.0</ele><time>2026-04-03T08:39:30.999Z</time></trkpt><trkpt lat="44.624609039318145" lon="8.948387751200865"><ele>321.0</ele><time>2026-04-03T08:39:31.999Z</time></trkpt><trkpt lat="44.62445616883127" lon="8.948638235654409"><ele>327.0</ele><time>2026-04-03T08:39:32.999Z</time></trkpt><trkpt lat="44.62430797797795" lon="8.94888966801986"><ele>327.0</ele><time>2026-04-03T08:39:33.999Z</time></trkpt><trkpt lat="44.6241613506607" lon="8.949140138233524"><ele>327.0</ele><time>2026-04-03T08:39:34.999Z</time></trkpt><trkpt lat="44.62401240010088" lon="8.949386407051893"><ele>319.5</ele><time>2026-04-03T08:39:35.999Z</time></trkpt><trkpt lat="44.62385550326994" lon="8.949622770050507"><ele>312.0</ele><time>2026-04-03T08:39:36.999Z</time></trkpt><trkpt lat="44.623689225387494" lon="8.949850837521897"><ele>311.5</ele><time>2026-04-03T08:39:37.999Z</time></trkpt><trkpt lat="44.623512152987026" lon="8.950057967792368"><ele>311.0</ele><time>2026-04-03T08:39:38.999Z</time></trkpt><trkpt lat="44.62333259921936" lon="8.95024588865409"><ele>311.0</ele><time>2026-04-03T08:39:39.999Z</time></trkpt><trkpt lat="44.62317275225343" lon="8.95041536553906"><ele>311.0</ele><time>2026-04-03T08:39:40.999Z</time></trkpt><trkpt lat="44.62302776317025" lon="8.950559702505652"><ele>311.0</ele><time>2026-04-03T08:39:41.999Z</time></trkpt><trkpt lat="44.62288006219418" lon="8.950653428931487"><ele>313.0</ele><time>2026-04-03T08:39:42.999Z</time></trkpt><trkpt lat="44.62271553265418" lon="8.950700487333895"><ele>315.0</ele><time>2026-04-03T08:39:43.999Z</time></trkpt><trkpt lat="44.622547358496426" lon="8.950694615936722"><ele>317.0</ele><time>2026-04-03T08:39:44.999Z</time></trkpt><trkpt lat="44.62240526800554" lon="8.950584837872665"><ele>317.0</ele><time>2026-04-03T08:39:45.999Z</time></trkpt><trkpt lat="44.6222576802339" lon="8.950482433832102"><ele>317.0</ele><time>2026-04-03T08:39:46.999Z</time></trkpt><trkpt lat="44.622133553368506" lon="8.95030377927936"><ele>317.0</ele><time>2026-04-03T08:39:47.999Z</time></trkpt><trkpt lat="44.62202509365378" lon="8.950093926557573"><ele>317.33333333333337</ele><time>2026-04-03T08:39:48.999Z</time></trkpt><trkpt lat="44.62195635949478" lon="8.949843901962169"><ele>317.6666666666667</ele><time>2026-04-03T08:39:49.999Z</time></trkpt><trkpt lat="44.62189520644362" lon="8.949566807909084"><ele>318.0</ele><time>2026-04-03T08:39:50.999Z</time></trkpt><trkpt lat="44.62182621725485" lon="8.949279791526653"><ele>319.3333333333333</ele><time>2026-04-03T08:39:51.999Z</time></trkpt><trkpt lat="44.62177118988965" lon="8.948990748091163"><ele>320.66666666666663</ele><time>2026-04-03T08:39:52.999Z</time></trkpt><trkpt lat="44.62171211115946" lon="8.94870910181994"><ele>322.0</ele><time>2026-04-03T08:39:53.999Z</time></trkpt><trkpt lat="44.62164919999544" lon="8.94844548571757"><ele>326.0</ele><time>2026-04-03T08:39:54.999Z</time></trkpt><trkpt lat="44.62157844119022" lon="8.94817569760409"><ele>330.0</ele><time>2026-04-03T08:39:55.999Z</time></trkpt><trkpt lat="44.621497789051176" lon="8.94791505989213"><ele>334.0</ele><time>2026-04-03T08:39:56.999Z</time></trkpt><trkpt lat="44.62140478243258" lon="8.947664816949999"><ele>328.0</ele><time>2026-04-03T08:39:57.999Z</time></trkpt><trkpt lat="44.62130249088614" lon="8.947422555776049"><ele>322.0</ele><time>2026-04-03T08:39:58.999Z</time></trkpt><trkpt lat="44.62118924572671" lon="8.947188917185805"><ele>316.0</ele><time>2026-04-03T08:39:59.999Z</time></trkpt><trkpt lat="44.62106896257777" lon="8.946965312977257"><ele>316.0</ele><time>2026-04-03T08:40:00.999Z</time></trkpt><trkpt lat="44.62094527587793" lon="8.946735587800223"><ele>316.0</ele><time>2026-04-03T08:40:01.999Z</time></trkpt><trkpt lat="44.620825042864915" lon="8.946511925078102"><ele>316.0</ele><time>2026-04-03T08:40:02.999Z</time></trkpt><trkpt lat="44.62069569392781" lon="8.946291867516244"><ele>317.0</ele><time>2026-04-03T08:40:03.999Z</time></trkpt><trkpt lat="44.62055989077117" lon="8.946083484358816"><ele>318.0</ele><time>2026-04-03T08:40:04.999Z</time></trkpt><trkpt lat="44.62041726905645" lon="8.945886904601766"><ele>319.0</ele><time>2026-04-03T08:40:05.999Z</time></trkpt><trkpt lat="44.620264849307674" lon="8.94570989761337"><ele>319.0</ele><time>2026-04-03T08:40:06.999Z</time></trkpt><trkpt lat="44.62009456802968" lon="8.945561334660725"><ele>319.0</ele><time>2026-04-03T08:40:07.999Z</time></trkpt><trkpt lat="44.61990277080478" lon="8.945456392644546"><ele>319.0</ele><time>2026-04-03T08:40:08.999Z</time></trkpt><trkpt lat="44.619702107964414" lon="8.945393569760041"><ele>319.0</ele><time>2026-04-03T08:40:09.999Z</time></trkpt><trkpt lat="44.619492851317894" lon="8.945338891699924"><ele>319.0</ele><time>2026-04-03T08:40:10.999Z</time></trkpt><trkpt lat="44.6192879402058" lon="8.945265116810267"><ele>319.0</ele><time>2026-04-03T08:40:11.999Z</time></trkpt><trkpt lat="44.61909023186762" lon="8.945181402795411"><ele>320.0</ele><time>2026-04-03T08:40:12.999Z</time></trkpt><trkpt lat="44.61889832922154" lon="8.945103922571645"><ele>321.0</ele><time>2026-04-03T08:40:13.999Z</time></trkpt><trkpt lat="44.61871322027973" lon="8.945033144949928"><ele>322.0</ele><time>2026-04-03T08:40:14.999Z</time></trkpt><trkpt lat="44.618539149101586" lon="8.944957079646457"><ele>322.0</ele><time>2026-04-03T08:40:15.999Z</time></trkpt><trkpt lat="44.61838500596156" lon="8.944861319401516"><ele>322.0</ele><time>2026-04-03T08:40:16.999Z</time></trkpt><trkpt lat="44.61824232143902" lon="8.94474639429803"><ele>322.0</ele><time>2026-04-03T08:40:17.999Z</time></trkpt><trkpt lat="44.61810852556819" lon="8.94462409462949"><ele>322.0</ele><time>2026-04-03T08:40:18.999Z</time></trkpt><trkpt lat="44.61798508911185" lon="8.944506276070543"><ele>322.0</ele><time>2026-04-03T08:40:19.999Z</time></trkpt><trkpt lat="44.61787629712576" lon="8.94439802617804"><ele>322.0</ele><time>2026-04-03T08:40:20.999Z</time></trkpt><trkpt lat="44.61777173268169" lon="8.944300560640379"><ele>322.0</ele><time>2026-04-03T08:40:21.999Z</time></trkpt><trkpt lat="44.61766899705379" lon="8.944222325218684"><ele>323.75</ele><time>2026-04-03T08:40:22.999Z</time></trkpt><trkpt lat="44.6175615728426" lon="8.944162416009833"><ele>325.5</ele><time>2026-04-03T08:40:23.999Z</time></trkpt><trkpt lat="44.61744478030786" lon="8.94412032360112"><ele>327.25</ele><time>2026-04-03T08:40:24.999Z</time></trkpt><trkpt lat="44.61732150109016" lon="8.94410239151627"><ele>329.0</ele><time>2026-04-03T08:40:25.999Z</time></trkpt><trkpt lat="44.61719658980377" lon="8.944115404638662"><ele>329.0</ele><time>2026-04-03T08:40:26.999Z</time></trkpt><trkpt lat="44.61706898954722" lon="8.944149122378832"><ele>329.0</ele><time>2026-04-03T08:40:27.999Z</time></trkpt><trkpt lat="44.61694594949148" lon="8.944172312216905"><ele>329.0</ele><time>2026-04-03T08:40:28.999Z</time></trkpt><trkpt lat="44.61683118785053" lon="8.944194466667758"><ele>329.0</ele><time>2026-04-03T08:40:29.999Z</time></trkpt><trkpt lat="44.616723858492804" lon="8.944213934535188"><ele>326.83333333333337</ele><time>2026-04-03T08:40:30.999Z</time></trkpt><trkpt lat="44.61662535838141" lon="8.944235441835223"><ele>324.6666666666667</ele><time>2026-04-03T08:40:31.999Z</time></trkpt><trkpt lat="44.61653402726677" lon="8.944258306575577"><ele>322.5</ele><time>2026-04-03T08:40:32.999Z</time></trkpt><trkpt lat="44.61645713455721" lon="8.944280994419428"><ele>320.3333333333333</ele><time>2026-04-03T08:40:33.999Z</time></trkpt><trkpt lat="44.616388508072866" lon="8.944309263778994"><ele>318.16666666666663</ele><time>2026-04-03T08:40:34.999Z</time></trkpt><trkpt lat="44.61629131513622" lon="8.944361178319417"><ele>316.0</ele><time>2026-04-03T08:40:36.999Z</time></trkpt><trkpt lat="44.61623386610207" lon="8.944400265580011"><ele>316.0</ele><time>2026-04-03T08:40:38.999Z</time></trkpt><trkpt lat="44.61617839979081" lon="8.944461144049043"><ele>316.0</ele><time>2026-04-03T08:40:56.998Z</time></trkpt><trkpt lat="44.61609431889701" lon="8.944562411158328"><ele>316.0</ele><time>2026-04-03T08:40:58.998Z</time></trkpt><trkpt lat="44.61601659971457" lon="8.944683887581592"><ele>316.0</ele><time>2026-04-03T08:41:00.998Z</time></trkpt><trkpt lat="44.615975214470076" lon="8.944774797611124"><ele>316.0</ele><time>2026-04-03T08:41:01.998Z</time></trkpt><trkpt lat="44.61593256620245" lon="8.94487647500887"><ele>316.8</ele><time>2026-04-03T08:41:02.998Z</time></trkpt><trkpt lat="44.615889417777915" lon="8.944986941790878"><ele>317.6</ele><time>2026-04-03T08:41:03.998Z</time></trkpt><trkpt lat="44.61584511069608" lon="8.945109356597092"><ele>318.4</ele><time>2026-04-03T08:41:04.998Z</time></trkpt><trkpt lat="44.615797746424526" lon="8.945231522819887"><ele>319.2</ele><time>2026-04-03T08:41:06Z</time></trkpt><trkpt lat="44.615748351531316" lon="8.94536262340151"><ele>320.0</ele><time>2026-04-03T08:41:07Z</time></trkpt><trkpt lat="44.61569443793105" lon="8.945503276772765"><ele>320.0</ele><time>2026-04-03T08:41:08Z</time></trkpt><trkpt lat="44.615638100376124" lon="8.945643172931161"><ele>320.0</ele><time>2026-04-03T08:41:09Z</time></trkpt><trkpt lat="44.615580072924416" lon="8.945782586099682"><ele>320.0</ele><time>2026-04-03T08:41:10Z</time></trkpt><trkpt lat="44.61552182018158" lon="8.945927555912872"><ele>320.0</ele><time>2026-04-03T08:41:11Z</time></trkpt><trkpt lat="44.61546122767175" lon="8.946077118324991"><ele>319.75</ele><time>2026-04-03T08:41:12Z</time></trkpt><trkpt lat="44.61539981179877" lon="8.94623080006977"><ele>319.5</ele><time>2026-04-03T08:41:13Z</time></trkpt><trkpt lat="44.61533831725974" lon="8.946388738531939"><ele>319.25</ele><time>2026-04-03T08:41:14Z</time></trkpt><trkpt lat="44.61527506507302" lon="8.946547763071962"><ele>319.0</ele><time>2026-04-03T08:41:15Z</time></trkpt><trkpt lat="44.615209877377964" lon="8.946706070159905"><ele>320.75</ele><time>2026-04-03T08:41:16Z</time></trkpt><trkpt lat="44.61514306865662" lon="8.946862658961633"><ele>322.5</ele><time>2026-04-03T08:41:17Z</time></trkpt><trkpt lat="44.61507765197903" lon="8.947016156697586"><ele>324.25</ele><time>2026-04-03T08:41:18Z</time></trkpt><trkpt lat="44.61501320361517" lon="8.94716936081441"><ele>326.0</ele><time>2026-04-03T08:41:19Z</time></trkpt><trkpt lat="44.61495222370703" lon="8.947319144318238"><ele>326.0</ele><time>2026-04-03T08:41:20Z</time></trkpt><trkpt lat="44.61489242066773" lon="8.947467231841554"><ele>326.0</ele><time>2026-04-03T08:41:21Z</time></trkpt><trkpt lat="44.61483393021931" lon="8.94761360981746"><ele>326.0</ele><time>2026-04-03T08:41:22Z</time></trkpt><trkpt lat="44.61477665254589" lon="8.947757471221061"><ele>326.0</ele><time>2026-04-03T08:41:23Z</time></trkpt><trkpt lat="44.614723461558754" lon="8.94789103400132"><ele>325.4</ele><time>2026-04-03T08:41:24Z</time></trkpt><trkpt lat="44.61467279093693" lon="8.94801803177321"><ele>324.8</ele><time>2026-04-03T08:41:24.999Z</time></trkpt><trkpt lat="44.614626672353616" lon="8.948140456108172"><ele>324.2</ele><time>2026-04-03T08:41:25.999Z</time></trkpt><trkpt lat="44.61458151666957" lon="8.948255333110193"><ele>323.59999999999997</ele><time>2026-04-03T08:41:26.999Z</time></trkpt><trkpt lat="44.614535095518704" lon="8.948363864897019"><ele>323.0</ele><time>2026-04-03T08:41:27.999Z</time></trkpt><trkpt lat="44.614489416048876" lon="8.948468500651112"><ele>323.0</ele><time>2026-04-03T08:41:28.999Z</time></trkpt><trkpt lat="44.614451801864156" lon="8.948565863150602"><ele>323.0</ele><time>2026-04-03T08:41:29.999Z</time></trkpt><trkpt lat="44.61440989302149" lon="8.948647376067694"><ele>323.0</ele><time>2026-04-03T08:41:36.999Z</time></trkpt><trkpt lat="44.61432953792657" lon="8.948750641942528"><ele>323.0</ele><time>2026-04-03T08:41:38.999Z</time></trkpt><trkpt lat="44.61426319337485" lon="8.948799184112017"><ele>323.0</ele><time>2026-04-03T08:41:39.999Z</time></trkpt><trkpt lat="44.61415626174577" lon="8.948826679340966"><ele>323.0</ele><time>2026-04-03T08:41:40.999Z</time></trkpt><trkpt lat="44.61403652976511" lon="8.948834918181266"><ele>323.0</ele><time>2026-04-03T08:41:41.999Z</time></trkpt><trkpt lat="44.61388147407467" lon="8.948849392198516"><ele>323.0</ele><time>2026-04-03T08:41:42.999Z</time></trkpt><trkpt lat="44.61374174872307" lon="8.948902479347858"><ele>323.0</ele><time>2026-04-03T08:41:43.999Z</time></trkpt><trkpt lat="44.613603279559086" lon="8.948984686958088"><ele>323.5</ele><time>2026-04-03T08:41:44.999Z</time></trkpt><trkpt lat="44.613472644179105" lon="8.949080189849305"><ele>324.0</ele><time>2026-04-03T08:41:45.999Z</time></trkpt><trkpt lat="44.6133522216826" lon="8.949173978979953"><ele>324.5</ele><time>2026-04-03T08:41:46.999Z</time></trkpt><trkpt lat="44.61324101307773" lon="8.94926480849808"><ele>325.0</ele><time>2026-04-03T08:41:47.999Z</time></trkpt><trkpt lat="44.61313992583689" lon="8.949346705660764"><ele>325.0</ele><time>2026-04-03T08:41:48.999Z</time></trkpt><trkpt lat="44.613043701265" lon="8.949425864867612"><ele>325.0</ele><time>2026-04-03T08:41:49.999Z</time></trkpt><trkpt lat="44.612947024966054" lon="8.949504565627075"><ele>325.0</ele><time>2026-04-03T08:41:50.999Z</time></trkpt><trkpt lat="44.61284865899549" lon="8.949584742419956"><ele>325.0</ele><time>2026-04-03T08:41:51.999Z</time></trkpt><trkpt lat="44.612747775108566" lon="8.9496681484135"><ele>326.75</ele><time>2026-04-03T08:41:52.999Z</time></trkpt><trkpt lat="44.6126409926011" lon="8.94975076315581"><ele>328.5</ele><time>2026-04-03T08:41:53.999Z</time></trkpt><trkpt lat="44.612531985167635" lon="8.949836134814117"><ele>330.25</ele><time>2026-04-03T08:41:54.999Z</time></trkpt><trkpt lat="44.612419405596384" lon="8.949920321494417"><ele>332.0</ele><time>2026-04-03T08:41:55.999Z</time></trkpt><trkpt lat="44.612311161825154" lon="8.950021851922433"><ele>331.25</ele><time>2026-04-03T08:41:56.999Z</time></trkpt><trkpt lat="44.612218814486816" lon="8.950162715443405"><ele>330.5</ele><time>2026-04-03T08:41:57.999Z</time></trkpt><trkpt lat="44.61216750705881" lon="8.950354642679459"><ele>329.75</ele><time>2026-04-03T08:41:58.999Z</time></trkpt><trkpt lat="44.61215988871183" lon="8.950564513139527"><ele>329.0</ele><time>2026-04-03T08:41:59.999Z</time></trkpt><trkpt lat="44.61218496794933" lon="8.950764872360432"><ele>330.25</ele><time>2026-04-03T08:42:00.999Z</time></trkpt><trkpt lat="44.61222520505679" lon="8.950955985567797"><ele>331.5</ele><time>2026-04-03T08:42:01.999Z</time></trkpt><trkpt lat="44.61226001789093" lon="8.951137552155306"><ele>332.75</ele><time>2026-04-03T08:42:02.999Z</time></trkpt><trkpt lat="44.612289250358884" lon="8.951312429694756"><ele>334.0</ele><time>2026-04-03T08:42:03.999Z</time></trkpt><trkpt lat="44.61231125566234" lon="8.951467066836676"><ele>334.0</ele><time>2026-04-03T08:42:04.999Z</time></trkpt><trkpt lat="44.612334776921855" lon="8.951619325832137"><ele>334.0</ele><time>2026-04-03T08:42:05.999Z</time></trkpt><trkpt lat="44.61236198686587" lon="8.951783684445106"><ele>334.0</ele><time>2026-04-03T08:42:06.999Z</time></trkpt><trkpt lat="44.61237326732964" lon="8.95196413393119"><ele>334.0</ele><time>2026-04-03T08:42:07.999Z</time></trkpt><trkpt lat="44.61240062817981" lon="8.952146441159206"><ele>333.75</ele><time>2026-04-03T08:42:08.999Z</time></trkpt><trkpt lat="44.61243756379225" lon="8.952325470170493"><ele>333.5</ele><time>2026-04-03T08:42:09.999Z</time></trkpt><trkpt lat="44.61246343342526" lon="8.952506713745914"><ele>333.25</ele><time>2026-04-03T08:42:10.999Z</time></trkpt><trkpt lat="44.61248043989384" lon="8.952684825686076"><ele>333.0</ele><time>2026-04-03T08:42:11.999Z</time></trkpt><trkpt lat="44.612479100259904" lon="8.952853088739312"><ele>332.0</ele><time>2026-04-03T08:42:12.999Z</time></trkpt><trkpt lat="44.61245132295768" lon="8.953016455375918"><ele>331.0</ele><time>2026-04-03T08:42:13.999Z</time></trkpt><trkpt lat="44.61238875338858" lon="8.95316321721821"><ele>330.0</ele><time>2026-04-03T08:42:14.999Z</time></trkpt><trkpt lat="44.61229812154472" lon="8.95327991108962"><ele>329.0</ele><time>2026-04-03T08:42:15.999Z</time></trkpt><trkpt lat="44.612203696828644" lon="8.953367458176023"><ele>328.5</ele><time>2026-04-03T08:42:16.999Z</time></trkpt><trkpt lat="44.61210759399946" lon="8.953443813148581"><ele>328.0</ele><time>2026-04-03T08:42:17.999Z</time></trkpt><trkpt lat="44.61199693176093" lon="8.953515852783598"><ele>327.5</ele><time>2026-04-03T08:42:18.999Z</time></trkpt><trkpt lat="44.61188267167555" lon="8.953591110250722"><ele>327.0</ele><time>2026-04-03T08:42:19.999Z</time></trkpt><trkpt lat="44.611767243159875" lon="8.953669366444839"><ele>328.0</ele><time>2026-04-03T08:42:20.999Z</time></trkpt><trkpt lat="44.6116472855784" lon="8.953757187594672"><ele>329.0</ele><time>2026-04-03T08:42:21.999Z</time></trkpt><trkpt lat="44.61152856320415" lon="8.953848282773173"><ele>330.0</ele><time>2026-04-03T08:42:22.999Z</time></trkpt><trkpt lat="44.61140254397361" lon="8.953930303542005"><ele>331.0</ele><time>2026-04-03T08:42:23.999Z</time></trkpt><trkpt lat="44.61127527876315" lon="8.95401537612756"><ele>331.5</ele><time>2026-04-03T08:42:24.999Z</time></trkpt><trkpt lat="44.611148939999225" lon="8.954101666200337"><ele>332.0</ele><time>2026-04-03T08:42:25.999Z</time></trkpt><trkpt lat="44.611026341950556" lon="8.95418168603913"><ele>332.5</ele><time>2026-04-03T08:42:26.999Z</time></trkpt><trkpt lat="44.61090064522952" lon="8.954249503741542"><ele>333.0</ele><time>2026-04-03T08:42:27.998Z</time></trkpt><trkpt lat="44.61077405652132" lon="8.95430522069483"><ele>333.0</ele><time>2026-04-03T08:42:28.998Z</time></trkpt><trkpt lat="44.61064538115968" lon="8.954360087594827"><ele>333.0</ele><time>2026-04-03T08:42:29.998Z</time></trkpt><trkpt lat="44.61051097099346" lon="8.95441185718042"><ele>333.0</ele><time>2026-04-03T08:42:30.998Z</time></trkpt><trkpt lat="44.61037726749821" lon="8.954461102696104"><ele>333.0</ele><time>2026-04-03T08:42:31.998Z</time></trkpt><trkpt lat="44.6102407027593" lon="8.954507914179011"><ele>333.5</ele><time>2026-04-03T08:42:32.998Z</time></trkpt><trkpt lat="44.61010693437564" lon="8.95455655434791"><ele>334.0</ele><time>2026-04-03T08:42:33.998Z</time></trkpt><trkpt lat="44.60997204696796" lon="8.954609453498989"><ele>334.5</ele><time>2026-04-03T08:42:34.998Z</time></trkpt><trkpt lat="44.609839910437834" lon="8.954655714432873"><ele>335.0</ele><time>2026-04-03T08:42:35.998Z</time></trkpt><trkpt lat="44.609705667917424" lon="8.954703116682511"><ele>335.0</ele><time>2026-04-03T08:42:36.998Z</time></trkpt><trkpt lat="44.60957213615697" lon="8.954748317291815"><ele>335.0</ele><time>2026-04-03T08:42:37.998Z</time></trkpt><trkpt lat="44.6094407098947" lon="8.954792420689008"><ele>335.0</ele><time>2026-04-03T08:42:38.998Z</time></trkpt><trkpt lat="44.60931417523153" lon="8.954835329028512"><ele>335.0</ele><time>2026-04-03T08:42:39.998Z</time></trkpt><trkpt lat="44.609191194340056" lon="8.95487987260731"><ele>335.0</ele><time>2026-04-03T08:42:40.998Z</time></trkpt><trkpt lat="44.609072024238095" lon="8.954921355305038"><ele>335.0</ele><time>2026-04-03T08:42:41.998Z</time></trkpt><trkpt lat="44.60895386428129" lon="8.954964708516071"><ele>335.0</ele><time>2026-04-03T08:42:42.998Z</time></trkpt><trkpt lat="44.608836086955876" lon="8.955005315547972"><ele>335.0</ele><time>2026-04-03T08:42:43.998Z</time></trkpt><trkpt lat="44.608716926922575" lon="8.95505088783993"><ele>334.75</ele><time>2026-04-03T08:42:44.998Z</time></trkpt><trkpt lat="44.608599144295134" lon="8.955100298078438"><ele>334.5</ele><time>2026-04-03T08:42:45.998Z</time></trkpt><trkpt lat="44.60848233855533" lon="8.955140035007329"><ele>334.25</ele><time>2026-04-03T08:42:46.998Z</time></trkpt><trkpt lat="44.60836038640758" lon="8.955165689795695"><ele>334.0</ele><time>2026-04-03T08:42:47.998Z</time></trkpt><trkpt lat="44.60823721804072" lon="8.955168455562223"><ele>334.0</ele><time>2026-04-03T08:42:48.998Z</time></trkpt><trkpt lat="44.608112087217926" lon="8.955152392996514"><ele>334.0</ele><time>2026-04-03T08:42:49.998Z</time></trkpt><trkpt lat="44.60798663770202" lon="8.955140333133057"><ele>334.0</ele><time>2026-04-03T08:42:50.998Z</time></trkpt><trkpt lat="44.6078576912565" lon="8.955125507011187"><ele>334.0</ele><time>2026-04-03T08:42:51.998Z</time></trkpt><trkpt lat="44.60773018528793" lon="8.955098444120862"><ele>333.75</ele><time>2026-04-03T08:42:52.998Z</time></trkpt><trkpt lat="44.60761350505139" lon="8.955044802496792"><ele>333.5</ele><time>2026-04-03T08:42:53.998Z</time></trkpt><trkpt lat="44.60751265409458" lon="8.954955355896695"><ele>333.25</ele><time>2026-04-03T08:42:54.998Z</time></trkpt><trkpt lat="44.60741547048245" lon="8.954829448943437"><ele>333.0</ele><time>2026-04-03T08:42:55.998Z</time></trkpt><trkpt lat="44.60732074596021" lon="8.954681489357844"><ele>333.0</ele><time>2026-04-03T08:42:56.998Z</time></trkpt><trkpt lat="44.607230739406525" lon="8.9545175073004"><ele>333.0</ele><time>2026-04-03T08:42:57.998Z</time></trkpt><trkpt lat="44.60714411797732" lon="8.954327053997117"><ele>333.0</ele><time>2026-04-03T08:42:58.998Z</time></trkpt><trkpt lat="44.60706881158961" lon="8.95412286746962"><ele>331.3333333333333</ele><time>2026-04-03T08:42:59.998Z</time></trkpt><trkpt lat="44.606994540236236" lon="8.953909713886382"><ele>329.66666666666663</ele><time>2026-04-03T08:43:00.998Z</time></trkpt><trkpt lat="44.606914318718275" lon="8.953692208854646"><ele>328.0</ele><time>2026-04-03T08:43:01.998Z</time></trkpt><trkpt lat="44.606829291466674" lon="8.953476124157248"><ele>331.3333333333333</ele><time>2026-04-03T08:43:02.998Z</time></trkpt><trkpt lat="44.60674821919441" lon="8.953258677793642"><ele>334.6666666666667</ele><time>2026-04-03T08:43:03.998Z</time></trkpt><trkpt lat="44.6066744097415" lon="8.95302965199277"><ele>338.0</ele><time>2026-04-03T08:43:04.998Z</time></trkpt><trkpt lat="44.606607549548116" lon="8.952794938394657"><ele>338.0</ele><time>2026-04-03T08:43:05.998Z</time></trkpt><trkpt lat="44.60653369785854" lon="8.952555800251853"><ele>338.0</ele><time>2026-04-03T08:43:06.998Z</time></trkpt><trkpt lat="44.60644404979846" lon="8.952327273534921"><ele>338.0</ele><time>2026-04-03T08:43:07.998Z</time></trkpt><trkpt lat="44.606339787762955" lon="8.95211059173581"><ele>336.6666666666667</ele><time>2026-04-03T08:43:08.998Z</time></trkpt><trkpt lat="44.606226778136644" lon="8.951896254701015"><ele>335.3333333333333</ele><time>2026-04-03T08:43:09.998Z</time></trkpt><trkpt lat="44.606119866298556" lon="8.951677209196905"><ele>334.0</ele><time>2026-04-03T08:43:10.998Z</time></trkpt><trkpt lat="44.60601803724494" lon="8.95145039260744"><ele>334.0</ele><time>2026-04-03T08:43:11.999Z</time></trkpt><trkpt lat="44.605915290501024" lon="8.951223852070212"><ele>334.0</ele><time>2026-04-03T08:43:12.999Z</time></trkpt><trkpt lat="44.60581057950183" lon="8.951015405892973"><ele>334.0</ele><time>2026-04-03T08:43:13.999Z</time></trkpt><trkpt lat="44.60570312945578" lon="8.95082330025553"><ele>338.3333333333333</ele><time>2026-04-03T08:43:14.999Z</time></trkpt><trkpt lat="44.60559726434462" lon="8.950654320707637"><ele>342.6666666666667</ele><time>2026-04-03T08:43:15.999Z</time></trkpt><trkpt lat="44.60549089729806" lon="8.950493239969198"><ele>347.0</ele><time>2026-04-03T08:43:16.999Z</time></trkpt><trkpt lat="44.60538664761748" lon="8.95033953358118"><ele>345.75</ele><time>2026-04-03T08:43:17.999Z</time></trkpt><trkpt lat="44.60527836699556" lon="8.95019285344379"><ele>344.5</ele><time>2026-04-03T08:43:18.999Z</time></trkpt><trkpt lat="44.605175534042495" lon="8.95005004742285"><ele>343.25</ele><time>2026-04-03T08:43:19.999Z</time></trkpt><trkpt lat="44.60507567543718" lon="8.949900464807877"><ele>342.0</ele><time>2026-04-03T08:43:20.999Z</time></trkpt><trkpt lat="44.60498063781859" lon="8.949750787457653"><ele>342.0</ele><time>2026-04-03T08:43:21.999Z</time></trkpt><trkpt lat="44.60488500817262" lon="8.94960697062312"><ele>342.0</ele><time>2026-04-03T08:43:22.999Z</time></trkpt><trkpt lat="44.6047861051448" lon="8.949465433485182"><ele>342.0</ele><time>2026-04-03T08:43:23.999Z</time></trkpt><trkpt lat="44.604688014098734" lon="8.94932897317688"><ele>342.0</ele><time>2026-04-03T08:43:24.999Z</time></trkpt><trkpt lat="44.604583773142345" lon="8.949198306579701"><ele>340.0</ele><time>2026-04-03T08:43:25.999Z</time></trkpt><trkpt lat="44.604473454816734" lon="8.949077117935502"><ele>338.0</ele><time>2026-04-03T08:43:26.999Z</time></trkpt><trkpt lat="44.60435685295312" lon="8.948980234119828"><ele>336.0</ele><time>2026-04-03T08:43:27.999Z</time></trkpt><trkpt lat="44.604236560129856" lon="8.948887940856784"><ele>334.0</ele><time>2026-04-03T08:43:28.999Z</time></trkpt><trkpt lat="44.60411178617764" lon="8.948811987857571"><ele>334.0</ele><time>2026-04-03T08:43:29.999Z</time></trkpt><trkpt lat="44.60398714550677" lon="8.948755928349415"><ele>334.0</ele><time>2026-04-03T08:43:30.999Z</time></trkpt><trkpt lat="44.60386064999905" lon="8.948715208771866"><ele>334.0</ele><time>2026-04-03T08:43:31.999Z</time></trkpt><trkpt lat="44.60373030077508" lon="8.94868588081848"><ele>334.0</ele><time>2026-04-03T08:43:32.999Z</time></trkpt><trkpt lat="44.6035979513469" lon="8.948663243834995"><ele>333.25</ele><time>2026-04-03T08:43:33.999Z</time></trkpt><trkpt lat="44.60346274650389" lon="8.948652607134441"><ele>332.5</ele><time>2026-04-03T08:43:34.999Z</time></trkpt><trkpt lat="44.60332322677955" lon="8.948658495659892"><ele>331.75</ele><time>2026-04-03T08:43:35.999Z</time></trkpt><trkpt lat="44.60318506767047" lon="8.948683539020681"><ele>331.0</ele><time>2026-04-03T08:43:36.999Z</time></trkpt><trkpt lat="44.60305267049388" lon="8.948720998994967"><ele>331.0</ele><time>2026-04-03T08:43:37.999Z</time></trkpt><trkpt lat="44.60293080753348" lon="8.948765182641973"><ele>331.0</ele><time>2026-04-03T08:43:38.999Z</time></trkpt><trkpt lat="44.60281252100098" lon="8.948819202326964"><ele>331.0</ele><time>2026-04-03T08:43:39.999Z</time></trkpt><trkpt lat="44.60270285811101" lon="8.948882580595635"><ele>331.0</ele><time>2026-04-03T08:43:40.999Z</time></trkpt><trkpt lat="44.602604073917504" lon="8.94894655647012"><ele>332.0</ele><time>2026-04-03T08:43:41.999Z</time></trkpt><trkpt lat="44.60251541875115" lon="8.948986862234415"><ele>333.0</ele><time>2026-04-03T08:43:42.999Z</time></trkpt><trkpt lat="44.60243379174567" lon="8.94898488185525"><ele>334.0</ele><time>2026-04-03T08:43:43.999Z</time></trkpt><trkpt lat="44.602310450761784" lon="8.948870318192478"><ele>335.0</ele><time>2026-04-03T08:43:45.999Z</time></trkpt><trkpt lat="44.60227301831726" lon="8.948780388603835"><ele>336.0</ele><time>2026-04-03T08:43:46.999Z</time></trkpt><trkpt lat="44.602263594083325" lon="8.948683186820057"><ele>336.0</ele><time>2026-04-03T08:43:47.999Z</time></trkpt><trkpt lat="44.60227930965182" lon="8.948588489882404"><ele>336.0</ele><time>2026-04-03T08:43:48.999Z</time></trkpt><trkpt lat="44.602312230355174" lon="8.948496244436079"><ele>336.0</ele><time>2026-04-03T08:43:49.999Z</time></trkpt><trkpt lat="44.60235978530518" lon="8.948408284914352"><ele>336.0</ele><time>2026-04-03T08:43:50.999Z</time></trkpt><trkpt lat="44.60241988590222" lon="8.948336424486786"><ele>336.0</ele><time>2026-04-03T08:43:51.999Z</time></trkpt><trkpt lat="44.602493215379845" lon="8.948285520102985"><ele>336.0</ele><time>2026-04-03T08:43:52.999Z</time></trkpt><trkpt lat="44.602571371085425" lon="8.94825934889366"><ele>335.1666666666667</ele><time>2026-04-03T08:43:53.999Z</time></trkpt><trkpt lat="44.60265389107078" lon="8.948257863839462"><ele>334.3333333333333</ele><time>2026-04-03T08:43:54.999Z</time></trkpt><trkpt lat="44.60273076232483" lon="8.948286915238322"><ele>333.5</ele><time>2026-04-03T08:43:55.999Z</time></trkpt><trkpt lat="44.60280122691624" lon="8.94834431241875"><ele>332.66666666666663</ele><time>2026-04-03T08:43:56.999Z</time></trkpt><trkpt lat="44.602857499494085" lon="8.948419676452668"><ele>331.8333333333333</ele><time>2026-04-03T08:43:57.999Z</time></trkpt><trkpt lat="44.60290766515927" lon="8.948514928854873"><ele>331.0</ele><time>2026-04-03T08:43:58.999Z</time></trkpt><trkpt lat="44.60294243628575" lon="8.948632988859742"><ele>331.0</ele><time>2026-04-03T08:43:59.999Z</time></trkpt><trkpt lat="44.602946482074394" lon="8.94876155306554"><ele>331.0</ele><time>2026-04-03T08:44:00.999Z</time></trkpt><trkpt lat="44.60292471746074" lon="8.948886823092234"><ele>331.0</ele><time>2026-04-03T08:44:01.999Z</time></trkpt><trkpt lat="44.602883590713795" lon="8.949011543377232"><ele>331.0</ele><time>2026-04-03T08:44:02.999Z</time></trkpt><trkpt lat="44.60281885534409" lon="8.949116571052087"><ele>331.0</ele><time>2026-04-03T08:44:03.999Z</time></trkpt><trkpt lat="44.602743007850066" lon="8.949177896799611"><ele>330.7142857142857</ele><time>2026-04-03T08:44:04.999Z</time></trkpt><trkpt lat="44.6026649112475" lon="8.94919412347297"><ele>330.42857142857144</ele><time>2026-04-03T08:44:05.999Z</time></trkpt><trkpt lat="44.60259145847897" lon="8.949198678503796"><ele>330.1428571428571</ele><time>2026-04-03T08:44:06.999Z</time></trkpt><trkpt lat="44.60252145212488" lon="8.949215130529703"><ele>329.8571428571429</ele><time>2026-04-03T08:44:07.999Z</time></trkpt><trkpt lat="44.6024599841118" lon="8.949250320402232"><ele>329.57142857142856</ele><time>2026-04-03T08:44:08.999Z</time></trkpt><trkpt lat="44.60240759936582" lon="8.949304886548799"><ele>329.2857142857143</ele><time>2026-04-03T08:44:09.999Z</time></trkpt><trkpt lat="44.60236685725189" lon="8.94937232298013"><ele>329.0</ele><time>2026-04-03T08:44:10.999Z</time></trkpt><trkpt lat="44.60229841835477" lon="8.949504062980965"><ele>329.0</ele><time>2026-04-03T08:44:12.999Z</time></trkpt><trkpt lat="44.60223352808279" lon="8.94962861065411"><ele>329.0</ele><time>2026-04-03T08:44:14.999Z</time></trkpt><trkpt lat="44.60216861976665" lon="8.949768453419873"><ele>329.0</ele><time>2026-04-03T08:44:16.999Z</time></trkpt><trkpt lat="44.60212195986792" lon="8.949883651130781"><ele>329.0</ele><time>2026-04-03T08:44:19Z</time></trkpt><trkpt lat="44.60207344151456" lon="8.949999312661733"><ele>329.0</ele><time>2026-04-03T08:44:23Z</time></trkpt><trkpt lat="44.60204241193921" lon="8.950088980484782"><ele>328.79999999999995</ele><time>2026-04-03T08:44:24Z</time></trkpt><trkpt lat="44.602003674627696" lon="8.950191310572526"><ele>328.59999999999997</ele><time>2026-04-03T08:44:25Z</time></trkpt><trkpt lat="44.60196187838044" lon="8.950303190751981"><ele>328.4</ele><time>2026-04-03T08:44:26Z</time></trkpt><trkpt lat="44.60191977245605" lon="8.950420484872616"><ele>328.2</ele><time>2026-04-03T08:44:27Z</time></trkpt><trkpt lat="44.601876433944426" lon="8.950534162240292"><ele>328.0</ele><time>2026-04-03T08:44:28Z</time></trkpt><trkpt lat="44.601825663847904" lon="8.950644831617229"><ele>329.0</ele><time>2026-04-03T08:44:29Z</time></trkpt><trkpt lat="44.601770099709185" lon="8.950747447420628"><ele>330.0</ele><time>2026-04-03T08:44:30Z</time></trkpt><trkpt lat="44.60170321331704" lon="8.950841408039063"><ele>331.0</ele><time>2026-04-03T08:44:31Z</time></trkpt><trkpt lat="44.601621330867" lon="8.950929487997207"><ele>332.0</ele><time>2026-04-03T08:44:32Z</time></trkpt><trkpt lat="44.60152509753626" lon="8.951013031685068"><ele>333.0</ele><time>2026-04-03T08:44:33Z</time></trkpt><trkpt lat="44.60141546111978" lon="8.951074913515411"><ele>333.0</ele><time>2026-04-03T08:44:34Z</time></trkpt><trkpt lat="44.60129398439642" lon="8.951120019189991"><ele>333.0</ele><time>2026-04-03T08:44:35Z</time></trkpt><trkpt lat="44.601162082112914" lon="8.951171305455846"><ele>333.0</ele><time>2026-04-03T08:44:36Z</time></trkpt><trkpt lat="44.601011301168775" lon="8.951253117051667"><ele>333.0</ele><time>2026-04-03T08:44:37Z</time></trkpt><trkpt lat="44.60084575793339" lon="8.951365491995459"><ele>333.0</ele><time>2026-04-03T08:44:38Z</time></trkpt><trkpt lat="44.60067467789479" lon="8.951500047039584"><ele>333.0</ele><time>2026-04-03T08:44:39Z</time></trkpt><trkpt lat="44.60051376568639" lon="8.95164856766634"><ele>333.0</ele><time>2026-04-03T08:44:40Z</time></trkpt><trkpt lat="44.60035701504961" lon="8.951821238434679"><ele>335.3333333333333</ele><time>2026-04-03T08:44:41Z</time></trkpt><trkpt lat="44.60019739199459" lon="8.952010614520425"><ele>337.66666666666663</ele><time>2026-04-03T08:44:42Z</time></trkpt><trkpt lat="44.60003295479056" lon="8.95219665470962"><ele>340.0</ele><time>2026-04-03T08:44:43Z</time></trkpt><trkpt lat="44.59986564029119" lon="8.952374995809484"><ele>340.0</ele><time>2026-04-03T08:44:44Z</time></trkpt><trkpt lat="44.59969059329621" lon="8.952539885227134"><ele>340.0</ele><time>2026-04-03T08:44:45Z</time></trkpt><trkpt lat="44.59951218419616" lon="8.952688533208034"><ele>340.0</ele><time>2026-04-03T08:44:46Z</time></trkpt><trkpt lat="44.59933412722722" lon="8.952833915650423"><ele>340.0</ele><time>2026-04-03T08:44:47Z</time></trkpt><trkpt lat="44.59915503870996" lon="8.95297908442625"><ele>340.0</ele><time>2026-04-03T08:44:48Z</time></trkpt><trkpt lat="44.59897916335833" lon="8.95312384598669"><ele>340.0</ele><time>2026-04-03T08:44:49Z</time></trkpt><trkpt lat="44.598800741611186" lon="8.953268788593899"><ele>340.0</ele><time>2026-04-03T08:44:50Z</time></trkpt><trkpt lat="44.59862787359923" lon="8.953415985990041"><ele>340.0</ele><time>2026-04-03T08:44:51Z</time></trkpt><trkpt lat="44.59845540194198" lon="8.953562080855237"><ele>340.0</ele><time>2026-04-03T08:44:52Z</time></trkpt><trkpt lat="44.598281231279735" lon="8.9537056646241"><ele>340.0</ele><time>2026-04-03T08:44:53Z</time></trkpt><trkpt lat="44.598109875666786" lon="8.953849531948757"><ele>340.0</ele><time>2026-04-03T08:44:54Z</time></trkpt><trkpt lat="44.59793784407201" lon="8.953993017151141"><ele>340.0</ele><time>2026-04-03T08:44:55Z</time></trkpt><trkpt lat="44.59776283954264" lon="8.95413124622102"><ele>339.3333333333333</ele><time>2026-04-03T08:44:55.999Z</time></trkpt><trkpt lat="44.59758259374693" lon="8.954254132728185"><ele>338.6666666666667</ele><time>2026-04-03T08:44:56.999Z</time></trkpt><trkpt lat="44.597392528752636" lon="8.954357828483865"><ele>338.0</ele><time>2026-04-03T08:44:57.999Z</time></trkpt><trkpt lat="44.597194607494856" lon="8.95442522158762"><ele>337.33333333333337</ele><time>2026-04-03T08:44:58.999Z</time></trkpt><trkpt lat="44.596985468579575" lon="8.9544612135128"><ele>336.6666666666667</ele><time>2026-04-03T08:44:59.999Z</time></trkpt><trkpt lat="44.59677853898737" lon="8.954459400059184"><ele>336.0</ele><time>2026-04-03T08:45:00.999Z</time></trkpt><trkpt lat="44.596572955051194" lon="8.954417818488414"><ele>336.0</ele><time>2026-04-03T08:45:01.999Z</time></trkpt><trkpt lat="44.59637385193665" lon="8.954342707633703"><ele>336.0</ele><time>2026-04-03T08:45:02.999Z</time></trkpt><trkpt lat="44.59617699666284" lon="8.954237170096038"><ele>336.0</ele><time>2026-04-03T08:45:03.999Z</time></trkpt><trkpt lat="44.59598870477506" lon="8.954111531615665"><ele>337.3333333333333</ele><time>2026-04-03T08:45:04.999Z</time></trkpt><trkpt lat="44.59580773214475" lon="8.953967502832256"><ele>338.66666666666663</ele><time>2026-04-03T08:45:05.999Z</time></trkpt><trkpt lat="44.595647484696656" lon="8.953823895332352"><ele>340.0</ele><time>2026-04-03T08:45:06.999Z</time></trkpt><trkpt lat="44.59550483898495" lon="8.953667070817731"><ele>340.0</ele><time>2026-04-03T08:45:07.999Z</time></trkpt><trkpt lat="44.595394397955396" lon="8.953476492384977"><ele>340.0</ele><time>2026-04-03T08:45:08.999Z</time></trkpt><trkpt lat="44.595311461592644" lon="8.953245038059743"><ele>340.0</ele><time>2026-04-03T08:45:09.999Z</time></trkpt><trkpt lat="44.59526302190598" lon="8.952996727398588"><ele>340.0</ele><time>2026-04-03T08:45:10.999Z</time></trkpt><trkpt lat="44.59524933761471" lon="8.952733908985723"><ele>340.0</ele><time>2026-04-03T08:45:11.999Z</time></trkpt><trkpt lat="44.59526377780497" lon="8.952464190513872"><ele>340.0</ele><time>2026-04-03T08:45:12.999Z</time></trkpt><trkpt lat="44.59528608082538" lon="8.952188900730997"><ele>340.0</ele><time>2026-04-03T08:45:13.999Z</time></trkpt><trkpt lat="44.59530597833618" lon="8.951908969533825"><ele>340.0</ele><time>2026-04-03T08:45:14.999Z</time></trkpt><trkpt lat="44.59531844851884" lon="8.951629954288618"><ele>340.0</ele><time>2026-04-03T08:45:15.999Z</time></trkpt><trkpt lat="44.595322432458325" lon="8.95134341538212"><ele>339.66666666666663</ele><time>2026-04-03T08:45:17.001Z</time></trkpt><trkpt lat="44.59532531852247" lon="8.951054231367847"><ele>339.3333333333333</ele><time>2026-04-03T08:45:18.001Z</time></trkpt><trkpt lat="44.595337276808785" lon="8.950764342497845"><ele>339.0</ele><time>2026-04-03T08:45:19.001Z</time></trkpt><trkpt lat="44.59535482135708" lon="8.950476843831957"><ele>347.3333333333333</ele><time>2026-04-03T08:45:20.001Z</time></trkpt><trkpt lat="44.595373297129115" lon="8.95018690826217"><ele>355.66666666666663</ele><time>2026-04-03T08:45:21.001Z</time></trkpt><trkpt lat="44.595391935911515" lon="8.949898085452798"><ele>364.0</ele><time>2026-04-03T08:45:22.001Z</time></trkpt><trkpt lat="44.595409296293205" lon="8.94960847756614"><ele>364.0</ele><time>2026-04-03T08:45:23.001Z</time></trkpt><trkpt lat="44.59542517421329" lon="8.949320594232649"><ele>364.0</ele><time>2026-04-03T08:45:24.001Z</time></trkpt><trkpt lat="44.59543967175016" lon="8.94903732783056"><ele>364.0</ele><time>2026-04-03T08:45:25.001Z</time></trkpt><trkpt lat="44.59545344928491" lon="8.94876984667933"><ele>362.0</ele><time>2026-04-03T08:45:26.001Z</time></trkpt><trkpt lat="44.59546606659842" lon="8.948518829278033"><ele>360.0</ele><time>2026-04-03T08:45:27.001Z</time></trkpt><trkpt lat="44.59546039784225" lon="8.948281025425423"><ele>358.0</ele><time>2026-04-03T08:45:28.001Z</time></trkpt><trkpt lat="44.59542081358092" lon="8.948048854408297"><ele>358.0</ele><time>2026-04-03T08:45:29.001Z</time></trkpt><trkpt lat="44.59534449836263" lon="8.947826414975586"><ele>358.0</ele><time>2026-04-03T08:45:30.001Z</time></trkpt><trkpt lat="44.595234477563665" lon="8.947630158365797"><ele>358.0</ele><time>2026-04-03T08:45:31Z</time></trkpt><trkpt lat="44.59509621206719" lon="8.947456779316884"><ele>352.3333333333333</ele><time>2026-04-03T08:45:32Z</time></trkpt><trkpt lat="44.59495039405999" lon="8.947299639406571"><ele>346.6666666666667</ele><time>2026-04-03T08:45:33Z</time></trkpt><trkpt lat="44.59481262963408" lon="8.947136946554382"><ele>341.0</ele><time>2026-04-03T08:45:34Z</time></trkpt><trkpt lat="44.594686659879436" lon="8.94697092416698"><ele>341.0</ele><time>2026-04-03T08:45:35Z</time></trkpt><trkpt lat="44.59456208192891" lon="8.946804174206338"><ele>341.0</ele><time>2026-04-03T08:45:36Z</time></trkpt><trkpt lat="44.5944379725388" lon="8.946637736699873"><ele>341.0</ele><time>2026-04-03T08:45:37Z</time></trkpt><trkpt lat="44.59431748620574" lon="8.946465968310417"><ele>342.33333333333337</ele><time>2026-04-03T08:45:38Z</time></trkpt><trkpt lat="44.59421763669123" lon="8.946277230660309"><ele>343.6666666666667</ele><time>2026-04-03T08:45:39Z</time></trkpt><trkpt lat="44.5941499131337" lon="8.946064982630187"><ele>345.0</ele><time>2026-04-03T08:45:40Z</time></trkpt><trkpt lat="44.594113663544874" lon="8.945840547150649"><ele>345.3333333333333</ele><time>2026-04-03T08:45:41Z</time></trkpt><trkpt lat="44.594105892449655" lon="8.94561432076732"><ele>345.66666666666663</ele><time>2026-04-03T08:45:42Z</time></trkpt><trkpt lat="44.59411025194013" lon="8.945383142820308"><ele>346.0</ele><time>2026-04-03T08:45:43Z</time></trkpt><trkpt lat="44.59411418775289" lon="8.945148108293278"><ele>346.0</ele><time>2026-04-03T08:45:44Z</time></trkpt><trkpt lat="44.594113037773404" lon="8.944902610991523"><ele>346.0</ele><time>2026-04-03T08:45:45Z</time></trkpt><trkpt lat="44.5941096523194" lon="8.944659555061357"><ele>346.0</ele><time>2026-04-03T08:45:46Z</time></trkpt><trkpt lat="44.5941061838244" lon="8.94440864837427"><ele>346.0</ele><time>2026-04-03T08:45:47Z</time></trkpt><trkpt lat="44.594103919934625" lon="8.944154573158345"><ele>346.0</ele><time>2026-04-03T08:45:48Z</time></trkpt><trkpt lat="44.59410231221215" lon="8.943901704622368"><ele>346.0</ele><time>2026-04-03T08:45:49Z</time></trkpt><trkpt lat="44.594098335862846" lon="8.943641290707726"><ele>346.0</ele><time>2026-04-03T08:45:50Z</time></trkpt><trkpt lat="44.59409191472842" lon="8.943390307815696"><ele>346.0</ele><time>2026-04-03T08:45:51Z</time></trkpt><trkpt lat="44.594084433142335" lon="8.943133648074646"><ele>346.0</ele><time>2026-04-03T08:45:52Z</time></trkpt><trkpt lat="44.59406948240496" lon="8.942877768396878"><ele>346.66666666666663</ele><time>2026-04-03T08:45:53Z</time></trkpt><trkpt lat="44.59403395815555" lon="8.942635059849252"><ele>347.3333333333333</ele><time>2026-04-03T08:45:54Z</time></trkpt><trkpt lat="44.593971866433286" lon="8.942399327688708"><ele>348.0</ele><time>2026-04-03T08:45:55Z</time></trkpt><trkpt lat="44.593887413882435" lon="8.942178931052318"><ele>348.0</ele><time>2026-04-03T08:45:56Z</time></trkpt><trkpt lat="44.593782058693634" lon="8.941973443697748"><ele>348.0</ele><time>2026-04-03T08:45:57Z</time></trkpt><trkpt lat="44.59365558941892" lon="8.941790540453193"><ele>348.0</ele><time>2026-04-03T08:45:58Z</time></trkpt><trkpt lat="44.59351108245357" lon="8.941632155492535"><ele>348.6666666666667</ele><time>2026-04-03T08:45:59Z</time></trkpt><trkpt lat="44.59334994309639" lon="8.941504541602994"><ele>349.33333333333337</ele><time>2026-04-03T08:46:00Z</time></trkpt><trkpt lat="44.59317538392661" lon="8.941402138183383"><ele>350.0</ele><time>2026-04-03T08:46:01Z</time></trkpt><trkpt lat="44.59299529060559" lon="8.941316914525062"><ele>356.0</ele><time>2026-04-03T08:46:02Z</time></trkpt><trkpt lat="44.59281120571869" lon="8.941234224905116"><ele>362.0</ele><time>2026-04-03T08:46:03Z</time></trkpt><trkpt lat="44.59263134772726" lon="8.941140906451512"><ele>368.0</ele><time>2026-04-03T08:46:04Z</time></trkpt><trkpt lat="44.59245170631539" lon="8.941040096873474"><ele>368.0</ele><time>2026-04-03T08:46:05Z</time></trkpt><trkpt lat="44.59227529011926" lon="8.940936400115628"><ele>368.0</ele><time>2026-04-03T08:46:06Z</time></trkpt><trkpt lat="44.592094705781214" lon="8.940839261518903"><ele>368.0</ele><time>2026-04-03T08:46:07Z</time></trkpt><trkpt lat="44.5919095959038" lon="8.940760729546627"><ele>368.0</ele><time>2026-04-03T08:46:08Z</time></trkpt><trkpt lat="44.591716965407464" lon="8.940699107525857"><ele>368.0</ele><time>2026-04-03T08:46:09Z</time></trkpt><trkpt lat="44.59151908214443" lon="8.940657301916511"><ele>368.0</ele><time>2026-04-03T08:46:10Z</time></trkpt><trkpt lat="44.59132512374762" lon="8.940636642124034"><ele>370.6666666666667</ele><time>2026-04-03T08:46:11Z</time></trkpt><trkpt lat="44.591131455862296" lon="8.940630375895067"><ele>373.3333333333333</ele><time>2026-04-03T08:46:12Z</time></trkpt><trkpt lat="44.590937529008315" lon="8.940629495246302"><ele>376.0</ele><time>2026-04-03T08:46:13Z</time></trkpt><trkpt lat="44.59074567418066" lon="8.940625631624865"><ele>376.0</ele><time>2026-04-03T08:46:14Z</time></trkpt><trkpt lat="44.59055307825616" lon="8.940619467113827"><ele>376.0</ele><time>2026-04-03T08:46:15Z</time></trkpt><trkpt lat="44.59035890040401" lon="8.940613892080245"><ele>376.0</ele><time>2026-04-03T08:46:16Z</time></trkpt><trkpt lat="44.59015683046143" lon="8.94061187852673"><ele>375.3333333333333</ele><time>2026-04-03T08:46:17Z</time></trkpt><trkpt lat="44.58995567997249" lon="8.940607244392984"><ele>374.6666666666667</ele><time>2026-04-03T08:46:18Z</time></trkpt><trkpt lat="44.58975367133575" lon="8.9405988263817"><ele>374.0</ele><time>2026-04-03T08:46:19Z</time></trkpt><trkpt lat="44.58954490791545" lon="8.940587810141324"><ele>375.0</ele><time>2026-04-03T08:46:20Z</time></trkpt><trkpt lat="44.58934461425989" lon="8.940586020126219"><ele>376.0</ele><time>2026-04-03T08:46:21Z</time></trkpt><trkpt lat="44.58913999525783" lon="8.940580841744543"><ele>377.0</ele><time>2026-04-03T08:46:22Z</time></trkpt><trkpt lat="44.58893459376745" lon="8.940578048713347"><ele>377.0</ele><time>2026-04-03T08:46:23Z</time></trkpt><trkpt lat="44.5887241560144" lon="8.940598021943908"><ele>377.0</ele><time>2026-04-03T08:46:24Z</time></trkpt><trkpt lat="44.58852662138884" lon="8.940668490143132"><ele>377.0</ele><time>2026-04-03T08:46:25Z</time></trkpt><trkpt lat="44.588319490984745" lon="8.940755782372593"><ele>375.0</ele><time>2026-04-03T08:46:26Z</time></trkpt><trkpt lat="44.58811307836265" lon="8.940838824633083"><ele>373.0</ele><time>2026-04-03T08:46:27Z</time></trkpt><trkpt lat="44.587901455280345" lon="8.940904976992687"><ele>371.0</ele><time>2026-04-03T08:46:28Z</time></trkpt><trkpt lat="44.58768564021844" lon="8.940976327090711"><ele>388.5</ele><time>2026-04-03T08:46:29Z</time></trkpt><trkpt lat="44.58746786853101" lon="8.94105172129701"><ele>406.0</ele><time>2026-04-03T08:46:30Z</time></trkpt><trkpt lat="44.58724531753323" lon="8.941128430398932"><ele>406.0</ele><time>2026-04-03T08:46:31Z</time></trkpt><trkpt lat="44.58701547280043" lon="8.941212446538346"><ele>406.0</ele><time>2026-04-03T08:46:32Z</time></trkpt><trkpt lat="44.58678043079816" lon="8.941296082613102"><ele>396.5</ele><time>2026-04-03T08:46:33Z</time></trkpt><trkpt lat="44.58653872693605" lon="8.941376492811782"><ele>387.0</ele><time>2026-04-03T08:46:34Z</time></trkpt><trkpt lat="44.58629442787524" lon="8.941458577040173"><ele>377.5</ele><time>2026-04-03T08:46:35Z</time></trkpt><trkpt lat="44.58605498289867" lon="8.94154290572373"><ele>368.0</ele><time>2026-04-03T08:46:36Z</time></trkpt><trkpt lat="44.58581591132998" lon="8.941625369251144"><ele>368.0</ele><time>2026-04-03T08:46:37Z</time></trkpt><trkpt lat="44.585575431551824" lon="8.941699607144985"><ele>368.0</ele><time>2026-04-03T08:46:38Z</time></trkpt><trkpt lat="44.58532950502709" lon="8.94175448717285"><ele>380.0</ele><time>2026-04-03T08:46:39Z</time></trkpt><trkpt lat="44.585080353563455" lon="8.941795366998946"><ele>392.0</ele><time>2026-04-03T08:46:40Z</time></trkpt><trkpt lat="44.58482983741257" lon="8.941828774844323"><ele>392.0</ele><time>2026-04-03T08:46:41Z</time></trkpt><trkpt lat="44.58457724472496" lon="8.94186152914612"><ele>392.0</ele><time>2026-04-03T08:46:42Z</time></trkpt><trkpt lat="44.58432687461687" lon="8.941890064098706"><ele>385.5</ele><time>2026-04-03T08:46:43Z</time></trkpt><trkpt lat="44.584087185465904" lon="8.94192178766377"><ele>379.0</ele><time>2026-04-03T08:46:44Z</time></trkpt><trkpt lat="44.58384596352085" lon="8.941954480038632"><ele>374.5</ele><time>2026-04-03T08:46:45Z</time></trkpt><trkpt lat="44.58361159555621" lon="8.941985025004863"><ele>370.0</ele><time>2026-04-03T08:46:46Z</time></trkpt><trkpt lat="44.58339062638347" lon="8.94201451930187"><ele>370.0</ele><time>2026-04-03T08:46:47Z</time></trkpt><trkpt lat="44.58318169758787" lon="8.94204240266077"><ele>370.0</ele><time>2026-04-03T08:46:48Z</time></trkpt><trkpt lat="44.58298179671206" lon="8.942071651147073"><ele>370.0</ele><time>2026-04-03T08:46:49Z</time></trkpt><trkpt lat="44.58278569400333" lon="8.942100811147068"><ele>368.3333333333333</ele><time>2026-04-03T08:46:50Z</time></trkpt><trkpt lat="44.58260279964835" lon="8.942126902772953"><ele>366.6666666666667</ele><time>2026-04-03T08:46:51Z</time></trkpt><trkpt lat="44.58242587726597" lon="8.942147444304632"><ele>365.0</ele><time>2026-04-03T08:46:52Z</time></trkpt><trkpt lat="44.58225855841877" lon="8.94215990917487"><ele>365.0</ele><time>2026-04-03T08:46:53Z</time></trkpt><trkpt lat="44.58209585093651" lon="8.942168105984079"><ele>365.0</ele><time>2026-04-03T08:46:54Z</time></trkpt><trkpt lat="44.58194036143403" lon="8.942181582323657"><ele>365.0</ele><time>2026-04-03T08:46:54.999Z</time></trkpt><trkpt lat="44.58179281600028" lon="8.942200786671087"><ele>363.75</ele><time>2026-04-03T08:46:55.999Z</time></trkpt><trkpt lat="44.58165639071992" lon="8.942222937016728"><ele>362.5</ele><time>2026-04-03T08:46:56.999Z</time></trkpt><trkpt lat="44.581515434527006" lon="8.942245719728184"><ele>361.25</ele><time>2026-04-03T08:46:57.999Z</time></trkpt><trkpt lat="44.58137732184543" lon="8.942265407329026"><ele>360.0</ele><time>2026-04-03T08:46:58.999Z</time></trkpt><trkpt lat="44.5812514620581" lon="8.942279160286052"><ele>360.4</ele><time>2026-04-03T08:46:59.999Z</time></trkpt><trkpt lat="44.58113923372096" lon="8.942288402244543"><ele>360.8</ele><time>2026-04-03T08:47:00.999Z</time></trkpt><trkpt lat="44.5810379775658" lon="8.942295220037126"><ele>361.20000000000005</ele><time>2026-04-03T08:47:01.999Z</time></trkpt><trkpt lat="44.5809445735395" lon="8.942302590031005"><ele>361.6</ele><time>2026-04-03T08:47:02.999Z</time></trkpt><trkpt lat="44.58085715854838" lon="8.94230914562394"><ele>362.0</ele><time>2026-04-03T08:47:03.999Z</time></trkpt><trkpt lat="44.58076337207472" lon="8.94231693834022"><ele>362.0</ele><time>2026-04-03T08:47:04.999Z</time></trkpt><trkpt lat="44.58067011647094" lon="8.942327360617393"><ele>362.0</ele><time>2026-04-03T08:47:05.999Z</time></trkpt><trkpt lat="44.58056879482626" lon="8.942339574417435"><ele>362.0</ele><time>2026-04-03T08:47:06.999Z</time></trkpt><trkpt lat="44.58046181421153" lon="8.94235376693537"><ele>362.0</ele><time>2026-04-03T08:47:07.999Z</time></trkpt><trkpt lat="44.580349944943734" lon="8.942368851347949"><ele>362.0</ele><time>2026-04-03T08:47:08.999Z</time></trkpt><trkpt lat="44.580245726838946" lon="8.942381993483359"><ele>361.1666666666667</ele><time>2026-04-03T08:47:09.999Z</time></trkpt><trkpt lat="44.58014863598218" lon="8.942395370969217"><ele>360.33333333333337</ele><time>2026-04-03T08:47:10.999Z</time></trkpt><trkpt lat="44.580061009216614" lon="8.942407681612204"><ele>359.5</ele><time>2026-04-03T08:47:11.999Z</time></trkpt><trkpt lat="44.57997916089355" lon="8.942418603643949"><ele>358.6666666666667</ele><time>2026-04-03T08:47:12.999Z</time></trkpt><trkpt lat="44.579903972106095" lon="8.94242843823341"><ele>357.8333333333333</ele><time>2026-04-03T08:47:13.999Z</time></trkpt><trkpt lat="44.579832011906234" lon="8.94243900394206"><ele>357.0</ele><time>2026-04-03T08:47:14.999Z</time></trkpt><trkpt lat="44.579763862599584" lon="8.942447127619696"><ele>357.0</ele><time>2026-04-03T08:47:15.999Z</time></trkpt><trkpt lat="44.57969609356746" lon="8.942458693966119"><ele>357.0</ele><time>2026-04-03T08:47:16.999Z</time></trkpt><trkpt lat="44.57962503581316" lon="8.942481313405398"><ele>357.0</ele><time>2026-04-03T08:47:17.999Z</time></trkpt><trkpt lat="44.57955096449539" lon="8.94251049165144"><ele>357.0</ele><time>2026-04-03T08:47:18.999Z</time></trkpt><trkpt lat="44.579471113218034" lon="8.94253153348951"><ele>357.0</ele><time>2026-04-03T08:47:19.999Z</time></trkpt><trkpt lat="44.57938890622956" lon="8.942551309242894"><ele>357.0</ele><time>2026-04-03T08:47:20.999Z</time></trkpt><trkpt lat="44.57930736562229" lon="8.942576551773419"><ele>358.5</ele><time>2026-04-03T08:47:22Z</time></trkpt><trkpt lat="44.57922418573117" lon="8.942606330014193"><ele>360.0</ele><time>2026-04-03T08:47:23Z</time></trkpt><trkpt lat="44.579142192927904" lon="8.942642566853351"><ele>361.5</ele><time>2026-04-03T08:47:24Z</time></trkpt><trkpt lat="44.57905952539255" lon="8.942673782207383"><ele>363.0</ele><time>2026-04-03T08:47:25Z</time></trkpt><trkpt lat="44.57897388374045" lon="8.942710493568875"><ele>364.5</ele><time>2026-04-03T08:47:26Z</time></trkpt><trkpt lat="44.578887596975555" lon="8.942751868328026"><ele>366.0</ele><time>2026-04-03T08:47:27Z</time></trkpt><trkpt lat="44.578801535672575" lon="8.942798240009175"><ele>366.0</ele><time>2026-04-03T08:47:28Z</time></trkpt><trkpt lat="44.57871513895125" lon="8.942849032684935"><ele>366.0</ele><time>2026-04-03T08:47:29Z</time></trkpt><trkpt lat="44.578628749251344" lon="8.94290155273765"><ele>366.0</ele><time>2026-04-03T08:47:30Z</time></trkpt><trkpt lat="44.578542691124916" lon="8.942959136018338"><ele>366.0</ele><time>2026-04-03T08:47:31Z</time></trkpt><trkpt lat="44.578456206778" lon="8.94301982795918"><ele>366.0</ele><time>2026-04-03T08:47:32Z</time></trkpt><trkpt lat="44.57837183536856" lon="8.943084585215177"><ele>365.0</ele><time>2026-04-03T08:47:33Z</time></trkpt><trkpt lat="44.57828736001548" lon="8.943152841631237"><ele>364.0</ele><time>2026-04-03T08:47:34Z</time></trkpt><trkpt lat="44.57820267012628" lon="8.943224632507937"><ele>363.0</ele><time>2026-04-03T08:47:35Z</time></trkpt><trkpt lat="44.578120321102794" lon="8.94329988782068"><ele>362.0</ele><time>2026-04-03T08:47:36Z</time></trkpt><trkpt lat="44.57803750119336" lon="8.943378089144831"><ele>361.0</ele><time>2026-04-03T08:47:37Z</time></trkpt><trkpt lat="44.57795643581985" lon="8.943460111814401"><ele>360.8</ele><time>2026-04-03T08:47:38Z</time></trkpt><trkpt lat="44.57787696109805" lon="8.94354564712345"><ele>360.6</ele><time>2026-04-03T08:47:39Z</time></trkpt><trkpt lat="44.577798102022726" lon="8.943635064306395"><ele>360.4</ele><time>2026-04-03T08:47:40Z</time></trkpt><trkpt lat="44.57772154818648" lon="8.943730908134214"><ele>360.2</ele><time>2026-04-03T08:47:41Z</time></trkpt><trkpt lat="44.57764569701742" lon="8.94383041026737"><ele>360.0</ele><time>2026-04-03T08:47:42Z</time></trkpt><trkpt lat="44.577571532069484" lon="8.943933766585323"><ele>360.0</ele><time>2026-04-03T08:47:43Z</time></trkpt><trkpt lat="44.57750071265639" lon="8.944042890804079"><ele>360.0</ele><time>2026-04-03T08:47:44Z</time></trkpt><trkpt lat="44.57742662660746" lon="8.9441502818461"><ele>360.0</ele><time>2026-04-03T08:47:45Z</time></trkpt><trkpt lat="44.57735485060786" lon="8.944262748182227"><ele>360.0</ele><time>2026-04-03T08:47:46Z</time></trkpt><trkpt lat="44.57728341815315" lon="8.944377139100437"><ele>360.0</ele><time>2026-04-03T08:47:47Z</time></trkpt><trkpt lat="44.577213196898185" lon="8.94449685393314"><ele>359.25</ele><time>2026-04-03T08:47:48Z</time></trkpt><trkpt lat="44.577135962184705" lon="8.944624047797278"><ele>358.5</ele><time>2026-04-03T08:47:49Z</time></trkpt><trkpt lat="44.577054779963085" lon="8.94476189829359"><ele>357.75</ele><time>2026-04-03T08:47:50Z</time></trkpt><trkpt lat="44.57698138116419" lon="8.94492014720948"><ele>357.0</ele><time>2026-04-03T08:47:51Z</time></trkpt><trkpt lat="44.57691322060694" lon="8.9450869450009"><ele>357.0</ele><time>2026-04-03T08:47:52Z</time></trkpt><trkpt lat="44.57685250947173" lon="8.945268540465493"><ele>357.0</ele><time>2026-04-03T08:47:53Z</time></trkpt><trkpt lat="44.57679867707217" lon="8.945463586632101"><ele>357.0</ele><time>2026-04-03T08:47:54Z</time></trkpt><trkpt lat="44.57674946437892" lon="8.94566668392688"><ele>357.0</ele><time>2026-04-03T08:47:55Z</time></trkpt><trkpt lat="44.57670900530117" lon="8.945869223641743"><ele>358.25</ele><time>2026-04-03T08:47:56Z</time></trkpt><trkpt lat="44.57667135035416" lon="8.946069431623295"><ele>359.5</ele><time>2026-04-03T08:47:57Z</time></trkpt><trkpt lat="44.57662780622352" lon="8.946263112635274"><ele>360.75</ele><time>2026-04-03T08:47:58Z</time></trkpt><trkpt lat="44.57657573393801" lon="8.946447505484901"><ele>362.0</ele><time>2026-04-03T08:47:59Z</time></trkpt><trkpt lat="44.57651473234799" lon="8.946618339188419"><ele>362.75</ele><time>2026-04-03T08:48:00Z</time></trkpt><trkpt lat="44.576447501669406" lon="8.94678231674056"><ele>363.5</ele><time>2026-04-03T08:48:01Z</time></trkpt><trkpt lat="44.57637898632594" lon="8.946935575022888"><ele>364.25</ele><time>2026-04-03T08:48:02Z</time></trkpt><trkpt lat="44.576308104898246" lon="8.947084159004781"><ele>365.0</ele><time>2026-04-03T08:48:03Z</time></trkpt><trkpt lat="44.57623720102416" lon="8.947222538165585"><ele>364.25</ele><time>2026-04-03T08:48:04Z</time></trkpt><trkpt lat="44.57615922134642" lon="8.947356464976696"><ele>363.5</ele><time>2026-04-03T08:48:05Z</time></trkpt><trkpt lat="44.57607758184219" lon="8.947482919437505"><ele>362.75</ele><time>2026-04-03T08:48:06Z</time></trkpt><trkpt lat="44.57599073924222" lon="8.947608876935128"><ele>362.0</ele><time>2026-04-03T08:48:07Z</time></trkpt><trkpt lat="44.57589962300913" lon="8.947730289586058"><ele>364.25</ele><time>2026-04-03T08:48:08Z</time></trkpt><trkpt lat="44.57580195634329" lon="8.947846623018453"><ele>366.5</ele><time>2026-04-03T08:48:09Z</time></trkpt><trkpt lat="44.57569863794678" lon="8.947955702804649"><ele>368.75</ele><time>2026-04-03T08:48:10Z</time></trkpt><trkpt lat="44.575590598677266" lon="8.948060789218939"><ele>371.0</ele><time>2026-04-03T08:48:11Z</time></trkpt><trkpt lat="44.57548192371973" lon="8.948162009439995"><ele>371.0</ele><time>2026-04-03T08:48:12Z</time></trkpt><trkpt lat="44.57537261779402" lon="8.948259440424057"><ele>371.0</ele><time>2026-04-03T08:48:13Z</time></trkpt><trkpt lat="44.57526252321068" lon="8.948351000772758"><ele>371.0</ele><time>2026-04-03T08:48:14Z</time></trkpt><trkpt lat="44.57515312568479" lon="8.948437869957889"><ele>371.0</ele><time>2026-04-03T08:48:15Z</time></trkpt><trkpt lat="44.57504576116297" lon="8.94852402902406"><ele>369.5</ele><time>2026-04-03T08:48:16Z</time></trkpt><trkpt lat="44.57494353856235" lon="8.94861115822728"><ele>368.0</ele><time>2026-04-03T08:48:17Z</time></trkpt><trkpt lat="44.57484316058286" lon="8.948699447261582"><ele>366.5</ele><time>2026-04-03T08:48:18Z</time></trkpt><trkpt lat="44.57473883491887" lon="8.948789263417474"><ele>365.0</ele><time>2026-04-03T08:48:19Z</time></trkpt><trkpt lat="44.574627419964294" lon="8.948880337361315"><ele>364.0</ele><time>2026-04-03T08:48:20Z</time></trkpt><trkpt lat="44.57451037969505" lon="8.948976753538684"><ele>363.0</ele><time>2026-04-03T08:48:21Z</time></trkpt><trkpt lat="44.5743893714726" lon="8.949074316433217"><ele>362.0</ele><time>2026-04-03T08:48:22Z</time></trkpt><trkpt lat="44.57426368412027" lon="8.949175243375816"><ele>361.0</ele><time>2026-04-03T08:48:23Z</time></trkpt><trkpt lat="44.57413560121009" lon="8.949281815035706"><ele>361.0</ele><time>2026-04-03T08:48:24Z</time></trkpt><trkpt lat="44.574006068503316" lon="8.949386695711274"><ele>361.0</ele><time>2026-04-03T08:48:25Z</time></trkpt><trkpt lat="44.57387844060599" lon="8.949489793431072"><ele>361.0</ele><time>2026-04-03T08:48:26Z</time></trkpt><trkpt lat="44.57375267622925" lon="8.949593419549624"><ele>361.0</ele><time>2026-04-03T08:48:27Z</time></trkpt><trkpt lat="44.5736275491224" lon="8.94969595169449"><ele>360.75</ele><time>2026-04-03T08:48:28Z</time></trkpt><trkpt lat="44.57350914002085" lon="8.949793837503064"><ele>360.5</ele><time>2026-04-03T08:48:29Z</time></trkpt><trkpt lat="44.573397652713965" lon="8.94988522832647"><ele>360.25</ele><time>2026-04-03T08:48:30Z</time></trkpt><trkpt lat="44.57328975931633" lon="8.949974013155002"><ele>360.0</ele><time>2026-04-03T08:48:31Z</time></trkpt><trkpt lat="44.573181333197745" lon="8.950064426169908"><ele>359.75</ele><time>2026-04-03T08:48:32Z</time></trkpt><trkpt lat="44.57307177188473" lon="8.950152913793678"><ele>359.5</ele><time>2026-04-03T08:48:33Z</time></trkpt><trkpt lat="44.57296205716225" lon="8.950241074781575"><ele>359.25</ele><time>2026-04-03T08:48:34Z</time></trkpt><trkpt lat="44.57285440923511" lon="8.950328417837637"><ele>359.0</ele><time>2026-04-03T08:48:35Z</time></trkpt><trkpt lat="44.572746544359106" lon="8.950416322021882"><ele>359.0</ele><time>2026-04-03T08:48:36Z</time></trkpt><trkpt lat="44.57263660831838" lon="8.950506357174682"><ele>359.0</ele><time>2026-04-03T08:48:37Z</time></trkpt><trkpt lat="44.572526190621396" lon="8.950596370389126"><ele>359.0</ele><time>2026-04-03T08:48:38Z</time></trkpt><trkpt lat="44.5724194848914" lon="8.95068447966989"><ele>359.0</ele><time>2026-04-03T08:48:39Z</time></trkpt><trkpt lat="44.57231784889571" lon="8.95076826440135"><ele>359.0</ele><time>2026-04-03T08:48:40Z</time></trkpt><trkpt lat="44.572221448555936" lon="8.950847109902151"><ele>359.0</ele><time>2026-04-03T08:48:41Z</time></trkpt><trkpt lat="44.572121424927" lon="8.950927194277039"><ele>359.0</ele><time>2026-04-03T08:48:42Z</time></trkpt><trkpt lat="44.572021127334246" lon="8.951007935611521"><ele>359.0</ele><time>2026-04-03T08:48:43Z</time></trkpt><trkpt lat="44.57191848334802" lon="8.951092102665598"><ele>359.5</ele><time>2026-04-03T08:48:44Z</time></trkpt><trkpt lat="44.571812735070324" lon="8.951176872150594"><ele>360.0</ele><time>2026-04-03T08:48:45Z</time></trkpt><trkpt lat="44.57170426641094" lon="8.951262068598918"><ele>360.5</ele><time>2026-04-03T08:48:46Z</time></trkpt><trkpt lat="44.571597418799726" lon="8.951348358073172"><ele>361.0</ele><time>2026-04-03T08:48:47Z</time></trkpt><trkpt lat="44.57148896254706" lon="8.951434310248008"><ele>361.0</ele><time>2026-04-03T08:48:48Z</time></trkpt><trkpt lat="44.57137791028655" lon="8.951517326194821"><ele>361.0</ele><time>2026-04-03T08:48:49Z</time></trkpt><trkpt lat="44.57126700883328" lon="8.951598554613566"><ele>361.0</ele><time>2026-04-03T08:48:50Z</time></trkpt><trkpt lat="44.57115481050339" lon="8.95167363774609"><ele>361.0</ele><time>2026-04-03T08:48:51Z</time></trkpt><trkpt lat="44.57104106689604" lon="8.951735719404802"><ele>361.25</ele><time>2026-04-03T08:48:51.999Z</time></trkpt><trkpt lat="44.57092563111378" lon="8.951787629017407"><ele>361.5</ele><time>2026-04-03T08:48:52.999Z</time></trkpt><trkpt lat="44.57080909261987" lon="8.95182720463064"><ele>361.75</ele><time>2026-04-03T08:48:53.999Z</time></trkpt><trkpt lat="44.57068853266636" lon="8.951855490643151"><ele>362.0</ele><time>2026-04-03T08:48:54.999Z</time></trkpt><trkpt lat="44.57056482589798" lon="8.951871295640546"><ele>362.0</ele><time>2026-04-03T08:48:55.999Z</time></trkpt><trkpt lat="44.57043934650433" lon="8.95187319715258"><ele>362.0</ele><time>2026-04-03T08:48:56.999Z</time></trkpt><trkpt lat="44.57031025657151" lon="8.95186355002621"><ele>362.0</ele><time>2026-04-03T08:48:57.999Z</time></trkpt><trkpt lat="44.57018195823692" lon="8.951844417173882"><ele>362.0</ele><time>2026-04-03T08:48:58.999Z</time></trkpt><trkpt lat="44.57006161794552" lon="8.951818062282614"><ele>361.8</ele><time>2026-04-03T08:48:59.999Z</time></trkpt><trkpt lat="44.56994333657881" lon="8.951778077818965"><ele>361.6</ele><time>2026-04-03T08:49:00.999Z</time></trkpt><trkpt lat="44.5698299809535" lon="8.951725392574657"><ele>361.40000000000003</ele><time>2026-04-03T08:49:01.999Z</time></trkpt><trkpt lat="44.569729607744" lon="8.951670816957368"><ele>361.20000000000005</ele><time>2026-04-03T08:49:02.999Z</time></trkpt><trkpt lat="44.56964571862345" lon="8.951621758760647"><ele>361.0</ele><time>2026-04-03T08:49:03.999Z</time></trkpt><trkpt lat="44.56956732017847" lon="8.951570885245324"><ele>360.0</ele><time>2026-04-03T08:49:04.999Z</time></trkpt><trkpt lat="44.56949519453875" lon="8.95151700993493"><ele>359.0</ele><time>2026-04-03T08:49:05.999Z</time></trkpt><trkpt lat="44.56941945465857" lon="8.951456022995082"><ele>358.0</ele><time>2026-04-03T08:49:06.999Z</time></trkpt><trkpt lat="44.56934531094818" lon="8.951396806159373"><ele>357.0</ele><time>2026-04-03T08:49:07.999Z</time></trkpt><trkpt lat="44.56928444859217" lon="8.951350782424138"><ele>356.0</ele><time>2026-04-03T08:49:08.999Z</time></trkpt><trkpt lat="44.56918927957771" lon="8.951278318255815"><ele>355.0</ele><time>2026-04-03T08:49:10.999Z</time></trkpt><trkpt lat="44.56910361761098" lon="8.95120869966839"><ele>355.0</ele><time>2026-04-03T08:49:12.999Z</time></trkpt><trkpt lat="44.569022571505286" lon="8.951144971514966"><ele>355.0</ele><time>2026-04-03T08:49:14.999Z</time></trkpt><trkpt lat="44.56892850840425" lon="8.951069396928188"><ele>355.0</ele><time>2026-04-03T08:49:16.999Z</time></trkpt><trkpt lat="44.568818069301074" lon="8.950978510569641"><ele>355.0</ele><time>2026-04-03T08:49:18.999Z</time></trkpt><trkpt lat="44.568752492926286" lon="8.950928815138125"><ele>355.0</ele><time>2026-04-03T08:49:19.999Z</time></trkpt><trkpt lat="44.56868499023328" lon="8.950876925330498"><ele>356.3333333333333</ele><time>2026-04-03T08:49:20.999Z</time></trkpt><trkpt lat="44.56861601337435" lon="8.950822555762265"><ele>357.66666666666663</ele><time>2026-04-03T08:49:21.999Z</time></trkpt><trkpt lat="44.568544787340635" lon="8.950763165987404"><ele>359.0</ele><time>2026-04-03T08:49:22.999Z</time></trkpt><trkpt lat="44.568473563941666" lon="8.950705576152966"><ele>360.3333333333333</ele><time>2026-04-03T08:49:23.999Z</time></trkpt><trkpt lat="44.56840225921459" lon="8.950650257488212"><ele>361.6666666666667</ele><time>2026-04-03T08:49:24.999Z</time></trkpt><trkpt lat="44.56832798070781" lon="8.950593860443986"><ele>363.0</ele><time>2026-04-03T08:49:25.999Z</time></trkpt><trkpt lat="44.56824217706398" lon="8.950531563903835"><ele>363.0</ele><time>2026-04-03T08:49:26.999Z</time></trkpt><trkpt lat="44.56814844130474" lon="8.950460839038433"><ele>363.0</ele><time>2026-04-03T08:49:28Z</time></trkpt><trkpt lat="44.568054864080416" lon="8.950387493900193"><ele>363.0</ele><time>2026-04-03T08:49:29Z</time></trkpt><trkpt lat="44.567965350808045" lon="8.950319027794023"><ele>363.0</ele><time>2026-04-03T08:49:30Z</time></trkpt><trkpt lat="44.567882111604106" lon="8.950254426227147"><ele>363.0</ele><time>2026-04-03T08:49:31Z</time></trkpt><trkpt lat="44.56779985412635" lon="8.950190160148008"><ele>364.2</ele><time>2026-04-03T08:49:32Z</time></trkpt><trkpt lat="44.56772312440559" lon="8.950128902333097"><ele>365.4</ele><time>2026-04-03T08:49:33Z</time></trkpt><trkpt lat="44.56765070662105" lon="8.950069043424856"><ele>366.59999999999997</ele><time>2026-04-03T08:49:34Z</time></trkpt><trkpt lat="44.56757266144304" lon="8.950005637784455"><ele>367.79999999999995</ele><time>2026-04-03T08:49:35Z</time></trkpt><trkpt lat="44.56747874300804" lon="8.949929149021527"><ele>369.0</ele><time>2026-04-03T08:49:36Z</time></trkpt><trkpt lat="44.567375150559336" lon="8.949828839002308"><ele>369.0</ele><time>2026-04-03T08:49:37Z</time></trkpt><trkpt lat="44.56727559024743" lon="8.94969534244531"><ele>369.0</ele><time>2026-04-03T08:49:38Z</time></trkpt><trkpt lat="44.567211609794214" lon="8.949561567714518"><ele>369.0</ele><time>2026-04-03T08:49:39Z</time></trkpt><trkpt lat="44.56716120509352" lon="8.949425377033425"><ele>369.0</ele><time>2026-04-03T08:49:40Z</time></trkpt><trkpt lat="44.56711678092485" lon="8.949281774671023"><ele>369.5</ele><time>2026-04-03T08:49:41Z</time></trkpt><trkpt lat="44.567083280033906" lon="8.949126920601229"><ele>370.0</ele><time>2026-04-03T08:49:42Z</time></trkpt><trkpt lat="44.567065021412745" lon="8.948959563817244"><ele>370.5</ele><time>2026-04-03T08:49:43Z</time></trkpt><trkpt lat="44.5670657085401" lon="8.948779907804713"><ele>371.0</ele><time>2026-04-03T08:49:44Z</time></trkpt><trkpt lat="44.56709065413403" lon="8.948587010470652"><ele>371.0</ele><time>2026-04-03T08:49:45Z</time></trkpt><trkpt lat="44.56713491238747" lon="8.948386270799347"><ele>371.0</ele><time>2026-04-03T08:49:46Z</time></trkpt><trkpt lat="44.567187354799806" lon="8.948203240184"><ele>371.0</ele><time>2026-04-03T08:49:47Z</time></trkpt><trkpt lat="44.56724101064637" lon="8.94802774767263"><ele>371.0</ele><time>2026-04-03T08:49:48Z</time></trkpt><trkpt lat="44.567285446558195" lon="8.947852097421833"><ele>372.25</ele><time>2026-04-03T08:49:49Z</time></trkpt><trkpt lat="44.567309737225834" lon="8.947671291861049"><ele>373.5</ele><time>2026-04-03T08:49:50Z</time></trkpt><trkpt lat="44.56730804032933" lon="8.94749174531726"><ele>374.75</ele><time>2026-04-03T08:49:51Z</time></trkpt><trkpt lat="44.5672838057719" lon="8.947317587734583"><ele>376.0</ele><time>2026-04-03T08:49:52Z</time></trkpt><trkpt lat="44.567239512985" lon="8.947159538294281"><ele>377.0</ele><time>2026-04-03T08:49:53Z</time></trkpt><trkpt lat="44.5671766344394" lon="8.94701747250079"><ele>378.0</ele><time>2026-04-03T08:49:54Z</time></trkpt><trkpt lat="44.56709903437033" lon="8.946884762067908"><ele>379.0</ele><time>2026-04-03T08:49:55Z</time></trkpt><trkpt lat="44.567008587326114" lon="8.94676922724231"><ele>380.0</ele><time>2026-04-03T08:49:56Z</time></trkpt><trkpt lat="44.5669098595812" lon="8.946685998239007"><ele>381.8</ele><time>2026-04-03T08:49:57Z</time></trkpt><trkpt lat="44.56681327321585" lon="8.946629720733503"><ele>383.6</ele><time>2026-04-03T08:49:58Z</time></trkpt><trkpt lat="44.566718970769685" lon="8.94657707421474"><ele>385.4</ele><time>2026-04-03T08:49:59Z</time></trkpt><trkpt lat="44.56662501680471" lon="8.946514768746361"><ele>387.2</ele><time>2026-04-03T08:50:00Z</time></trkpt><trkpt lat="44.56653115966586" lon="8.946449039963767"><ele>389.0</ele><time>2026-04-03T08:50:01Z</time></trkpt><trkpt lat="44.566438159225704" lon="8.946377204015782"><ele>389.0</ele><time>2026-04-03T08:50:02Z</time></trkpt><trkpt lat="44.566345706789356" lon="8.946301831480413"><ele>389.0</ele><time>2026-04-03T08:50:03Z</time></trkpt><trkpt lat="44.566254494514695" lon="8.9462233326546"><ele>389.0</ele><time>2026-04-03T08:50:04Z</time></trkpt><trkpt lat="44.56616672146127" lon="8.946136165131183"><ele>389.0</ele><time>2026-04-03T08:50:05Z</time></trkpt><trkpt lat="44.56608203076155" lon="8.946044498614407"><ele>389.0</ele><time>2026-04-03T08:50:06Z</time></trkpt><trkpt lat="44.56599903283929" lon="8.945949101854831"><ele>389.6</ele><time>2026-04-03T08:50:07Z</time></trkpt><trkpt lat="44.565918967119515" lon="8.94585411436775"><ele>390.2</ele><time>2026-04-03T08:50:08Z</time></trkpt><trkpt lat="44.56584201741702" lon="8.94575915087218"><ele>390.8</ele><time>2026-04-03T08:50:09Z</time></trkpt><trkpt lat="44.56576581106008" lon="8.945665429748573"><ele>391.40000000000003</ele><time>2026-04-03T08:50:10Z</time></trkpt><trkpt lat="44.56568718888366" lon="8.945571319435704"><ele>392.0</ele><time>2026-04-03T08:50:11Z</time></trkpt><trkpt lat="44.56560447037638" lon="8.945481597247614"><ele>392.0</ele><time>2026-04-03T08:50:12Z</time></trkpt><trkpt lat="44.56551809793684" lon="8.945394567394517"><ele>392.0</ele><time>2026-04-03T08:50:13Z</time></trkpt><trkpt lat="44.56543119925542" lon="8.945317217495598"><ele>392.0</ele><time>2026-04-03T08:50:14Z</time></trkpt><trkpt lat="44.56534513166078" lon="8.945243112848113"><ele>392.0</ele><time>2026-04-03T08:50:15Z</time></trkpt><trkpt lat="44.56525982728223" lon="8.945172669726018"><ele>392.0</ele><time>2026-04-03T08:50:16Z</time></trkpt><trkpt lat="44.565178190496404" lon="8.945108375453552"><ele>392.6</ele><time>2026-04-03T08:50:17Z</time></trkpt><trkpt lat="44.56510240262481" lon="8.945046757659126"><ele>393.20000000000005</ele><time>2026-04-03T08:50:18Z</time></trkpt><trkpt lat="44.565015983116254" lon="8.94498943261092"><ele>393.8</ele><time>2026-04-03T08:50:19Z</time></trkpt><trkpt lat="44.56492686612555" lon="8.944942091603876"><ele>394.4</ele><time>2026-04-03T08:50:20Z</time></trkpt><trkpt lat="44.56482863168951" lon="8.944905828018873"><ele>395.0</ele><time>2026-04-03T08:50:21Z</time></trkpt><trkpt lat="44.56472400469058" lon="8.944886114178608"><ele>395.0</ele><time>2026-04-03T08:50:22Z</time></trkpt><trkpt lat="44.564615797910655" lon="8.944887947151262"><ele>395.0</ele><time>2026-04-03T08:50:23Z</time></trkpt><trkpt lat="44.56450567511397" lon="8.944919357320499"><ele>395.0</ele><time>2026-04-03T08:50:24Z</time></trkpt><trkpt lat="44.56439591653807" lon="8.944972594167337"><ele>395.0</ele><time>2026-04-03T08:50:25Z</time></trkpt><trkpt lat="44.56429329439212" lon="8.945052036471562"><ele>399.2</ele><time>2026-04-03T08:50:26Z</time></trkpt><trkpt lat="44.56420034194696" lon="8.945154317475899"><ele>403.4</ele><time>2026-04-03T08:50:27Z</time></trkpt><trkpt lat="44.564134647307405" lon="8.945275901986161"><ele>407.6</ele><time>2026-04-03T08:50:28Z</time></trkpt><trkpt lat="44.56407604619211" lon="8.94537558578305"><ele>411.8</ele><time>2026-04-03T08:50:29Z</time></trkpt><trkpt lat="44.56401333774447" lon="8.945474902295471"><ele>416.0</ele><time>2026-04-03T08:50:30Z</time></trkpt><trkpt lat="44.5639514410055" lon="8.945568139869462"><ele>416.0</ele><time>2026-04-03T08:50:31Z</time></trkpt><trkpt lat="44.56388382919856" lon="8.945664956837984"><ele>416.0</ele><time>2026-04-03T08:50:32Z</time></trkpt><trkpt lat="44.56381319061387" lon="8.945765265787974"><ele>416.0</ele><time>2026-04-03T08:50:33Z</time></trkpt><trkpt lat="44.56373546381513" lon="8.945873488107859"><ele>416.0</ele><time>2026-04-03T08:50:34Z</time></trkpt><trkpt lat="44.56365370528696" lon="8.945984395963828"><ele>416.0</ele><time>2026-04-03T08:50:35Z</time></trkpt><trkpt lat="44.56356284676031" lon="8.946092255183293"><ele>416.5</ele><time>2026-04-03T08:50:36Z</time></trkpt><trkpt lat="44.56346594466281" lon="8.946194697319196"><ele>417.0</ele><time>2026-04-03T08:50:37Z</time></trkpt><trkpt lat="44.56335953839504" lon="8.946296039795095"><ele>417.5</ele><time>2026-04-03T08:50:38Z</time></trkpt><trkpt lat="44.56324955751783" lon="8.946398669484246"><ele>418.0</ele><time>2026-04-03T08:50:39Z</time></trkpt><trkpt lat="44.563131444620566" lon="8.946488808359234"><ele>418.0</ele><time>2026-04-03T08:50:40Z</time></trkpt><trkpt lat="44.56300850612686" lon="8.946568476914889"><ele>418.0</ele><time>2026-04-03T08:50:41Z</time></trkpt><trkpt lat="44.562884252732374" lon="8.946626661337937"><ele>418.0</ele><time>2026-04-03T08:50:42Z</time></trkpt><trkpt lat="44.56275719173072" lon="8.94666209760194"><ele>418.0</ele><time>2026-04-03T08:50:43Z</time></trkpt><trkpt lat="44.562629054108456" lon="8.946701793836608"><ele>420.25</ele><time>2026-04-03T08:50:44Z</time></trkpt><trkpt lat="44.56250406498576" lon="8.94675280622848"><ele>422.5</ele><time>2026-04-03T08:50:45Z</time></trkpt><trkpt lat="44.56237989727237" lon="8.946812691544787"><ele>424.75</ele><time>2026-04-03T08:50:46Z</time></trkpt><trkpt lat="44.56225991423656" lon="8.946886334411964"><ele>427.0</ele><time>2026-04-03T08:50:47Z</time></trkpt><trkpt lat="44.5621445943504" lon="8.946964751200595"><ele>427.0</ele><time>2026-04-03T08:50:48Z</time></trkpt><trkpt lat="44.562033815288856" lon="8.947042994007846"><ele>427.0</ele><time>2026-04-03T08:50:49Z</time></trkpt><trkpt lat="44.56192930664968" lon="8.947118591653606"><ele>427.0</ele><time>2026-04-03T08:50:50Z</time></trkpt><trkpt lat="44.56182552529472" lon="8.947189820445853"><ele>427.0</ele><time>2026-04-03T08:50:51Z</time></trkpt><trkpt lat="44.561716055629226" lon="8.94725483136861"><ele>424.0</ele><time>2026-04-03T08:50:52Z</time></trkpt><trkpt lat="44.561602237011904" lon="8.947304226829852"><ele>421.0</ele><time>2026-04-03T08:50:53Z</time></trkpt><trkpt lat="44.561484652852684" lon="8.947335137668937"><ele>418.0</ele><time>2026-04-03T08:50:54Z</time></trkpt><trkpt lat="44.56136190360428" lon="8.94734629476203"><ele>415.0</ele><time>2026-04-03T08:50:55Z</time></trkpt><trkpt lat="44.56123427582499" lon="8.947332239922405"><ele>415.0</ele><time>2026-04-03T08:50:56Z</time></trkpt><trkpt lat="44.56110240248683" lon="8.947291448344794"><ele>415.0</ele><time>2026-04-03T08:50:56.999Z</time></trkpt><trkpt lat="44.56097509607738" lon="8.94723150581655"><ele>415.0</ele><time>2026-04-03T08:50:57.999Z</time></trkpt><trkpt lat="44.560842655326596" lon="8.947158255105245"><ele>415.0</ele><time>2026-04-03T08:50:58.999Z</time></trkpt><trkpt lat="44.56071833441044" lon="8.947083968294839"><ele>415.0</ele><time>2026-04-03T08:50:59.999Z</time></trkpt><trkpt lat="44.56060638032621" lon="8.947022574839858"><ele>415.0</ele><time>2026-04-03T08:51:00.999Z</time></trkpt><trkpt lat="44.56050629146017" lon="8.946975924048136"><ele>415.0</ele><time>2026-04-03T08:51:01.999Z</time></trkpt><trkpt lat="44.560420485240975" lon="8.946939002597922"><ele>415.0</ele><time>2026-04-03T08:51:02.999Z</time></trkpt><trkpt lat="44.5603549664392" lon="8.946915700340158"><ele>415.0</ele><time>2026-04-03T08:51:03.999Z</time></trkpt><trkpt lat="44.56026687493199" lon="8.946869366177836"><ele>417.2</ele><time>2026-04-03T08:51:05.999Z</time></trkpt><trkpt lat="44.56017089857927" lon="8.946824137471957"><ele>419.4</ele><time>2026-04-03T08:51:07.999Z</time></trkpt><trkpt lat="44.56007900423471" lon="8.946796038788971"><ele>421.6</ele><time>2026-04-03T08:51:08.999Z</time></trkpt><trkpt lat="44.55999346659602" lon="8.946771273387553"><ele>423.8</ele><time>2026-04-03T08:51:09.999Z</time></trkpt><trkpt lat="44.55990352222696" lon="8.946748768338923"><ele>426.0</ele><time>2026-04-03T08:51:10.999Z</time></trkpt><trkpt lat="44.55981884709305" lon="8.946725143503977"><ele>426.0</ele><time>2026-04-03T08:51:11.999Z</time></trkpt><trkpt lat="44.55975105655304" lon="8.946717697655616"><ele>426.0</ele><time>2026-04-03T08:51:12.999Z</time></trkpt><trkpt lat="44.55967277805223" lon="8.946692464237199"><ele>426.0</ele><time>2026-04-03T08:51:14.999Z</time></trkpt><trkpt lat="44.55954630109558" lon="8.946654630552313"><ele>426.0</ele><time>2026-04-03T08:51:17.999Z</time></trkpt><trkpt lat="44.55942690064919" lon="8.946630171144955"><ele>426.0</ele><time>2026-04-03T08:51:19.999Z</time></trkpt><trkpt lat="44.5593221894356" lon="8.946620589905361"><ele>428.0</ele><time>2026-04-03T08:51:21.999Z</time></trkpt><trkpt lat="44.55924734447836" lon="8.946620929231008"><ele>430.0</ele><time>2026-04-03T08:51:24.999Z</time></trkpt><trkpt lat="44.55918539805043" lon="8.946640783686913"><ele>432.0</ele><time>2026-04-03T08:51:27.999Z</time></trkpt><trkpt lat="44.55715511427522" lon="8.946122844362955"><ele>467.0</ele><time>2026-04-03T08:51:36.691Z</time></trkpt><trkpt lat="44.55644673723118" lon="8.9459517987822"><ele>483.0</ele><time>2026-04-03T08:51:37.69Z</time></trkpt><trkpt lat="44.55573717697979" lon="8.945780661000105"><ele>494.0</ele><time>2026-04-03T08:51:38.69Z</time></trkpt><trkpt lat="44.555027431630315" lon="8.945610457586312"><ele>514.0</ele><time>2026-04-03T08:51:39.69Z</time></trkpt><trkpt lat="44.55431806952431" lon="8.945442004486416"><ele>504.0</ele><time>2026-04-03T08:51:40.69Z</time></trkpt><trkpt lat="44.553608478569316" lon="8.94526915770287"><ele>504.0</ele><time>2026-04-03T08:51:41.69Z</time></trkpt><trkpt lat="44.55289931578168" lon="8.94509289513674"><ele>466.0</ele><time>2026-04-03T08:51:42.691Z</time></trkpt><trkpt lat="44.552188397339" lon="8.944922277882311"><ele>432.0</ele><time>2026-04-03T08:51:43.693Z</time></trkpt><trkpt lat="44.551478710179495" lon="8.944748156581937"><ele>406.0</ele><time>2026-04-03T08:51:44.694Z</time></trkpt><trkpt lat="44.55096658193568" lon="8.944609367052367"><ele>406.0</ele><time>2026-04-03T08:52:55.998Z</time></trkpt><trkpt lat="44.550844566038656" lon="8.944592010595471"><ele>406.0</ele><time>2026-04-03T08:52:56.998Z</time></trkpt><trkpt lat="44.550679688395036" lon="8.944544418945764"><ele>406.0</ele><time>2026-04-03T08:52:57.998Z</time></trkpt><trkpt lat="44.55050971205982" lon="8.944498782647582"><ele>404.33333333333337</ele><time>2026-04-03T08:52:58.998Z</time></trkpt><trkpt lat="44.550332190486124" lon="8.944462265795806"><ele>402.66666666666663</ele><time>2026-04-03T08:52:59.998Z</time></trkpt><trkpt lat="44.55015900275919" lon="8.944451290163055"><ele>401.0</ele><time>2026-04-03T08:53:00.998Z</time></trkpt><trkpt lat="44.54998247775958" lon="8.944459156058993"><ele>401.0</ele><time>2026-04-03T08:53:01.998Z</time></trkpt><trkpt lat="44.54980044078413" lon="8.944485047778498"><ele>401.0</ele><time>2026-04-03T08:53:02.998Z</time></trkpt><trkpt lat="44.54961727556675" lon="8.944520249866985"><ele>401.0</ele><time>2026-04-03T08:53:04Z</time></trkpt><trkpt lat="44.54943566998263" lon="8.944565166791618"><ele>397.66666666666663</ele><time>2026-04-03T08:53:05Z</time></trkpt><trkpt lat="44.54926451527429" lon="8.944620237611737"><ele>394.33333333333337</ele><time>2026-04-03T08:53:06Z</time></trkpt><trkpt lat="44.54909646499485" lon="8.944681843043503"><ele>391.0</ele><time>2026-04-03T08:53:07Z</time></trkpt><trkpt lat="44.54893521649927" lon="8.944743588251464"><ele>391.0</ele><time>2026-04-03T08:53:08Z</time></trkpt><trkpt lat="44.548775890166496" lon="8.944791224093958"><ele>391.0</ele><time>2026-04-03T08:53:09Z</time></trkpt><trkpt lat="44.548616933920854" lon="8.944828158548194"><ele>391.0</ele><time>2026-04-03T08:53:10Z</time></trkpt><trkpt lat="44.54845758077209" lon="8.944848584472602"><ele>387.6666666666667</ele><time>2026-04-03T08:53:11Z</time></trkpt><trkpt lat="44.54829333844117" lon="8.944845035383922"><ele>384.33333333333337</ele><time>2026-04-03T08:53:12Z</time></trkpt><trkpt lat="44.548128434656476" lon="8.944799601348311"><ele>381.0</ele><time>2026-04-03T08:53:13Z</time></trkpt><trkpt lat="44.547967979506495" lon="8.944713083465205"><ele>386.0</ele><time>2026-04-03T08:53:14Z</time></trkpt><trkpt lat="44.54782470654768" lon="8.944591948337903"><ele>391.0</ele><time>2026-04-03T08:53:15Z</time></trkpt><trkpt lat="44.54769908747713" lon="8.944448366451569"><ele>396.0</ele><time>2026-04-03T08:53:16Z</time></trkpt><trkpt lat="44.547578651251314" lon="8.944292517571002"><ele>388.6666666666667</ele><time>2026-04-03T08:53:17Z</time></trkpt><trkpt lat="44.54744828206534" lon="8.944141185557214"><ele>381.33333333333337</ele><time>2026-04-03T08:53:18Z</time></trkpt><trkpt lat="44.54729744022396" lon="8.9440204887054"><ele>374.0</ele><time>2026-04-03T08:53:19Z</time></trkpt><trkpt lat="44.547122326880675" lon="8.943961310903179"><ele>377.6666666666667</ele><time>2026-04-03T08:53:20Z</time></trkpt><trkpt lat="44.54692563430576" lon="8.943945635227701"><ele>381.33333333333337</ele><time>2026-04-03T08:53:21Z</time></trkpt><trkpt lat="44.54671827825613" lon="8.943957930174932"><ele>385.0</ele><time>2026-04-03T08:53:22Z</time></trkpt><trkpt lat="44.54652836345039" lon="8.94390933488518"><ele>385.0</ele><time>2026-04-03T08:53:23Z</time></trkpt><trkpt lat="44.54632696275047" lon="8.943776765436766"><ele>385.0</ele><time>2026-04-03T08:53:24Z</time></trkpt><trkpt lat="44.54611891077566" lon="8.943606739405663"><ele>378.0</ele><time>2026-04-03T08:53:25Z</time></trkpt><trkpt lat="44.54589901023138" lon="8.943431478133169"><ele>371.0</ele><time>2026-04-03T08:53:26Z</time></trkpt><trkpt lat="44.54567824678646" lon="8.94325196822494"><ele>371.0</ele><time>2026-04-03T08:53:27Z</time></trkpt><trkpt lat="44.54546974434324" lon="8.943056396597843"><ele>371.0</ele><time>2026-04-03T08:53:28Z</time></trkpt><trkpt lat="44.54528186844003" lon="8.94283339732855"><ele>368.5</ele><time>2026-04-03T08:53:29Z</time></trkpt><trkpt lat="44.54511717065111" lon="8.942593912815227"><ele>366.0</ele><time>2026-04-03T08:53:30Z</time></trkpt><trkpt lat="44.54496520509507" lon="8.942363343897668"><ele>366.0</ele><time>2026-04-03T08:53:31Z</time></trkpt><trkpt lat="44.54480800750686" lon="8.94218283833357"><ele>366.0</ele><time>2026-04-03T08:53:32Z</time></trkpt><trkpt lat="44.54464031808538" lon="8.942058536891453"><ele>366.0</ele><time>2026-04-03T08:53:33Z</time></trkpt><trkpt lat="44.54444527619197" lon="8.941991288430787"><ele>372.0</ele><time>2026-04-03T08:53:34Z</time></trkpt><trkpt lat="44.54422965953631" lon="8.941953992561665"><ele>378.0</ele><time>2026-04-03T08:53:35Z</time></trkpt><trkpt lat="44.544006481135916" lon="8.941875968469356"><ele>384.0</ele><time>2026-04-03T08:53:36Z</time></trkpt><trkpt lat="44.543791923586056" lon="8.941718151543277"><ele>377.0</ele><time>2026-04-03T08:53:37Z</time></trkpt><trkpt lat="44.54358192676937" lon="8.941495474625944"><ele>370.0</ele><time>2026-04-03T08:53:38Z</time></trkpt><trkpt lat="44.54336075695067" lon="8.941260727306176"><ele>370.0</ele><time>2026-04-03T08:53:39Z</time></trkpt><trkpt lat="44.543134261939656" lon="8.941054058578876"><ele>370.0</ele><time>2026-04-03T08:53:40Z</time></trkpt><trkpt lat="44.54289851306532" lon="8.940880173131264"><ele>363.5</ele><time>2026-04-03T08:53:41Z</time></trkpt><trkpt lat="44.5426513464096" lon="8.940733750760876"><ele>357.0</ele><time>2026-04-03T08:53:42Z</time></trkpt><trkpt lat="44.542409670722556" lon="8.940598390961979"><ele>357.0</ele><time>2026-04-03T08:53:43Z</time></trkpt><trkpt lat="44.54218847081005" lon="8.940441159635984"><ele>357.0</ele><time>2026-04-03T08:53:44Z</time></trkpt><trkpt lat="44.54199530281872" lon="8.940274742781867"><ele>361.3333333333333</ele><time>2026-04-03T08:53:45Z</time></trkpt><trkpt lat="44.54180836161881" lon="8.940149881268681"><ele>365.66666666666663</ele><time>2026-04-03T08:53:46Z</time></trkpt><trkpt lat="44.541605560132034" lon="8.940068726025967"><ele>370.0</ele><time>2026-04-03T08:53:47Z</time></trkpt><trkpt lat="44.5413913224241" lon="8.940028631014044"><ele>363.3333333333333</ele><time>2026-04-03T08:53:48Z</time></trkpt><trkpt lat="44.5411757018986" lon="8.940041139446766"><ele>356.6666666666667</ele><time>2026-04-03T08:53:49Z</time></trkpt><trkpt lat="44.54096918706255" lon="8.940119013602214"><ele>350.0</ele><time>2026-04-03T08:53:50Z</time></trkpt><trkpt lat="44.54077839771143" lon="8.940251311988929"><ele>350.0</ele><time>2026-04-03T08:53:51Z</time></trkpt><trkpt lat="44.54060602629843" lon="8.94043172885953"><ele>350.0</ele><time>2026-04-03T08:53:52Z</time></trkpt><trkpt lat="44.54046199906105" lon="8.940626891289039"><ele>350.0</ele><time>2026-04-03T08:53:53Z</time></trkpt><trkpt lat="44.54035638325224" lon="8.940853522624872"><ele>340.33333333333337</ele><time>2026-04-03T08:53:54Z</time></trkpt><trkpt lat="44.5402888674979" lon="8.941107350924842"><ele>330.6666666666667</ele><time>2026-04-03T08:53:55Z</time></trkpt><trkpt lat="44.540266577730904" lon="8.941381880851077"><ele>321.0</ele><time>2026-04-03T08:53:56Z</time></trkpt><trkpt lat="44.540290061505765" lon="8.941657911196243"><ele>319.0</ele><time>2026-04-03T08:53:57Z</time></trkpt><trkpt lat="44.5403430980162" lon="8.941942005801568"><ele>317.0</ele><time>2026-04-03T08:53:58Z</time></trkpt><trkpt lat="44.5404230172297" lon="8.942229126131023"><ele>315.0</ele><time>2026-04-03T08:53:59Z</time></trkpt><trkpt lat="44.54051583541957" lon="8.942523060066863"><ele>325.0</ele><time>2026-04-03T08:54:00Z</time></trkpt><trkpt lat="44.5406218297365" lon="8.942804246087146"><ele>335.0</ele><time>2026-04-03T08:54:01Z</time></trkpt><trkpt lat="44.54075721019673" lon="8.943075734895782"><ele>335.0</ele><time>2026-04-03T08:54:02Z</time></trkpt><trkpt lat="44.54092602039689" lon="8.94334607813127"><ele>335.0</ele><time>2026-04-03T08:54:03Z</time></trkpt><trkpt lat="44.541089792229364" lon="8.943616670462426"><ele>340.5</ele><time>2026-04-03T08:54:04Z</time></trkpt><trkpt lat="44.541236450920564" lon="8.943879550382826"><ele>346.0</ele><time>2026-04-03T08:54:05Z</time></trkpt><trkpt lat="44.5413602902543" lon="8.944143320750841"><ele>345.3333333333333</ele><time>2026-04-03T08:54:06Z</time></trkpt><trkpt lat="44.541445964431865" lon="8.944413220020307"><ele>344.6666666666667</ele><time>2026-04-03T08:54:07Z</time></trkpt><trkpt lat="44.54149329112153" lon="8.944689071033327"><ele>344.0</ele><time>2026-04-03T08:54:08Z</time></trkpt><trkpt lat="44.54149478725802" lon="8.944973782562133"><ele>342.0</ele><time>2026-04-03T08:54:09Z</time></trkpt><trkpt lat="44.541448585175715" lon="8.945241005254182"><ele>340.0</ele><time>2026-04-03T08:54:10Z</time></trkpt><trkpt lat="44.54135338657695" lon="8.945477918527281"><ele>338.0</ele><time>2026-04-03T08:54:11Z</time></trkpt><trkpt lat="44.54122484146059" lon="8.945697593254488"><ele>331.6666666666667</ele><time>2026-04-03T08:54:12Z</time></trkpt><trkpt lat="44.541064794299935" lon="8.94587354135255"><ele>325.3333333333333</ele><time>2026-04-03T08:54:13Z</time></trkpt><trkpt lat="44.54087540473961" lon="8.945986357979116"><ele>319.0</ele><time>2026-04-03T08:54:14Z</time></trkpt><trkpt lat="44.54067362334842" lon="8.946050346753983"><ele>317.3333333333333</ele><time>2026-04-03T08:54:15Z</time></trkpt><trkpt lat="44.54045661624982" lon="8.946042471361963"><ele>315.6666666666667</ele><time>2026-04-03T08:54:16Z</time></trkpt><trkpt lat="44.54023794207598" lon="8.94599793420965"><ele>314.0</ele><time>2026-04-03T08:54:17Z</time></trkpt><trkpt lat="44.54000787112054" lon="8.945945743584678"><ele>310.0</ele><time>2026-04-03T08:54:18Z</time></trkpt><trkpt lat="44.53977500492351" lon="8.945909406705736"><ele>306.0</ele><time>2026-04-03T08:54:19Z</time></trkpt><trkpt lat="44.53954584156145" lon="8.94589185378161"><ele>306.0</ele><time>2026-04-03T08:54:20Z</time></trkpt><trkpt lat="44.539319156844684" lon="8.945878421862286"><ele>306.0</ele><time>2026-04-03T08:54:21Z</time></trkpt><trkpt lat="44.53910393209766" lon="8.945853544447743"><ele>306.0</ele><time>2026-04-03T08:54:22Z</time></trkpt><trkpt lat="44.538903376526214" lon="8.94581605337754"><ele>306.0</ele><time>2026-04-03T08:54:23Z</time></trkpt><trkpt lat="44.538725912926985" lon="8.945741843460864"><ele>306.0</ele><time>2026-04-03T08:54:23.999Z</time></trkpt><trkpt lat="44.538575514127174" lon="8.945610010843527"><ele>306.0</ele><time>2026-04-03T08:54:24.999Z</time></trkpt><trkpt lat="44.53846328333848" lon="8.945417164648125"><ele>316.0</ele><time>2026-04-03T08:54:25.999Z</time></trkpt><trkpt lat="44.53837043671255" lon="8.945164879349342"><ele>326.0</ele><time>2026-04-03T08:54:26.999Z</time></trkpt><trkpt lat="44.53830662574552" lon="8.944873200820995"><ele>336.0</ele><time>2026-04-03T08:54:27.999Z</time></trkpt><trkpt lat="44.538280637716866" lon="8.944556434061637"><ele>335.5</ele><time>2026-04-03T08:54:28.999Z</time></trkpt><trkpt lat="44.53827734937365" lon="8.944210299478454"><ele>335.0</ele><time>2026-04-03T08:54:29.999Z</time></trkpt><trkpt lat="44.538279755646144" lon="8.943866129509383"><ele>335.0</ele><time>2026-04-03T08:54:30.999Z</time></trkpt><trkpt lat="44.53825669278697" lon="8.943568726804465"><ele>335.0</ele><time>2026-04-03T08:54:31.999Z</time></trkpt><trkpt lat="44.53817753137387" lon="8.943329939062483"><ele>335.0</ele><time>2026-04-03T08:54:32.999Z</time></trkpt><trkpt lat="44.53804591211156" lon="8.943127012892667"><ele>342.0</ele><time>2026-04-03T08:54:33.999Z</time></trkpt><trkpt lat="44.53788002795507" lon="8.942977100519778"><ele>349.0</ele><time>2026-04-03T08:54:34.999Z</time></trkpt><trkpt lat="44.53769301093225" lon="8.942893257011654"><ele>356.0</ele><time>2026-04-03T08:54:35.999Z</time></trkpt><trkpt lat="44.53747779184712" lon="8.942871300596144"><ele>356.0</ele><time>2026-04-03T08:54:36.999Z</time></trkpt><trkpt lat="44.53726094028651" lon="8.942875055645787"><ele>356.0</ele><time>2026-04-03T08:54:37.999Z</time></trkpt><trkpt lat="44.537026609394246" lon="8.94280558620595"><ele>349.0</ele><time>2026-04-03T08:54:38.999Z</time></trkpt><trkpt lat="44.53679818605925" lon="8.942642447394219"><ele>342.0</ele><time>2026-04-03T08:54:39.999Z</time></trkpt><trkpt lat="44.53655719647422" lon="8.942460615923117"><ele>342.0</ele><time>2026-04-03T08:54:40.999Z</time></trkpt><trkpt lat="44.536303426674486" lon="8.942269570559896"><ele>342.0</ele><time>2026-04-03T08:54:41.999Z</time></trkpt><trkpt lat="44.53604391367656" lon="8.942086188450261"><ele>354.0</ele><time>2026-04-03T08:54:42.999Z</time></trkpt><trkpt lat="44.535760145086755" lon="8.941940912993623"><ele>366.0</ele><time>2026-04-03T08:54:43.999Z</time></trkpt><trkpt lat="44.53546692497642" lon="8.941802414710931"><ele>365.0</ele><time>2026-04-03T08:54:44.999Z</time></trkpt><trkpt lat="44.53517636738879" lon="8.941638127139925"><ele>364.0</ele><time>2026-04-03T08:54:45.999Z</time></trkpt><trkpt lat="44.53489095925058" lon="8.941477333553044"><ele>364.0</ele><time>2026-04-03T08:54:46.999Z</time></trkpt><trkpt lat="44.53457996880167" lon="8.941352631346794"><ele>364.0</ele><time>2026-04-03T08:54:47.999Z</time></trkpt><trkpt lat="44.53425565544767" lon="8.94124719092372"><ele>367.5</ele><time>2026-04-03T08:54:48.999Z</time></trkpt><trkpt lat="44.53392260433365" lon="8.941138118981604"><ele>371.0</ele><time>2026-04-03T08:54:49.999Z</time></trkpt><trkpt lat="44.53359839606323" lon="8.941019570837666"><ele>383.0</ele><time>2026-04-03T08:54:50.999Z</time></trkpt><trkpt lat="44.533278199979" lon="8.94090349985543"><ele>395.0</ele><time>2026-04-03T08:54:51.999Z</time></trkpt><trkpt lat="44.532951216760345" lon="8.940783364286773"><ele>396.5</ele><time>2026-04-03T08:54:52.999Z</time></trkpt><trkpt lat="44.53261660131644" lon="8.940662586363262"><ele>398.0</ele><time>2026-04-03T08:54:54.054Z</time></trkpt><trkpt lat="44.53230880891835" lon="8.940562730895378"><ele>385.0</ele><time>2026-04-03T08:54:55.055Z</time></trkpt><trkpt lat="44.53199967955866" lon="8.940460369382722"><ele>372.0</ele><time>2026-04-03T08:54:56.049Z</time></trkpt><trkpt lat="44.531700848862684" lon="8.940367025429978"><ele>372.0</ele><time>2026-04-03T08:54:57.049Z</time></trkpt><trkpt lat="44.53140378673193" lon="8.940259224496064"><ele>372.0</ele><time>2026-04-03T08:54:58.045Z</time></trkpt><trkpt lat="44.5310860995602" lon="8.940149076168723"><ele>332.0</ele><time>2026-04-03T08:54:59.038Z</time></trkpt><trkpt lat="44.530048468905136" lon="8.939685317552593"><ele>332.0</ele><time>2026-04-03T08:55:02.999Z</time></trkpt><trkpt lat="44.529765049615165" lon="8.939562891750313"><ele>332.0</ele><time>2026-04-03T08:55:03.999Z</time></trkpt><trkpt lat="44.52939601456583" lon="8.939469241573251"><ele>327.5</ele><time>2026-04-03T08:55:04.999Z</time></trkpt><trkpt lat="44.52915311253033" lon="8.939411776163734"><ele>323.0</ele><time>2026-04-03T08:55:05.999Z</time></trkpt><trkpt lat="44.528909582459264" lon="8.939351018825047"><ele>319.0</ele><time>2026-04-03T08:55:06.999Z</time></trkpt><trkpt lat="44.52869614600882" lon="8.939275216674115"><ele>315.0</ele><time>2026-04-03T08:55:07.999Z</time></trkpt><trkpt lat="44.528537379657116" lon="8.939132374481012"><ele>311.0</ele><time>2026-04-03T08:55:08.999Z</time></trkpt><trkpt lat="44.528397601732486" lon="8.93893694244779"><ele>311.0</ele><time>2026-04-03T08:55:10Z</time></trkpt><trkpt lat="44.52829087762426" lon="8.938698569675896"><ele>311.0</ele><time>2026-04-03T08:55:11Z</time></trkpt><trkpt lat="44.52820339904079" lon="8.938438222714568"><ele>311.0</ele><time>2026-04-03T08:55:12Z</time></trkpt><trkpt lat="44.52808266956886" lon="8.938186340740849"><ele>311.6666666666667</ele><time>2026-04-03T08:55:13Z</time></trkpt><trkpt lat="44.527927630012705" lon="8.93799752040151"><ele>312.3333333333333</ele><time>2026-04-03T08:55:14Z</time></trkpt><trkpt lat="44.527744890903946" lon="8.937882898783585"><ele>313.0</ele><time>2026-04-03T08:55:15Z</time></trkpt><trkpt lat="44.52754308827743" lon="8.937822122751399"><ele>313.0</ele><time>2026-04-03T08:55:16Z</time></trkpt><trkpt lat="44.52733361566127" lon="8.93782127851927"><ele>313.0</ele><time>2026-04-03T08:55:17Z</time></trkpt><trkpt lat="44.527130153240336" lon="8.937884116814722"><ele>313.0</ele><time>2026-04-03T08:55:18Z</time></trkpt><trkpt lat="44.5269277202618" lon="8.937980511737322"><ele>312.3333333333333</ele><time>2026-04-03T08:55:19Z</time></trkpt><trkpt lat="44.5267324940053" lon="8.938084996469652"><ele>311.6666666666667</ele><time>2026-04-03T08:55:20Z</time></trkpt><trkpt lat="44.52652980414351" lon="8.938178729437002"><ele>311.0</ele><time>2026-04-03T08:55:21Z</time></trkpt><trkpt lat="44.52633383808163" lon="8.938265608273603"><ele>309.0</ele><time>2026-04-03T08:55:22Z</time></trkpt><trkpt lat="44.52614569413186" lon="8.938342028918857"><ele>307.0</ele><time>2026-04-03T08:55:23Z</time></trkpt><trkpt lat="44.52595155352195" lon="8.938390328879196"><ele>305.0</ele><time>2026-04-03T08:55:24Z</time></trkpt><trkpt lat="44.52575488318878" lon="8.93834882933513"><ele>305.0</ele><time>2026-04-03T08:55:25Z</time></trkpt><trkpt lat="44.52557057668824" lon="8.938240885737864"><ele>305.0</ele><time>2026-04-03T08:55:26Z</time></trkpt><trkpt lat="44.525400554257025" lon="8.938098948758794"><ele>305.0</ele><time>2026-04-03T08:55:27Z</time></trkpt><trkpt lat="44.5252408984816" lon="8.937920113538254"><ele>306.0</ele><time>2026-04-03T08:55:28Z</time></trkpt><trkpt lat="44.525084875489085" lon="8.937742267601065"><ele>307.0</ele><time>2026-04-03T08:55:29Z</time></trkpt><trkpt lat="44.52492543236357" lon="8.937583374137908"><ele>308.0</ele><time>2026-04-03T08:55:30Z</time></trkpt><trkpt lat="44.52475908587228" lon="8.937455662801122"><ele>308.0</ele><time>2026-04-03T08:55:31Z</time></trkpt><trkpt lat="44.52457418123315" lon="8.937366714559909"><ele>308.0</ele><time>2026-04-03T08:55:32Z</time></trkpt><trkpt lat="44.52438412625239" lon="8.937325719804788"><ele>308.0</ele><time>2026-04-03T08:55:33Z</time></trkpt><trkpt lat="44.524189737929525" lon="8.937324211724116"><ele>304.33333333333337</ele><time>2026-04-03T08:55:34Z</time></trkpt><trkpt lat="44.524000234858015" lon="8.93736298116057"><ele>300.6666666666667</ele><time>2026-04-03T08:55:35Z</time></trkpt><trkpt lat="44.52381541404146" lon="8.937435289081265"><ele>297.0</ele><time>2026-04-03T08:55:36Z</time></trkpt><trkpt lat="44.52362952335476" lon="8.93750395235553"><ele>296.3333333333333</ele><time>2026-04-03T08:55:37Z</time></trkpt><trkpt lat="44.52344453796102" lon="8.937522250672439"><ele>295.66666666666663</ele><time>2026-04-03T08:55:38Z</time></trkpt><trkpt lat="44.52326406102235" lon="8.937485894860336"><ele>295.0</ele><time>2026-04-03T08:55:39Z</time></trkpt><trkpt lat="44.52309153435965" lon="8.937398579067956"><ele>295.0</ele><time>2026-04-03T08:55:40Z</time></trkpt><trkpt lat="44.52293048784632" lon="8.937262468449397"><ele>295.0</ele><time>2026-04-03T08:55:41Z</time></trkpt><trkpt lat="44.52278479322046" lon="8.937096399215218"><ele>295.0</ele><time>2026-04-03T08:55:42Z</time></trkpt><trkpt lat="44.522629612285535" lon="8.936931414583595"><ele>294.66666666666663</ele><time>2026-04-03T08:55:43Z</time></trkpt><trkpt lat="44.522457469479576" lon="8.936819020293132"><ele>294.3333333333333</ele><time>2026-04-03T08:55:44Z</time></trkpt><trkpt lat="44.52226023449855" lon="8.936759678147435"><ele>294.0</ele><time>2026-04-03T08:55:45Z</time></trkpt><trkpt lat="44.52205650090106" lon="8.936715841944343"><ele>294.0</ele><time>2026-04-03T08:55:46Z</time></trkpt><trkpt lat="44.52186412576831" lon="8.936659059448237"><ele>294.0</ele><time>2026-04-03T08:55:47Z</time></trkpt><trkpt lat="44.521673674681345" lon="8.936633256118402"><ele>294.0</ele><time>2026-04-03T08:55:48Z</time></trkpt><trkpt lat="44.521483555823266" lon="8.936675445459564"><ele>285.0</ele><time>2026-04-03T08:55:49Z</time></trkpt><trkpt lat="44.521298051153444" lon="8.936761658911713"><ele>276.0</ele><time>2026-04-03T08:55:50Z</time></trkpt><trkpt lat="44.52111139320582" lon="8.936855340259084"><ele>267.0</ele><time>2026-04-03T08:55:51Z</time></trkpt><trkpt lat="44.5209256114752" lon="8.93694619351956"><ele>266.6666666666667</ele><time>2026-04-03T08:55:52Z</time></trkpt><trkpt lat="44.52073679484435" lon="8.937025370251423"><ele>266.33333333333337</ele><time>2026-04-03T08:55:53Z</time></trkpt><trkpt lat="44.52053779075452" lon="8.937065481915251"><ele>266.0</ele><time>2026-04-03T08:55:54Z</time></trkpt><trkpt lat="44.52033610498956" lon="8.937035742270997"><ele>265.33333333333337</ele><time>2026-04-03T08:55:55Z</time></trkpt><trkpt lat="44.52013273228011" lon="8.936960207882185"><ele>264.6666666666667</ele><time>2026-04-03T08:55:56Z</time></trkpt><trkpt lat="44.519932718558486" lon="8.936886070167702"><ele>264.0</ele><time>2026-04-03T08:55:57Z</time></trkpt><trkpt lat="44.519735829954975" lon="8.936830866592503"><ele>265.3333333333333</ele><time>2026-04-03T08:55:58Z</time></trkpt><trkpt lat="44.51954527172129" lon="8.936779531509739"><ele>266.66666666666663</ele><time>2026-04-03T08:55:59Z</time></trkpt><trkpt lat="44.51936457179938" lon="8.936707149094916"><ele>268.0</ele><time>2026-04-03T08:56:00Z</time></trkpt><trkpt lat="44.51920160100636" lon="8.936586017542508"><ele>268.0</ele><time>2026-04-03T08:56:01Z</time></trkpt><trkpt lat="44.519064151126585" lon="8.936409284792964"><ele>268.0</ele><time>2026-04-03T08:56:02Z</time></trkpt><trkpt lat="44.51895699676924" lon="8.936183390778204"><ele>268.0</ele><time>2026-04-03T08:56:03Z</time></trkpt><trkpt lat="44.51889171759598" lon="8.935923851450786"><ele>273.0</ele><time>2026-04-03T08:56:04Z</time></trkpt><trkpt lat="44.51887509453203" lon="8.935646276382874"><ele>278.0</ele><time>2026-04-03T08:56:05Z</time></trkpt><trkpt lat="44.51890966157108" lon="8.935361901655732"><ele>283.0</ele><time>2026-04-03T08:56:06Z</time></trkpt><trkpt lat="44.518967830975946" lon="8.935104992032397"><ele>282.66666666666663</ele><time>2026-04-03T08:56:07Z</time></trkpt><trkpt lat="44.51900428272585" lon="8.934856950825068"><ele>282.3333333333333</ele><time>2026-04-03T08:56:08Z</time></trkpt><trkpt lat="44.518998901972665" lon="8.9345986570875"><ele>282.0</ele><time>2026-04-03T08:56:09Z</time></trkpt><trkpt lat="44.51894738082819" lon="8.934347681994511"><ele>281.0</ele><time>2026-04-03T08:56:09.999Z</time></trkpt><trkpt lat="44.5188529093134" lon="8.934128885023902"><ele>280.0</ele><time>2026-04-03T08:56:10.999Z</time></trkpt><trkpt lat="44.51872139242477" lon="8.933965117946705"><ele>279.0</ele><time>2026-04-03T08:56:11.999Z</time></trkpt><trkpt lat="44.51855852781927" lon="8.933852166167657"><ele>276.3333333333333</ele><time>2026-04-03T08:56:12.999Z</time></trkpt><trkpt lat="44.518377719150614" lon="8.933786373937581"><ele>273.66666666666663</ele><time>2026-04-03T08:56:13.999Z</time></trkpt><trkpt lat="44.51817553616277" lon="8.933749992432507"><ele>271.0</ele><time>2026-04-03T08:56:14.999Z</time></trkpt><trkpt lat="44.517953704286214" lon="8.933706626910178"><ele>274.0</ele><time>2026-04-03T08:56:15.999Z</time></trkpt><trkpt lat="44.51772395845827" lon="8.933651228538876"><ele>277.0</ele><time>2026-04-03T08:56:16.999Z</time></trkpt><trkpt lat="44.517508344830176" lon="8.93359966932939"><ele>277.0</ele><time>2026-04-03T08:56:17.999Z</time></trkpt><trkpt lat="44.517298843418345" lon="8.93355276464162"><ele>277.0</ele><time>2026-04-03T08:56:18.999Z</time></trkpt><trkpt lat="44.51709636498575" lon="8.933508558366839"><ele>277.0</ele><time>2026-04-03T08:56:19.999Z</time></trkpt><trkpt lat="44.51689814893613" lon="8.9334857046197"><ele>273.66666666666663</ele><time>2026-04-03T08:56:20.999Z</time></trkpt><trkpt lat="44.51674926157504" lon="8.933581696344712"><ele>270.3333333333333</ele><time>2026-04-03T08:56:21.999Z</time></trkpt><trkpt lat="44.51662789542927" lon="8.933788730389226"><ele>267.0</ele><time>2026-04-03T08:56:22.999Z</time></trkpt><trkpt lat="44.51651645738306" lon="8.933985912030009"><ele>267.0</ele><time>2026-04-03T08:56:23.999Z</time></trkpt><trkpt lat="44.516431058124105" lon="8.93422056570781"><ele>267.0</ele><time>2026-04-03T08:56:24.999Z</time></trkpt><trkpt lat="44.516354483813366" lon="8.934469002735886"><ele>267.0</ele><time>2026-04-03T08:56:25.999Z</time></trkpt><trkpt lat="44.51627826725153" lon="8.934751002102217"><ele>270.3333333333333</ele><time>2026-04-03T08:56:26.999Z</time></trkpt><trkpt lat="44.51619267427957" lon="8.935006809592888"><ele>273.66666666666663</ele><time>2026-04-03T08:56:27.999Z</time></trkpt><trkpt lat="44.516087562640614" lon="8.935250133192474"><ele>277.0</ele><time>2026-04-03T08:56:28.999Z</time></trkpt><trkpt lat="44.515960797220956" lon="8.93548509308271"><ele>263.5</ele><time>2026-04-03T08:56:29.999Z</time></trkpt><trkpt lat="44.51578064029221" lon="8.935662497969588"><ele>250.0</ele><time>2026-04-03T08:56:30.999Z</time></trkpt><trkpt lat="44.51555197444872" lon="8.935818849656732"><ele>242.5</ele><time>2026-04-03T08:56:31.999Z</time></trkpt><trkpt lat="44.51531188772367" lon="8.935963677998554"><ele>235.0</ele><time>2026-04-03T08:56:32.999Z</time></trkpt><trkpt lat="44.515075069734316" lon="8.936071437697208"><ele>235.0</ele><time>2026-04-03T08:56:33.999Z</time></trkpt><trkpt lat="44.51483565866108" lon="8.936165532569627"><ele>235.0</ele><time>2026-04-03T08:56:34.999Z</time></trkpt><trkpt lat="44.514598085815365" lon="8.93626729527649"><ele>238.5</ele><time>2026-04-03T08:56:35.999Z</time></trkpt><trkpt lat="44.514385863833766" lon="8.936385696849548"><ele>242.0</ele><time>2026-04-03T08:56:36.999Z</time></trkpt><trkpt lat="44.514169178466766" lon="8.936493650986833"><ele>242.0</ele><time>2026-04-03T08:56:37.999Z</time></trkpt><trkpt lat="44.5139562442547" lon="8.936554196593681"><ele>242.0</ele><time>2026-04-03T08:56:38.999Z</time></trkpt><trkpt lat="44.51374149295449" lon="8.936532258727208"><ele>242.0</ele><time>2026-04-03T08:56:39.999Z</time></trkpt><trkpt lat="44.51353142694014" lon="8.936507555952687"><ele>240.0</ele><time>2026-04-03T08:56:40.999Z</time></trkpt><trkpt lat="44.513326250912264" lon="8.936474022149643"><ele>238.0</ele><time>2026-04-03T08:56:41.999Z</time></trkpt><trkpt lat="44.51313450977393" lon="8.936402728078718"><ele>236.0</ele><time>2026-04-03T08:56:42.999Z</time></trkpt><trkpt lat="44.51296059101381" lon="8.93628177082217"><ele>234.33333333333334</ele><time>2026-04-03T08:56:43.999Z</time></trkpt><trkpt lat="44.5128329780978" lon="8.936070691018198"><ele>232.66666666666669</ele><time>2026-04-03T08:56:44.999Z</time></trkpt><trkpt lat="44.51270429930614" lon="8.935871544608787"><ele>231.0</ele><time>2026-04-03T08:56:45.999Z</time></trkpt><trkpt lat="44.51259051990127" lon="8.935648044535075"><ele>231.0</ele><time>2026-04-03T08:56:46.999Z</time></trkpt><trkpt lat="44.512479637018785" lon="8.935402956413526"><ele>231.0</ele><time>2026-04-03T08:56:47.999Z</time></trkpt><trkpt lat="44.51237820859424" lon="8.935160891194856"><ele>231.0</ele><time>2026-04-03T08:56:48.999Z</time></trkpt><trkpt lat="44.51227648431481" lon="8.934933205401347"><ele>233.0</ele><time>2026-04-03T08:56:49.999Z</time></trkpt><trkpt lat="44.512188704331535" lon="8.934717976104762"><ele>235.0</ele><time>2026-04-03T08:56:50.999Z</time></trkpt><trkpt lat="44.5121453198749" lon="8.934493029607259"><ele>237.0</ele><time>2026-04-03T08:56:51.999Z</time></trkpt><trkpt lat="44.51213691240913" lon="8.934258428084501"><ele>237.66666666666669</ele><time>2026-04-03T08:56:52.999Z</time></trkpt><trkpt lat="44.51215419793486" lon="8.934016707936992"><ele>238.33333333333334</ele><time>2026-04-03T08:56:53.999Z</time></trkpt><trkpt lat="44.51220066947536" lon="8.933781165563143"><ele>239.0</ele><time>2026-04-03T08:56:54.999Z</time></trkpt><trkpt lat="44.512273766844466" lon="8.933559122810683"><ele>236.0</ele><time>2026-04-03T08:56:55.999Z</time></trkpt><trkpt lat="44.5123716434995" lon="8.933349946727185"><ele>233.0</ele><time>2026-04-03T08:56:56.999Z</time></trkpt><trkpt lat="44.5124728345239" lon="8.933145607300327"><ele>230.0</ele><time>2026-04-03T08:56:57.999Z</time></trkpt><trkpt lat="44.512547595591656" lon="8.932922698217565"><ele>230.0</ele><time>2026-04-03T08:56:58.999Z</time></trkpt><trkpt lat="44.51257428376785" lon="8.932666844786414"><ele>230.0</ele><time>2026-04-03T08:56:59.999Z</time></trkpt><trkpt lat="44.51256087206781" lon="8.932387896762982"><ele>230.0</ele><time>2026-04-03T08:57:00.999Z</time></trkpt><trkpt lat="44.512528154778295" lon="8.932090446543656"><ele>227.66666666666669</ele><time>2026-04-03T08:57:01.999Z</time></trkpt><trkpt lat="44.512498182714495" lon="8.931788333176407"><ele>225.33333333333331</ele><time>2026-04-03T08:57:02.999Z</time></trkpt><trkpt lat="44.51247575960669" lon="8.931485531518419"><ele>223.0</ele><time>2026-04-03T08:57:03.999Z</time></trkpt><trkpt lat="44.51245672734414" lon="8.931177881531037"><ele>233.66666666666666</ele><time>2026-04-03T08:57:04.999Z</time></trkpt><trkpt lat="44.512439288397104" lon="8.930882139048125"><ele>244.33333333333331</ele><time>2026-04-03T08:57:05.999Z</time></trkpt><trkpt lat="44.51242270735595" lon="8.930584219993241"><ele>255.0</ele><time>2026-04-03T08:57:06.999Z</time></trkpt><trkpt lat="44.51240650252597" lon="8.930289534001911"><ele>257.3333333333333</ele><time>2026-04-03T08:57:07.999Z</time></trkpt><trkpt lat="44.512392636374535" lon="8.92999407221589"><ele>259.66666666666663</ele><time>2026-04-03T08:57:08.999Z</time></trkpt><trkpt lat="44.51238341017469" lon="8.929680363897752"><ele>262.0</ele><time>2026-04-03T08:57:10.063Z</time></trkpt><trkpt lat="44.51236628446302" lon="8.929385802881773"><ele>252.0</ele><time>2026-04-03T08:57:11.053Z</time></trkpt><trkpt lat="44.51234567244041" lon="8.929079764379313"><ele>242.0</ele><time>2026-04-03T08:57:12.05Z</time></trkpt><trkpt lat="44.51222340805948" lon="8.9287931646771"><ele>242.0</ele><time>2026-04-03T08:57:13.999Z</time></trkpt><trkpt lat="44.512158332007324" lon="8.92855979075834"><ele>242.0</ele><time>2026-04-03T08:57:14.999Z</time></trkpt><trkpt lat="44.512063999292394" lon="8.928366218999269"><ele>242.0</ele><time>2026-04-03T08:57:15.999Z</time></trkpt><trkpt lat="44.51192075827075" lon="8.928204898395839"><ele>228.0</ele><time>2026-04-03T08:57:16.999Z</time></trkpt><trkpt lat="44.51173267415581" lon="8.92801353481059"><ele>214.0</ele><time>2026-04-03T08:57:17.999Z</time></trkpt><trkpt lat="44.51152908773606" lon="8.927904958257553"><ele>214.0</ele><time>2026-04-03T08:57:18.999Z</time></trkpt><trkpt lat="44.511290416318595" lon="8.927803434937037"><ele>214.0</ele><time>2026-04-03T08:57:20Z</time></trkpt><trkpt lat="44.51102763686815" lon="8.92769680722223"><ele>215.0</ele><time>2026-04-03T08:57:21Z</time></trkpt><trkpt lat="44.51075711713372" lon="8.927572608069738"><ele>216.0</ele><time>2026-04-03T08:57:22Z</time></trkpt><trkpt lat="44.51048208883394" lon="8.927439635220843"><ele>210.0</ele><time>2026-04-03T08:57:23Z</time></trkpt><trkpt lat="44.51018913674258" lon="8.927295993344458"><ele>204.0</ele><time>2026-04-03T08:57:24Z</time></trkpt><trkpt lat="44.50988990318673" lon="8.927154423172658"><ele>204.0</ele><time>2026-04-03T08:57:25Z</time></trkpt><trkpt lat="44.50959020775409" lon="8.927013434852064"><ele>204.0</ele><time>2026-04-03T08:57:26Z</time></trkpt><trkpt lat="44.5092955154446" lon="8.926868194091583"><ele>206.0</ele><time>2026-04-03T08:57:27Z</time></trkpt><trkpt lat="44.50900650027994" lon="8.926727676801383"><ele>208.0</ele><time>2026-04-03T08:57:28Z</time></trkpt><trkpt lat="44.508726383482895" lon="8.926590051423354"><ele>208.0</ele><time>2026-04-03T08:57:29Z</time></trkpt><trkpt lat="44.508455410338456" lon="8.926454006824757"><ele>208.0</ele><time>2026-04-03T08:57:30Z</time></trkpt><trkpt lat="44.5081976272787" lon="8.926315920707237"><ele>208.0</ele><time>2026-04-03T08:57:31Z</time></trkpt><trkpt lat="44.507946051877674" lon="8.926171755561136"><ele>208.0</ele><time>2026-04-03T08:57:32Z</time></trkpt><trkpt lat="44.507699987704086" lon="8.926023406393282"><ele>205.0</ele><time>2026-04-03T08:57:33Z</time></trkpt><trkpt lat="44.50745600418219" lon="8.925877081516765"><ele>202.0</ele><time>2026-04-03T08:57:34Z</time></trkpt><trkpt lat="44.507224090878076" lon="8.925750152572693"><ele>196.0</ele><time>2026-04-03T08:57:35Z</time></trkpt><trkpt lat="44.50699751043376" lon="8.925671325975479"><ele>190.0</ele><time>2026-04-03T08:57:36Z</time></trkpt><trkpt lat="44.50677512904065" lon="8.925644995407705"><ele>190.0</ele><time>2026-04-03T08:57:37Z</time></trkpt><trkpt lat="44.50655881931932" lon="8.925655145448474"><ele>190.0</ele><time>2026-04-03T08:57:38Z</time></trkpt><trkpt lat="44.5063600597007" lon="8.92565836491816"><ele>190.0</ele><time>2026-04-03T08:57:39Z</time></trkpt><trkpt lat="44.50617566940824" lon="8.9256059726542"><ele>188.0</ele><time>2026-04-03T08:57:40Z</time></trkpt><trkpt lat="44.505988916121225" lon="8.925499617551093"><ele>186.0</ele><time>2026-04-03T08:57:41Z</time></trkpt><trkpt lat="44.5058102907701" lon="8.925325988789531"><ele>184.0</ele><time>2026-04-03T08:57:42Z</time></trkpt><trkpt lat="44.50564027944729" lon="8.925095485660009"><ele>188.5</ele><time>2026-04-03T08:57:43Z</time></trkpt><trkpt lat="44.50546818056041" lon="8.92484107460998"><ele>193.0</ele><time>2026-04-03T08:57:44Z</time></trkpt><trkpt lat="44.505291791718825" lon="8.924604608823648"><ele>190.0</ele><time>2026-04-03T08:57:45Z</time></trkpt><trkpt lat="44.505111915661" lon="8.924384585206594"><ele>187.0</ele><time>2026-04-03T08:57:46Z</time></trkpt><trkpt lat="44.50493569753677" lon="8.924158834698709"><ele>187.0</ele><time>2026-04-03T08:57:47Z</time></trkpt><trkpt lat="44.50477989766554" lon="8.92390177963873"><ele>187.0</ele><time>2026-04-03T08:57:48Z</time></trkpt><trkpt lat="44.50464566093239" lon="8.923620260401373"><ele>187.0</ele><time>2026-04-03T08:57:49Z</time></trkpt><trkpt lat="44.50453709969012" lon="8.923343277131485"><ele>187.0</ele><time>2026-04-03T08:57:50Z</time></trkpt><trkpt lat="44.50442643536593" lon="8.923074893967522"><ele>187.0</ele><time>2026-04-03T08:57:51Z</time></trkpt><trkpt lat="44.50430798207876" lon="8.922787373386269"><ele>182.33333333333334</ele><time>2026-04-03T08:57:52Z</time></trkpt><trkpt lat="44.50425796227362" lon="8.922524278824724"><ele>177.66666666666666</ele><time>2026-04-03T08:57:53Z</time></trkpt><trkpt lat="44.5042523599665" lon="8.922205641269196"><ele>173.0</ele><time>2026-04-03T08:57:54Z</time></trkpt><trkpt lat="44.5042641660156" lon="8.921896425126995"><ele>173.33333333333331</ele><time>2026-04-03T08:57:55Z</time></trkpt><trkpt lat="44.504249019732285" lon="8.921616733527259"><ele>173.66666666666666</ele><time>2026-04-03T08:57:56Z</time></trkpt><trkpt lat="44.50417649888185" lon="8.921368930397964"><ele>174.0</ele><time>2026-04-03T08:57:57Z</time></trkpt><trkpt lat="44.50404889488046" lon="8.921148261898987"><ele>174.0</ele><time>2026-04-03T08:57:58Z</time></trkpt><trkpt lat="44.50388374737655" lon="8.920958127192941"><ele>174.0</ele><time>2026-04-03T08:57:59Z</time></trkpt><trkpt lat="44.5036958153752" lon="8.920805280831656"><ele>174.0</ele><time>2026-04-03T08:58:00Z</time></trkpt><trkpt lat="44.50348725092564" lon="8.920684910494666"><ele>173.0</ele><time>2026-04-03T08:58:01Z</time></trkpt><trkpt lat="44.50327648965845" lon="8.920636967990083"><ele>172.0</ele><time>2026-04-03T08:58:02Z</time></trkpt><trkpt lat="44.503064738611435" lon="8.920665399541937"><ele>171.0</ele><time>2026-04-03T08:58:03Z</time></trkpt><trkpt lat="44.5028697955647" lon="8.920766332405789"><ele>169.33333333333334</ele><time>2026-04-03T08:58:04Z</time></trkpt><trkpt lat="44.50270321727597" lon="8.920929506997732"><ele>167.66666666666669</ele><time>2026-04-03T08:58:05Z</time></trkpt><trkpt lat="44.50255661558095" lon="8.921151667919201"><ele>166.0</ele><time>2026-04-03T08:58:06Z</time></trkpt><trkpt lat="44.502435381122446" lon="8.921406028940329"><ele>166.0</ele><time>2026-04-03T08:58:07Z</time></trkpt><trkpt lat="44.50230977241378" lon="8.92161934858893"><ele>166.0</ele><time>2026-04-03T08:58:08Z</time></trkpt><trkpt lat="44.50215174340759" lon="8.921766986742556"><ele>166.0</ele><time>2026-04-03T08:58:09Z</time></trkpt><trkpt lat="44.50196742123412" lon="8.921864389460927"><ele>166.0</ele><time>2026-04-03T08:58:10Z</time></trkpt><trkpt lat="44.50176924365207" lon="8.921895537128796"><ele>166.0</ele><time>2026-04-03T08:58:11Z</time></trkpt><trkpt lat="44.50157893411555" lon="8.921853439097832"><ele>166.0</ele><time>2026-04-03T08:58:12Z</time></trkpt><trkpt lat="44.50140647665073" lon="8.921723671279493"><ele>161.33333333333334</ele><time>2026-04-03T08:58:13Z</time></trkpt><trkpt lat="44.50124343920073" lon="8.921537383815998"><ele>156.66666666666666</ele><time>2026-04-03T08:58:14Z</time></trkpt><trkpt lat="44.50108787885207" lon="8.921302100891046"><ele>152.0</ele><time>2026-04-03T08:58:15Z</time></trkpt><trkpt lat="44.500927019437746" lon="8.921056210015927"><ele>154.33333333333331</ele><time>2026-04-03T08:58:16Z</time></trkpt><trkpt lat="44.50077437401275" lon="8.920841851875908"><ele>156.66666666666666</ele><time>2026-04-03T08:58:17Z</time></trkpt><trkpt lat="44.500646804743845" lon="8.920623950257133"><ele>159.0</ele><time>2026-04-03T08:58:18Z</time></trkpt><trkpt lat="44.50055913935128" lon="8.920372696622323"><ele>159.0</ele><time>2026-04-03T08:58:19Z</time></trkpt><trkpt lat="44.500512207872546" lon="8.920080198289405"><ele>159.0</ele><time>2026-04-03T08:58:20Z</time></trkpt><trkpt lat="44.500491462542314" lon="8.919776639571985"><ele>159.0</ele><time>2026-04-03T08:58:21Z</time></trkpt><trkpt lat="44.500469423242976" lon="8.91949341078281"><ele>154.66666666666666</ele><time>2026-04-03T08:58:22Z</time></trkpt><trkpt lat="44.500414418089534" lon="8.919236952459586"><ele>150.33333333333331</ele><time>2026-04-03T08:58:23Z</time></trkpt><trkpt lat="44.50032296933447" lon="8.9189913641467"><ele>146.0</ele><time>2026-04-03T08:58:24Z</time></trkpt><trkpt lat="44.50019086601286" lon="8.918787994444083"><ele>146.0</ele><time>2026-04-03T08:58:25Z</time></trkpt><trkpt lat="44.50002720444271" lon="8.91863839653931"><ele>146.0</ele><time>2026-04-03T08:58:26Z</time></trkpt><trkpt lat="44.499841243362134" lon="8.918540998413373"><ele>146.0</ele><time>2026-04-03T08:58:26.999Z</time></trkpt><trkpt lat="44.49964208586885" lon="8.918521488841227"><ele>146.33333333333331</ele><time>2026-04-03T08:58:27.999Z</time></trkpt><trkpt lat="44.49945146160961" lon="8.918568160390969"><ele>146.66666666666666</ele><time>2026-04-03T08:58:28.999Z</time></trkpt><trkpt lat="44.499260223217" lon="8.91869052338238"><ele>147.0</ele><time>2026-04-03T08:58:29.999Z</time></trkpt><trkpt lat="44.499066917327696" lon="8.91885660461244"><ele>147.0</ele><time>2026-04-03T08:58:30.999Z</time></trkpt><trkpt lat="44.498879453426206" lon="8.9190146117935"><ele>147.0</ele><time>2026-04-03T08:58:31.999Z</time></trkpt><trkpt lat="44.49870519727011" lon="8.919114536560295"><ele>147.0</ele><time>2026-04-03T08:58:32.999Z</time></trkpt><trkpt lat="44.49852876212977" lon="8.919150922613657"><ele>145.66666666666666</ele><time>2026-04-03T08:58:33.999Z</time></trkpt><trkpt lat="44.49835353445033" lon="8.919138249982465"><ele>144.33333333333331</ele><time>2026-04-03T08:58:34.999Z</time></trkpt><trkpt lat="44.49818282034137" lon="8.919086040970656"><ele>143.0</ele><time>2026-04-03T08:58:35.999Z</time></trkpt><trkpt lat="44.49801755496448" lon="8.918995533223542"><ele>140.33333333333331</ele><time>2026-04-03T08:58:36.999Z</time></trkpt><trkpt lat="44.49785241252268" lon="8.918877983548358"><ele>137.66666666666666</ele><time>2026-04-03T08:58:37.999Z</time></trkpt><trkpt lat="44.49769195401984" lon="8.918767278601134"><ele>135.0</ele><time>2026-04-03T08:58:38.999Z</time></trkpt><trkpt lat="44.497527716108394" lon="8.918667003568403"><ele>135.0</ele><time>2026-04-03T08:58:39.999Z</time></trkpt><trkpt lat="44.49736263978033" lon="8.91857690367971"><ele>135.0</ele><time>2026-04-03T08:58:40.999Z</time></trkpt><trkpt lat="44.49720181779013" lon="8.918479907031749"><ele>135.0</ele><time>2026-04-03T08:58:41.999Z</time></trkpt><trkpt lat="44.49704775881133" lon="8.918381698503676"><ele>136.33333333333334</ele><time>2026-04-03T08:58:42.999Z</time></trkpt><trkpt lat="44.49689625231987" lon="8.918285177326924"><ele>137.66666666666669</ele><time>2026-04-03T08:58:43.999Z</time></trkpt><trkpt lat="44.49674415893843" lon="8.918191765774743"><ele>139.0</ele><time>2026-04-03T08:58:44.999Z</time></trkpt><trkpt lat="44.49659692273757" lon="8.918106163109853"><ele>139.0</ele><time>2026-04-03T08:58:45.999Z</time></trkpt><trkpt lat="44.49644027038484" lon="8.918046613901197"><ele>139.0</ele><time>2026-04-03T08:58:46.999Z</time></trkpt><trkpt lat="44.496272313476226" lon="8.918030575927752"><ele>139.0</ele><time>2026-04-03T08:58:47.999Z</time></trkpt><trkpt lat="44.49610726929188" lon="8.918056191394916"><ele>137.0</ele><time>2026-04-03T08:58:48.999Z</time></trkpt><trkpt lat="44.495935830788646" lon="8.918092461288138"><ele>135.0</ele><time>2026-04-03T08:58:49.999Z</time></trkpt><trkpt lat="44.49576904688961" lon="8.918125985196221"><ele>133.0</ele><time>2026-04-03T08:58:50.999Z</time></trkpt><trkpt lat="44.495606945193" lon="8.91815005740748"><ele>133.0</ele><time>2026-04-03T08:58:51.999Z</time></trkpt><trkpt lat="44.495440822391195" lon="8.918172417137386"><ele>133.0</ele><time>2026-04-03T08:58:52.999Z</time></trkpt><trkpt lat="44.49528085044871" lon="8.9181977946946"><ele>133.0</ele><time>2026-04-03T08:58:53.999Z</time></trkpt><trkpt lat="44.49512048559185" lon="8.91822895358308"><ele>132.75</ele><time>2026-04-03T08:58:54.999Z</time></trkpt><trkpt lat="44.49497281529064" lon="8.918253714606447"><ele>132.5</ele><time>2026-04-03T08:58:55.999Z</time></trkpt><trkpt lat="44.49482568897783" lon="8.918284459183855"><ele>132.25</ele><time>2026-04-03T08:58:56.999Z</time></trkpt><trkpt lat="44.49468307124625" lon="8.918327590056"><ele>132.0</ele><time>2026-04-03T08:58:57.999Z</time></trkpt><trkpt lat="44.49454350887162" lon="8.918406267571536"><ele>130.0</ele><time>2026-04-03T08:58:58.999Z</time></trkpt><trkpt lat="44.49441310988053" lon="8.918522344322275"><ele>128.0</ele><time>2026-04-03T08:58:59.999Z</time></trkpt><trkpt lat="44.49430247967939" lon="8.91868423871942"><ele>126.0</ele><time>2026-04-03T08:59:00.999Z</time></trkpt><trkpt lat="44.49420255297454" lon="8.91885355579831"><ele>126.0</ele><time>2026-04-03T08:59:01.999Z</time></trkpt><trkpt lat="44.49411393480941" lon="8.919020333361585"><ele>126.0</ele><time>2026-04-03T08:59:02.999Z</time></trkpt><trkpt lat="44.49401272588961" lon="8.91916708871895"><ele>126.0</ele><time>2026-04-03T08:59:03.999Z</time></trkpt><trkpt lat="44.49389409264728" lon="8.919289793018152"><ele>126.0</ele><time>2026-04-03T08:59:04.999Z</time></trkpt><trkpt lat="44.493761094214946" lon="8.919390602130958"><ele>122.33333333333334</ele><time>2026-04-03T08:59:05.999Z</time></trkpt><trkpt lat="44.493622529779465" lon="8.919472728426308"><ele>118.66666666666667</ele><time>2026-04-03T08:59:06.999Z</time></trkpt><trkpt lat="44.49347641476991" lon="8.919524663066296"><ele>115.0</ele><time>2026-04-03T08:59:07.999Z</time></trkpt><trkpt lat="44.49333016385612" lon="8.919561193258591"><ele>115.0</ele><time>2026-04-03T08:59:08.999Z</time></trkpt><trkpt lat="44.493180537951304" lon="8.919593182209137"><ele>115.0</ele><time>2026-04-03T08:59:09.999Z</time></trkpt><trkpt lat="44.49302997289384" lon="8.919646958962234"><ele>115.0</ele><time>2026-04-03T08:59:10.999Z</time></trkpt><trkpt lat="44.492883510930795" lon="8.919741332465057"><ele>117.33333333333334</ele><time>2026-04-03T08:59:11.999Z</time></trkpt><trkpt lat="44.49274482704715" lon="8.919865891509064"><ele>119.66666666666666</ele><time>2026-04-03T08:59:12.999Z</time></trkpt><trkpt lat="44.49260256598469" lon="8.9199902211362"><ele>122.0</ele><time>2026-04-03T08:59:13.999Z</time></trkpt><trkpt lat="44.49244934725531" lon="8.920071216363066"><ele>119.66666666666666</ele><time>2026-04-03T08:59:14.999Z</time></trkpt><trkpt lat="44.49227930654039" lon="8.920097794721384"><ele>117.33333333333334</ele><time>2026-04-03T08:59:15.999Z</time></trkpt><trkpt lat="44.49210829199553" lon="8.920094818984113"><ele>115.0</ele><time>2026-04-03T08:59:16.999Z</time></trkpt><trkpt lat="44.49194870306387" lon="8.920046328070034"><ele>115.0</ele><time>2026-04-03T08:59:17.999Z</time></trkpt><trkpt lat="44.49180454703493" lon="8.919957040429427"><ele>115.0</ele><time>2026-04-03T08:59:18.999Z</time></trkpt><trkpt lat="44.491679030841716" lon="8.91983572858598"><ele>115.0</ele><time>2026-04-03T08:59:19.999Z</time></trkpt><trkpt lat="44.4915697728617" lon="8.919697753807002"><ele>115.0</ele><time>2026-04-03T08:59:20.999Z</time></trkpt><trkpt lat="44.491470214936186" lon="8.919552582455175"><ele>115.0</ele><time>2026-04-03T08:59:21.999Z</time></trkpt><trkpt lat="44.49136473704641" lon="8.919419340615788"><ele>115.0</ele><time>2026-04-03T08:59:22.999Z</time></trkpt><trkpt lat="44.49123712863813" lon="8.919313739159923"><ele>115.0</ele><time>2026-04-03T08:59:23.999Z</time></trkpt><trkpt lat="44.49109402644079" lon="8.919237187865836"><ele>113.66666666666667</ele><time>2026-04-03T08:59:24.999Z</time></trkpt><trkpt lat="44.49094021735733" lon="8.919194687257471"><ele>112.33333333333334</ele><time>2026-04-03T08:59:26Z</time></trkpt><trkpt lat="44.49077895916582" lon="8.919188184915678"><ele>111.0</ele><time>2026-04-03T08:59:27Z</time></trkpt><trkpt lat="44.4906114013881" lon="8.919196212707128"><ele>111.0</ele><time>2026-04-03T08:59:28Z</time></trkpt><trkpt lat="44.49043995822304" lon="8.919206438342137"><ele>111.0</ele><time>2026-04-03T08:59:29Z</time></trkpt><trkpt lat="44.490271279568496" lon="8.919211980171507"><ele>111.0</ele><time>2026-04-03T08:59:30Z</time></trkpt><trkpt lat="44.490113846669686" lon="8.919211397939094"><ele>111.0</ele><time>2026-04-03T08:59:31Z</time></trkpt><trkpt lat="44.48996012751677" lon="8.919200789176879"><ele>111.0</ele><time>2026-04-03T08:59:32Z</time></trkpt><trkpt lat="44.48981175513234" lon="8.919173391030343"><ele>111.0</ele><time>2026-04-03T08:59:33Z</time></trkpt><trkpt lat="44.489668657426314" lon="8.919133054183392"><ele>109.5</ele><time>2026-04-03T08:59:34Z</time></trkpt><trkpt lat="44.48952938803681" lon="8.919090070768368"><ele>108.0</ele><time>2026-04-03T08:59:35Z</time></trkpt><trkpt lat="44.489386317425335" lon="8.91903912246128"><ele>106.5</ele><time>2026-04-03T08:59:36Z</time></trkpt><trkpt lat="44.4892433342572" lon="8.918982023353669"><ele>105.0</ele><time>2026-04-03T08:59:37Z</time></trkpt><trkpt lat="44.48909092737205" lon="8.91892766504053"><ele>105.0</ele><time>2026-04-03T08:59:38Z</time></trkpt><trkpt lat="44.488941618708346" lon="8.9188780932943"><ele>105.0</ele><time>2026-04-03T08:59:39Z</time></trkpt><trkpt lat="44.4887859312813" lon="8.91885116879668"><ele>105.0</ele><time>2026-04-03T08:59:40Z</time></trkpt><trkpt lat="44.488627031203244" lon="8.918875121913961"><ele>106.66666666666666</ele><time>2026-04-03T08:59:41Z</time></trkpt><trkpt lat="44.488467825479354" lon="8.918939777661976"><ele>108.33333333333333</ele><time>2026-04-03T08:59:42Z</time></trkpt><trkpt lat="44.48831575260512" lon="8.919023784770676"><ele>110.0</ele><time>2026-04-03T08:59:43Z</time></trkpt><trkpt lat="44.48817433630883" lon="8.919148527756798"><ele>107.66666666666666</ele><time>2026-04-03T08:59:44Z</time></trkpt><trkpt lat="44.48803787266268" lon="8.919304167928585"><ele>105.33333333333334</ele><time>2026-04-03T08:59:45Z</time></trkpt><trkpt lat="44.48790463926258" lon="8.91945553520451"><ele>103.0</ele><time>2026-04-03T08:59:46Z</time></trkpt><trkpt lat="44.48776930303005" lon="8.9195979607901"><ele>103.0</ele><time>2026-04-03T08:59:47Z</time></trkpt><trkpt lat="44.48763850176002" lon="8.91973484601575"><ele>103.0</ele><time>2026-04-03T08:59:48Z</time></trkpt><trkpt lat="44.48750966693901" lon="8.919872151696303"><ele>103.0</ele><time>2026-04-03T08:59:49Z</time></trkpt><trkpt lat="44.48738962380107" lon="8.920000754698648"><ele>99.25</ele><time>2026-04-03T08:59:50Z</time></trkpt><trkpt lat="44.48726451508271" lon="8.920112219384293"><ele>95.5</ele><time>2026-04-03T08:59:51Z</time></trkpt><trkpt lat="44.48712933264038" lon="8.920191143726143"><ele>91.75</ele><time>2026-04-03T08:59:52Z</time></trkpt><trkpt lat="44.48698320495238" lon="8.920231607209539"><ele>88.0</ele><time>2026-04-03T08:59:53Z</time></trkpt><trkpt lat="44.486827147953186" lon="8.920238981637821"><ele>87.66666666666666</ele><time>2026-04-03T08:59:54Z</time></trkpt><trkpt lat="44.48666949585259" lon="8.920212265887884"><ele>87.33333333333333</ele><time>2026-04-03T08:59:55Z</time></trkpt><trkpt lat="44.48651399042251" lon="8.920150789496041"><ele>87.0</ele><time>2026-04-03T08:59:56Z</time></trkpt><trkpt lat="44.48637130071453" lon="8.92004998858673"><ele>88.33333333333333</ele><time>2026-04-03T08:59:57Z</time></trkpt><trkpt lat="44.486237167531726" lon="8.919913971515905"><ele>89.66666666666666</ele><time>2026-04-03T08:59:58Z</time></trkpt><trkpt lat="44.48609011459313" lon="8.919766678070575"><ele>91.0</ele><time>2026-04-03T08:59:59Z</time></trkpt><trkpt lat="44.48591699331291" lon="8.919644686144"><ele>91.0</ele><time>2026-04-03T09:00:00Z</time></trkpt><trkpt lat="44.48571351457562" lon="8.919549056931002"><ele>91.0</ele><time>2026-04-03T09:00:01Z</time></trkpt><trkpt lat="44.48552627880937" lon="8.919462926993496"><ele>91.0</ele><time>2026-04-03T09:00:02Z</time></trkpt><trkpt lat="44.485365007737684" lon="8.919386973073411"><ele>88.33333333333333</ele><time>2026-04-03T09:00:03Z</time></trkpt><trkpt lat="44.48520291699248" lon="8.919339115434632"><ele>85.66666666666667</ele><time>2026-04-03T09:00:04Z</time></trkpt><trkpt lat="44.48502555502853" lon="8.919328847843042"><ele>83.0</ele><time>2026-04-03T09:00:05Z</time></trkpt><trkpt lat="44.48483512775977" lon="8.919371152057634"><ele>83.0</ele><time>2026-04-03T09:00:06Z</time></trkpt><trkpt lat="44.484646167989546" lon="8.919473625197282"><ele>83.0</ele><time>2026-04-03T09:00:07Z</time></trkpt><trkpt lat="44.48445583910903" lon="8.919648817354489"><ele>83.0</ele><time>2026-04-03T09:00:08Z</time></trkpt><trkpt lat="44.48428114295335" lon="8.919832752056687"><ele>85.0</ele><time>2026-04-03T09:00:09Z</time></trkpt><trkpt lat="44.484100065379415" lon="8.91994111558668"><ele>87.0</ele><time>2026-04-03T09:00:10Z</time></trkpt><trkpt lat="44.48390607169649" lon="8.919975620344935"><ele>89.0</ele><time>2026-04-03T09:00:11Z</time></trkpt><trkpt lat="44.48370825408806" lon="8.919943466857113"><ele>89.0</ele><time>2026-04-03T09:00:12Z</time></trkpt><trkpt lat="44.48351399392093" lon="8.919874698704952"><ele>89.0</ele><time>2026-04-03T09:00:13Z</time></trkpt><trkpt lat="44.483326036422085" lon="8.919755892724286"><ele>89.0</ele><time>2026-04-03T09:00:14Z</time></trkpt><trkpt lat="44.483141918054756" lon="8.919656805310858"><ele>89.0</ele><time>2026-04-03T09:00:15Z</time></trkpt><trkpt lat="44.4829635285205" lon="8.919632513835213"><ele>89.0</ele><time>2026-04-03T09:00:16Z</time></trkpt><trkpt lat="44.48277526219823" lon="8.919675023954749"><ele>89.0</ele><time>2026-04-03T09:00:17Z</time></trkpt><trkpt lat="44.4825952600561" lon="8.919762530316733"><ele>89.66666666666667</ele><time>2026-04-03T09:00:18Z</time></trkpt><trkpt lat="44.48243003783802" lon="8.919850944567425"><ele>90.33333333333333</ele><time>2026-04-03T09:00:19Z</time></trkpt><trkpt lat="44.482264633448445" lon="8.9198850078792"><ele>91.0</ele><time>2026-04-03T09:00:20Z</time></trkpt><trkpt lat="44.48209440614037" lon="8.919851221964725"><ele>88.0</ele><time>2026-04-03T09:00:21Z</time></trkpt><trkpt lat="44.481931338367545" lon="8.919777020816806"><ele>85.0</ele><time>2026-04-03T09:00:22Z</time></trkpt><trkpt lat="44.48178338109202" lon="8.919672372010298"><ele>82.0</ele><time>2026-04-03T09:00:23Z</time></trkpt><trkpt lat="44.48164680167047" lon="8.919532469623423"><ele>82.0</ele><time>2026-04-03T09:00:24Z</time></trkpt><trkpt lat="44.481516429991224" lon="8.919371877299369"><ele>82.0</ele><time>2026-04-03T09:00:25Z</time></trkpt><trkpt lat="44.48137532331146" lon="8.919225778950654"><ele>82.0</ele><time>2026-04-03T09:00:26Z</time></trkpt><trkpt lat="44.48121373690214" lon="8.919121974243252"><ele>82.0</ele><time>2026-04-03T09:00:27Z</time></trkpt><trkpt lat="44.48104920557062" lon="8.919045720421314"><ele>82.0</ele><time>2026-04-03T09:00:28Z</time></trkpt><trkpt lat="44.480896169511674" lon="8.91896917735114"><ele>82.0</ele><time>2026-04-03T09:00:29Z</time></trkpt><trkpt lat="44.48074914768884" lon="8.918889850429876"><ele>82.0</ele><time>2026-04-03T09:00:29.999Z</time></trkpt><trkpt lat="44.48060417978443" lon="8.918830189684115"><ele>82.0</ele><time>2026-04-03T09:00:30.999Z</time></trkpt><trkpt lat="44.4804478242436" lon="8.918798957846162"><ele>82.0</ele><time>2026-04-03T09:00:31.999Z</time></trkpt><trkpt lat="44.48028142998049" lon="8.918777809679789"><ele>79.33333333333333</ele><time>2026-04-03T09:00:32.999Z</time></trkpt><trkpt lat="44.48012113960583" lon="8.918754296032235"><ele>76.66666666666667</ele><time>2026-04-03T09:00:33.999Z</time></trkpt><trkpt lat="44.47997254007009" lon="8.918694816243434"><ele>74.0</ele><time>2026-04-03T09:00:34.999Z</time></trkpt><trkpt lat="44.47983224730373" lon="8.9186015712177"><ele>74.0</ele><time>2026-04-03T09:00:35.999Z</time></trkpt><trkpt lat="44.479702194606624" lon="8.918466635750782"><ele>74.0</ele><time>2026-04-03T09:00:36.999Z</time></trkpt><trkpt lat="44.47959271491097" lon="8.918300797496153"><ele>74.0</ele><time>2026-04-03T09:00:37.999Z</time></trkpt><trkpt lat="44.47950677178496" lon="8.918114269990827"><ele>74.33333333333334</ele><time>2026-04-03T09:00:38.999Z</time></trkpt><trkpt lat="44.47944498913608" lon="8.917914244693282"><ele>74.66666666666667</ele><time>2026-04-03T09:00:39.999Z</time></trkpt><trkpt lat="44.47939102892409" lon="8.917720618748158"><ele>75.0</ele><time>2026-04-03T09:00:40.999Z</time></trkpt><trkpt lat="44.47933071493448" lon="8.917528624484552"><ele>77.0</ele><time>2026-04-03T09:00:41.999Z</time></trkpt><trkpt lat="44.479244641273574" lon="8.917347584066881"><ele>79.0</ele><time>2026-04-03T09:00:42.999Z</time></trkpt><trkpt lat="44.47913488715424" lon="8.91717974246508"><ele>81.0</ele><time>2026-04-03T09:00:43.999Z</time></trkpt><trkpt lat="44.47902849086097" lon="8.917007736585424"><ele>81.0</ele><time>2026-04-03T09:00:44.999Z</time></trkpt><trkpt lat="44.478923933523056" lon="8.916828892708839"><ele>81.0</ele><time>2026-04-03T09:00:45.999Z</time></trkpt><trkpt lat="44.47882037208464" lon="8.91665598550336"><ele>81.0</ele><time>2026-04-03T09:00:46.999Z</time></trkpt><trkpt lat="44.478719793244444" lon="8.91647631481935"><ele>78.33333333333333</ele><time>2026-04-03T09:00:47.999Z</time></trkpt><trkpt lat="44.478641277425425" lon="8.916279608961927"><ele>75.66666666666666</ele><time>2026-04-03T09:00:48.999Z</time></trkpt><trkpt lat="44.47857998286911" lon="8.916061513477176"><ele>73.0</ele><time>2026-04-03T09:00:49.999Z</time></trkpt><trkpt lat="44.47852396229264" lon="8.91584525407649"><ele>73.0</ele><time>2026-04-03T09:00:50.999Z</time></trkpt><trkpt lat="44.4784637195748" lon="8.915622651475832"><ele>73.0</ele><time>2026-04-03T09:00:51.999Z</time></trkpt><trkpt lat="44.478414122416375" lon="8.915401794190258"><ele>73.0</ele><time>2026-04-03T09:00:52.999Z</time></trkpt><trkpt lat="44.478378711045075" lon="8.91517307022913"><ele>75.33333333333333</ele><time>2026-04-03T09:00:53.999Z</time></trkpt><trkpt lat="44.47836042198125" lon="8.914934880392972"><ele>77.66666666666667</ele><time>2026-04-03T09:00:54.999Z</time></trkpt><trkpt lat="44.47835543023461" lon="8.914701418096664"><ele>80.0</ele><time>2026-04-03T09:00:55.999Z</time></trkpt><trkpt lat="44.478352571137954" lon="8.914476890340065"><ele>80.0</ele><time>2026-04-03T09:00:56.999Z</time></trkpt><trkpt lat="44.47831990704052" lon="8.914249381285302"><ele>80.0</ele><time>2026-04-03T09:00:57.999Z</time></trkpt><trkpt lat="44.478252741191476" lon="8.91403806214694"><ele>80.0</ele><time>2026-04-03T09:00:58.999Z</time></trkpt><trkpt lat="44.47814884170914" lon="8.913840745460144"><ele>80.0</ele><time>2026-04-03T09:00:59.999Z</time></trkpt><trkpt lat="44.47801160164207" lon="8.91367319488264"><ele>80.0</ele><time>2026-04-03T09:01:00.999Z</time></trkpt><trkpt lat="44.47785158648183" lon="8.913516647297081"><ele>80.0</ele><time>2026-04-03T09:01:01.999Z</time></trkpt><trkpt lat="44.47767378727516" lon="8.913348716794074"><ele>79.33333333333334</ele><time>2026-04-03T09:01:02.999Z</time></trkpt><trkpt lat="44.477498818009174" lon="8.913166877830404"><ele>78.66666666666667</ele><time>2026-04-03T09:01:03.999Z</time></trkpt><trkpt lat="44.47734741026509" lon="8.91296593422079"><ele>78.0</ele><time>2026-04-03T09:01:04.999Z</time></trkpt><trkpt lat="44.47721817288039" lon="8.912760751698407"><ele>76.33333333333333</ele><time>2026-04-03T09:01:05.999Z</time></trkpt><trkpt lat="44.4770965295607" lon="8.912561242592453"><ele>74.66666666666666</ele><time>2026-04-03T09:01:06.999Z</time></trkpt><trkpt lat="44.476971745328655" lon="8.912396380792812"><ele>73.0</ele><time>2026-04-03T09:01:07.999Z</time></trkpt><trkpt lat="44.47683236034947" lon="8.912280550599615"><ele>73.0</ele><time>2026-04-03T09:01:08.999Z</time></trkpt><trkpt lat="44.47667598423837" lon="8.912204586454786"><ele>73.0</ele><time>2026-04-03T09:01:09.999Z</time></trkpt><trkpt lat="44.47649930595498" lon="8.912153409091655"><ele>73.0</ele><time>2026-04-03T09:01:10.999Z</time></trkpt><trkpt lat="44.476314424223055" lon="8.912109744672929"><ele>71.33333333333333</ele><time>2026-04-03T09:01:11.999Z</time></trkpt><trkpt lat="44.47613416990235" lon="8.912056700454881"><ele>69.66666666666667</ele><time>2026-04-03T09:01:12.999Z</time></trkpt><trkpt lat="44.47595804421275" lon="8.911987009680397"><ele>68.0</ele><time>2026-04-03T09:01:13.999Z</time></trkpt><trkpt lat="44.4757786951821" lon="8.911898147091826"><ele>68.0</ele><time>2026-04-03T09:01:14.999Z</time></trkpt><trkpt lat="44.47559685599117" lon="8.911783989723506"><ele>68.0</ele><time>2026-04-03T09:01:15.999Z</time></trkpt><trkpt lat="44.47541473040974" lon="8.911652847494654"><ele>68.0</ele><time>2026-04-03T09:01:16.999Z</time></trkpt><trkpt lat="44.47522196775829" lon="8.911513671415543"><ele>66.5</ele><time>2026-04-03T09:01:17.999Z</time></trkpt><trkpt lat="44.47501142191975" lon="8.911361700761498"><ele>65.0</ele><time>2026-04-03T09:01:18.999Z</time></trkpt><trkpt lat="44.47480216668479" lon="8.91120674713159"><ele>65.5</ele><time>2026-04-03T09:01:19.999Z</time></trkpt><trkpt lat="44.47459434518729" lon="8.911053988276775"><ele>66.0</ele><time>2026-04-03T09:01:20.999Z</time></trkpt><trkpt lat="44.4743891421312" lon="8.910901715957205"><ele>66.0</ele><time>2026-04-03T09:01:21.999Z</time></trkpt><trkpt lat="44.474194042387445" lon="8.910750324315885"><ele>66.0</ele><time>2026-04-03T09:01:22.999Z</time></trkpt><trkpt lat="44.4740013115489" lon="8.910616573979791"><ele>66.0</ele><time>2026-04-03T09:01:23.999Z</time></trkpt><trkpt lat="44.47379725994692" lon="8.910550873487145"><ele>63.66666666666667</ele><time>2026-04-03T09:01:24.999Z</time></trkpt><trkpt lat="44.47358983305074" lon="8.910541407771714"><ele>61.333333333333336</ele><time>2026-04-03T09:01:25.999Z</time></trkpt><trkpt lat="44.47336829329288" lon="8.910607229077009"><ele>59.0</ele><time>2026-04-03T09:01:26.999Z</time></trkpt><trkpt lat="44.47314979225739" lon="8.91065825114405"><ele>59.0</ele><time>2026-04-03T09:01:27.999Z</time></trkpt><trkpt lat="44.47294654550693" lon="8.910681337795465"><ele>59.0</ele><time>2026-04-03T09:01:28.999Z</time></trkpt><trkpt lat="44.4727536919519" lon="8.9107013917796"><ele>59.0</ele><time>2026-04-03T09:01:29.999Z</time></trkpt><trkpt lat="44.472572446692595" lon="8.910720314725843"><ele>59.333333333333336</ele><time>2026-04-03T09:01:31Z</time></trkpt><trkpt lat="44.47239166979807" lon="8.910739020605591"><ele>59.66666666666667</ele><time>2026-04-03T09:01:32Z</time></trkpt><trkpt lat="44.47220546764034" lon="8.910758589623441"><ele>60.0</ele><time>2026-04-03T09:01:33Z</time></trkpt><trkpt lat="44.47201692679682" lon="8.910769627239628"><ele>60.66666666666667</ele><time>2026-04-03T09:01:34Z</time></trkpt><trkpt lat="44.47182485605374" lon="8.91076648167311"><ele>61.333333333333336</ele><time>2026-04-03T09:01:35Z</time></trkpt><trkpt lat="44.471637968089304" lon="8.910739404862849"><ele>62.0</ele><time>2026-04-03T09:01:36Z</time></trkpt><trkpt lat="44.47145187843311" lon="8.910693858539146"><ele>66.33333333333334</ele><time>2026-04-03T09:01:37Z</time></trkpt><trkpt lat="44.47126990394795" lon="8.910628819400364"><ele>70.66666666666667</ele><time>2026-04-03T09:01:38Z</time></trkpt><trkpt lat="44.4710952471346" lon="8.910534080939227"><ele>75.0</ele><time>2026-04-03T09:01:39Z</time></trkpt><trkpt lat="44.47092204987321" lon="8.910422254201784"><ele>75.0</ele><time>2026-04-03T09:01:40Z</time></trkpt><trkpt lat="44.47075454537075" lon="8.910280037696156"><ele>75.0</ele><time>2026-04-03T09:01:41Z</time></trkpt><trkpt lat="44.4705852170575" lon="8.910114143031386"><ele>75.0</ele><time>2026-04-03T09:01:42Z</time></trkpt><trkpt lat="44.47042182494458" lon="8.909921068454993"><ele>75.33333333333333</ele><time>2026-04-03T09:01:43Z</time></trkpt><trkpt lat="44.47026510802958" lon="8.909719064887945"><ele>75.66666666666666</ele><time>2026-04-03T09:01:44Z</time></trkpt><trkpt lat="44.47011304265721" lon="8.909503297881104"><ele>76.0</ele><time>2026-04-03T09:01:45Z</time></trkpt><trkpt lat="44.469963476292605" lon="8.909279654897812"><ele>73.66666666666666</ele><time>2026-04-03T09:01:46Z</time></trkpt><trkpt lat="44.46980775011259" lon="8.909056133134817"><ele>71.33333333333333</ele><time>2026-04-03T09:01:47Z</time></trkpt><trkpt lat="44.46965017083962" lon="8.908837132753346"><ele>69.0</ele><time>2026-04-03T09:01:48Z</time></trkpt><trkpt lat="44.46949477116623" lon="8.908625232059128"><ele>71.33333333333333</ele><time>2026-04-03T09:01:49Z</time></trkpt><trkpt lat="44.469343653682216" lon="8.908421238032428"><ele>73.66666666666666</ele><time>2026-04-03T09:01:50Z</time></trkpt><trkpt lat="44.46919131591018" lon="8.908225688433035"><ele>76.0</ele><time>2026-04-03T09:01:51Z</time></trkpt><trkpt lat="44.469031611400304" lon="8.908058900298919"><ele>76.0</ele><time>2026-04-03T09:01:52Z</time></trkpt><trkpt lat="44.46885752771953" lon="8.907906583191238"><ele>76.0</ele><time>2026-04-03T09:01:53Z</time></trkpt><trkpt lat="44.468673732943685" lon="8.907777834638289"><ele>76.0</ele><time>2026-04-03T09:01:54Z</time></trkpt><trkpt lat="44.468484989202025" lon="8.907665670174184"><ele>75.33333333333333</ele><time>2026-04-03T09:01:55Z</time></trkpt><trkpt lat="44.468293170742136" lon="8.907573912175407"><ele>74.66666666666667</ele><time>2026-04-03T09:01:56Z</time></trkpt><trkpt lat="44.4681013477036" lon="8.907493871287587"><ele>74.0</ele><time>2026-04-03T09:01:57Z</time></trkpt><trkpt lat="44.467911436121945" lon="8.907412710561228"><ele>74.0</ele><time>2026-04-03T09:01:58Z</time></trkpt><trkpt lat="44.46772865701887" lon="8.90733520044842"><ele>74.0</ele><time>2026-04-03T09:01:59Z</time></trkpt><trkpt lat="44.46754642364517" lon="8.90725402885148"><ele>74.0</ele><time>2026-04-03T09:02:00Z</time></trkpt><trkpt lat="44.467364258768384" lon="8.907174451527089"><ele>74.0</ele><time>2026-04-03T09:02:01Z</time></trkpt><trkpt lat="44.467184478502084" lon="8.907093837256069"><ele>74.0</ele><time>2026-04-03T09:02:02Z</time></trkpt><trkpt lat="44.467003435633124" lon="8.907014278032754"><ele>74.0</ele><time>2026-04-03T09:02:03Z</time></trkpt><trkpt lat="44.46682163618679" lon="8.906937615245253"><ele>75.66666666666667</ele><time>2026-04-03T09:02:04Z</time></trkpt><trkpt lat="44.46663976702273" lon="8.906859304596999"><ele>77.33333333333333</ele><time>2026-04-03T09:02:05Z</time></trkpt><trkpt lat="44.466456823770706" lon="8.906778766342665"><ele>79.0</ele><time>2026-04-03T09:02:06Z</time></trkpt><trkpt lat="44.466276957298014" lon="8.90669654404019"><ele>79.0</ele><time>2026-04-03T09:02:07Z</time></trkpt><trkpt lat="44.466104034816475" lon="8.906617707399338"><ele>79.0</ele><time>2026-04-03T09:02:08Z</time></trkpt><trkpt lat="44.46592798097722" lon="8.90653166191823"><ele>79.0</ele><time>2026-04-03T09:02:09Z</time></trkpt><trkpt lat="44.46576196053449" lon="8.906447709774616"><ele>79.0</ele><time>2026-04-03T09:02:10Z</time></trkpt><trkpt lat="44.46559552046259" lon="8.906361504923941"><ele>79.0</ele><time>2026-04-03T09:02:11Z</time></trkpt><trkpt lat="44.46542910543692" lon="8.906273606219246"><ele>79.0</ele><time>2026-04-03T09:02:12Z</time></trkpt><trkpt lat="44.46526623338648" lon="8.906173863348556"><ele>75.0</ele><time>2026-04-03T09:02:13Z</time></trkpt><trkpt lat="44.46510867631482" lon="8.90605367768467"><ele>71.0</ele><time>2026-04-03T09:02:14Z</time></trkpt><trkpt lat="44.464956350052034" lon="8.905915920052108"><ele>67.0</ele><time>2026-04-03T09:02:15Z</time></trkpt><trkpt lat="44.46481088113787" lon="8.905763705320405"><ele>67.0</ele><time>2026-04-03T09:02:16Z</time></trkpt><trkpt lat="44.46467995795908" lon="8.905602381843806"><ele>67.0</ele><time>2026-04-03T09:02:17Z</time></trkpt><trkpt lat="44.4645571000885" lon="8.905438368599425"><ele>67.0</ele><time>2026-04-03T09:02:18Z</time></trkpt><trkpt lat="44.46443429922326" lon="8.90528171239461"><ele>68.33333333333333</ele><time>2026-04-03T09:02:19Z</time></trkpt><trkpt lat="44.46430399406837" lon="8.905141829988954"><ele>69.66666666666667</ele><time>2026-04-03T09:02:20Z</time></trkpt><trkpt lat="44.464160458355686" lon="8.905020797733535"><ele>71.0</ele><time>2026-04-03T09:02:21Z</time></trkpt><trkpt lat="44.464022625532785" lon="8.904897340409258"><ele>71.0</ele><time>2026-04-03T09:02:22Z</time></trkpt><trkpt lat="44.46390222238729" lon="8.904743229256093"><ele>71.0</ele><time>2026-04-03T09:02:23Z</time></trkpt><trkpt lat="44.46380845094856" lon="8.904562861336354"><ele>71.0</ele><time>2026-04-03T09:02:24Z</time></trkpt><trkpt lat="44.463736897726726" lon="8.904374822641067"><ele>74.75</ele><time>2026-04-03T09:02:25Z</time></trkpt><trkpt lat="44.463679183751054" lon="8.90418225033203"><ele>78.5</ele><time>2026-04-03T09:02:26Z</time></trkpt><trkpt lat="44.46362729704121" lon="8.903990575935316"><ele>82.25</ele><time>2026-04-03T09:02:27Z</time></trkpt><trkpt lat="44.46357594377148" lon="8.903808282378824"><ele>86.0</ele><time>2026-04-03T09:02:28Z</time></trkpt><trkpt lat="44.463513428439505" lon="8.903632364612212"><ele>86.0</ele><time>2026-04-03T09:02:28.999Z</time></trkpt><trkpt lat="44.463433223967705" lon="8.90347667087543"><ele>86.0</ele><time>2026-04-03T09:02:29.999Z</time></trkpt><trkpt lat="44.46333931115129" lon="8.903346794691652"><ele>86.0</ele><time>2026-04-03T09:02:30.999Z</time></trkpt><trkpt lat="44.463231064049005" lon="8.903234665429302"><ele>86.0</ele><time>2026-04-03T09:02:31.999Z</time></trkpt><trkpt lat="44.46311289670523" lon="8.903145184439293"><ele>88.0</ele><time>2026-04-03T09:02:32.999Z</time></trkpt><trkpt lat="44.46298852662743" lon="8.903072734489523"><ele>90.0</ele><time>2026-04-03T09:02:33.999Z</time></trkpt><trkpt lat="44.46285730463437" lon="8.903023152921957"><ele>92.0</ele><time>2026-04-03T09:02:34.999Z</time></trkpt><trkpt lat="44.46271795967677" lon="8.902990165690285"><ele>94.0</ele><time>2026-04-03T09:02:35.999Z</time></trkpt><trkpt lat="44.46257407972942" lon="8.902957207271772"><ele>94.0</ele><time>2026-04-03T09:02:36.999Z</time></trkpt><trkpt lat="44.46242905171376" lon="8.902923823039025"><ele>94.0</ele><time>2026-04-03T09:02:37.999Z</time></trkpt><trkpt lat="44.462283187325454" lon="8.902904813886243"><ele>94.0</ele><time>2026-04-03T09:02:38.999Z</time></trkpt><trkpt lat="44.46213650683387" lon="8.90291346041462"><ele>94.0</ele><time>2026-04-03T09:02:39.999Z</time></trkpt><trkpt lat="44.461991008807374" lon="8.902954960300152"><ele>92.0</ele><time>2026-04-03T09:02:40.999Z</time></trkpt><trkpt lat="44.46185638615718" lon="8.903030011108177"><ele>90.0</ele><time>2026-04-03T09:02:41.999Z</time></trkpt><trkpt lat="44.461744882607206" lon="8.903138350039514"><ele>88.0</ele><time>2026-04-03T09:02:42.999Z</time></trkpt><trkpt lat="44.46164038458146" lon="8.903262372457226"><ele>86.0</ele><time>2026-04-03T09:02:43.999Z</time></trkpt><trkpt lat="44.4615026761854" lon="8.903347690600901"><ele>86.0</ele><time>2026-04-03T09:02:44.999Z</time></trkpt><trkpt lat="44.46134417770303" lon="8.903401638296367"><ele>86.0</ele><time>2026-04-03T09:02:45.999Z</time></trkpt><trkpt lat="44.46119094346361" lon="8.903451142497389"><ele>86.0</ele><time>2026-04-03T09:02:46.999Z</time></trkpt><trkpt lat="44.46102668983365" lon="8.90345308181004"><ele>83.5</ele><time>2026-04-03T09:02:47.999Z</time></trkpt><trkpt lat="44.460911974215904" lon="8.903447029933336"><ele>81.0</ele><time>2026-04-03T09:02:48.999Z</time></trkpt><trkpt lat="44.46075903711801" lon="8.903370147498526"><ele>78.5</ele><time>2026-04-03T09:02:49.999Z</time></trkpt><trkpt lat="44.460624360864934" lon="8.903257001682773"><ele>76.0</ele><time>2026-04-03T09:02:50.999Z</time></trkpt><trkpt lat="44.460491082418365" lon="8.90314875314893"><ele>76.0</ele><time>2026-04-03T09:02:51.999Z</time></trkpt><trkpt lat="44.46035344039585" lon="8.90307139070575"><ele>76.0</ele><time>2026-04-03T09:02:52.999Z</time></trkpt><trkpt lat="44.460211324075544" lon="8.903044221730463"><ele>76.0</ele><time>2026-04-03T09:02:53.999Z</time></trkpt><trkpt lat="44.460067174100374" lon="8.903052105358388"><ele>76.0</ele><time>2026-04-03T09:02:54.999Z</time></trkpt><trkpt lat="44.459924927638944" lon="8.903100956055512"><ele>76.0</ele><time>2026-04-03T09:02:55.999Z</time></trkpt><trkpt lat="44.45977657954469" lon="8.90318097228545"><ele>76.0</ele><time>2026-04-03T09:02:56.999Z</time></trkpt><trkpt lat="44.45962203964982" lon="8.903276722731363"><ele>76.0</ele><time>2026-04-03T09:02:57.999Z</time></trkpt><trkpt lat="44.459451285329145" lon="8.903372960524862"><ele>80.33333333333333</ele><time>2026-04-03T09:02:58.999Z</time></trkpt><trkpt lat="44.45927250078722" lon="8.903480660120374"><ele>84.66666666666667</ele><time>2026-04-03T09:02:59.999Z</time></trkpt><trkpt lat="44.459092005922706" lon="8.903596583642113"><ele>89.0</ele><time>2026-04-03T09:03:00.999Z</time></trkpt><trkpt lat="44.458904232083974" lon="8.903705107968175"><ele>82.0</ele><time>2026-04-03T09:03:01.999Z</time></trkpt><trkpt lat="44.45870880406605" lon="8.9037981352868"><ele>75.0</ele><time>2026-04-03T09:03:02.999Z</time></trkpt><trkpt lat="44.458515028413096" lon="8.903871755565783"><ele>68.0</ele><time>2026-04-03T09:03:03.999Z</time></trkpt><trkpt lat="44.45832250278321" lon="8.903941700990341"><ele>68.0</ele><time>2026-04-03T09:03:04.999Z</time></trkpt><trkpt lat="44.45814062903789" lon="8.904013399148942"><ele>68.0</ele><time>2026-04-03T09:03:05.999Z</time></trkpt><trkpt lat="44.45796266849146" lon="8.904082493211263"><ele>68.0</ele><time>2026-04-03T09:03:06.999Z</time></trkpt><trkpt lat="44.45779063727267" lon="8.904141880920408"><ele>65.0</ele><time>2026-04-03T09:03:07.999Z</time></trkpt><trkpt lat="44.457623964147025" lon="8.904193172710999"><ele>62.0</ele><time>2026-04-03T09:03:08.999Z</time></trkpt><trkpt lat="44.4574513041016" lon="8.904228946029559"><ele>59.0</ele><time>2026-04-03T09:03:09.999Z</time></trkpt><trkpt lat="44.457269584420196" lon="8.904212061886529"><ele>57.333333333333336</ele><time>2026-04-03T09:03:10.999Z</time></trkpt><trkpt lat="44.45706982230812" lon="8.90415447773756"><ele>55.66666666666667</ele><time>2026-04-03T09:03:11.999Z</time></trkpt><trkpt lat="44.456863717536066" lon="8.904082460291098"><ele>54.0</ele><time>2026-04-03T09:03:12.999Z</time></trkpt><trkpt lat="44.45666310706389" lon="8.90403971521882"><ele>54.0</ele><time>2026-04-03T09:03:13.999Z</time></trkpt><trkpt lat="44.45647934105005" lon="8.903972823617304"><ele>54.0</ele><time>2026-04-03T09:03:14.999Z</time></trkpt><trkpt lat="44.456280720650696" lon="8.903904456666993"><ele>54.0</ele><time>2026-04-03T09:03:15.999Z</time></trkpt><trkpt lat="44.45608507440784" lon="8.903867008845852"><ele>54.66666666666667</ele><time>2026-04-03T09:03:16.999Z</time></trkpt><trkpt lat="44.45590697282452" lon="8.903813078473089"><ele>55.333333333333336</ele><time>2026-04-03T09:03:17.999Z</time></trkpt><trkpt lat="44.455734950712774" lon="8.903754727817411"><ele>56.0</ele><time>2026-04-03T09:03:18.999Z</time></trkpt><trkpt lat="44.45557707399101" lon="8.90368856001048"><ele>63.0</ele><time>2026-04-03T09:03:19.999Z</time></trkpt><trkpt lat="44.45543476915333" lon="8.903599518858448"><ele>70.0</ele><time>2026-04-03T09:03:20.999Z</time></trkpt><trkpt lat="44.45530810915139" lon="8.903446117239891"><ele>77.0</ele><time>2026-04-03T09:03:21.999Z</time></trkpt><trkpt lat="44.45519526597651" lon="8.90324572954778"><ele>77.0</ele><time>2026-04-03T09:03:22.999Z</time></trkpt><trkpt lat="44.455110630367244" lon="8.903028765320991"><ele>77.0</ele><time>2026-04-03T09:03:23.999Z</time></trkpt><trkpt lat="44.45505532622983" lon="8.902790320338479"><ele>77.0</ele><time>2026-04-03T09:03:24.999Z</time></trkpt><trkpt lat="44.45501769111689" lon="8.902537014121624"><ele>73.33333333333334</ele><time>2026-04-03T09:03:25.999Z</time></trkpt><trkpt lat="44.45497756640678" lon="8.902286772313431"><ele>69.66666666666667</ele><time>2026-04-03T09:03:26.999Z</time></trkpt><trkpt lat="44.45493195721483" lon="8.902038279182396"><ele>66.0</ele><time>2026-04-03T09:03:27.999Z</time></trkpt><trkpt lat="44.45487934695859" lon="8.90179264188798"><ele>62.66666666666667</ele><time>2026-04-03T09:03:28.999Z</time></trkpt><trkpt lat="44.454826053010805" lon="8.901545898685438"><ele>59.333333333333336</ele><time>2026-04-03T09:03:29.999Z</time></trkpt><trkpt lat="44.4547781821691" lon="8.901295573094135"><ele>56.0</ele><time>2026-04-03T09:03:30.999Z</time></trkpt><trkpt lat="44.454737674885806" lon="8.901043784369474"><ele>53.66666666666667</ele><time>2026-04-03T09:03:31.999Z</time></trkpt><trkpt lat="44.45471368714574" lon="8.900797497833466"><ele>51.33333333333333</ele><time>2026-04-03T09:03:32.999Z</time></trkpt><trkpt lat="44.4547181368317" lon="8.900546040225406"><ele>49.0</ele><time>2026-04-03T09:03:33.999Z</time></trkpt><trkpt lat="44.454747259445206" lon="8.900299449267372"><ele>49.0</ele><time>2026-04-03T09:03:34.999Z</time></trkpt><trkpt lat="44.45478095477294" lon="8.900057331104708"><ele>49.0</ele><time>2026-04-03T09:03:35.999Z</time></trkpt><trkpt lat="44.45479790628246" lon="8.89981846585742"><ele>49.0</ele><time>2026-04-03T09:03:37Z</time></trkpt><trkpt lat="44.45479719573834" lon="8.899585695277723"><ele>49.0</ele><time>2026-04-03T09:03:38Z</time></trkpt><trkpt lat="44.454770325272825" lon="8.89935915451578"><ele>49.0</ele><time>2026-04-03T09:03:39Z</time></trkpt><trkpt lat="44.45471051299483" lon="8.899141894505156"><ele>49.0</ele><time>2026-04-03T09:03:40Z</time></trkpt><trkpt lat="44.454628680153995" lon="8.898933191384835"><ele>50.666666666666664</ele><time>2026-04-03T09:03:41Z</time></trkpt><trkpt lat="44.45452461518002" lon="8.898741191601662"><ele>52.33333333333333</ele><time>2026-04-03T09:03:42Z</time></trkpt><trkpt lat="44.45440880603049" lon="8.898558825396066"><ele>54.0</ele><time>2026-04-03T09:03:43Z</time></trkpt><trkpt lat="44.45429048617398" lon="8.898392908410127"><ele>54.0</ele><time>2026-04-03T09:03:44Z</time></trkpt><trkpt lat="44.454174625709335" lon="8.898213576103979"><ele>54.0</ele><time>2026-04-03T09:03:45Z</time></trkpt><trkpt lat="44.454065087880274" lon="8.898031254059529"><ele>54.0</ele><time>2026-04-03T09:03:46Z</time></trkpt><trkpt lat="44.45395159244897" lon="8.897848736439354"><ele>54.0</ele><time>2026-04-03T09:03:47Z</time></trkpt><trkpt lat="44.45383738288115" lon="8.89767740252252"><ele>54.0</ele><time>2026-04-03T09:03:48Z</time></trkpt><trkpt lat="44.45372451490992" lon="8.897495879531762"><ele>54.0</ele><time>2026-04-03T09:03:49Z</time></trkpt><trkpt lat="44.45361193296099" lon="8.897319443685472"><ele>51.666666666666664</ele><time>2026-04-03T09:03:50Z</time></trkpt><trkpt lat="44.45350289338012" lon="8.897144922561859"><ele>49.33333333333333</ele><time>2026-04-03T09:03:51Z</time></trkpt><trkpt lat="44.45339203712854" lon="8.896972662523437"><ele>47.0</ele><time>2026-04-03T09:03:52Z</time></trkpt><trkpt lat="44.45328394887059" lon="8.896799563101794"><ele>47.5</ele><time>2026-04-03T09:03:53Z</time></trkpt><trkpt lat="44.45318148830281" lon="8.896636481222403"><ele>48.0</ele><time>2026-04-03T09:03:54Z</time></trkpt><trkpt lat="44.45307804800989" lon="8.896479568191562"><ele>48.5</ele><time>2026-04-03T09:03:55Z</time></trkpt><trkpt lat="44.45297652363266" lon="8.89634108614099"><ele>49.0</ele><time>2026-04-03T09:03:56Z</time></trkpt><trkpt lat="44.45287231672065" lon="8.896218969739403"><ele>51.0</ele><time>2026-04-03T09:03:57Z</time></trkpt><trkpt lat="44.4527571814912" lon="8.896114313740474"><ele>53.0</ele><time>2026-04-03T09:03:58Z</time></trkpt><trkpt lat="44.45263723306576" lon="8.896021219600902"><ele>55.0</ele><time>2026-04-03T09:03:59Z</time></trkpt><trkpt lat="44.45251292694584" lon="8.89593058563476"><ele>57.0</ele><time>2026-04-03T09:04:00Z</time></trkpt><trkpt lat="44.45239035700446" lon="8.89584293236228"><ele>57.0</ele><time>2026-04-03T09:04:01Z</time></trkpt><trkpt lat="44.45227641234335" lon="8.89574989896536"><ele>57.0</ele><time>2026-04-03T09:04:02Z</time></trkpt><trkpt lat="44.452155761068674" lon="8.895670189918564"><ele>57.0</ele><time>2026-04-03T09:04:03Z</time></trkpt><trkpt lat="44.45202024025358" lon="8.895617816116019"><ele>57.0</ele><time>2026-04-03T09:04:04Z</time></trkpt><trkpt lat="44.45185438941755" lon="8.895594500291068"><ele>59.33333333333333</ele><time>2026-04-03T09:04:05Z</time></trkpt><trkpt lat="44.45167839410058" lon="8.895592738256514"><ele>61.666666666666664</ele><time>2026-04-03T09:04:06Z</time></trkpt><trkpt lat="44.45150043778321" lon="8.895657144145682"><ele>64.0</ele><time>2026-04-03T09:04:07Z</time></trkpt><trkpt lat="44.451340506312924" lon="8.895769738537425"><ele>64.66666666666666</ele><time>2026-04-03T09:04:08Z</time></trkpt><trkpt lat="44.451173984226166" lon="8.895873860768381"><ele>65.33333333333333</ele><time>2026-04-03T09:04:09Z</time></trkpt><trkpt lat="44.45100127881804" lon="8.89593813284776"><ele>66.0</ele><time>2026-04-03T09:04:10Z</time></trkpt><trkpt lat="44.450836916008846" lon="8.896008383266894"><ele>66.0</ele><time>2026-04-03T09:04:11Z</time></trkpt><trkpt lat="44.45067069543831" lon="8.896073946919698"><ele>66.0</ele><time>2026-04-03T09:04:12Z</time></trkpt><trkpt lat="44.45051372547598" lon="8.896099776807304"><ele>66.0</ele><time>2026-04-03T09:04:13Z</time></trkpt><trkpt lat="44.45036359922388" lon="8.896061414495193"><ele>67.33333333333333</ele><time>2026-04-03T09:04:14Z</time></trkpt><trkpt lat="44.45021069138184" lon="8.89603515008072"><ele>68.66666666666666</ele><time>2026-04-03T09:04:15Z</time></trkpt><trkpt lat="44.45006050172553" lon="8.896037286473925"><ele>70.0</ele><time>2026-04-03T09:04:16Z</time></trkpt><trkpt lat="44.44990226106784" lon="8.896064782378637"><ele>70.0</ele><time>2026-04-03T09:04:17Z</time></trkpt><trkpt lat="44.44974201397882" lon="8.896133788622688"><ele>70.0</ele><time>2026-04-03T09:04:18Z</time></trkpt><trkpt lat="44.44958698498016" lon="8.896238877125453"><ele>70.0</ele><time>2026-04-03T09:04:19Z</time></trkpt><trkpt lat="44.44942008648187" lon="8.896346749141445"><ele>68.0</ele><time>2026-04-03T09:04:20Z</time></trkpt><trkpt lat="44.44925127601509" lon="8.89644205057942"><ele>66.0</ele><time>2026-04-03T09:04:21Z</time></trkpt><trkpt lat="44.449079979340475" lon="8.89655758070089"><ele>64.0</ele><time>2026-04-03T09:04:22Z</time></trkpt><trkpt lat="44.44890846622886" lon="8.896681783549086"><ele>70.33333333333333</ele><time>2026-04-03T09:04:23Z</time></trkpt><trkpt lat="44.448736371629806" lon="8.896811020581783"><ele>76.66666666666667</ele><time>2026-04-03T09:04:24Z</time></trkpt><trkpt lat="44.44856136889915" lon="8.896946923644613"><ele>83.0</ele><time>2026-04-03T09:04:25Z</time></trkpt><trkpt lat="44.44838847848563" lon="8.89707963362499"><ele>83.0</ele><time>2026-04-03T09:04:26Z</time></trkpt><trkpt lat="44.44821869861971" lon="8.897207150014301"><ele>83.0</ele><time>2026-04-03T09:04:27Z</time></trkpt><trkpt lat="44.44804937573556" lon="8.897326118423438"><ele>83.0</ele><time>2026-04-03T09:04:28Z</time></trkpt><trkpt lat="44.447879681018094" lon="8.897441036093056"><ele>82.0</ele><time>2026-04-03T09:04:29Z</time></trkpt><trkpt lat="44.44771980546255" lon="8.89755497650021"><ele>81.0</ele><time>2026-04-03T09:04:30Z</time></trkpt><trkpt lat="44.44755185254844" lon="8.89767206007386"><ele>80.0</ele><time>2026-04-03T09:04:30.999Z</time></trkpt><trkpt lat="44.44738115585606" lon="8.897797812877657"><ele>83.66666666666667</ele><time>2026-04-03T09:04:31.999Z</time></trkpt><trkpt lat="44.44721495560575" lon="8.897917525253797"><ele>87.33333333333333</ele><time>2026-04-03T09:04:32.999Z</time></trkpt><trkpt lat="44.447058753435655" lon="8.898056256368553"><ele>91.0</ele><time>2026-04-03T09:04:33.999Z</time></trkpt><trkpt lat="44.44689858351686" lon="8.898182416022264"><ele>103.0</ele><time>2026-04-03T09:04:34.999Z</time></trkpt><trkpt lat="44.4466815658715" lon="8.898455394880845"><ele>115.0</ele><time>2026-04-03T09:04:35.999Z</time></trkpt><trkpt lat="44.44651512149554" lon="8.898586740842395"><ele>115.0</ele><time>2026-04-03T09:04:36.999Z</time></trkpt><trkpt lat="44.446349091200425" lon="8.89871831060059"><ele>115.0</ele><time>2026-04-03T09:04:37.999Z</time></trkpt><trkpt lat="44.4461822009956" lon="8.89884609331723"><ele>115.0</ele><time>2026-04-03T09:04:38.999Z</time></trkpt><trkpt lat="44.44601700906028" lon="8.898977707855828"><ele>115.66666666666667</ele><time>2026-04-03T09:04:39.999Z</time></trkpt><trkpt lat="44.445860579805306" lon="8.89913790133285"><ele>116.33333333333334</ele><time>2026-04-03T09:04:40.999Z</time></trkpt><trkpt lat="44.4457029060279" lon="8.899318160099822"><ele>117.0</ele><time>2026-04-03T09:04:41.999Z</time></trkpt><trkpt lat="44.44555178169809" lon="8.899518673769254"><ele>117.66666666666666</ele><time>2026-04-03T09:04:42.999Z</time></trkpt><trkpt lat="44.445412075133405" lon="8.89974312449062"><ele>118.33333333333333</ele><time>2026-04-03T09:04:43.999Z</time></trkpt><trkpt lat="44.44529954599033" lon="8.899980774320088"><ele>119.0</ele><time>2026-04-03T09:04:44.999Z</time></trkpt><trkpt lat="44.445186064763" lon="8.900230213871646"><ele>116.33333333333333</ele><time>2026-04-03T09:04:45.999Z</time></trkpt><trkpt lat="44.445090061119316" lon="8.900484090881015"><ele>113.66666666666666</ele><time>2026-04-03T09:04:46.999Z</time></trkpt><trkpt lat="44.4449962937644" lon="8.900734579405876"><ele>111.0</ele><time>2026-04-03T09:04:47.999Z</time></trkpt><trkpt lat="44.44492088282979" lon="8.900996684188328"><ele>105.66666666666667</ele><time>2026-04-03T09:04:48.999Z</time></trkpt><trkpt lat="44.44485748892849" lon="8.901269305781883"><ele>100.33333333333334</ele><time>2026-04-03T09:04:49.999Z</time></trkpt><trkpt lat="44.444815885734556" lon="8.901556304456184"><ele>95.0</ele><time>2026-04-03T09:04:50.999Z</time></trkpt><trkpt lat="44.44479200831457" lon="8.901826210703907"><ele>94.0</ele><time>2026-04-03T09:04:51.999Z</time></trkpt><trkpt lat="44.44477880241706" lon="8.902102971637083"><ele>93.0</ele><time>2026-04-03T09:04:52.999Z</time></trkpt><trkpt lat="44.444782994038604" lon="8.902392377436732"><ele>92.0</ele><time>2026-04-03T09:04:53.999Z</time></trkpt><trkpt lat="44.44480780971321" lon="8.902888055500338"><ele>92.0</ele><time>2026-04-03T09:04:54.999Z</time></trkpt><trkpt lat="44.44482043286168" lon="8.90321590667169"><ele>92.0</ele><time>2026-04-03T09:04:55.999Z</time></trkpt><trkpt lat="44.44486531953739" lon="8.903508508449441"><ele>92.0</ele><time>2026-04-03T09:04:56.999Z</time></trkpt><trkpt lat="44.4449305472804" lon="8.903788567150405"><ele>87.33333333333334</ele><time>2026-04-03T09:04:57.999Z</time></trkpt><trkpt lat="44.444994765683504" lon="8.904066901340908"><ele>82.66666666666667</ele><time>2026-04-03T09:04:58.999Z</time></trkpt><trkpt lat="44.445063501221654" lon="8.904361554376194"><ele>78.0</ele><time>2026-04-03T09:04:59.999Z</time></trkpt><trkpt lat="44.445130222918" lon="8.904652404333868"><ele>75.0</ele><time>2026-04-03T09:05:00.999Z</time></trkpt><trkpt lat="44.4451943908592" lon="8.90493799705212"><ele>72.0</ele><time>2026-04-03T09:05:01.999Z</time></trkpt><trkpt lat="44.445252891371375" lon="8.905231364903699"><ele>69.0</ele><time>2026-04-03T09:05:02.999Z</time></trkpt><trkpt lat="44.44530118715854" lon="8.905520776202902"><ele>66.0</ele><time>2026-04-03T09:05:03.999Z</time></trkpt><trkpt lat="44.44534438478633" lon="8.90578576469914"><ele>63.0</ele><time>2026-04-03T09:05:04.999Z</time></trkpt><trkpt lat="44.44539333915531" lon="8.906070026960178"><ele>60.0</ele><time>2026-04-03T09:05:05.999Z</time></trkpt><trkpt lat="44.445440116275165" lon="8.90635575314656"><ele>68.0</ele><time>2026-04-03T09:05:06.999Z</time></trkpt><trkpt lat="44.44548372236599" lon="8.906641851611353"><ele>76.0</ele><time>2026-04-03T09:05:07.999Z</time></trkpt><trkpt lat="44.445519297345314" lon="8.90692498385779"><ele>84.0</ele><time>2026-04-03T09:05:08.999Z</time></trkpt><trkpt lat="44.44555227909367" lon="8.9072062838898"><ele>83.66666666666667</ele><time>2026-04-03T09:05:09.999Z</time></trkpt><trkpt lat="44.44558254731605" lon="8.907492099915187"><ele>83.33333333333334</ele><time>2026-04-03T09:05:10.999Z</time></trkpt><trkpt lat="44.445607577661725" lon="8.907781498555424"><ele>83.0</ele><time>2026-04-03T09:05:11.999Z</time></trkpt><trkpt lat="44.44563794815424" lon="8.908063278610262"><ele>83.0</ele><time>2026-04-03T09:05:12.999Z</time></trkpt><trkpt lat="44.445669086836816" lon="8.908345833760476"><ele>83.0</ele><time>2026-04-03T09:05:13.999Z</time></trkpt><trkpt lat="44.44568981338034" lon="8.908629881241433"><ele>83.0</ele><time>2026-04-03T09:05:14.999Z</time></trkpt><trkpt lat="44.44569041490347" lon="8.908952028721593"><ele>84.66666666666667</ele><time>2026-04-03T09:05:15.999Z</time></trkpt><trkpt lat="44.445691886167104" lon="8.90924817068366"><ele>86.33333333333333</ele><time>2026-04-03T09:05:16.999Z</time></trkpt><trkpt lat="44.44568360795125" lon="8.909547518207852"><ele>88.0</ele><time>2026-04-03T09:05:17.999Z</time></trkpt><trkpt lat="44.44566374498617" lon="8.909847251590502"><ele>89.0</ele><time>2026-04-03T09:05:18.999Z</time></trkpt><trkpt lat="44.445639136040086" lon="8.910145344756497"><ele>90.0</ele><time>2026-04-03T09:05:19.999Z</time></trkpt><trkpt lat="44.445620104119065" lon="8.910440407463671"><ele>91.0</ele><time>2026-04-03T09:05:20.999Z</time></trkpt><trkpt lat="44.44560368395234" lon="8.910738635953198"><ele>92.33333333333333</ele><time>2026-04-03T09:05:21.999Z</time></trkpt><trkpt lat="44.445587490696134" lon="8.911036550177991"><ele>93.66666666666667</ele><time>2026-04-03T09:05:22.999Z</time></trkpt><trkpt lat="44.44557089599395" lon="8.911335084100342"><ele>95.0</ele><time>2026-04-03T09:05:23.999Z</time></trkpt><trkpt lat="44.44555466324072" lon="8.91163056867723"><ele>95.66666666666667</ele><time>2026-04-03T09:05:24.999Z</time></trkpt><trkpt lat="44.44553608191621" lon="8.91192474762801"><ele>96.33333333333334</ele><time>2026-04-03T09:05:25.999Z</time></trkpt><trkpt lat="44.44551623546985" lon="8.912221062554426"><ele>97.0</ele><time>2026-04-03T09:05:26.999Z</time></trkpt><trkpt lat="44.4454996734799" lon="8.912522911641368"><ele>99.66666666666667</ele><time>2026-04-03T09:05:27.999Z</time></trkpt><trkpt lat="44.445485178247885" lon="8.912820829037138"><ele>102.33333333333334</ele><time>2026-04-03T09:05:28.999Z</time></trkpt><trkpt lat="44.44547419446372" lon="8.913124002564315"><ele>105.0</ele><time>2026-04-03T09:05:29.999Z</time></trkpt><trkpt lat="44.4454686497493" lon="8.913428805217038"><ele>106.0</ele><time>2026-04-03T09:05:30.999Z</time></trkpt><trkpt lat="44.445469350366935" lon="8.913736869943044"><ele>107.0</ele><time>2026-04-03T09:05:31.999Z</time></trkpt><trkpt lat="44.44547506456136" lon="8.914046096645679"><ele>108.0</ele><time>2026-04-03T09:05:32.999Z</time></trkpt><trkpt lat="44.445487153151674" lon="8.914358436232861"><ele>105.0</ele><time>2026-04-03T09:05:33.999Z</time></trkpt><trkpt lat="44.445508528888595" lon="8.914672862436886"><ele>102.0</ele><time>2026-04-03T09:05:34.999Z</time></trkpt><trkpt lat="44.44553920751592" lon="8.914986810419137"><ele>103.5</ele><time>2026-04-03T09:05:35.999Z</time></trkpt><trkpt lat="44.44557414679396" lon="8.91530893161339"><ele>105.0</ele><time>2026-04-03T09:05:36.999Z</time></trkpt><trkpt lat="44.44561750290012" lon="8.915625492676545"><ele>107.0</ele><time>2026-04-03T09:05:37.999Z</time></trkpt><trkpt lat="44.445666757651026" lon="8.915941421008267"><ele>109.0</ele><time>2026-04-03T09:05:38.999Z</time></trkpt><trkpt lat="44.4457237340897" lon="8.916257341543535"><ele>109.0</ele><time>2026-04-03T09:05:39.999Z</time></trkpt><trkpt lat="44.44578393678503" lon="8.916571125399361"><ele>109.0</ele><time>2026-04-03T09:05:40.999Z</time></trkpt><trkpt lat="44.44584583339332" lon="8.916883247428592"><ele>108.5</ele><time>2026-04-03T09:05:41.999Z</time></trkpt><trkpt lat="44.44590647568308" lon="8.91719439389183"><ele>108.0</ele><time>2026-04-03T09:05:43Z</time></trkpt><trkpt lat="44.44596714877326" lon="8.917503858348011"><ele>109.33333333333334</ele><time>2026-04-03T09:05:44Z</time></trkpt><trkpt lat="44.44602712995568" lon="8.917808818332635"><ele>110.66666666666667</ele><time>2026-04-03T09:05:45Z</time></trkpt><trkpt lat="44.44608198579975" lon="8.918110951074661"><ele>112.0</ele><time>2026-04-03T09:05:46Z</time></trkpt><trkpt lat="44.44612466847676" lon="8.918411028304288"><ele>112.33333333333334</ele><time>2026-04-03T09:05:47Z</time></trkpt><trkpt lat="44.44614996275549" lon="8.918713668079475"><ele>112.66666666666666</ele><time>2026-04-03T09:05:48Z</time></trkpt><trkpt lat="44.446155987129075" lon="8.919015559409592"><ele>113.0</ele><time>2026-04-03T09:05:49Z</time></trkpt><trkpt lat="44.446143859617955" lon="8.919312232667915"><ele>114.66666666666666</ele><time>2026-04-03T09:05:50Z</time></trkpt><trkpt lat="44.44611318022229" lon="8.919604827246966"><ele>116.33333333333334</ele><time>2026-04-03T09:05:51Z</time></trkpt><trkpt lat="44.446070254884525" lon="8.919893960659634"><ele>118.0</ele><time>2026-04-03T09:05:52Z</time></trkpt><trkpt lat="44.44601677159433" lon="8.920179312541707"><ele>121.33333333333334</ele><time>2026-04-03T09:05:53Z</time></trkpt><trkpt lat="44.44594591574525" lon="8.920457637478647"><ele>124.66666666666666</ele><time>2026-04-03T09:05:54Z</time></trkpt><trkpt lat="44.445861227851154" lon="8.920728745832996"><ele>128.0</ele><time>2026-04-03T09:05:55Z</time></trkpt><trkpt lat="44.44576674796814" lon="8.92099559344238"><ele>132.66666666666666</ele><time>2026-04-03T09:05:56Z</time></trkpt><trkpt lat="44.445666689215976" lon="8.921256787342976"><ele>137.33333333333334</ele><time>2026-04-03T09:05:57Z</time></trkpt><trkpt lat="44.44556995294679" lon="8.921513791508442"><ele>142.0</ele><time>2026-04-03T09:05:58Z</time></trkpt><trkpt lat="44.44548060822548" lon="8.92175988276058"><ele>157.33333333333334</ele><time>2026-04-03T09:05:59Z</time></trkpt><trkpt lat="44.44538423949856" lon="8.922008935824701"><ele>172.66666666666666</ele><time>2026-04-03T09:06:00Z</time></trkpt><trkpt lat="44.44529067961448" lon="8.922254503234806"><ele>188.0</ele><time>2026-04-03T09:06:01Z</time></trkpt><trkpt lat="44.44519460471038" lon="8.922506376458653"><ele>191.0</ele><time>2026-04-03T09:06:02Z</time></trkpt><trkpt lat="44.44510117006198" lon="8.922748000244674"><ele>194.0</ele><time>2026-04-03T09:06:03Z</time></trkpt><trkpt lat="44.445003008504216" lon="8.922992327503353"><ele>197.0</ele><time>2026-04-03T09:06:04Z</time></trkpt><trkpt lat="44.4449112101572" lon="8.92323780500456"><ele>231.0</ele><time>2026-04-03T09:06:05Z</time></trkpt><trkpt lat="44.44455678470849" lon="8.923845028154181"><ele>231.0</ele><time>2026-04-03T09:06:06Z</time></trkpt><trkpt lat="44.444422134430525" lon="8.924158200282204"><ele>231.0</ele><time>2026-04-03T09:06:07Z</time></trkpt><trkpt lat="44.44428727846543" lon="8.9244699832141"><ele>235.5</ele><time>2026-04-03T09:06:08Z</time></trkpt><trkpt lat="44.4441503473132" lon="8.924780692630348"><ele>240.0</ele><time>2026-04-03T09:06:09Z</time></trkpt><trkpt lat="44.44400980959666" lon="8.92510014760796"><ele>245.0</ele><time>2026-04-03T09:06:10Z</time></trkpt><trkpt lat="44.44386745340059" lon="8.925426624399815"><ele>250.0</ele><time>2026-04-03T09:06:11Z</time></trkpt><trkpt lat="44.44372342395979" lon="8.925755971947462"><ele>262.0</ele><time>2026-04-03T09:06:12Z</time></trkpt><trkpt lat="44.443580432033" lon="8.926079165193437"><ele>274.0</ele><time>2026-04-03T09:06:13Z</time></trkpt><trkpt lat="44.44343936764766" lon="8.926403759366295"><ele>284.0</ele><time>2026-04-03T09:06:14Z</time></trkpt><trkpt lat="44.443298940314094" lon="8.926727804053655"><ele>294.0</ele><time>2026-04-03T09:06:15Z</time></trkpt><trkpt lat="44.4431579232936" lon="8.927047778451154"><ele>294.0</ele><time>2026-04-03T09:06:16Z</time></trkpt><trkpt lat="44.443016112673334" lon="8.927366527843184"><ele>294.0</ele><time>2026-04-03T09:06:17Z</time></trkpt><trkpt lat="44.44287482722171" lon="8.927687169483903"><ele>321.5</ele><time>2026-04-03T09:06:18Z</time></trkpt><trkpt lat="44.44273371364596" lon="8.928004723887083"><ele>349.0</ele><time>2026-04-03T09:06:19Z</time></trkpt><trkpt lat="44.44259345031484" lon="8.928322464943559"><ele>366.0</ele><time>2026-04-03T09:06:20Z</time></trkpt><trkpt lat="44.442455029815754" lon="8.928640370474472"><ele>383.0</ele><time>2026-04-03T09:06:21Z</time></trkpt><trkpt lat="44.442316989101826" lon="8.928956267038005"><ele>396.5</ele><time>2026-04-03T09:06:22Z</time></trkpt><trkpt lat="44.4421775598955" lon="8.929271466452697"><ele>410.0</ele><time>2026-04-03T09:06:23Z</time></trkpt><trkpt lat="44.44203881942949" lon="8.929584479073672"><ele>427.5</ele><time>2026-04-03T09:06:24Z</time></trkpt><trkpt lat="44.441893426085045" lon="8.929891956578587"><ele>445.0</ele><time>2026-04-03T09:06:25Z</time></trkpt><trkpt lat="44.441750676531775" lon="8.930201071350172"><ele>460.5</ele><time>2026-04-03T09:06:26Z</time></trkpt><trkpt lat="44.441619752114285" lon="8.93050207126287"><ele>476.0</ele><time>2026-04-03T09:06:27Z</time></trkpt><trkpt lat="44.44148266686772" lon="8.930806538706426"><ele>477.5</ele><time>2026-04-03T09:06:28Z</time></trkpt><trkpt lat="44.44134400129442" lon="8.9311117894554"><ele>479.0</ele><time>2026-04-03T09:06:29Z</time></trkpt><trkpt lat="44.44122534880626" lon="8.931431295658053"><ele>451.5</ele><time>2026-04-03T09:06:30Z</time></trkpt><trkpt lat="44.4410947007802" lon="8.931736863299724"><ele>424.0</ele><time>2026-04-03T09:06:31Z</time></trkpt><trkpt lat="44.44096585965138" lon="8.932037597560505"><ele>424.0</ele><time>2026-04-03T09:06:32Z</time></trkpt><trkpt lat="44.44083476273988" lon="8.932343287327969"><ele>424.0</ele><time>2026-04-03T09:06:33.018Z</time></trkpt><trkpt lat="44.43985092976492" lon="8.93481722356175"><ele>286.0</ele><time>2026-04-03T09:06:36.68Z</time></trkpt><trkpt lat="44.43943535250915" lon="8.935788428180128"><ele>202.0</ele><time>2026-04-03T09:06:37.681Z</time></trkpt><trkpt lat="44.43901722944749" lon="8.936759631017113"><ele>186.0</ele><time>2026-04-03T09:06:38.683Z</time></trkpt><trkpt lat="44.438601163502774" lon="8.937729647809258"><ele>158.0</ele><time>2026-04-03T09:06:39.683Z</time></trkpt><trkpt lat="44.438186364335806" lon="8.938697728582873"><ele>147.0</ele><time>2026-04-03T09:06:40.681Z</time></trkpt><trkpt lat="44.437717949923055" lon="8.939538334019934"><ele>147.0</ele><time>2026-04-03T09:06:54.999Z</time></trkpt><trkpt lat="44.437615439062036" lon="8.939854703255047"><ele>147.0</ele><time>2026-04-03T09:06:55.999Z</time></trkpt><trkpt lat="44.43748877335405" lon="8.940184207856705"><ele>146.0</ele><time>2026-04-03T09:06:56.999Z</time></trkpt><trkpt lat="44.43737442645753" lon="8.940487671302357"><ele>145.0</ele><time>2026-04-03T09:06:57.999Z</time></trkpt><trkpt lat="44.437256581154294" lon="8.94080704260755"><ele>141.5</ele><time>2026-04-03T09:06:58.999Z</time></trkpt><trkpt lat="44.437144096825584" lon="8.941128366122296"><ele>138.0</ele><time>2026-04-03T09:06:59.999Z</time></trkpt><trkpt lat="44.437050383078265" lon="8.941461142376744"><ele>135.5</ele><time>2026-04-03T09:07:00.999Z</time></trkpt><trkpt lat="44.43697449715794" lon="8.941808435166239"><ele>133.0</ele><time>2026-04-03T09:07:01.999Z</time></trkpt><trkpt lat="44.43692840172093" lon="8.94216831274638"><ele>133.0</ele><time>2026-04-03T09:07:02.999Z</time></trkpt><trkpt lat="44.43691392266097" lon="8.94253324057342"><ele>133.0</ele><time>2026-04-03T09:07:03.999Z</time></trkpt><trkpt lat="44.43691419086821" lon="8.942896534155512"><ele>130.5</ele><time>2026-04-03T09:07:04.999Z</time></trkpt><trkpt lat="44.43692439020774" lon="8.943255108196828"><ele>128.0</ele><time>2026-04-03T09:07:05.999Z</time></trkpt><trkpt lat="44.43693866627645" lon="8.943612809541593"><ele>126.0</ele><time>2026-04-03T09:07:06.999Z</time></trkpt><trkpt lat="44.43695403519073" lon="8.943962954551463"><ele>124.0</ele><time>2026-04-03T09:07:07.999Z</time></trkpt><trkpt lat="44.43696880068962" lon="8.944312587066666"><ele>121.5</ele><time>2026-04-03T09:07:08.999Z</time></trkpt><trkpt lat="44.436982780749986" lon="8.944659041735628"><ele>119.0</ele><time>2026-04-03T09:07:09.999Z</time></trkpt><trkpt lat="44.43699932349774" lon="8.94500696252753"><ele>114.5</ele><time>2026-04-03T09:07:10.999Z</time></trkpt><trkpt lat="44.43701845623115" lon="8.945342267244687"><ele>110.0</ele><time>2026-04-03T09:07:11.999Z</time></trkpt><trkpt lat="44.43703884014808" lon="8.945670066683245"><ele>101.5</ele><time>2026-04-03T09:07:12.999Z</time></trkpt><trkpt lat="44.437056749642636" lon="8.945994503881215"><ele>93.0</ele><time>2026-04-03T09:07:13.999Z</time></trkpt><trkpt lat="44.437072038778695" lon="8.946320367668129"><ele>93.0</ele><time>2026-04-03T09:07:14.999Z</time></trkpt><trkpt lat="44.43708737658602" lon="8.946649148303663"><ele>93.0</ele><time>2026-04-03T09:07:15.999Z</time></trkpt><trkpt lat="44.43710337363689" lon="8.94697234115105"><ele>86.5</ele><time>2026-04-03T09:07:16.999Z</time></trkpt><trkpt lat="44.43711709010974" lon="8.94729803162035"><ele>80.0</ele><time>2026-04-03T09:07:17.999Z</time></trkpt><trkpt lat="44.437131119685674" lon="8.947625289060777"><ele>91.0</ele><time>2026-04-03T09:07:18.999Z</time></trkpt><trkpt lat="44.43714179866332" lon="8.947950901995474"><ele>102.0</ele><time>2026-04-03T09:07:19.999Z</time></trkpt><trkpt lat="44.43715120776915" lon="8.948277400595215"><ele>114.0</ele><time>2026-04-03T09:07:20.999Z</time></trkpt><trkpt lat="44.43715644539387" lon="8.948606527807602"><ele>126.0</ele><time>2026-04-03T09:07:21.999Z</time></trkpt><trkpt lat="44.437153630002506" lon="8.948936540467416"><ele>153.0</ele><time>2026-04-03T09:07:22.999Z</time></trkpt><trkpt lat="44.43713292073893" lon="8.949265696725773"><ele>180.0</ele><time>2026-04-03T09:07:23.999Z</time></trkpt><trkpt lat="44.43709032045962" lon="8.949592931852607"><ele>180.0</ele><time>2026-04-03T09:07:24.999Z</time></trkpt><trkpt lat="44.43702524737889" lon="8.949918519542953"><ele>180.0</ele><time>2026-04-03T09:07:25.999Z</time></trkpt><trkpt lat="44.43694290631884" lon="8.950232707531876"><ele>194.5</ele><time>2026-04-03T09:07:26.999Z</time></trkpt><trkpt lat="44.43685498696015" lon="8.950548715094941"><ele>209.0</ele><time>2026-04-03T09:07:27.999Z</time></trkpt><trkpt lat="44.43676815773614" lon="8.950862208458176"><ele>223.5</ele><time>2026-04-03T09:07:28.999Z</time></trkpt><trkpt lat="44.43668235080779" lon="8.951175440855206"><ele>238.0</ele><time>2026-04-03T09:07:29.999Z</time></trkpt><trkpt lat="44.43659020089131" lon="8.951484701325219"><ele>239.5</ele><time>2026-04-03T09:07:30.999Z</time></trkpt><trkpt lat="44.43648984624993" lon="8.951790340199425"><ele>241.0</ele><time>2026-04-03T09:07:31.999Z</time></trkpt><trkpt lat="44.43638620052469" lon="8.952097899038542"><ele>224.0</ele><time>2026-04-03T09:07:32.999Z</time></trkpt><trkpt lat="44.43617406999326" lon="8.952590783705695"><ele>207.0</ele><time>2026-04-03T09:07:33.999Z</time></trkpt><trkpt lat="44.436062384367844" lon="8.95293040553247"><ele>207.0</ele><time>2026-04-03T09:07:34.999Z</time></trkpt><trkpt lat="44.435949482341556" lon="8.953270307678412"><ele>207.0</ele><time>2026-04-03T09:07:35.999Z</time></trkpt><trkpt lat="44.435835437840794" lon="8.953608905001001"><ele>195.5</ele><time>2026-04-03T09:07:36.999Z</time></trkpt><trkpt lat="44.4357248248095" lon="8.953948576996574"><ele>184.0</ele><time>2026-04-03T09:07:37.999Z</time></trkpt><trkpt lat="44.43561348204159" lon="8.954283085627088"><ele>170.5</ele><time>2026-04-03T09:07:38.999Z</time></trkpt><trkpt lat="44.43550335936631" lon="8.954613191529194"><ele>157.0</ele><time>2026-04-03T09:07:39.999Z</time></trkpt><trkpt lat="44.43539466388679" lon="8.954940271618522"><ele>138.0</ele><time>2026-04-03T09:07:40.999Z</time></trkpt><trkpt lat="44.435284278851654" lon="8.95526965722238"><ele>119.0</ele><time>2026-04-03T09:07:41.999Z</time></trkpt><trkpt lat="44.43517457645753" lon="8.95559947487558"><ele>107.5</ele><time>2026-04-03T09:07:42.999Z</time></trkpt><trkpt lat="44.435068026509136" lon="8.955931736838906"><ele>96.0</ele><time>2026-04-03T09:07:43.999Z</time></trkpt><trkpt lat="44.434956724310794" lon="8.956262610024451"><ele>96.0</ele><time>2026-04-03T09:07:44.999Z</time></trkpt><trkpt lat="44.43484468737666" lon="8.956591162965843"><ele>96.0</ele><time>2026-04-03T09:07:45.999Z</time></trkpt><trkpt lat="44.43480917219309" lon="8.956805962210646"><ele>96.0</ele><time>2026-04-03T09:07:46.999Z</time></trkpt><trkpt lat="44.434694157672915" lon="8.957112809219812"><ele>91.5</ele><time>2026-04-03T09:07:47.999Z</time></trkpt><trkpt lat="44.43454702866539" lon="8.957406412370887"><ele>87.0</ele><time>2026-04-03T09:07:49Z</time></trkpt><trkpt lat="44.434407079259394" lon="8.957681276146694"><ele>70.0</ele><time>2026-04-03T09:07:50Z</time></trkpt><trkpt lat="44.43424966795878" lon="8.957948367619723"><ele>53.0</ele><time>2026-04-03T09:07:51Z</time></trkpt><trkpt lat="44.43410066821868" lon="8.958210261021062"><ele>44.0</ele><time>2026-04-03T09:07:52Z</time></trkpt><trkpt lat="44.43395426357493" lon="8.958477903116401"><ele>35.0</ele><time>2026-04-03T09:07:53Z</time></trkpt><trkpt lat="44.43380729735297" lon="8.958744903598014"><ele>35.0</ele><time>2026-04-03T09:07:54Z</time></trkpt><trkpt lat="44.43366202957732" lon="8.959014319944538"><ele>35.0</ele><time>2026-04-03T09:07:55Z</time></trkpt><trkpt lat="44.43351617828881" lon="8.959281003329611"><ele>35.0</ele><time>2026-04-03T09:07:56Z</time></trkpt><trkpt lat="44.433366907477925" lon="8.95954769374381"><ele>35.0</ele><time>2026-04-03T09:07:57Z</time></trkpt><trkpt lat="44.43321668337501" lon="8.959813582747627"><ele>34.0</ele><time>2026-04-03T09:07:58Z</time></trkpt><trkpt lat="44.43306570522245" lon="8.960079787867482"><ele>33.0</ele><time>2026-04-03T09:07:59Z</time></trkpt><trkpt lat="44.432917743312025" lon="8.960344856998244"><ele>33.0</ele><time>2026-04-03T09:08:00Z</time></trkpt><trkpt lat="44.432772529016354" lon="8.960607740060736"><ele>33.0</ele><time>2026-04-03T09:08:01Z</time></trkpt><trkpt lat="44.43262624464819" lon="8.960872906167799"><ele>38.5</ele><time>2026-04-03T09:08:02Z</time></trkpt><trkpt lat="44.432482331065174" lon="8.961136059986877"><ele>44.0</ele><time>2026-04-03T09:08:03Z</time></trkpt><trkpt lat="44.432339004807346" lon="8.961396631409459"><ele>44.0</ele><time>2026-04-03T09:08:04Z</time></trkpt><trkpt lat="44.43219657771436" lon="8.961656027344038"><ele>44.0</ele><time>2026-04-03T09:08:05Z</time></trkpt><trkpt lat="44.432053846666165" lon="8.961913393990967"><ele>65.5</ele><time>2026-04-03T09:08:06Z</time></trkpt><trkpt lat="44.43191100307112" lon="8.962169865555348"><ele>87.0</ele><time>2026-04-03T09:08:07Z</time></trkpt><trkpt lat="44.43177115170808" lon="8.962424790371207"><ele>96.0</ele><time>2026-04-03T09:08:08Z</time></trkpt><trkpt lat="44.43162729760627" lon="8.962670465997238"><ele>105.0</ele><time>2026-04-03T09:08:09Z</time></trkpt><trkpt lat="44.43147904961951" lon="8.962912506276412"><ele>105.0</ele><time>2026-04-03T09:08:10Z</time></trkpt><trkpt lat="44.43132603063394" lon="8.963150121391354"><ele>105.0</ele><time>2026-04-03T09:08:11Z</time></trkpt><trkpt lat="44.43117320013764" lon="8.963395691227221"><ele>132.0</ele><time>2026-04-03T09:08:12Z</time></trkpt><trkpt lat="44.43102504019559" lon="8.963637591743005"><ele>159.0</ele><time>2026-04-03T09:08:13Z</time></trkpt><trkpt lat="44.43087969509668" lon="8.963880667570887"><ele>159.0</ele><time>2026-04-03T09:08:14Z</time></trkpt><trkpt lat="44.430735625462795" lon="8.96412578039844"><ele>159.0</ele><time>2026-04-03T09:08:15Z</time></trkpt><trkpt lat="44.43058947398283" lon="8.964374961872288"><ele>173.66666666666669</ele><time>2026-04-03T09:08:16Z</time></trkpt><trkpt lat="44.430452520631185" lon="8.964616521421295"><ele>188.33333333333334</ele><time>2026-04-03T09:08:17Z</time></trkpt><trkpt lat="44.43031097159404" lon="8.964862331069682"><ele>203.0</ele><time>2026-04-03T09:08:18Z</time></trkpt><trkpt lat="44.430160290283325" lon="8.965115207767829"><ele>210.0</ele><time>2026-04-03T09:08:19Z</time></trkpt><trkpt lat="44.42996873990475" lon="8.965562719050988"><ele>217.0</ele><time>2026-04-03T09:08:20Z</time></trkpt><trkpt lat="44.429819615240916" lon="8.965837920951413"><ele>218.5</ele><time>2026-04-03T09:08:21Z</time></trkpt><trkpt lat="44.42966824037696" lon="8.966109955497178"><ele>220.0</ele><time>2026-04-03T09:08:22Z</time></trkpt><trkpt lat="44.429515408655284" lon="8.96637950134126"><ele>240.0</ele><time>2026-04-03T09:08:23Z</time></trkpt><trkpt lat="44.42936014647101" lon="8.96664646865822"><ele>260.0</ele><time>2026-04-03T09:08:24Z</time></trkpt><trkpt lat="44.42920326106064" lon="8.966909751962627"><ele>260.0</ele><time>2026-04-03T09:08:25Z</time></trkpt><trkpt lat="44.42904738588659" lon="8.967175032159759"><ele>260.0</ele><time>2026-04-03T09:08:26Z</time></trkpt><trkpt lat="44.42889144506743" lon="8.967440997261491"><ele>271.0</ele><time>2026-04-03T09:08:27Z</time></trkpt><trkpt lat="44.428738231525415" lon="8.967711370710834"><ele>282.0</ele><time>2026-04-03T09:08:28Z</time></trkpt><trkpt lat="44.42858578625141" lon="8.96798223098729"><ele>282.0</ele><time>2026-04-03T09:08:29Z</time></trkpt><trkpt lat="44.428431741416034" lon="8.968250328952008"><ele>282.0</ele><time>2026-04-03T09:08:30Z</time></trkpt><trkpt lat="44.42827651326266" lon="8.96851449083"><ele>286.5</ele><time>2026-04-03T09:08:31Z</time></trkpt><trkpt lat="44.42812468054319" lon="8.968780414519426"><ele>291.0</ele><time>2026-04-03T09:08:32Z</time></trkpt><trkpt lat="44.42797700008613" lon="8.969049963487127"><ele>279.0</ele><time>2026-04-03T09:08:33Z</time></trkpt><trkpt lat="44.42782936009945" lon="8.969320209704255"><ele>267.0</ele><time>2026-04-03T09:08:34Z</time></trkpt><trkpt lat="44.427681283809065" lon="8.969588235628223"><ele>267.0</ele><time>2026-04-03T09:08:34.999Z</time></trkpt><trkpt lat="44.42753259592952" lon="8.969853091482834"><ele>267.0</ele><time>2026-04-03T09:08:35.999Z</time></trkpt><trkpt lat="44.42738447623152" lon="8.970117752761"><ele>263.5</ele><time>2026-04-03T09:08:36.999Z</time></trkpt><trkpt lat="44.427234789684874" lon="8.970378924607706"><ele>260.0</ele><time>2026-04-03T09:08:37.999Z</time></trkpt><trkpt lat="44.427082986693385" lon="8.97062619458292"><ele>238.5</ele><time>2026-04-03T09:08:38.999Z</time></trkpt><trkpt lat="44.42692838157248" lon="8.970872864414329"><ele>217.0</ele><time>2026-04-03T09:08:39.999Z</time></trkpt><trkpt lat="44.42677173975206" lon="8.971117483430994"><ele>217.0</ele><time>2026-04-03T09:08:40.999Z</time></trkpt><trkpt lat="44.4266125475887" lon="8.97136370626119"><ele>217.0</ele><time>2026-04-03T09:08:41.999Z</time></trkpt><trkpt lat="44.426454754546484" lon="8.971602063106294"><ele>198.5</ele><time>2026-04-03T09:08:42.999Z</time></trkpt><trkpt lat="44.426291699716714" lon="8.971848047545553"><ele>180.0</ele><time>2026-04-03T09:08:43.999Z</time></trkpt><trkpt lat="44.426127744497755" lon="8.972081047106391"><ele>180.0</ele><time>2026-04-03T09:08:44.999Z</time></trkpt><trkpt lat="44.42596978863033" lon="8.972293412119921"><ele>180.0</ele><time>2026-04-03T09:08:45.999Z</time></trkpt><trkpt lat="44.42580913208942" lon="8.97251520601872"><ele>180.0</ele><time>2026-04-03T09:08:46.999Z</time></trkpt><trkpt lat="44.425645143250065" lon="8.972744072508796"><ele>177.0</ele><time>2026-04-03T09:08:47.999Z</time></trkpt><trkpt lat="44.42547845453472" lon="8.972973430265212"><ele>174.0</ele><time>2026-04-03T09:08:48.999Z</time></trkpt><trkpt lat="44.42530683021767" lon="8.973212123956424"><ele>138.0</ele><time>2026-04-03T09:08:50.017Z</time></trkpt><trkpt lat="44.42387027013309" lon="8.975198568743366"><ele>104.0</ele><time>2026-04-03T09:08:53.678Z</time></trkpt><trkpt lat="44.42289705551053" lon="8.97651556641625"><ele>107.66666666666666</ele><time>2026-04-03T09:09:01.999Z</time></trkpt><trkpt lat="44.42276810845398" lon="8.976718120170272"><ele>111.33333333333334</ele><time>2026-04-03T09:09:02.999Z</time></trkpt><trkpt lat="44.42261691557796" lon="8.97694661705253"><ele>115.0</ele><time>2026-04-03T09:09:03.999Z</time></trkpt><trkpt lat="44.42244679508426" lon="8.977181852221607"><ele>115.0</ele><time>2026-04-03T09:09:04.999Z</time></trkpt><trkpt lat="44.42227860458129" lon="8.977410866501451"><ele>115.0</ele><time>2026-04-03T09:09:05.999Z</time></trkpt><trkpt lat="44.42210961091866" lon="8.977636993676631"><ele>130.5</ele><time>2026-04-03T09:09:06.999Z</time></trkpt><trkpt lat="44.42193515068706" lon="8.977860997093593"><ele>146.0</ele><time>2026-04-03T09:09:07.999Z</time></trkpt><trkpt lat="44.421752628299544" lon="8.978073702802483"><ele>146.0</ele><time>2026-04-03T09:09:08.999Z</time></trkpt><trkpt lat="44.42156882974458" lon="8.97828635110049"><ele>146.0</ele><time>2026-04-03T09:09:09.999Z</time></trkpt><trkpt lat="44.421391307952234" lon="8.978498438319072"><ele>158.33333333333331</ele><time>2026-04-03T09:09:10.999Z</time></trkpt><trkpt lat="44.421224690639406" lon="8.97870803861755"><ele>170.66666666666666</ele><time>2026-04-03T09:09:11.999Z</time></trkpt><trkpt lat="44.42105673387109" lon="8.978916801913334"><ele>183.0</ele><time>2026-04-03T09:09:12.999Z</time></trkpt><trkpt lat="44.42088790265179" lon="8.9791312505984"><ele>195.0</ele><time>2026-04-03T09:09:13.999Z</time></trkpt><trkpt lat="44.42072178120503" lon="8.979343948343779"><ele>207.0</ele><time>2026-04-03T09:09:14.999Z</time></trkpt><trkpt lat="44.42056181699728" lon="8.979570460313365"><ele>209.0</ele><time>2026-04-03T09:09:15.999Z</time></trkpt><trkpt lat="44.42029138268038" lon="8.980022408627438"><ele>211.0</ele><time>2026-04-03T09:09:16.999Z</time></trkpt><trkpt lat="44.42010653941106" lon="8.980268366124262"><ele>211.0</ele><time>2026-04-03T09:09:17.999Z</time></trkpt><trkpt lat="44.41992352670674" lon="8.980515433875505"><ele>211.0</ele><time>2026-04-03T09:09:18.999Z</time></trkpt><trkpt lat="44.41974250559056" lon="8.980762444153175"><ele>209.0</ele><time>2026-04-03T09:09:19.999Z</time></trkpt><trkpt lat="44.41956190633179" lon="8.981008042727083"><ele>207.0</ele><time>2026-04-03T09:09:20.999Z</time></trkpt><trkpt lat="44.41937994106692" lon="8.981252097991561"><ele>207.0</ele><time>2026-04-03T09:09:21.999Z</time></trkpt><trkpt lat="44.41919784151731" lon="8.981500214027719"><ele>207.0</ele><time>2026-04-03T09:09:22.999Z</time></trkpt><trkpt lat="44.41901744087765" lon="8.981744595053291"><ele>217.0</ele><time>2026-04-03T09:09:23.999Z</time></trkpt><trkpt lat="44.41883489592212" lon="8.981985366211145"><ele>227.0</ele><time>2026-04-03T09:09:24.999Z</time></trkpt><trkpt lat="44.41865310856149" lon="8.982227117888502"><ele>235.5</ele><time>2026-04-03T09:09:25.999Z</time></trkpt><trkpt lat="44.41847422886821" lon="8.982471938249445"><ele>244.0</ele><time>2026-04-03T09:09:26.999Z</time></trkpt><trkpt lat="44.418296067052886" lon="8.982717180450225"><ele>254.0</ele><time>2026-04-03T09:09:27.999Z</time></trkpt><trkpt lat="44.41811756633942" lon="8.982960692778397"><ele>264.0</ele><time>2026-04-03T09:09:28.999Z</time></trkpt><trkpt lat="44.41793597016368" lon="8.983201827908436"><ele>271.5</ele><time>2026-04-03T09:09:29.999Z</time></trkpt><trkpt lat="44.41775367972266" lon="8.983444570699005"><ele>279.0</ele><time>2026-04-03T09:09:30.999Z</time></trkpt><trkpt lat="44.41757032128258" lon="8.983685655015226"><ele>279.0</ele><time>2026-04-03T09:09:31.999Z</time></trkpt><trkpt lat="44.41738880876209" lon="8.983927279206224"><ele>279.0</ele><time>2026-04-03T09:09:32.999Z</time></trkpt><trkpt lat="44.417213713561" lon="8.984166229553553"><ele>273.0</ele><time>2026-04-03T09:09:33.999Z</time></trkpt><trkpt lat="44.41705159770745" lon="8.984420431275119"><ele>267.0</ele><time>2026-04-03T09:09:34.999Z</time></trkpt><trkpt lat="44.41687598698927" lon="8.98466045340631"><ele>267.0</ele><time>2026-04-03T09:09:35.999Z</time></trkpt><trkpt lat="44.41669741564979" lon="8.984904522079542"><ele>267.0</ele><time>2026-04-03T09:09:36.999Z</time></trkpt><trkpt lat="44.416517382657766" lon="8.985150588509905"><ele>262.5</ele><time>2026-04-03T09:09:37.999Z</time></trkpt><trkpt lat="44.41634158661087" lon="8.985389759948081"><ele>258.0</ele><time>2026-04-03T09:09:38.999Z</time></trkpt><trkpt lat="44.416174400979166" lon="8.98561540797225"><ele>239.0</ele><time>2026-04-03T09:09:39.999Z</time></trkpt><trkpt lat="44.41601735066967" lon="8.985825996719326"><ele>220.0</ele><time>2026-04-03T09:09:40.999Z</time></trkpt><trkpt lat="44.415829655631676" lon="8.98607179441026"><ele>210.0</ele><time>2026-04-03T09:09:41.999Z</time></trkpt><trkpt lat="44.41562702497779" lon="8.986317373129292"><ele>200.0</ele><time>2026-04-03T09:09:42.999Z</time></trkpt><trkpt lat="44.415426614497555" lon="8.986573816070988"><ele>196.5</ele><time>2026-04-03T09:09:43.999Z</time></trkpt><trkpt lat="44.41521346302488" lon="8.986842775656479"><ele>193.0</ele><time>2026-04-03T09:09:45.02Z</time></trkpt><trkpt lat="44.41372935306933" lon="8.988758518141745"><ele>50.0</ele><time>2026-04-03T09:09:48.681Z</time></trkpt><trkpt lat="44.412288029048874" lon="8.992946411716582"><ele>86.0</ele><time>2026-04-03T09:09:58.998Z</time></trkpt><trkpt lat="44.41256871385767" lon="8.990465236386507"><ele>86.0</ele><time>2026-04-03T09:09:59.998Z</time></trkpt><trkpt lat="44.41242535024423" lon="8.990570579770816"><ele>86.0</ele><time>2026-04-03T09:10:00.998Z</time></trkpt><trkpt lat="44.41225176274786" lon="8.990732096979663"><ele>86.0</ele><time>2026-04-03T09:10:01.998Z</time></trkpt><trkpt lat="44.41209437286179" lon="8.990857692151502"><ele>68.5</ele><time>2026-04-03T09:10:02.998Z</time></trkpt><trkpt lat="44.41190765318206" lon="8.991054016585212"><ele>51.0</ele><time>2026-04-03T09:10:03.998Z</time></trkpt><trkpt lat="44.41172281258478" lon="8.991272859492295"><ele>51.0</ele><time>2026-04-03T09:10:05Z</time></trkpt><trkpt lat="44.41153783368654" lon="8.991485385688565"><ele>51.0</ele><time>2026-04-03T09:10:06Z</time></trkpt><trkpt lat="44.4113525619763" lon="8.991700334922854"><ele>78.0</ele><time>2026-04-03T09:10:07Z</time></trkpt><trkpt lat="44.41117171996517" lon="8.991911700685906"><ele>105.0</ele><time>2026-04-03T09:10:08Z</time></trkpt><trkpt lat="44.41098988555219" lon="8.992119990310577"><ele>105.0</ele><time>2026-04-03T09:10:09Z</time></trkpt><trkpt lat="44.41081105225035" lon="8.992318062645149"><ele>105.0</ele><time>2026-04-03T09:10:10Z</time></trkpt><trkpt lat="44.41063270615073" lon="8.992511096621996"><ele>122.33333333333334</ele><time>2026-04-03T09:10:11Z</time></trkpt><trkpt lat="44.41045662532523" lon="8.992694467535063"><ele>139.66666666666669</ele><time>2026-04-03T09:10:12Z</time></trkpt><trkpt lat="44.41027941761214" lon="8.992876135528824"><ele>157.0</ele><time>2026-04-03T09:10:13Z</time></trkpt><trkpt lat="44.41010180604732" lon="8.993064799215594"><ele>157.0</ele><time>2026-04-03T09:10:14Z</time></trkpt><trkpt lat="44.4099253230157" lon="8.993263357529038"><ele>157.0</ele><time>2026-04-03T09:10:15Z</time></trkpt><trkpt lat="44.40974882194258" lon="8.993460581168694"><ele>175.5</ele><time>2026-04-03T09:10:16Z</time></trkpt><trkpt lat="44.40957276856392" lon="8.993657134246975"><ele>194.0</ele><time>2026-04-03T09:10:17Z</time></trkpt><trkpt lat="44.409388693466965" lon="8.993868011666109"><ele>194.0</ele><time>2026-04-03T09:10:18.063Z</time></trkpt><trkpt lat="44.409210923575614" lon="8.994064401267929"><ele>194.0</ele><time>2026-04-03T09:10:19.058Z</time></trkpt><trkpt lat="44.40903029156533" lon="8.994262241549297"><ele>205.5</ele><time>2026-04-03T09:10:20.057Z</time></trkpt><trkpt lat="44.4088583785474" lon="8.99445704540426"><ele>217.0</ele><time>2026-04-03T09:10:21.057Z</time></trkpt><trkpt lat="44.40736424839458" lon="8.996358771244225"><ele>118.0</ele><time>2026-04-03T09:10:24.681Z</time></trkpt><trkpt lat="44.402772237154196" lon="9.001658604198493"><ele>115.0</ele><time>2026-04-03T09:10:55.813Z</time></trkpt><trkpt lat="44.40263382525814" lon="9.001895645428563"><ele>112.0</ele><time>2026-04-03T09:10:57.999Z</time></trkpt><trkpt lat="44.40243681470224" lon="9.002137225924209"><ele>112.0</ele><time>2026-04-03T09:10:58.999Z</time></trkpt><trkpt lat="44.40223503531675" lon="9.002311944430817"><ele>112.0</ele><time>2026-04-03T09:10:59.999Z</time></trkpt><trkpt lat="44.40203056261815" lon="9.002496991012698"><ele>117.5</ele><time>2026-04-03T09:11:00.999Z</time></trkpt><trkpt lat="44.40182570792088" lon="9.002675936815036"><ele>123.0</ele><time>2026-04-03T09:11:01.999Z</time></trkpt><trkpt lat="44.40163986235632" lon="9.002861582422899"><ele>123.0</ele><time>2026-04-03T09:11:02.999Z</time></trkpt><trkpt lat="44.40145317731882" lon="9.003053705206188"><ele>123.0</ele><time>2026-04-03T09:11:03.999Z</time></trkpt><trkpt lat="44.401266718199835" lon="9.003238584532673"><ele>143.5</ele><time>2026-04-03T09:11:04.999Z</time></trkpt><trkpt lat="44.40107862809989" lon="9.003420378892109"><ele>164.0</ele><time>2026-04-03T09:11:05.999Z</time></trkpt><trkpt lat="44.400890684660695" lon="9.00360595218256"><ele>164.0</ele><time>2026-04-03T09:11:06.999Z</time></trkpt><trkpt lat="44.40070579348513" lon="9.00378857805517"><ele>164.0</ele><time>2026-04-03T09:11:07.999Z</time></trkpt><trkpt lat="44.40053076928207" lon="9.003972991081065"><ele>164.0</ele><time>2026-04-03T09:11:08.999Z</time></trkpt><trkpt lat="44.40035261247732" lon="9.00416015446807"><ele>177.0</ele><time>2026-04-03T09:11:09.999Z</time></trkpt><trkpt lat="44.400159372881184" lon="9.004354969996559"><ele>190.0</ele><time>2026-04-03T09:11:11.059Z</time></trkpt><trkpt lat="44.399976717884115" lon="9.00453651484122"><ele>190.0</ele><time>2026-04-03T09:11:12.05Z</time></trkpt><trkpt lat="44.39979030465768" lon="9.004717259660564"><ele>190.0</ele><time>2026-04-03T09:11:13.052Z</time></trkpt><trkpt lat="44.39960518845585" lon="9.004900433182312"><ele>167.5</ele><time>2026-04-03T09:11:14.05Z</time></trkpt><trkpt lat="44.39942158828871" lon="9.005084780459242"><ele>145.0</ele><time>2026-04-03T09:11:15.05Z</time></trkpt><trkpt lat="44.39895805134728" lon="9.005574247048324"><ele>131.0</ele><time>2026-04-03T09:11:16.999Z</time></trkpt><trkpt lat="44.39875593003165" lon="9.005774898953462"><ele>117.0</ele><time>2026-04-03T09:11:17.999Z</time></trkpt><trkpt lat="44.39853332251876" lon="9.005986297103806"><ele>107.5</ele><time>2026-04-03T09:11:18.999Z</time></trkpt><trkpt lat="44.39832637151991" lon="9.006185352290855"><ele>98.0</ele><time>2026-04-03T09:11:19.999Z</time></trkpt><trkpt lat="44.398117594995114" lon="9.006394530746379"><ele>95.5</ele><time>2026-04-03T09:11:20.999Z</time></trkpt><trkpt lat="44.39792222490874" lon="9.006600870949216"><ele>93.0</ele><time>2026-04-03T09:11:21.999Z</time></trkpt><trkpt lat="44.39771836228699" lon="9.006786142782222"><ele>93.0</ele><time>2026-04-03T09:11:22.999Z</time></trkpt><trkpt lat="44.39751963336149" lon="9.006987060782194"><ele>93.0</ele><time>2026-04-03T09:11:23.999Z</time></trkpt><trkpt lat="44.39731943811114" lon="9.007185840972312"><ele>98.0</ele><time>2026-04-03T09:11:24.999Z</time></trkpt><trkpt lat="44.39712291231208" lon="9.007386782415184"><ele>103.0</ele><time>2026-04-03T09:11:25.999Z</time></trkpt><trkpt lat="44.39692594295531" lon="9.0075844431624"><ele>115.0</ele><time>2026-04-03T09:11:26.999Z</time></trkpt><trkpt lat="44.39673240349537" lon="9.00777692810791"><ele>127.0</ele><time>2026-04-03T09:11:27.999Z</time></trkpt><trkpt lat="44.39653966520949" lon="9.007983895684479"><ele>127.0</ele><time>2026-04-03T09:11:28.999Z</time></trkpt><trkpt lat="44.3963701139142" lon="9.008211658743184"><ele>127.0</ele><time>2026-04-03T09:11:29.999Z</time></trkpt><trkpt lat="44.39621268434347" lon="9.008458516866014"><ele>128.5</ele><time>2026-04-03T09:11:30.999Z</time></trkpt><trkpt lat="44.39606608531746" lon="9.008719834147211"><ele>130.0</ele><time>2026-04-03T09:11:31.999Z</time></trkpt><trkpt lat="44.3959280276223" lon="9.008992252194023"><ele>133.0</ele><time>2026-04-03T09:11:32.999Z</time></trkpt><trkpt lat="44.39579896382276" lon="9.009279559148968"><ele>136.0</ele><time>2026-04-03T09:11:33.999Z</time></trkpt><trkpt lat="44.39568279899089" lon="9.009583135732983"><ele>136.0</ele><time>2026-04-03T09:11:34.999Z</time></trkpt><trkpt lat="44.395584107553354" lon="9.009900145713932"><ele>136.0</ele><time>2026-04-03T09:11:35.999Z</time></trkpt><trkpt lat="44.395503251292055" lon="9.01023152823394"><ele>127.5</ele><time>2026-04-03T09:11:36.999Z</time></trkpt><trkpt lat="44.39543987116369" lon="9.010575390858355"><ele>119.0</ele><time>2026-04-03T09:11:37.999Z</time></trkpt><trkpt lat="44.395393378324066" lon="9.010926485909193"><ele>118.5</ele><time>2026-04-03T09:11:38.999Z</time></trkpt><trkpt lat="44.39536336337181" lon="9.011281078360403"><ele>118.0</ele><time>2026-04-03T09:11:39.999Z</time></trkpt><trkpt lat="44.3953449954952" lon="9.011634707022042"><ele>113.0</ele><time>2026-04-03T09:11:40.999Z</time></trkpt><trkpt lat="44.395331199291746" lon="9.011986970885678"><ele>108.0</ele><time>2026-04-03T09:11:41.999Z</time></trkpt><trkpt lat="44.39531430432281" lon="9.012340714871328"><ele>100.0</ele><time>2026-04-03T09:11:42.999Z</time></trkpt><trkpt lat="44.39529592503162" lon="9.012688674307237"><ele>92.0</ele><time>2026-04-03T09:11:43.999Z</time></trkpt><trkpt lat="44.39527510809645" lon="9.013041515169697"><ele>91.5</ele><time>2026-04-03T09:11:44.999Z</time></trkpt><trkpt lat="44.39525541296286" lon="9.01339064462815"><ele>91.0</ele><time>2026-04-03T09:11:45.999Z</time></trkpt><trkpt lat="44.395234892853516" lon="9.013739846510886"><ele>91.0</ele><time>2026-04-03T09:11:46.999Z</time></trkpt><trkpt lat="44.39521325239746" lon="9.014092660953624"><ele>91.0</ele><time>2026-04-03T09:11:47.999Z</time></trkpt><trkpt lat="44.39519179735309" lon="9.014442291480137"><ele>107.5</ele><time>2026-04-03T09:11:48.999Z</time></trkpt><trkpt lat="44.395162809232104" lon="9.014789853250313"><ele>124.0</ele><time>2026-04-03T09:11:49.999Z</time></trkpt><trkpt lat="44.39513258497603" lon="9.01513822984017"><ele>140.0</ele><time>2026-04-03T09:11:50.999Z</time></trkpt><trkpt lat="44.395101894064005" lon="9.0154858523441"><ele>156.0</ele><time>2026-04-03T09:11:51.999Z</time></trkpt><trkpt lat="44.395081305313234" lon="9.015837671614115"><ele>170.5</ele><time>2026-04-03T09:11:52.999Z</time></trkpt><trkpt lat="44.39506360746237" lon="9.016192206600886"><ele>185.0</ele><time>2026-04-03T09:11:53.999Z</time></trkpt><trkpt lat="44.39504566514691" lon="9.016546976542982"><ele>202.5</ele><time>2026-04-03T09:11:54.999Z</time></trkpt><trkpt lat="44.39502736588384" lon="9.016902268133787"><ele>220.0</ele><time>2026-04-03T09:11:55.999Z</time></trkpt><trkpt lat="44.395012413826564" lon="9.017249758529147"><ele>223.5</ele><time>2026-04-03T09:11:56.999Z</time></trkpt><trkpt lat="44.39496851885603" lon="9.017622047518321"><ele>227.0</ele><time>2026-04-03T09:11:58.059Z</time></trkpt><trkpt lat="44.394919514582234" lon="9.01796670430282"><ele>227.0</ele><time>2026-04-03T09:11:59.055Z</time></trkpt><trkpt lat="44.3948668989036" lon="9.018312552098994"><ele>227.0</ele><time>2026-04-03T09:12:00.056Z</time></trkpt><trkpt lat="44.39481059393903" lon="9.018655592942935"><ele>218.0</ele><time>2026-04-03T09:12:01.055Z</time></trkpt><trkpt lat="44.394750844546756" lon="9.018993887725681"><ele>209.0</ele><time>2026-04-03T09:12:02.051Z</time></trkpt><trkpt lat="44.39455202835151" lon="9.019834436859798"><ele>171.5</ele><time>2026-04-03T09:12:03.999Z</time></trkpt><trkpt lat="44.394487349347415" lon="9.02019748629681"><ele>134.0</ele><time>2026-04-03T09:12:04.999Z</time></trkpt><trkpt lat="44.394397569009115" lon="9.020582756808855"><ele>139.0</ele><time>2026-04-03T09:12:05.999Z</time></trkpt><trkpt lat="44.39431699678078" lon="9.020958668472518"><ele>144.0</ele><time>2026-04-03T09:12:06.999Z</time></trkpt><trkpt lat="44.39424911165385" lon="9.021304348092082"><ele>144.0</ele><time>2026-04-03T09:12:07.999Z</time></trkpt><trkpt lat="44.39419161923645" lon="9.021646817256615"><ele>144.0</ele><time>2026-04-03T09:12:08.998Z</time></trkpt><trkpt lat="44.39412620149128" lon="9.021974554444624"><ele>154.0</ele><time>2026-04-03T09:12:10Z</time></trkpt><trkpt lat="44.39406819235909" lon="9.02231295587007"><ele>164.0</ele><time>2026-04-03T09:12:11Z</time></trkpt><trkpt lat="44.39401106654311" lon="9.02265182733541"><ele>178.0</ele><time>2026-04-03T09:12:12Z</time></trkpt><trkpt lat="44.393957683731635" lon="9.02299040370902"><ele>192.0</ele><time>2026-04-03T09:12:13Z</time></trkpt><trkpt lat="44.3939056304677" lon="9.023329239361296"><ele>210.0</ele><time>2026-04-03T09:12:14Z</time></trkpt><trkpt lat="44.39385335380695" lon="9.023666521061699"><ele>228.0</ele><time>2026-04-03T09:12:15Z</time></trkpt><trkpt lat="44.39380151429138" lon="9.024005741199309"><ele>264.0</ele><time>2026-04-03T09:12:16Z</time></trkpt><trkpt lat="44.39374753654853" lon="9.024362601573316"><ele>300.0</ele><time>2026-04-03T09:12:17.057Z</time></trkpt><trkpt lat="44.39297426707177" lon="9.028429497864794"><ele>332.0</ele><time>2026-04-03T09:12:21.678Z</time></trkpt><trkpt lat="44.392731379276" lon="9.029766546395733"><ele>241.0</ele><time>2026-04-03T09:12:22.677Z</time></trkpt><trkpt lat="44.39248836717591" lon="9.031108199076531"><ele>227.0</ele><time>2026-04-03T09:12:23.679Z</time></trkpt><trkpt lat="44.39228047389398" lon="9.03245543495416"><ele>170.0</ele><time>2026-04-03T09:12:24.678Z</time></trkpt><trkpt lat="44.392179429020885" lon="9.03379150779174"><ele>156.0</ele><time>2026-04-03T09:12:42.999Z</time></trkpt><trkpt lat="44.39212690590436" lon="9.034117743854576"><ele>142.0</ele><time>2026-04-03T09:12:43.999Z</time></trkpt><trkpt lat="44.39213423433427" lon="9.03452485797265"><ele>134.0</ele><time>2026-04-03T09:12:44.999Z</time></trkpt><trkpt lat="44.39214717364385" lon="9.03487885720998"><ele>126.0</ele><time>2026-04-03T09:12:45.999Z</time></trkpt><trkpt lat="44.39215683593916" lon="9.035249967098345"><ele>120.0</ele><time>2026-04-03T09:12:46.999Z</time></trkpt><trkpt lat="44.39216743184729" lon="9.03561756382678"><ele>114.0</ele><time>2026-04-03T09:12:47.999Z</time></trkpt><trkpt lat="44.39218434659265" lon="9.03598485699142"><ele>145.5</ele><time>2026-04-03T09:12:48.999Z</time></trkpt><trkpt lat="44.39219790621452" lon="9.036349751707224"><ele>177.0</ele><time>2026-04-03T09:12:49.999Z</time></trkpt><trkpt lat="44.39220437667027" lon="9.036714809863543"><ele>186.0</ele><time>2026-04-03T09:12:50.999Z</time></trkpt><trkpt lat="44.39220205125516" lon="9.037084130061954"><ele>195.0</ele><time>2026-04-03T09:12:51.999Z</time></trkpt><trkpt lat="44.39222183992814" lon="9.037449831479508"><ele>192.5</ele><time>2026-04-03T09:12:52.999Z</time></trkpt><trkpt lat="44.3922888703361" lon="9.037843589480428"><ele>190.0</ele><time>2026-04-03T09:12:53.999Z</time></trkpt><trkpt lat="44.39230550954865" lon="9.038218250072699"><ele>173.5</ele><time>2026-04-03T09:12:54.999Z</time></trkpt><trkpt lat="44.3923248056213" lon="9.038585291053417"><ele>157.0</ele><time>2026-04-03T09:12:55.999Z</time></trkpt><trkpt lat="44.39234286219007" lon="9.038956773353906"><ele>149.5</ele><time>2026-04-03T09:12:56.999Z</time></trkpt><trkpt lat="44.39236391922161" lon="9.03932302971465"><ele>142.0</ele><time>2026-04-03T09:12:57.999Z</time></trkpt><trkpt lat="44.3923831457288" lon="9.039684931359082"><ele>131.0</ele><time>2026-04-03T09:12:58.999Z</time></trkpt><trkpt lat="44.39239870400357" lon="9.040047724596052"><ele>120.0</ele><time>2026-04-03T09:12:59.999Z</time></trkpt><trkpt lat="44.39241592995034" lon="9.04040784341356"><ele>120.0</ele><time>2026-04-03T09:13:00.999Z</time></trkpt><trkpt lat="44.39243385477717" lon="9.040764381287351"><ele>120.0</ele><time>2026-04-03T09:13:01.999Z</time></trkpt><trkpt lat="44.39245337843856" lon="9.041121541062548"><ele>95.5</ele><time>2026-04-03T09:13:02.999Z</time></trkpt><trkpt lat="44.392474259416645" lon="9.041481342584982"><ele>71.0</ele><time>2026-04-03T09:13:03.999Z</time></trkpt><trkpt lat="44.39249301363021" lon="9.04183439766193"><ele>68.5</ele><time>2026-04-03T09:13:04.999Z</time></trkpt><trkpt lat="44.3925130396904" lon="9.0421873622296"><ele>66.0</ele><time>2026-04-03T09:13:05.999Z</time></trkpt><trkpt lat="44.39253301104494" lon="9.042540269720899"><ele>66.0</ele><time>2026-04-03T09:13:06.999Z</time></trkpt><trkpt lat="44.39255254476885" lon="9.04289601389612"><ele>66.0</ele><time>2026-04-03T09:13:07.999Z</time></trkpt><trkpt lat="44.39257064183175" lon="9.04325149397613"><ele>76.5</ele><time>2026-04-03T09:13:08.999Z</time></trkpt><trkpt lat="44.3925870704613" lon="9.043607002981036"><ele>87.0</ele><time>2026-04-03T09:13:09.999Z</time></trkpt><trkpt lat="44.392603727080804" lon="9.043962477046179"><ele>103.5</ele><time>2026-04-03T09:13:10.999Z</time></trkpt><trkpt lat="44.39262204244957" lon="9.044320362728145"><ele>120.0</ele><time>2026-04-03T09:13:11.999Z</time></trkpt><trkpt lat="44.39264448214301" lon="9.044678749800898"><ele>134.5</ele><time>2026-04-03T09:13:12.999Z</time></trkpt><trkpt lat="44.392665789832066" lon="9.04503628386259"><ele>149.0</ele><time>2026-04-03T09:13:13.999Z</time></trkpt><trkpt lat="44.39268532668473" lon="9.045396652515219"><ele>149.0</ele><time>2026-04-03T09:13:14.999Z</time></trkpt><trkpt lat="44.3927011492473" lon="9.045757994155082"><ele>149.0</ele><time>2026-04-03T09:13:15.999Z</time></trkpt><trkpt lat="44.39271491458979" lon="9.046119419136875"><ele>151.5</ele><time>2026-04-03T09:13:16.999Z</time></trkpt><trkpt lat="44.39272463112137" lon="9.04647633493987"><ele>154.0</ele><time>2026-04-03T09:13:17.999Z</time></trkpt><trkpt lat="44.392727834454845" lon="9.046836813521825"><ele>159.0</ele><time>2026-04-03T09:13:18.999Z</time></trkpt><trkpt lat="44.39271648784392" lon="9.04719318537798"><ele>164.0</ele><time>2026-04-03T09:13:19.999Z</time></trkpt><trkpt lat="44.39269107916037" lon="9.04754863815404"><ele>174.0</ele><time>2026-04-03T09:13:20.999Z</time></trkpt><trkpt lat="44.39266552963797" lon="9.047915606301567"><ele>184.0</ele><time>2026-04-03T09:13:21.999Z</time></trkpt><trkpt lat="44.392637324606" lon="9.048282300311472"><ele>192.5</ele><time>2026-04-03T09:13:22.999Z</time></trkpt><trkpt lat="44.39261359937457" lon="9.048642272151119"><ele>201.0</ele><time>2026-04-03T09:13:23.999Z</time></trkpt><trkpt lat="44.39258307121756" lon="9.049010459319184"><ele>208.0</ele><time>2026-04-03T09:13:24.999Z</time></trkpt><trkpt lat="44.392567027716915" lon="9.04936921303772"><ele>215.0</ele><time>2026-04-03T09:13:25.999Z</time></trkpt><trkpt lat="44.39249591794903" lon="9.049741332667246"><ele>221.5</ele><time>2026-04-03T09:13:27.061Z</time></trkpt><trkpt lat="44.39242517168075" lon="9.050088268995273"><ele>228.0</ele><time>2026-04-03T09:13:28.06Z</time></trkpt><trkpt lat="44.392353931767566" lon="9.050428982196264"><ele>228.0</ele><time>2026-04-03T09:13:29.053Z</time></trkpt><trkpt lat="44.3922812541322" lon="9.0507662136336"><ele>228.0</ele><time>2026-04-03T09:13:30.054Z</time></trkpt><trkpt lat="44.392207307849816" lon="9.051107710231138"><ele>336.0</ele><time>2026-04-03T09:13:31.046Z</time></trkpt><trkpt lat="44.39155934992798" lon="9.053776653942304"><ele>383.0</ele><time>2026-04-03T09:13:34.675Z</time></trkpt><trkpt lat="44.3912718518474" lon="9.055099161676695"><ele>409.0</ele><time>2026-04-03T09:13:35.676Z</time></trkpt><trkpt lat="44.39098508678829" lon="9.05642406047104"><ele>445.0</ele><time>2026-04-03T09:13:36.678Z</time></trkpt><trkpt lat="44.3906988037752" lon="9.05774551996775"><ele>477.0</ele><time>2026-04-03T09:13:37.678Z</time></trkpt><trkpt lat="44.39041162251813" lon="9.059061033764166"><ele>423.0</ele><time>2026-04-03T09:13:38.674Z</time></trkpt><trkpt lat="44.3901238032524" lon="9.06038320090978"><ele>364.0</ele><time>2026-04-03T09:13:39.675Z</time></trkpt><trkpt lat="44.389836348776264" lon="9.061703741461251"><ele>307.0</ele><time>2026-04-03T09:13:40.675Z</time></trkpt><trkpt lat="44.38954852250887" lon="9.063025994657462"><ele>298.0</ele><time>2026-04-03T09:13:41.676Z</time></trkpt><trkpt lat="44.38926191942335" lon="9.064346805109176"><ele>280.0</ele><time>2026-04-03T09:13:42.675Z</time></trkpt><trkpt lat="44.388975554464665" lon="9.06567117946292"><ele>202.0</ele><time>2026-04-03T09:13:43.677Z</time></trkpt><trkpt lat="44.38873180532352" lon="9.06700301416347"><ele>167.0</ele><time>2026-04-03T09:13:44.674Z</time></trkpt><trkpt lat="44.38866291954577" lon="9.067976306753383"><ele>158.5</ele><time>2026-04-03T09:14:17.998Z</time></trkpt><trkpt lat="44.388646261285835" lon="9.068329847908593"><ele>150.0</ele><time>2026-04-03T09:14:18.998Z</time></trkpt><trkpt lat="44.38866106300958" lon="9.068704568772343"><ele>150.0</ele><time>2026-04-03T09:14:19.998Z</time></trkpt><trkpt lat="44.38867312634156" lon="9.069077648504031"><ele>150.0</ele><time>2026-04-03T09:14:20.998Z</time></trkpt><trkpt lat="44.388688086176685" lon="9.069448247727577"><ele>144.0</ele><time>2026-04-03T09:14:21.998Z</time></trkpt><trkpt lat="44.388703998933885" lon="9.06982186618519"><ele>138.0</ele><time>2026-04-03T09:14:22.998Z</time></trkpt><trkpt lat="44.388718776414535" lon="9.070194434567393"><ele>138.0</ele><time>2026-04-03T09:14:24Z</time></trkpt><trkpt lat="44.388731896071974" lon="9.070561351171468"><ele>138.0</ele><time>2026-04-03T09:14:25Z</time></trkpt><trkpt lat="44.38875015965259" lon="9.070929968361359"><ele>154.5</ele><time>2026-04-03T09:14:26Z</time></trkpt><trkpt lat="44.38876253319663" lon="9.071303137827334"><ele>171.0</ele><time>2026-04-03T09:14:27Z</time></trkpt><trkpt lat="44.38877558673198" lon="9.071677733805886"><ele>191.5</ele><time>2026-04-03T09:14:28Z</time></trkpt><trkpt lat="44.388786904949455" lon="9.072056116335856"><ele>212.0</ele><time>2026-04-03T09:14:29Z</time></trkpt><trkpt lat="44.388798225218025" lon="9.072438640721185"><ele>226.0</ele><time>2026-04-03T09:14:30Z</time></trkpt><trkpt lat="44.38882048853193" lon="9.072812422327857"><ele>240.0</ele><time>2026-04-03T09:14:31Z</time></trkpt><trkpt lat="44.388834881025566" lon="9.073208397190198"><ele>255.0</ele><time>2026-04-03T09:14:32.046Z</time></trkpt><trkpt lat="44.38885073957601" lon="9.07358399066525"><ele>270.0</ele><time>2026-04-03T09:14:33.043Z</time></trkpt><trkpt lat="44.38886039274377" lon="9.073968246214719"><ele>283.5</ele><time>2026-04-03T09:14:34.043Z</time></trkpt><trkpt lat="44.388872480895856" lon="9.074341388642457"><ele>297.0</ele><time>2026-04-03T09:14:35.042Z</time></trkpt><trkpt lat="44.388884681259974" lon="9.074719682707991"><ele>184.0</ele><time>2026-04-03T09:14:36.039Z</time></trkpt><trkpt lat="44.389092557325576" lon="9.077946140951251"><ele>172.5</ele><time>2026-04-03T09:14:45Z</time></trkpt><trkpt lat="44.38910573268976" lon="9.07829434001577"><ele>161.0</ele><time>2026-04-03T09:14:46Z</time></trkpt><trkpt lat="44.38913765473336" lon="9.078646166268983"><ele>161.0</ele><time>2026-04-03T09:14:47Z</time></trkpt><trkpt lat="44.38915184296469" lon="9.079005840789616"><ele>161.0</ele><time>2026-04-03T09:14:48Z</time></trkpt><trkpt lat="44.38915754934825" lon="9.079341486181647"><ele>158.66666666666666</ele><time>2026-04-03T09:14:49Z</time></trkpt><trkpt lat="44.389174244486796" lon="9.079669331455113"><ele>156.33333333333334</ele><time>2026-04-03T09:14:50Z</time></trkpt><trkpt lat="44.38918780324583" lon="9.079954435630299"><ele>154.0</ele><time>2026-04-03T09:14:51Z</time></trkpt><trkpt lat="44.38920671020334" lon="9.08028165512222"><ele>150.0</ele><time>2026-04-03T09:14:51.999Z</time></trkpt><trkpt lat="44.38922955240494" lon="9.080611997674522"><ele>146.0</ele><time>2026-04-03T09:14:52.999Z</time></trkpt><trkpt lat="44.38925385738752" lon="9.080944033375053"><ele>143.0</ele><time>2026-04-03T09:14:53.999Z</time></trkpt><trkpt lat="44.389273744131664" lon="9.081276141769914"><ele>140.0</ele><time>2026-04-03T09:14:54.999Z</time></trkpt><trkpt lat="44.38929249569143" lon="9.08161305436455"><ele>140.0</ele><time>2026-04-03T09:14:55.999Z</time></trkpt><trkpt lat="44.38930500181702" lon="9.081952990497964"><ele>140.0</ele><time>2026-04-03T09:14:56.999Z</time></trkpt><trkpt lat="44.38931403833965" lon="9.082290645263852"><ele>153.5</ele><time>2026-04-03T09:14:57.999Z</time></trkpt><trkpt lat="44.38931647544618" lon="9.082630188450477"><ele>167.0</ele><time>2026-04-03T09:14:58.999Z</time></trkpt><trkpt lat="44.38930999104459" lon="9.082962049925483"><ele>186.0</ele><time>2026-04-03T09:14:59.999Z</time></trkpt><trkpt lat="44.3892945173025" lon="9.083287231571298"><ele>205.0</ele><time>2026-04-03T09:15:00.999Z</time></trkpt><trkpt lat="44.38927495711548" lon="9.083605765700485"><ele>205.0</ele><time>2026-04-03T09:15:01.999Z</time></trkpt><trkpt lat="44.38925726351417" lon="9.083920577654071"><ele>205.0</ele><time>2026-04-03T09:15:02.999Z</time></trkpt><trkpt lat="44.389240170012386" lon="9.084227924550325"><ele>205.0</ele><time>2026-04-03T09:15:03.999Z</time></trkpt><trkpt lat="44.38922849744079" lon="9.084557501970968"><ele>223.0</ele><time>2026-04-03T09:15:04.999Z</time></trkpt><trkpt lat="44.38921605236315" lon="9.084904073876972"><ele>241.0</ele><time>2026-04-03T09:15:06.067Z</time></trkpt><trkpt lat="44.388444535641796" lon="9.08821206026859"><ele>438.0</ele><time>2026-04-03T09:15:10.674Z</time></trkpt><trkpt lat="44.388277244540014" lon="9.088927714293554"><ele>445.0</ele><time>2026-04-03T09:15:11.674Z</time></trkpt><trkpt lat="44.388109954275365" lon="9.089643324805332"><ele>408.0</ele><time>2026-04-03T09:15:12.674Z</time></trkpt><trkpt lat="44.38794200558013" lon="9.090362127170062"><ele>367.0</ele><time>2026-04-03T09:15:13.678Z</time></trkpt><trkpt lat="44.38777486986153" lon="9.091077450082121"><ele>330.0</ele><time>2026-04-03T09:15:14.677Z</time></trkpt><trkpt lat="44.38760792433287" lon="9.091794281274918"><ele>291.0</ele><time>2026-04-03T09:15:15.678Z</time></trkpt><trkpt lat="44.38744210692119" lon="9.09250863657556"><ele>291.0</ele><time>2026-04-03T09:15:16.675Z</time></trkpt><trkpt lat="44.38727587395341" lon="9.093224782126711"><ele>271.0</ele><time>2026-04-03T09:15:17.674Z</time></trkpt><trkpt lat="44.38710885458518" lon="9.093942737492098"><ele>270.0</ele><time>2026-04-03T09:15:18.677Z</time></trkpt><trkpt lat="44.3869424327503" lon="9.09465597392727"><ele>271.0</ele><time>2026-04-03T09:15:19.673Z</time></trkpt><trkpt lat="44.38677534711022" lon="9.095372055241901"><ele>263.0</ele><time>2026-04-03T09:15:20.673Z</time></trkpt><trkpt lat="44.386607506351694" lon="9.096090751064926"><ele>241.0</ele><time>2026-04-03T09:15:21.677Z</time></trkpt><trkpt lat="44.38644081178103" lon="9.096805395992195"><ele>204.0</ele><time>2026-04-03T09:15:22.675Z</time></trkpt><trkpt lat="44.386272741311025" lon="9.097522650770603"><ele>204.0</ele><time>2026-04-03T09:15:23.677Z</time></trkpt><trkpt lat="44.38606509724841" lon="9.098214347159319"><ele>166.0</ele><time>2026-04-03T09:15:24.673Z</time></trkpt><trkpt lat="44.38574742022634" lon="9.098961012827518"><ele>177.5</ele><time>2026-04-03T09:15:46.999Z</time></trkpt><trkpt lat="44.38558809603831" lon="9.09928862621626"><ele>189.0</ele><time>2026-04-03T09:15:47.999Z</time></trkpt><trkpt lat="44.38549663787947" lon="9.09953508943664"><ele>189.0</ele><time>2026-04-03T09:15:48.999Z</time></trkpt><trkpt lat="44.385320313963796" lon="9.099784370390408"><ele>189.0</ele><time>2026-04-03T09:15:49.999Z</time></trkpt><trkpt lat="44.38515164251574" lon="9.100051997599007"><ele>177.5</ele><time>2026-04-03T09:15:50.999Z</time></trkpt><trkpt lat="44.38498189595819" lon="9.100300405937324"><ele>166.0</ele><time>2026-04-03T09:15:51.999Z</time></trkpt><trkpt lat="44.384816724208754" lon="9.100547847008464"><ele>169.0</ele><time>2026-04-03T09:15:52.999Z</time></trkpt><trkpt lat="44.38465532886785" lon="9.10079929972714"><ele>172.0</ele><time>2026-04-03T09:15:53.999Z</time></trkpt><trkpt lat="44.38449631646732" lon="9.101052255863491"><ele>172.0</ele><time>2026-04-03T09:15:54.999Z</time></trkpt><trkpt lat="44.38434358894461" lon="9.101305551700905"><ele>172.0</ele><time>2026-04-03T09:15:55.999Z</time></trkpt><trkpt lat="44.384186345766636" lon="9.101561061639057"><ele>155.5</ele><time>2026-04-03T09:15:56.999Z</time></trkpt><trkpt lat="44.38402636308798" lon="9.101813854607178"><ele>139.0</ele><time>2026-04-03T09:15:57.999Z</time></trkpt><trkpt lat="44.38386001967388" lon="9.102061888308953"><ele>147.5</ele><time>2026-04-03T09:15:58.999Z</time></trkpt><trkpt lat="44.38368008587377" lon="9.102296662745275"><ele>156.0</ele><time>2026-04-03T09:15:59.999Z</time></trkpt><trkpt lat="44.38348660524252" lon="9.102522180681365"><ele>156.0</ele><time>2026-04-03T09:16:00.999Z</time></trkpt><trkpt lat="44.383286097396024" lon="9.102731863052833"><ele>156.0</ele><time>2026-04-03T09:16:01.999Z</time></trkpt><trkpt lat="44.383079703112045" lon="9.102931174386788"><ele>152.0</ele><time>2026-04-03T09:16:02.999Z</time></trkpt><trkpt lat="44.382867082145154" lon="9.103122644081397"><ele>148.0</ele><time>2026-04-03T09:16:03.999Z</time></trkpt><trkpt lat="44.38264634232496" lon="9.10330503164719"><ele>148.0</ele><time>2026-04-03T09:16:04.999Z</time></trkpt><trkpt lat="44.38242286655367" lon="9.103486024140695"><ele>148.0</ele><time>2026-04-03T09:16:05.999Z</time></trkpt><trkpt lat="44.38220316870419" lon="9.103671574549024"><ele>156.5</ele><time>2026-04-03T09:16:06.999Z</time></trkpt><trkpt lat="44.38197707305657" lon="9.103866370624846"><ele>165.0</ele><time>2026-04-03T09:16:07.999Z</time></trkpt><trkpt lat="44.38175152688147" lon="9.104068167431283"><ele>167.0</ele><time>2026-04-03T09:16:08.999Z</time></trkpt><trkpt lat="44.38153189424747" lon="9.104288627491332"><ele>169.0</ele><time>2026-04-03T09:16:09.999Z</time></trkpt><trkpt lat="44.38132566648771" lon="9.104532845534674"><ele>169.0</ele><time>2026-04-03T09:16:10.999Z</time></trkpt><trkpt lat="44.38113330885453" lon="9.10479968515376"><ele>169.0</ele><time>2026-04-03T09:16:11.999Z</time></trkpt><trkpt lat="44.38095427248136" lon="9.105092639928964"><ele>155.5</ele><time>2026-04-03T09:16:12.999Z</time></trkpt><trkpt lat="44.38079051720403" lon="9.105400187523632"><ele>142.0</ele><time>2026-04-03T09:16:13.999Z</time></trkpt><trkpt lat="44.38065118027636" lon="9.105730281347792"><ele>133.5</ele><time>2026-04-03T09:16:14.999Z</time></trkpt><trkpt lat="44.380526018958705" lon="9.106066643051768"><ele>125.0</ele><time>2026-04-03T09:16:15.999Z</time></trkpt><trkpt lat="44.380419963302494" lon="9.106411797127668"><ele>113.5</ele><time>2026-04-03T09:16:16.998Z</time></trkpt><trkpt lat="44.38033161124028" lon="9.10676238029152"><ele>102.0</ele><time>2026-04-03T09:16:17.998Z</time></trkpt><trkpt lat="44.38026090152988" lon="9.10711727325718"><ele>86.5</ele><time>2026-04-03T09:16:18.998Z</time></trkpt><trkpt lat="44.380205918446784" lon="9.107473490131094"><ele>71.0</ele><time>2026-04-03T09:16:19.998Z</time></trkpt><trkpt lat="44.38017257525525" lon="9.10782684781538"><ele>71.0</ele><time>2026-04-03T09:16:20.998Z</time></trkpt><trkpt lat="44.38013996335341" lon="9.108179454081196"><ele>71.0</ele><time>2026-04-03T09:16:21.998Z</time></trkpt><trkpt lat="44.38011113900672" lon="9.108532802677033"><ele>57.0</ele><time>2026-04-03T09:16:22.998Z</time></trkpt><trkpt lat="44.380079546433066" lon="9.10887967230432"><ele>43.0</ele><time>2026-04-03T09:16:23.998Z</time></trkpt><trkpt lat="44.3800446958066" lon="9.109220955282458"><ele>40.0</ele><time>2026-04-03T09:16:24.998Z</time></trkpt><trkpt lat="44.380008868690076" lon="9.109566773285223"><ele>37.0</ele><time>2026-04-03T09:16:25.998Z</time></trkpt><trkpt lat="44.37997346894584" lon="9.109910149903044"><ele>49.0</ele><time>2026-04-03T09:16:26.998Z</time></trkpt><trkpt lat="44.37994425249855" lon="9.110255385353854"><ele>61.0</ele><time>2026-04-03T09:16:27.998Z</time></trkpt><trkpt lat="44.37991656387121" lon="9.110597208778433"><ele>78.5</ele><time>2026-04-03T09:16:29Z</time></trkpt><trkpt lat="44.379886570561894" lon="9.110942599467586"><ele>96.0</ele><time>2026-04-03T09:16:30Z</time></trkpt><trkpt lat="44.379856239294796" lon="9.111289679599633"><ele>110.0</ele><time>2026-04-03T09:16:31Z</time></trkpt><trkpt lat="44.37982797579271" lon="9.111632543730336"><ele>124.0</ele><time>2026-04-03T09:16:32Z</time></trkpt><trkpt lat="44.37980343462491" lon="9.111979142833741"><ele>124.0</ele><time>2026-04-03T09:16:33Z</time></trkpt><trkpt lat="44.3797751336516" lon="9.11232428165197"><ele>124.0</ele><time>2026-04-03T09:16:34Z</time></trkpt><trkpt lat="44.37974732027017" lon="9.112670121877702"><ele>124.0</ele><time>2026-04-03T09:16:35Z</time></trkpt><trkpt lat="44.379718113976544" lon="9.11301754562713"><ele>124.0</ele><time>2026-04-03T09:16:36Z</time></trkpt><trkpt lat="44.37968977379753" lon="9.113366537549688"><ele>141.5</ele><time>2026-04-03T09:16:37Z</time></trkpt><trkpt lat="44.37965995997897" lon="9.113725971146325"><ele>159.0</ele><time>2026-04-03T09:16:38Z</time></trkpt><trkpt lat="44.37962604908402" lon="9.114080398429559"><ele>160.5</ele><time>2026-04-03T09:16:39Z</time></trkpt><trkpt lat="44.37959534279509" lon="9.11443778015261"><ele>162.0</ele><time>2026-04-03T09:16:40Z</time></trkpt><trkpt lat="44.379563488108325" lon="9.1147988390599"><ele>164.0</ele><time>2026-04-03T09:16:41Z</time></trkpt><trkpt lat="44.37952856095807" lon="9.1151568812447"><ele>166.0</ele><time>2026-04-03T09:16:42Z</time></trkpt><trkpt lat="44.3794947103909" lon="9.115515835663608"><ele>163.5</ele><time>2026-04-03T09:16:43Z</time></trkpt><trkpt lat="44.37946549628021" lon="9.115875920669554"><ele>161.0</ele><time>2026-04-03T09:16:44Z</time></trkpt><trkpt lat="44.37943557363381" lon="9.11623769721597"><ele>161.0</ele><time>2026-04-03T09:16:45Z</time></trkpt><trkpt lat="44.37939949585262" lon="9.11659488436781"><ele>161.0</ele><time>2026-04-03T09:16:46Z</time></trkpt><trkpt lat="44.379354476141344" lon="9.116949263789634"><ele>161.0</ele><time>2026-04-03T09:16:47Z</time></trkpt><trkpt lat="44.37929028294938" lon="9.117295838081974"><ele>161.0</ele><time>2026-04-03T09:16:48Z</time></trkpt><trkpt lat="44.37923141398545" lon="9.117644579494478"><ele>162.5</ele><time>2026-04-03T09:16:49Z</time></trkpt><trkpt lat="44.37917437343496" lon="9.117992741778703"><ele>164.0</ele><time>2026-04-03T09:16:50Z</time></trkpt><trkpt lat="44.37914163300223" lon="9.118346611155957"><ele>167.0</ele><time>2026-04-03T09:16:51Z</time></trkpt><trkpt lat="44.37911004491681" lon="9.118709864411231"><ele>170.0</ele><time>2026-04-03T09:16:52Z</time></trkpt><trkpt lat="44.37907953120976" lon="9.119068680312465"><ele>184.0</ele><time>2026-04-03T09:16:53Z</time></trkpt><trkpt lat="44.37904758567108" lon="9.119444346216056"><ele>198.0</ele><time>2026-04-03T09:16:54.056Z</time></trkpt><trkpt lat="44.37901759548736" lon="9.119799012332246"><ele>213.0</ele><time>2026-04-03T09:16:55.048Z</time></trkpt><trkpt lat="44.378987581930936" lon="9.120153955124511"><ele>228.0</ele><time>2026-04-03T09:16:56.051Z</time></trkpt><trkpt lat="44.37881399882793" lon="9.122966720125476"><ele>384.0</ele><time>2026-04-03T09:16:59.672Z</time></trkpt><trkpt lat="44.3786945463665" lon="9.124343232042257"><ele>411.0</ele><time>2026-04-03T09:17:00.676Z</time></trkpt><trkpt lat="44.378575782288856" lon="9.125711811360004"><ele>466.0</ele><time>2026-04-03T09:17:01.675Z</time></trkpt><trkpt lat="44.37845706374247" lon="9.127079865997793"><ele>517.0</ele><time>2026-04-03T09:17:02.673Z</time></trkpt><trkpt lat="44.37833847258276" lon="9.128450195687188"><ele>520.0</ele><time>2026-04-03T09:17:03.673Z</time></trkpt><trkpt lat="44.378219121017764" lon="9.129820670997885"><ele>439.0</ele><time>2026-04-03T09:17:04.674Z</time></trkpt><trkpt lat="44.37810044192683" lon="9.131189336750747"><ele>362.0</ele><time>2026-04-03T09:17:05.672Z</time></trkpt><trkpt lat="44.37798277990452" lon="9.132559284462095"><ele>339.0</ele><time>2026-04-03T09:17:06.672Z</time></trkpt><trkpt lat="44.37786346079767" lon="9.133933038072803"><ele>282.0</ele><time>2026-04-03T09:17:07.675Z</time></trkpt><trkpt lat="44.377748077518476" lon="9.135301739432906"><ele>244.0</ele><time>2026-04-03T09:17:08.673Z</time></trkpt><trkpt lat="44.37763072270296" lon="9.136675173537865"><ele>227.0</ele><time>2026-04-03T09:17:09.675Z</time></trkpt><trkpt lat="44.377511818974575" lon="9.13804106714318"><ele>193.0</ele><time>2026-04-03T09:17:10.672Z</time></trkpt><trkpt lat="44.37739311755604" lon="9.139416137265052"><ele>162.0</ele><time>2026-04-03T09:17:11.675Z</time></trkpt><trkpt lat="44.377276227638504" lon="9.140784145796708"><ele>150.0</ele><time>2026-04-03T09:17:12.674Z</time></trkpt><trkpt lat="44.37709549611202" lon="9.142282540470822"><ele>146.0</ele><time>2026-04-03T09:17:57.999Z</time></trkpt><trkpt lat="44.37706229683039" lon="9.142554039166901"><ele>142.0</ele><time>2026-04-03T09:17:58.999Z</time></trkpt><trkpt lat="44.3770481124588" lon="9.142823138532155"><ele>138.0</ele><time>2026-04-03T09:17:59.999Z</time></trkpt><trkpt lat="44.37701409772161" lon="9.143074239983996"><ele>133.0</ele><time>2026-04-03T09:18:00.999Z</time></trkpt><trkpt lat="44.37697636859671" lon="9.143308546058801"><ele>128.0</ele><time>2026-04-03T09:18:01.999Z</time></trkpt><trkpt lat="44.3769199890664" lon="9.143541752302642"><ele>123.0</ele><time>2026-04-03T09:18:02.999Z</time></trkpt><trkpt lat="44.37683882903896" lon="9.143765745127354"><ele>123.0</ele><time>2026-04-03T09:18:03.999Z</time></trkpt><trkpt lat="44.37676862462483" lon="9.143971005917795"><ele>123.0</ele><time>2026-04-03T09:18:04.999Z</time></trkpt><trkpt lat="44.37677536475991" lon="9.14417562581545"><ele>123.0</ele><time>2026-04-03T09:18:05.999Z</time></trkpt><trkpt lat="44.37681881850961" lon="9.144375773922693"><ele>121.75</ele><time>2026-04-03T09:18:06.999Z</time></trkpt><trkpt lat="44.37689737767389" lon="9.144546134092195"><ele>120.5</ele><time>2026-04-03T09:18:07.999Z</time></trkpt><trkpt lat="44.376924325769004" lon="9.144633242851327"><ele>119.25</ele><time>2026-04-03T09:18:08.999Z</time></trkpt><trkpt lat="44.37712969864156" lon="9.144755144902662"><ele>118.0</ele><time>2026-04-03T09:18:09.999Z</time></trkpt><trkpt lat="44.37727092893089" lon="9.144814832549942"><ele>114.0</ele><time>2026-04-03T09:18:10.999Z</time></trkpt><trkpt lat="44.37741934123978" lon="9.144860917189908"><ele>110.0</ele><time>2026-04-03T09:18:11.999Z</time></trkpt><trkpt lat="44.37756783183136" lon="9.144932948172286"><ele>106.0</ele><time>2026-04-03T09:18:12.999Z</time></trkpt><trkpt lat="44.377692778634746" lon="9.145061002418153"><ele>104.0</ele><time>2026-04-03T09:18:13.999Z</time></trkpt><trkpt lat="44.37778826223101" lon="9.145234658655802"><ele>102.0</ele><time>2026-04-03T09:18:14.999Z</time></trkpt><trkpt lat="44.37784756229483" lon="9.145439088887775"><ele>100.0</ele><time>2026-04-03T09:18:15.999Z</time></trkpt><trkpt lat="44.3778690042113" lon="9.145665102269822"><ele>97.33333333333334</ele><time>2026-04-03T09:18:16.999Z</time></trkpt><trkpt lat="44.377858217834955" lon="9.145901570562662"><ele>94.66666666666667</ele><time>2026-04-03T09:18:17.999Z</time></trkpt><trkpt lat="44.37782615799995" lon="9.146141988695627"><ele>92.0</ele><time>2026-04-03T09:18:18.998Z</time></trkpt><trkpt lat="44.37779082374279" lon="9.146382456647748"><ele>90.66666666666667</ele><time>2026-04-03T09:18:19.998Z</time></trkpt><trkpt lat="44.377769213148134" lon="9.146624435871953"><ele>89.33333333333333</ele><time>2026-04-03T09:18:20.998Z</time></trkpt><trkpt lat="44.377748631502" lon="9.146862714794477"><ele>88.0</ele><time>2026-04-03T09:18:21.998Z</time></trkpt><trkpt lat="44.37770958548644" lon="9.147076500579663"><ele>88.0</ele><time>2026-04-03T09:18:22.998Z</time></trkpt><trkpt lat="44.37764400747159" lon="9.147274608168534"><ele>88.0</ele><time>2026-04-03T09:18:23.998Z</time></trkpt><trkpt lat="44.377573897398115" lon="9.147473968402638"><ele>88.0</ele><time>2026-04-03T09:18:24.998Z</time></trkpt><trkpt lat="44.37750543621586" lon="9.147674807329167"><ele>91.66666666666666</ele><time>2026-04-03T09:18:25.998Z</time></trkpt><trkpt lat="44.377442154725934" lon="9.147873634323517"><ele>95.33333333333333</ele><time>2026-04-03T09:18:26.998Z</time></trkpt><trkpt lat="44.37738203595988" lon="9.148074490078246"><ele>99.0</ele><time>2026-04-03T09:18:27.998Z</time></trkpt><trkpt lat="44.37732264956809" lon="9.148273581443824"><ele>101.75</ele><time>2026-04-03T09:18:28.998Z</time></trkpt><trkpt lat="44.37726328224804" lon="9.148455787499978"><ele>104.5</ele><time>2026-04-03T09:18:29.998Z</time></trkpt><trkpt lat="44.377209500243815" lon="9.148634528446653"><ele>107.25</ele><time>2026-04-03T09:18:30.998Z</time></trkpt><trkpt lat="44.37717245244266" lon="9.148808570986978"><ele>110.0</ele><time>2026-04-03T09:18:31.998Z</time></trkpt><trkpt lat="44.37715921185087" lon="9.14897308930138"><ele>111.6</ele><time>2026-04-03T09:18:32.998Z</time></trkpt><trkpt lat="44.37716509600195" lon="9.149131243742804"><ele>113.2</ele><time>2026-04-03T09:18:34Z</time></trkpt><trkpt lat="44.37718481590046" lon="9.149278026954029"><ele>114.80000000000001</ele><time>2026-04-03T09:18:35Z</time></trkpt><trkpt lat="44.37720392927187" lon="9.149412106042275"><ele>116.4</ele><time>2026-04-03T09:18:36Z</time></trkpt><trkpt lat="44.37721193874728" lon="9.149526321304725"><ele>118.0</ele><time>2026-04-03T09:18:37Z</time></trkpt><trkpt lat="44.37719776481947" lon="9.14963393383853"><ele>109.33333333333334</ele><time>2026-04-03T09:18:38Z</time></trkpt><trkpt lat="44.37715172522561" lon="9.149720610955638"><ele>100.66666666666667</ele><time>2026-04-03T09:18:39Z</time></trkpt><trkpt lat="44.37708417783586" lon="9.14978000500076"><ele>92.0</ele><time>2026-04-03T09:18:40Z</time></trkpt><trkpt lat="44.377010405843095" lon="9.149799234600335"><ele>83.33333333333334</ele><time>2026-04-03T09:18:41Z</time></trkpt><trkpt lat="44.37693505595278" lon="9.149767702409036"><ele>74.66666666666667</ele><time>2026-04-03T09:18:41.999Z</time></trkpt><trkpt lat="44.37687243262252" lon="9.149696426064247"><ele>66.0</ele><time>2026-04-03T09:18:42.999Z</time></trkpt><trkpt lat="44.376833710521566" lon="9.149597166764696"><ele>66.0</ele><time>2026-04-03T09:18:43.999Z</time></trkpt><trkpt lat="44.37682110062354" lon="9.149491784658139"><ele>66.0</ele><time>2026-04-03T09:18:44.999Z</time></trkpt><trkpt lat="44.37683937893459" lon="9.14937592375162"><ele>66.0</ele><time>2026-04-03T09:18:45.999Z</time></trkpt><trkpt lat="44.37686823038869" lon="9.149259258405667"><ele>66.0</ele><time>2026-04-03T09:18:46.999Z</time></trkpt><trkpt lat="44.376901399642435" lon="9.149125742378885"><ele>66.0</ele><time>2026-04-03T09:18:47.999Z</time></trkpt><trkpt lat="44.37693449714844" lon="9.14898448654491"><ele>65.0</ele><time>2026-04-03T09:18:48.999Z</time></trkpt><trkpt lat="44.37697295606717" lon="9.148833244501143"><ele>64.0</ele><time>2026-04-03T09:18:49.999Z</time></trkpt><trkpt lat="44.37701427480737" lon="9.148671346393655"><ele>63.0</ele><time>2026-04-03T09:18:50.999Z</time></trkpt><trkpt lat="44.37705422306168" lon="9.148501572798347"><ele>62.0</ele><time>2026-04-03T09:18:51.999Z</time></trkpt><trkpt lat="44.37709562039636" lon="9.148329918906944"><ele>63.25</ele><time>2026-04-03T09:18:52.999Z</time></trkpt><trkpt lat="44.3771377291889" lon="9.148162621997793"><ele>64.5</ele><time>2026-04-03T09:18:53.999Z</time></trkpt><trkpt lat="44.37717917716715" lon="9.147996912193099"><ele>65.75</ele><time>2026-04-03T09:18:54.999Z</time></trkpt><trkpt lat="44.37722032325901" lon="9.14783157607341"><ele>67.0</ele><time>2026-04-03T09:18:55.999Z</time></trkpt><trkpt lat="44.37726043641924" lon="9.147666427594594"><ele>72.25</ele><time>2026-04-03T09:18:56.999Z</time></trkpt><trkpt lat="44.37730004880855" lon="9.14749995128138"><ele>77.5</ele><time>2026-04-03T09:18:57.999Z</time></trkpt><trkpt lat="44.377335841760356" lon="9.147331039085975"><ele>82.75</ele><time>2026-04-03T09:18:58.999Z</time></trkpt><trkpt lat="44.37736962447739" lon="9.147161443268185"><ele>88.0</ele><time>2026-04-03T09:18:59.999Z</time></trkpt><trkpt lat="44.377399497184285" lon="9.146989385711692"><ele>88.0</ele><time>2026-04-03T09:19:00.999Z</time></trkpt><trkpt lat="44.37742496451111" lon="9.146825251819559"><ele>88.0</ele><time>2026-04-03T09:19:01.999Z</time></trkpt><trkpt lat="44.37744920934076" lon="9.146660817914011"><ele>88.0</ele><time>2026-04-03T09:19:02.999Z</time></trkpt><trkpt lat="44.37747020564809" lon="9.146503816401271"><ele>88.0</ele><time>2026-04-03T09:19:03.999Z</time></trkpt><trkpt lat="44.37747963468541" lon="9.146354521017138"><ele>88.80000000000001</ele><time>2026-04-03T09:19:04.999Z</time></trkpt><trkpt lat="44.37746791458676" lon="9.146210671306084"><ele>89.6</ele><time>2026-04-03T09:19:05.999Z</time></trkpt><trkpt lat="44.377424081238" lon="9.146088577386958"><ele>90.4</ele><time>2026-04-03T09:19:06.999Z</time></trkpt><trkpt lat="44.37735842290893" lon="9.145997806188687"><ele>91.19999999999999</ele><time>2026-04-03T09:19:07.999Z</time></trkpt><trkpt lat="44.37727893562444" lon="9.145941115940644"><ele>92.0</ele><time>2026-04-03T09:19:08.999Z</time></trkpt><trkpt lat="44.37719058023517" lon="9.145913283806442"><ele>91.16666666666667</ele><time>2026-04-03T09:19:09.999Z</time></trkpt><trkpt lat="44.37709790619644" lon="9.145926997360355"><ele>90.33333333333334</ele><time>2026-04-03T09:19:10.999Z</time></trkpt><trkpt lat="44.37701926274019" lon="9.145983232116876"><ele>89.5</ele><time>2026-04-03T09:19:11.999Z</time></trkpt><trkpt lat="44.376965891030416" lon="9.146072593060433"><ele>88.66666666666667</ele><time>2026-04-03T09:19:12.999Z</time></trkpt><trkpt lat="44.376927635843245" lon="9.146174455628879"><ele>87.83333333333333</ele><time>2026-04-03T09:19:13.999Z</time></trkpt><trkpt lat="44.37690275766086" lon="9.146282507385855"><ele>87.0</ele><time>2026-04-03T09:19:14.999Z</time></trkpt><trkpt lat="44.37685962491266" lon="9.146379748057285"><ele>87.0</ele><time>2026-04-03T09:19:15.999Z</time></trkpt><trkpt lat="44.37682658741984" lon="9.146471627551627"><ele>87.0</ele><time>2026-04-03T09:19:16.999Z</time></trkpt><trkpt lat="44.376786579203966" lon="9.146545373113964"><ele>87.0</ele><time>2026-04-03T09:19:17.999Z</time></trkpt><trkpt lat="44.376723085215964" lon="9.14665612216215"><ele>87.0</ele><time>2026-04-03T09:19:19.999Z</time></trkpt><trkpt lat="44.37667133179312" lon="9.146738677053273"><ele>87.0</ele><time>2026-04-03T09:19:21.999Z</time></trkpt><trkpt lat="44.376616215861134" lon="9.146821382324978"><ele>87.0</ele><time>2026-04-03T09:19:23.999Z</time></trkpt><trkpt lat="44.37654639104904" lon="9.146940425100087"><ele>89.0</ele><time>2026-04-03T09:19:26.999Z</time></trkpt><trkpt lat="44.3764996230869" lon="9.147005973109026"><ele>91.0</ele><time>2026-04-03T09:19:27.999Z</time></trkpt><trkpt lat="44.376438640441194" lon="9.147071622228834"><ele>93.0</ele><time>2026-04-03T09:19:28.999Z</time></trkpt><trkpt lat="44.37637692224983" lon="9.147122777206796"><ele>95.0</ele><time>2026-04-03T09:19:29.999Z</time></trkpt><trkpt lat="44.37629903908866" lon="9.147175688196251"><ele>97.0</ele><time>2026-04-03T09:19:30.999Z</time></trkpt><trkpt lat="44.3762219584002" lon="9.14722644345885"><ele>99.0</ele><time>2026-04-03T09:19:31.999Z</time></trkpt><trkpt lat="44.376163853346746" lon="9.147303419837279"><ele>99.0</ele><time>2026-04-03T09:19:32.999Z</time></trkpt><trkpt lat="44.37609198325343" lon="9.147361973256219"><ele>99.0</ele><time>2026-04-03T09:19:33.999Z</time></trkpt><trkpt lat="44.376010252932176" lon="9.147400225525207"><ele>99.0</ele><time>2026-04-03T09:19:34.999Z</time></trkpt><trkpt lat="44.37594464939227" lon="9.147478716397018"><ele>99.0</ele><time>2026-04-03T09:19:35.999Z</time></trkpt><trkpt lat="44.375878631910815" lon="9.147573614430085"><ele>99.0</ele><time>2026-04-03T09:19:36.999Z</time></trkpt><trkpt lat="44.3758319713268" lon="9.147698129820686"><ele>97.4</ele><time>2026-04-03T09:19:37.999Z</time></trkpt><trkpt lat="44.37575601937998" lon="9.147800137560212"><ele>95.80000000000001</ele><time>2026-04-03T09:19:38.999Z</time></trkpt><trkpt lat="44.37569389840206" lon="9.147924189028977"><ele>94.19999999999999</ele><time>2026-04-03T09:19:39.999Z</time></trkpt><trkpt lat="44.37562964264281" lon="9.14804796774191"><ele>92.6</ele><time>2026-04-03T09:19:40.999Z</time></trkpt><trkpt lat="44.37557205876409" lon="9.148163469135534"><ele>91.0</ele><time>2026-04-03T09:19:41.999Z</time></trkpt><trkpt lat="44.375514634993" lon="9.148275018554404"><ele>91.0</ele><time>2026-04-03T09:19:42.999Z</time></trkpt><trkpt lat="44.37546404780076" lon="9.148387737697883"><ele>91.0</ele><time>2026-04-03T09:19:43.999Z</time></trkpt><trkpt lat="44.375438174900495" lon="9.148520192415097"><ele>91.0</ele><time>2026-04-03T09:19:44.999Z</time></trkpt><trkpt lat="44.37540443781011" lon="9.148648966627285"><ele>91.0</ele><time>2026-04-03T09:19:45.999Z</time></trkpt><trkpt lat="44.375360615529445" lon="9.148772998031687"><ele>91.0</ele><time>2026-04-03T09:19:46.999Z</time></trkpt><trkpt lat="44.375337757710454" lon="9.148912032045219"><ele>91.0</ele><time>2026-04-03T09:19:47.999Z</time></trkpt><trkpt lat="44.37530903572288" lon="9.14903444209755"><ele>91.0</ele><time>2026-04-03T09:19:48.999Z</time></trkpt><trkpt lat="44.375276223168456" lon="9.149161151463597"><ele>91.0</ele><time>2026-04-03T09:19:49.999Z</time></trkpt><trkpt lat="44.37524310204112" lon="9.149286286921324"><ele>91.0</ele><time>2026-04-03T09:19:50.999Z</time></trkpt><trkpt lat="44.37520632255892" lon="9.14941020605871"><ele>91.0</ele><time>2026-04-03T09:19:51.999Z</time></trkpt><trkpt lat="44.37515181175853" lon="9.149528685549134"><ele>86.0</ele><time>2026-04-03T09:19:52.999Z</time></trkpt><trkpt lat="44.37507367285754" lon="9.14962256330537"><ele>81.0</ele><time>2026-04-03T09:19:53.999Z</time></trkpt><trkpt lat="44.37498079791807" lon="9.14968652521118"><ele>76.0</ele><time>2026-04-03T09:19:54.999Z</time></trkpt><trkpt lat="44.37487640509682" lon="9.149721610577773"><ele>71.0</ele><time>2026-04-03T09:19:55.999Z</time></trkpt><trkpt lat="44.374771178739465" lon="9.149731197459067"><ele>66.0</ele><time>2026-04-03T09:19:56.999Z</time></trkpt><trkpt lat="44.374670548166435" lon="9.14971358189658"><ele>62.5</ele><time>2026-04-03T09:19:57.999Z</time></trkpt><trkpt lat="44.37457663265883" lon="9.149629844098126"><ele>59.0</ele><time>2026-04-03T09:19:58.999Z</time></trkpt><trkpt lat="44.37448772326021" lon="9.149518065776512"><ele>55.5</ele><time>2026-04-03T09:19:59.999Z</time></trkpt><trkpt lat="44.374407961903756" lon="9.14939496415902"><ele>52.0</ele><time>2026-04-03T09:20:00.999Z</time></trkpt><trkpt lat="44.374345570812004" lon="9.149247112866645"><ele>52.0</ele><time>2026-04-03T09:20:01.999Z</time></trkpt><trkpt lat="44.37427495086897" lon="9.149113024301617"><ele>52.0</ele><time>2026-04-03T09:20:02.999Z</time></trkpt><trkpt lat="44.374173184817096" lon="9.149005798037171"><ele>52.0</ele><time>2026-04-03T09:20:03.999Z</time></trkpt><trkpt lat="44.37405543731268" lon="9.148941142873952"><ele>52.0</ele><time>2026-04-03T09:20:04.999Z</time></trkpt><trkpt lat="44.37392581643911" lon="9.148905974511317"><ele>59.0</ele><time>2026-04-03T09:20:05.999Z</time></trkpt><trkpt lat="44.37378769048478" lon="9.148910331478795"><ele>66.0</ele><time>2026-04-03T09:20:06.999Z</time></trkpt><trkpt lat="44.37364264736071" lon="9.148927127668587"><ele>73.0</ele><time>2026-04-03T09:20:07.999Z</time></trkpt><trkpt lat="44.3734993348752" lon="9.148949281071683"><ele>80.0</ele><time>2026-04-03T09:20:08.999Z</time></trkpt><trkpt lat="44.373355726722394" lon="9.148968375967064"><ele>80.0</ele><time>2026-04-03T09:20:09.999Z</time></trkpt><trkpt lat="44.373213478816524" lon="9.148979802885583"><ele>80.0</ele><time>2026-04-03T09:20:10.999Z</time></trkpt><trkpt lat="44.373072760407815" lon="9.148992157525173"><ele>80.0</ele><time>2026-04-03T09:20:11.999Z</time></trkpt><trkpt lat="44.372933777834085" lon="9.149003602156988"><ele>80.0</ele><time>2026-04-03T09:20:12.999Z</time></trkpt><trkpt lat="44.3727942473346" lon="9.149017439943295"><ele>81.0</ele><time>2026-04-03T09:20:13.999Z</time></trkpt><trkpt lat="44.37266024282803" lon="9.149032058212075"><ele>82.0</ele><time>2026-04-03T09:20:14.999Z</time></trkpt><trkpt lat="44.37252295528247" lon="9.149035214080445"><ele>83.0</ele><time>2026-04-03T09:20:15.999Z</time></trkpt><trkpt lat="44.37238768142578" lon="9.14901802701684"><ele>84.0</ele><time>2026-04-03T09:20:16.999Z</time></trkpt><trkpt lat="44.37224918495995" lon="9.14898805980429"><ele>79.75</ele><time>2026-04-03T09:20:17.999Z</time></trkpt><trkpt lat="44.372114625028075" lon="9.148950883482774"><ele>75.5</ele><time>2026-04-03T09:20:18.998Z</time></trkpt><trkpt lat="44.37197828211804" lon="9.148918461565804"><ele>71.25</ele><time>2026-04-03T09:20:19.998Z</time></trkpt><trkpt lat="44.37184183712095" lon="9.148892302589118"><ele>67.0</ele><time>2026-04-03T09:20:20.998Z</time></trkpt><trkpt lat="44.37171108669732" lon="9.148862014940342"><ele>67.0</ele><time>2026-04-03T09:20:21.998Z</time></trkpt><trkpt lat="44.37158281436069" lon="9.148836321345508"><ele>67.0</ele><time>2026-04-03T09:20:22.998Z</time></trkpt><trkpt lat="44.371457266035975" lon="9.148806946652412"><ele>67.0</ele><time>2026-04-03T09:20:23.998Z</time></trkpt><trkpt lat="44.37133755693546" lon="9.14876913993319"><ele>67.0</ele><time>2026-04-03T09:20:24.998Z</time></trkpt><trkpt lat="44.37121330046776" lon="9.148705470861161"><ele>65.25</ele><time>2026-04-03T09:20:25.998Z</time></trkpt><trkpt lat="44.37109485441421" lon="9.148601954690381"><ele>63.5</ele><time>2026-04-03T09:20:26.998Z</time></trkpt><trkpt lat="44.37098648465466" lon="9.14846695772703"><ele>61.75</ele><time>2026-04-03T09:20:27.998Z</time></trkpt><trkpt lat="44.37089166746565" lon="9.148317302107488"><ele>60.0</ele><time>2026-04-03T09:20:28.998Z</time></trkpt><trkpt lat="44.3707936448356" lon="9.14816792861558"><ele>60.0</ele><time>2026-04-03T09:20:29.998Z</time></trkpt><trkpt lat="44.370695845264166" lon="9.148027300932542"><ele>60.0</ele><time>2026-04-03T09:20:30.998Z</time></trkpt><trkpt lat="44.37060026017902" lon="9.147896420879848"><ele>60.0</ele><time>2026-04-03T09:20:31.998Z</time></trkpt><trkpt lat="44.370512824340835" lon="9.147760856743334"><ele>60.0</ele><time>2026-04-03T09:20:32.998Z</time></trkpt><trkpt lat="44.370437495278765" lon="9.147614684334046"><ele>52.0</ele><time>2026-04-03T09:20:33.998Z</time></trkpt><trkpt lat="44.37037822519034" lon="9.147457401333703"><ele>44.0</ele><time>2026-04-03T09:20:34.998Z</time></trkpt><trkpt lat="44.370323266441474" lon="9.147296754994642"><ele>36.0</ele><time>2026-04-03T09:20:35.998Z</time></trkpt><trkpt lat="44.37027496818732" lon="9.147134610345617"><ele>28.0</ele><time>2026-04-03T09:20:36.998Z</time></trkpt><trkpt lat="44.370228342391954" lon="9.146973159350141"><ele>28.0</ele><time>2026-04-03T09:20:37.998Z</time></trkpt><trkpt lat="44.370185460918464" lon="9.146812717807382"><ele>28.0</ele><time>2026-04-03T09:20:38.998Z</time></trkpt><trkpt lat="44.37013572093025" lon="9.146657499989248"><ele>28.0</ele><time>2026-04-03T09:20:40Z</time></trkpt><trkpt lat="44.37006609833304" lon="9.146518065756874"><ele>28.0</ele><time>2026-04-03T09:20:41Z</time></trkpt><trkpt lat="44.369963491702784" lon="9.146419450648297"><ele>33.25</ele><time>2026-04-03T09:20:42Z</time></trkpt><trkpt lat="44.36984178507204" lon="9.146361589499056"><ele>38.5</ele><time>2026-04-03T09:20:43Z</time></trkpt><trkpt lat="44.36970650337668" lon="9.146345980886524"><ele>43.75</ele><time>2026-04-03T09:20:44Z</time></trkpt><trkpt lat="44.369569764842275" lon="9.146379869855314"><ele>49.0</ele><time>2026-04-03T09:20:45Z</time></trkpt><trkpt lat="44.3694375430514" lon="9.146467965480111"><ele>40.75</ele><time>2026-04-03T09:20:46Z</time></trkpt><trkpt lat="44.36931660601154" lon="9.146566999346636"><ele>32.5</ele><time>2026-04-03T09:20:47Z</time></trkpt><trkpt lat="44.36920064972894" lon="9.146650579131157"><ele>24.25</ele><time>2026-04-03T09:20:48Z</time></trkpt><trkpt lat="44.36908797593563" lon="9.146724647660236"><ele>16.0</ele><time>2026-04-03T09:20:49Z</time></trkpt><trkpt lat="44.368990847555125" lon="9.146786414559758"><ele>15.999999999999998</ele><time>2026-04-03T09:20:50Z</time></trkpt><trkpt lat="44.36890373439852" lon="9.146837392895737"><ele>16.0</ele><time>2026-04-03T09:20:51Z</time></trkpt><trkpt lat="44.36882921670697" lon="9.146889054766985"><ele>16.0</ele><time>2026-04-03T09:20:52Z</time></trkpt><trkpt lat="44.36877273129872" lon="9.146932530319681"><ele>16.0</ele><time>2026-04-03T09:20:53Z</time></trkpt><trkpt lat="44.3686863886013" lon="9.147004417348828"><ele>15.999999999999998</ele><time>2026-04-03T09:20:54.999Z</time></trkpt><trkpt lat="44.36861719589185" lon="9.14706448054588"><ele>16.0</ele><time>2026-04-03T09:20:56.999Z</time></trkpt><trkpt lat="44.36855807739681" lon="9.147113839731404"><ele>15.333333333333332</ele><time>2026-04-03T09:20:59.999Z</time></trkpt><trkpt lat="44.36847706633317" lon="9.147184088698094"><ele>14.666666666666666</ele><time>2026-04-03T09:21:06.999Z</time></trkpt><trkpt lat="44.36841833286405" lon="9.147236076929815"><ele>14.0</ele><time>2026-04-03T09:21:08.999Z</time></trkpt><trkpt lat="44.368349582261374" lon="9.147292458755459"><ele>13.333333333333332</ele><time>2026-04-03T09:21:11.999Z</time></trkpt><trkpt lat="44.36827699964657" lon="9.147360057528633"><ele>12.666666666666666</ele><time>2026-04-03T09:21:32.999Z</time></trkpt><trkpt lat="44.36819927892322" lon="9.147428093281492"><ele>12.0</ele><time>2026-04-03T09:21:34.999Z</time></trkpt><trkpt lat="44.36812743966076" lon="9.147480998959537"><ele>11.5</ele><time>2026-04-03T09:21:37Z</time></trkpt><trkpt lat="44.36805842645186" lon="9.147512653103513"><ele>11.0</ele><time>2026-04-03T09:21:40Z</time></trkpt><trkpt lat="44.368005194382064" lon="9.147448353627086"><ele>10.5</ele><time>2026-04-03T09:21:42Z</time></trkpt><trkpt lat="44.36796727704438" lon="9.14735459977688"><ele>10.0</ele><time>2026-04-03T09:21:44Z</time></trkpt><trkpt lat="44.36791236346974" lon="9.147248130383971"><ele>9.5</ele><time>2026-04-03T09:21:46Z</time></trkpt><trkpt lat="44.36784989161904" lon="9.147124433508031"><ele>9.0</ele><time>2026-04-03T09:21:48Z</time></trkpt><trkpt lat="44.36777726274466" lon="9.146998412618771"><ele>9.0</ele><time>2026-04-03T09:21:50Z</time></trkpt><trkpt lat="44.3676936691668" lon="9.14686691746771"><ele>9.0</ele><time>2026-04-03T09:21:52Z</time></trkpt><trkpt lat="44.36764118386721" lon="9.146808667500936"><ele>9.0</ele><time>2026-04-03T09:21:53Z</time></trkpt><trkpt lat="44.367588154256744" lon="9.146756405363751"><ele>9.0</ele><time>2026-04-03T09:21:54Z</time></trkpt><trkpt lat="44.367532374072454" lon="9.146713129397277"><ele>9.0</ele><time>2026-04-03T09:21:55Z</time></trkpt><trkpt lat="44.36742882212435" lon="9.146636486256165"><ele>9.0</ele><time>2026-04-03T09:21:57Z</time></trkpt><trkpt lat="44.36733270835933" lon="9.146581901904952"><ele>9.000000000000002</ele><time>2026-04-03T09:21:59Z</time></trkpt><trkpt lat="44.36725061421771" lon="9.146550508765413"><ele>9.0</ele><time>2026-04-03T09:22:01Z</time></trkpt><trkpt lat="44.36717927340783" lon="9.146524054071147"><ele>9.0</ele><time>2026-04-03T09:22:03Z</time></trkpt><trkpt lat="44.36711034929242" lon="9.146511495997972"><ele>9.0</ele><time>2026-04-03T09:22:05Z</time></trkpt><trkpt lat="44.367044993081485" lon="9.1465044462347"><ele>9.0</ele><time>2026-04-03T09:22:07Z</time></trkpt><trkpt lat="44.36697505368351" lon="9.146505007286338"><ele>9.000000000000002</ele><time>2026-04-03T09:22:10Z</time></trkpt><trkpt lat="44.36689731266748" lon="9.146512422067516"><ele>9.0</ele><time>2026-04-03T09:22:15Z</time></trkpt><trkpt lat="44.36682990651091" lon="9.146528943558623"><ele>8.666666666666666</ele><time>2026-04-03T09:22:23.999Z</time></trkpt><trkpt lat="44.366752511864576" lon="9.146538937449566"><ele>8.333333333333334</ele><time>2026-04-03T09:22:26.999Z</time></trkpt><trkpt lat="44.36666887034911" lon="9.146554527130766"><ele>8.0</ele><time>2026-04-03T09:22:29.999Z</time></trkpt><trkpt lat="44.366581493173776" lon="9.146567145370364"><ele>7.666666666666667</ele><time>2026-04-03T09:22:32.999Z</time></trkpt><trkpt lat="44.3665169830145" lon="9.146577092844346"><ele>7.333333333333334</ele><time>2026-04-03T09:22:34.999Z</time></trkpt><trkpt lat="44.36644478530017" lon="9.14658913660243"><ele>7.0</ele><time>2026-04-03T09:22:36.999Z</time></trkpt><trkpt lat="44.36636027713714" lon="9.14660513603495"><ele>7.000000000000001</ele><time>2026-04-03T09:22:39.999Z</time></trkpt><trkpt lat="44.366269518451084" lon="9.146617897813883"><ele>7.0</ele><time>2026-04-03T09:23:00Z</time></trkpt><trkpt lat="44.36619340567149" lon="9.146633287132207"><ele>7.0</ele><time>2026-04-03T09:23:02Z</time></trkpt><trkpt lat="44.36612194712263" lon="9.146646705152445"><ele>7.0</ele><time>2026-04-03T09:23:04Z</time></trkpt><trkpt lat="44.36605549216923" lon="9.146661175787509"><ele>7.000000000000001</ele><time>2026-04-03T09:23:06Z</time></trkpt><trkpt lat="44.36595444749273" lon="9.146690235979134"><ele>7.0</ele><time>2026-04-03T09:23:08Z</time></trkpt><trkpt lat="44.365833195621285" lon="9.146711942785174"><ele>7.0</ele><time>2026-04-03T09:23:10Z</time></trkpt><trkpt lat="44.36570902337065" lon="9.146727562186776"><ele>6.999999999999999</ele><time>2026-04-03T09:23:12Z</time></trkpt><trkpt lat="44.3655869194203" lon="9.146740956491483"><ele>6.999999999999999</ele><time>2026-04-03T09:23:14Z</time></trkpt><trkpt lat="44.36549414566494" lon="9.14675940913669"><ele>7.0</ele><time>2026-04-03T09:23:16Z</time></trkpt><trkpt lat="44.3654009720909" lon="9.146773999055094"><ele>7.0</ele><time>2026-04-03T09:23:18Z</time></trkpt><trkpt lat="44.36532053517675" lon="9.146770572552242"><ele>7.166666666666667</ele><time>2026-04-03T09:23:44Z</time></trkpt><trkpt lat="44.36523118316322" lon="9.14678171355065"><ele>7.333333333333334</ele><time>2026-04-03T09:23:47Z</time></trkpt><trkpt lat="44.36516171934687" lon="9.146790422467275"><ele>7.5</ele><time>2026-04-03T09:23:49Z</time></trkpt><trkpt lat="44.365077335916595" lon="9.14679608252721"><ele>7.666666666666666</ele><time>2026-04-03T09:23:51Z</time></trkpt><trkpt lat="44.364952001501585" lon="9.146800991406428"><ele>7.833333333333333</ele><time>2026-04-03T09:23:53Z</time></trkpt><trkpt lat="44.36488513713709" lon="9.146796060266858"><ele>8.0</ele><time>2026-04-03T09:23:54Z</time></trkpt><trkpt lat="44.36481149926797" lon="9.1467826813726"><ele>8.0</ele><time>2026-04-03T09:23:55Z</time></trkpt><trkpt lat="44.36473750439121" lon="9.146760083385512"><ele>7.999999999999999</ele><time>2026-04-03T09:23:56Z</time></trkpt><trkpt lat="44.364663400648176" lon="9.146727602079498"><ele>8.0</ele><time>2026-04-03T09:23:57Z</time></trkpt><trkpt lat="44.36459572918983" lon="9.146674678643272"><ele>8.0</ele><time>2026-04-03T09:23:58Z</time></trkpt><trkpt lat="44.364539010051125" lon="9.146625157338319"><ele>7.999999999999999</ele><time>2026-04-03T09:23:59Z</time></trkpt><trkpt lat="44.36448460482075" lon="9.146575508092779"><ele>8.0</ele><time>2026-04-03T09:24:00Z</time></trkpt><trkpt lat="44.364432641904436" lon="9.146523456071375"><ele>8.0</ele><time>2026-04-03T09:24:01Z</time></trkpt><trkpt lat="44.36438379774874" lon="9.146465287005627"><ele>7.833333333333333</ele><time>2026-04-03T09:24:02Z</time></trkpt><trkpt lat="44.36433868725005" lon="9.146400098761367"><ele>7.666666666666666</ele><time>2026-04-03T09:24:03Z</time></trkpt><trkpt lat="44.36429454521702" lon="9.14633690772111"><ele>7.5</ele><time>2026-04-03T09:24:04Z</time></trkpt><trkpt lat="44.36424993585673" lon="9.146271057642185"><ele>7.333333333333334</ele><time>2026-04-03T09:24:05Z</time></trkpt><trkpt lat="44.36420429664184" lon="9.14620423928885"><ele>7.166666666666667</ele><time>2026-04-03T09:24:06Z</time></trkpt><trkpt lat="44.36412678310529" lon="9.146089984582018"><ele>7.0</ele><time>2026-04-03T09:24:08Z</time></trkpt><trkpt lat="44.364063835622545" lon="9.14599233799555"><ele>7.0</ele><time>2026-04-03T09:24:10Z</time></trkpt><trkpt lat="44.36400902061054" lon="9.145911413988783"><ele>7.0</ele><time>2026-04-03T09:24:12Z</time></trkpt><trkpt lat="44.363960442650075" lon="9.145839217284566"><ele>7.0</ele><time>2026-04-03T09:24:14Z</time></trkpt><trkpt lat="44.36390994766689" lon="9.145760377557867"><ele>7.0</ele><time>2026-04-03T09:24:16.999Z</time></trkpt><trkpt lat="44.363866045201874" lon="9.145693341030462"><ele>7.0</ele><time>2026-04-03T09:24:22.999Z</time></trkpt><trkpt lat="44.363823844649154" lon="9.145625792237816"><ele>7.0</ele><time>2026-04-03T09:24:27.999Z</time></trkpt><trkpt lat="44.363779266909326" lon="9.14556150439474"><ele>7.0</ele><time>2026-04-03T09:24:30.999Z</time></trkpt><trkpt lat="44.36372973097161" lon="9.145483283569332"><ele>7.142857142857142</ele><time>2026-04-03T09:24:39.999Z</time></trkpt><trkpt lat="44.363685962051086" lon="9.145411799624696"><ele>7.285714285714286</ele><time>2026-04-03T09:24:41.999Z</time></trkpt><trkpt lat="44.36363213710072" lon="9.14533741174616"><ele>7.428571428571429</ele><time>2026-04-03T09:24:43.999Z</time></trkpt><trkpt lat="44.36358997481898" lon="9.145266756552566"><ele>7.571428571428571</ele><time>2026-04-03T09:24:44.999Z</time></trkpt><trkpt lat="44.36354780743912" lon="9.1451922873145"><ele>7.7142857142857135</ele><time>2026-04-03T09:24:45.999Z</time></trkpt><trkpt lat="44.36350265236239" lon="9.145122656687143"><ele>7.857142857142857</ele><time>2026-04-03T09:24:46.999Z</time></trkpt><trkpt lat="44.36345061094052" lon="9.145063137502687"><ele>8.0</ele><time>2026-04-03T09:24:47.999Z</time></trkpt><trkpt lat="44.36336125983068" lon="9.144971863466084"><ele>8.0</ele><time>2026-04-03T09:24:49.999Z</time></trkpt><trkpt lat="44.36329903649935" lon="9.144927729312617"><ele>8.0</ele><time>2026-04-03T09:24:52Z</time></trkpt><trkpt lat="44.36322690525706" lon="9.144886699575245"><ele>8.0</ele><time>2026-04-03T09:25:16Z</time></trkpt><trkpt lat="44.363130311763136" lon="9.144819624135785"><ele>8.0</ele><time>2026-04-03T09:25:18Z</time></trkpt><trkpt lat="44.36304084260343" lon="9.144748114262846"><ele>8.0</ele><time>2026-04-03T09:25:20Z</time></trkpt><trkpt lat="44.362948115181915" lon="9.14468884263043"><ele>8.166666666666666</ele><time>2026-04-03T09:25:22Z</time></trkpt><trkpt lat="44.36286922625252" lon="9.144645376227745"><ele>8.333333333333332</ele><time>2026-04-03T09:25:24Z</time></trkpt><trkpt lat="44.3627981696452" lon="9.144603222411142"><ele>8.5</ele><time>2026-04-03T09:25:26Z</time></trkpt><trkpt lat="44.36271820567853" lon="9.144552711818838"><ele>8.666666666666666</ele><time>2026-04-03T09:25:28Z</time></trkpt><trkpt lat="44.362656205189765" lon="9.14444635565266"><ele>8.833333333333334</ele><time>2026-04-03T09:25:30Z</time></trkpt><trkpt lat="44.36257181842678" lon="9.144383276061513"><ele>9.0</ele><time>2026-04-03T09:25:32Z</time></trkpt><trkpt lat="44.362467658202874" lon="9.144417876668896"><ele>9.0</ele><time>2026-04-03T09:25:34Z</time></trkpt><trkpt lat="44.36240407463715" lon="9.144479012928835"><ele>9.0</ele><time>2026-04-03T09:25:36Z</time></trkpt><trkpt lat="44.36238074536011" lon="9.144574364220535"><ele>9.0</ele><time>2026-04-03T09:25:38Z</time></trkpt><trkpt lat="44.362333714101446" lon="9.14467380896417"><ele>9.0</ele><time>2026-04-03T09:25:40Z</time></trkpt><trkpt lat="44.362269394721665" lon="9.144758960921939"><ele>9.0</ele><time>2026-04-03T09:25:43Z</time></trkpt><trkpt lat="44.36232980942886" lon="9.144917688748171"><ele>9.0</ele><time>2026-04-03T09:25:45Z</time></trkpt><trkpt lat="44.36236849315105" lon="9.145001697542448"><ele>9.0</ele><time>2026-04-03T09:25:47Z</time></trkpt><trkpt lat="44.362396398757525" lon="9.145085894047023"><ele>9.0</ele><time>2026-04-03T09:25:51Z</time></trkpt><trkpt lat="44.362358313386785" lon="9.144981524141807"><ele>9.0</ele><time>2026-04-03T09:26:41.999Z</time></trkpt><trkpt lat="44.362322140047524" lon="9.144899259506355"><ele>9.0</ele><time>2026-04-03T09:26:43.999Z</time></trkpt><trkpt lat="44.36229476206915" lon="9.144802395901904"><ele>9.0</ele><time>2026-04-03T09:26:46.999Z</time></trkpt><trkpt lat="44.362312974352214" lon="9.145156345846635"><ele>9.2</ele><time>2026-04-03T09:26:50.999Z</time></trkpt><trkpt lat="44.3622681962462" lon="9.145233864937351"><ele>9.4</ele><time>2026-04-03T09:26:51.999Z</time></trkpt><trkpt lat="44.36222078687603" lon="9.145314085114121"><ele>9.6</ele><time>2026-04-03T09:26:52.999Z</time></trkpt><trkpt lat="44.36217936664311" lon="9.145382986528894"><ele>9.8</ele><time>2026-04-03T09:26:53.999Z</time></trkpt><trkpt lat="44.362133630135055" lon="9.145459067938233"><ele>10.0</ele><time>2026-04-03T09:26:55.999Z</time></trkpt><trkpt lat="44.36204663708733" lon="9.145119713399064"><ele>10.0</ele><time>2026-04-03T09:27:15Z</time></trkpt><trkpt lat="44.362115229340866" lon="9.145046194310197"><ele>10.0</ele><time>2026-04-03T09:27:16Z</time></trkpt><trkpt lat="44.362160135882746" lon="9.144981590481297"><ele>10.0</ele><time>2026-04-03T09:27:17Z</time></trkpt><trkpt lat="44.36221498390185" lon="9.144884533530126"><ele>10.0</ele><time>2026-04-03T09:27:19Z</time></trkpt><trkpt lat="44.362270719274925" lon="9.144838872115866"><ele>10.0</ele><time>2026-04-03T09:27:21Z</time></trkpt><trkpt lat="44.36232943772009" lon="9.144897260307042"><ele>10.0</ele><time>2026-04-03T09:27:23Z</time></trkpt><trkpt lat="44.362378984311256" lon="9.144976489737157"><ele>10.0</ele><time>2026-04-03T09:27:25Z</time></trkpt><trkpt lat="44.362449667598185" lon="9.144957798425585"><ele>10.0</ele><time>2026-04-03T09:27:27Z</time></trkpt><trkpt lat="44.36249295900984" lon="9.144853221193156"><ele>10.0</ele><time>2026-04-03T09:27:29Z</time></trkpt><trkpt lat="44.3625308932224" lon="9.144762334828709"><ele>10.0</ele><time>2026-04-03T09:27:31Z</time></trkpt><trkpt lat="44.36256879014473" lon="9.14466701880976"><ele>10.0</ele><time>2026-04-03T09:27:33Z</time></trkpt><trkpt lat="44.362602610952756" lon="9.144576127424621"><ele>10.0</ele><time>2026-04-03T09:27:42Z</time></trkpt><trkpt lat="44.36266398069031" lon="9.144472142980709"><ele>9.8</ele><time>2026-04-03T09:27:44Z</time></trkpt><trkpt lat="44.36264817563468" lon="9.144365777674166"><ele>9.6</ele><time>2026-04-03T09:27:46Z</time></trkpt><trkpt lat="44.36250123320281" lon="9.14433689344253"><ele>9.4</ele><time>2026-04-03T09:27:47Z</time></trkpt><trkpt lat="44.36241968806316" lon="9.144333914099555"><ele>9.2</ele><time>2026-04-03T09:27:48Z</time></trkpt><trkpt lat="44.36235174632403" lon="9.144285071206859"><ele>9.0</ele><time>2026-04-03T09:27:49Z</time></trkpt><trkpt lat="44.362285212804025" lon="9.144250319324492"><ele>9.0</ele><time>2026-04-03T09:27:50Z</time></trkpt><trkpt lat="44.362187168070534" lon="9.14418565357544"><ele>9.0</ele><time>2026-04-03T09:27:52Z</time></trkpt><trkpt lat="44.362128745692274" lon="9.144146255281616"><ele>9.0</ele><time>2026-04-03T09:27:54Z</time></trkpt><trkpt lat="44.36205618219004" lon="9.144116320777657"><ele>9.0</ele><time>2026-04-03T09:27:57Z</time></trkpt><trkpt lat="44.36196975981639" lon="9.144059574385489"><ele>9.0</ele><time>2026-04-03T09:28:09Z</time></trkpt><trkpt lat="44.36188958006592" lon="9.14400272406581"><ele>9.0</ele><time>2026-04-03T09:28:10Z</time></trkpt><trkpt lat="44.36179578866989" lon="9.143948317019463"><ele>9.0</ele><time>2026-04-03T09:28:11Z</time></trkpt><trkpt lat="44.361700905837935" lon="9.14388847418311"><ele>9.0</ele><time>2026-04-03T09:28:12Z</time></trkpt><trkpt lat="44.36161426922017" lon="9.143835553701447"><ele>9.0</ele><time>2026-04-03T09:28:13Z</time></trkpt><trkpt lat="44.36153989201401" lon="9.143783263879477"><ele>9.0</ele><time>2026-04-03T09:28:14Z</time></trkpt><trkpt lat="44.36147894674351" lon="9.143731654891983"><ele>9.0</ele><time>2026-04-03T09:28:15Z</time></trkpt><trkpt lat="44.36140012181195" lon="9.143621801071058"><ele>9.5</ele><time>2026-04-03T09:28:20Z</time></trkpt><trkpt lat="44.361324561843176" lon="9.143630235049976"><ele>10.0</ele><time>2026-04-03T09:28:21.999Z</time></trkpt><trkpt lat="44.36129164701751" lon="9.143756202386793"><ele>10.5</ele><time>2026-04-03T09:28:23.999Z</time></trkpt><trkpt lat="44.36128456543988" lon="9.143866515051986"><ele>11.0</ele><time>2026-04-03T09:28:25.999Z</time></trkpt><trkpt lat="44.36124151314999" lon="9.144004182433731"><ele>11.5</ele><time>2026-04-03T09:28:27.999Z</time></trkpt><trkpt lat="44.36120695332717" lon="9.14409377710747"><ele>12.0</ele><time>2026-04-03T09:28:28.999Z</time></trkpt><trkpt lat="44.36117163482566" lon="9.144194901542361"><ele>13.333333333333334</ele><time>2026-04-03T09:28:29.999Z</time></trkpt><trkpt lat="44.36113478452123" lon="9.144312158667441"><ele>14.666666666666668</ele><time>2026-04-03T09:28:30.999Z</time></trkpt><trkpt lat="44.3611002197677" lon="9.144411425746682"><ele>16.0</ele><time>2026-04-03T09:28:31.999Z</time></trkpt><trkpt lat="44.36106860381612" lon="9.14450764866645"><ele>17.333333333333336</ele><time>2026-04-03T09:28:32.999Z</time></trkpt><trkpt lat="44.36103044392826" lon="9.144614053515781"><ele>18.666666666666668</ele><time>2026-04-03T09:28:33.999Z</time></trkpt><trkpt lat="44.36099079574355" lon="9.14472045247041"><ele>20.0</ele><time>2026-04-03T09:28:34.999Z</time></trkpt><trkpt lat="44.36094490979503" lon="9.14484218545046"><ele>18.8</ele><time>2026-04-03T09:28:35.999Z</time></trkpt><trkpt lat="44.360884413848815" lon="9.144957905187773"><ele>17.6</ele><time>2026-04-03T09:28:36.999Z</time></trkpt><trkpt lat="44.360805126750556" lon="9.145045308805951"><ele>16.4</ele><time>2026-04-03T09:28:37.999Z</time></trkpt><trkpt lat="44.36071220685117" lon="9.145096497029318"><ele>15.2</ele><time>2026-04-03T09:28:38.999Z</time></trkpt><trkpt lat="44.36061380962946" lon="9.145124983764388"><ele>14.0</ele><time>2026-04-03T09:28:39.999Z</time></trkpt><trkpt lat="44.36051745879826" lon="9.145181700098622"><ele>19.75</ele><time>2026-04-03T09:28:40.999Z</time></trkpt><trkpt lat="44.36041359893139" lon="9.14524494658332"><ele>25.5</ele><time>2026-04-03T09:28:41.999Z</time></trkpt><trkpt lat="44.36031066889465" lon="9.145315818014474"><ele>31.25</ele><time>2026-04-03T09:28:42.999Z</time></trkpt><trkpt lat="44.36021185728075" lon="9.145399512678374"><ele>37.0</ele><time>2026-04-03T09:28:43.999Z</time></trkpt><trkpt lat="44.36010977098109" lon="9.145478359119034"><ele>37.0</ele><time>2026-04-03T09:28:44.999Z</time></trkpt><trkpt lat="44.3600073932615" lon="9.145555089833161"><ele>37.0</ele><time>2026-04-03T09:28:45.999Z</time></trkpt><trkpt lat="44.35991105973642" lon="9.14563366081019"><ele>37.0</ele><time>2026-04-03T09:28:46.999Z</time></trkpt><trkpt lat="44.35982426489417" lon="9.145706233187246"><ele>37.0</ele><time>2026-04-03T09:28:47.999Z</time></trkpt><trkpt lat="44.35974912617886" lon="9.14577572515288"><ele>37.0</ele><time>2026-04-03T09:28:48.999Z</time></trkpt><trkpt lat="44.35967350726165" lon="9.145843664955512"><ele>37.333333333333336</ele><time>2026-04-03T09:28:49.999Z</time></trkpt><trkpt lat="44.35960376935355" lon="9.145914964928707"><ele>37.66666666666667</ele><time>2026-04-03T09:28:50.999Z</time></trkpt><trkpt lat="44.35954703730521" lon="9.146001277352973"><ele>38.0</ele><time>2026-04-03T09:28:51.999Z</time></trkpt><trkpt lat="44.359501672501125" lon="9.146106556552537"><ele>38.333333333333336</ele><time>2026-04-03T09:28:52.999Z</time></trkpt><trkpt lat="44.35945769209036" lon="9.146203329276208"><ele>38.666666666666664</ele><time>2026-04-03T09:28:53.999Z</time></trkpt><trkpt lat="44.359453361136154" lon="9.146316625568488"><ele>39.0</ele><time>2026-04-03T09:28:54.999Z</time></trkpt><trkpt lat="44.359426961960665" lon="9.146415168011567"><ele>39.0</ele><time>2026-04-03T09:28:55.999Z</time></trkpt><trkpt lat="44.35938773133123" lon="9.146513863211473"><ele>39.0</ele><time>2026-04-03T09:28:56.999Z</time></trkpt><trkpt lat="44.35934092994448" lon="9.146607171714935"><ele>39.0</ele><time>2026-04-03T09:28:57.999Z</time></trkpt><trkpt lat="44.35928828907851" lon="9.146691257933965"><ele>39.0</ele><time>2026-04-03T09:28:58.999Z</time></trkpt><trkpt lat="44.35922398804085" lon="9.146765133076318"><ele>39.0</ele><time>2026-04-03T09:28:59.999Z</time></trkpt><trkpt lat="44.3591499642175" lon="9.146828813387057"><ele>39.0</ele><time>2026-04-03T09:29:00.999Z</time></trkpt><trkpt lat="44.359076955799004" lon="9.146892744014982"><ele>38.0</ele><time>2026-04-03T09:29:01.999Z</time></trkpt><trkpt lat="44.359006927290004" lon="9.146968197666121"><ele>37.0</ele><time>2026-04-03T09:29:03Z</time></trkpt><trkpt lat="44.35894844537403" lon="9.147060605201604"><ele>36.0</ele><time>2026-04-03T09:29:04Z</time></trkpt><trkpt lat="44.35890753304764" lon="9.14717356287521"><ele>35.0</ele><time>2026-04-03T09:29:05Z</time></trkpt><trkpt lat="44.35888024860785" lon="9.147289743372799"><ele>34.0</ele><time>2026-04-03T09:29:06Z</time></trkpt><trkpt lat="44.35884501314495" lon="9.147398303300301"><ele>33.0</ele><time>2026-04-03T09:29:07Z</time></trkpt><trkpt lat="44.358840612920496" lon="9.14751821820581"><ele>37.5</ele><time>2026-04-03T09:29:08Z</time></trkpt><trkpt lat="44.358823860915834" lon="9.14763151874992"><ele>42.0</ele><time>2026-04-03T09:29:09Z</time></trkpt><trkpt lat="44.35880958357971" lon="9.147740812732865"><ele>46.5</ele><time>2026-04-03T09:29:10Z</time></trkpt><trkpt lat="44.358793555243835" lon="9.147841061352864"><ele>51.0</ele><time>2026-04-03T09:29:11Z</time></trkpt><trkpt lat="44.35877858417864" lon="9.1479344623509"><ele>55.5</ele><time>2026-04-03T09:29:12Z</time></trkpt><trkpt lat="44.358763331814" lon="9.148077804148008"><ele>60.0</ele><time>2026-04-03T09:29:14Z</time></trkpt><trkpt lat="44.358721874953154" lon="9.14818574339969"><ele>60.0</ele><time>2026-04-03T09:29:16Z</time></trkpt><trkpt lat="44.358635893139684" lon="9.148179553898956"><ele>60.0</ele><time>2026-04-03T09:29:18Z</time></trkpt><trkpt lat="44.358603148491966" lon="9.14803903440204"><ele>60.0</ele><time>2026-04-03T09:29:20Z</time></trkpt><trkpt lat="44.35860907406353" lon="9.147922607369265"><ele>60.0</ele><time>2026-04-03T09:29:21Z</time></trkpt><trkpt lat="44.358616086321916" lon="9.1478003161299"><ele>60.0</ele><time>2026-04-03T09:29:22Z</time></trkpt><trkpt lat="44.35862718958933" lon="9.147672881530948"><ele>60.0</ele><time>2026-04-03T09:29:23Z</time></trkpt><trkpt lat="44.35864217468701" lon="9.147544452410624"><ele>60.0</ele><time>2026-04-03T09:29:24Z</time></trkpt><trkpt lat="44.35865931111067" lon="9.147412823594186"><ele>60.0</ele><time>2026-04-03T09:29:25Z</time></trkpt><trkpt lat="44.358675351284624" lon="9.147289452709737"><ele>60.0</ele><time>2026-04-03T09:29:26Z</time></trkpt><trkpt lat="44.35868994834067" lon="9.147166620571815"><ele>60.0</ele><time>2026-04-03T09:29:27Z</time></trkpt><trkpt lat="44.35870898346625" lon="9.14704172614017"><ele>59.166666666666664</ele><time>2026-04-03T09:29:28Z</time></trkpt><trkpt lat="44.358729440760605" lon="9.146917409668113"><ele>58.33333333333333</ele><time>2026-04-03T09:29:29Z</time></trkpt><trkpt lat="44.35874366207179" lon="9.146793633080055"><ele>57.5</ele><time>2026-04-03T09:29:30Z</time></trkpt><trkpt lat="44.3587637391048" lon="9.146680281279588"><ele>56.666666666666664</ele><time>2026-04-03T09:29:31Z</time></trkpt><trkpt lat="44.35877996782757" lon="9.146570432882664"><ele>55.83333333333333</ele><time>2026-04-03T09:29:32Z</time></trkpt><trkpt lat="44.35877968391395" lon="9.146458228364876"><ele>55.0</ele><time>2026-04-03T09:29:33Z</time></trkpt><trkpt lat="44.35875940705726" lon="9.146349257042054"><ele>53.49999999999999</ele><time>2026-04-03T09:29:34Z</time></trkpt><trkpt lat="44.35871952045654" lon="9.146245837072888"><ele>52.0</ele><time>2026-04-03T09:29:35Z</time></trkpt><trkpt lat="44.35866218019897" lon="9.146158218226653"><ele>50.5</ele><time>2026-04-03T09:29:36Z</time></trkpt><trkpt lat="44.35859516776061" lon="9.146089318625178"><ele>49.0</ele><time>2026-04-03T09:29:37Z</time></trkpt><trkpt lat="44.35852223579671" lon="9.146040990648915"><ele>47.5</ele><time>2026-04-03T09:29:38Z</time></trkpt><trkpt lat="44.3584472875356" lon="9.145994432650728"><ele>46.0</ele><time>2026-04-03T09:29:39Z</time></trkpt><trkpt lat="44.358369990786386" lon="9.14594672959569"><ele>46.0</ele><time>2026-04-03T09:29:40Z</time></trkpt><trkpt lat="44.358291429049004" lon="9.145898755990064"><ele>46.0</ele><time>2026-04-03T09:29:41Z</time></trkpt><trkpt lat="44.35821778479643" lon="9.145854370291083"><ele>46.0</ele><time>2026-04-03T09:29:42Z</time></trkpt><trkpt lat="44.358151190803106" lon="9.145822035380514"><ele>46.0</ele><time>2026-04-03T09:29:43Z</time></trkpt><trkpt lat="44.35807982192777" lon="9.145810073920234"><ele>46.0</ele><time>2026-04-03T09:29:44Z</time></trkpt><trkpt lat="44.35800491116858" lon="9.145811180582896"><ele>46.0</ele><time>2026-04-03T09:29:45Z</time></trkpt><trkpt lat="44.35792985323772" lon="9.145831801614444"><ele>45.333333333333336</ele><time>2026-04-03T09:29:46Z</time></trkpt><trkpt lat="44.35786019249792" lon="9.145878161065122"><ele>44.66666666666667</ele><time>2026-04-03T09:29:47Z</time></trkpt><trkpt lat="44.35778177867117" lon="9.14592015809472"><ele>44.0</ele><time>2026-04-03T09:29:48Z</time></trkpt><trkpt lat="44.357722383211524" lon="9.145997925610061"><ele>43.333333333333336</ele><time>2026-04-03T09:29:49Z</time></trkpt><trkpt lat="44.3576841385176" lon="9.146086108690229"><ele>42.666666666666664</ele><time>2026-04-03T09:29:50Z</time></trkpt><trkpt lat="44.35763899070048" lon="9.14616644450553"><ele>42.0</ele><time>2026-04-03T09:29:51Z</time></trkpt><trkpt lat="44.35759971497602" lon="9.146254086361258"><ele>42.0</ele><time>2026-04-03T09:29:52Z</time></trkpt><trkpt lat="44.35756139701123" lon="9.146341233664225"><ele>42.0</ele><time>2026-04-03T09:29:53Z</time></trkpt><trkpt lat="44.357521592343375" lon="9.146415957031016"><ele>42.0</ele><time>2026-04-03T09:29:54Z</time></trkpt><trkpt lat="44.35747127149942" lon="9.146480906319162"><ele>42.0</ele><time>2026-04-03T09:29:55Z</time></trkpt><trkpt lat="44.3574172874546" lon="9.146539985726935"><ele>42.0</ele><time>2026-04-03T09:29:56Z</time></trkpt><trkpt lat="44.35735678661305" lon="9.146597388656891"><ele>42.0</ele><time>2026-04-03T09:29:57Z</time></trkpt><trkpt lat="44.35728948021946" lon="9.146651006318036"><ele>42.0</ele><time>2026-04-03T09:29:58Z</time></trkpt><trkpt lat="44.35722259474467" lon="9.146708422851257"><ele>42.5</ele><time>2026-04-03T09:29:59Z</time></trkpt><trkpt lat="44.35715959160413" lon="9.146778216434697"><ele>43.0</ele><time>2026-04-03T09:30:00Z</time></trkpt><trkpt lat="44.35710815739115" lon="9.146868352982377"><ele>43.5</ele><time>2026-04-03T09:30:01Z</time></trkpt><trkpt lat="44.3570566759484" lon="9.14695690328413"><ele>44.0</ele><time>2026-04-03T09:30:02Z</time></trkpt><trkpt lat="44.35700397202699" lon="9.147055539218838"><ele>44.5</ele><time>2026-04-03T09:30:03Z</time></trkpt><trkpt lat="44.35695344125321" lon="9.147162438451835"><ele>45.0</ele><time>2026-04-03T09:30:04Z</time></trkpt><trkpt lat="44.356903755029954" lon="9.147260491533848"><ele>45.0</ele><time>2026-04-03T09:30:05Z</time></trkpt><trkpt lat="44.35685576064125" lon="9.14735591920545"><ele>45.0</ele><time>2026-04-03T09:30:06Z</time></trkpt><trkpt lat="44.356811299686846" lon="9.147453520753928"><ele>45.0</ele><time>2026-04-03T09:30:07Z</time></trkpt><trkpt lat="44.35678030116813" lon="9.147556545747655"><ele>45.0</ele><time>2026-04-03T09:30:08Z</time></trkpt><trkpt lat="44.356772157773634" lon="9.147674030318369"><ele>45.0</ele><time>2026-04-03T09:30:09Z</time></trkpt><trkpt lat="44.356773196575304" lon="9.147787604379204"><ele>45.0</ele><time>2026-04-03T09:30:10Z</time></trkpt><trkpt lat="44.35678345523568" lon="9.147904885614102"><ele>47.666666666666664</ele><time>2026-04-03T09:30:11Z</time></trkpt><trkpt lat="44.356799352187764" lon="9.148021609154156"><ele>50.33333333333333</ele><time>2026-04-03T09:30:12Z</time></trkpt><trkpt lat="44.35681649939721" lon="9.148138031458563"><ele>53.0</ele><time>2026-04-03T09:30:13Z</time></trkpt><trkpt lat="44.356829588138574" lon="9.148257664309078"><ele>55.666666666666664</ele><time>2026-04-03T09:30:14Z</time></trkpt><trkpt lat="44.356827800066895" lon="9.148382654612059"><ele>58.33333333333333</ele><time>2026-04-03T09:30:15Z</time></trkpt><trkpt lat="44.356814377079026" lon="9.148523439343563"><ele>61.0</ele><time>2026-04-03T09:30:16Z</time></trkpt><trkpt lat="44.356790610697374" lon="9.14866068560701"><ele>61.8</ele><time>2026-04-03T09:30:17Z</time></trkpt><trkpt lat="44.3567696028201" lon="9.148782906945469"><ele>62.599999999999994</ele><time>2026-04-03T09:30:18Z</time></trkpt><trkpt lat="44.35674559231105" lon="9.148895326029075"><ele>63.4</ele><time>2026-04-03T09:30:19Z</time></trkpt><trkpt lat="44.35672033773319" lon="9.148997497022386"><ele>64.2</ele><time>2026-04-03T09:30:20Z</time></trkpt><trkpt lat="44.35667879683827" lon="9.149124432140326"><ele>65.0</ele><time>2026-04-03T09:30:21Z</time></trkpt><trkpt lat="44.35664856590913" lon="9.149282142265564"><ele>67.25</ele><time>2026-04-03T09:30:22Z</time></trkpt><trkpt lat="44.356640768147834" lon="9.149462907658906"><ele>69.5</ele><time>2026-04-03T09:30:23Z</time></trkpt><trkpt lat="44.35662772384111" lon="9.14965184698528"><ele>71.75</ele><time>2026-04-03T09:30:23.999Z</time></trkpt><trkpt lat="44.356624661183375" lon="9.149840160042007"><ele>74.0</ele><time>2026-04-03T09:30:24.999Z</time></trkpt><trkpt lat="44.356624593302136" lon="9.150034032076611"><ele>76.25</ele><time>2026-04-03T09:30:25.999Z</time></trkpt><trkpt lat="44.35662685329108" lon="9.150227583541525"><ele>78.5</ele><time>2026-04-03T09:30:26.999Z</time></trkpt><trkpt lat="44.35662636431217" lon="9.150414157072563"><ele>80.75</ele><time>2026-04-03T09:30:27.999Z</time></trkpt><trkpt lat="44.35662395533294" lon="9.150602693507572"><ele>83.0</ele><time>2026-04-03T09:30:28.999Z</time></trkpt><trkpt lat="44.35662181523345" lon="9.150789188259855"><ele>84.0</ele><time>2026-04-03T09:30:29.999Z</time></trkpt><trkpt lat="44.35662251986111" lon="9.150976600814168"><ele>85.0</ele><time>2026-04-03T09:30:30.999Z</time></trkpt><trkpt lat="44.35661912635429" lon="9.151160122389184"><ele>86.0</ele><time>2026-04-03T09:30:31.999Z</time></trkpt><trkpt lat="44.35660805484881" lon="9.151342000116118"><ele>87.0</ele><time>2026-04-03T09:30:32.999Z</time></trkpt><trkpt lat="44.35658309002836" lon="9.151513058194347"><ele>88.0</ele><time>2026-04-03T09:30:33.999Z</time></trkpt><trkpt lat="44.35654976504008" lon="9.151679021842023"><ele>89.0</ele><time>2026-04-03T09:30:34.999Z</time></trkpt><trkpt lat="44.356517834108445" lon="9.151840874070786"><ele>90.0</ele><time>2026-04-03T09:30:35.999Z</time></trkpt><trkpt lat="44.35650667783329" lon="9.152002348495246"><ele>91.0</ele><time>2026-04-03T09:30:36.999Z</time></trkpt><trkpt lat="44.35651816248631" lon="9.152171777541474"><ele>91.0</ele><time>2026-04-03T09:30:37.999Z</time></trkpt><trkpt lat="44.35653000453128" lon="9.152340011839467"><ele>91.0</ele><time>2026-04-03T09:30:38.999Z</time></trkpt><trkpt lat="44.35653883476387" lon="9.152513163134202"><ele>91.0</ele><time>2026-04-03T09:30:39.999Z</time></trkpt><trkpt lat="44.35653713148312" lon="9.15268876017111"><ele>91.0</ele><time>2026-04-03T09:30:40.999Z</time></trkpt><trkpt lat="44.356516184844494" lon="9.152860744370926"><ele>93.0</ele><time>2026-04-03T09:30:41.999Z</time></trkpt><trkpt lat="44.3564967639172" lon="9.153043829599586"><ele>95.0</ele><time>2026-04-03T09:30:42.999Z</time></trkpt><trkpt lat="44.35647787235522" lon="9.153230616659725"><ele>97.0</ele><time>2026-04-03T09:30:43.999Z</time></trkpt><trkpt lat="44.35646402266416" lon="9.153423174083175"><ele>99.0</ele><time>2026-04-03T09:30:44.999Z</time></trkpt><trkpt lat="44.35645344873394" lon="9.153615469259428"><ele>98.5</ele><time>2026-04-03T09:30:45.999Z</time></trkpt><trkpt lat="44.35643665207636" lon="9.153805782943191"><ele>98.0</ele><time>2026-04-03T09:30:46.999Z</time></trkpt><trkpt lat="44.35641429632616" lon="9.153992362856982"><ele>97.5</ele><time>2026-04-03T09:30:47.999Z</time></trkpt><trkpt lat="44.35638449773375" lon="9.154174796984748"><ele>97.0</ele><time>2026-04-03T09:30:48.999Z</time></trkpt><trkpt lat="44.3563389616006" lon="9.154349526902973"><ele>97.0</ele><time>2026-04-03T09:30:49.999Z</time></trkpt><trkpt lat="44.35627602556674" lon="9.154509879202426"><ele>97.0</ele><time>2026-04-03T09:30:50.999Z</time></trkpt><trkpt lat="44.356211831398426" lon="9.154664899233527"><ele>97.0</ele><time>2026-04-03T09:30:51.999Z</time></trkpt><trkpt lat="44.3561491175503" lon="9.154818844275301"><ele>97.0</ele><time>2026-04-03T09:30:52.999Z</time></trkpt><trkpt lat="44.35608161701606" lon="9.154966492286865"><ele>101.0</ele><time>2026-04-03T09:30:53.999Z</time></trkpt><trkpt lat="44.35600429754725" lon="9.155098710152568"><ele>105.0</ele><time>2026-04-03T09:30:54.999Z</time></trkpt><trkpt lat="44.355919888384015" lon="9.155214008014834"><ele>108.99999999999999</ele><time>2026-04-03T09:30:55.999Z</time></trkpt><trkpt lat="44.355847383911595" lon="9.155315189398328"><ele>113.0</ele><time>2026-04-03T09:30:56.999Z</time></trkpt><trkpt lat="44.35577614128403" lon="9.155405216977224"><ele>117.0</ele><time>2026-04-03T09:30:57.999Z</time></trkpt><trkpt lat="44.355705140708096" lon="9.155471428187852"><ele>117.0</ele><time>2026-04-03T09:30:58.999Z</time></trkpt><trkpt lat="44.35563749707469" lon="9.155504488433316"><ele>116.99999999999999</ele><time>2026-04-03T09:30:59.999Z</time></trkpt><trkpt lat="44.35553373770996" lon="9.155495264459121"><ele>116.99999999999999</ele><time>2026-04-03T09:31:01.999Z</time></trkpt><trkpt lat="44.3554575375284" lon="9.155440008399536"><ele>117.0</ele><time>2026-04-03T09:31:03.999Z</time></trkpt><trkpt lat="44.355389349475644" lon="9.155334017800044"><ele>117.0</ele><time>2026-04-03T09:31:05.999Z</time></trkpt><trkpt lat="44.35534699917611" lon="9.155181886993333"><ele>117.0</ele><time>2026-04-03T09:31:07.999Z</time></trkpt><trkpt lat="44.35530707865935" lon="9.155039999417442"><ele>116.99999999999999</ele><time>2026-04-03T09:31:10Z</time></trkpt><trkpt lat="44.35525244622031" lon="9.154945327375597"><ele>116.99999999999999</ele><time>2026-04-03T09:31:12Z</time></trkpt><trkpt lat="44.35518235419784" lon="9.154792777679335"><ele>117.0</ele><time>2026-04-03T09:31:14Z</time></trkpt><trkpt lat="44.355120250677636" lon="9.15469771353722"><ele>117.0</ele><time>2026-04-03T09:31:15Z</time></trkpt><trkpt lat="44.35503359268039" lon="9.1546041350804"><ele>117.0</ele><time>2026-04-03T09:31:16Z</time></trkpt><trkpt lat="44.35494979459064" lon="9.154454158566065"><ele>117.0</ele><time>2026-04-03T09:31:17Z</time></trkpt><trkpt lat="44.35485715290903" lon="9.15431724973793"><ele>117.0</ele><time>2026-04-03T09:31:18Z</time></trkpt><trkpt lat="44.35477828577077" lon="9.154219150912157"><ele>117.0</ele><time>2026-04-03T09:31:19Z</time></trkpt><trkpt lat="44.35469869431418" lon="9.154157135883992"><ele>118.19999999999999</ele><time>2026-04-03T09:31:20Z</time></trkpt><trkpt lat="44.35460369883143" lon="9.154132493233632"><ele>119.39999999999999</ele><time>2026-04-03T09:31:21Z</time></trkpt><trkpt lat="44.35451021997058" lon="9.15416269510983"><ele>120.60000000000001</ele><time>2026-04-03T09:31:22Z</time></trkpt><trkpt lat="44.35442028552895" lon="9.154223223015528"><ele>121.80000000000001</ele><time>2026-04-03T09:31:23Z</time></trkpt><trkpt lat="44.35433175461868" lon="9.15431020713082"><ele>123.0</ele><time>2026-04-03T09:31:24Z</time></trkpt><trkpt lat="44.35423969771121" lon="9.154398073265314"><ele>123.0</ele><time>2026-04-03T09:31:25Z</time></trkpt><trkpt lat="44.35414220800187" lon="9.154492683407197"><ele>123.0</ele><time>2026-04-03T09:31:26Z</time></trkpt><trkpt lat="44.35404346373714" lon="9.154582730904684"><ele>123.0</ele><time>2026-04-03T09:31:27Z</time></trkpt><trkpt lat="44.35394309502523" lon="9.154677491969098"><ele>123.0</ele><time>2026-04-03T09:31:28Z</time></trkpt><trkpt lat="44.353842592446284" lon="9.154765511990114"><ele>124.25</ele><time>2026-04-03T09:31:29Z</time></trkpt><trkpt lat="44.353742712242365" lon="9.154853985377695"><ele>125.5</ele><time>2026-04-03T09:31:30Z</time></trkpt><trkpt lat="44.35365004548543" lon="9.154950125162756"><ele>126.75</ele><time>2026-04-03T09:31:31Z</time></trkpt><trkpt lat="44.35356299903819" lon="9.155051752292929"><ele>128.0</ele><time>2026-04-03T09:31:32Z</time></trkpt><trkpt lat="44.353481795120466" lon="9.155153750939569"><ele>128.0</ele><time>2026-04-03T09:31:33Z</time></trkpt><trkpt lat="44.353411486367605" lon="9.1552581195847"><ele>128.0</ele><time>2026-04-03T09:31:34Z</time></trkpt><trkpt lat="44.35335443465769" lon="9.155368774155175"><ele>128.0</ele><time>2026-04-03T09:31:35Z</time></trkpt><trkpt lat="44.35330168195062" lon="9.155478922491893"><ele>128.0</ele><time>2026-04-03T09:31:36Z</time></trkpt><trkpt lat="44.353238942194075" lon="9.155576580981627"><ele>128.0</ele><time>2026-04-03T09:31:37Z</time></trkpt><trkpt lat="44.35316908596532" lon="9.155653350435035"><ele>128.6</ele><time>2026-04-03T09:31:38Z</time></trkpt><trkpt lat="44.353095786669364" lon="9.155714546663168"><ele>129.20000000000002</ele><time>2026-04-03T09:31:39Z</time></trkpt><trkpt lat="44.35302412320766" lon="9.155766897292898"><ele>129.8</ele><time>2026-04-03T09:31:40Z</time></trkpt><trkpt lat="44.352952307751906" lon="9.15582641251864"><ele>130.4</ele><time>2026-04-03T09:31:41Z</time></trkpt><trkpt lat="44.35285532739058" lon="9.155888470433704"><ele>131.0</ele><time>2026-04-03T09:31:42Z</time></trkpt><trkpt lat="44.35274952074489" lon="9.155992158486793"><ele>131.0</ele><time>2026-04-03T09:31:43Z</time></trkpt><trkpt lat="44.3526334132209" lon="9.156128907269235"><ele>131.0</ele><time>2026-04-03T09:31:44Z</time></trkpt><trkpt lat="44.35250510472725" lon="9.156296176178408"><ele>131.0</ele><time>2026-04-03T09:31:45Z</time></trkpt><trkpt lat="44.35239524370552" lon="9.15645035233322"><ele>134.4</ele><time>2026-04-03T09:31:46Z</time></trkpt><trkpt lat="44.352303149865136" lon="9.156581344632936"><ele>137.8</ele><time>2026-04-03T09:31:47Z</time></trkpt><trkpt lat="44.35224147919218" lon="9.156701594831468"><ele>141.20000000000002</ele><time>2026-04-03T09:31:48Z</time></trkpt><trkpt lat="44.352173155886334" lon="9.156768730691466"><ele>144.6</ele><time>2026-04-03T09:31:49Z</time></trkpt><trkpt lat="44.352103045568164" lon="9.156817540983491"><ele>148.0</ele><time>2026-04-03T09:31:50Z</time></trkpt><trkpt lat="44.352007075335536" lon="9.156845972471462"><ele>148.0</ele><time>2026-04-03T09:31:51Z</time></trkpt><trkpt lat="44.35189608584557" lon="9.156783613772577"><ele>148.0</ele><time>2026-04-03T09:31:52Z</time></trkpt><trkpt lat="44.35179211282303" lon="9.156711835638175"><ele>148.0</ele><time>2026-04-03T09:31:53Z</time></trkpt><trkpt lat="44.351679838622225" lon="9.156661086461336"><ele>148.0</ele><time>2026-04-03T09:31:54Z</time></trkpt><trkpt lat="44.351567048937" lon="9.156641701287322"><ele>148.0</ele><time>2026-04-03T09:31:55Z</time></trkpt><trkpt lat="44.35144651241592" lon="9.15670696102289"><ele>148.0</ele><time>2026-04-03T09:31:56Z</time></trkpt><trkpt lat="44.351340087479755" lon="9.15683675178313"><ele>148.0</ele><time>2026-04-03T09:31:57Z</time></trkpt><trkpt lat="44.351235484402245" lon="9.156988629677443"><ele>148.0</ele><time>2026-04-03T09:31:58Z</time></trkpt><trkpt lat="44.35111453432901" lon="9.15714051941875"><ele>142.0</ele><time>2026-04-03T09:31:59Z</time></trkpt><trkpt lat="44.350985812523284" lon="9.157266807036507"><ele>136.0</ele><time>2026-04-03T09:32:00Z</time></trkpt><trkpt lat="44.350857274721776" lon="9.157390075595844"><ele>130.0</ele><time>2026-04-03T09:32:01Z</time></trkpt><trkpt lat="44.35073046096253" lon="9.15751433574177"><ele>131.5</ele><time>2026-04-03T09:32:02Z</time></trkpt><trkpt lat="44.35060563488072" lon="9.157644510789344"><ele>133.0</ele><time>2026-04-03T09:32:03Z</time></trkpt><trkpt lat="44.3504900784023" lon="9.157755924818606"><ele>134.5</ele><time>2026-04-03T09:32:04Z</time></trkpt><trkpt lat="44.350373859602385" lon="9.157867257599369"><ele>136.0</ele><time>2026-04-03T09:32:05Z</time></trkpt><trkpt lat="44.35026173576357" lon="9.157984290089463"><ele>136.0</ele><time>2026-04-03T09:32:06Z</time></trkpt><trkpt lat="44.35016918861064" lon="9.158117848316977"><ele>136.0</ele><time>2026-04-03T09:32:07Z</time></trkpt><trkpt lat="44.35010388039891" lon="9.158274946224747"><ele>136.0</ele><time>2026-04-03T09:32:07.999Z</time></trkpt><trkpt lat="44.3500407892731" lon="9.158436719069265"><ele>136.0</ele><time>2026-04-03T09:32:08.999Z</time></trkpt><trkpt lat="44.3499812584675" lon="9.158594717206354"><ele>143.25</ele><time>2026-04-03T09:32:09.999Z</time></trkpt><trkpt lat="44.34993337632337" lon="9.15875994367618"><ele>150.5</ele><time>2026-04-03T09:32:10.999Z</time></trkpt><trkpt lat="44.3499011588896" lon="9.15893220057062"><ele>157.75</ele><time>2026-04-03T09:32:11.999Z</time></trkpt><trkpt lat="44.34987834961018" lon="9.1591074411412"><ele>165.0</ele><time>2026-04-03T09:32:12.999Z</time></trkpt><trkpt lat="44.34985543375563" lon="9.159279736425768"><ele>169.25</ele><time>2026-04-03T09:32:13.999Z</time></trkpt><trkpt lat="44.349835432236844" lon="9.159449459377369"><ele>173.5</ele><time>2026-04-03T09:32:14.999Z</time></trkpt><trkpt lat="44.349822693095554" lon="9.159619627004453"><ele>177.75</ele><time>2026-04-03T09:32:15.999Z</time></trkpt><trkpt lat="44.34982691474204" lon="9.159790850220544"><ele>182.0</ele><time>2026-04-03T09:32:16.999Z</time></trkpt><trkpt lat="44.34984429478702" lon="9.159960201436398"><ele>183.25</ele><time>2026-04-03T09:32:17.999Z</time></trkpt><trkpt lat="44.34986237045968" lon="9.160130564445888"><ele>184.5</ele><time>2026-04-03T09:32:18.999Z</time></trkpt><trkpt lat="44.3498738516178" lon="9.160298752922749"><ele>185.75</ele><time>2026-04-03T09:32:19.999Z</time></trkpt><trkpt lat="44.34988301027851" lon="9.160467006207822"><ele>187.0</ele><time>2026-04-03T09:32:20.999Z</time></trkpt><trkpt lat="44.349886319308034" lon="9.160635504048782"><ele>189.0</ele><time>2026-04-03T09:32:21.999Z</time></trkpt><trkpt lat="44.3498755613624" lon="9.160805490283302"><ele>191.0</ele><time>2026-04-03T09:32:22.999Z</time></trkpt><trkpt lat="44.349852169351756" lon="9.160978589264817"><ele>193.0</ele><time>2026-04-03T09:32:23.999Z</time></trkpt><trkpt lat="44.34981671434062" lon="9.161149872231242"><ele>195.0</ele><time>2026-04-03T09:32:24.999Z</time></trkpt><trkpt lat="44.34976881812589" lon="9.161321593819268"><ele>195.0</ele><time>2026-04-03T09:32:25.999Z</time></trkpt><trkpt lat="44.349725437228024" lon="9.161498683098916"><ele>195.0</ele><time>2026-04-03T09:32:26.999Z</time></trkpt><trkpt lat="44.3496841265143" lon="9.16167711179379"><ele>195.0</ele><time>2026-04-03T09:32:27.999Z</time></trkpt><trkpt lat="44.3496252424046" lon="9.161841398468383"><ele>195.0</ele><time>2026-04-03T09:32:28.999Z</time></trkpt><trkpt lat="44.3495342718482" lon="9.161976971991159"><ele>197.0</ele><time>2026-04-03T09:32:29.999Z</time></trkpt><trkpt lat="44.34940241270501" lon="9.162055951351446"><ele>199.0</ele><time>2026-04-03T09:32:30.999Z</time></trkpt><trkpt lat="44.349264985059804" lon="9.162143633115232"><ele>201.0</ele><time>2026-04-03T09:32:31.999Z</time></trkpt><trkpt lat="44.349144978673365" lon="9.16227432262112"><ele>203.0</ele><time>2026-04-03T09:32:32.999Z</time></trkpt><trkpt lat="44.349032077999006" lon="9.162443987742472"><ele>203.0</ele><time>2026-04-03T09:32:33.999Z</time></trkpt><trkpt lat="44.34892052685315" lon="9.162606547303076"><ele>203.0</ele><time>2026-04-03T09:32:34.999Z</time></trkpt><trkpt lat="44.34881080133145" lon="9.162756132189358"><ele>203.0</ele><time>2026-04-03T09:32:35.999Z</time></trkpt><trkpt lat="44.34872789830802" lon="9.16292433415898"><ele>196.33333333333334</ele><time>2026-04-03T09:32:36.999Z</time></trkpt><trkpt lat="44.34867372648351" lon="9.16312682217448"><ele>189.66666666666669</ele><time>2026-04-03T09:32:37.999Z</time></trkpt><trkpt lat="44.34863627272153" lon="9.16334116761035"><ele>183.0</ele><time>2026-04-03T09:32:38.999Z</time></trkpt><trkpt lat="44.34859447370039" lon="9.163548227123423"><ele>183.0</ele><time>2026-04-03T09:32:39.999Z</time></trkpt><trkpt lat="44.34854782444961" lon="9.163746204797969"><ele>183.0</ele><time>2026-04-03T09:32:40.999Z</time></trkpt><trkpt lat="44.348508662522605" lon="9.163937412190107"><ele>183.0</ele><time>2026-04-03T09:32:41.999Z</time></trkpt><trkpt lat="44.348479717681045" lon="9.164133360539351"><ele>183.0</ele><time>2026-04-03T09:32:42.999Z</time></trkpt><trkpt lat="44.34846074532439" lon="9.164329557791046"><ele>187.25</ele><time>2026-04-03T09:32:43.999Z</time></trkpt><trkpt lat="44.34843527774983" lon="9.164520088158902"><ele>191.5</ele><time>2026-04-03T09:32:44.999Z</time></trkpt><trkpt lat="44.34839716503489" lon="9.164702288054015"><ele>195.75</ele><time>2026-04-03T09:32:45.999Z</time></trkpt><trkpt lat="44.34835211371412" lon="9.164873363176877"><ele>200.0</ele><time>2026-04-03T09:32:46.999Z</time></trkpt><trkpt lat="44.348300846569416" lon="9.165019557676722"><ele>201.8</ele><time>2026-04-03T09:32:47.999Z</time></trkpt><trkpt lat="44.34824845536335" lon="9.165152269506825"><ele>203.6</ele><time>2026-04-03T09:32:48.999Z</time></trkpt><trkpt lat="44.34819873863212" lon="9.165291889714236"><ele>205.39999999999998</ele><time>2026-04-03T09:32:49.999Z</time></trkpt><trkpt lat="44.348149740465" lon="9.165432388669622"><ele>207.2</ele><time>2026-04-03T09:32:50.999Z</time></trkpt><trkpt lat="44.3481003565508" lon="9.16557344725948"><ele>209.0</ele><time>2026-04-03T09:32:51.999Z</time></trkpt><trkpt lat="44.348048862613005" lon="9.165717243276058"><ele>204.5</ele><time>2026-04-03T09:32:52.999Z</time></trkpt><trkpt lat="44.34799568298203" lon="9.165862496210858"><ele>200.0</ele><time>2026-04-03T09:32:53.999Z</time></trkpt><trkpt lat="44.34794527560569" lon="9.166008731256893"><ele>195.5</ele><time>2026-04-03T09:32:54.999Z</time></trkpt><trkpt lat="44.34789849089391" lon="9.1661549642751"><ele>191.0</ele><time>2026-04-03T09:32:55.999Z</time></trkpt><trkpt lat="44.34784820843114" lon="9.166297615478747"><ele>191.0</ele><time>2026-04-03T09:32:56.999Z</time></trkpt><trkpt lat="44.34780338577606" lon="9.166442980372906"><ele>191.0</ele><time>2026-04-03T09:32:57.999Z</time></trkpt><trkpt lat="44.34777003380693" lon="9.166594133630277"><ele>191.0</ele><time>2026-04-03T09:32:58.999Z</time></trkpt><trkpt lat="44.34774997569273" lon="9.166755879619615"><ele>191.0</ele><time>2026-04-03T09:32:59.999Z</time></trkpt><trkpt lat="44.34772547081228" lon="9.166912189083925"><ele>194.0</ele><time>2026-04-03T09:33:00.999Z</time></trkpt><trkpt lat="44.34769679624381" lon="9.167063169110765"><ele>197.0</ele><time>2026-04-03T09:33:01.999Z</time></trkpt><trkpt lat="44.34765261344015" lon="9.16720417239906"><ele>200.0</ele><time>2026-04-03T09:33:02.999Z</time></trkpt><trkpt lat="44.34759897645665" lon="9.167336103482127"><ele>203.0</ele><time>2026-04-03T09:33:03.999Z</time></trkpt><trkpt lat="44.34754539317055" lon="9.16746515069324"><ele>206.0</ele><time>2026-04-03T09:33:04.999Z</time></trkpt><trkpt lat="44.34749721547543" lon="9.16759626352787"><ele>209.20000000000002</ele><time>2026-04-03T09:33:05.999Z</time></trkpt><trkpt lat="44.34744473622134" lon="9.16772273740006"><ele>212.4</ele><time>2026-04-03T09:33:06.999Z</time></trkpt><trkpt lat="44.34739151252585" lon="9.167846672556076"><ele>215.6</ele><time>2026-04-03T09:33:07.999Z</time></trkpt><trkpt lat="44.347341527461104" lon="9.167971000424592"><ele>218.8</ele><time>2026-04-03T09:33:08.999Z</time></trkpt><trkpt lat="44.34729449062126" lon="9.168085368334538"><ele>222.0</ele><time>2026-04-03T09:33:09.999Z</time></trkpt><trkpt lat="44.347241000839475" lon="9.16819656393785"><ele>221.0</ele><time>2026-04-03T09:33:10.999Z</time></trkpt><trkpt lat="44.34717990579108" lon="9.168302427573972"><ele>220.0</ele><time>2026-04-03T09:33:11.999Z</time></trkpt><trkpt lat="44.34710699771136" lon="9.168394984490506"><ele>219.0</ele><time>2026-04-03T09:33:12.999Z</time></trkpt><trkpt lat="44.347035869652004" lon="9.168488662505123"><ele>218.0</ele><time>2026-04-03T09:33:13.999Z</time></trkpt><trkpt lat="44.34695967152514" lon="9.168574983571515"><ele>217.0</ele><time>2026-04-03T09:33:15Z</time></trkpt><trkpt lat="44.34687739523496" lon="9.168654113486518"><ele>217.0</ele><time>2026-04-03T09:33:16Z</time></trkpt><trkpt lat="44.3468045209407" lon="9.168742767198706"><ele>217.0</ele><time>2026-04-03T09:33:17Z</time></trkpt><trkpt lat="44.34673137853766" lon="9.168827447149999"><ele>217.0</ele><time>2026-04-03T09:33:18Z</time></trkpt><trkpt lat="44.346657321688575" lon="9.168908351819335"><ele>217.0</ele><time>2026-04-03T09:33:19Z</time></trkpt><trkpt lat="44.34658379028766" lon="9.168999161240142"><ele>217.0</ele><time>2026-04-03T09:33:20Z</time></trkpt><trkpt lat="44.34651168025852" lon="9.169082196127109"><ele>220.0</ele><time>2026-04-03T09:33:21Z</time></trkpt><trkpt lat="44.3464349693394" lon="9.16916229744098"><ele>223.0</ele><time>2026-04-03T09:33:22Z</time></trkpt><trkpt lat="44.34635610265914" lon="9.16924353011841"><ele>226.0</ele><time>2026-04-03T09:33:23Z</time></trkpt><trkpt lat="44.34627756204454" lon="9.169321093880225"><ele>229.0</ele><time>2026-04-03T09:33:24Z</time></trkpt><trkpt lat="44.34619219794247" lon="9.169379856027751"><ele>232.0</ele><time>2026-04-03T09:33:25Z</time></trkpt><trkpt lat="44.34610368345991" lon="9.169424892481896"><ele>232.0</ele><time>2026-04-03T09:33:26Z</time></trkpt><trkpt lat="44.34600676884148" lon="9.169446471961688"><ele>232.0</ele><time>2026-04-03T09:33:27Z</time></trkpt><trkpt lat="44.345909214648955" lon="9.169445213760051"><ele>232.0</ele><time>2026-04-03T09:33:28Z</time></trkpt><trkpt lat="44.345810335810704" lon="9.169432190409584"><ele>232.0</ele><time>2026-04-03T09:33:29Z</time></trkpt><trkpt lat="44.3457117513274" lon="9.169415576593094"><ele>232.0</ele><time>2026-04-03T09:33:30Z</time></trkpt><trkpt lat="44.34560805189127" lon="9.169396841585177"><ele>231.8</ele><time>2026-04-03T09:33:31Z</time></trkpt><trkpt lat="44.34550673259807" lon="9.169382764907132"><ele>231.6</ele><time>2026-04-03T09:33:32Z</time></trkpt><trkpt lat="44.34541091436453" lon="9.169374063029439"><ele>231.40000000000003</ele><time>2026-04-03T09:33:33Z</time></trkpt><trkpt lat="44.34531425767195" lon="9.169385724155164"><ele>231.20000000000002</ele><time>2026-04-03T09:33:34Z</time></trkpt><trkpt lat="44.34522204290684" lon="9.169432768206773"><ele>231.0</ele><time>2026-04-03T09:33:35Z</time></trkpt><trkpt lat="44.34513452707639" lon="9.169497438399668"><ele>231.0</ele><time>2026-04-03T09:33:36Z</time></trkpt><trkpt lat="44.34504950343725" lon="9.169574677355216"><ele>231.0</ele><time>2026-04-03T09:33:37Z</time></trkpt><trkpt lat="44.3449645302132" lon="9.16964653502628"><ele>231.0</ele><time>2026-04-03T09:33:38Z</time></trkpt><trkpt lat="44.34488707012094" lon="9.16971359725305"><ele>231.0</ele><time>2026-04-03T09:33:43Z</time></trkpt><trkpt lat="44.34483370528262" lon="9.169762349276503"><ele>231.0</ele><time>2026-04-03T09:33:44Z</time></trkpt><trkpt lat="44.34476787461259" lon="9.169817000766468"><ele>231.0</ele><time>2026-04-03T09:33:45Z</time></trkpt><trkpt lat="44.3446996512186" lon="9.169867633274706"><ele>233.83333333333334</ele><time>2026-04-03T09:33:46Z</time></trkpt><trkpt lat="44.344630706901" lon="9.169922607305436"><ele>236.66666666666669</ele><time>2026-04-03T09:33:47Z</time></trkpt><trkpt lat="44.344562953357276" lon="9.169977228656734"><ele>239.5</ele><time>2026-04-03T09:33:48Z</time></trkpt><trkpt lat="44.344498259096966" lon="9.170035396658532"><ele>242.33333333333334</ele><time>2026-04-03T09:33:49Z</time></trkpt><trkpt lat="44.34443496428148" lon="9.170090697542726"><ele>245.16666666666669</ele><time>2026-04-03T09:33:50Z</time></trkpt><trkpt lat="44.344370928384606" lon="9.170144504062938"><ele>248.0</ele><time>2026-04-03T09:33:51Z</time></trkpt><trkpt lat="44.34431203227281" lon="9.17019315301751"><ele>248.00000000000003</ele><time>2026-04-03T09:33:52Z</time></trkpt><trkpt lat="44.34420635031286" lon="9.17027546339671"><ele>248.0</ele><time>2026-04-03T09:33:54Z</time></trkpt><trkpt lat="44.34414739711932" lon="9.170318940059085"><ele>248.0</ele><time>2026-04-03T09:33:55Z</time></trkpt><trkpt lat="44.344089820746916" lon="9.170367780737754"><ele>248.0</ele><time>2026-04-03T09:33:56Z</time></trkpt><trkpt lat="44.344033740303736" lon="9.170423834677182"><ele>248.00000000000003</ele><time>2026-04-03T09:33:57Z</time></trkpt><trkpt lat="44.34397819081489" lon="9.17048027080834"><ele>248.0</ele><time>2026-04-03T09:33:58Z</time></trkpt><trkpt lat="44.34392050841635" lon="9.170538431619628"><ele>247.66666666666669</ele><time>2026-04-03T09:33:59Z</time></trkpt><trkpt lat="44.34386643694754" lon="9.170608374543582"><ele>247.33333333333334</ele><time>2026-04-03T09:34:00Z</time></trkpt><trkpt lat="44.34381792519781" lon="9.170691769245567"><ele>247.0</ele><time>2026-04-03T09:34:01Z</time></trkpt><trkpt lat="44.343780300421855" lon="9.17079855877433"><ele>246.66666666666669</ele><time>2026-04-03T09:34:02Z</time></trkpt><trkpt lat="44.34375400579438" lon="9.170910810377828"><ele>246.33333333333334</ele><time>2026-04-03T09:34:03Z</time></trkpt><trkpt lat="44.34373013767004" lon="9.171029111350832"><ele>246.0</ele><time>2026-04-03T09:34:04Z</time></trkpt><trkpt lat="44.343708304445805" lon="9.171159024382451"><ele>251.25</ele><time>2026-04-03T09:34:05Z</time></trkpt><trkpt lat="44.34367972717681" lon="9.171298389626177"><ele>256.5</ele><time>2026-04-03T09:34:06Z</time></trkpt><trkpt lat="44.34364498048526" lon="9.171456565783915"><ele>261.75</ele><time>2026-04-03T09:34:07Z</time></trkpt><trkpt lat="44.34360341540614" lon="9.171640100670455"><ele>267.0</ele><time>2026-04-03T09:34:08Z</time></trkpt><trkpt lat="44.34355610471108" lon="9.171846453494958"><ele>267.75</ele><time>2026-04-03T09:34:09Z</time></trkpt><trkpt lat="44.34351289611203" lon="9.172037448192256"><ele>268.5</ele><time>2026-04-03T09:34:10Z</time></trkpt><trkpt lat="44.343473792556814" lon="9.172215262260108"><ele>269.25</ele><time>2026-04-03T09:34:11Z</time></trkpt><trkpt lat="44.343438766938206" lon="9.17236132863588"><ele>270.0</ele><time>2026-04-03T09:34:12Z</time></trkpt><trkpt lat="44.343398181727515" lon="9.172507434241282"><ele>270.0</ele><time>2026-04-03T09:34:13Z</time></trkpt><trkpt lat="44.34337050868503" lon="9.172629439402717"><ele>270.0</ele><time>2026-04-03T09:34:14Z</time></trkpt><trkpt lat="44.343321244257645" lon="9.172735713094866"><ele>270.0</ele><time>2026-04-03T09:34:15Z</time></trkpt><trkpt lat="44.34324694623636" lon="9.172828549378218"><ele>270.0</ele><time>2026-04-03T09:34:16Z</time></trkpt><trkpt lat="44.34316502501678" lon="9.17292558661415"><ele>270.0</ele><time>2026-04-03T09:34:17Z</time></trkpt><trkpt lat="44.343079046261536" lon="9.173022516878145"><ele>267.6</ele><time>2026-04-03T09:34:18Z</time></trkpt><trkpt lat="44.3429865748573" lon="9.17310885649823"><ele>265.2</ele><time>2026-04-03T09:34:19Z</time></trkpt><trkpt lat="44.34289243765468" lon="9.173197169318106"><ele>262.8</ele><time>2026-04-03T09:34:20Z</time></trkpt><trkpt lat="44.34280486591269" lon="9.173278965033067"><ele>260.4</ele><time>2026-04-03T09:34:21Z</time></trkpt><trkpt lat="44.342721238899216" lon="9.173354385433512"><ele>258.0</ele><time>2026-04-03T09:34:22Z</time></trkpt><trkpt lat="44.34263971265743" lon="9.173425777965841"><ele>258.0</ele><time>2026-04-03T09:34:23Z</time></trkpt><trkpt lat="44.34256278225873" lon="9.173491900202668"><ele>258.0</ele><time>2026-04-03T09:34:24Z</time></trkpt><trkpt lat="44.3424830767395" lon="9.173545796330915"><ele>258.0</ele><time>2026-04-03T09:34:25Z</time></trkpt><trkpt lat="44.342390547186646" lon="9.173560697518552"><ele>258.0</ele><time>2026-04-03T09:34:26Z</time></trkpt><trkpt lat="44.342281428247496" lon="9.173540724309776"><ele>258.0</ele><time>2026-04-03T09:34:27Z</time></trkpt><trkpt lat="44.34217069194014" lon="9.173524471972067"><ele>262.5</ele><time>2026-04-03T09:34:27.999Z</time></trkpt><trkpt lat="44.342069046717626" lon="9.173543806206451"><ele>267.0</ele><time>2026-04-03T09:34:28.999Z</time></trkpt><trkpt lat="44.34197202178679" lon="9.173621164871813"><ele>271.5</ele><time>2026-04-03T09:34:29.999Z</time></trkpt><trkpt lat="44.34187962276571" lon="9.17374001823131"><ele>276.0</ele><time>2026-04-03T09:34:30.999Z</time></trkpt><trkpt lat="44.34181123133159" lon="9.17387787010073"><ele>276.0</ele><time>2026-04-03T09:34:31.999Z</time></trkpt><trkpt lat="44.341718780169586" lon="9.173988386061824"><ele>276.0</ele><time>2026-04-03T09:34:32.999Z</time></trkpt><trkpt lat="44.341626460229236" lon="9.174120032347986"><ele>276.0</ele><time>2026-04-03T09:34:33.999Z</time></trkpt><trkpt lat="44.34152039047225" lon="9.174234580874735"><ele>276.0</ele><time>2026-04-03T09:34:34.999Z</time></trkpt><trkpt lat="44.341416081535186" lon="9.174328939227825"><ele>274.25</ele><time>2026-04-03T09:34:35.999Z</time></trkpt><trkpt lat="44.34131209195449" lon="9.174404116534816"><ele>272.5</ele><time>2026-04-03T09:34:36.999Z</time></trkpt><trkpt lat="44.34121394334326" lon="9.174462533285572"><ele>270.75</ele><time>2026-04-03T09:34:37.999Z</time></trkpt><trkpt lat="44.34117029634775" lon="9.174625221306103"><ele>269.0</ele><time>2026-04-03T09:34:38.999Z</time></trkpt><trkpt lat="44.34114984126621" lon="9.174777471540452"><ele>266.0</ele><time>2026-04-03T09:34:39.999Z</time></trkpt><trkpt lat="44.34117411955535" lon="9.17493418043594"><ele>263.0</ele><time>2026-04-03T09:34:40.999Z</time></trkpt><trkpt lat="44.34124905869448" lon="9.175061972660762"><ele>260.0</ele><time>2026-04-03T09:34:41.999Z</time></trkpt><trkpt lat="44.341340652622776" lon="9.175149956178013"><ele>257.0</ele><time>2026-04-03T09:34:42.999Z</time></trkpt><trkpt lat="44.341465648057955" lon="9.175196144893924"><ele>254.5</ele><time>2026-04-03T09:34:43.999Z</time></trkpt><trkpt lat="44.341600372149585" lon="9.17521925882415"><ele>252.0</ele><time>2026-04-03T09:34:44.999Z</time></trkpt><trkpt lat="44.34173065640501" lon="9.175263631735712"><ele>249.5</ele><time>2026-04-03T09:34:45.999Z</time></trkpt><trkpt lat="44.3418633328749" lon="9.175323362569674"><ele>247.0</ele><time>2026-04-03T09:34:46.999Z</time></trkpt><trkpt lat="44.34200272343933" lon="9.175362574751174"><ele>247.0</ele><time>2026-04-03T09:34:47.999Z</time></trkpt><trkpt lat="44.342144863363" lon="9.175356562054018"><ele>247.0</ele><time>2026-04-03T09:34:48.999Z</time></trkpt><trkpt lat="44.34229134208608" lon="9.17531001366966"><ele>247.0</ele><time>2026-04-03T09:34:49.999Z</time></trkpt><trkpt lat="44.342434544847535" lon="9.175243560873085"><ele>247.0</ele><time>2026-04-03T09:34:50.999Z</time></trkpt><trkpt lat="44.34258045855475" lon="9.175192372982377"><ele>245.75</ele><time>2026-04-03T09:34:51.999Z</time></trkpt><trkpt lat="44.34272615780634" lon="9.175176005032094"><ele>244.5</ele><time>2026-04-03T09:34:52.999Z</time></trkpt><trkpt lat="44.34286549635391" lon="9.175227823345965"><ele>243.25</ele><time>2026-04-03T09:34:53.999Z</time></trkpt><trkpt lat="44.343005785849655" lon="9.175282368724638"><ele>242.0</ele><time>2026-04-03T09:34:54.999Z</time></trkpt><trkpt lat="44.343133864723995" lon="9.175394146930197"><ele>240.0</ele><time>2026-04-03T09:34:55.999Z</time></trkpt><trkpt lat="44.34324700644812" lon="9.175540787082337"><ele>238.0</ele><time>2026-04-03T09:34:56.999Z</time></trkpt><trkpt lat="44.34334286501634" lon="9.175717821100067"><ele>236.0</ele><time>2026-04-03T09:34:57.999Z</time></trkpt><trkpt lat="44.343415676417784" lon="9.175918554532903"><ele>241.33333333333334</ele><time>2026-04-03T09:34:58.999Z</time></trkpt><trkpt lat="44.343484859534755" lon="9.176127792804012"><ele>246.66666666666669</ele><time>2026-04-03T09:34:59.999Z</time></trkpt><trkpt lat="44.34356474580006" lon="9.176335330912684"><ele>252.0</ele><time>2026-04-03T09:35:00.999Z</time></trkpt><trkpt lat="44.34364961740578" lon="9.17654980396642"><ele>254.66666666666669</ele><time>2026-04-03T09:35:01.999Z</time></trkpt><trkpt lat="44.34374062602161" lon="9.176758627452346"><ele>257.33333333333337</ele><time>2026-04-03T09:35:02.999Z</time></trkpt><trkpt lat="44.34382047986846" lon="9.176951413754898"><ele>260.0</ele><time>2026-04-03T09:35:03.999Z</time></trkpt><trkpt lat="44.34389163447259" lon="9.177127066376599"><ele>260.0</ele><time>2026-04-03T09:35:04.999Z</time></trkpt><trkpt lat="44.343928260163494" lon="9.177306384395582"><ele>260.0</ele><time>2026-04-03T09:35:05.999Z</time></trkpt><trkpt lat="44.34391367288011" lon="9.177502420463314"><ele>260.0</ele><time>2026-04-03T09:35:06.999Z</time></trkpt><trkpt lat="44.34387189103076" lon="9.177709817650157"><ele>260.0</ele><time>2026-04-03T09:35:07.999Z</time></trkpt><trkpt lat="44.34383946742407" lon="9.177916120985145"><ele>260.0</ele><time>2026-04-03T09:35:08.999Z</time></trkpt><trkpt lat="44.34381723068779" lon="9.17813134550596"><ele>260.0</ele><time>2026-04-03T09:35:09.999Z</time></trkpt><trkpt lat="44.34380278770769" lon="9.178349932266205"><ele>260.0</ele><time>2026-04-03T09:35:10.999Z</time></trkpt><trkpt lat="44.343796145734316" lon="9.178570676809388"><ele>260.0</ele><time>2026-04-03T09:35:11.999Z</time></trkpt><trkpt lat="44.3437902772622" lon="9.178794296503325"><ele>260.0</ele><time>2026-04-03T09:35:12.999Z</time></trkpt><trkpt lat="44.34378055285711" lon="9.179019028170812"><ele>260.0</ele><time>2026-04-03T09:35:13.999Z</time></trkpt><trkpt lat="44.34377822671642" lon="9.179241988048833"><ele>260.0</ele><time>2026-04-03T09:35:14.999Z</time></trkpt><trkpt lat="44.343774768593526" lon="9.179463938725965"><ele>260.0</ele><time>2026-04-03T09:35:15.999Z</time></trkpt><trkpt lat="44.34376932863407" lon="9.179682463868856"><ele>260.0</ele><time>2026-04-03T09:35:16.999Z</time></trkpt><trkpt lat="44.34375930893086" lon="9.17990531546438"><ele>259.6666666666667</ele><time>2026-04-03T09:35:17.999Z</time></trkpt><trkpt lat="44.34375610503787" lon="9.180124799349729"><ele>259.3333333333333</ele><time>2026-04-03T09:35:18.999Z</time></trkpt><trkpt lat="44.343788728335156" lon="9.180343383460487"><ele>259.0</ele><time>2026-04-03T09:35:20Z</time></trkpt><trkpt lat="44.343825195634565" lon="9.180559479079749"><ele>259.66666666666663</ele><time>2026-04-03T09:35:21Z</time></trkpt><trkpt lat="44.34385232199111" lon="9.180779670931008"><ele>260.3333333333333</ele><time>2026-04-03T09:35:22Z</time></trkpt><trkpt lat="44.34384657550884" lon="9.180991527676273"><ele>261.0</ele><time>2026-04-03T09:35:23Z</time></trkpt><trkpt lat="44.343816747143826" lon="9.181210426040394"><ele>261.0</ele><time>2026-04-03T09:35:24Z</time></trkpt><trkpt lat="44.343796220268096" lon="9.181425326894534"><ele>261.0</ele><time>2026-04-03T09:35:25Z</time></trkpt><trkpt lat="44.34378255343647" lon="9.181631003164359"><ele>261.0</ele><time>2026-04-03T09:35:26Z</time></trkpt><trkpt lat="44.34376277029418" lon="9.18183791877108"><ele>259.25</ele><time>2026-04-03T09:35:27Z</time></trkpt><trkpt lat="44.34374223449649" lon="9.182041165799268"><ele>257.5</ele><time>2026-04-03T09:35:28Z</time></trkpt><trkpt lat="44.34372142522296" lon="9.182242543557365"><ele>255.75</ele><time>2026-04-03T09:35:29Z</time></trkpt><trkpt lat="44.34370194848752" lon="9.182440553194647"><ele>254.0</ele><time>2026-04-03T09:35:30Z</time></trkpt><trkpt lat="44.34368229511177" lon="9.182634939585263"><ele>251.5</ele><time>2026-04-03T09:35:31Z</time></trkpt><trkpt lat="44.34366113521777" lon="9.182829394446715"><ele>249.0</ele><time>2026-04-03T09:35:32Z</time></trkpt><trkpt lat="44.343642093787096" lon="9.18302779075005"><ele>246.5</ele><time>2026-04-03T09:35:33Z</time></trkpt><trkpt lat="44.343625839086016" lon="9.18321681631807"><ele>244.0</ele><time>2026-04-03T09:35:34Z</time></trkpt><trkpt lat="44.34359659595377" lon="9.183389311385582"><ele>243.0</ele><time>2026-04-03T09:35:35Z</time></trkpt><trkpt lat="44.343527538910564" lon="9.183518547064045"><ele>242.0</ele><time>2026-04-03T09:35:36Z</time></trkpt><trkpt lat="44.34342933402066" lon="9.183596539522766"><ele>241.0</ele><time>2026-04-03T09:35:37Z</time></trkpt><trkpt lat="44.34330411670851" lon="9.183613638237862"><ele>240.0</ele><time>2026-04-03T09:35:38Z</time></trkpt><trkpt lat="44.343182673506" lon="9.183581277420389"><ele>240.0</ele><time>2026-04-03T09:35:39Z</time></trkpt><trkpt lat="44.34306255572973" lon="9.183512871518323"><ele>240.0</ele><time>2026-04-03T09:35:40Z</time></trkpt><trkpt lat="44.34294831426003" lon="9.183439834558639"><ele>240.0</ele><time>2026-04-03T09:35:41Z</time></trkpt><trkpt lat="44.34284290243865" lon="9.183364925950832"><ele>240.0</ele><time>2026-04-03T09:35:42Z</time></trkpt><trkpt lat="44.342749240561304" lon="9.183265117383817"><ele>240.5</ele><time>2026-04-03T09:35:43Z</time></trkpt><trkpt lat="44.34266845093291" lon="9.183127897704031"><ele>241.0</ele><time>2026-04-03T09:35:44Z</time></trkpt><trkpt lat="44.34258869013335" lon="9.182984540000012"><ele>241.5</ele><time>2026-04-03T09:35:45Z</time></trkpt><trkpt lat="44.34248544657453" lon="9.182863453279145"><ele>242.0</ele><time>2026-04-03T09:35:45.999Z</time></trkpt><trkpt lat="44.342366280354035" lon="9.182756323166739"><ele>242.0</ele><time>2026-04-03T09:35:46.999Z</time></trkpt><trkpt lat="44.34225057651692" lon="9.182633595824612"><ele>242.0</ele><time>2026-04-03T09:35:47.999Z</time></trkpt><trkpt lat="44.34213367553183" lon="9.182506182740093"><ele>242.0</ele><time>2026-04-03T09:35:48.999Z</time></trkpt><trkpt lat="44.34201227471031" lon="9.182383748219902"><ele>242.0</ele><time>2026-04-03T09:35:49.999Z</time></trkpt><trkpt lat="44.34188726592684" lon="9.182266774658707"><ele>243.33333333333334</ele><time>2026-04-03T09:35:50.999Z</time></trkpt><trkpt lat="44.341750785721786" lon="9.182172167454906"><ele>244.66666666666669</ele><time>2026-04-03T09:35:51.999Z</time></trkpt><trkpt lat="44.34159592186036" lon="9.182121601747388"><ele>246.0</ele><time>2026-04-03T09:35:52.999Z</time></trkpt><trkpt lat="44.34141094014286" lon="9.18209886975387"><ele>243.66666666666669</ele><time>2026-04-03T09:35:53.999Z</time></trkpt><trkpt lat="44.34120213806636" lon="9.182072650720373"><ele>241.33333333333334</ele><time>2026-04-03T09:35:54.999Z</time></trkpt><trkpt lat="44.34099590349039" lon="9.18203999029823"><ele>239.0</ele><time>2026-04-03T09:35:55.999Z</time></trkpt><trkpt lat="44.34079249631738" lon="9.182006949045958"><ele>239.0</ele><time>2026-04-03T09:35:56.999Z</time></trkpt><trkpt lat="44.34059832709291" lon="9.181976421033168"><ele>239.0</ele><time>2026-04-03T09:35:57.999Z</time></trkpt><trkpt lat="44.34041548511673" lon="9.181945681937323"><ele>239.0</ele><time>2026-04-03T09:35:58.999Z</time></trkpt><trkpt lat="44.34024123766562" lon="9.181915395557454"><ele>237.25</ele><time>2026-04-03T09:35:59.999Z</time></trkpt><trkpt lat="44.340081027012054" lon="9.181883783380957"><ele>235.5</ele><time>2026-04-03T09:36:00.999Z</time></trkpt><trkpt lat="44.33994193531917" lon="9.181854553451748"><ele>233.75</ele><time>2026-04-03T09:36:01.999Z</time></trkpt><trkpt lat="44.33982334129407" lon="9.181834733646525"><ele>232.0</ele><time>2026-04-03T09:36:02.999Z</time></trkpt><trkpt lat="44.339708113601716" lon="9.181868554009148"><ele>231.0</ele><time>2026-04-03T09:36:03.999Z</time></trkpt><trkpt lat="44.339598383219766" lon="9.181979085818321"><ele>230.0</ele><time>2026-04-03T09:36:04.999Z</time></trkpt><trkpt lat="44.33950060681077" lon="9.182140565543376"><ele>229.0</ele><time>2026-04-03T09:36:05.999Z</time></trkpt><trkpt lat="44.339416812973525" lon="9.182325728568529"><ele>228.0</ele><time>2026-04-03T09:36:06.999Z</time></trkpt><trkpt lat="44.33936090834289" lon="9.18255133815207"><ele>228.0</ele><time>2026-04-03T09:36:07.999Z</time></trkpt><trkpt lat="44.33931141020224" lon="9.18278923685521"><ele>228.0</ele><time>2026-04-03T09:36:08.999Z</time></trkpt><trkpt lat="44.33928161785844" lon="9.183025914680773"><ele>228.0</ele><time>2026-04-03T09:36:09.999Z</time></trkpt><trkpt lat="44.33928546128401" lon="9.183250217443584"><ele>225.0</ele><time>2026-04-03T09:36:10.999Z</time></trkpt><trkpt lat="44.33930054656554" lon="9.18347016125944"><ele>222.0</ele><time>2026-04-03T09:36:11.999Z</time></trkpt><trkpt lat="44.339295997211714" lon="9.183675264187631"><ele>219.0</ele><time>2026-04-03T09:36:12.999Z</time></trkpt><trkpt lat="44.33925608119598" lon="9.183877601540576"><ele>216.0</ele><time>2026-04-03T09:36:13.999Z</time></trkpt><trkpt lat="44.33919760845687" lon="9.184083601965792"><ele>213.0</ele><time>2026-04-03T09:36:14.999Z</time></trkpt><trkpt lat="44.33915797061043" lon="9.184291762674336"><ele>210.0</ele><time>2026-04-03T09:36:15.999Z</time></trkpt><trkpt lat="44.339177535807174" lon="9.184504832115628"><ele>210.0</ele><time>2026-04-03T09:36:16.999Z</time></trkpt><trkpt lat="44.33919709247758" lon="9.184723219298817"><ele>210.0</ele><time>2026-04-03T09:36:17.999Z</time></trkpt><trkpt lat="44.339156645447105" lon="9.184927939929187"><ele>210.0</ele><time>2026-04-03T09:36:18.999Z</time></trkpt><trkpt lat="44.339093332520285" lon="9.185124829086147"><ele>207.75</ele><time>2026-04-03T09:36:19.999Z</time></trkpt><trkpt lat="44.339057762848526" lon="9.185323526235"><ele>205.5</ele><time>2026-04-03T09:36:20.999Z</time></trkpt><trkpt lat="44.339057621442976" lon="9.18552016035155"><ele>203.25</ele><time>2026-04-03T09:36:21.999Z</time></trkpt><trkpt lat="44.33906190785452" lon="9.185714307820275"><ele>201.0</ele><time>2026-04-03T09:36:22.999Z</time></trkpt><trkpt lat="44.339065070240814" lon="9.185910289671114"><ele>199.0</ele><time>2026-04-03T09:36:23.999Z</time></trkpt><trkpt lat="44.339070391813735" lon="9.186105331885827"><ele>197.0</ele><time>2026-04-03T09:36:24.999Z</time></trkpt><trkpt lat="44.339083455252464" lon="9.186294657054367"><ele>195.0</ele><time>2026-04-03T09:36:25.999Z</time></trkpt><trkpt lat="44.339093864418906" lon="9.18646324871307"><ele>193.0</ele><time>2026-04-03T09:36:26.999Z</time></trkpt><trkpt lat="44.33910726062231" lon="9.18660998637236"><ele>192.4</ele><time>2026-04-03T09:36:27.999Z</time></trkpt><trkpt lat="44.33912074307028" lon="9.18675732784005"><ele>191.8</ele><time>2026-04-03T09:36:28.999Z</time></trkpt><trkpt lat="44.33913936854129" lon="9.186898521993392"><ele>191.2</ele><time>2026-04-03T09:36:29.999Z</time></trkpt><trkpt lat="44.33916764401029" lon="9.187030638379715"><ele>190.6</ele><time>2026-04-03T09:36:30.999Z</time></trkpt><trkpt lat="44.339200640332436" lon="9.187156475108612"><ele>190.0</ele><time>2026-04-03T09:36:31.999Z</time></trkpt><trkpt lat="44.33923673959464" lon="9.1872877624209"><ele>189.6</ele><time>2026-04-03T09:36:32.999Z</time></trkpt><trkpt lat="44.33926966343061" lon="9.187425323484867"><ele>189.2</ele><time>2026-04-03T09:36:33.999Z</time></trkpt><trkpt lat="44.339305753466704" lon="9.18756593178131"><ele>188.8</ele><time>2026-04-03T09:36:34.999Z</time></trkpt><trkpt lat="44.3393407731666" lon="9.187711378706673"><ele>188.4</ele><time>2026-04-03T09:36:35.999Z</time></trkpt><trkpt lat="44.33937787179891" lon="9.187857155489924"><ele>188.0</ele><time>2026-04-03T09:36:36.999Z</time></trkpt><trkpt lat="44.33941557637558" lon="9.187994061288931"><ele>188.0</ele><time>2026-04-03T09:36:37.999Z</time></trkpt><trkpt lat="44.33945070746753" lon="9.188123749562985"><ele>188.0</ele><time>2026-04-03T09:36:38.999Z</time></trkpt><trkpt lat="44.33948458506872" lon="9.188250583508225"><ele>188.0</ele><time>2026-04-03T09:36:39.998Z</time></trkpt><trkpt lat="44.339521128277894" lon="9.188384279262898"><ele>188.0</ele><time>2026-04-03T09:36:40.998Z</time></trkpt><trkpt lat="44.33955809789608" lon="9.188522674981861"><ele>188.0</ele><time>2026-04-03T09:36:41.998Z</time></trkpt><trkpt lat="44.339589161211556" lon="9.188667455474748"><ele>187.0</ele><time>2026-04-03T09:36:42.998Z</time></trkpt><trkpt lat="44.339608186095184" lon="9.188816652920703"><ele>186.0</ele><time>2026-04-03T09:36:43.998Z</time></trkpt><trkpt lat="44.3396135255568" lon="9.188968755936338"><ele>185.0</ele><time>2026-04-03T09:36:44.998Z</time></trkpt><trkpt lat="44.33958350101815" lon="9.189110749221491"><ele>184.0</ele><time>2026-04-03T09:36:45.998Z</time></trkpt><trkpt lat="44.339574754349705" lon="9.18925935381439"><ele>183.0</ele><time>2026-04-03T09:36:46.998Z</time></trkpt><trkpt lat="44.339546759718885" lon="9.189405333413069"><ele>182.60000000000002</ele><time>2026-04-03T09:36:47.998Z</time></trkpt><trkpt lat="44.339505675853005" lon="9.189542603946164"><ele>182.20000000000002</ele><time>2026-04-03T09:36:48.998Z</time></trkpt><trkpt lat="44.339479155720824" lon="9.189687929047121"><ele>181.8</ele><time>2026-04-03T09:36:49.998Z</time></trkpt><trkpt lat="44.339461280790985" lon="9.18982822997726"><ele>181.4</ele><time>2026-04-03T09:36:50.998Z</time></trkpt><trkpt lat="44.33945015937977" lon="9.189962926745903"><ele>181.0</ele><time>2026-04-03T09:36:51.998Z</time></trkpt><trkpt lat="44.33944491583877" lon="9.190094673624031"><ele>180.20000000000002</ele><time>2026-04-03T09:36:52.998Z</time></trkpt><trkpt lat="44.339442354033366" lon="9.19022744614274"><ele>179.4</ele><time>2026-04-03T09:36:53.998Z</time></trkpt><trkpt lat="44.33946126241565" lon="9.190364746569063"><ele>178.6</ele><time>2026-04-03T09:36:54.998Z</time></trkpt><trkpt lat="44.3394678929472" lon="9.19049275211097"><ele>177.8</ele><time>2026-04-03T09:36:55.998Z</time></trkpt><trkpt lat="44.3394853182734" lon="9.19061013891937"><ele>177.0</ele><time>2026-04-03T09:36:56.998Z</time></trkpt><trkpt lat="44.33950941629669" lon="9.190720815477189"><ele>175.66666666666666</ele><time>2026-04-03T09:36:57.998Z</time></trkpt><trkpt lat="44.339538079176194" lon="9.190822858281338"><ele>174.33333333333334</ele><time>2026-04-03T09:36:58.998Z</time></trkpt><trkpt lat="44.33957057011289" lon="9.190913729874824"><ele>173.0</ele><time>2026-04-03T09:36:59.998Z</time></trkpt><trkpt lat="44.3395962770068" lon="9.191005863983328"><ele>171.66666666666669</ele><time>2026-04-03T09:37:01.998Z</time></trkpt><trkpt lat="44.33964949462683" lon="9.191137095707022"><ele>170.33333333333334</ele><time>2026-04-03T09:37:36Z</time></trkpt><trkpt lat="44.339675185229176" lon="9.191229981106787"><ele>169.0</ele><time>2026-04-03T09:37:37Z</time></trkpt><trkpt lat="44.33968180888126" lon="9.191339450027748"><ele>169.0</ele><time>2026-04-03T09:37:38Z</time></trkpt><trkpt lat="44.339673342749876" lon="9.191466919308185"><ele>169.0</ele><time>2026-04-03T09:37:39Z</time></trkpt><trkpt lat="44.33965046195483" lon="9.191605498898989"><ele>169.0</ele><time>2026-04-03T09:37:40Z</time></trkpt><trkpt lat="44.33961989429777" lon="9.191754285125704"><ele>169.0</ele><time>2026-04-03T09:37:41Z</time></trkpt><trkpt lat="44.33958471630599" lon="9.19191149402809"><ele>169.0</ele><time>2026-04-03T09:37:42Z</time></trkpt><trkpt lat="44.33955970514716" lon="9.192087646175022"><ele>167.75</ele><time>2026-04-03T09:37:43Z</time></trkpt><trkpt lat="44.33956660730073" lon="9.192273890348304"><ele>166.5</ele><time>2026-04-03T09:37:44Z</time></trkpt><trkpt lat="44.339598087166294" lon="9.192468840155465"><ele>165.25</ele><time>2026-04-03T09:37:45Z</time></trkpt><trkpt lat="44.339631229741194" lon="9.192667552072047"><ele>164.0</ele><time>2026-04-03T09:37:46Z</time></trkpt><trkpt lat="44.33965839441695" lon="9.192858738368294"><ele>163.25</ele><time>2026-04-03T09:37:47Z</time></trkpt><trkpt lat="44.33969722423722" lon="9.193033680192263"><ele>162.5</ele><time>2026-04-03T09:37:48Z</time></trkpt><trkpt lat="44.339746509988146" lon="9.193193885343463"><ele>161.75</ele><time>2026-04-03T09:37:49Z</time></trkpt><trkpt lat="44.33979753420353" lon="9.193347108907783"><ele>161.0</ele><time>2026-04-03T09:37:50Z</time></trkpt><trkpt lat="44.33984449983725" lon="9.193490937712465"><ele>165.0</ele><time>2026-04-03T09:37:51Z</time></trkpt><trkpt lat="44.339883792384505" lon="9.193633576843663"><ele>169.0</ele><time>2026-04-03T09:37:52Z</time></trkpt><trkpt lat="44.33991497151721" lon="9.193771930292959"><ele>173.0</ele><time>2026-04-03T09:37:53Z</time></trkpt><trkpt lat="44.339937702803226" lon="9.193905902871835"><ele>177.0</ele><time>2026-04-03T09:37:54Z</time></trkpt><trkpt lat="44.33995408511813" lon="9.194036105191977"><ele>181.0</ele><time>2026-04-03T09:37:55Z</time></trkpt><trkpt lat="44.33996910628814" lon="9.194161174167839"><ele>181.0</ele><time>2026-04-03T09:37:56Z</time></trkpt><trkpt lat="44.3399847716447" lon="9.194279121330439"><ele>181.0</ele><time>2026-04-03T09:37:57Z</time></trkpt><trkpt lat="44.33999821357381" lon="9.19439284061974"><ele>181.0</ele><time>2026-04-03T09:37:58Z</time></trkpt><trkpt lat="44.34000861163111" lon="9.194506526189773"><ele>181.0</ele><time>2026-04-03T09:37:59Z</time></trkpt><trkpt lat="44.34002109657986" lon="9.194623052379486"><ele>181.0</ele><time>2026-04-03T09:38:00Z</time></trkpt><trkpt lat="44.34003848574187" lon="9.194727907325245"><ele>181.0</ele><time>2026-04-03T09:38:01Z</time></trkpt><trkpt lat="44.34006035932261" lon="9.194824731897125"><ele>180.16666666666669</ele><time>2026-04-03T09:38:02Z</time></trkpt><trkpt lat="44.340085335725675" lon="9.194924821659473"><ele>179.33333333333334</ele><time>2026-04-03T09:38:03Z</time></trkpt><trkpt lat="44.34011394630068" lon="9.195031534291394"><ele>178.5</ele><time>2026-04-03T09:38:04Z</time></trkpt><trkpt lat="44.34014870484652" lon="9.19514451472486"><ele>177.66666666666666</ele><time>2026-04-03T09:38:05Z</time></trkpt><trkpt lat="44.34018503467096" lon="9.195259779027392"><ele>176.83333333333331</ele><time>2026-04-03T09:38:06Z</time></trkpt><trkpt lat="44.34022394168927" lon="9.195378419811389"><ele>176.0</ele><time>2026-04-03T09:38:07Z</time></trkpt><trkpt lat="44.34026417948501" lon="9.195501306762685"><ele>176.0</ele><time>2026-04-03T09:38:08Z</time></trkpt><trkpt lat="44.340300218671935" lon="9.19562404457752"><ele>176.0</ele><time>2026-04-03T09:38:09Z</time></trkpt><trkpt lat="44.340321032655275" lon="9.195761466125923"><ele>176.0</ele><time>2026-04-03T09:38:10Z</time></trkpt><trkpt lat="44.3403264411478" lon="9.195893832264685"><ele>176.0</ele><time>2026-04-03T09:38:11Z</time></trkpt><trkpt lat="44.34031973420453" lon="9.196025323775157"><ele>176.0</ele><time>2026-04-03T09:38:12Z</time></trkpt><trkpt lat="44.34030960696646" lon="9.19615486937594"><ele>174.8</ele><time>2026-04-03T09:38:13Z</time></trkpt><trkpt lat="44.34030319840106" lon="9.196282085418064"><ele>173.60000000000002</ele><time>2026-04-03T09:38:14Z</time></trkpt><trkpt lat="44.340300082605246" lon="9.196409782742515"><ele>172.4</ele><time>2026-04-03T09:38:15Z</time></trkpt><trkpt lat="44.34030210481773" lon="9.196538290144684"><ele>171.2</ele><time>2026-04-03T09:38:16Z</time></trkpt><trkpt lat="44.34030785016116" lon="9.196671227130878"><ele>170.0</ele><time>2026-04-03T09:38:17Z</time></trkpt><trkpt lat="44.340325391118604" lon="9.196801162891965"><ele>169.2</ele><time>2026-04-03T09:38:18Z</time></trkpt><trkpt lat="44.34035061361854" lon="9.196928051824763"><ele>168.4</ele><time>2026-04-03T09:38:19Z</time></trkpt><trkpt lat="44.340385765826525" lon="9.197059718463954"><ele>167.60000000000002</ele><time>2026-04-03T09:38:20Z</time></trkpt><trkpt lat="44.34042619119993" lon="9.197192775247817"><ele>166.8</ele><time>2026-04-03T09:38:21Z</time></trkpt><trkpt lat="44.34045826893937" lon="9.197326609908353"><ele>166.0</ele><time>2026-04-03T09:38:22Z</time></trkpt><trkpt lat="44.34047240884499" lon="9.19746367526142"><ele>165.4</ele><time>2026-04-03T09:38:23Z</time></trkpt><trkpt lat="44.34046307866001" lon="9.197607557459689"><ele>164.8</ele><time>2026-04-03T09:38:24Z</time></trkpt><trkpt lat="44.34043086985325" lon="9.197742069203004"><ele>164.20000000000002</ele><time>2026-04-03T09:38:25Z</time></trkpt><trkpt lat="44.34039251763406" lon="9.19786289632831"><ele>163.60000000000002</ele><time>2026-04-03T09:38:26Z</time></trkpt><trkpt lat="44.34035474703509" lon="9.1979675870983"><ele>163.0</ele><time>2026-04-03T09:38:27Z</time></trkpt><trkpt lat="44.34032374880754" lon="9.198051298081397"><ele>163.0</ele><time>2026-04-03T09:38:28Z</time></trkpt><trkpt lat="44.340284593892996" lon="9.19816234576736"><ele>163.0</ele><time>2026-04-03T09:38:29.999Z</time></trkpt><trkpt lat="44.34025603436193" lon="9.19831455500595"><ele>163.0</ele><time>2026-04-03T09:39:06.999Z</time></trkpt><trkpt lat="44.34022136232395" lon="9.198467596570692"><ele>163.0</ele><time>2026-04-03T09:39:08.999Z</time></trkpt><trkpt lat="44.340199733090266" lon="9.198551307000008"><ele>163.0</ele><time>2026-04-03T09:39:09.999Z</time></trkpt><trkpt lat="44.340171235652235" lon="9.19865005891328"><ele>163.0</ele><time>2026-04-03T09:39:10.999Z</time></trkpt><trkpt lat="44.3401417146569" lon="9.198760621497437"><ele>163.0</ele><time>2026-04-03T09:39:11.999Z</time></trkpt><trkpt lat="44.340115339738794" lon="9.19887267403779"><ele>163.0</ele><time>2026-04-03T09:39:12.999Z</time></trkpt><trkpt lat="44.3400983403056" lon="9.198979994571163"><ele>163.0</ele><time>2026-04-03T09:39:13.999Z</time></trkpt><trkpt lat="44.34008824484333" lon="9.199095626368392"><ele>163.0</ele><time>2026-04-03T09:39:14.999Z</time></trkpt><trkpt lat="44.34008836964091" lon="9.199214136058384"><ele>163.0</ele><time>2026-04-03T09:39:15.999Z</time></trkpt><trkpt lat="44.34009821910076" lon="9.19933572079067"><ele>163.4</ele><time>2026-04-03T09:39:16.999Z</time></trkpt><trkpt lat="44.34012980172634" lon="9.199445841272883"><ele>163.8</ele><time>2026-04-03T09:39:17.999Z</time></trkpt><trkpt lat="44.34018550511894" lon="9.199539199322178"><ele>164.2</ele><time>2026-04-03T09:39:18.999Z</time></trkpt><trkpt lat="44.34025541121986" lon="9.199628838304655"><ele>164.6</ele><time>2026-04-03T09:39:19.999Z</time></trkpt><trkpt lat="44.34032650341183" lon="9.199720169960901"><ele>165.0</ele><time>2026-04-03T09:39:20.999Z</time></trkpt><trkpt lat="44.340390535921784" lon="9.199825451030879"><ele>162.8</ele><time>2026-04-03T09:39:21.999Z</time></trkpt><trkpt lat="44.34044761160235" lon="9.199934493939196"><ele>160.6</ele><time>2026-04-03T09:39:22.999Z</time></trkpt><trkpt lat="44.34050029247503" lon="9.200045527135481"><ele>158.4</ele><time>2026-04-03T09:39:23.999Z</time></trkpt><trkpt lat="44.34054359740851" lon="9.20016033765446"><ele>156.2</ele><time>2026-04-03T09:39:24.999Z</time></trkpt><trkpt lat="44.3405831737127" lon="9.200280905478806"><ele>154.0</ele><time>2026-04-03T09:39:25.999Z</time></trkpt><trkpt lat="44.34062282774881" lon="9.200397559179018"><ele>159.0</ele><time>2026-04-03T09:39:26.999Z</time></trkpt><trkpt lat="44.34066094624127" lon="9.200512041042233"><ele>164.0</ele><time>2026-04-03T09:39:27.999Z</time></trkpt><trkpt lat="44.3406978905971" lon="9.20062529421626"><ele>169.0</ele><time>2026-04-03T09:39:28.999Z</time></trkpt><trkpt lat="44.34072456585215" lon="9.200748065305858"><ele>174.0</ele><time>2026-04-03T09:39:29.999Z</time></trkpt><trkpt lat="44.340712827063676" lon="9.20086835587835"><ele>179.0</ele><time>2026-04-03T09:39:30.999Z</time></trkpt><trkpt lat="44.34071892694921" lon="9.200998458481651"><ele>179.0</ele><time>2026-04-03T09:39:32Z</time></trkpt><trkpt lat="44.34070338950547" lon="9.201118965302514"><ele>179.0</ele><time>2026-04-03T09:39:33Z</time></trkpt><trkpt lat="44.34070458431457" lon="9.201235282737121"><ele>179.0</ele><time>2026-04-03T09:39:34Z</time></trkpt><trkpt lat="44.340726121509995" lon="9.201347917587869"><ele>179.0</ele><time>2026-04-03T09:39:35Z</time></trkpt><trkpt lat="44.340774327970536" lon="9.201445562834378"><ele>179.0</ele><time>2026-04-03T09:39:36Z</time></trkpt><trkpt lat="44.34083379605784" lon="9.201535794648908"><ele>179.0</ele><time>2026-04-03T09:39:37Z</time></trkpt><trkpt lat="44.340897983877845" lon="9.201622134738493"><ele>177.0</ele><time>2026-04-03T09:39:38Z</time></trkpt><trkpt lat="44.34096150212114" lon="9.20171368177373"><ele>175.0</ele><time>2026-04-03T09:39:39Z</time></trkpt><trkpt lat="44.34102065893424" lon="9.201816537120926"><ele>173.0</ele><time>2026-04-03T09:39:40Z</time></trkpt><trkpt lat="44.34106289764032" lon="9.201934146273613"><ele>171.0</ele><time>2026-04-03T09:39:41Z</time></trkpt><trkpt lat="44.341081565504794" lon="9.202069824545966"><ele>169.0</ele><time>2026-04-03T09:39:42Z</time></trkpt><trkpt lat="44.341090481903365" lon="9.202205558248814"><ele>166.6</ele><time>2026-04-03T09:39:43Z</time></trkpt><trkpt lat="44.341090522483384" lon="9.20234544478533"><ele>164.2</ele><time>2026-04-03T09:39:44Z</time></trkpt><trkpt lat="44.34109380660483" lon="9.20248755789413"><ele>161.79999999999998</ele><time>2026-04-03T09:39:45Z</time></trkpt><trkpt lat="44.34108809769668" lon="9.202633942149777"><ele>159.39999999999998</ele><time>2026-04-03T09:39:46Z</time></trkpt><trkpt lat="44.34108454961578" lon="9.202781290523633"><ele>157.0</ele><time>2026-04-03T09:39:47Z</time></trkpt><trkpt lat="44.34108094422118" lon="9.202918954991153"><ele>157.0</ele><time>2026-04-03T09:39:48Z</time></trkpt><trkpt lat="44.34108238254801" lon="9.203053243278188"><ele>157.0</ele><time>2026-04-03T09:39:49Z</time></trkpt><trkpt lat="44.34108128796753" lon="9.203189399480824"><ele>157.0</ele><time>2026-04-03T09:39:50Z</time></trkpt><trkpt lat="44.34107877794463" lon="9.203321011677057"><ele>157.0</ele><time>2026-04-03T09:39:51Z</time></trkpt><trkpt lat="44.34107802664026" lon="9.203456470604715"><ele>157.0</ele><time>2026-04-03T09:39:52Z</time></trkpt><trkpt lat="44.34107455304178" lon="9.20359238761474"><ele>156.4</ele><time>2026-04-03T09:39:53Z</time></trkpt><trkpt lat="44.341068456437455" lon="9.203728033930222"><ele>155.79999999999998</ele><time>2026-04-03T09:39:54Z</time></trkpt><trkpt lat="44.34105481565113" lon="9.20385866710313"><ele>155.2</ele><time>2026-04-03T09:39:55Z</time></trkpt><trkpt lat="44.34109158569063" lon="9.203997527626052"><ele>154.6</ele><time>2026-04-03T09:39:56Z</time></trkpt><trkpt lat="44.341167679370294" lon="9.204104660135238"><ele>154.0</ele><time>2026-04-03T09:39:57Z</time></trkpt><trkpt lat="44.34121724190664" lon="9.20424359451801"><ele>153.6</ele><time>2026-04-03T09:39:58Z</time></trkpt><trkpt lat="44.34127923825537" lon="9.204368503333022"><ele>153.2</ele><time>2026-04-03T09:39:59Z</time></trkpt><trkpt lat="44.34134673184535" lon="9.204486480278801"><ele>152.79999999999998</ele><time>2026-04-03T09:40:00Z</time></trkpt><trkpt lat="44.34137806539892" lon="9.204624834814691"><ele>152.4</ele><time>2026-04-03T09:40:01Z</time></trkpt><trkpt lat="44.341379077900235" lon="9.204770744891169"><ele>152.0</ele><time>2026-04-03T09:40:02Z</time></trkpt><trkpt lat="44.34135870416526" lon="9.204915646766166"><ele>150.4</ele><time>2026-04-03T09:40:03Z</time></trkpt><trkpt lat="44.341336104440494" lon="9.205055734341121"><ele>148.79999999999998</ele><time>2026-04-03T09:40:04Z</time></trkpt><trkpt lat="44.34130848720931" lon="9.205195046826024"><ele>147.2</ele><time>2026-04-03T09:40:05Z</time></trkpt><trkpt lat="44.34127868908939" lon="9.205331767768358"><ele>145.6</ele><time>2026-04-03T09:40:06Z</time></trkpt><trkpt lat="44.34125303343432" lon="9.205466379264612"><ele>144.0</ele><time>2026-04-03T09:40:07Z</time></trkpt><trkpt lat="44.34123913627882" lon="9.205591698181767"><ele>144.4</ele><time>2026-04-03T09:40:08Z</time></trkpt><trkpt lat="44.341232883343416" lon="9.205720526007674"><ele>144.8</ele><time>2026-04-03T09:40:09Z</time></trkpt><trkpt lat="44.341237595419074" lon="9.205850686632706"><ele>145.2</ele><time>2026-04-03T09:40:10Z</time></trkpt><trkpt lat="44.341289017277575" lon="9.205971569293602"><ele>145.6</ele><time>2026-04-03T09:40:11Z</time></trkpt><trkpt lat="44.34135224547758" lon="9.206077206204165"><ele>146.0</ele><time>2026-04-03T09:40:12Z</time></trkpt><trkpt lat="44.34139656513609" lon="9.206205135517381"><ele>151.2</ele><time>2026-04-03T09:40:13Z</time></trkpt><trkpt lat="44.34142920797244" lon="9.2063470120741"><ele>156.39999999999998</ele><time>2026-04-03T09:40:14Z</time></trkpt><trkpt lat="44.34143815288392" lon="9.206497668856791"><ele>161.6</ele><time>2026-04-03T09:40:15Z</time></trkpt><trkpt lat="44.34143453198511" lon="9.206649526406634"><ele>166.79999999999998</ele><time>2026-04-03T09:40:16Z</time></trkpt><trkpt lat="44.34142725929886" lon="9.206801777174267"><ele>172.0</ele><time>2026-04-03T09:40:17Z</time></trkpt><trkpt lat="44.34141734611723" lon="9.206953470395888"><ele>172.0</ele><time>2026-04-03T09:40:18Z</time></trkpt><trkpt lat="44.34140706380141" lon="9.207109862540168"><ele>172.0</ele><time>2026-04-03T09:40:19Z</time></trkpt><trkpt lat="44.341395302433824" lon="9.2072749277768"><ele>172.0</ele><time>2026-04-03T09:40:20Z</time></trkpt><trkpt lat="44.34138510251928" lon="9.207443641171636"><ele>172.0</ele><time>2026-04-03T09:40:21Z</time></trkpt><trkpt lat="44.34137420814481" lon="9.207617321018756"><ele>164.25</ele><time>2026-04-03T09:40:22Z</time></trkpt><trkpt lat="44.34136732606004" lon="9.2077963151365"><ele>156.5</ele><time>2026-04-03T09:40:22.999Z</time></trkpt><trkpt lat="44.341361782496186" lon="9.20797376650831"><ele>148.75</ele><time>2026-04-03T09:40:23.999Z</time></trkpt><trkpt lat="44.3413402114409" lon="9.208145497657934"><ele>141.0</ele><time>2026-04-03T09:40:24.999Z</time></trkpt><trkpt lat="44.34133911831637" lon="9.208329578501084"><ele>141.0</ele><time>2026-04-03T09:40:25.999Z</time></trkpt><trkpt lat="44.34135857590718" lon="9.208509652152362"><ele>141.0</ele><time>2026-04-03T09:40:26.999Z</time></trkpt><trkpt lat="44.341392371461076" lon="9.208684914746069"><ele>141.0</ele><time>2026-04-03T09:40:27.999Z</time></trkpt><trkpt lat="44.34140262854422" lon="9.208866125724102"><ele>141.0</ele><time>2026-04-03T09:40:28.999Z</time></trkpt><trkpt lat="44.341396723874766" lon="9.20904641352919"><ele>140.0</ele><time>2026-04-03T09:40:29.999Z</time></trkpt><trkpt lat="44.341378540153656" lon="9.209228329180542"><ele>139.0</ele><time>2026-04-03T09:40:30.999Z</time></trkpt><trkpt lat="44.341361621279084" lon="9.209407580465927"><ele>138.0</ele><time>2026-04-03T09:40:31.999Z</time></trkpt><trkpt lat="44.34134876094353" lon="9.209583861047141"><ele>137.0</ele><time>2026-04-03T09:40:32.999Z</time></trkpt><trkpt lat="44.34133735280565" lon="9.209752011817155"><ele>135.75</ele><time>2026-04-03T09:40:33.999Z</time></trkpt><trkpt lat="44.341326571062424" lon="9.20991322681464"><ele>134.5</ele><time>2026-04-03T09:40:34.999Z</time></trkpt><trkpt lat="44.34131388017817" lon="9.210067802848787"><ele>133.25</ele><time>2026-04-03T09:40:35.999Z</time></trkpt><trkpt lat="44.341300359290514" lon="9.210222025017373"><ele>132.0</ele><time>2026-04-03T09:40:36.999Z</time></trkpt><trkpt lat="44.3412876081327" lon="9.210378220122722"><ele>132.0</ele><time>2026-04-03T09:40:37.999Z</time></trkpt><trkpt lat="44.341274561133325" lon="9.210529471916702"><ele>132.0</ele><time>2026-04-03T09:40:38.999Z</time></trkpt><trkpt lat="44.34126186289308" lon="9.210682988357387"><ele>132.0</ele><time>2026-04-03T09:40:39.999Z</time></trkpt><trkpt lat="44.34124989318191" lon="9.210838970059836"><ele>132.0</ele><time>2026-04-03T09:40:40.999Z</time></trkpt><trkpt lat="44.341242491690736" lon="9.210998815905377"><ele>132.0</ele><time>2026-04-03T09:40:41.999Z</time></trkpt><trkpt lat="44.34122678381803" lon="9.211157455178446"><ele>132.25</ele><time>2026-04-03T09:40:42.999Z</time></trkpt><trkpt lat="44.341266186586495" lon="9.211310408876532"><ele>132.5</ele><time>2026-04-03T09:40:43.999Z</time></trkpt><trkpt lat="44.34130661055783" lon="9.211464187610737"><ele>132.75</ele><time>2026-04-03T09:40:44.999Z</time></trkpt><trkpt lat="44.34134764096259" lon="9.2116154276536"><ele>133.0</ele><time>2026-04-03T09:40:45.999Z</time></trkpt><trkpt lat="44.341382564320405" lon="9.211772167712486"><ele>133.0</ele><time>2026-04-03T09:40:46.999Z</time></trkpt><trkpt lat="44.341376451330035" lon="9.211939734040863"><ele>133.0</ele><time>2026-04-03T09:40:47.999Z</time></trkpt><trkpt lat="44.34137975766569" lon="9.212100554958683"><ele>133.0</ele><time>2026-04-03T09:40:48.999Z</time></trkpt><trkpt lat="44.341382605331816" lon="9.212267672250322"><ele>133.0</ele><time>2026-04-03T09:40:49.999Z</time></trkpt><trkpt lat="44.34137412461583" lon="9.212424782501838"><ele>133.20000000000002</ele><time>2026-04-03T09:40:50.999Z</time></trkpt><trkpt lat="44.34135274883419" lon="9.2125753145783"><ele>133.4</ele><time>2026-04-03T09:40:51.999Z</time></trkpt><trkpt lat="44.34132412731774" lon="9.212726171691333"><ele>133.60000000000002</ele><time>2026-04-03T09:40:52.999Z</time></trkpt><trkpt lat="44.34127173921917" lon="9.212867206757478"><ele>133.8</ele><time>2026-04-03T09:40:53.999Z</time></trkpt><trkpt lat="44.34121881794778" lon="9.213005003049311"><ele>134.0</ele><time>2026-04-03T09:40:54.999Z</time></trkpt><trkpt lat="44.341151189711965" lon="9.21313229897487"><ele>135.25</ele><time>2026-04-03T09:40:55.999Z</time></trkpt><trkpt lat="44.341111685977125" lon="9.213287712876404"><ele>136.5</ele><time>2026-04-03T09:40:56.999Z</time></trkpt><trkpt lat="44.341099489116225" lon="9.213453949218653"><ele>137.75</ele><time>2026-04-03T09:40:57.999Z</time></trkpt><trkpt lat="44.34109959175522" lon="9.213624353279297"><ele>139.0</ele><time>2026-04-03T09:40:58.999Z</time></trkpt><trkpt lat="44.34109531407859" lon="9.213794085379266"><ele>139.0</ele><time>2026-04-03T09:40:59.999Z</time></trkpt><trkpt lat="44.34107341648836" lon="9.213960068648808"><ele>139.0</ele><time>2026-04-03T09:41:00.999Z</time></trkpt><trkpt lat="44.341054434115996" lon="9.214129108926217"><ele>139.0</ele><time>2026-04-03T09:41:01.999Z</time></trkpt><trkpt lat="44.341018718615594" lon="9.214292654341227"><ele>139.0</ele><time>2026-04-03T09:41:02.999Z</time></trkpt><trkpt lat="44.3409926040714" lon="9.214452161481804"><ele>139.0</ele><time>2026-04-03T09:41:03.999Z</time></trkpt><trkpt lat="44.340960531974574" lon="9.214598202239538"><ele>139.0</ele><time>2026-04-03T09:41:04.999Z</time></trkpt><trkpt lat="44.34095370063631" lon="9.214751328819956"><ele>139.0</ele><time>2026-04-03T09:41:06Z</time></trkpt><trkpt lat="44.34097294133397" lon="9.214908999179583"><ele>139.0</ele><time>2026-04-03T09:41:06.999Z</time></trkpt><trkpt lat="44.34104364275382" lon="9.21505096297896"><ele>139.0</ele><time>2026-04-03T09:41:07.999Z</time></trkpt><trkpt lat="44.34111788441575" lon="9.215160217134207"><ele>139.0</ele><time>2026-04-03T09:41:08.999Z</time></trkpt><trkpt lat="44.34121054913527" lon="9.215225191836298"><ele>139.0</ele><time>2026-04-03T09:41:09.999Z</time></trkpt><trkpt lat="44.34131414685013" lon="9.215238065608638"><ele>139.0</ele><time>2026-04-03T09:41:10.999Z</time></trkpt><trkpt lat="44.341420745658986" lon="9.21522425365684"><ele>139.0</ele><time>2026-04-03T09:41:11.999Z</time></trkpt><trkpt lat="44.34153430707079" lon="9.21519371887676"><ele>140.0</ele><time>2026-04-03T09:41:12.999Z</time></trkpt><trkpt lat="44.341653058475686" lon="9.21516208191729"><ele>141.0</ele><time>2026-04-03T09:41:13.999Z</time></trkpt><trkpt lat="44.341778032451295" lon="9.215129093863252"><ele>142.0</ele><time>2026-04-03T09:41:14.999Z</time></trkpt><trkpt lat="44.34190770859125" lon="9.215095121193794"><ele>143.0</ele><time>2026-04-03T09:41:15.999Z</time></trkpt><trkpt lat="44.34203355477299" lon="9.215061802042772"><ele>143.0</ele><time>2026-04-03T09:41:16.999Z</time></trkpt><trkpt lat="44.34215416104048" lon="9.215030202767382"><ele>143.0</ele><time>2026-04-03T09:41:17.999Z</time></trkpt><trkpt lat="44.34227210781854" lon="9.214983978801161"><ele>143.0</ele><time>2026-04-03T09:41:18.999Z</time></trkpt><trkpt lat="44.34238114649742" lon="9.214928178837605"><ele>143.0</ele><time>2026-04-03T09:41:19.999Z</time></trkpt><trkpt lat="44.342484554386765" lon="9.214852694948139"><ele>143.0</ele><time>2026-04-03T09:41:20.999Z</time></trkpt><trkpt lat="44.342583173556086" lon="9.214762700383016"><ele>143.0</ele><time>2026-04-03T09:41:21.999Z</time></trkpt><trkpt lat="44.34267088564393" lon="9.214659659073675"><ele>143.0</ele><time>2026-04-03T09:41:22.999Z</time></trkpt><trkpt lat="44.34275040190313" lon="9.214544646347175"><ele>143.0</ele><time>2026-04-03T09:41:23.999Z</time></trkpt><trkpt lat="44.34282915308855" lon="9.214431741984296"><ele>143.0</ele><time>2026-04-03T09:41:24.999Z</time></trkpt><trkpt lat="44.342920834459036" lon="9.21434229482403"><ele>143.0</ele><time>2026-04-03T09:41:25.999Z</time></trkpt><trkpt lat="44.34302545764148" lon="9.214327076080798"><ele>143.0</ele><time>2026-04-03T09:41:26.999Z</time></trkpt><trkpt lat="44.34313068799633" lon="9.214311787575587"><ele>143.0</ele><time>2026-04-03T09:41:27.999Z</time></trkpt><trkpt lat="44.34322961523539" lon="9.21437203931935"><ele>143.0</ele><time>2026-04-03T09:41:28.999Z</time></trkpt><trkpt lat="44.343332472158146" lon="9.214371964153178"><ele>140.6</ele><time>2026-04-03T09:41:29.999Z</time></trkpt><trkpt lat="44.34344015525785" lon="9.214366226665089"><ele>138.20000000000002</ele><time>2026-04-03T09:41:30.999Z</time></trkpt><trkpt lat="44.34353885099975" lon="9.21432473151659"><ele>135.8</ele><time>2026-04-03T09:41:31.999Z</time></trkpt><trkpt lat="44.34364064833065" lon="9.214277673847162"><ele>133.4</ele><time>2026-04-03T09:41:32.999Z</time></trkpt><trkpt lat="44.34371664317655" lon="9.214160435511834"><ele>131.0</ele><time>2026-04-03T09:41:33.999Z</time></trkpt><trkpt lat="44.343778389538805" lon="9.214047457694265"><ele>129.8</ele><time>2026-04-03T09:41:34.999Z</time></trkpt><trkpt lat="44.34383985351747" lon="9.21394423689537"><ele>128.6</ele><time>2026-04-03T09:41:35.999Z</time></trkpt><trkpt lat="44.34391382878948" lon="9.213884680909059"><ele>127.4</ele><time>2026-04-03T09:41:36.999Z</time></trkpt><trkpt lat="44.34400520707774" lon="9.213870363310768"><ele>126.2</ele><time>2026-04-03T09:41:37.999Z</time></trkpt><trkpt lat="44.34408658780491" lon="9.213911500401988"><ele>125.0</ele><time>2026-04-03T09:41:38.999Z</time></trkpt><trkpt lat="44.34415965548931" lon="9.213995744203581"><ele>125.0</ele><time>2026-04-03T09:41:39.999Z</time></trkpt><trkpt lat="44.344207888700105" lon="9.214111407905762"><ele>125.0</ele><time>2026-04-03T09:41:40.999Z</time></trkpt><trkpt lat="44.34424071799627" lon="9.21423857848073"><ele>125.0</ele><time>2026-04-03T09:41:41.999Z</time></trkpt><trkpt lat="44.34426945995688" lon="9.214370445625374"><ele>125.0</ele><time>2026-04-03T09:41:42.999Z</time></trkpt><trkpt lat="44.34430347659302" lon="9.214503555375982"><ele>125.0</ele><time>2026-04-03T09:41:43.999Z</time></trkpt><trkpt lat="44.34433472731573" lon="9.214645282756766"><ele>125.0</ele><time>2026-04-03T09:41:44.999Z</time></trkpt><trkpt lat="44.34435736778893" lon="9.214792063472993"><ele>125.0</ele><time>2026-04-03T09:41:45.999Z</time></trkpt><trkpt lat="44.34437442693092" lon="9.21494209412853"><ele>125.0</ele><time>2026-04-03T09:41:46.999Z</time></trkpt><trkpt lat="44.34439355585888" lon="9.215092560356522"><ele>125.0</ele><time>2026-04-03T09:41:47.999Z</time></trkpt><trkpt lat="44.344395376282115" lon="9.215246043420434"><ele>125.0</ele><time>2026-04-03T09:41:48.999Z</time></trkpt><trkpt lat="44.34441195397133" lon="9.215388355776184"><ele>121.6</ele><time>2026-04-03T09:41:49.999Z</time></trkpt><trkpt lat="44.344428901408335" lon="9.21553122689694"><ele>118.2</ele><time>2026-04-03T09:41:50.999Z</time></trkpt><trkpt lat="44.344445671792506" lon="9.215672605557444"><ele>114.80000000000001</ele><time>2026-04-03T09:41:51.999Z</time></trkpt><trkpt lat="44.34447758696365" lon="9.215808156830677"><ele>111.4</ele><time>2026-04-03T09:41:52.999Z</time></trkpt><trkpt lat="44.34449432594981" lon="9.215952170788114"><ele>108.0</ele><time>2026-04-03T09:41:53.999Z</time></trkpt><trkpt lat="44.344508983202246" lon="9.216100866892853"><ele>105.25</ele><time>2026-04-03T09:41:54.999Z</time></trkpt><trkpt lat="44.344528836328585" lon="9.216258569830977"><ele>102.5</ele><time>2026-04-03T09:41:55.999Z</time></trkpt><trkpt lat="44.34454962357623" lon="9.216418794865884"><ele>99.75</ele><time>2026-04-03T09:41:56.999Z</time></trkpt><trkpt lat="44.34456689600089" lon="9.216586044171999"><ele>97.0</ele><time>2026-04-03T09:41:57.999Z</time></trkpt><trkpt lat="44.344585669200306" lon="9.21675849839395"><ele>93.5</ele><time>2026-04-03T09:41:58.999Z</time></trkpt><trkpt lat="44.34460887765325" lon="9.216936165848974"><ele>90.0</ele><time>2026-04-03T09:41:59.999Z</time></trkpt><trkpt lat="44.34461774653614" lon="9.217121970609304"><ele>86.5</ele><time>2026-04-03T09:42:00.999Z</time></trkpt><trkpt lat="44.3446398528299" lon="9.217306851650665"><ele>83.0</ele><time>2026-04-03T09:42:01.999Z</time></trkpt><trkpt lat="44.344673743475006" lon="9.217484955663519"><ele>81.25</ele><time>2026-04-03T09:42:02.999Z</time></trkpt><trkpt lat="44.34468885396558" lon="9.217661929009516"><ele>79.5</ele><time>2026-04-03T09:42:03.999Z</time></trkpt><trkpt lat="44.34470804723665" lon="9.217832215268592"><ele>77.75</ele><time>2026-04-03T09:42:04.999Z</time></trkpt><trkpt lat="44.344736330271665" lon="9.217995524395459"><ele>76.0</ele><time>2026-04-03T09:42:05.999Z</time></trkpt><trkpt lat="44.344775440494175" lon="9.218151484644478"><ele>85.5</ele><time>2026-04-03T09:42:06.999Z</time></trkpt><trkpt lat="44.344790126769794" lon="9.21831505473568"><ele>95.0</ele><time>2026-04-03T09:42:07.999Z</time></trkpt><trkpt lat="44.34481389268763" lon="9.218469598446493"><ele>104.5</ele><time>2026-04-03T09:42:08.999Z</time></trkpt><trkpt lat="44.34479654127404" lon="9.218628200543312"><ele>114.0</ele><time>2026-04-03T09:42:09.999Z</time></trkpt><trkpt lat="44.34475338371367" lon="9.218772257624618"><ele>104.5</ele><time>2026-04-03T09:42:10.999Z</time></trkpt><trkpt lat="44.34469778370454" lon="9.218913268706192"><ele>95.0</ele><time>2026-04-03T09:42:11.999Z</time></trkpt><trkpt lat="44.344628736433" lon="9.219053278116203"><ele>85.5</ele><time>2026-04-03T09:42:12.999Z</time></trkpt><trkpt lat="44.34455935517605" lon="9.21918428238542"><ele>76.0</ele><time>2026-04-03T09:42:13.999Z</time></trkpt><trkpt lat="44.34450754875994" lon="9.219319074052471"><ele>76.0</ele><time>2026-04-03T09:42:14.999Z</time></trkpt><trkpt lat="44.34448483804076" lon="9.219470579864822"><ele>76.0</ele><time>2026-04-03T09:42:15.999Z</time></trkpt><trkpt lat="44.34449491351037" lon="9.21962225340136"><ele>76.0</ele><time>2026-04-03T09:42:16.999Z</time></trkpt><trkpt lat="44.344520250102654" lon="9.219765001560434"><ele>76.0</ele><time>2026-04-03T09:42:17.999Z</time></trkpt><trkpt lat="44.34454151158834" lon="9.219909962521843"><ele>76.0</ele><time>2026-04-03T09:42:18.999Z</time></trkpt><trkpt lat="44.344540912980605" lon="9.220056487783836"><ele>77.4</ele><time>2026-04-03T09:42:19.999Z</time></trkpt><trkpt lat="44.34451178420247" lon="9.220197964011087"><ele>78.8</ele><time>2026-04-03T09:42:20.999Z</time></trkpt><trkpt lat="44.34446200857169" lon="9.220336373917595"><ele>80.2</ele><time>2026-04-03T09:42:21.999Z</time></trkpt><trkpt lat="44.34441920712688" lon="9.220452034314183"><ele>81.60000000000001</ele><time>2026-04-03T09:42:22.999Z</time></trkpt><trkpt lat="44.34437734771543" lon="9.220580781592394"><ele>83.0</ele><time>2026-04-03T09:42:23.999Z</time></trkpt><trkpt lat="44.34434239918268" lon="9.220709828747006"><ele>83.2</ele><time>2026-04-03T09:42:24.999Z</time></trkpt><trkpt lat="44.34431265873511" lon="9.22084096608219"><ele>83.4</ele><time>2026-04-03T09:42:25.999Z</time></trkpt><trkpt lat="44.34429300678751" lon="9.22097425054798"><ele>83.60000000000001</ele><time>2026-04-03T09:42:26.999Z</time></trkpt><trkpt lat="44.344280399828634" lon="9.221111007165826"><ele>83.80000000000001</ele><time>2026-04-03T09:42:27.999Z</time></trkpt><trkpt lat="44.34426395419988" lon="9.221243707986233"><ele>84.0</ele><time>2026-04-03T09:42:28.999Z</time></trkpt><trkpt lat="44.34424749282797" lon="9.221372905042145"><ele>84.0</ele><time>2026-04-03T09:42:29.999Z</time></trkpt><trkpt lat="44.34421314020385" lon="9.22149706573505"><ele>84.0</ele><time>2026-04-03T09:42:30.999Z</time></trkpt><trkpt lat="44.34419058089465" lon="9.22161572985611"><ele>84.0</ele><time>2026-04-03T09:42:31.999Z</time></trkpt><trkpt lat="44.344147569648555" lon="9.221744461014858"><ele>84.0</ele><time>2026-04-03T09:42:32.999Z</time></trkpt><trkpt lat="44.344090951937694" lon="9.22186526576593"><ele>84.0</ele><time>2026-04-03T09:42:33.999Z</time></trkpt><trkpt lat="44.34406120466043" lon="9.22199525412014"><ele>84.0</ele><time>2026-04-03T09:42:34.999Z</time></trkpt><trkpt lat="44.34402446033574" lon="9.22210706430065"><ele>84.0</ele><time>2026-04-03T09:42:35.999Z</time></trkpt><trkpt lat="44.34403203593853" lon="9.222250896424516"><ele>84.0</ele><time>2026-04-03T09:42:36.999Z</time></trkpt><trkpt lat="44.34402671740994" lon="9.222378429328353"><ele>84.0</ele><time>2026-04-03T09:42:37.999Z</time></trkpt><trkpt lat="44.34399411989852" lon="9.222494970079852"><ele>84.0</ele><time>2026-04-03T09:42:38.999Z</time></trkpt><trkpt lat="44.34396159471873" lon="9.222620388493036"><ele>84.2</ele><time>2026-04-03T09:42:39.999Z</time></trkpt><trkpt lat="44.34392264390306" lon="9.222747554243286"><ele>84.4</ele><time>2026-04-03T09:42:40.999Z</time></trkpt><trkpt lat="44.34389627413389" lon="9.222871740633188"><ele>84.6</ele><time>2026-04-03T09:42:41.999Z</time></trkpt><trkpt lat="44.34390599912863" lon="9.223006323405745"><ele>84.8</ele><time>2026-04-03T09:42:42.999Z</time></trkpt><trkpt lat="44.34393198484888" lon="9.22313058062904"><ele>85.0</ele><time>2026-04-03T09:42:43.999Z</time></trkpt><trkpt lat="44.34395994438811" lon="9.223246497923595"><ele>84.2</ele><time>2026-04-03T09:42:44.999Z</time></trkpt><trkpt lat="44.343945272146414" lon="9.22337173898736"><ele>83.4</ele><time>2026-04-03T09:42:45.999Z</time></trkpt><trkpt lat="44.3438887429274" lon="9.223472142508559"><ele>82.6</ele><time>2026-04-03T09:42:46.999Z</time></trkpt><trkpt lat="44.34382904853642" lon="9.223583226073524"><ele>81.8</ele><time>2026-04-03T09:42:47.999Z</time></trkpt><trkpt lat="44.34377413761191" lon="9.22369763932259"><ele>81.0</ele><time>2026-04-03T09:42:48.999Z</time></trkpt><trkpt lat="44.343735122649974" lon="9.223805125907917"><ele>77.16666666666667</ele><time>2026-04-03T09:42:49.999Z</time></trkpt><trkpt lat="44.34372627648827" lon="9.223919727597314"><ele>73.33333333333333</ele><time>2026-04-03T09:42:50.999Z</time></trkpt><trkpt lat="44.343706689772254" lon="9.22402631570077"><ele>69.5</ele><time>2026-04-03T09:42:51.999Z</time></trkpt><trkpt lat="44.343727425029364" lon="9.224135111479907"><ele>65.66666666666666</ele><time>2026-04-03T09:42:52.999Z</time></trkpt><trkpt lat="44.343732507926646" lon="9.224241521456142"><ele>61.83333333333333</ele><time>2026-04-03T09:42:53.999Z</time></trkpt><trkpt lat="44.34373384752164" lon="9.224359387407052"><ele>58.0</ele><time>2026-04-03T09:42:54.999Z</time></trkpt><trkpt lat="44.34373274690884" lon="9.224472721700826"><ele>58.0</ele><time>2026-04-03T09:42:55.999Z</time></trkpt><trkpt lat="44.343698718857745" lon="9.224598320853259"><ele>58.0</ele><time>2026-04-03T09:42:56.999Z</time></trkpt><trkpt lat="44.34365886411718" lon="9.224728724662546"><ele>58.0</ele><time>2026-04-03T09:42:57.999Z</time></trkpt><trkpt lat="44.34360793334473" lon="9.22485413751968"><ele>58.0</ele><time>2026-04-03T09:42:58.999Z</time></trkpt><trkpt lat="44.3435453218781" lon="9.22498393939369"><ele>58.0</ele><time>2026-04-03T09:42:59.999Z</time></trkpt><trkpt lat="44.343468853307314" lon="9.225094765137651"><ele>58.0</ele><time>2026-04-03T09:43:00.999Z</time></trkpt><trkpt lat="44.34338141200781" lon="9.225199912032114"><ele>58.0</ele><time>2026-04-03T09:43:01.999Z</time></trkpt><trkpt lat="44.34330549107634" lon="9.225284966000542"><ele>58.0</ele><time>2026-04-03T09:43:02.999Z</time></trkpt><trkpt lat="44.34325110710016" lon="9.2253967540326"><ele>58.0</ele><time>2026-04-03T09:43:03.999Z</time></trkpt><trkpt lat="44.34323308312274" lon="9.225530777550995"><ele>58.0</ele><time>2026-04-03T09:43:04.999Z</time></trkpt><trkpt lat="44.34324266786451" lon="9.225668365549197"><ele>58.0</ele><time>2026-04-03T09:43:05.999Z</time></trkpt><trkpt lat="44.343229552418386" lon="9.225818729376638"><ele>58.0</ele><time>2026-04-03T09:43:06.999Z</time></trkpt><trkpt lat="44.34322185205037" lon="9.225953716076134"><ele>58.0</ele><time>2026-04-03T09:43:07.999Z</time></trkpt><trkpt lat="44.3432075121766" lon="9.226091983611381"><ele>58.0</ele><time>2026-04-03T09:43:08.999Z</time></trkpt><trkpt lat="44.34319418536904" lon="9.226221916305377"><ele>58.0</ele><time>2026-04-03T09:43:09.999Z</time></trkpt><trkpt lat="44.34313224787858" lon="9.22632172983238"><ele>57.99999999999999</ele><time>2026-04-03T09:43:10.999Z</time></trkpt><trkpt lat="44.34308922585963" lon="9.226437070509139"><ele>58.0</ele><time>2026-04-03T09:43:11.999Z</time></trkpt><trkpt lat="44.34302481994855" lon="9.226521182673125"><ele>58.0</ele><time>2026-04-03T09:43:12.999Z</time></trkpt><trkpt lat="44.34296996799527" lon="9.22660873593645"><ele>58.0</ele><time>2026-04-03T09:43:13.999Z</time></trkpt><trkpt lat="44.342938597109956" lon="9.226710378687613"><ele>57.99999999999999</ele><time>2026-04-03T09:43:14.999Z</time></trkpt><trkpt lat="44.342943301889285" lon="9.226823410131455"><ele>58.0</ele><time>2026-04-03T09:43:15.999Z</time></trkpt><trkpt lat="44.3429979452132" lon="9.226933505556927"><ele>56.599999999999994</ele><time>2026-04-03T09:43:16.999Z</time></trkpt><trkpt lat="44.34306061215538" lon="9.227015937656462"><ele>55.199999999999996</ele><time>2026-04-03T09:43:17.999Z</time></trkpt><trkpt lat="44.343173219052595" lon="9.22700117919684"><ele>53.8</ele><time>2026-04-03T09:43:18.999Z</time></trkpt><trkpt lat="44.34325420459416" lon="9.226982998877189"><ele>52.4</ele><time>2026-04-03T09:43:19.999Z</time></trkpt><trkpt lat="44.34332205626457" lon="9.2268649217661"><ele>51.0</ele><time>2026-04-03T09:43:20.999Z</time></trkpt><trkpt lat="44.343382394792975" lon="9.226759740296082"><ele>51.0</ele><time>2026-04-03T09:43:21.999Z</time></trkpt><trkpt lat="44.34344077844211" lon="9.226653616207365"><ele>51.0</ele><time>2026-04-03T09:43:22.999Z</time></trkpt><trkpt lat="44.34350521157662" lon="9.226556459013558"><ele>51.0</ele><time>2026-04-03T09:43:23.999Z</time></trkpt><trkpt lat="44.343566032256234" lon="9.226445154885516"><ele>51.0</ele><time>2026-04-03T09:43:24.999Z</time></trkpt><trkpt lat="44.34363329758894" lon="9.226337521350734"><ele>51.0</ele><time>2026-04-03T09:43:25.999Z</time></trkpt><trkpt lat="44.34370132524544" lon="9.226227701266192"><ele>50.4</ele><time>2026-04-03T09:43:26.999Z</time></trkpt><trkpt lat="44.34377305679812" lon="9.226127214966551"><ele>49.8</ele><time>2026-04-03T09:43:27.999Z</time></trkpt><trkpt lat="44.34386714495627" lon="9.226074983044"><ele>49.199999999999996</ele><time>2026-04-03T09:43:28.999Z</time></trkpt><trkpt lat="44.343955604574816" lon="9.226031726471591"><ele>48.599999999999994</ele><time>2026-04-03T09:43:29.999Z</time></trkpt><trkpt lat="44.34404348521277" lon="9.226017658525928"><ele>48.0</ele><time>2026-04-03T09:43:30.999Z</time></trkpt><trkpt lat="44.3441299502047" lon="9.226038898318112"><ele>48.0</ele><time>2026-04-03T09:43:31.999Z</time></trkpt><trkpt lat="44.34421678048126" lon="9.226082601310457"><ele>48.0</ele><time>2026-04-03T09:43:32.999Z</time></trkpt><trkpt lat="44.34430473142691" lon="9.226128853875435"><ele>48.0</ele><time>2026-04-03T09:43:33.999Z</time></trkpt><trkpt lat="44.344401366821536" lon="9.226152816939821"><ele>48.0</ele><time>2026-04-03T09:43:34.999Z</time></trkpt><trkpt lat="44.34449286786417" lon="9.22617679396991"><ele>48.0</ele><time>2026-04-03T09:43:35.999Z</time></trkpt><trkpt lat="44.344590821055036" lon="9.226143334378763"><ele>48.0</ele><time>2026-04-03T09:43:36.999Z</time></trkpt><trkpt lat="44.3446699654479" lon="9.226069122557666"><ele>48.0</ele><time>2026-04-03T09:43:37.999Z</time></trkpt><trkpt lat="44.34473146550573" lon="9.225961552915525"><ele>48.0</ele><time>2026-04-03T09:43:38.999Z</time></trkpt><trkpt lat="44.34477668215849" lon="9.225842746923767"><ele>48.0</ele><time>2026-04-03T09:43:39.998Z</time></trkpt><trkpt lat="44.344805830183624" lon="9.225712015471393"><ele>48.0</ele><time>2026-04-03T09:43:40.998Z</time></trkpt><trkpt lat="44.344827094080436" lon="9.225572977328383"><ele>47.2</ele><time>2026-04-03T09:43:41.998Z</time></trkpt><trkpt lat="44.34484497654553" lon="9.225441231275568"><ele>46.4</ele><time>2026-04-03T09:43:42.998Z</time></trkpt><trkpt lat="44.34487935580447" lon="9.225318591254387"><ele>45.6</ele><time>2026-04-03T09:43:44Z</time></trkpt><trkpt lat="44.344946360026555" lon="9.22522566498494"><ele>44.800000000000004</ele><time>2026-04-03T09:43:45Z</time></trkpt><trkpt lat="44.34502872111327" lon="9.225166063087565"><ele>44.0</ele><time>2026-04-03T09:43:46Z</time></trkpt><trkpt lat="44.34512771598063" lon="9.225174068451945"><ele>44.0</ele><time>2026-04-03T09:43:47Z</time></trkpt><trkpt lat="44.34523200081684" lon="9.225174898947344"><ele>44.0</ele><time>2026-04-03T09:43:48Z</time></trkpt><trkpt lat="44.345336468438866" lon="9.225180406066125"><ele>44.0</ele><time>2026-04-03T09:43:49Z</time></trkpt><trkpt lat="44.34543500579489" lon="9.225172149199178"><ele>44.0</ele><time>2026-04-03T09:43:50Z</time></trkpt><trkpt lat="44.34553023795142" lon="9.22518056539215"><ele>44.0</ele><time>2026-04-03T09:43:51Z</time></trkpt><trkpt lat="44.34562179959478" lon="9.225179868926233"><ele>42.0</ele><time>2026-04-03T09:43:52Z</time></trkpt><trkpt lat="44.345712675622515" lon="9.225181453894066"><ele>40.0</ele><time>2026-04-03T09:43:53Z</time></trkpt><trkpt lat="44.34579565145696" lon="9.225163560770065"><ele>38.0</ele><time>2026-04-03T09:43:54Z</time></trkpt><trkpt lat="44.34587318414372" lon="9.225115399506098"><ele>36.0</ele><time>2026-04-03T09:43:55Z</time></trkpt><trkpt lat="44.34593732492192" lon="9.225037358378824"><ele>34.0</ele><time>2026-04-03T09:43:56Z</time></trkpt><trkpt lat="44.3459971540479" lon="9.22494993427637"><ele>32.0</ele><time>2026-04-03T09:43:57Z</time></trkpt><trkpt lat="44.3460628814697" lon="9.224883954776578"><ele>31.999999999999996</ele><time>2026-04-03T09:43:58Z</time></trkpt><trkpt lat="44.34613668133323" lon="9.224862575339168"><ele>32.0</ele><time>2026-04-03T09:43:59Z</time></trkpt><trkpt lat="44.3462077799593" lon="9.224922999725806"><ele>32.0</ele><time>2026-04-03T09:44:00Z</time></trkpt><trkpt lat="44.34627891048825" lon="9.224961162873631"><ele>32.0</ele><time>2026-04-03T09:44:01Z</time></trkpt><trkpt lat="44.346354157703004" lon="9.224976937722998"><ele>31.999999999999996</ele><time>2026-04-03T09:44:02Z</time></trkpt><trkpt lat="44.34642296959673" lon="9.225018033698321"><ele>32.0</ele><time>2026-04-03T09:44:03Z</time></trkpt><trkpt lat="44.34649400000493" lon="9.225063054597225"><ele>31.833333333333332</ele><time>2026-04-03T09:44:04Z</time></trkpt><trkpt lat="44.346571216475475" lon="9.225137739043694"><ele>31.666666666666664</ele><time>2026-04-03T09:44:05Z</time></trkpt><trkpt lat="44.346619181074814" lon="9.225216104433496"><ele>31.5</ele><time>2026-04-03T09:44:06Z</time></trkpt><trkpt lat="44.346636460930945" lon="9.225343807864158"><ele>31.333333333333336</ele><time>2026-04-03T09:44:07Z</time></trkpt><trkpt lat="44.34667652075494" lon="9.225455961140376"><ele>31.166666666666668</ele><time>2026-04-03T09:44:08Z</time></trkpt><trkpt lat="44.34671834933351" lon="9.225574983557923"><ele>31.0</ele><time>2026-04-03T09:44:09Z</time></trkpt><trkpt lat="44.346774396144646" lon="9.225686481764187"><ele>28.500000000000004</ele><time>2026-04-03T09:44:10Z</time></trkpt><trkpt lat="44.34681378348474" lon="9.225805278189847"><ele>26.0</ele><time>2026-04-03T09:44:11Z</time></trkpt><trkpt lat="44.34684967208918" lon="9.225917999653298"><ele>23.5</ele><time>2026-04-03T09:44:12Z</time></trkpt><trkpt lat="44.34689107224731" lon="9.22601062230952"><ele>21.0</ele><time>2026-04-03T09:44:13Z</time></trkpt><trkpt lat="44.346943012381026" lon="9.226072385554021"><ele>18.5</ele><time>2026-04-03T09:44:14Z</time></trkpt><trkpt lat="44.3470094933017" lon="9.22610320570764"><ele>16.0</ele><time>2026-04-03T09:44:15Z</time></trkpt><trkpt lat="44.34708296229696" lon="9.226089476867035"><ele>15.999999999999998</ele><time>2026-04-03T09:44:16Z</time></trkpt><trkpt lat="44.34715402379668" lon="9.226044642938433"><ele>16.0</ele><time>2026-04-03T09:44:17Z</time></trkpt><trkpt lat="44.347224762216435" lon="9.225984043182548"><ele>16.0</ele><time>2026-04-03T09:44:18Z</time></trkpt><trkpt lat="44.34729162091915" lon="9.225917002408272"><ele>16.0</ele><time>2026-04-03T09:44:19Z</time></trkpt><trkpt lat="44.347356779917284" lon="9.225862541324723"><ele>15.999999999999998</ele><time>2026-04-03T09:44:20Z</time></trkpt><trkpt lat="44.347423018479496" lon="9.225814949688763"><ele>16.0</ele><time>2026-04-03T09:44:21Z</time></trkpt><trkpt lat="44.347494623119815" lon="9.225795150009025"><ele>15.857142857142856</ele><time>2026-04-03T09:44:22Z</time></trkpt><trkpt lat="44.34757216842865" lon="9.22580045882638"><ele>15.714285714285712</ele><time>2026-04-03T09:44:23Z</time></trkpt><trkpt lat="44.34764175134918" lon="9.22584504489336"><ele>15.571428571428571</ele><time>2026-04-03T09:44:24Z</time></trkpt><trkpt lat="44.34770283503775" lon="9.22590972346425"><ele>15.428571428571427</ele><time>2026-04-03T09:44:25Z</time></trkpt><trkpt lat="44.34773756788636" lon="9.226006922424117"><ele>15.285714285714285</ele><time>2026-04-03T09:44:26Z</time></trkpt><trkpt lat="44.347771895686385" lon="9.226097381678267"><ele>15.142857142857142</ele><time>2026-04-03T09:44:27Z</time></trkpt><trkpt lat="44.347803639671085" lon="9.226173415345963"><ele>15.0</ele><time>2026-04-03T09:44:28Z</time></trkpt><trkpt lat="44.347860606821506" lon="9.226302949535533"><ele>15.0</ele><time>2026-04-03T09:44:30Z</time></trkpt><trkpt lat="44.34790878253381" lon="9.226419239699354"><ele>15.0</ele><time>2026-04-03T09:44:32Z</time></trkpt><trkpt lat="44.34793402092185" lon="9.226507983054635"><ele>15.0</ele><time>2026-04-03T09:44:35Z</time></trkpt><trkpt lat="44.347976787997844" lon="9.226607236516482"><ele>15.0</ele><time>2026-04-03T09:44:41.999Z</time></trkpt><trkpt lat="44.34801886289575" lon="9.226700437134154"><ele>15.0</ele><time>2026-04-03T09:44:43.999Z</time></trkpt><trkpt lat="44.34807879604919" lon="9.226833242684048"><ele>15.0</ele><time>2026-04-03T09:44:45.999Z</time></trkpt><trkpt lat="44.348137463813096" lon="9.226965207946725"><ele>13.4</ele><time>2026-04-03T09:44:47.999Z</time></trkpt><trkpt lat="44.34819754119236" lon="9.227096286703228"><ele>11.8</ele><time>2026-04-03T09:44:49.999Z</time></trkpt><trkpt lat="44.34824796970025" lon="9.227186191900234"><ele>10.2</ele><time>2026-04-03T09:44:51.999Z</time></trkpt><trkpt lat="44.348296417117695" lon="9.227313716695058"><ele>8.6</ele><time>2026-04-03T09:44:53.999Z</time></trkpt><trkpt lat="44.348361772672085" lon="9.227460086236418"><ele>7.0</ele><time>2026-04-03T09:44:55.999Z</time></trkpt><trkpt lat="44.34839672772347" lon="9.227538400425587"><ele>7.000000000000001</ele><time>2026-04-03T09:44:56.999Z</time></trkpt><trkpt lat="44.348432848057335" lon="9.22761932534641"><ele>7.0</ele><time>2026-04-03T09:44:57.999Z</time></trkpt><trkpt lat="44.348468500513924" lon="9.227699202016776"><ele>7.0</ele><time>2026-04-03T09:44:58.999Z</time></trkpt><trkpt lat="44.34850420602722" lon="9.2277791975615"><ele>7.0</ele><time>2026-04-03T09:44:59.999Z</time></trkpt><trkpt lat="44.34853823157419" lon="9.227855429262016"><ele>7.000000000000001</ele><time>2026-04-03T09:45:00.999Z</time></trkpt><trkpt lat="44.348609603239666" lon="9.227984369566983"><ele>7.0</ele><time>2026-04-03T09:45:02.999Z</time></trkpt><trkpt lat="44.34865932006045" lon="9.22809274920648"><ele>8.0</ele><time>2026-04-03T09:45:04.999Z</time></trkpt><trkpt lat="44.34869333389625" lon="9.228183872725856"><ele>9.0</ele><time>2026-04-03T09:45:06.999Z</time></trkpt><trkpt lat="44.34873188779589" lon="9.228268714140249"><ele>10.0</ele><time>2026-04-03T09:45:09.999Z</time></trkpt><trkpt lat="44.34876809936407" lon="9.228365091170696"><ele>11.0</ele><time>2026-04-03T09:46:01Z</time></trkpt><trkpt lat="44.34881016788617" lon="9.228456230364085"><ele>11.999999999999998</ele><time>2026-04-03T09:46:03Z</time></trkpt><trkpt lat="44.348855804699085" lon="9.228553592904595"><ele>13.0</ele><time>2026-04-03T09:46:05Z</time></trkpt><trkpt lat="44.34890510270367" lon="9.228661447136748"><ele>13.0</ele><time>2026-04-03T09:46:07Z</time></trkpt><trkpt lat="44.348966651200584" lon="9.228794023416626"><ele>13.0</ele><time>2026-04-03T09:46:09Z</time></trkpt><trkpt lat="44.349021321115096" lon="9.228913439359475"><ele>13.0</ele><time>2026-04-03T09:46:11Z</time></trkpt><trkpt lat="44.34907696211092" lon="9.229036013808523"><ele>13.0</ele><time>2026-04-03T09:46:13Z</time></trkpt><trkpt lat="44.34913674715944" lon="9.229166843628427"><ele>13.0</ele><time>2026-04-03T09:46:15Z</time></trkpt><trkpt lat="44.34920062840732" lon="9.229300331273192"><ele>12.999999999999998</ele><time>2026-04-03T09:46:17Z</time></trkpt><trkpt lat="44.34925671322619" lon="9.229421705048967"><ele>13.0</ele><time>2026-04-03T09:46:19Z</time></trkpt><trkpt lat="44.34927611774648" lon="9.229543891357414"><ele>13.0</ele><time>2026-04-03T09:46:22Z</time></trkpt><trkpt lat="44.34927422717899" lon="9.22963673962216"><ele>13.0</ele><time>2026-04-03T09:46:24Z</time></trkpt><trkpt lat="44.34926787918926" lon="9.22972524560172"><ele>12.999999999999998</ele><time>2026-04-03T09:46:28Z</time></trkpt><trkpt lat="44.34929139483938" lon="9.22987098275086"><ele>13.0</ele><time>2026-04-03T09:46:42Z</time></trkpt><trkpt lat="44.34934574567495" lon="9.22993978870932"><ele>13.0</ele><time>2026-04-03T09:46:43Z</time></trkpt><trkpt lat="44.3494331388722" lon="9.230012476926179"><ele>13.0</ele><time>2026-04-03T09:46:45Z</time></trkpt><trkpt lat="44.34952744988898" lon="9.230080677477474"><ele>13.0</ele><time>2026-04-03T09:46:47Z</time></trkpt><trkpt lat="44.34962401196269" lon="9.230150653862534"><ele>13.0</ele><time>2026-04-03T09:46:49Z</time></trkpt><trkpt lat="44.349732939124685" lon="9.23021365174469"><ele>13.0</ele><time>2026-04-03T09:46:51Z</time></trkpt><trkpt lat="44.34983457981289" lon="9.230291194684101"><ele>12.833333333333332</ele><time>2026-04-03T09:46:53Z</time></trkpt><trkpt lat="44.34993801811301" lon="9.230378929605909"><ele>12.666666666666666</ele><time>2026-04-03T09:46:55Z</time></trkpt><trkpt lat="44.349984857828844" lon="9.230440170237264"><ele>12.5</ele><time>2026-04-03T09:46:56Z</time></trkpt><trkpt lat="44.35003597208281" lon="9.230500727032544"><ele>12.333333333333332</ele><time>2026-04-03T09:46:57Z</time></trkpt><trkpt lat="44.35011133089364" lon="9.230521367213111"><ele>12.166666666666666</ele><time>2026-04-03T09:46:58Z</time></trkpt><trkpt lat="44.35018681534502" lon="9.230555980463672"><ele>12.0</ele><time>2026-04-03T09:46:59Z</time></trkpt><trkpt lat="44.35024078679428" lon="9.230613574812281"><ele>11.6</ele><time>2026-04-03T09:47:00Z</time></trkpt><trkpt lat="44.35030843468133" lon="9.230651529793985"><ele>11.2</ele><time>2026-04-03T09:47:01Z</time></trkpt><trkpt lat="44.35035959967928" lon="9.230708580570345"><ele>10.8</ele><time>2026-04-03T09:47:02Z</time></trkpt><trkpt lat="44.350459977421906" lon="9.230788768535199"><ele>10.4</ele><time>2026-04-03T09:47:04Z</time></trkpt><trkpt lat="44.35055227641306" lon="9.230853715332863"><ele>10.0</ele><time>2026-04-03T09:47:05.999Z</time></trkpt><trkpt lat="44.35061296802702" lon="9.230752704035762"><ele>9.833333333333334</ele><time>2026-04-03T09:47:09.999Z</time></trkpt><trkpt lat="44.35059097285689" lon="9.230654367326094"><ele>9.666666666666668</ele><time>2026-04-03T09:47:13.999Z</time></trkpt><trkpt lat="44.350585983537556" lon="9.23055884387422"><ele>9.5</ele><time>2026-04-03T09:47:14.999Z</time></trkpt><trkpt lat="44.350589968637124" lon="9.230459907302832"><ele>9.333333333333334</ele><time>2026-04-03T09:47:15.999Z</time></trkpt><trkpt lat="44.350597555866294" lon="9.230350946006247"><ele>9.166666666666666</ele><time>2026-04-03T09:47:16.999Z</time></trkpt><trkpt lat="44.350608567039274" lon="9.230237157440063"><ele>9.0</ele><time>2026-04-03T09:47:17.999Z</time></trkpt><trkpt lat="44.35061504211494" lon="9.230117630950526"><ele>9.0</ele><time>2026-04-03T09:47:18.999Z</time></trkpt><trkpt lat="44.35062121478787" lon="9.229993160171158"><ele>9.0</ele><time>2026-04-03T09:47:19.999Z</time></trkpt><trkpt lat="44.35063083295746" lon="9.229872467026738"><ele>9.0</ele><time>2026-04-03T09:47:20.999Z</time></trkpt><trkpt lat="44.350637668819466" lon="9.229751800757272"><ele>9.0</ele><time>2026-04-03T09:47:21.999Z</time></trkpt><trkpt lat="44.350642152232595" lon="9.229643082742179"><ele>9.0</ele><time>2026-04-03T09:47:22.999Z</time></trkpt><trkpt lat="44.35064745056157" lon="9.229533908916505"><ele>9.0</ele><time>2026-04-03T09:47:23.999Z</time></trkpt><trkpt lat="44.35065595096937" lon="9.22943069510829"><ele>9.333333333333334</ele><time>2026-04-03T09:47:24.999Z</time></trkpt><trkpt lat="44.350661987501745" lon="9.229334248757555"><ele>9.666666666666666</ele><time>2026-04-03T09:47:25.999Z</time></trkpt><trkpt lat="44.35067059286308" lon="9.229233756204207"><ele>10.0</ele><time>2026-04-03T09:47:26.999Z</time></trkpt><trkpt lat="44.35067998346706" lon="9.22914087140989"><ele>10.333333333333332</ele><time>2026-04-03T09:47:27.999Z</time></trkpt><trkpt lat="44.3506825607676" lon="9.229037389470996"><ele>10.666666666666666</ele><time>2026-04-03T09:47:28.999Z</time></trkpt><trkpt lat="44.350690379653116" lon="9.228942931037501"><ele>11.0</ele><time>2026-04-03T09:47:29.999Z</time></trkpt><trkpt lat="44.35070546167427" lon="9.22877570526776"><ele>11.0</ele><time>2026-04-03T09:47:31.999Z</time></trkpt><trkpt lat="44.350705574755786" lon="9.228656263349016"><ele>11.0</ele><time>2026-04-03T09:47:33.999Z</time></trkpt><trkpt lat="44.350664119051515" lon="9.228569476689662"><ele>11.0</ele><time>2026-04-03T09:47:37.999Z</time></trkpt><trkpt lat="44.35060439215931" lon="9.22849949040322"><ele>11.0</ele><time>2026-04-03T09:47:47.999Z</time></trkpt><trkpt lat="44.35053149680561" lon="9.228448436197823"><ele>11.0</ele><time>2026-04-03T09:47:54.999Z</time></trkpt><trkpt lat="44.350479943447226" lon="9.228389031928225"><ele>11.0</ele><time>2026-04-03T09:47:59Z</time></trkpt><trkpt lat="44.35043439689309" lon="9.228321388322348"><ele>11.0</ele><time>2026-04-03T09:48:02Z</time></trkpt><trkpt lat="44.35037827366279" lon="9.228277226112441"><ele>11.0</ele><time>2026-04-03T09:48:05Z</time></trkpt><trkpt lat="44.35033130097701" lon="9.228213187658536"><ele>11.0</ele><time>2026-04-03T09:48:08Z</time></trkpt><trkpt lat="44.35028422071889" lon="9.22813595881777"><ele>11.0</ele><time>2026-04-03T09:48:11Z</time></trkpt><trkpt lat="44.350264092327905" lon="9.228025674592356"><ele>11.0</ele><time>2026-04-03T09:48:14Z</time></trkpt><trkpt lat="44.35024582505205" lon="9.227908130317608"><ele>11.0</ele><time>2026-04-03T09:48:17Z</time></trkpt><trkpt lat="44.350279804218864" lon="9.227817038940758"><ele>11.0</ele><time>2026-04-03T09:48:19Z</time></trkpt><trkpt lat="44.350341526522996" lon="9.227721172678573"><ele>11.0</ele><time>2026-04-03T09:48:22Z</time></trkpt><trkpt lat="44.350404559567956" lon="9.227638156821428"><ele>11.0</ele><time>2026-04-03T09:48:25Z</time></trkpt><trkpt lat="44.35044369556501" lon="9.22756341081624"><ele>11.0</ele><time>2026-04-03T09:48:27Z</time></trkpt><trkpt lat="44.35050233308378" lon="9.227472633168247"><ele>11.0</ele><time>2026-04-03T09:48:30Z</time></trkpt><trkpt lat="44.35056147226041" lon="9.227409413456188"><ele>11.0</ele><time>2026-04-03T09:48:33Z</time></trkpt><trkpt lat="44.350623843838434" lon="9.227331186329314"><ele>11.0</ele><time>2026-04-03T09:48:36Z</time></trkpt><trkpt lat="44.350693606535636" lon="9.227242289084892"><ele>10.5</ele><time>2026-04-03T09:48:39Z</time></trkpt><trkpt lat="44.35074774302095" lon="9.227179507677409"><ele>10.0</ele><time>2026-04-03T09:48:41Z</time></trkpt><trkpt lat="44.3508153839204" lon="9.227105456869369"><ele>9.5</ele><time>2026-04-03T09:48:43Z</time></trkpt><trkpt lat="44.35089937255217" lon="9.227021404588472"><ele>9.0</ele><time>2026-04-03T09:48:45Z</time></trkpt><trkpt lat="44.3509610564209" lon="9.226931719788716"><ele>8.5</ele><time>2026-04-03T09:48:47Z</time></trkpt><trkpt lat="44.35103716748479" lon="9.226844520218496"><ele>8.0</ele><time>2026-04-03T09:48:50Z</time></trkpt><trkpt lat="44.35111201339456" lon="9.226789660424378"><ele>7.999999999999999</ele><time>2026-04-03T09:48:52Z</time></trkpt><trkpt lat="44.351149775065466" lon="9.226699476896853"><ele>8.0</ele><time>2026-04-03T09:48:54Z</time></trkpt><trkpt lat="44.351208060544884" lon="9.226602384802895"><ele>8.0</ele><time>2026-04-03T09:49:40.999Z</time></trkpt><trkpt lat="44.35126866137538" lon="9.226453918077205"><ele>8.0</ele><time>2026-04-03T09:49:42.999Z</time></trkpt><trkpt lat="44.35129559744457" lon="9.226368671440497"><ele>7.999999999999999</ele><time>2026-04-03T09:49:43.999Z</time></trkpt><trkpt lat="44.35132464877451" lon="9.226272644508246"><ele>8.0</ele><time>2026-04-03T09:49:44.999Z</time></trkpt><trkpt lat="44.35135420760474" lon="9.226170086386915"><ele>8.5</ele><time>2026-04-03T09:49:45.999Z</time></trkpt><trkpt lat="44.35138209269547" lon="9.226068688103418"><ele>9.0</ele><time>2026-04-03T09:49:46.999Z</time></trkpt><trkpt lat="44.35140589060304" lon="9.225964758465652"><ele>9.5</ele><time>2026-04-03T09:49:47.999Z</time></trkpt><trkpt lat="44.351434144435714" lon="9.225863247939547"><ele>10.0</ele><time>2026-04-03T09:49:48.999Z</time></trkpt><trkpt lat="44.35146400091305" lon="9.225760724512675"><ele>10.5</ele><time>2026-04-03T09:49:49.999Z</time></trkpt><trkpt lat="44.35149984538878" lon="9.225673136930073"><ele>11.0</ele><time>2026-04-03T09:49:50.999Z</time></trkpt><trkpt lat="44.3515425150371" lon="9.225581809139195"><ele>11.285714285714286</ele><time>2026-04-03T09:49:51.999Z</time></trkpt><trkpt lat="44.35158715893237" lon="9.225493506168483"><ele>11.571428571428571</ele><time>2026-04-03T09:49:52.999Z</time></trkpt><trkpt lat="44.35161310081831" lon="9.225393590271459"><ele>11.857142857142858</ele><time>2026-04-03T09:49:53.999Z</time></trkpt><trkpt lat="44.351635819121086" lon="9.225296337087645"><ele>12.142857142857142</ele><time>2026-04-03T09:49:54.999Z</time></trkpt><trkpt lat="44.35164950593653" lon="9.225202664538154"><ele>12.428571428571429</ele><time>2026-04-03T09:49:55.999Z</time></trkpt><trkpt lat="44.35165822466047" lon="9.225097164856374"><ele>12.714285714285714</ele><time>2026-04-03T09:49:56.999Z</time></trkpt><trkpt lat="44.351673560958325" lon="9.225003836830668"><ele>13.0</ele><time>2026-04-03T09:49:57.999Z</time></trkpt><trkpt lat="44.35169896813195" lon="9.224832068612772"><ele>12.999999999999998</ele><time>2026-04-03T09:49:59.999Z</time></trkpt><trkpt lat="44.351704284504585" lon="9.224707218568167"><ele>13.0</ele><time>2026-04-03T09:50:02Z</time></trkpt><trkpt lat="44.35171756706988" lon="9.224596816413845"><ele>13.0</ele><time>2026-04-03T09:50:05Z</time></trkpt><trkpt lat="44.35172827371054" lon="9.224502748737057"><ele>13.0</ele><time>2026-04-03T09:50:23Z</time></trkpt><trkpt lat="44.35174639180825" lon="9.22441105015883"><ele>12.999999999999998</ele><time>2026-04-03T09:50:26Z</time></trkpt><trkpt lat="44.351779706294764" lon="9.224237287634727"><ele>13.0</ele><time>2026-04-03T09:50:28Z</time></trkpt><trkpt lat="44.35178861757323" lon="9.224138897191974"><ele>12.999999999999998</ele><time>2026-04-03T09:50:29Z</time></trkpt><trkpt lat="44.35179639228064" lon="9.224031902569541"><ele>13.0</ele><time>2026-04-03T09:50:30Z</time></trkpt><trkpt lat="44.351801781848536" lon="9.223928376235056"><ele>13.0</ele><time>2026-04-03T09:50:31Z</time></trkpt><trkpt lat="44.35181277735075" lon="9.22382561011252"><ele>13.0</ele><time>2026-04-03T09:50:32Z</time></trkpt><trkpt lat="44.35182982238167" lon="9.223673388294577"><ele>12.999999999999998</ele><time>2026-04-03T09:50:34Z</time></trkpt><trkpt lat="44.35183905392203" lon="9.223556251887622"><ele>13.0</ele><time>2026-04-03T09:50:36Z</time></trkpt><trkpt lat="44.35185071284292" lon="9.223433408999162"><ele>12.666666666666666</ele><time>2026-04-03T09:50:38Z</time></trkpt><trkpt lat="44.3518400178684" lon="9.223320793388272"><ele>12.333333333333332</ele><time>2026-04-03T09:50:46Z</time></trkpt><trkpt lat="44.35186539800824" lon="9.223239749598719"><ele>12.0</ele><time>2026-04-03T09:50:48Z</time></trkpt><trkpt lat="44.351867404618055" lon="9.22314031971619"><ele>11.666666666666666</ele><time>2026-04-03T09:50:50Z</time></trkpt><trkpt lat="44.3518910969022" lon="9.223049674352866"><ele>11.333333333333332</ele><time>2026-04-03T09:50:52Z</time></trkpt><trkpt lat="44.35191457025695" lon="9.222932798012291"><ele>11.0</ele><time>2026-04-03T09:50:55Z</time></trkpt><trkpt lat="44.351931899768864" lon="9.222768341867742"><ele>10.333333333333332</ele><time>2026-04-03T09:51:03Z</time></trkpt><trkpt lat="44.35197180259285" lon="9.22268222487011"><ele>9.666666666666666</ele><time>2026-04-03T09:51:04Z</time></trkpt><trkpt lat="44.351963936929174" lon="9.222526138449517"><ele>9.0</ele><time>2026-04-03T09:51:06Z</time></trkpt><trkpt lat="44.351982906291916" lon="9.222419168316014"><ele>8.333333333333334</ele><time>2026-04-03T09:51:08Z</time></trkpt><trkpt lat="44.35200148713184" lon="9.222305602667722"><ele>7.666666666666667</ele><time>2026-04-03T09:51:11Z</time></trkpt><trkpt lat="44.352019029687746" lon="9.222197894293322"><ele>7.0</ele><time>2026-04-03T09:51:14.999Z</time></trkpt><trkpt lat="44.35203521273546" lon="9.222094274420783"><ele>7.000000000000001</ele><time>2026-04-03T09:51:17.999Z</time></trkpt><trkpt lat="44.35204700146791" lon="9.22198436463725"><ele>7.0</ele><time>2026-04-03T09:51:20.999Z</time></trkpt><trkpt lat="44.35206295961007" lon="9.221844283229611"><ele>7.0</ele><time>2026-04-03T09:51:24.999Z</time></trkpt><trkpt lat="44.352067660354095" lon="9.22174279543931"><ele>7.0</ele><time>2026-04-03T09:51:25.999Z</time></trkpt><trkpt lat="44.3520839681681" lon="9.221652434858978"><ele>7.000000000000001</ele><time>2026-04-03T09:51:32.999Z</time></trkpt><trkpt lat="44.352093723955534" lon="9.221563345816126"><ele>7.0</ele><time>2026-04-03T09:51:35.999Z</time></trkpt><trkpt lat="44.35210440912178" lon="9.221465769744423"><ele>7.333333333333334</ele><time>2026-04-03T09:51:38.999Z</time></trkpt><trkpt lat="44.35211428527017" lon="9.221375581243315"><ele>7.666666666666667</ele><time>2026-04-03T09:51:41.999Z</time></trkpt><trkpt lat="44.35212681372236" lon="9.221268639406544"><ele>8.0</ele><time>2026-04-03T09:51:45.999Z</time></trkpt><trkpt lat="44.352137815266154" lon="9.221171751524762"><ele>8.333333333333334</ele><time>2026-04-03T09:51:48.999Z</time></trkpt><trkpt lat="44.35215036900002" lon="9.221062338897198"><ele>8.666666666666666</ele><time>2026-04-03T09:51:52.999Z</time></trkpt><trkpt lat="44.35215574422678" lon="9.220875960563408"><ele>9.0</ele><time>2026-04-03T09:51:54.999Z</time></trkpt><trkpt lat="44.35217969266958" lon="9.22072192458734"><ele>8.833333333333334</ele><time>2026-04-03T09:51:55.999Z</time></trkpt><trkpt lat="44.352201478364094" lon="9.220570521498114"><ele>8.666666666666666</ele><time>2026-04-03T09:51:56.999Z</time></trkpt><trkpt lat="44.35221941919871" lon="9.220461530386727"><ele>8.5</ele><time>2026-04-03T09:51:57.999Z</time></trkpt><trkpt lat="44.352239200755555" lon="9.220363164344992"><ele>8.333333333333332</ele><time>2026-04-03T09:51:59.999Z</time></trkpt><trkpt lat="44.35225435221659" lon="9.220257182787888"><ele>8.166666666666666</ele><time>2026-04-03T09:52:10Z</time></trkpt><trkpt lat="44.352267498820936" lon="9.220165556379875"><ele>8.0</ele><time>2026-04-03T09:52:14Z</time></trkpt><trkpt lat="44.352285085188" lon="9.220041067585997"><ele>8.0</ele><time>2026-04-03T09:52:22Z</time></trkpt><trkpt lat="44.352297494945724" lon="9.219953222576756"><ele>7.999999999999999</ele><time>2026-04-03T09:52:27Z</time></trkpt><trkpt lat="44.352295899627684" lon="9.219853062855332"><ele>8.0</ele><time>2026-04-03T09:52:31Z</time></trkpt><trkpt lat="44.35232500385126" lon="9.219758495015826"><ele>8.0</ele><time>2026-04-03T09:52:34Z</time></trkpt><trkpt lat="44.35233590369144" lon="9.219670379663183"><ele>7.999999999999999</ele><time>2026-04-03T09:52:37Z</time></trkpt><trkpt lat="44.35235032007235" lon="9.219562835769905"><ele>8.0</ele><time>2026-04-03T09:52:50Z</time></trkpt><trkpt lat="44.35236202384275" lon="9.219475527478329"><ele>8.0</ele><time>2026-04-03T09:52:52Z</time></trkpt><trkpt lat="44.352377016711856" lon="9.219365584489205"><ele>8.285714285714285</ele><time>2026-04-03T09:52:54Z</time></trkpt><trkpt lat="44.35237392276376" lon="9.21927262338456"><ele>8.571428571428571</ele><time>2026-04-03T09:52:56Z</time></trkpt><trkpt lat="44.35239227702203" lon="9.219188350782474"><ele>8.857142857142858</ele><time>2026-04-03T09:52:59Z</time></trkpt><trkpt lat="44.35240644160972" lon="9.219073560510752"><ele>9.142857142857142</ele><time>2026-04-03T09:53:02.999Z</time></trkpt><trkpt lat="44.35242371639025" lon="9.218952748976248"><ele>9.428571428571429</ele><time>2026-04-03T09:53:11.999Z</time></trkpt><trkpt lat="44.35243647933574" lon="9.218849850742721"><ele>9.714285714285714</ele><time>2026-04-03T09:53:13.999Z</time></trkpt><trkpt lat="44.35244760824902" lon="9.218757694705829"><ele>10.0</ele><time>2026-04-03T09:53:14.999Z</time></trkpt><trkpt lat="44.352464714116664" lon="9.218663735298772"><ele>10.0</ele><time>2026-04-03T09:53:15.999Z</time></trkpt><trkpt lat="44.352480341797055" lon="9.218565665360334"><ele>10.0</ele><time>2026-04-03T09:53:16.999Z</time></trkpt><trkpt lat="44.35250559435457" lon="9.21843594903468"><ele>10.0</ele><time>2026-04-03T09:53:18.999Z</time></trkpt><trkpt lat="44.35253327090052" lon="9.218333982727827"><ele>10.0</ele><time>2026-04-03T09:53:29.999Z</time></trkpt><trkpt lat="44.352556654820006" lon="9.218244010508492"><ele>10.0</ele><time>2026-04-03T09:53:32.999Z</time></trkpt><trkpt lat="44.35257876680696" lon="9.218136204490683"><ele>10.0</ele><time>2026-04-03T09:53:34.999Z</time></trkpt><trkpt lat="44.35260373269503" lon="9.218013806738934"><ele>10.0</ele><time>2026-04-03T09:53:36.999Z</time></trkpt><trkpt lat="44.352627530099745" lon="9.217892911258973"><ele>10.0</ele><time>2026-04-03T09:53:38.999Z</time></trkpt><trkpt lat="44.352648526992745" lon="9.217752296567513"><ele>10.0</ele><time>2026-04-03T09:53:40.999Z</time></trkpt><trkpt lat="44.352660772039954" lon="9.217660994628899"><ele>10.0</ele><time>2026-04-03T09:53:41.999Z</time></trkpt><trkpt lat="44.35267514531655" lon="9.217551889504316"><ele>10.0</ele><time>2026-04-03T09:53:42.999Z</time></trkpt><trkpt lat="44.35269597602881" lon="9.21742477936222"><ele>10.0</ele><time>2026-04-03T09:53:43.999Z</time></trkpt><trkpt lat="44.35272053273691" lon="9.217300850155256"><ele>10.2</ele><time>2026-04-03T09:53:44.999Z</time></trkpt><trkpt lat="44.35274293837445" lon="9.217165923952468"><ele>10.4</ele><time>2026-04-03T09:53:45.999Z</time></trkpt><trkpt lat="44.352764548603204" lon="9.217027341716703"><ele>10.600000000000001</ele><time>2026-04-03T09:53:46.999Z</time></trkpt><trkpt lat="44.35278623033117" lon="9.216902945697752"><ele>10.8</ele><time>2026-04-03T09:53:47.999Z</time></trkpt><trkpt lat="44.352807000076425" lon="9.21676702327631"><ele>11.0</ele><time>2026-04-03T09:53:48.999Z</time></trkpt><trkpt lat="44.352833414066275" lon="9.216612810499687"><ele>11.0</ele><time>2026-04-03T09:53:49.999Z</time></trkpt><trkpt lat="44.352869528193814" lon="9.216477867256595"><ele>11.0</ele><time>2026-04-03T09:53:50.999Z</time></trkpt><trkpt lat="44.35289634709493" lon="9.216352023933116"><ele>11.0</ele><time>2026-04-03T09:53:51.999Z</time></trkpt><trkpt lat="44.35292082284155" lon="9.21624518277034"><ele>11.0</ele><time>2026-04-03T09:53:52.999Z</time></trkpt><trkpt lat="44.35294025471056" lon="9.216149015806437"><ele>11.0</ele><time>2026-04-03T09:53:53.999Z</time></trkpt><trkpt lat="44.35295961182291" lon="9.21606047449857"><ele>11.0</ele><time>2026-04-03T09:53:54.999Z</time></trkpt><trkpt lat="44.35299554723895" lon="9.21590972956573"><ele>11.0</ele><time>2026-04-03T09:53:56.999Z</time></trkpt><trkpt lat="44.35302895242401" lon="9.21575845546279"><ele>11.0</ele><time>2026-04-03T09:53:58.999Z</time></trkpt><trkpt lat="44.3530702600323" lon="9.215593413473016"><ele>11.0</ele><time>2026-04-03T09:54:00.999Z</time></trkpt><trkpt lat="44.35308764706679" lon="9.215507475864216"><ele>11.0</ele><time>2026-04-03T09:54:01.999Z</time></trkpt><trkpt lat="44.353126451289256" lon="9.215326609231541"><ele>11.0</ele><time>2026-04-03T09:54:03.999Z</time></trkpt><trkpt lat="44.35314598030322" lon="9.21523297587452"><ele>10.571428571428571</ele><time>2026-04-03T09:54:04.999Z</time></trkpt><trkpt lat="44.353167669167725" lon="9.215137901199398"><ele>10.142857142857142</ele><time>2026-04-03T09:54:05.999Z</time></trkpt><trkpt lat="44.35318851694377" lon="9.215048492371363"><ele>9.714285714285714</ele><time>2026-04-03T09:54:06.999Z</time></trkpt><trkpt lat="44.35321053644894" lon="9.21495337233926"><ele>9.285714285714285</ele><time>2026-04-03T09:54:07.999Z</time></trkpt><trkpt lat="44.353231864802375" lon="9.214862188273523"><ele>8.857142857142856</ele><time>2026-04-03T09:54:08.999Z</time></trkpt><trkpt lat="44.35325842642477" lon="9.214763377303838"><ele>8.428571428571429</ele><time>2026-04-03T09:54:09.999Z</time></trkpt><trkpt lat="44.35328603022296" lon="9.214680165234807"><ele>8.0</ele><time>2026-04-03T09:54:10.999Z</time></trkpt><trkpt lat="44.35331873495097" lon="9.214595878785342"><ele>7.999999999999999</ele><time>2026-04-03T09:54:11.999Z</time></trkpt><trkpt lat="44.353351778333014" lon="9.21451526403346"><ele>8.0</ele><time>2026-04-03T09:54:12.999Z</time></trkpt><trkpt lat="44.35339063575555" lon="9.214443463547816"><ele>8.0</ele><time>2026-04-03T09:54:14Z</time></trkpt><trkpt lat="44.35343424008881" lon="9.214369960835718"><ele>8.0</ele><time>2026-04-03T09:54:15Z</time></trkpt><trkpt lat="44.353464697808626" lon="9.214286998846879"><ele>7.999999999999999</ele><time>2026-04-03T09:54:16Z</time></trkpt><trkpt lat="44.353546613738345" lon="9.214151980706925"><ele>8.0</ele><time>2026-04-03T09:54:18Z</time></trkpt><trkpt lat="44.3535877453975" lon="9.214084185347051"><ele>8.0</ele><time>2026-04-03T09:54:19Z</time></trkpt><trkpt lat="44.353629677391886" lon="9.214016669763987"><ele>7.999999999999999</ele><time>2026-04-03T09:54:20Z</time></trkpt><trkpt lat="44.3536715378911" lon="9.213950637427844"><ele>8.0</ele><time>2026-04-03T09:54:21Z</time></trkpt><trkpt lat="44.3537141387787" lon="9.21388343715633"><ele>8.0</ele><time>2026-04-03T09:54:22Z</time></trkpt><trkpt lat="44.353802797567276" lon="9.213756210075683"><ele>7.999999999999999</ele><time>2026-04-03T09:54:24Z</time></trkpt><trkpt lat="44.353859185409874" lon="9.213705197333296"><ele>8.0</ele><time>2026-04-03T09:54:25Z</time></trkpt><trkpt lat="44.35390275103259" lon="9.21364078404546"><ele>8.0</ele><time>2026-04-03T09:54:26Z</time></trkpt><trkpt lat="44.35393693231949" lon="9.213562805127806"><ele>8.5</ele><time>2026-04-03T09:54:27Z</time></trkpt><trkpt lat="44.3539898581777" lon="9.21351026544079"><ele>9.0</ele><time>2026-04-03T09:54:28Z</time></trkpt><trkpt lat="44.35403039152886" lon="9.21344145875119"><ele>9.5</ele><time>2026-04-03T09:54:29Z</time></trkpt><trkpt lat="44.35411298985601" lon="9.213313103033734"><ele>10.0</ele><time>2026-04-03T09:54:31Z</time></trkpt><trkpt lat="44.35415488405751" lon="9.213240036250028"><ele>10.5</ele><time>2026-04-03T09:54:32Z</time></trkpt><trkpt lat="44.354199666977976" lon="9.2131682738777"><ele>11.0</ele><time>2026-04-03T09:54:33Z</time></trkpt><trkpt lat="44.35424612287683" lon="9.213102613391149"><ele>11.0</ele><time>2026-04-03T09:54:34Z</time></trkpt><trkpt lat="44.35427730320178" lon="9.213019812887753"><ele>11.0</ele><time>2026-04-03T09:54:35Z</time></trkpt><trkpt lat="44.354354680664656" lon="9.21289228774493"><ele>11.0</ele><time>2026-04-03T09:54:37Z</time></trkpt><trkpt lat="44.35442373728425" lon="9.21277200218957"><ele>11.0</ele><time>2026-04-03T09:54:39Z</time></trkpt><trkpt lat="44.35448915377125" lon="9.212643010184491"><ele>11.0</ele><time>2026-04-03T09:54:41Z</time></trkpt><trkpt lat="44.354567315700656" lon="9.212493059860387"><ele>11.0</ele><time>2026-04-03T09:54:43Z</time></trkpt><trkpt lat="44.35462755140638" lon="9.212427728139202"><ele>11.0</ele><time>2026-04-03T09:54:44Z</time></trkpt><trkpt lat="44.35466669483561" lon="9.212337748177083"><ele>11.0</ele><time>2026-04-03T09:54:45Z</time></trkpt><trkpt lat="44.35472326168111" lon="9.212252780138446"><ele>11.0</ele><time>2026-04-03T09:54:46Z</time></trkpt><trkpt lat="44.35478173642289" lon="9.212174213380314"><ele>11.0</ele><time>2026-04-03T09:54:47Z</time></trkpt><trkpt lat="44.354836698219316" lon="9.212100017495043"><ele>11.0</ele><time>2026-04-03T09:54:48Z</time></trkpt><trkpt lat="44.35489036961999" lon="9.212026662769158"><ele>11.142857142857142</ele><time>2026-04-03T09:54:49Z</time></trkpt><trkpt lat="44.354946989737535" lon="9.21197270084723"><ele>11.285714285714285</ele><time>2026-04-03T09:54:50Z</time></trkpt><trkpt lat="44.354979133723006" lon="9.21189669715414"><ele>11.428571428571427</ele><time>2026-04-03T09:54:51Z</time></trkpt><trkpt lat="44.35503271217726" lon="9.21183886204231"><ele>11.571428571428571</ele><time>2026-04-03T09:54:52Z</time></trkpt><trkpt lat="44.35507508735459" lon="9.211757258127436"><ele>11.714285714285714</ele><time>2026-04-03T09:54:53Z</time></trkpt><trkpt lat="44.35511587879551" lon="9.211673230789138"><ele>11.857142857142856</ele><time>2026-04-03T09:54:53.999Z</time></trkpt><trkpt lat="44.35515884031072" lon="9.211592369804904"><ele>12.0</ele><time>2026-04-03T09:54:54.999Z</time></trkpt><trkpt lat="44.35519772538066" lon="9.211515592489812"><ele>11.666666666666666</ele><time>2026-04-03T09:54:55.999Z</time></trkpt><trkpt lat="44.35525771551432" lon="9.211391577851517"><ele>11.333333333333334</ele><time>2026-04-03T09:54:57.999Z</time></trkpt><trkpt lat="44.3553316931257" lon="9.211260099685317"><ele>11.0</ele><time>2026-04-03T09:54:59.999Z</time></trkpt><trkpt lat="44.35537262890075" lon="9.211187585230222"><ele>10.666666666666668</ele><time>2026-04-03T09:55:00.999Z</time></trkpt><trkpt lat="44.35541087484421" lon="9.21110736547048"><ele>10.333333333333334</ele><time>2026-04-03T09:55:01.999Z</time></trkpt><trkpt lat="44.35544589786387" lon="9.211031669224898"><ele>10.0</ele><time>2026-04-03T09:55:02.999Z</time></trkpt><trkpt lat="44.35551114486246" lon="9.21088870680902"><ele>10.2</ele><time>2026-04-03T09:55:04.999Z</time></trkpt><trkpt lat="44.35556775436031" lon="9.210779424616263"><ele>10.4</ele><time>2026-04-03T09:55:06.999Z</time></trkpt><trkpt lat="44.35565601372467" lon="9.21063687283287"><ele>10.600000000000001</ele><time>2026-04-03T09:55:08.999Z</time></trkpt><trkpt lat="44.35569816913452" lon="9.210550886714874"><ele>10.8</ele><time>2026-04-03T09:55:09.999Z</time></trkpt><trkpt lat="44.35574097594692" lon="9.210466552378742"><ele>11.0</ele><time>2026-04-03T09:55:10.999Z</time></trkpt><trkpt lat="44.35578416366238" lon="9.210386162418208"><ele>11.0</ele><time>2026-04-03T09:55:11.999Z</time></trkpt><trkpt lat="44.355804348320746" lon="9.210298233469056"><ele>11.0</ele><time>2026-04-03T09:55:12.999Z</time></trkpt><trkpt lat="44.355829444872164" lon="9.210212911699518"><ele>11.0</ele><time>2026-04-03T09:55:13.999Z</time></trkpt><trkpt lat="44.355911738061444" lon="9.210149322746823"><ele>11.0</ele><time>2026-04-03T09:55:14.999Z</time></trkpt><trkpt lat="44.35596246873888" lon="9.210062455528702"><ele>11.0</ele><time>2026-04-03T09:55:15.999Z</time></trkpt><trkpt lat="44.3560218503526" lon="9.209993554457553"><ele>11.0</ele><time>2026-04-03T09:55:16.999Z</time></trkpt><trkpt lat="44.35608044990958" lon="9.209935742580615"><ele>11.0</ele><time>2026-04-03T09:55:17.999Z</time></trkpt><trkpt lat="44.35614311380545" lon="9.209891444586688"><ele>11.0</ele><time>2026-04-03T09:55:18.999Z</time></trkpt><trkpt lat="44.35620799798586" lon="9.209844775650321"><ele>11.0</ele><time>2026-04-03T09:55:19.999Z</time></trkpt><trkpt lat="44.356277502769636" lon="9.209805551894936"><ele>11.0</ele><time>2026-04-03T09:55:20.999Z</time></trkpt><trkpt lat="44.356349688385926" lon="9.209778812344586"><ele>11.0</ele><time>2026-04-03T09:55:21.999Z</time></trkpt><trkpt lat="44.356421146502775" lon="9.20975962304968"><ele>11.0</ele><time>2026-04-03T09:55:22.999Z</time></trkpt><trkpt lat="44.35648690968463" lon="9.209741195889942"><ele>11.0</ele><time>2026-04-03T09:55:23.999Z</time></trkpt><trkpt lat="44.35654904559666" lon="9.209721772587123"><ele>11.200000000000001</ele><time>2026-04-03T09:55:24.999Z</time></trkpt><trkpt lat="44.3566682352216" lon="9.209682043238601"><ele>11.4</ele><time>2026-04-03T09:55:26.999Z</time></trkpt><trkpt lat="44.35673998600824" lon="9.209665592486061"><ele>11.6</ele><time>2026-04-03T09:55:27.999Z</time></trkpt><trkpt lat="44.356822617089506" lon="9.209634022052821"><ele>11.8</ele><time>2026-04-03T09:55:28.999Z</time></trkpt><trkpt lat="44.35691941720527" lon="9.209597749003937"><ele>12.0</ele><time>2026-04-03T09:55:29.999Z</time></trkpt><trkpt lat="44.35702993317158" lon="9.20955976379236"><ele>12.0</ele><time>2026-04-03T09:55:30.999Z</time></trkpt><trkpt lat="44.35715050281958" lon="9.209512063316392"><ele>12.0</ele><time>2026-04-03T09:55:31.999Z</time></trkpt><trkpt lat="44.35727013652591" lon="9.209467539093167"><ele>12.0</ele><time>2026-04-03T09:55:32.999Z</time></trkpt><trkpt lat="44.357388108490866" lon="9.209428779617797"><ele>12.0</ele><time>2026-04-03T09:55:33.999Z</time></trkpt><trkpt lat="44.35750651238101" lon="9.209393769460567"><ele>14.25</ele><time>2026-04-03T09:55:34.999Z</time></trkpt><trkpt lat="44.35762605111644" lon="9.209356987853104"><ele>16.5</ele><time>2026-04-03T09:55:35.999Z</time></trkpt><trkpt lat="44.35774590647444" lon="9.20932237845145"><ele>18.75</ele><time>2026-04-03T09:55:36.999Z</time></trkpt><trkpt lat="44.35786233889439" lon="9.209283302581772"><ele>21.0</ele><time>2026-04-03T09:55:37.999Z</time></trkpt><trkpt lat="44.35798362477073" lon="9.209355761375225"><ele>21.25</ele><time>2026-04-03T09:55:38.999Z</time></trkpt><trkpt lat="44.35808883776553" lon="9.209439123796589"><ele>21.5</ele><time>2026-04-03T09:55:39.999Z</time></trkpt><trkpt lat="44.35818288756104" lon="9.209548294994407"><ele>21.75</ele><time>2026-04-03T09:55:40.999Z</time></trkpt><trkpt lat="44.35825446277639" lon="9.209677904687211"><ele>22.0</ele><time>2026-04-03T09:55:41.999Z</time></trkpt><trkpt lat="44.35829812252388" lon="9.209826520550942"><ele>22.0</ele><time>2026-04-03T09:55:42.999Z</time></trkpt><trkpt lat="44.35831594077028" lon="9.209989465037406"><ele>22.0</ele><time>2026-04-03T09:55:43.999Z</time></trkpt><trkpt lat="44.35831256802543" lon="9.210166658272838"><ele>22.0</ele><time>2026-04-03T09:55:44.999Z</time></trkpt><trkpt lat="44.358289642672155" lon="9.210351904177468"><ele>22.0</ele><time>2026-04-03T09:55:45.999Z</time></trkpt><trkpt lat="44.35824956180659" lon="9.210538370740103"><ele>23.5</ele><time>2026-04-03T09:55:46.999Z</time></trkpt><trkpt lat="44.358211310122265" lon="9.21072869715128"><ele>25.0</ele><time>2026-04-03T09:55:47.999Z</time></trkpt><trkpt lat="44.35817915810855" lon="9.210925788544591"><ele>26.5</ele><time>2026-04-03T09:55:48.999Z</time></trkpt><trkpt lat="44.35814687523954" lon="9.21112685368098"><ele>28.0</ele><time>2026-04-03T09:55:49.999Z</time></trkpt><trkpt lat="44.35811076652432" lon="9.21133284417665"><ele>26.0</ele><time>2026-04-03T09:55:50.999Z</time></trkpt><trkpt lat="44.358072262696496" lon="9.21154744560905"><ele>24.0</ele><time>2026-04-03T09:55:51.999Z</time></trkpt><trkpt lat="44.35803361338755" lon="9.21176704552593"><ele>22.0</ele><time>2026-04-03T09:55:52.999Z</time></trkpt><trkpt lat="44.35799489210232" lon="9.21198631724882"><ele>19.333333333333332</ele><time>2026-04-03T09:55:53.999Z</time></trkpt><trkpt lat="44.35795783209417" lon="9.212206257361839"><ele>16.666666666666668</ele><time>2026-04-03T09:55:54.999Z</time></trkpt><trkpt lat="44.35791889444817" lon="9.212431883282802"><ele>14.0</ele><time>2026-04-03T09:55:55.999Z</time></trkpt><trkpt lat="44.35788145659279" lon="9.212662537122517"><ele>13.666666666666668</ele><time>2026-04-03T09:55:56.999Z</time></trkpt><trkpt lat="44.35784133340565" lon="9.212894934146084"><ele>13.333333333333332</ele><time>2026-04-03T09:55:57.999Z</time></trkpt><trkpt lat="44.35780338966295" lon="9.2131233045541"><ele>13.0</ele><time>2026-04-03T09:55:58.999Z</time></trkpt><trkpt lat="44.35777102422655" lon="9.2133504795674"><ele>12.666666666666666</ele><time>2026-04-03T09:55:59.999Z</time></trkpt><trkpt lat="44.357739350584225" lon="9.2135732867452"><ele>12.333333333333332</ele><time>2026-04-03T09:56:00.999Z</time></trkpt><trkpt lat="44.35770554229738" lon="9.21380367586528"><ele>12.0</ele><time>2026-04-03T09:56:01.999Z</time></trkpt><trkpt lat="44.35767643326263" lon="9.21402908770376"><ele>14.666666666666668</ele><time>2026-04-03T09:56:02.999Z</time></trkpt><trkpt lat="44.357648291551726" lon="9.214256605155757"><ele>17.333333333333336</ele><time>2026-04-03T09:56:03.999Z</time></trkpt><trkpt lat="44.35762072144679" lon="9.214477751426092"><ele>20.0</ele><time>2026-04-03T09:56:04.999Z</time></trkpt><trkpt lat="44.35760118354583" lon="9.214703309555405"><ele>28.333333333333336</ele><time>2026-04-03T09:56:05.999Z</time></trkpt><trkpt lat="44.35758259784597" lon="9.214931761758214"><ele>36.666666666666664</ele><time>2026-04-03T09:56:06.999Z</time></trkpt><trkpt lat="44.35756676557131" lon="9.215186116775756"><ele>45.0</ele><time>2026-04-03T09:56:07.999Z</time></trkpt><trkpt lat="44.35755328794259" lon="9.215458776702693"><ele>50.33333333333333</ele><time>2026-04-03T09:56:08.999Z</time></trkpt><trkpt lat="44.35752692717064" lon="9.215669638057744"><ele>55.666666666666664</ele><time>2026-04-03T09:56:09.999Z</time></trkpt><trkpt lat="44.35750833453993" lon="9.215912177686716"><ele>61.0</ele><time>2026-04-03T09:56:10.999Z</time></trkpt><trkpt lat="44.35748819285228" lon="9.21615184591988"><ele>61.0</ele><time>2026-04-03T09:56:11.999Z</time></trkpt><trkpt lat="44.35746730824778" lon="9.216392695671228"><ele>61.0</ele><time>2026-04-03T09:56:12.999Z</time></trkpt><trkpt lat="44.35745049416903" lon="9.216644598561292"><ele>61.0</ele><time>2026-04-03T09:56:13.999Z</time></trkpt><trkpt lat="44.35743709114885" lon="9.216903121052452"><ele>59.5</ele><time>2026-04-03T09:56:14.999Z</time></trkpt><trkpt lat="44.35742330676157" lon="9.21716979611408"><ele>58.0</ele><time>2026-04-03T09:56:15.999Z</time></trkpt><trkpt lat="44.35744887283705" lon="9.217533396157588"><ele>49.0</ele><time>2026-04-03T09:56:16.999Z</time></trkpt><trkpt lat="44.35735767289504" lon="9.218099697022437"><ele>40.0</ele><time>2026-04-03T09:56:17.999Z</time></trkpt><trkpt lat="44.35729965757363" lon="9.218377906783694"><ele>38.0</ele><time>2026-04-03T09:56:18.999Z</time></trkpt><trkpt lat="44.35734104040595" lon="9.21862705633149"><ele>36.0</ele><time>2026-04-03T09:56:20Z</time></trkpt><trkpt lat="44.3573549117687" lon="9.218932389542823"><ele>34.0</ele><time>2026-04-03T09:56:21Z</time></trkpt><trkpt lat="44.357378211184496" lon="9.219236472502603"><ele>34.0</ele><time>2026-04-03T09:56:22Z</time></trkpt><trkpt lat="44.35741182757433" lon="9.21953761538419"><ele>34.0</ele><time>2026-04-03T09:56:23Z</time></trkpt><trkpt lat="44.35745496528476" lon="9.219837807269135"><ele>34.0</ele><time>2026-04-03T09:56:23.999Z</time></trkpt><trkpt lat="44.357503534862346" lon="9.22014404168793"><ele>38.0</ele><time>2026-04-03T09:56:24.999Z</time></trkpt><trkpt lat="44.3575559646149" lon="9.220447934147218"><ele>42.0</ele><time>2026-04-03T09:56:25.999Z</time></trkpt><trkpt lat="44.35761831728017" lon="9.220757743329084"><ele>44.5</ele><time>2026-04-03T09:56:26.999Z</time></trkpt><trkpt lat="44.35766495840391" lon="9.221083575238602"><ele>47.0</ele><time>2026-04-03T09:56:27.999Z</time></trkpt><trkpt lat="44.35773398586788" lon="9.221409883306496"><ele>49.0</ele><time>2026-04-03T09:56:28.999Z</time></trkpt><trkpt lat="44.35779492371305" lon="9.22175606070597"><ele>51.0</ele><time>2026-04-03T09:56:29.999Z</time></trkpt><trkpt lat="44.357853925137846" lon="9.22210011534739"><ele>51.5</ele><time>2026-04-03T09:56:30.999Z</time></trkpt><trkpt lat="44.357912812591984" lon="9.222440664696292"><ele>52.0</ele><time>2026-04-03T09:56:31.999Z</time></trkpt><trkpt lat="44.35797154854496" lon="9.222778822868417"><ele>52.0</ele><time>2026-04-03T09:56:32.999Z</time></trkpt><trkpt lat="44.35802873956771" lon="9.223119705418021"><ele>52.0</ele><time>2026-04-03T09:56:33.999Z</time></trkpt><trkpt lat="44.35808507621058" lon="9.223457228909448"><ele>47.5</ele><time>2026-04-03T09:56:34.999Z</time></trkpt><trkpt lat="44.3581404297099" lon="9.223792586046658"><ele>43.0</ele><time>2026-04-03T09:56:35.999Z</time></trkpt><trkpt lat="44.35819271132454" lon="9.22412580463158"><ele>43.0</ele><time>2026-04-03T09:56:36.999Z</time></trkpt><trkpt lat="44.35824357678678" lon="9.22445591818746"><ele>43.0</ele><time>2026-04-03T09:56:37.999Z</time></trkpt><trkpt lat="44.3582944997212" lon="9.224783572632608"><ele>49.0</ele><time>2026-04-03T09:56:38.999Z</time></trkpt><trkpt lat="44.35834429413549" lon="9.225107402216317"><ele>55.0</ele><time>2026-04-03T09:56:39.999Z</time></trkpt><trkpt lat="44.358394340351296" lon="9.225433651676042"><ele>58.0</ele><time>2026-04-03T09:56:40.999Z</time></trkpt><trkpt lat="44.35844888752024" lon="9.2257535571473"><ele>61.0</ele><time>2026-04-03T09:56:41.999Z</time></trkpt><trkpt lat="44.35850811383999" lon="9.226070456904205"><ele>61.0</ele><time>2026-04-03T09:56:42.999Z</time></trkpt><trkpt lat="44.35856653981372" lon="9.226387102549632"><ele>61.0</ele><time>2026-04-03T09:56:43.999Z</time></trkpt><trkpt lat="44.358624449312686" lon="9.22671192822804"><ele>60.0</ele><time>2026-04-03T09:56:44.999Z</time></trkpt><trkpt lat="44.358682320281176" lon="9.227032078795753"><ele>59.0</ele><time>2026-04-03T09:56:45.999Z</time></trkpt><trkpt lat="44.358739161451474" lon="9.227351884110705"><ele>58.0</ele><time>2026-04-03T09:56:46.999Z</time></trkpt><trkpt lat="44.358795078339064" lon="9.227671031723931"><ele>57.0</ele><time>2026-04-03T09:56:47.999Z</time></trkpt><trkpt lat="44.35885465982364" lon="9.227987966240455"><ele>64.66666666666667</ele><time>2026-04-03T09:56:48.999Z</time></trkpt><trkpt lat="44.35888917691175" lon="9.22828324339507"><ele>72.33333333333334</ele><time>2026-04-03T09:56:49.999Z</time></trkpt><trkpt lat="44.35891674257411" lon="9.228606862172795"><ele>80.0</ele><time>2026-04-03T09:56:50.999Z</time></trkpt><trkpt lat="44.35897437532101" lon="9.228938378654076"><ele>82.5</ele><time>2026-04-03T09:56:51.999Z</time></trkpt><trkpt lat="44.359017594920424" lon="9.229267743438713"><ele>85.0</ele><time>2026-04-03T09:56:52.999Z</time></trkpt><trkpt lat="44.359070818666574" lon="9.229607920492036"><ele>96.5</ele><time>2026-04-03T09:56:53.999Z</time></trkpt><trkpt lat="44.35912887281777" lon="9.229956037582207"><ele>108.0</ele><time>2026-04-03T09:56:54.999Z</time></trkpt><trkpt lat="44.35918793320906" lon="9.230301459084856"><ele>108.0</ele><time>2026-04-03T09:56:55.999Z</time></trkpt><trkpt lat="44.35923491015661" lon="9.23063767554742"><ele>108.0</ele><time>2026-04-03T09:56:56.999Z</time></trkpt><trkpt lat="44.35930123471065" lon="9.23098820922952"><ele>124.0</ele><time>2026-04-03T09:56:57.999Z</time></trkpt><trkpt lat="44.35937059001705" lon="9.231335684031945"><ele>140.0</ele><time>2026-04-03T09:56:58.999Z</time></trkpt><trkpt lat="44.359424529095584" lon="9.231684862472052"><ele>143.5</ele><time>2026-04-03T09:57:00.055Z</time></trkpt><trkpt lat="44.359451968676936" lon="9.232024108001479"><ele>147.0</ele><time>2026-04-03T09:57:01.048Z</time></trkpt><trkpt lat="44.35946117356645" lon="9.232361513892554"><ele>24.0</ele><time>2026-04-03T09:57:02.046Z</time></trkpt><trkpt lat="44.35686297031877" lon="9.235528988407749"><ele>42.0</ele><time>2026-04-03T09:57:06.811Z</time></trkpt><trkpt lat="44.359154992414595" lon="9.23441472324598"><ele>42.0</ele><time>2026-04-03T09:57:07.999Z</time></trkpt><trkpt lat="44.35909805588737" lon="9.234735016473683"><ele>42.0</ele><time>2026-04-03T09:57:08.999Z</time></trkpt><trkpt lat="44.35900975215087" lon="9.23504510872596"><ele>35.5</ele><time>2026-04-03T09:57:09.999Z</time></trkpt><trkpt lat="44.35890990679051" lon="9.235347506590493"><ele>29.0</ele><time>2026-04-03T09:57:10.999Z</time></trkpt><trkpt lat="44.3587879449137" lon="9.235632933010478"><ele>40.0</ele><time>2026-04-03T09:57:11.999Z</time></trkpt><trkpt lat="44.358658328524086" lon="9.235907372326464"><ele>51.0</ele><time>2026-04-03T09:57:12.999Z</time></trkpt><trkpt lat="44.35852434296737" lon="9.236182271756768"><ele>51.0</ele><time>2026-04-03T09:57:13.999Z</time></trkpt><trkpt lat="44.35838326531488" lon="9.236450644930713"><ele>51.0</ele><time>2026-04-03T09:57:14.999Z</time></trkpt><trkpt lat="44.358231210626705" lon="9.23670983517611"><ele>65.5</ele><time>2026-04-03T09:57:15.999Z</time></trkpt><trkpt lat="44.35807000914447" lon="9.236956445265527"><ele>80.0</ele><time>2026-04-03T09:57:16.999Z</time></trkpt><trkpt lat="44.357894970636025" lon="9.237177309879689"><ele>92.5</ele><time>2026-04-03T09:57:17.999Z</time></trkpt><trkpt lat="44.357714177674666" lon="9.237397499371015"><ele>105.0</ele><time>2026-04-03T09:57:18.999Z</time></trkpt><trkpt lat="44.357538093785514" lon="9.237624094727993"><ele>105.0</ele><time>2026-04-03T09:57:19.999Z</time></trkpt><trkpt lat="44.357360981619856" lon="9.237853450068263"><ele>105.0</ele><time>2026-04-03T09:57:20.999Z</time></trkpt><trkpt lat="44.357182673706035" lon="9.238084155038274"><ele>103.0</ele><time>2026-04-03T09:57:21.999Z</time></trkpt><trkpt lat="44.357003221466975" lon="9.238309347423014"><ele>101.0</ele><time>2026-04-03T09:57:22.999Z</time></trkpt><trkpt lat="44.356827970817825" lon="9.238536682545885"><ele>101.0</ele><time>2026-04-03T09:57:23.999Z</time></trkpt><trkpt lat="44.35665492895092" lon="9.238752574832727"><ele>101.0</ele><time>2026-04-03T09:57:24.999Z</time></trkpt><trkpt lat="44.35648841592922" lon="9.238963068425534"><ele>102.0</ele><time>2026-04-03T09:57:25.999Z</time></trkpt><trkpt lat="44.35632500926021" lon="9.239161749177875"><ele>103.0</ele><time>2026-04-03T09:57:26.999Z</time></trkpt><trkpt lat="44.35616961904504" lon="9.239354409665047"><ele>104.0</ele><time>2026-04-03T09:57:27.999Z</time></trkpt><trkpt lat="44.35600845751665" lon="9.23956909874009"><ele>104.0</ele><time>2026-04-03T09:57:28.999Z</time></trkpt><trkpt lat="44.35584762774042" lon="9.239785093071117"><ele>104.0</ele><time>2026-04-03T09:57:29.999Z</time></trkpt><trkpt lat="44.355679099837616" lon="9.240010080917246"><ele>114.5</ele><time>2026-04-03T09:57:30.999Z</time></trkpt><trkpt lat="44.35550835291741" lon="9.240240902290248"><ele>125.0</ele><time>2026-04-03T09:57:31.999Z</time></trkpt><trkpt lat="44.35532790365615" lon="9.240479862431952"><ele>135.5</ele><time>2026-04-03T09:57:32.999Z</time></trkpt><trkpt lat="44.35514367105273" lon="9.240716549573122"><ele>146.0</ele><time>2026-04-03T09:57:33.999Z</time></trkpt><trkpt lat="44.35495800971385" lon="9.240950185060264"><ele>146.0</ele><time>2026-04-03T09:57:34.999Z</time></trkpt><trkpt lat="44.354767267234116" lon="9.241195601078266"><ele>146.0</ele><time>2026-04-03T09:57:35.999Z</time></trkpt><trkpt lat="44.35456822768762" lon="9.24143288609922"><ele>129.0</ele><time>2026-04-03T09:57:36.999Z</time></trkpt><trkpt lat="44.354369180282504" lon="9.241666527163554"><ele>112.0</ele><time>2026-04-03T09:57:37.999Z</time></trkpt><trkpt lat="44.35417856427961" lon="9.241925640460911"><ele>112.0</ele><time>2026-04-03T09:57:38.999Z</time></trkpt><trkpt lat="44.35398173453548" lon="9.24218487444044"><ele>112.0</ele><time>2026-04-03T09:57:39.999Z</time></trkpt><trkpt lat="44.35376439181853" lon="9.242471243463314"><ele>83.0</ele><time>2026-04-03T09:57:41.017Z</time></trkpt><trkpt lat="44.35360718409991" lon="9.242770949917643"><ele>54.0</ele><time>2026-04-03T09:57:43.999Z</time></trkpt><trkpt lat="44.3534317594979" lon="9.242983593832781"><ele>51.333333333333336</ele><time>2026-04-03T09:57:44.999Z</time></trkpt><trkpt lat="44.3532745228481" lon="9.24320324847062"><ele>48.66666666666667</ele><time>2026-04-03T09:57:45.999Z</time></trkpt><trkpt lat="44.353114954556474" lon="9.243419118172397"><ele>46.0</ele><time>2026-04-03T09:57:46.999Z</time></trkpt><trkpt lat="44.35294890151975" lon="9.243643706992692"><ele>46.0</ele><time>2026-04-03T09:57:47.999Z</time></trkpt><trkpt lat="44.352786672784745" lon="9.243865767678"><ele>46.0</ele><time>2026-04-03T09:57:48.999Z</time></trkpt><trkpt lat="44.35262128744351" lon="9.24408259743156"><ele>61.5</ele><time>2026-04-03T09:57:49.999Z</time></trkpt><trkpt lat="44.35245574259128" lon="9.244296376673834"><ele>77.0</ele><time>2026-04-03T09:57:50.999Z</time></trkpt><trkpt lat="44.35228912108174" lon="9.244513008087402"><ele>75.0</ele><time>2026-04-03T09:57:51.999Z</time></trkpt><trkpt lat="44.35211922622847" lon="9.244730204911844"><ele>73.0</ele><time>2026-04-03T09:57:52.999Z</time></trkpt><trkpt lat="44.351956270670506" lon="9.244942753974039"><ele>82.0</ele><time>2026-04-03T09:57:53.999Z</time></trkpt><trkpt lat="44.351797041404474" lon="9.245150797270874"><ele>91.0</ele><time>2026-04-03T09:57:54.999Z</time></trkpt><trkpt lat="44.35164100338538" lon="9.245358620739504"><ele>100.0</ele><time>2026-04-03T09:57:55.999Z</time></trkpt><trkpt lat="44.35148364252842" lon="9.245576329286582"><ele>108.33333333333334</ele><time>2026-04-03T09:57:56.999Z</time></trkpt><trkpt lat="44.35132872223979" lon="9.245791649426204"><ele>116.66666666666666</ele><time>2026-04-03T09:57:57.999Z</time></trkpt><trkpt lat="44.35117274305699" lon="9.246009644987522"><ele>125.0</ele><time>2026-04-03T09:57:58.999Z</time></trkpt><trkpt lat="44.35101999363977" lon="9.246236658032306"><ele>125.0</ele><time>2026-04-03T09:57:59.999Z</time></trkpt><trkpt lat="44.35086348103937" lon="9.246457962563776"><ele>125.0</ele><time>2026-04-03T09:58:00.999Z</time></trkpt><trkpt lat="44.350716882665004" lon="9.246672864671401"><ele>125.0</ele><time>2026-04-03T09:58:01.999Z</time></trkpt><trkpt lat="44.350551222749516" lon="9.24690308871435"><ele>116.0</ele><time>2026-04-03T09:58:03.061Z</time></trkpt><trkpt lat="44.35039204694526" lon="9.247086448092043"><ele>107.0</ele><time>2026-04-03T09:58:03.999Z</time></trkpt><trkpt lat="44.35021345019526" lon="9.247221330156663"><ele>98.0</ele><time>2026-04-03T09:58:04.999Z</time></trkpt><trkpt lat="44.35005948199446" lon="9.247396541261445"><ele>98.0</ele><time>2026-04-03T09:58:05.999Z</time></trkpt><trkpt lat="44.349901278584525" lon="9.24762293797898"><ele>98.0</ele><time>2026-04-03T09:58:06.999Z</time></trkpt><trkpt lat="44.3497472702938" lon="9.247845207613528"><ele>98.0</ele><time>2026-04-03T09:58:07.999Z</time></trkpt><trkpt lat="44.3496027529889" lon="9.24807744955395"><ele>99.0</ele><time>2026-04-03T09:58:08.999Z</time></trkpt><trkpt lat="44.3494675580254" lon="9.248323103769355"><ele>100.0</ele><time>2026-04-03T09:58:09.999Z</time></trkpt><trkpt lat="44.349347678554935" lon="9.24858197177037"><ele>101.0</ele><time>2026-04-03T09:58:10.999Z</time></trkpt><trkpt lat="44.349235900800856" lon="9.248844010745096"><ele>103.66666666666666</ele><time>2026-04-03T09:58:11.999Z</time></trkpt><trkpt lat="44.34913830700462" lon="9.249115949905718"><ele>106.33333333333334</ele><time>2026-04-03T09:58:12.999Z</time></trkpt><trkpt lat="44.34904768455991" lon="9.249393718960661"><ele>109.0</ele><time>2026-04-03T09:58:13.999Z</time></trkpt><trkpt lat="44.348971081847644" lon="9.249680944813312"><ele>112.66666666666667</ele><time>2026-04-03T09:58:14.999Z</time></trkpt><trkpt lat="44.34891379484816" lon="9.24997622670215"><ele>116.33333333333334</ele><time>2026-04-03T09:58:15.999Z</time></trkpt><trkpt lat="44.3488679924164" lon="9.250273543905877"><ele>120.0</ele><time>2026-04-03T09:58:16.999Z</time></trkpt><trkpt lat="44.348830074244724" lon="9.250574891919921"><ele>111.33333333333333</ele><time>2026-04-03T09:58:17.999Z</time></trkpt><trkpt lat="44.34880162516699" lon="9.250874000064622"><ele>102.66666666666666</ele><time>2026-04-03T09:58:18.999Z</time></trkpt><trkpt lat="44.34877538689447" lon="9.25117876731128"><ele>94.0</ele><time>2026-04-03T09:58:19.999Z</time></trkpt><trkpt lat="44.348746938102856" lon="9.251488130092271"><ele>94.0</ele><time>2026-04-03T09:58:20.999Z</time></trkpt><trkpt lat="44.34871497437388" lon="9.25179885124289"><ele>94.0</ele><time>2026-04-03T09:58:21.999Z</time></trkpt><trkpt lat="44.3486787544452" lon="9.25211640478186"><ele>96.0</ele><time>2026-04-03T09:58:22.999Z</time></trkpt><trkpt lat="44.34863642599379" lon="9.252435378530862"><ele>98.0</ele><time>2026-04-03T09:58:23.999Z</time></trkpt><trkpt lat="44.348588269087976" lon="9.252753635858284"><ele>98.0</ele><time>2026-04-03T09:58:24.998Z</time></trkpt><trkpt lat="44.34853248475715" lon="9.253071320864331"><ele>98.0</ele><time>2026-04-03T09:58:25.999Z</time></trkpt><trkpt lat="44.348470197663616" lon="9.253389929055142"><ele>103.0</ele><time>2026-04-03T09:58:26.999Z</time></trkpt><trkpt lat="44.34840483262593" lon="9.253707500277061"><ele>108.0</ele><time>2026-04-03T09:58:27.999Z</time></trkpt><trkpt lat="44.34833673664716" lon="9.25402815952505"><ele>117.5</ele><time>2026-04-03T09:58:28.999Z</time></trkpt><trkpt lat="44.34826771597618" lon="9.25435221151063"><ele>127.0</ele><time>2026-04-03T09:58:29.999Z</time></trkpt><trkpt lat="44.348199155525116" lon="9.254670250287797"><ele>140.5</ele><time>2026-04-03T09:58:30.999Z</time></trkpt><trkpt lat="44.348132745501246" lon="9.254979658827553"><ele>154.0</ele><time>2026-04-03T09:58:31.999Z</time></trkpt><trkpt lat="44.348063676780065" lon="9.25529089836474"><ele>168.5</ele><time>2026-04-03T09:58:32.999Z</time></trkpt><trkpt lat="44.34799737703577" lon="9.255597030907765"><ele>183.0</ele><time>2026-04-03T09:58:33.999Z</time></trkpt><trkpt lat="44.34793206186588" lon="9.255904839862149"><ele>200.0</ele><time>2026-04-03T09:58:34.999Z</time></trkpt><trkpt lat="44.34786476027524" lon="9.256221136389088"><ele>217.0</ele><time>2026-04-03T09:58:35.999Z</time></trkpt><trkpt lat="44.347790898314656" lon="9.256557236826156"><ele>231.0</ele><time>2026-04-03T09:58:37.062Z</time></trkpt><trkpt lat="44.3477221355915" lon="9.256866530197717"><ele>245.0</ele><time>2026-04-03T09:58:38.057Z</time></trkpt><trkpt lat="44.34765077737789" lon="9.257178638135644"><ele>260.0</ele><time>2026-04-03T09:58:39.062Z</time></trkpt><trkpt lat="44.34758267458186" lon="9.257485073051251"><ele>275.0</ele><time>2026-04-03T09:58:40.057Z</time></trkpt><trkpt lat="44.347043774896534" lon="9.26020135008237"><ele>339.0</ele><time>2026-04-03T09:58:43.65Z</time></trkpt><trkpt lat="44.346759077720755" lon="9.261525470515586"><ele>351.0</ele><time>2026-04-03T09:58:44.652Z</time></trkpt><trkpt lat="44.346475182641086" lon="9.262847711849147"><ele>305.0</ele><time>2026-04-03T09:58:45.652Z</time></trkpt><trkpt lat="44.346189795037304" lon="9.264165946818675"><ele>321.0</ele><time>2026-04-03T09:58:46.65Z</time></trkpt><trkpt lat="44.3459029831447" lon="9.265488982556958"><ele>320.0</ele><time>2026-04-03T09:58:47.652Z</time></trkpt><trkpt lat="44.34561687930251" lon="9.266809645762596"><ele>245.0</ele><time>2026-04-03T09:58:48.652Z</time></trkpt><trkpt lat="44.34533202085766" lon="9.26813076945574"><ele>231.0</ele><time>2026-04-03T09:58:49.652Z</time></trkpt><trkpt lat="44.34504699557478" lon="9.2694527662753"><ele>186.0</ele><time>2026-04-03T09:58:50.653Z</time></trkpt><trkpt lat="44.344761642362876" lon="9.270773631018706"><ele>80.0</ele><time>2026-04-03T09:58:51.653Z</time></trkpt><trkpt lat="44.346013047071246" lon="9.274476682196056"><ele>80.0</ele><time>2026-04-03T09:59:23.999Z</time></trkpt><trkpt lat="44.34592054990472" lon="9.274753672306813"><ele>80.0</ele><time>2026-04-03T09:59:24.999Z</time></trkpt><trkpt lat="44.34408224338878" lon="9.273123659167222"><ele>75.66666666666667</ele><time>2026-04-03T09:59:26.999Z</time></trkpt><trkpt lat="44.34400070911761" lon="9.273343888446169"><ele>71.33333333333333</ele><time>2026-04-03T09:59:27.999Z</time></trkpt><trkpt lat="44.34389074030354" lon="9.273626762756283"><ele>67.0</ele><time>2026-04-03T09:59:28.999Z</time></trkpt><trkpt lat="44.34377070988665" lon="9.273943226040279"><ele>85.0</ele><time>2026-04-03T09:59:29.999Z</time></trkpt><trkpt lat="44.34365707466608" lon="9.274242716284279"><ele>103.0</ele><time>2026-04-03T09:59:30.999Z</time></trkpt><trkpt lat="44.34354716665967" lon="9.274528990169374"><ele>115.0</ele><time>2026-04-03T09:59:31.999Z</time></trkpt><trkpt lat="44.34343593446063" lon="9.274814704372568"><ele>127.0</ele><time>2026-04-03T09:59:32.999Z</time></trkpt><trkpt lat="44.343325232731935" lon="9.275099103701118"><ele>127.0</ele><time>2026-04-03T09:59:33.999Z</time></trkpt><trkpt lat="44.34321368341283" lon="9.275381710899591"><ele>127.0</ele><time>2026-04-03T09:59:34.999Z</time></trkpt><trkpt lat="44.34309005525511" lon="9.275650594683665"><ele>133.5</ele><time>2026-04-03T09:59:35.999Z</time></trkpt><trkpt lat="44.34294979685847" lon="9.275907595727862"><ele>140.0</ele><time>2026-04-03T09:59:36.999Z</time></trkpt><trkpt lat="44.34280235656447" lon="9.27615402423104"><ele>140.0</ele><time>2026-04-03T09:59:37.999Z</time></trkpt><trkpt lat="44.34266175671601" lon="9.276409219793766"><ele>140.0</ele><time>2026-04-03T09:59:38.999Z</time></trkpt><trkpt lat="44.34252047679078" lon="9.276676262973757"><ele>147.5</ele><time>2026-04-03T09:59:39.999Z</time></trkpt><trkpt lat="44.34237595886083" lon="9.276945075777514"><ele>155.0</ele><time>2026-04-03T09:59:40.999Z</time></trkpt><trkpt lat="44.342230366505184" lon="9.277212437220605"><ele>189.0</ele><time>2026-04-03T09:59:41.999Z</time></trkpt><trkpt lat="44.34207994905246" lon="9.277486326006839"><ele>223.0</ele><time>2026-04-03T09:59:42.999Z</time></trkpt><trkpt lat="44.34192702470065" lon="9.277765727300793"><ele>223.0</ele><time>2026-04-03T09:59:43.999Z</time></trkpt><trkpt lat="44.34176941692608" lon="9.27806078087263"><ele>223.0</ele><time>2026-04-03T09:59:44.999Z</time></trkpt><trkpt lat="44.34161492757858" lon="9.278356870092884"><ele>241.5</ele><time>2026-04-03T09:59:45.999Z</time></trkpt><trkpt lat="44.341460194396745" lon="9.278652272374007"><ele>260.0</ele><time>2026-04-03T09:59:46.999Z</time></trkpt><trkpt lat="44.34130267667054" lon="9.278955913782696"><ele>297.5</ele><time>2026-04-03T09:59:47.999Z</time></trkpt><trkpt lat="44.34114577632713" lon="9.279260919230348"><ele>335.0</ele><time>2026-04-03T09:59:48.999Z</time></trkpt><trkpt lat="44.340987689066814" lon="9.27957228061801"><ele>347.5</ele><time>2026-04-03T09:59:49.999Z</time></trkpt><trkpt lat="44.3408279353772" lon="9.279881167634057"><ele>360.0</ele><time>2026-04-03T09:59:50.999Z</time></trkpt><trkpt lat="44.3406692010592" lon="9.280189916561309"><ele>349.5</ele><time>2026-04-03T09:59:51.999Z</time></trkpt><trkpt lat="44.340511800071994" lon="9.280503042132752"><ele>339.0</ele><time>2026-04-03T09:59:52.999Z</time></trkpt><trkpt lat="44.340351683357156" lon="9.28081383320735"><ele>339.0</ele><time>2026-04-03T09:59:53.999Z</time></trkpt><trkpt lat="44.34018826774766" lon="9.281129294358575"><ele>339.0</ele><time>2026-04-03T09:59:54.999Z</time></trkpt><trkpt lat="44.34002543908342" lon="9.28144428147614"><ele>332.0</ele><time>2026-04-03T09:59:55.999Z</time></trkpt><trkpt lat="44.33986258877331" lon="9.281759758890834"><ele>325.0</ele><time>2026-04-03T09:59:56.999Z</time></trkpt><trkpt lat="44.33969858985615" lon="9.282079902131583"><ele>337.0</ele><time>2026-04-03T09:59:57.999Z</time></trkpt><trkpt lat="44.3395308562447" lon="9.282400942843793"><ele>349.0</ele><time>2026-04-03T09:59:58.999Z</time></trkpt><trkpt lat="44.33936127267987" lon="9.28272651444805"><ele>349.0</ele><time>2026-04-03T09:59:59.999Z</time></trkpt><trkpt lat="44.33919275158954" lon="9.283057737611426"><ele>349.0</ele><time>2026-04-03T10:00:00.999Z</time></trkpt><trkpt lat="44.33902320753042" lon="9.28338814592878"><ele>345.5</ele><time>2026-04-03T10:00:01.999Z</time></trkpt><trkpt lat="44.33885168009581" lon="9.283728741717448"><ele>342.0</ele><time>2026-04-03T10:00:02.999Z</time></trkpt><trkpt lat="44.33867682623568" lon="9.28407401626489"><ele>350.0</ele><time>2026-04-03T10:00:03.999Z</time></trkpt><trkpt lat="44.33850077436543" lon="9.28442762588357"><ele>358.0</ele><time>2026-04-03T10:00:04.999Z</time></trkpt><trkpt lat="44.3383202911467" lon="9.284774557442706"><ele>361.0</ele><time>2026-04-03T10:00:05.999Z</time></trkpt><trkpt lat="44.33813965871174" lon="9.285120096735188"><ele>364.0</ele><time>2026-04-03T10:00:06.999Z</time></trkpt><trkpt lat="44.33795163668173" lon="9.285482299731445"><ele>302.0</ele><time>2026-04-03T10:00:08.019Z</time></trkpt><trkpt lat="44.336832267489534" lon="9.28783181735754"><ele>269.0</ele><time>2026-04-03T10:00:11.648Z</time></trkpt><trkpt lat="44.336363148499714" lon="9.288756294668062"><ele>225.0</ele><time>2026-04-03T10:00:12.652Z</time></trkpt><trkpt lat="44.33588164842792" lon="9.289659111176029"><ele>206.0</ele><time>2026-04-03T10:00:13.648Z</time></trkpt><trkpt lat="44.3353574226112" lon="9.290523574656781"><ele>192.0</ele><time>2026-04-03T10:00:14.652Z</time></trkpt><trkpt lat="44.33465259287029" lon="9.29137080868761"><ele>174.5</ele><time>2026-04-03T10:00:31.998Z</time></trkpt><trkpt lat="44.33442040792771" lon="9.291730709862115"><ele>157.0</ele><time>2026-04-03T10:00:32.998Z</time></trkpt><trkpt lat="44.334230910790524" lon="9.291911213172368"><ele>157.0</ele><time>2026-04-03T10:00:33.998Z</time></trkpt><trkpt lat="44.3340188817723" lon="9.292116135903713"><ele>157.0</ele><time>2026-04-03T10:00:34.998Z</time></trkpt><trkpt lat="44.333811335247944" lon="9.29230921308704"><ele>149.5</ele><time>2026-04-03T10:00:35.998Z</time></trkpt><trkpt lat="44.33359362481311" lon="9.292510214961041"><ele>142.0</ele><time>2026-04-03T10:00:36.998Z</time></trkpt><trkpt lat="44.3333752660252" lon="9.29270534507051"><ele>142.0</ele><time>2026-04-03T10:00:37.999Z</time></trkpt><trkpt lat="44.333160261296385" lon="9.292896552794094"><ele>142.0</ele><time>2026-04-03T10:00:38.999Z</time></trkpt><trkpt lat="44.33294906992645" lon="9.29310247725666"><ele>143.0</ele><time>2026-04-03T10:00:39.999Z</time></trkpt><trkpt lat="44.33274576495092" lon="9.293328331267436"><ele>144.0</ele><time>2026-04-03T10:00:40.999Z</time></trkpt><trkpt lat="44.332551025448645" lon="9.293574369432347"><ele>144.0</ele><time>2026-04-03T10:00:41.999Z</time></trkpt><trkpt lat="44.33236975796254" lon="9.29383604359663"><ele>144.0</ele><time>2026-04-03T10:00:42.999Z</time></trkpt><trkpt lat="44.33219974610944" lon="9.294120504156858"><ele>151.0</ele><time>2026-04-03T10:00:43.999Z</time></trkpt><trkpt lat="44.332041244096914" lon="9.294416256404057"><ele>158.0</ele><time>2026-04-03T10:00:44.999Z</time></trkpt><trkpt lat="44.331889184906466" lon="9.294725881300607"><ele>145.5</ele><time>2026-04-03T10:00:45.999Z</time></trkpt><trkpt lat="44.33175134565236" lon="9.295050600341234"><ele>133.0</ele><time>2026-04-03T10:00:46.999Z</time></trkpt><trkpt lat="44.33162569977871" lon="9.2953850546949"><ele>123.5</ele><time>2026-04-03T10:00:47.999Z</time></trkpt><trkpt lat="44.33151000995615" lon="9.295733154175158"><ele>114.0</ele><time>2026-04-03T10:00:48.999Z</time></trkpt><trkpt lat="44.33140283083084" lon="9.296088323895395"><ele>129.5</ele><time>2026-04-03T10:00:49.999Z</time></trkpt><trkpt lat="44.33130303995814" lon="9.296449374410397"><ele>145.0</ele><time>2026-04-03T10:00:50.999Z</time></trkpt><trkpt lat="44.331204293945376" lon="9.296811646406118"><ele>145.0</ele><time>2026-04-03T10:00:51.999Z</time></trkpt><trkpt lat="44.33110483484567" lon="9.297174342715302"><ele>145.0</ele><time>2026-04-03T10:00:52.999Z</time></trkpt><trkpt lat="44.33100714619404" lon="9.297539187212475"><ele>141.0</ele><time>2026-04-03T10:00:53.999Z</time></trkpt><trkpt lat="44.3309319880704" lon="9.297918586281167"><ele>137.0</ele><time>2026-04-03T10:00:54.999Z</time></trkpt><trkpt lat="44.33087478328143" lon="9.298307076534533"><ele>133.0</ele><time>2026-04-03T10:00:55.999Z</time></trkpt><trkpt lat="44.33083678906733" lon="9.29870183349089"><ele>129.0</ele><time>2026-04-03T10:00:56.999Z</time></trkpt><trkpt lat="44.330816795532485" lon="9.299096055923972"><ele>120.5</ele><time>2026-04-03T10:00:57.999Z</time></trkpt><trkpt lat="44.330808950518005" lon="9.299491366002421"><ele>112.0</ele><time>2026-04-03T10:00:58.999Z</time></trkpt><trkpt lat="44.3308240697945" lon="9.299888075699695"><ele>108.5</ele><time>2026-04-03T10:00:59.999Z</time></trkpt><trkpt lat="44.33085821569362" lon="9.30028320725934"><ele>105.0</ele><time>2026-04-03T10:01:01Z</time></trkpt><trkpt lat="44.33090345683979" lon="9.300672972148718"><ele>105.0</ele><time>2026-04-03T10:01:02Z</time></trkpt><trkpt lat="44.33095222119476" lon="9.301064317157818"><ele>105.0</ele><time>2026-04-03T10:01:03Z</time></trkpt><trkpt lat="44.330990107285004" lon="9.301456467230064"><ele>107.5</ele><time>2026-04-03T10:01:04Z</time></trkpt><trkpt lat="44.33100354671691" lon="9.301846195134912"><ele>110.0</ele><time>2026-04-03T10:01:05Z</time></trkpt><trkpt lat="44.330997599718046" lon="9.30223981311609"><ele>111.0</ele><time>2026-04-03T10:01:06Z</time></trkpt><trkpt lat="44.330975745780705" lon="9.302624195317854"><ele>112.0</ele><time>2026-04-03T10:01:07Z</time></trkpt><trkpt lat="44.33094608514396" lon="9.303009997722834"><ele>110.0</ele><time>2026-04-03T10:01:08Z</time></trkpt><trkpt lat="44.33091696007485" lon="9.303396719556495"><ele>108.0</ele><time>2026-04-03T10:01:09Z</time></trkpt><trkpt lat="44.33089614251646" lon="9.303780612802985"><ele>105.0</ele><time>2026-04-03T10:01:10Z</time></trkpt><trkpt lat="44.33089151406443" lon="9.304166761021971"><ele>102.0</ele><time>2026-04-03T10:01:11Z</time></trkpt><trkpt lat="44.330903215402905" lon="9.304552310531944"><ele>103.0</ele><time>2026-04-03T10:01:12Z</time></trkpt><trkpt lat="44.330929335668664" lon="9.304933970772026"><ele>104.0</ele><time>2026-04-03T10:01:13Z</time></trkpt><trkpt lat="44.330971563573236" lon="9.305314204199831"><ele>107.0</ele><time>2026-04-03T10:01:14Z</time></trkpt><trkpt lat="44.33101879079471" lon="9.30569233794869"><ele>110.0</ele><time>2026-04-03T10:01:15Z</time></trkpt><trkpt lat="44.33105941350237" lon="9.306069903162298"><ele>110.0</ele><time>2026-04-03T10:01:16Z</time></trkpt><trkpt lat="44.33108682052042" lon="9.306455023391456"><ele>110.0</ele><time>2026-04-03T10:01:17Z</time></trkpt><trkpt lat="44.33110049235803" lon="9.306835069842334"><ele>110.0</ele><time>2026-04-03T10:01:18Z</time></trkpt><trkpt lat="44.33108899169957" lon="9.307220448835315"><ele>110.0</ele><time>2026-04-03T10:01:19Z</time></trkpt><trkpt lat="44.33105239793616" lon="9.307606700252402"><ele>106.0</ele><time>2026-04-03T10:01:20Z</time></trkpt><trkpt lat="44.33100017062479" lon="9.307983531712978"><ele>102.0</ele><time>2026-04-03T10:01:21Z</time></trkpt><trkpt lat="44.330933319806356" lon="9.308354319676571"><ele>97.5</ele><time>2026-04-03T10:01:22Z</time></trkpt><trkpt lat="44.33085824075534" lon="9.308722954433062"><ele>93.0</ele><time>2026-04-03T10:01:23Z</time></trkpt><trkpt lat="44.330781943760066" lon="9.309083857285097"><ele>83.5</ele><time>2026-04-03T10:01:24Z</time></trkpt><trkpt lat="44.330708037610414" lon="9.30945030007884"><ele>74.0</ele><time>2026-04-03T10:01:25Z</time></trkpt><trkpt lat="44.33063272172828" lon="9.309815787949288"><ele>77.0</ele><time>2026-04-03T10:01:26Z</time></trkpt><trkpt lat="44.330559856593105" lon="9.310178476133984"><ele>80.0</ele><time>2026-04-03T10:01:27Z</time></trkpt><trkpt lat="44.33048426172372" lon="9.310546448954682"><ele>79.0</ele><time>2026-04-03T10:01:28Z</time></trkpt><trkpt lat="44.33040717754664" lon="9.310913426803735"><ele>78.0</ele><time>2026-04-03T10:01:29Z</time></trkpt><trkpt lat="44.33032532721869" lon="9.311276208654563"><ele>78.5</ele><time>2026-04-03T10:01:30Z</time></trkpt><trkpt lat="44.33024117436749" lon="9.311633668970888"><ele>79.0</ele><time>2026-04-03T10:01:31Z</time></trkpt><trkpt lat="44.33014900522736" lon="9.311987754308362"><ele>72.5</ele><time>2026-04-03T10:01:32Z</time></trkpt><trkpt lat="44.33005439029512" lon="9.312344609814655"><ele>66.0</ele><time>2026-04-03T10:01:33Z</time></trkpt><trkpt lat="44.32995355478974" lon="9.312698982820983"><ele>66.0</ele><time>2026-04-03T10:01:34Z</time></trkpt><trkpt lat="44.32985376200504" lon="9.313054144321784"><ele>66.0</ele><time>2026-04-03T10:01:35Z</time></trkpt><trkpt lat="44.32975232390632" lon="9.313400524327935"><ele>71.0</ele><time>2026-04-03T10:01:36Z</time></trkpt><trkpt lat="44.32964804564344" lon="9.31374236525601"><ele>76.0</ele><time>2026-04-03T10:01:37Z</time></trkpt><trkpt lat="44.32954137866596" lon="9.314082506601588"><ele>76.0</ele><time>2026-04-03T10:01:38Z</time></trkpt><trkpt lat="44.32943259145889" lon="9.31442093340892"><ele>76.0</ele><time>2026-04-03T10:01:39Z</time></trkpt><trkpt lat="44.329323563183394" lon="9.314761404568605"><ele>73.5</ele><time>2026-04-03T10:01:40Z</time></trkpt><trkpt lat="44.32921538155377" lon="9.315095137557082"><ele>71.0</ele><time>2026-04-03T10:01:41Z</time></trkpt><trkpt lat="44.32910708796854" lon="9.315430262268482"><ele>74.5</ele><time>2026-04-03T10:01:42Z</time></trkpt><trkpt lat="44.32900217391021" lon="9.315764323768914"><ele>78.0</ele><time>2026-04-03T10:01:43Z</time></trkpt><trkpt lat="44.32890034361058" lon="9.316098224949835"><ele>80.0</ele><time>2026-04-03T10:01:44Z</time></trkpt><trkpt lat="44.32879574344165" lon="9.316438818245722"><ele>82.0</ele><time>2026-04-03T10:01:45Z</time></trkpt><trkpt lat="44.328690303969445" lon="9.316779300550396"><ele>82.0</ele><time>2026-04-03T10:01:46Z</time></trkpt><trkpt lat="44.328586276586975" lon="9.317119827563113"><ele>82.0</ele><time>2026-04-03T10:01:47Z</time></trkpt><trkpt lat="44.32847991034971" lon="9.31749053014331"><ele>69.5</ele><time>2026-04-03T10:01:48Z</time></trkpt><trkpt lat="44.328371546108336" lon="9.317821906103292"><ele>57.0</ele><time>2026-04-03T10:01:49Z</time></trkpt><trkpt lat="44.32826057923122" lon="9.31817145343363"><ele>48.0</ele><time>2026-04-03T10:01:50Z</time></trkpt><trkpt lat="44.328145613432895" lon="9.318486736342606"><ele>39.0</ele><time>2026-04-03T10:01:51Z</time></trkpt><trkpt lat="44.32802743126104" lon="9.318804613221742"><ele>29.5</ele><time>2026-04-03T10:01:52Z</time></trkpt><trkpt lat="44.327894819625214" lon="9.319111116140123"><ele>20.0</ele><time>2026-04-03T10:01:53Z</time></trkpt><trkpt lat="44.32775070134475" lon="9.319389203732005"><ele>20.0</ele><time>2026-04-03T10:01:54Z</time></trkpt><trkpt lat="44.327611810431634" lon="9.31968224964405"><ele>20.0</ele><time>2026-04-03T10:01:55Z</time></trkpt><trkpt lat="44.32747383000755" lon="9.319978512334835"><ele>18.0</ele><time>2026-04-03T10:01:56Z</time></trkpt><trkpt lat="44.327338575805214" lon="9.320279376977094"><ele>16.0</ele><time>2026-04-03T10:01:57Z</time></trkpt><trkpt lat="44.327203204155346" lon="9.320585789387122"><ele>12.0</ele><time>2026-04-03T10:01:58Z</time></trkpt><trkpt lat="44.327070920289295" lon="9.320897235440693"><ele>8.0</ele><time>2026-04-03T10:01:59Z</time></trkpt><trkpt lat="44.326947865822014" lon="9.321223138526952"><ele>12.0</ele><time>2026-04-03T10:02:00Z</time></trkpt><trkpt lat="44.32684272153549" lon="9.321560741356178"><ele>16.0</ele><time>2026-04-03T10:02:01Z</time></trkpt><trkpt lat="44.32674336510765" lon="9.321901053319442"><ele>22.0</ele><time>2026-04-03T10:02:02Z</time></trkpt><trkpt lat="44.32665008409264" lon="9.322249226919974"><ele>28.0</ele><time>2026-04-03T10:02:03Z</time></trkpt><trkpt lat="44.326569103115276" lon="9.322596240638786"><ele>28.0</ele><time>2026-04-03T10:02:04Z</time></trkpt><trkpt lat="44.32649707334182" lon="9.322947047851704"><ele>28.0</ele><time>2026-04-03T10:02:05Z</time></trkpt><trkpt lat="44.32643173781944" lon="9.323303781807033"><ele>32.5</ele><time>2026-04-03T10:02:06Z</time></trkpt><trkpt lat="44.3263663489475" lon="9.323653977253482"><ele>37.0</ele><time>2026-04-03T10:02:07Z</time></trkpt><trkpt lat="44.32630302417055" lon="9.324007763319846"><ele>37.0</ele><time>2026-04-03T10:02:08Z</time></trkpt><trkpt lat="44.32623855201698" lon="9.32436505716767"><ele>37.0</ele><time>2026-04-03T10:02:09Z</time></trkpt><trkpt lat="44.326174278488054" lon="9.32472205405506"><ele>42.0</ele><time>2026-04-03T10:02:10Z</time></trkpt><trkpt lat="44.32610742705971" lon="9.325083844179133"><ele>47.0</ele><time>2026-04-03T10:02:11Z</time></trkpt><trkpt lat="44.326042962867646" lon="9.325448157630978"><ele>45.5</ele><time>2026-04-03T10:02:12Z</time></trkpt><trkpt lat="44.325978382017595" lon="9.325816508846337"><ele>44.0</ele><time>2026-04-03T10:02:13Z</time></trkpt><trkpt lat="44.325913754739005" lon="9.326184317603834"><ele>41.0</ele><time>2026-04-03T10:02:14Z</time></trkpt><trkpt lat="44.325847232689476" lon="9.326553952427894"><ele>38.0</ele><time>2026-04-03T10:02:15Z</time></trkpt><trkpt lat="44.32577910453207" lon="9.326918381114087"><ele>37.5</ele><time>2026-04-03T10:02:16Z</time></trkpt><trkpt lat="44.32570699831167" lon="9.32728236612475"><ele>37.0</ele><time>2026-04-03T10:02:17Z</time></trkpt><trkpt lat="44.32563211783206" lon="9.327639684008457"><ele>35.0</ele><time>2026-04-03T10:02:18Z</time></trkpt><trkpt lat="44.32554922075793" lon="9.327994014977996"><ele>33.0</ele><time>2026-04-03T10:02:19Z</time></trkpt><trkpt lat="44.3254598812308" lon="9.328343027134453"><ele>40.0</ele><time>2026-04-03T10:02:20Z</time></trkpt><trkpt lat="44.325371083700176" lon="9.328691086512878"><ele>47.0</ele><time>2026-04-03T10:02:21Z</time></trkpt><trkpt lat="44.3252810300087" lon="9.329035168298258"><ele>60.0</ele><time>2026-04-03T10:02:22Z</time></trkpt><trkpt lat="44.32518121016063" lon="9.329371634838203"><ele>73.0</ele><time>2026-04-03T10:02:23Z</time></trkpt><trkpt lat="44.32507510608604" lon="9.329702414393546"><ele>84.0</ele><time>2026-04-03T10:02:24Z</time></trkpt><trkpt lat="44.3249614677948" lon="9.330028094534923"><ele>95.0</ele><time>2026-04-03T10:02:25Z</time></trkpt><trkpt lat="44.324871730882116" lon="9.330365094294509"><ele>103.0</ele><time>2026-04-03T10:02:26Z</time></trkpt><trkpt lat="44.32477178122568" lon="9.330703259540185"><ele>111.0</ele><time>2026-04-03T10:02:27Z</time></trkpt><trkpt lat="44.32466718465404" lon="9.33103762234293"><ele>111.0</ele><time>2026-04-03T10:02:28Z</time></trkpt><trkpt lat="44.3245614231253" lon="9.331366519079078"><ele>111.0</ele><time>2026-04-03T10:02:29Z</time></trkpt><trkpt lat="44.324455589231626" lon="9.331688638632219"><ele>107.5</ele><time>2026-04-03T10:02:30Z</time></trkpt><trkpt lat="44.32434690776634" lon="9.332011257159424"><ele>104.0</ele><time>2026-04-03T10:02:31Z</time></trkpt><trkpt lat="44.324232054438504" lon="9.33233279686598"><ele>94.0</ele><time>2026-04-03T10:02:32Z</time></trkpt><trkpt lat="44.324069664088896" lon="9.333012942125618"><ele>85.5</ele><time>2026-04-03T10:02:33Z</time></trkpt><trkpt lat="44.32393600043762" lon="9.333370225166583"><ele>77.0</ele><time>2026-04-03T10:02:34Z</time></trkpt><trkpt lat="44.3237985593203" lon="9.333723118171555"><ele>63.0</ele><time>2026-04-03T10:02:35Z</time></trkpt><trkpt lat="44.32365723572009" lon="9.334072039948992"><ele>49.0</ele><time>2026-04-03T10:02:36Z</time></trkpt><trkpt lat="44.32349146943865" lon="9.334354649389683"><ele>49.0</ele><time>2026-04-03T10:02:37Z</time></trkpt><trkpt lat="44.32336812674165" lon="9.33467320755974"><ele>49.0</ele><time>2026-04-03T10:02:38Z</time></trkpt><trkpt lat="44.323233595732354" lon="9.334981692420182"><ele>48.0</ele><time>2026-04-03T10:02:39Z</time></trkpt><trkpt lat="44.32310780406926" lon="9.335270323160184"><ele>47.0</ele><time>2026-04-03T10:02:40Z</time></trkpt><trkpt lat="44.32292290308986" lon="9.33561551800184"><ele>43.0</ele><time>2026-04-03T10:02:41Z</time></trkpt><trkpt lat="44.32280625933435" lon="9.33589729837179"><ele>39.0</ele><time>2026-04-03T10:02:42Z</time></trkpt><trkpt lat="44.322693529448856" lon="9.336174292729044"><ele>48.0</ele><time>2026-04-03T10:02:43.001Z</time></trkpt><trkpt lat="44.322571640440124" lon="9.336457713874116"><ele>57.0</ele><time>2026-04-03T10:02:44.001Z</time></trkpt><trkpt lat="44.32245384013717" lon="9.336746592346028"><ele>57.0</ele><time>2026-04-03T10:02:45.001Z</time></trkpt><trkpt lat="44.32232616567792" lon="9.337039135998438"><ele>57.0</ele><time>2026-04-03T10:02:46.001Z</time></trkpt><trkpt lat="44.32219221609012" lon="9.337325517254026"><ele>57.0</ele><time>2026-04-03T10:02:47.001Z</time></trkpt><trkpt lat="44.322053807201115" lon="9.33761840307901"><ele>57.0</ele><time>2026-04-03T10:02:48.001Z</time></trkpt><trkpt lat="44.321948223774775" lon="9.337936229795726"><ele>52.0</ele><time>2026-04-03T10:02:49.001Z</time></trkpt><trkpt lat="44.32183667143724" lon="9.338246790208915"><ele>47.0</ele><time>2026-04-03T10:02:50.001Z</time></trkpt><trkpt lat="44.321730439140666" lon="9.338556282620754"><ele>47.0</ele><time>2026-04-03T10:02:51.001Z</time></trkpt><trkpt lat="44.32165119610817" lon="9.338834877106086"><ele>47.0</ele><time>2026-04-03T10:02:52.001Z</time></trkpt><trkpt lat="44.32155902016123" lon="9.339217830254784"><ele>45.0</ele><time>2026-04-03T10:02:53.001Z</time></trkpt><trkpt lat="44.32144550411704" lon="9.339547899669384"><ele>43.0</ele><time>2026-04-03T10:02:54.001Z</time></trkpt><trkpt lat="44.32133725678573" lon="9.339867839910905"><ele>35.0</ele><time>2026-04-03T10:02:55.001Z</time></trkpt><trkpt lat="44.32122311587292" lon="9.340189378896989"><ele>27.0</ele><time>2026-04-03T10:02:56.001Z</time></trkpt><trkpt lat="44.32111163993507" lon="9.340503608918675"><ele>23.5</ele><time>2026-04-03T10:02:57.001Z</time></trkpt><trkpt lat="44.32099349196715" lon="9.340817655293868"><ele>20.0</ele><time>2026-04-03T10:02:58.001Z</time></trkpt><trkpt lat="44.32087825611759" lon="9.341128471790242"><ele>15.0</ele><time>2026-04-03T10:02:59.001Z</time></trkpt><trkpt lat="44.3207643761416" lon="9.341438323957792"><ele>10.0</ele><time>2026-04-03T10:03:00.001Z</time></trkpt><trkpt lat="44.32065211823375" lon="9.34174416605513"><ele>9.5</ele><time>2026-04-03T10:03:01.001Z</time></trkpt><trkpt lat="44.32054178910678" lon="9.342052117773248"><ele>9.0</ele><time>2026-04-03T10:03:02.001Z</time></trkpt><trkpt lat="44.32043345415322" lon="9.34236131692455"><ele>8.5</ele><time>2026-04-03T10:03:03.001Z</time></trkpt><trkpt lat="44.32032670604762" lon="9.342668797447674"><ele>8.0</ele><time>2026-04-03T10:03:04.001Z</time></trkpt><trkpt lat="44.32021510860872" lon="9.342977562821652"><ele>9.0</ele><time>2026-04-03T10:03:05.001Z</time></trkpt><trkpt lat="44.32010280915228" lon="9.343276833460546"><ele>10.0</ele><time>2026-04-03T10:03:06Z</time></trkpt><trkpt lat="44.31999060052154" lon="9.343580162211122"><ele>9.0</ele><time>2026-04-03T10:03:07Z</time></trkpt><trkpt lat="44.319875817269576" lon="9.343883449413356"><ele>8.0</ele><time>2026-04-03T10:03:08Z</time></trkpt><trkpt lat="44.31976355520641" lon="9.344187542619467"><ele>7.5</ele><time>2026-04-03T10:03:09Z</time></trkpt><trkpt lat="44.319650567208676" lon="9.344495312435074"><ele>7.0</ele><time>2026-04-03T10:03:10Z</time></trkpt><trkpt lat="44.31954074423886" lon="9.344799787213534"><ele>7.0</ele><time>2026-04-03T10:03:11Z</time></trkpt><trkpt lat="44.319429571238345" lon="9.345106452433102"><ele>7.0</ele><time>2026-04-03T10:03:12Z</time></trkpt><trkpt lat="44.31932084874831" lon="9.345411336285357"><ele>7.0</ele><time>2026-04-03T10:03:13Z</time></trkpt><trkpt lat="44.31921056250139" lon="9.3457137743432"><ele>7.0</ele><time>2026-04-03T10:03:14Z</time></trkpt><trkpt lat="44.31910002323811" lon="9.346019662905572"><ele>7.0</ele><time>2026-04-03T10:03:15Z</time></trkpt><trkpt lat="44.318989751865956" lon="9.346323445291448"><ele>7.0</ele><time>2026-04-03T10:03:16Z</time></trkpt><trkpt lat="44.31887849747185" lon="9.34662891865233"><ele>8.0</ele><time>2026-04-03T10:03:17Z</time></trkpt><trkpt lat="44.318767673667544" lon="9.346933712447386"><ele>9.0</ele><time>2026-04-03T10:03:18Z</time></trkpt><trkpt lat="44.31865546139419" lon="9.347238420218149"><ele>18.0</ele><time>2026-04-03T10:03:19Z</time></trkpt><trkpt lat="44.31854290774606" lon="9.347543668139037"><ele>27.0</ele><time>2026-04-03T10:03:20Z</time></trkpt><trkpt lat="44.31843281631586" lon="9.34784799557996"><ele>31.0</ele><time>2026-04-03T10:03:21Z</time></trkpt><trkpt lat="44.31832440633281" lon="9.348149284358268"><ele>35.0</ele><time>2026-04-03T10:03:22Z</time></trkpt><trkpt lat="44.31821350646063" lon="9.348452756685502"><ele>35.0</ele><time>2026-04-03T10:03:23Z</time></trkpt><trkpt lat="44.31810043113116" lon="9.348751148278781"><ele>35.0</ele><time>2026-04-03T10:03:24Z</time></trkpt><trkpt lat="44.31798035818263" lon="9.349042863218836"><ele>39.5</ele><time>2026-04-03T10:03:25Z</time></trkpt><trkpt lat="44.31785747505422" lon="9.349332757040694"><ele>44.0</ele><time>2026-04-03T10:03:26Z</time></trkpt><trkpt lat="44.31773017890076" lon="9.349618963112956"><ele>44.0</ele><time>2026-04-03T10:03:27Z</time></trkpt><trkpt lat="44.31760326352383" lon="9.349904663160032"><ele>44.0</ele><time>2026-04-03T10:03:28Z</time></trkpt><trkpt lat="44.31747387952706" lon="9.350189921227715"><ele>44.0</ele><time>2026-04-03T10:03:29Z</time></trkpt><trkpt lat="44.317345135428155" lon="9.350469526079108"><ele>44.0</ele><time>2026-04-03T10:03:30Z</time></trkpt><trkpt lat="44.3172186824866" lon="9.350755516349187"><ele>36.5</ele><time>2026-04-03T10:03:31Z</time></trkpt><trkpt lat="44.31709178047778" lon="9.351041460981758"><ele>29.0</ele><time>2026-04-03T10:03:32Z</time></trkpt><trkpt lat="44.316966651323355" lon="9.351329535868151"><ele>30.5</ele><time>2026-04-03T10:03:33Z</time></trkpt><trkpt lat="44.316840693955484" lon="9.35161108497535"><ele>32.0</ele><time>2026-04-03T10:03:34Z</time></trkpt><trkpt lat="44.31671350135572" lon="9.351889239397549"><ele>32.0</ele><time>2026-04-03T10:03:35Z</time></trkpt><trkpt lat="44.31658449154336" lon="9.35216637906421"><ele>32.0</ele><time>2026-04-03T10:03:36Z</time></trkpt><trkpt lat="44.316453864060975" lon="9.352446808433871"><ele>26.0</ele><time>2026-04-03T10:03:37Z</time></trkpt><trkpt lat="44.31631983246909" lon="9.352725684060161"><ele>20.0</ele><time>2026-04-03T10:03:38Z</time></trkpt><trkpt lat="44.316179511439266" lon="9.352997435487818"><ele>25.5</ele><time>2026-04-03T10:03:39Z</time></trkpt><trkpt lat="44.31602944006196" lon="9.353259503805855"><ele>31.0</ele><time>2026-04-03T10:03:40Z</time></trkpt><trkpt lat="44.31587040390748" lon="9.353511311179199"><ele>31.0</ele><time>2026-04-03T10:03:41Z</time></trkpt><trkpt lat="44.31570807050025" lon="9.353758619976912"><ele>31.0</ele><time>2026-04-03T10:03:42Z</time></trkpt><trkpt lat="44.31553987571293" lon="9.353999508147911"><ele>34.0</ele><time>2026-04-03T10:03:43Z</time></trkpt><trkpt lat="44.315372838007875" lon="9.354239294140312"><ele>37.0</ele><time>2026-04-03T10:03:44Z</time></trkpt><trkpt lat="44.31520391839723" lon="9.354478128742125"><ele>37.5</ele><time>2026-04-03T10:03:45Z</time></trkpt><trkpt lat="44.31503846299188" lon="9.354717116413353"><ele>38.0</ele><time>2026-04-03T10:03:46Z</time></trkpt><trkpt lat="44.31487128947785" lon="9.354958836614866"><ele>46.5</ele><time>2026-04-03T10:03:47Z</time></trkpt><trkpt lat="44.31470374306939" lon="9.355199002548693"><ele>55.0</ele><time>2026-04-03T10:03:48Z</time></trkpt><trkpt lat="44.31453597348249" lon="9.355441506374149"><ele>56.0</ele><time>2026-04-03T10:03:49Z</time></trkpt><trkpt lat="44.314370320376135" lon="9.35567717715969"><ele>57.0</ele><time>2026-04-03T10:03:50Z</time></trkpt><trkpt lat="44.314225582823134" lon="9.355898251082396"><ele>57.0</ele><time>2026-04-03T10:03:51Z</time></trkpt><trkpt lat="44.31409253820362" lon="9.356114544128365"><ele>57.0</ele><time>2026-04-03T10:03:52Z</time></trkpt><trkpt lat="44.31396874996411" lon="9.356330996700798"><ele>57.0</ele><time>2026-04-03T10:03:53Z</time></trkpt><trkpt lat="44.313844569107786" lon="9.356552951418802"><ele>57.0</ele><time>2026-04-03T10:03:54Z</time></trkpt><trkpt lat="44.31371653551533" lon="9.35677872572116"><ele>57.0</ele><time>2026-04-03T10:03:55Z</time></trkpt><trkpt lat="44.31358375733509" lon="9.356954357390812"><ele>57.0</ele><time>2026-04-03T10:03:56Z</time></trkpt><trkpt lat="44.31343618013274" lon="9.357162651223971"><ele>57.66666666666667</ele><time>2026-04-03T10:03:57Z</time></trkpt><trkpt lat="44.313307664726736" lon="9.357345203366243"><ele>58.333333333333336</ele><time>2026-04-03T10:03:58Z</time></trkpt><trkpt lat="44.313181329728096" lon="9.357525042011346"><ele>59.0</ele><time>2026-04-03T10:03:59Z</time></trkpt><trkpt lat="44.313075502915446" lon="9.357675825219557"><ele>48.0</ele><time>2026-04-03T10:04:00Z</time></trkpt><trkpt lat="44.31275079975447" lon="9.358004413061359"><ele>37.0</ele><time>2026-04-03T10:04:01Z</time></trkpt><trkpt lat="44.31259158123939" lon="9.358224848840619"><ele>37.0</ele><time>2026-04-03T10:04:02Z</time></trkpt><trkpt lat="44.31245446650532" lon="9.35843325139427"><ele>37.0</ele><time>2026-04-03T10:04:03Z</time></trkpt><trkpt lat="44.31232118483693" lon="9.358635117365205"><ele>37.0</ele><time>2026-04-03T10:04:04Z</time></trkpt><trkpt lat="44.31218560902006" lon="9.358829900911587"><ele>38.66666666666667</ele><time>2026-04-03T10:04:05Z</time></trkpt><trkpt lat="44.31204997104539" lon="9.35902436639168"><ele>40.333333333333336</ele><time>2026-04-03T10:04:06Z</time></trkpt><trkpt lat="44.31191746645658" lon="9.359224060074647"><ele>42.0</ele><time>2026-04-03T10:04:07Z</time></trkpt><trkpt lat="44.311782987674874" lon="9.359421969699124"><ele>42.0</ele><time>2026-04-03T10:04:08Z</time></trkpt><trkpt lat="44.31164115406691" lon="9.359619968264628"><ele>42.0</ele><time>2026-04-03T10:04:09Z</time></trkpt><trkpt lat="44.31150032205756" lon="9.359811110138661"><ele>42.0</ele><time>2026-04-03T10:04:10Z</time></trkpt><trkpt lat="44.31135454513999" lon="9.360005482545787"><ele>47.33333333333333</ele><time>2026-04-03T10:04:11Z</time></trkpt><trkpt lat="44.31120865256742" lon="9.360205488320002"><ele>52.666666666666664</ele><time>2026-04-03T10:04:12Z</time></trkpt><trkpt lat="44.31106446776961" lon="9.360410305304589"><ele>58.0</ele><time>2026-04-03T10:04:13Z</time></trkpt><trkpt lat="44.310919062557986" lon="9.36061031760142"><ele>58.0</ele><time>2026-04-03T10:04:14Z</time></trkpt><trkpt lat="44.31077246030892" lon="9.360817367247614"><ele>58.0</ele><time>2026-04-03T10:04:15Z</time></trkpt><trkpt lat="44.310627430895174" lon="9.361024920804024"><ele>58.0</ele><time>2026-04-03T10:04:16Z</time></trkpt><trkpt lat="44.31047999866504" lon="9.361235162232655"><ele>56.666666666666664</ele><time>2026-04-03T10:04:17Z</time></trkpt><trkpt lat="44.310335005322614" lon="9.361439867135527"><ele>55.33333333333333</ele><time>2026-04-03T10:04:18Z</time></trkpt><trkpt lat="44.310188960377495" lon="9.361642043651733"><ele>54.0</ele><time>2026-04-03T10:04:19Z</time></trkpt><trkpt lat="44.310045032794285" lon="9.361840751623255"><ele>54.0</ele><time>2026-04-03T10:04:20Z</time></trkpt><trkpt lat="44.30990736855661" lon="9.36205026216694"><ele>54.0</ele><time>2026-04-03T10:04:21Z</time></trkpt><trkpt lat="44.30977155173243" lon="9.362254325703901"><ele>54.0</ele><time>2026-04-03T10:04:22Z</time></trkpt><trkpt lat="44.30962738896259" lon="9.362454086474086"><ele>53.33333333333333</ele><time>2026-04-03T10:04:23Z</time></trkpt><trkpt lat="44.30948916299285" lon="9.362650088178528"><ele>52.666666666666664</ele><time>2026-04-03T10:04:24Z</time></trkpt><trkpt lat="44.309350395733794" lon="9.362850136028358"><ele>52.0</ele><time>2026-04-03T10:04:25Z</time></trkpt><trkpt lat="44.309210111363065" lon="9.363051941045844"><ele>55.0</ele><time>2026-04-03T10:04:26Z</time></trkpt><trkpt lat="44.30907375575541" lon="9.36324437836693"><ele>58.0</ele><time>2026-04-03T10:04:27Z</time></trkpt><trkpt lat="44.308934891110326" lon="9.363438263990817"><ele>61.0</ele><time>2026-04-03T10:04:28Z</time></trkpt><trkpt lat="44.308801256588" lon="9.363634028524407"><ele>64.0</ele><time>2026-04-03T10:04:29Z</time></trkpt><trkpt lat="44.30867048055866" lon="9.363838037053961"><ele>67.0</ele><time>2026-04-03T10:04:30Z</time></trkpt><trkpt lat="44.308536058279266" lon="9.36405896322015"><ele>70.0</ele><time>2026-04-03T10:04:31Z</time></trkpt><trkpt lat="44.30839935569622" lon="9.364281561733387"><ele>70.0</ele><time>2026-04-03T10:04:32Z</time></trkpt><trkpt lat="44.30825902774082" lon="9.364517676065226"><ele>70.0</ele><time>2026-04-03T10:04:33Z</time></trkpt><trkpt lat="44.30812188716056" lon="9.364754592390055"><ele>70.0</ele><time>2026-04-03T10:04:34Z</time></trkpt><trkpt lat="44.30798185620609" lon="9.364998838663194"><ele>81.5</ele><time>2026-04-03T10:04:35Z</time></trkpt><trkpt lat="44.307838152911394" lon="9.365242455484712"><ele>93.0</ele><time>2026-04-03T10:04:36Z</time></trkpt><trkpt lat="44.3076931262081" lon="9.36548613240649"><ele>88.0</ele><time>2026-04-03T10:04:37Z</time></trkpt><trkpt lat="44.30754483961718" lon="9.365732885079268"><ele>83.0</ele><time>2026-04-03T10:04:38Z</time></trkpt><trkpt lat="44.3073926583293" lon="9.365978793678973"><ele>83.0</ele><time>2026-04-03T10:04:39Z</time></trkpt><trkpt lat="44.30724796748827" lon="9.366230493565869"><ele>83.0</ele><time>2026-04-03T10:04:40Z</time></trkpt><trkpt lat="44.30710214885707" lon="9.36648148296863"><ele>93.5</ele><time>2026-04-03T10:04:41Z</time></trkpt><trkpt lat="44.30695585921807" lon="9.366729603038198"><ele>104.0</ele><time>2026-04-03T10:04:42Z</time></trkpt><trkpt lat="44.306809529987504" lon="9.36698135120446"><ele>102.0</ele><time>2026-04-03T10:04:43Z</time></trkpt><trkpt lat="44.30666793633255" lon="9.367231015917307"><ele>100.0</ele><time>2026-04-03T10:04:44Z</time></trkpt><trkpt lat="44.30652640188571" lon="9.367482879404845"><ele>110.5</ele><time>2026-04-03T10:04:45Z</time></trkpt><trkpt lat="44.306390871164695" lon="9.367743807739968"><ele>121.0</ele><time>2026-04-03T10:04:46Z</time></trkpt><trkpt lat="44.3062710100747" lon="9.368015315929537"><ele>120.5</ele><time>2026-04-03T10:04:47Z</time></trkpt><trkpt lat="44.30615416201199" lon="9.368294518592414"><ele>120.0</ele><time>2026-04-03T10:04:48Z</time></trkpt><trkpt lat="44.30604445996196" lon="9.368576122925983"><ele>120.0</ele><time>2026-04-03T10:04:49.001Z</time></trkpt><trkpt lat="44.3059350517702" lon="9.368857493455383"><ele>120.0</ele><time>2026-04-03T10:04:50.001Z</time></trkpt><trkpt lat="44.305823828997646" lon="9.369137413795546"><ele>126.5</ele><time>2026-04-03T10:04:51.001Z</time></trkpt><trkpt lat="44.30569915834555" lon="9.369412470687495"><ele>133.0</ele><time>2026-04-03T10:04:52.001Z</time></trkpt><trkpt lat="44.305589233846355" lon="9.36969705544862"><ele>141.5</ele><time>2026-04-03T10:04:53.001Z</time></trkpt><trkpt lat="44.30549593374003" lon="9.37010293578628"><ele>150.0</ele><time>2026-04-03T10:04:54.001Z</time></trkpt><trkpt lat="44.30540913276249" lon="9.37042765888482"><ele>161.0</ele><time>2026-04-03T10:04:55.001Z</time></trkpt><trkpt lat="44.305336190402244" lon="9.37076384389478"><ele>172.0</ele><time>2026-04-03T10:04:56.001Z</time></trkpt><trkpt lat="44.305260515559816" lon="9.371096366589857"><ele>185.0</ele><time>2026-04-03T10:04:57.001Z</time></trkpt><trkpt lat="44.30517298826894" lon="9.371423295791107"><ele>198.0</ele><time>2026-04-03T10:04:58.001Z</time></trkpt><trkpt lat="44.30508545144346" lon="9.371753248780118"><ele>198.0</ele><time>2026-04-03T10:04:59.001Z</time></trkpt><trkpt lat="44.30500842032387" lon="9.372090810952914"><ele>198.0</ele><time>2026-04-03T10:05:00.001Z</time></trkpt><trkpt lat="44.30493057782034" lon="9.372429293675395"><ele>213.0</ele><time>2026-04-03T10:05:01.001Z</time></trkpt><trkpt lat="44.30485158299237" lon="9.372765312188925"><ele>228.0</ele><time>2026-04-03T10:05:02.001Z</time></trkpt><trkpt lat="44.30477349370329" lon="9.37310233270427"><ele>241.0</ele><time>2026-04-03T10:05:03.001Z</time></trkpt><trkpt lat="44.30469434799719" lon="9.373440178837185"><ele>254.0</ele><time>2026-04-03T10:05:04.001Z</time></trkpt><trkpt lat="44.30461324748778" lon="9.373781074723663"><ele>267.5</ele><time>2026-04-03T10:05:05.001Z</time></trkpt><trkpt lat="44.30453110638396" lon="9.37412511255562"><ele>281.0</ele><time>2026-04-03T10:05:06.001Z</time></trkpt><trkpt lat="44.304447761029145" lon="9.37446865986254"><ele>289.5</ele><time>2026-04-03T10:05:07.001Z</time></trkpt><trkpt lat="44.30436458786859" lon="9.374810902830943"><ele>298.0</ele><time>2026-04-03T10:05:08.001Z</time></trkpt><trkpt lat="44.30428206899834" lon="9.375156616232436"><ele>298.0</ele><time>2026-04-03T10:05:09.001Z</time></trkpt><trkpt lat="44.304202898878" lon="9.37550600439814"><ele>298.0</ele><time>2026-04-03T10:05:10.001Z</time></trkpt><trkpt lat="44.30411931973049" lon="9.37585760511448"><ele>295.5</ele><time>2026-04-03T10:05:11.001Z</time></trkpt><trkpt lat="44.30403546587094" lon="9.37620869085728"><ele>293.0</ele><time>2026-04-03T10:05:12.001Z</time></trkpt><trkpt lat="44.30394984857288" lon="9.376556143404578"><ele>277.0</ele><time>2026-04-03T10:05:13.001Z</time></trkpt><trkpt lat="44.30386438679171" lon="9.37690734171951"><ele>261.0</ele><time>2026-04-03T10:05:14Z</time></trkpt><trkpt lat="44.303779873220215" lon="9.377263151168556"><ele>251.5</ele><time>2026-04-03T10:05:15Z</time></trkpt><trkpt lat="44.303694794767935" lon="9.377625478179358"><ele>242.0</ele><time>2026-04-03T10:05:16Z</time></trkpt><trkpt lat="44.303610407155524" lon="9.377987454488451"><ele>228.5</ele><time>2026-04-03T10:05:17Z</time></trkpt><trkpt lat="44.3035247303935" lon="9.378348103131643"><ele>215.0</ele><time>2026-04-03T10:05:18Z</time></trkpt><trkpt lat="44.30343898930229" lon="9.378712833704657"><ele>199.5</ele><time>2026-04-03T10:05:19Z</time></trkpt><trkpt lat="44.30335215391451" lon="9.379081867950338"><ele>184.0</ele><time>2026-04-03T10:05:20Z</time></trkpt><trkpt lat="44.30326448969529" lon="9.379463749918228"><ele>110.0</ele><time>2026-04-03T10:05:21.02Z</time></trkpt><trkpt lat="44.302478728442146" lon="9.381965086381511"><ele>107.5</ele><time>2026-04-03T10:05:32Z</time></trkpt><trkpt lat="44.302344351260004" lon="9.382220783488146"><ele>105.0</ele><time>2026-04-03T10:05:33Z</time></trkpt><trkpt lat="44.302192865684226" lon="9.382491581161979"><ele>105.33333333333334</ele><time>2026-04-03T10:05:34Z</time></trkpt><trkpt lat="44.30204755655626" lon="9.38272796652644"><ele>105.66666666666667</ele><time>2026-04-03T10:05:35Z</time></trkpt><trkpt lat="44.301885578576616" lon="9.382939184686176"><ele>106.0</ele><time>2026-04-03T10:05:36Z</time></trkpt><trkpt lat="44.30172283230256" lon="9.383146876605739"><ele>106.0</ele><time>2026-04-03T10:05:37Z</time></trkpt><trkpt lat="44.30153515912419" lon="9.3833162848177"><ele>106.0</ele><time>2026-04-03T10:05:38Z</time></trkpt><trkpt lat="44.30134671439253" lon="9.38347570989419"><ele>106.0</ele><time>2026-04-03T10:05:39Z</time></trkpt><trkpt lat="44.30115086755744" lon="9.383607277905893"><ele>105.33333333333334</ele><time>2026-04-03T10:05:40Z</time></trkpt><trkpt lat="44.30094733929343" lon="9.38372733788954"><ele>104.66666666666666</ele><time>2026-04-03T10:05:41Z</time></trkpt><trkpt lat="44.30073506041263" lon="9.383831048120545"><ele>104.0</ele><time>2026-04-03T10:05:42Z</time></trkpt><trkpt lat="44.30051906493283" lon="9.38392196784648"><ele>104.0</ele><time>2026-04-03T10:05:43Z</time></trkpt><trkpt lat="44.30029919727462" lon="9.384001029710108"><ele>104.0</ele><time>2026-04-03T10:05:44Z</time></trkpt><trkpt lat="44.3000739222961" lon="9.384051348880876"><ele>104.0</ele><time>2026-04-03T10:05:45Z</time></trkpt><trkpt lat="44.299840779310095" lon="9.384077724206882"><ele>104.0</ele><time>2026-04-03T10:05:46Z</time></trkpt><trkpt lat="44.29960610752357" lon="9.38408660723203"><ele>104.5</ele><time>2026-04-03T10:05:47Z</time></trkpt><trkpt lat="44.299364825402066" lon="9.384064100334925"><ele>105.0</ele><time>2026-04-03T10:05:48Z</time></trkpt><trkpt lat="44.2991286161862" lon="9.384037804156279"><ele>107.5</ele><time>2026-04-03T10:05:49Z</time></trkpt><trkpt lat="44.29888856414923" lon="9.383992323298065"><ele>110.0</ele><time>2026-04-03T10:05:50Z</time></trkpt><trkpt lat="44.29865150382858" lon="9.383936612131233"><ele>110.0</ele><time>2026-04-03T10:05:51Z</time></trkpt><trkpt lat="44.298411346642254" lon="9.383889907387086"><ele>110.0</ele><time>2026-04-03T10:05:52Z</time></trkpt><trkpt lat="44.29817355579133" lon="9.383850457037799"><ele>94.0</ele><time>2026-04-03T10:05:53Z</time></trkpt><trkpt lat="44.29793873621881" lon="9.383818654501637"><ele>78.0</ele><time>2026-04-03T10:05:54Z</time></trkpt><trkpt lat="44.2977135662664" lon="9.383782825135537"><ele>78.0</ele><time>2026-04-03T10:05:55Z</time></trkpt><trkpt lat="44.29748763575802" lon="9.38374961942557"><ele>78.0</ele><time>2026-04-03T10:05:56Z</time></trkpt><trkpt lat="44.29725630787607" lon="9.383726687959859"><ele>74.33333333333333</ele><time>2026-04-03T10:05:57Z</time></trkpt><trkpt lat="44.29703230412845" lon="9.383696577556295"><ele>70.66666666666666</ele><time>2026-04-03T10:05:58Z</time></trkpt><trkpt lat="44.29681520163892" lon="9.383676030948358"><ele>67.0</ele><time>2026-04-03T10:05:59Z</time></trkpt><trkpt lat="44.29660054687491" lon="9.383661158807918"><ele>67.33333333333333</ele><time>2026-04-03T10:06:00Z</time></trkpt><trkpt lat="44.29638317536126" lon="9.3836550571248"><ele>67.66666666666667</ele><time>2026-04-03T10:06:01Z</time></trkpt><trkpt lat="44.29616764109196" lon="9.383667144308543"><ele>68.0</ele><time>2026-04-03T10:06:02Z</time></trkpt><trkpt lat="44.29595259468553" lon="9.383693114779172"><ele>68.0</ele><time>2026-04-03T10:06:03Z</time></trkpt><trkpt lat="44.295736069941036" lon="9.383732321690628"><ele>68.0</ele><time>2026-04-03T10:06:04Z</time></trkpt><trkpt lat="44.29552224044609" lon="9.383780963243009"><ele>68.0</ele><time>2026-04-03T10:06:05Z</time></trkpt><trkpt lat="44.2953067592523" lon="9.383838380840217"><ele>76.66666666666667</ele><time>2026-04-03T10:06:06Z</time></trkpt><trkpt lat="44.29508870185457" lon="9.383904637619553"><ele>85.33333333333333</ele><time>2026-04-03T10:06:07Z</time></trkpt><trkpt lat="44.294876482393484" lon="9.38399361860099"><ele>94.0</ele><time>2026-04-03T10:06:08Z</time></trkpt><trkpt lat="44.29466755598927" lon="9.384091107833221"><ele>97.0</ele><time>2026-04-03T10:06:09Z</time></trkpt><trkpt lat="44.294454989901524" lon="9.384198540120163"><ele>100.0</ele><time>2026-04-03T10:06:10Z</time></trkpt><trkpt lat="44.29424889515481" lon="9.38432016202177"><ele>100.0</ele><time>2026-04-03T10:06:11Z</time></trkpt><trkpt lat="44.29404150611413" lon="9.384450435448693"><ele>100.0</ele><time>2026-04-03T10:06:12Z</time></trkpt><trkpt lat="44.29384175112891" lon="9.384595374801096"><ele>100.0</ele><time>2026-04-03T10:06:13Z</time></trkpt><trkpt lat="44.29364228455584" lon="9.384751268582066"><ele>100.0</ele><time>2026-04-03T10:06:14Z</time></trkpt><trkpt lat="44.293451369409645" lon="9.38491779697893"><ele>100.0</ele><time>2026-04-03T10:06:15Z</time></trkpt><trkpt lat="44.293268651476616" lon="9.385092147072035"><ele>100.0</ele><time>2026-04-03T10:06:16Z</time></trkpt><trkpt lat="44.293088171652975" lon="9.385277732305804"><ele>100.0</ele><time>2026-04-03T10:06:17Z</time></trkpt><trkpt lat="44.292914268050936" lon="9.385475340883666"><ele>97.66666666666667</ele><time>2026-04-03T10:06:18Z</time></trkpt><trkpt lat="44.29274851972743" lon="9.385679256135568"><ele>95.33333333333334</ele><time>2026-04-03T10:06:19Z</time></trkpt><trkpt lat="44.29258641289212" lon="9.385877778659273"><ele>93.0</ele><time>2026-04-03T10:06:20Z</time></trkpt><trkpt lat="44.29242572825266" lon="9.38606928445635"><ele>93.0</ele><time>2026-04-03T10:06:21Z</time></trkpt><trkpt lat="44.29226095713357" lon="9.386258651317986"><ele>93.0</ele><time>2026-04-03T10:06:22Z</time></trkpt><trkpt lat="44.29210165961087" lon="9.3864455733845"><ele>93.0</ele><time>2026-04-03T10:06:23Z</time></trkpt><trkpt lat="44.29194323724763" lon="9.386634031720142"><ele>96.66666666666666</ele><time>2026-04-03T10:06:24Z</time></trkpt><trkpt lat="44.29178489920449" lon="9.386828159970378"><ele>100.33333333333333</ele><time>2026-04-03T10:06:25Z</time></trkpt><trkpt lat="44.29163222293863" lon="9.387032007242862"><ele>104.0</ele><time>2026-04-03T10:06:26Z</time></trkpt><trkpt lat="44.291478600640446" lon="9.387244928213525"><ele>118.66666666666666</ele><time>2026-04-03T10:06:27Z</time></trkpt><trkpt lat="44.29132920585688" lon="9.387462917420216"><ele>133.33333333333334</ele><time>2026-04-03T10:06:28Z</time></trkpt><trkpt lat="44.29118001173429" lon="9.387689342702599"><ele>148.0</ele><time>2026-04-03T10:06:29Z</time></trkpt><trkpt lat="44.29103169992949" lon="9.38791653033167"><ele>151.33333333333334</ele><time>2026-04-03T10:06:30Z</time></trkpt><trkpt lat="44.29088617638036" lon="9.388146453148595"><ele>154.66666666666666</ele><time>2026-04-03T10:06:31Z</time></trkpt><trkpt lat="44.29073843871924" lon="9.388373119786495"><ele>158.0</ele><time>2026-04-03T10:06:32Z</time></trkpt><trkpt lat="44.290589709320706" lon="9.388602864117207"><ele>167.0</ele><time>2026-04-03T10:06:33Z</time></trkpt><trkpt lat="44.29043941286118" lon="9.3888270149926"><ele>176.0</ele><time>2026-04-03T10:06:34Z</time></trkpt><trkpt lat="44.29028841936971" lon="9.389052693784086"><ele>185.0</ele><time>2026-04-03T10:06:35Z</time></trkpt><trkpt lat="44.29014372472099" lon="9.389279834264537"><ele>193.0</ele><time>2026-04-03T10:06:36Z</time></trkpt><trkpt lat="44.28999748212018" lon="9.389508188825467"><ele>201.0</ele><time>2026-04-03T10:06:37Z</time></trkpt><trkpt lat="44.28976367776454" lon="9.389781011625237"><ele>215.0</ele><time>2026-04-03T10:06:38Z</time></trkpt><trkpt lat="44.28960611075072" lon="9.390013180845363"><ele>229.0</ele><time>2026-04-03T10:06:39Z</time></trkpt><trkpt lat="44.289442314295826" lon="9.39024007280347"><ele>229.0</ele><time>2026-04-03T10:06:40Z</time></trkpt><trkpt lat="44.2892807101493" lon="9.390466004092849"><ele>229.0</ele><time>2026-04-03T10:06:41Z</time></trkpt><trkpt lat="44.28913025578766" lon="9.390686436978365"><ele>229.0</ele><time>2026-04-03T10:06:42Z</time></trkpt><trkpt lat="44.28898498001087" lon="9.39089331000556"><ele>161.0</ele><time>2026-04-03T10:06:43.032Z</time></trkpt><trkpt lat="44.2868802757091" lon="9.393899454688789"><ele>102.0</ele><time>2026-04-03T10:06:47.646Z</time></trkpt><trkpt lat="44.28619047383964" lon="9.394892974864502"><ele>127.0</ele><time>2026-04-03T10:06:48.649Z</time></trkpt><trkpt lat="44.28554011756968" lon="9.395923063098484"><ele>142.0</ele><time>2026-04-03T10:06:49.646Z</time></trkpt><trkpt lat="44.28509332464562" lon="9.397145669857254"><ele>102.0</ele><time>2026-04-03T10:06:50.645Z</time></trkpt><trkpt lat="44.285854039297256" lon="9.395451582276523"><ele>104.33333333333334</ele><time>2026-04-03T10:07:04.999Z</time></trkpt><trkpt lat="44.285710164868384" lon="9.395667016178216"><ele>106.66666666666667</ele><time>2026-04-03T10:07:05.999Z</time></trkpt><trkpt lat="44.28556061405349" lon="9.395896145739563"><ele>109.0</ele><time>2026-04-03T10:07:06.999Z</time></trkpt><trkpt lat="44.28543395893427" lon="9.396127228090846"><ele>103.0</ele><time>2026-04-03T10:07:07.999Z</time></trkpt><trkpt lat="44.28462572348425" lon="9.398762204459645"><ele>95.5</ele><time>2026-04-03T10:07:18.001Z</time></trkpt><trkpt lat="44.28458703579829" lon="9.399049820347814"><ele>88.0</ele><time>2026-04-03T10:07:19.001Z</time></trkpt><trkpt lat="44.28476263432842" lon="9.39953886379683"><ele>86.33333333333333</ele><time>2026-04-03T10:07:20.001Z</time></trkpt><trkpt lat="44.284733413840684" lon="9.39982815841194"><ele>84.66666666666667</ele><time>2026-04-03T10:07:21.001Z</time></trkpt><trkpt lat="44.284702024116484" lon="9.400108384598377"><ele>83.0</ele><time>2026-04-03T10:07:22.001Z</time></trkpt><trkpt lat="44.28466914669043" lon="9.400397585057956"><ele>79.5</ele><time>2026-04-03T10:07:23.001Z</time></trkpt><trkpt lat="44.28457578665678" lon="9.400761968262614"><ele>76.0</ele><time>2026-04-03T10:07:24.001Z</time></trkpt><trkpt lat="44.28454928017573" lon="9.401012214936268"><ele>76.0</ele><time>2026-04-03T10:07:25.001Z</time></trkpt><trkpt lat="44.28451932269825" lon="9.401295042923236"><ele>76.0</ele><time>2026-04-03T10:07:26.001Z</time></trkpt><trkpt lat="44.284485195531" lon="9.401609006757166"><ele>76.0</ele><time>2026-04-03T10:07:27.001Z</time></trkpt><trkpt lat="44.284459016914184" lon="9.40185158211761"><ele>75.0</ele><time>2026-04-03T10:07:28.001Z</time></trkpt><trkpt lat="44.284428462764765" lon="9.402136238354084"><ele>74.0</ele><time>2026-04-03T10:07:29.001Z</time></trkpt><trkpt lat="44.284396188818036" lon="9.40243707734652"><ele>73.0</ele><time>2026-04-03T10:07:30.001Z</time></trkpt><trkpt lat="44.284363324665804" lon="9.40274318646084"><ele>75.0</ele><time>2026-04-03T10:07:31.001Z</time></trkpt><trkpt lat="44.28433018900678" lon="9.403051392046388"><ele>77.0</ele><time>2026-04-03T10:07:32.001Z</time></trkpt><trkpt lat="44.2842962491046" lon="9.403367078239338"><ele>77.0</ele><time>2026-04-03T10:07:33.001Z</time></trkpt><trkpt lat="44.28426060331129" lon="9.403698631480715"><ele>77.0</ele><time>2026-04-03T10:07:34Z</time></trkpt><trkpt lat="44.28422606229752" lon="9.40401830437938"><ele>70.5</ele><time>2026-04-03T10:07:35Z</time></trkpt><trkpt lat="44.284191045659696" lon="9.404341055553731"><ele>64.0</ele><time>2026-04-03T10:07:36Z</time></trkpt><trkpt lat="44.28415686230531" lon="9.40466263972272"><ele>64.0</ele><time>2026-04-03T10:07:37Z</time></trkpt><trkpt lat="44.284122693304624" lon="9.404985987224292"><ele>64.0</ele><time>2026-04-03T10:07:38Z</time></trkpt><trkpt lat="44.28408709561736" lon="9.405315148971896"><ele>70.0</ele><time>2026-04-03T10:07:39Z</time></trkpt><trkpt lat="44.28405216275755" lon="9.405645018570407"><ele>76.0</ele><time>2026-04-03T10:07:40Z</time></trkpt><trkpt lat="44.28401554579427" lon="9.405976733466266"><ele>76.0</ele><time>2026-04-03T10:07:41Z</time></trkpt><trkpt lat="44.28397398712349" lon="9.406305748379847"><ele>76.0</ele><time>2026-04-03T10:07:42Z</time></trkpt><trkpt lat="44.28392030236004" lon="9.40662715823069"><ele>75.5</ele><time>2026-04-03T10:07:43Z</time></trkpt><trkpt lat="44.28385536246167" lon="9.40694546506116"><ele>75.0</ele><time>2026-04-03T10:07:44Z</time></trkpt><trkpt lat="44.28377756229903" lon="9.407252452911212"><ele>65.5</ele><time>2026-04-03T10:07:45Z</time></trkpt><trkpt lat="44.2836856058879" lon="9.407545587572569"><ele>56.0</ele><time>2026-04-03T10:07:46Z</time></trkpt><trkpt lat="44.28358292422906" lon="9.407826327252057"><ele>57.5</ele><time>2026-04-03T10:07:47Z</time></trkpt><trkpt lat="44.2834625474242" lon="9.40809953807324"><ele>59.0</ele><time>2026-04-03T10:07:48Z</time></trkpt><trkpt lat="44.28333478486719" lon="9.408353936677504"><ele>59.0</ele><time>2026-04-03T10:07:49Z</time></trkpt><trkpt lat="44.28318919632027" lon="9.408599150931934"><ele>59.0</ele><time>2026-04-03T10:07:50Z</time></trkpt><trkpt lat="44.28303870587533" lon="9.408825246129787"><ele>59.0</ele><time>2026-04-03T10:07:51Z</time></trkpt><trkpt lat="44.28288066262164" lon="9.409040065547629"><ele>54.66666666666667</ele><time>2026-04-03T10:07:52Z</time></trkpt><trkpt lat="44.282714674634406" lon="9.40924608319933"><ele>50.333333333333336</ele><time>2026-04-03T10:07:53Z</time></trkpt><trkpt lat="44.28254290171974" lon="9.409438519692966"><ele>46.0</ele><time>2026-04-03T10:07:54Z</time></trkpt><trkpt lat="44.28237399884215" lon="9.409627273575511"><ele>45.333333333333336</ele><time>2026-04-03T10:07:55Z</time></trkpt><trkpt lat="44.28221353958555" lon="9.409805346892437"><ele>44.666666666666664</ele><time>2026-04-03T10:07:56Z</time></trkpt><trkpt lat="44.28205818739539" lon="9.409977752411196"><ele>44.0</ele><time>2026-04-03T10:07:57Z</time></trkpt><trkpt lat="44.28190730456529" lon="9.410143875661396"><ele>44.0</ele><time>2026-04-03T10:07:58Z</time></trkpt><trkpt lat="44.28175898469889" lon="9.410307070853074"><ele>44.0</ele><time>2026-04-03T10:07:59Z</time></trkpt><trkpt lat="44.28161166494945" lon="9.410469165643338"><ele>44.0</ele><time>2026-04-03T10:08:00Z</time></trkpt><trkpt lat="44.28146798139184" lon="9.410629029210789"><ele>40.33333333333333</ele><time>2026-04-03T10:08:01Z</time></trkpt><trkpt lat="44.28132563824458" lon="9.410797859089703"><ele>36.666666666666664</ele><time>2026-04-03T10:08:02Z</time></trkpt><trkpt lat="44.28119082239185" lon="9.41099028634972"><ele>33.0</ele><time>2026-04-03T10:08:03Z</time></trkpt><trkpt lat="44.281061293808975" lon="9.411185693597979"><ele>35.333333333333336</ele><time>2026-04-03T10:08:04Z</time></trkpt><trkpt lat="44.280934107472596" lon="9.411395289936609"><ele>37.66666666666667</ele><time>2026-04-03T10:08:05Z</time></trkpt><trkpt lat="44.28081761428458" lon="9.411618361434698"><ele>40.0</ele><time>2026-04-03T10:08:06Z</time></trkpt><trkpt lat="44.28069726730189" lon="9.411835563213533"><ele>40.0</ele><time>2026-04-03T10:08:07Z</time></trkpt><trkpt lat="44.28060089376674" lon="9.412070861478607"><ele>40.0</ele><time>2026-04-03T10:08:08Z</time></trkpt><trkpt lat="44.280505594414684" lon="9.412305123690103"><ele>40.0</ele><time>2026-04-03T10:08:09Z</time></trkpt><trkpt lat="44.2804161568196" lon="9.41253642488814"><ele>35.66666666666667</ele><time>2026-04-03T10:08:10Z</time></trkpt><trkpt lat="44.28032346013621" lon="9.41275653656533"><ele>31.333333333333336</ele><time>2026-04-03T10:08:11Z</time></trkpt><trkpt lat="44.280229597682506" lon="9.412976320203429"><ele>27.0</ele><time>2026-04-03T10:08:12Z</time></trkpt><trkpt lat="44.28013655406854" lon="9.41319606776914"><ele>27.0</ele><time>2026-04-03T10:08:13Z</time></trkpt><trkpt lat="44.28004370884205" lon="9.413415478658479"><ele>27.0</ele><time>2026-04-03T10:08:14Z</time></trkpt><trkpt lat="44.27995179816943" lon="9.413627913046207"><ele>27.0</ele><time>2026-04-03T10:08:15Z</time></trkpt><trkpt lat="44.279869538017834" lon="9.413851956947122"><ele>33.0</ele><time>2026-04-03T10:08:16Z</time></trkpt><trkpt lat="44.27978460927696" lon="9.414077789581317"><ele>39.0</ele><time>2026-04-03T10:08:17Z</time></trkpt><trkpt lat="44.27969644886602" lon="9.414302551472401"><ele>45.0</ele><time>2026-04-03T10:08:18Z</time></trkpt><trkpt lat="44.279603658567154" lon="9.414516431868234"><ele>48.33333333333333</ele><time>2026-04-03T10:08:19Z</time></trkpt><trkpt lat="44.27951027851904" lon="9.41472795300231"><ele>51.666666666666664</ele><time>2026-04-03T10:08:20Z</time></trkpt><trkpt lat="44.27941617561819" lon="9.414942368499727"><ele>55.0</ele><time>2026-04-03T10:08:21Z</time></trkpt><trkpt lat="44.27932169475586" lon="9.415147984622775"><ele>55.0</ele><time>2026-04-03T10:08:22Z</time></trkpt><trkpt lat="44.279230681318744" lon="9.415389554379162"><ele>55.0</ele><time>2026-04-03T10:08:23Z</time></trkpt><trkpt lat="44.27913577526884" lon="9.41560066995698"><ele>55.0</ele><time>2026-04-03T10:08:24Z</time></trkpt><trkpt lat="44.27902342985284" lon="9.415793459235577"><ele>53.666666666666664</ele><time>2026-04-03T10:08:25Z</time></trkpt><trkpt lat="44.27890911112512" lon="9.415971782127949"><ele>52.33333333333333</ele><time>2026-04-03T10:08:26Z</time></trkpt><trkpt lat="44.27879030737788" lon="9.41613951761597"><ele>51.0</ele><time>2026-04-03T10:08:27Z</time></trkpt><trkpt lat="44.27866742912804" lon="9.416299399047285"><ele>44.333333333333336</ele><time>2026-04-03T10:08:28Z</time></trkpt><trkpt lat="44.27854032095191" lon="9.416451553804393"><ele>37.66666666666667</ele><time>2026-04-03T10:08:29Z</time></trkpt><trkpt lat="44.27841065564003" lon="9.416598288780413"><ele>31.0</ele><time>2026-04-03T10:08:30Z</time></trkpt><trkpt lat="44.278282752902086" lon="9.416743822777892"><ele>31.0</ele><time>2026-04-03T10:08:31Z</time></trkpt><trkpt lat="44.278159405161055" lon="9.416883403840458"><ele>31.0</ele><time>2026-04-03T10:08:32Z</time></trkpt><trkpt lat="44.278043166224265" lon="9.417020650117404"><ele>31.0</ele><time>2026-04-03T10:08:33Z</time></trkpt><trkpt lat="44.277929898352916" lon="9.417156901019283"><ele>27.5</ele><time>2026-04-03T10:08:34Z</time></trkpt><trkpt lat="44.277817472306445" lon="9.417289346036558"><ele>24.0</ele><time>2026-04-03T10:08:35Z</time></trkpt><trkpt lat="44.27770592534219" lon="9.417416486994847"><ele>20.5</ele><time>2026-04-03T10:08:36Z</time></trkpt><trkpt lat="44.27759151473885" lon="9.417546461465106"><ele>17.0</ele><time>2026-04-03T10:08:37Z</time></trkpt><trkpt lat="44.27747508743439" lon="9.417680554752348"><ele>17.0</ele><time>2026-04-03T10:08:38Z</time></trkpt><trkpt lat="44.27736048837548" lon="9.417809087493474"><ele>17.0</ele><time>2026-04-03T10:08:39Z</time></trkpt><trkpt lat="44.27725282066243" lon="9.41792963524402"><ele>17.0</ele><time>2026-04-03T10:08:40Z</time></trkpt><trkpt lat="44.2771487720641" lon="9.41805259801642"><ele>17.0</ele><time>2026-04-03T10:08:41Z</time></trkpt><trkpt lat="44.27704937606449" lon="9.418168940262133"><ele>16.0</ele><time>2026-04-03T10:08:42Z</time></trkpt><trkpt lat="44.27695338745245" lon="9.418283477753272"><ele>15.0</ele><time>2026-04-03T10:08:43Z</time></trkpt><trkpt lat="44.27686194849619" lon="9.418392047413837"><ele>14.0</ele><time>2026-04-03T10:08:44Z</time></trkpt><trkpt lat="44.27677221305645" lon="9.418495550322502"><ele>13.0</ele><time>2026-04-03T10:08:45Z</time></trkpt><trkpt lat="44.27668667938689" lon="9.418594011611008"><ele>13.0</ele><time>2026-04-03T10:08:46Z</time></trkpt><trkpt lat="44.27660414092486" lon="9.418687327815952"><ele>13.0</ele><time>2026-04-03T10:08:47Z</time></trkpt><trkpt lat="44.27652231714663" lon="9.418770333657593"><ele>13.0</ele><time>2026-04-03T10:08:48Z</time></trkpt><trkpt lat="44.27643976378258" lon="9.4188406531941"><ele>13.0</ele><time>2026-04-03T10:08:49Z</time></trkpt><trkpt lat="44.276353147805466" lon="9.418907196082046"><ele>13.0</ele><time>2026-04-03T10:08:50Z</time></trkpt><trkpt lat="44.27626466850123" lon="9.418964034770042"><ele>13.600000000000001</ele><time>2026-04-03T10:08:51Z</time></trkpt><trkpt lat="44.27616988168572" lon="9.41900976178641"><ele>14.200000000000001</ele><time>2026-04-03T10:08:52Z</time></trkpt><trkpt lat="44.276070065504264" lon="9.419039316222554"><ele>14.8</ele><time>2026-04-03T10:08:53Z</time></trkpt><trkpt lat="44.275967725664174" lon="9.419049122773227"><ele>15.4</ele><time>2026-04-03T10:08:54Z</time></trkpt><trkpt lat="44.27586721886282" lon="9.419031135429881"><ele>16.0</ele><time>2026-04-03T10:08:55Z</time></trkpt><trkpt lat="44.2757699956406" lon="9.418990033395497"><ele>16.0</ele><time>2026-04-03T10:08:56Z</time></trkpt><trkpt lat="44.27567532073676" lon="9.418938376852427"><ele>16.0</ele><time>2026-04-03T10:08:57Z</time></trkpt><trkpt lat="44.27558220496906" lon="9.418882722556898"><ele>16.0</ele><time>2026-04-03T10:08:58Z</time></trkpt><trkpt lat="44.27548518856505" lon="9.418831216739262"><ele>16.0</ele><time>2026-04-03T10:08:59Z</time></trkpt><trkpt lat="44.275379440991706" lon="9.418780018019655"><ele>16.0</ele><time>2026-04-03T10:09:00Z</time></trkpt><trkpt lat="44.2752660726685" lon="9.418731740090776"><ele>15.25</ele><time>2026-04-03T10:09:01Z</time></trkpt><trkpt lat="44.27514298816505" lon="9.418691339765365"><ele>14.5</ele><time>2026-04-03T10:09:02Z</time></trkpt><trkpt lat="44.275012956943186" lon="9.418661907795471"><ele>13.75</ele><time>2026-04-03T10:09:03Z</time></trkpt><trkpt lat="44.27487729493921" lon="9.41865161140864"><ele>13.0</ele><time>2026-04-03T10:09:04Z</time></trkpt><trkpt lat="44.27473804807014" lon="9.418657717074426"><ele>12.75</ele><time>2026-04-03T10:09:04.999Z</time></trkpt><trkpt lat="44.274598232109696" lon="9.418675292063847"><ele>12.5</ele><time>2026-04-03T10:09:05.999Z</time></trkpt><trkpt lat="44.27446048417798" lon="9.418704583518133"><ele>12.25</ele><time>2026-04-03T10:09:06.999Z</time></trkpt><trkpt lat="44.274327325189304" lon="9.418747241107083"><ele>12.0</ele><time>2026-04-03T10:09:07.999Z</time></trkpt><trkpt lat="44.2741942090657" lon="9.41878257162053"><ele>12.2</ele><time>2026-04-03T10:09:08.999Z</time></trkpt><trkpt lat="44.27408378741592" lon="9.418868433949248"><ele>12.399999999999999</ele><time>2026-04-03T10:09:09.999Z</time></trkpt><trkpt lat="44.27397767880826" lon="9.41893509240184"><ele>12.600000000000001</ele><time>2026-04-03T10:09:10.999Z</time></trkpt><trkpt lat="44.2738826639715" lon="9.418999111566139"><ele>12.8</ele><time>2026-04-03T10:09:11.999Z</time></trkpt><trkpt lat="44.27379364910614" lon="9.419061959946035"><ele>13.0</ele><time>2026-04-03T10:09:12.999Z</time></trkpt><trkpt lat="44.27371403627539" lon="9.419120107076594"><ele>13.0</ele><time>2026-04-03T10:09:13.999Z</time></trkpt><trkpt lat="44.273641526907525" lon="9.419178219966781"><ele>13.0</ele><time>2026-04-03T10:09:14.999Z</time></trkpt><trkpt lat="44.273576455374105" lon="9.419229934479876"><ele>13.0</ele><time>2026-04-03T10:09:16.001Z</time></trkpt><trkpt lat="44.27350825892947" lon="9.4192538668679"><ele>13.0</ele><time>2026-04-03T10:09:17.001Z</time></trkpt><trkpt lat="44.273396068421064" lon="9.419327357120444"><ele>13.0</ele><time>2026-04-03T10:09:19.001Z</time></trkpt><trkpt lat="44.2733021300559" lon="9.419388313241948"><ele>13.0</ele><time>2026-04-03T10:09:21.001Z</time></trkpt><trkpt lat="44.27322161634535" lon="9.419413721165325"><ele>13.0</ele><time>2026-04-03T10:09:23.001Z</time></trkpt><trkpt lat="44.2731398652574" lon="9.41944571070969"><ele>13.0</ele><time>2026-04-03T10:09:25.001Z</time></trkpt><trkpt lat="44.27304430054323" lon="9.419474695423608"><ele>13.0</ele><time>2026-04-03T10:09:27.001Z</time></trkpt><trkpt lat="44.27293439592143" lon="9.419508372523083"><ele>13.0</ele><time>2026-04-03T10:09:29.001Z</time></trkpt><trkpt lat="44.272815626756284" lon="9.41954767076296"><ele>12.999999999999998</ele><time>2026-04-03T10:09:31Z</time></trkpt><trkpt lat="44.272751155538145" lon="9.419590257911244"><ele>13.0</ele><time>2026-04-03T10:09:32Z</time></trkpt><trkpt lat="44.27267666340154" lon="9.419601469859732"><ele>13.0</ele><time>2026-04-03T10:09:33Z</time></trkpt><trkpt lat="44.272594628577515" lon="9.41961764889618"><ele>13.0</ele><time>2026-04-03T10:09:34Z</time></trkpt><trkpt lat="44.27251041747669" lon="9.419631507036357"><ele>12.999999999999998</ele><time>2026-04-03T10:09:35Z</time></trkpt><trkpt lat="44.2724210823954" lon="9.419647351318062"><ele>13.0</ele><time>2026-04-03T10:09:36Z</time></trkpt><trkpt lat="44.27232800475855" lon="9.419670042748423"><ele>12.600000000000001</ele><time>2026-04-03T10:09:37Z</time></trkpt><trkpt lat="44.27223589912213" lon="9.419690488525523"><ele>12.200000000000001</ele><time>2026-04-03T10:09:38Z</time></trkpt><trkpt lat="44.27214999267848" lon="9.419708375000845"><ele>11.8</ele><time>2026-04-03T10:09:39Z</time></trkpt><trkpt lat="44.2720699682155" lon="9.419721618038686"><ele>11.4</ele><time>2026-04-03T10:09:40Z</time></trkpt><trkpt lat="44.27197369811252" lon="9.419757131586385"><ele>11.0</ele><time>2026-04-03T10:09:42Z</time></trkpt><trkpt lat="44.27186940257458" lon="9.419695784145816"><ele>11.0</ele><time>2026-04-03T10:09:47Z</time></trkpt><trkpt lat="44.27179310228988" lon="9.419653898770488"><ele>11.0</ele><time>2026-04-03T10:09:48Z</time></trkpt><trkpt lat="44.27171178213743" lon="9.419607749475858"><ele>11.0</ele><time>2026-04-03T10:09:49Z</time></trkpt><trkpt lat="44.27162152005853" lon="9.41955587448156"><ele>11.0</ele><time>2026-04-03T10:09:50Z</time></trkpt><trkpt lat="44.271525778405554" lon="9.419497034098322"><ele>11.0</ele><time>2026-04-03T10:09:51Z</time></trkpt><trkpt lat="44.271429899332134" lon="9.419421418974846"><ele>11.25</ele><time>2026-04-03T10:09:52Z</time></trkpt><trkpt lat="44.27132378623341" lon="9.419392369814911"><ele>11.5</ele><time>2026-04-03T10:09:53Z</time></trkpt><trkpt lat="44.27124795999037" lon="9.419236873201235"><ele>11.75</ele><time>2026-04-03T10:09:54Z</time></trkpt><trkpt lat="44.27116637482245" lon="9.419125008098707"><ele>12.0</ele><time>2026-04-03T10:09:55Z</time></trkpt><trkpt lat="44.27109330888219" lon="9.419012636903478"><ele>12.0</ele><time>2026-04-03T10:09:56Z</time></trkpt><trkpt lat="44.27102764928343" lon="9.418909689912637"><ele>12.0</ele><time>2026-04-03T10:09:57Z</time></trkpt><trkpt lat="44.27096836595212" lon="9.41881171773339"><ele>12.0</ele><time>2026-04-03T10:09:58Z</time></trkpt><trkpt lat="44.270911583627175" lon="9.418724776789354"><ele>12.0</ele><time>2026-04-03T10:09:59Z</time></trkpt><trkpt lat="44.270858436353265" lon="9.418644444502648"><ele>12.0</ele><time>2026-04-03T10:10:00Z</time></trkpt><trkpt lat="44.270811065810314" lon="9.418567772287386"><ele>12.0</ele><time>2026-04-03T10:10:01Z</time></trkpt><trkpt lat="44.270739755250325" lon="9.41845574423524"><ele>11.833333333333334</ele><time>2026-04-03T10:10:03Z</time></trkpt><trkpt lat="44.270691609635335" lon="9.418374527821303"><ele>11.666666666666666</ele><time>2026-04-03T10:10:05Z</time></trkpt><trkpt lat="44.27064573758209" lon="9.41831168103017"><ele>11.5</ele><time>2026-04-03T10:10:07Z</time></trkpt><trkpt lat="44.270592896546674" lon="9.418237884541618"><ele>11.333333333333332</ele><time>2026-04-03T10:10:09Z</time></trkpt><trkpt lat="44.27053491719844" lon="9.418140344066305"><ele>11.166666666666666</ele><time>2026-04-03T10:10:11Z</time></trkpt><trkpt lat="44.27047816565138" lon="9.418055942569366"><ele>11.0</ele><time>2026-04-03T10:10:13Z</time></trkpt><trkpt lat="44.270419497211634" lon="9.417984189703489"><ele>10.666666666666666</ele><time>2026-04-03T10:10:15Z</time></trkpt><trkpt lat="44.27035501843382" lon="9.41789744105435"><ele>10.333333333333332</ele><time>2026-04-03T10:10:17Z</time></trkpt><trkpt lat="44.27026116957314" lon="9.417802595321039"><ele>10.0</ele><time>2026-04-03T10:10:19Z</time></trkpt><trkpt lat="44.270208992742795" lon="9.417747986874582"><ele>9.666666666666666</ele><time>2026-04-03T10:10:20Z</time></trkpt><trkpt lat="44.27016432111717" lon="9.417674075215738"><ele>9.333333333333334</ele><time>2026-04-03T10:10:21Z</time></trkpt><trkpt lat="44.27012277355878" lon="9.417595365599691"><ele>9.0</ele><time>2026-04-03T10:10:22Z</time></trkpt><trkpt lat="44.27009153490365" lon="9.417509354049665"><ele>9.0</ele><time>2026-04-03T10:10:23Z</time></trkpt><trkpt lat="44.270072496829684" lon="9.417409345811647"><ele>9.0</ele><time>2026-04-03T10:10:24Z</time></trkpt><trkpt lat="44.27007521529534" lon="9.417298274564322"><ele>9.0</ele><time>2026-04-03T10:10:25Z</time></trkpt><trkpt lat="44.270095966095234" lon="9.417197065534713"><ele>9.0</ele><time>2026-04-03T10:10:26Z</time></trkpt><trkpt lat="44.270128900836895" lon="9.41709358514221"><ele>9.0</ele><time>2026-04-03T10:10:27Z</time></trkpt><trkpt lat="44.27016235388056" lon="9.41699235594472"><ele>9.0</ele><time>2026-04-03T10:10:28Z</time></trkpt><trkpt lat="44.27019630980415" lon="9.416889070022368"><ele>9.0</ele><time>2026-04-03T10:10:29Z</time></trkpt><trkpt lat="44.27022968265027" lon="9.416781923519212"><ele>9.0</ele><time>2026-04-03T10:10:30Z</time></trkpt><trkpt lat="44.27026756870183" lon="9.416676029359184"><ele>9.0</ele><time>2026-04-03T10:10:31Z</time></trkpt><trkpt lat="44.27030311072304" lon="9.416564880009654"><ele>9.0</ele><time>2026-04-03T10:10:32Z</time></trkpt><trkpt lat="44.27033925499704" lon="9.416459660785623"><ele>9.0</ele><time>2026-04-03T10:10:33Z</time></trkpt><trkpt lat="44.270373931700256" lon="9.416353367053928"><ele>9.0</ele><time>2026-04-03T10:10:34Z</time></trkpt><trkpt lat="44.27040914291713" lon="9.416252456401567"><ele>9.0</ele><time>2026-04-03T10:10:35Z</time></trkpt><trkpt lat="44.27044438159257" lon="9.41615277140522"><ele>9.0</ele><time>2026-04-03T10:10:36Z</time></trkpt><trkpt lat="44.270478272778576" lon="9.416053189074784"><ele>9.0</ele><time>2026-04-03T10:10:37Z</time></trkpt><trkpt lat="44.270512147629596" lon="9.415954211007396"><ele>9.0</ele><time>2026-04-03T10:10:38Z</time></trkpt><trkpt lat="44.27054377081725" lon="9.415858330057622"><ele>9.0</ele><time>2026-04-03T10:10:39Z</time></trkpt><trkpt lat="44.27057690029415" lon="9.415759958725122"><ele>9.0</ele><time>2026-04-03T10:10:40Z</time></trkpt><trkpt lat="44.270610324949466" lon="9.415661714040345"><ele>8.833333333333334</ele><time>2026-04-03T10:10:41Z</time></trkpt><trkpt lat="44.27064383391252" lon="9.41556027611562"><ele>8.666666666666666</ele><time>2026-04-03T10:10:42Z</time></trkpt><trkpt lat="44.270679347547876" lon="9.415457877922266"><ele>8.5</ele><time>2026-04-03T10:10:43Z</time></trkpt><trkpt lat="44.27071363140279" lon="9.415352321500869"><ele>8.333333333333332</ele><time>2026-04-03T10:10:44Z</time></trkpt><trkpt lat="44.27074867790473" lon="9.415244546122747"><ele>8.166666666666666</ele><time>2026-04-03T10:10:45Z</time></trkpt><trkpt lat="44.270786114578726" lon="9.415136022278164"><ele>8.0</ele><time>2026-04-03T10:10:46Z</time></trkpt><trkpt lat="44.27082572650207" lon="9.415031703554162"><ele>7.999999999999999</ele><time>2026-04-03T10:10:47Z</time></trkpt><trkpt lat="44.27086298031944" lon="9.414922481210258"><ele>8.0</ele><time>2026-04-03T10:10:48Z</time></trkpt><trkpt lat="44.270899145104266" lon="9.414819863122391"><ele>8.0</ele><time>2026-04-03T10:10:49Z</time></trkpt><trkpt lat="44.27093327965253" lon="9.414713049402764"><ele>8.0</ele><time>2026-04-03T10:10:50Z</time></trkpt><trkpt lat="44.27096751151385" lon="9.414606097872223"><ele>7.999999999999999</ele><time>2026-04-03T10:10:51Z</time></trkpt><trkpt lat="44.2710011933994" lon="9.414503334991275"><ele>8.0</ele><time>2026-04-03T10:10:52Z</time></trkpt><trkpt lat="44.27103728904568" lon="9.414400925138878"><ele>8.5</ele><time>2026-04-03T10:10:53Z</time></trkpt><trkpt lat="44.27107026527859" lon="9.414300796410801"><ele>9.0</ele><time>2026-04-03T10:10:54Z</time></trkpt><trkpt lat="44.271102616217675" lon="9.414192190963531"><ele>9.5</ele><time>2026-04-03T10:10:55Z</time></trkpt><trkpt lat="44.271138102634" lon="9.414085290349195"><ele>10.0</ele><time>2026-04-03T10:10:56Z</time></trkpt><trkpt lat="44.271178567737614" lon="9.413974481924095"><ele>10.5</ele><time>2026-04-03T10:10:56.999Z</time></trkpt><trkpt lat="44.27121756125336" lon="9.413859573004766"><ele>11.0</ele><time>2026-04-03T10:10:57.999Z</time></trkpt><trkpt lat="44.271258717205434" lon="9.41374688718871"><ele>11.0</ele><time>2026-04-03T10:10:58.999Z</time></trkpt><trkpt lat="44.27129809135529" lon="9.413633511526546"><ele>11.0</ele><time>2026-04-03T10:10:59.999Z</time></trkpt><trkpt lat="44.27133117934553" lon="9.413515519829073"><ele>11.0</ele><time>2026-04-03T10:11:00.999Z</time></trkpt><trkpt lat="44.27136915698844" lon="9.413403139309597"><ele>11.0</ele><time>2026-04-03T10:11:01.999Z</time></trkpt><trkpt lat="44.27140530244705" lon="9.413297540995494"><ele>11.0</ele><time>2026-04-03T10:11:02.999Z</time></trkpt><trkpt lat="44.27144475701088" lon="9.413191321430707"><ele>11.0</ele><time>2026-04-03T10:11:03.999Z</time></trkpt><trkpt lat="44.27148246287055" lon="9.413080993330196"><ele>11.0</ele><time>2026-04-03T10:11:04.999Z</time></trkpt><trkpt lat="44.27151808770428" lon="9.41297314138588"><ele>11.0</ele><time>2026-04-03T10:11:05.999Z</time></trkpt><trkpt lat="44.27155681090152" lon="9.412868566443455"><ele>11.0</ele><time>2026-04-03T10:11:06.999Z</time></trkpt><trkpt lat="44.271592983973335" lon="9.412766596625252"><ele>11.0</ele><time>2026-04-03T10:11:07.999Z</time></trkpt><trkpt lat="44.271628655439116" lon="9.412658636453422"><ele>11.0</ele><time>2026-04-03T10:11:08.999Z</time></trkpt><trkpt lat="44.271663931866854" lon="9.412556130903992"><ele>11.0</ele><time>2026-04-03T10:11:09.999Z</time></trkpt><trkpt lat="44.27169999212943" lon="9.41245158558002"><ele>11.0</ele><time>2026-04-03T10:11:10.999Z</time></trkpt><trkpt lat="44.271735773046366" lon="9.412347437293421"><ele>11.0</ele><time>2026-04-03T10:11:11.999Z</time></trkpt><trkpt lat="44.271773217077225" lon="9.41224549755725"><ele>11.0</ele><time>2026-04-03T10:11:12.999Z</time></trkpt><trkpt lat="44.27180687241003" lon="9.412145634510681"><ele>11.0</ele><time>2026-04-03T10:11:13.999Z</time></trkpt><trkpt lat="44.271837448311054" lon="9.41205189716801"><ele>11.0</ele><time>2026-04-03T10:11:14.999Z</time></trkpt><trkpt lat="44.27186668853029" lon="9.41196531926003"><ele>11.0</ele><time>2026-04-03T10:11:15.999Z</time></trkpt><trkpt lat="44.27189453301887" lon="9.411881369879696"><ele>10.600000000000001</ele><time>2026-04-03T10:11:16.999Z</time></trkpt><trkpt lat="44.271946336984854" lon="9.411732999038477"><ele>10.200000000000001</ele><time>2026-04-03T10:11:18.999Z</time></trkpt><trkpt lat="44.271988862418105" lon="9.41160484180616"><ele>9.8</ele><time>2026-04-03T10:11:20.999Z</time></trkpt><trkpt lat="44.272026380272855" lon="9.411499936772463"><ele>9.4</ele><time>2026-04-03T10:11:23Z</time></trkpt><trkpt lat="44.27206701022464" lon="9.411392074723913"><ele>9.0</ele><time>2026-04-03T10:11:25Z</time></trkpt><trkpt lat="44.27210399618923" lon="9.411272755580745"><ele>9.0</ele><time>2026-04-03T10:11:27Z</time></trkpt><trkpt lat="44.272149139972335" lon="9.411134991507291"><ele>9.0</ele><time>2026-04-03T10:11:29Z</time></trkpt><trkpt lat="44.272197329478935" lon="9.410991685545248"><ele>9.0</ele><time>2026-04-03T10:11:31Z</time></trkpt><trkpt lat="44.272240510466396" lon="9.410866578326601"><ele>9.0</ele><time>2026-04-03T10:11:33Z</time></trkpt><trkpt lat="44.27226883596902" lon="9.410785519713187"><ele>9.0</ele><time>2026-04-03T10:11:35Z</time></trkpt><trkpt lat="44.272303656640524" lon="9.410698262493892"><ele>8.8</ele><time>2026-04-03T10:11:45Z</time></trkpt><trkpt lat="44.27234370823141" lon="9.410576707275991"><ele>8.600000000000001</ele><time>2026-04-03T10:11:47Z</time></trkpt><trkpt lat="44.272390404070975" lon="9.410452076425642"><ele>8.4</ele><time>2026-04-03T10:11:49Z</time></trkpt><trkpt lat="44.272438037078544" lon="9.410308437429848"><ele>8.200000000000001</ele><time>2026-04-03T10:11:51Z</time></trkpt><trkpt lat="44.272489468619064" lon="9.410152929416094"><ele>8.0</ele><time>2026-04-03T10:11:53Z</time></trkpt><trkpt lat="44.27251562455395" lon="9.410072161484022"><ele>8.0</ele><time>2026-04-03T10:11:54Z</time></trkpt><trkpt lat="44.27253999033601" lon="9.409989540918911"><ele>7.999999999999999</ele><time>2026-04-03T10:11:55Z</time></trkpt><trkpt lat="44.27256556696521" lon="9.40990334980926"><ele>8.0</ele><time>2026-04-03T10:11:56Z</time></trkpt><trkpt lat="44.27259404803664" lon="9.409816435581643"><ele>8.0</ele><time>2026-04-03T10:11:57Z</time></trkpt><trkpt lat="44.27262305947869" lon="9.40973219267274"><ele>7.999999999999999</ele><time>2026-04-03T10:11:58Z</time></trkpt><trkpt lat="44.27265271214551" lon="9.409645162697819"><ele>8.0</ele><time>2026-04-03T10:11:59Z</time></trkpt><trkpt lat="44.27268102777447" lon="9.409557717733886"><ele>8.0</ele><time>2026-04-03T10:12:00Z</time></trkpt><trkpt lat="44.27271126761261" lon="9.409470363997242"><ele>8.0</ele><time>2026-04-03T10:12:01Z</time></trkpt><trkpt lat="44.27274264119178" lon="9.409385452531998"><ele>7.999999999999999</ele><time>2026-04-03T10:12:02Z</time></trkpt><trkpt lat="44.27277183492061" lon="9.409295516820825"><ele>8.0</ele><time>2026-04-03T10:12:03Z</time></trkpt><trkpt lat="44.272801448445044" lon="9.409206384796002"><ele>8.0</ele><time>2026-04-03T10:12:04Z</time></trkpt><trkpt lat="44.27283164816629" lon="9.40911946364382"><ele>7.999999999999999</ele><time>2026-04-03T10:12:05Z</time></trkpt><trkpt lat="44.272859314749475" lon="9.409034612379031"><ele>8.0</ele><time>2026-04-03T10:12:06Z</time></trkpt><trkpt lat="44.272889743659974" lon="9.40895326259273"><ele>8.0</ele><time>2026-04-03T10:12:07Z</time></trkpt><trkpt lat="44.27292013591722" lon="9.408872552334735"><ele>8.0</ele><time>2026-04-03T10:12:08Z</time></trkpt><trkpt lat="44.27295207202329" lon="9.408789838870039"><ele>7.999999999999999</ele><time>2026-04-03T10:12:09Z</time></trkpt><trkpt lat="44.272984886798994" lon="9.408702130361354"><ele>8.0</ele><time>2026-04-03T10:12:10Z</time></trkpt><trkpt lat="44.27301360546282" lon="9.408609848720353"><ele>8.0</ele><time>2026-04-03T10:12:11Z</time></trkpt><trkpt lat="44.27304168692718" lon="9.408521198558113"><ele>7.999999999999999</ele><time>2026-04-03T10:12:12Z</time></trkpt><trkpt lat="44.27307021311844" lon="9.408430399254621"><ele>8.0</ele><time>2026-04-03T10:12:13Z</time></trkpt><trkpt lat="44.273099616926466" lon="9.408337912743889"><ele>8.0</ele><time>2026-04-03T10:12:14Z</time></trkpt><trkpt lat="44.273128819766505" lon="9.408247139278362"><ele>8.0</ele><time>2026-04-03T10:12:15Z</time></trkpt><trkpt lat="44.27315755228365" lon="9.408156016498838"><ele>7.999999999999999</ele><time>2026-04-03T10:12:16Z</time></trkpt><trkpt lat="44.27318749786523" lon="9.408063453181287"><ele>8.0</ele><time>2026-04-03T10:12:17Z</time></trkpt><trkpt lat="44.27321758004957" lon="9.407973972479772"><ele>8.0</ele><time>2026-04-03T10:12:18Z</time></trkpt><trkpt lat="44.273249958810624" lon="9.407883439800454"><ele>7.999999999999999</ele><time>2026-04-03T10:12:19Z</time></trkpt><trkpt lat="44.27328098555885" lon="9.407792333210988"><ele>8.0</ele><time>2026-04-03T10:12:20Z</time></trkpt><trkpt lat="44.27331048429394" lon="9.407702690827149"><ele>8.0</ele><time>2026-04-03T10:12:21Z</time></trkpt><trkpt lat="44.27334053705818" lon="9.407613075753996"><ele>8.142857142857142</ele><time>2026-04-03T10:12:22Z</time></trkpt><trkpt lat="44.273370726552365" lon="9.407523482162931"><ele>8.285714285714285</ele><time>2026-04-03T10:12:23Z</time></trkpt><trkpt lat="44.27340394341989" lon="9.407438444171932"><ele>8.428571428571429</ele><time>2026-04-03T10:12:24Z</time></trkpt><trkpt lat="44.273434940678634" lon="9.407354060622778"><ele>8.571428571428571</ele><time>2026-04-03T10:12:25Z</time></trkpt><trkpt lat="44.27346469161462" lon="9.40726961624593"><ele>8.714285714285715</ele><time>2026-04-03T10:12:26Z</time></trkpt><trkpt lat="44.27349126790558" lon="9.407183400553407"><ele>8.857142857142858</ele><time>2026-04-03T10:12:27Z</time></trkpt><trkpt lat="44.27351948946797" lon="9.407092721569951"><ele>9.0</ele><time>2026-04-03T10:12:28Z</time></trkpt><trkpt lat="44.27355048339025" lon="9.406996857350418"><ele>9.142857142857144</ele><time>2026-04-03T10:12:29Z</time></trkpt><trkpt lat="44.273580531464994" lon="9.406905590284364"><ele>9.285714285714286</ele><time>2026-04-03T10:12:30Z</time></trkpt><trkpt lat="44.273610239306514" lon="9.40681769545444"><ele>9.428571428571429</ele><time>2026-04-03T10:12:31Z</time></trkpt><trkpt lat="44.27363866125888" lon="9.406728275055766"><ele>9.571428571428573</ele><time>2026-04-03T10:12:32Z</time></trkpt><trkpt lat="44.27366834768162" lon="9.406640925793623"><ele>9.714285714285715</ele><time>2026-04-03T10:12:33Z</time></trkpt><trkpt lat="44.27369956205316" lon="9.406557220758327"><ele>9.857142857142858</ele><time>2026-04-03T10:12:34Z</time></trkpt><trkpt lat="44.27372844373027" lon="9.406472703104727"><ele>10.0</ele><time>2026-04-03T10:12:35Z</time></trkpt><trkpt lat="44.273754305159734" lon="9.406386947019849"><ele>10.285714285714285</ele><time>2026-04-03T10:12:36Z</time></trkpt><trkpt lat="44.273781759889935" lon="9.406299968362037"><ele>10.571428571428571</ele><time>2026-04-03T10:12:37Z</time></trkpt><trkpt lat="44.27381271919537" lon="9.40621289620618"><ele>10.857142857142858</ele><time>2026-04-03T10:12:38Z</time></trkpt><trkpt lat="44.27384368340823" lon="9.406123002133018"><ele>11.142857142857142</ele><time>2026-04-03T10:12:39Z</time></trkpt><trkpt lat="44.273873299506384" lon="9.406031907509488"><ele>11.428571428571429</ele><time>2026-04-03T10:12:40Z</time></trkpt><trkpt lat="44.27390691832202" lon="9.405939690635476"><ele>11.714285714285714</ele><time>2026-04-03T10:12:41Z</time></trkpt><trkpt lat="44.273938911482055" lon="9.405854183984237"><ele>12.0</ele><time>2026-04-03T10:12:41.999Z</time></trkpt><trkpt lat="44.27396910973214" lon="9.405770392300035"><ele>11.2</ele><time>2026-04-03T10:12:42.999Z</time></trkpt><trkpt lat="44.274009612688886" lon="9.405619911096549"><ele>10.399999999999999</ele><time>2026-04-03T10:12:44.999Z</time></trkpt><trkpt lat="44.27403175600787" lon="9.405494324079328"><ele>9.600000000000001</ele><time>2026-04-03T10:12:46.999Z</time></trkpt><trkpt lat="44.27406260960968" lon="9.405395844639642"><ele>8.8</ele><time>2026-04-03T10:12:48.999Z</time></trkpt><trkpt lat="44.274099593824715" lon="9.40528823624144"><ele>8.0</ele><time>2026-04-03T10:12:51.999Z</time></trkpt><trkpt lat="44.274150382264374" lon="9.405192829380654"><ele>7.666666666666666</ele><time>2026-04-03T10:13:04.999Z</time></trkpt><trkpt lat="44.274178761324485" lon="9.405112050696088"><ele>7.333333333333333</ele><time>2026-04-03T10:13:05.999Z</time></trkpt><trkpt lat="44.27420873751446" lon="9.405029288418378"><ele>7.0</ele><time>2026-04-03T10:13:06.999Z</time></trkpt><trkpt lat="44.27424196735775" lon="9.404933538034554"><ele>6.666666666666666</ele><time>2026-04-03T10:13:07.999Z</time></trkpt><trkpt lat="44.27426587241365" lon="9.404824227144227"><ele>6.333333333333333</ele><time>2026-04-03T10:13:08.999Z</time></trkpt><trkpt lat="44.274283464602284" lon="9.404707940109411"><ele>6.0</ele><time>2026-04-03T10:13:09.999Z</time></trkpt><trkpt lat="44.27429342487384" lon="9.404584353247015"><ele>5.833333333333333</ele><time>2026-04-03T10:13:10.999Z</time></trkpt><trkpt lat="44.27430164382941" lon="9.404461038151917"><ele>5.666666666666667</ele><time>2026-04-03T10:13:11.999Z</time></trkpt><trkpt lat="44.27430824297274" lon="9.404342692216574"><ele>5.5</ele><time>2026-04-03T10:13:12.999Z</time></trkpt><trkpt lat="44.274317226940276" lon="9.404230713902948"><ele>5.333333333333334</ele><time>2026-04-03T10:13:13.999Z</time></trkpt><trkpt lat="44.274326538468564" lon="9.404125277228708"><ele>5.166666666666667</ele><time>2026-04-03T10:13:14.999Z</time></trkpt><trkpt lat="44.274336242168964" lon="9.40402352092045"><ele>5.0</ele><time>2026-04-03T10:13:15.999Z</time></trkpt><trkpt lat="44.27434565686028" lon="9.40392336637392"><ele>4.8</ele><time>2026-04-03T10:13:16.999Z</time></trkpt><trkpt lat="44.27435037113139" lon="9.403814732240257"><ele>4.6</ele><time>2026-04-03T10:13:17.999Z</time></trkpt><trkpt lat="44.274355573546565" lon="9.403694864792755"><ele>4.4</ele><time>2026-04-03T10:13:18.999Z</time></trkpt><trkpt lat="44.27436677640379" lon="9.40356744720088"><ele>4.2</ele><time>2026-04-03T10:13:19.999Z</time></trkpt><trkpt lat="44.27437705607234" lon="9.403432754265712"><ele>4.0</ele><time>2026-04-03T10:13:20.999Z</time></trkpt><trkpt lat="44.27437828220707" lon="9.403288912586184"><ele>4.0</ele><time>2026-04-03T10:13:21.999Z</time></trkpt><trkpt lat="44.274374958029426" lon="9.403133839006546"><ele>4.0</ele><time>2026-04-03T10:13:22.999Z</time></trkpt><trkpt lat="44.27436934793177" lon="9.402978969581213"><ele>4.0</ele><time>2026-04-03T10:13:23.999Z</time></trkpt><trkpt lat="44.27436140914327" lon="9.402826338487882"><ele>4.0</ele><time>2026-04-03T10:13:24.999Z</time></trkpt><trkpt lat="44.274353409371045" lon="9.402663212388278"><ele>4.0</ele><time>2026-04-03T10:13:25.999Z</time></trkpt><trkpt lat="44.27434657684624" lon="9.40250386002088"><ele>4.5</ele><time>2026-04-03T10:13:26.999Z</time></trkpt><trkpt lat="44.27433894063158" lon="9.402328397287215"><ele>5.0</ele><time>2026-04-03T10:13:28Z</time></trkpt><trkpt lat="44.274331465743245" lon="9.402144300541506"><ele>5.5</ele><time>2026-04-03T10:13:29Z</time></trkpt><trkpt lat="44.274324137833716" lon="9.401988252888161"><ele>6.0</ele><time>2026-04-03T10:13:30Z</time></trkpt><trkpt lat="44.274290845990514" lon="9.401879358014313"><ele>6.0</ele><time>2026-04-03T10:13:31Z</time></trkpt><trkpt lat="44.27426723769109" lon="9.401767536449569"><ele>6.0</ele><time>2026-04-03T10:13:32Z</time></trkpt><trkpt lat="44.274251853853244" lon="9.401655941474978"><ele>6.0</ele><time>2026-04-03T10:13:33Z</time></trkpt><trkpt lat="44.27422379973524" lon="9.401554049021835"><ele>6.0</ele><time>2026-04-03T10:13:34Z</time></trkpt><trkpt lat="44.274200629910844" lon="9.401470356909044"><ele>6.0</ele><time>2026-04-03T10:13:35Z</time></trkpt><trkpt lat="44.274181749618215" lon="9.401376644797566"><ele>6.0</ele><time>2026-04-03T10:13:36Z</time></trkpt><trkpt lat="44.27415142218228" lon="9.401284167152943"><ele>5.999999999999999</ele><time>2026-04-03T10:13:37Z</time></trkpt><trkpt lat="44.274121168852304" lon="9.401193575944541"><ele>6.0</ele><time>2026-04-03T10:13:38Z</time></trkpt><trkpt lat="44.274095992169" lon="9.401106972133066"><ele>6.0</ele><time>2026-04-03T10:13:39Z</time></trkpt><trkpt lat="44.27407200216352" lon="9.401021302415947"><ele>6.0</ele><time>2026-04-03T10:13:40Z</time></trkpt><trkpt lat="44.27405199968203" lon="9.400930523042287"><ele>6.0</ele><time>2026-04-03T10:13:41Z</time></trkpt><trkpt lat="44.274029216472414" lon="9.400839641630137"><ele>5.999999999999999</ele><time>2026-04-03T10:13:42Z</time></trkpt><trkpt lat="44.274000292626276" lon="9.400746622753184"><ele>6.0</ele><time>2026-04-03T10:13:43Z</time></trkpt><trkpt lat="44.2739689066361" lon="9.400646778160427"><ele>5.999999999999999</ele><time>2026-04-03T10:13:44Z</time></trkpt><trkpt lat="44.27394221904103" lon="9.40055370922818"><ele>6.0</ele><time>2026-04-03T10:13:45Z</time></trkpt><trkpt lat="44.2739136701333" lon="9.40045733276078"><ele>6.0</ele><time>2026-04-03T10:13:46Z</time></trkpt><trkpt lat="44.27388576537501" lon="9.400366418734226"><ele>6.0</ele><time>2026-04-03T10:13:47Z</time></trkpt><trkpt lat="44.27385786249249" lon="9.400275960549264"><ele>6.0</ele><time>2026-04-03T10:13:48Z</time></trkpt><trkpt lat="44.27383283741383" lon="9.400186479477664"><ele>5.999999999999999</ele><time>2026-04-03T10:13:49Z</time></trkpt><trkpt lat="44.273806771075925" lon="9.400100761724444"><ele>6.0</ele><time>2026-04-03T10:13:50Z</time></trkpt><trkpt lat="44.27378066838988" lon="9.400014241953926"><ele>6.0</ele><time>2026-04-03T10:13:51Z</time></trkpt><trkpt lat="44.273753702421786" lon="9.399930539341307"><ele>6.0</ele><time>2026-04-03T10:13:52Z</time></trkpt><trkpt lat="44.2737052841923" lon="9.399769387887657"><ele>6.0</ele><time>2026-04-03T10:13:54Z</time></trkpt><trkpt lat="44.27368124155868" lon="9.399686775861454"><ele>6.0</ele><time>2026-04-03T10:13:55Z</time></trkpt><trkpt lat="44.2736596975164" lon="9.399600701135846"><ele>6.0</ele><time>2026-04-03T10:13:56Z</time></trkpt><trkpt lat="44.273637476912974" lon="9.399512281639556"><ele>6.0</ele><time>2026-04-03T10:13:57Z</time></trkpt><trkpt lat="44.27361395850846" lon="9.399424193760193"><ele>6.142857142857142</ele><time>2026-04-03T10:13:58Z</time></trkpt><trkpt lat="44.273587843109496" lon="9.399337125727198"><ele>6.285714285714286</ele><time>2026-04-03T10:13:59Z</time></trkpt><trkpt lat="44.273559712810204" lon="9.399247173424635"><ele>6.428571428571429</ele><time>2026-04-03T10:14:00Z</time></trkpt><trkpt lat="44.273527391348495" lon="9.399155997092084"><ele>6.571428571428571</ele><time>2026-04-03T10:14:01Z</time></trkpt><trkpt lat="44.27349876021691" lon="9.399059409682133"><ele>6.714285714285714</ele><time>2026-04-03T10:14:02Z</time></trkpt><trkpt lat="44.273469073712086" lon="9.39896236077485"><ele>6.857142857142857</ele><time>2026-04-03T10:14:03Z</time></trkpt><trkpt lat="44.273440003700905" lon="9.39886493861558"><ele>7.0</ele><time>2026-04-03T10:14:04Z</time></trkpt><trkpt lat="44.273410069335064" lon="9.398768223845122"><ele>7.0</ele><time>2026-04-03T10:14:05Z</time></trkpt><trkpt lat="44.273383199829006" lon="9.398673204515136"><ele>6.999999999999999</ele><time>2026-04-03T10:14:06Z</time></trkpt><trkpt lat="44.273344164954246" lon="9.398567664129587"><ele>6.999999999999999</ele><time>2026-04-03T10:14:08Z</time></trkpt><trkpt lat="44.273310977238594" lon="9.398431136700424"><ele>7.0</ele><time>2026-04-03T10:14:14Z</time></trkpt><trkpt lat="44.27328717355463" lon="9.39827231093001"><ele>7.0</ele><time>2026-04-03T10:14:16Z</time></trkpt><trkpt lat="44.273263521060414" lon="9.39812830696709"><ele>7.6</ele><time>2026-04-03T10:14:18Z</time></trkpt><trkpt lat="44.273231046993835" lon="9.39797375043298"><ele>8.2</ele><time>2026-04-03T10:14:20Z</time></trkpt><trkpt lat="44.2732111611698" lon="9.397825364745424"><ele>8.8</ele><time>2026-04-03T10:14:22Z</time></trkpt><trkpt lat="44.2731884514926" lon="9.397688698668597"><ele>9.4</ele><time>2026-04-03T10:14:24Z</time></trkpt><trkpt lat="44.27316876465408" lon="9.397573521373467"><ele>10.0</ele><time>2026-04-03T10:14:26Z</time></trkpt><trkpt lat="44.27315977348157" lon="9.397464689651974"><ele>10.0</ele><time>2026-04-03T10:14:30Z</time></trkpt><trkpt lat="44.27315772270539" lon="9.397359110073245"><ele>10.0</ele><time>2026-04-03T10:14:34Z</time></trkpt><trkpt lat="44.27314372253951" lon="9.397243512429705"><ele>10.0</ele><time>2026-04-03T10:14:45.999Z</time></trkpt><trkpt lat="44.273146250069296" lon="9.397155522540578"><ele>10.0</ele><time>2026-04-03T10:14:47.999Z</time></trkpt><trkpt lat="44.273146733210474" lon="9.397055567939388"><ele>10.0</ele><time>2026-04-03T10:14:58.999Z</time></trkpt><trkpt lat="44.27316237752384" lon="9.396950036760924"><ele>10.0</ele><time>2026-04-03T10:15:02.999Z</time></trkpt><trkpt lat="44.27313133222852" lon="9.396859792625744"><ele>10.0</ele><time>2026-04-03T10:15:06.999Z</time></trkpt><trkpt lat="44.27300840566777" lon="9.396866939420542"><ele>9.166666666666668</ele><time>2026-04-03T10:15:16.999Z</time></trkpt><trkpt lat="44.27294824665783" lon="9.39691731883296"><ele>8.333333333333334</ele><time>2026-04-03T10:15:18.999Z</time></trkpt><trkpt lat="44.27287471053083" lon="9.396925114054996"><ele>7.5</ele><time>2026-04-03T10:15:21.999Z</time></trkpt><trkpt lat="44.27279916649237" lon="9.396899144978969"><ele>6.666666666666667</ele><time>2026-04-03T10:15:24.999Z</time></trkpt><trkpt lat="44.27274233631509" lon="9.39684489366558"><ele>5.833333333333334</ele><time>2026-04-03T10:15:27.999Z</time></trkpt><trkpt lat="44.27268434583505" lon="9.39677249940854"><ele>5.0</ele><time>2026-04-03T10:15:30.999Z</time></trkpt><trkpt lat="44.27261955275027" lon="9.396697951239844"><ele>5.0</ele><time>2026-04-03T10:15:34Z</time></trkpt><trkpt lat="44.27256094692268" lon="9.396648693470002"><ele>5.0</ele><time>2026-04-03T10:15:38Z</time></trkpt><trkpt lat="44.27253521992218" lon="9.396558796889183"><ele>5.0</ele><time>2026-04-03T10:15:46Z</time></trkpt><trkpt lat="44.272495555064665" lon="9.396488038945376"><ele>5.0</ele><time>2026-04-03T10:15:48Z</time></trkpt><trkpt lat="44.272442949586626" lon="9.396401436843933"><ele>5.0</ele><time>2026-04-03T10:15:51Z</time></trkpt><trkpt lat="44.27239110315252" lon="9.39634489142329"><ele>5.0</ele><time>2026-04-03T10:15:53Z</time></trkpt><trkpt lat="44.27232485534819" lon="9.396308732188613"><ele>5.0</ele><time>2026-04-03T10:15:55Z</time></trkpt><trkpt lat="44.27227302441503" lon="9.396247012071903"><ele>5.333333333333334</ele><time>2026-04-03T10:15:57Z</time></trkpt><trkpt lat="44.27221752106319" lon="9.396184277823917"><ele>5.666666666666667</ele><time>2026-04-03T10:15:59Z</time></trkpt><trkpt lat="44.27215373768859" lon="9.396140527328273"><ele>6.0</ele><time>2026-04-03T10:16:01Z</time></trkpt><trkpt lat="44.272096476161856" lon="9.396069910966446"><ele>6.333333333333334</ele><time>2026-04-03T10:16:03Z</time></trkpt><trkpt lat="44.27202801365615" lon="9.396004186159898"><ele>6.666666666666667</ele><time>2026-04-03T10:16:05Z</time></trkpt><trkpt lat="44.27195894110694" lon="9.39594199471385"><ele>7.0</ele><time>2026-04-03T10:16:07Z</time></trkpt><trkpt lat="44.27188924069296" lon="9.395881192472803"><ele>7.0</ele><time>2026-04-03T10:16:09Z</time></trkpt><trkpt lat="44.271816784806354" lon="9.395840836041595"><ele>6.999999999999999</ele><time>2026-04-03T10:16:11Z</time></trkpt><trkpt lat="44.27175995425693" lon="9.395795030168838"><ele>6.999999999999999</ele><time>2026-04-03T10:16:16Z</time></trkpt><trkpt lat="44.271680228963504" lon="9.395968475496296"><ele>7.0</ele><time>2026-04-03T10:16:21Z</time></trkpt><trkpt lat="44.271683226615544" lon="9.396084877421362"><ele>7.0</ele><time>2026-04-03T10:16:25Z</time></trkpt><trkpt lat="44.27170898114354" lon="9.39620859921457"><ele>7.0</ele><time>2026-04-03T10:16:32Z</time></trkpt><trkpt lat="44.27173553027211" lon="9.396301091640073"><ele>7.0</ele><time>2026-04-03T10:16:36Z</time></trkpt><trkpt lat="44.27169084358372" lon="9.396222253217232"><ele>7.0</ele><time>2026-04-03T10:21:16.999Z</time></trkpt></trkseg><trkseg><trkpt lat="44.332263842847205" lon="9.277552814427327"><ele>106.99999999999999</ele><time>2026-04-03T13:42:01.999Z</time></trkpt><trkpt lat="44.3323191546865" lon="9.277491431451509"><ele>107.0</ele><time>2026-04-03T13:42:02.999Z</time></trkpt><trkpt lat="44.33237689543434" lon="9.277430726794481"><ele>107.0</ele><time>2026-04-03T13:42:03.999Z</time></trkpt><trkpt lat="44.33244078989475" lon="9.277373738753042"><ele>107.0</ele><time>2026-04-03T13:42:04.999Z</time></trkpt><trkpt lat="44.332504155103116" lon="9.277309415231628"><ele>106.99999999999999</ele><time>2026-04-03T13:42:05.999Z</time></trkpt><trkpt lat="44.33257253399058" lon="9.277230736832212"><ele>107.0</ele><time>2026-04-03T13:42:06.999Z</time></trkpt><trkpt lat="44.332643391194594" lon="9.277163881726208"><ele>100.8</ele><time>2026-04-03T13:42:07.999Z</time></trkpt><trkpt lat="44.33271521901679" lon="9.277091081508866"><ele>94.6</ele><time>2026-04-03T13:42:08.999Z</time></trkpt><trkpt lat="44.332792068028624" lon="9.27701847022932"><ele>88.39999999999999</ele><time>2026-04-03T13:42:09.999Z</time></trkpt><trkpt lat="44.33287613125488" lon="9.276947986727288"><ele>82.19999999999999</ele><time>2026-04-03T13:42:10.999Z</time></trkpt><trkpt lat="44.332972597973296" lon="9.27691045405173"><ele>76.0</ele><time>2026-04-03T13:42:12Z</time></trkpt><trkpt lat="44.333078572196634" lon="9.27692601958125"><ele>76.0</ele><time>2026-04-03T13:42:13Z</time></trkpt><trkpt lat="44.33317910048991" lon="9.276996550937858"><ele>76.0</ele><time>2026-04-03T13:42:14Z</time></trkpt><trkpt lat="44.33326384925206" lon="9.277099839555245"><ele>76.0</ele><time>2026-04-03T13:42:15Z</time></trkpt><trkpt lat="44.333355483559224" lon="9.27718232416373"><ele>76.0</ele><time>2026-04-03T13:42:16Z</time></trkpt><trkpt lat="44.33345573483119" lon="9.277213410920186"><ele>76.0</ele><time>2026-04-03T13:42:17Z</time></trkpt><trkpt lat="44.33355129188382" lon="9.277181711687941"><ele>76.0</ele><time>2026-04-03T13:42:18Z</time></trkpt><trkpt lat="44.333637524394796" lon="9.2770910509401"><ele>76.0</ele><time>2026-04-03T13:42:19Z</time></trkpt><trkpt lat="44.33369969363797" lon="9.27696242220246"><ele>76.0</ele><time>2026-04-03T13:42:20Z</time></trkpt><trkpt lat="44.3337354109112" lon="9.276809292575061"><ele>76.0</ele><time>2026-04-03T13:42:21Z</time></trkpt><trkpt lat="44.333754237976805" lon="9.27663425541008"><ele>76.0</ele><time>2026-04-03T13:42:22Z</time></trkpt><trkpt lat="44.333758376515746" lon="9.276450199726751"><ele>76.0</ele><time>2026-04-03T13:42:23Z</time></trkpt><trkpt lat="44.333786234642375" lon="9.276256943915893"><ele>76.0</ele><time>2026-04-03T13:42:24Z</time></trkpt><trkpt lat="44.33380543314286" lon="9.276050481470907"><ele>76.0</ele><time>2026-04-03T13:42:25Z</time></trkpt><trkpt lat="44.333824761981205" lon="9.275848495103846"><ele>72.75</ele><time>2026-04-03T13:42:26Z</time></trkpt><trkpt lat="44.33384366690206" lon="9.275654983833997"><ele>69.5</ele><time>2026-04-03T13:42:27Z</time></trkpt><trkpt lat="44.33384587962153" lon="9.275472785059586"><ele>66.25</ele><time>2026-04-03T13:42:28Z</time></trkpt><trkpt lat="44.333864957147405" lon="9.275303174389132"><ele>63.0</ele><time>2026-04-03T13:42:29Z</time></trkpt><trkpt lat="44.33387797327966" lon="9.275133517118245"><ele>60.0</ele><time>2026-04-03T13:42:30Z</time></trkpt><trkpt lat="44.33388401047014" lon="9.274961860580582"><ele>57.0</ele><time>2026-04-03T13:42:31Z</time></trkpt><trkpt lat="44.333887501694385" lon="9.274789970648802"><ele>54.0</ele><time>2026-04-03T13:42:32Z</time></trkpt><trkpt lat="44.3338902691929" lon="9.274625704561913"><ele>51.0</ele><time>2026-04-03T13:42:33Z</time></trkpt><trkpt lat="44.333891591341846" lon="9.274472059098239"><ele>55.599999999999994</ele><time>2026-04-03T13:42:34Z</time></trkpt><trkpt lat="44.333908355907255" lon="9.274325885483224"><ele>60.2</ele><time>2026-04-03T13:42:35Z</time></trkpt><trkpt lat="44.33394893784817" lon="9.274187451348872"><ele>64.80000000000001</ele><time>2026-04-03T13:42:36Z</time></trkpt><trkpt lat="44.33399983433021" lon="9.274048598736773"><ele>69.4</ele><time>2026-04-03T13:42:37Z</time></trkpt><trkpt lat="44.33405774866578" lon="9.273911146728691"><ele>74.0</ele><time>2026-04-03T13:42:38Z</time></trkpt><trkpt lat="44.33411289112429" lon="9.273766701705524"><ele>74.0</ele><time>2026-04-03T13:42:39Z</time></trkpt><trkpt lat="44.334156334290334" lon="9.273615329447223"><ele>74.0</ele><time>2026-04-03T13:42:40Z</time></trkpt><trkpt lat="44.334192645554445" lon="9.273459522190636"><ele>74.0</ele><time>2026-04-03T13:42:41Z</time></trkpt><trkpt lat="44.33422569798673" lon="9.27330471574842"><ele>74.0</ele><time>2026-04-03T13:42:42Z</time></trkpt><trkpt lat="44.334259378521075" lon="9.273146282868417"><ele>69.0</ele><time>2026-04-03T13:42:43Z</time></trkpt><trkpt lat="44.334299761141004" lon="9.272985697489865"><ele>64.0</ele><time>2026-04-03T13:42:44Z</time></trkpt><trkpt lat="44.33434427983432" lon="9.272826928201082"><ele>59.0</ele><time>2026-04-03T13:42:45Z</time></trkpt><trkpt lat="44.334384513669924" lon="9.272670682494939"><ele>54.0</ele><time>2026-04-03T13:42:46Z</time></trkpt><trkpt lat="44.334421701865764" lon="9.272520355377916"><ele>54.0</ele><time>2026-04-03T13:42:47Z</time></trkpt><trkpt lat="44.3344682276039" lon="9.27237435749852"><ele>54.0</ele><time>2026-04-03T13:42:48Z</time></trkpt><trkpt lat="44.33453787003804" lon="9.272240380549215"><ele>54.0</ele><time>2026-04-03T13:42:49Z</time></trkpt><trkpt lat="44.33462575250723" lon="9.272119845369154"><ele>54.0</ele><time>2026-04-03T13:42:50Z</time></trkpt><trkpt lat="44.33472091332112" lon="9.272003202492833"><ele>57.25</ele><time>2026-04-03T13:42:51Z</time></trkpt><trkpt lat="44.334808777506474" lon="9.271874292488526"><ele>60.5</ele><time>2026-04-03T13:42:52Z</time></trkpt><trkpt lat="44.334884717935175" lon="9.271740346155491"><ele>63.75</ele><time>2026-04-03T13:42:53Z</time></trkpt><trkpt lat="44.33494875922915" lon="9.271600580618427"><ele>67.0</ele><time>2026-04-03T13:42:53.999Z</time></trkpt><trkpt lat="44.33500409859607" lon="9.271460573239573"><ele>61.5</ele><time>2026-04-03T13:42:54.999Z</time></trkpt><trkpt lat="44.33505977195358" lon="9.271322982459138"><ele>56.0</ele><time>2026-04-03T13:42:55.999Z</time></trkpt><trkpt lat="44.33512154524941" lon="9.271186460028536"><ele>50.5</ele><time>2026-04-03T13:42:56.999Z</time></trkpt><trkpt lat="44.33519545009412" lon="9.271058251235653"><ele>45.0</ele><time>2026-04-03T13:42:57.999Z</time></trkpt><trkpt lat="44.335284189251574" lon="9.270944953120164"><ele>45.0</ele><time>2026-04-03T13:42:58.999Z</time></trkpt><trkpt lat="44.33538779205519" lon="9.2708538140718"><ele>45.0</ele><time>2026-04-03T13:42:59.999Z</time></trkpt><trkpt lat="44.33549562489721" lon="9.270785162648705"><ele>45.0</ele><time>2026-04-03T13:43:00.999Z</time></trkpt><trkpt lat="44.33559103382879" lon="9.270730557656128"><ele>45.0</ele><time>2026-04-03T13:43:01.999Z</time></trkpt><trkpt lat="44.335683406559866" lon="9.270682507171808"><ele>45.0</ele><time>2026-04-03T13:43:02.999Z</time></trkpt><trkpt lat="44.33577413538008" lon="9.270639228790982"><ele>48.333333333333336</ele><time>2026-04-03T13:43:03.999Z</time></trkpt><trkpt lat="44.33586487253776" lon="9.270623562320745"><ele>51.66666666666667</ele><time>2026-04-03T13:43:04.999Z</time></trkpt><trkpt lat="44.33595220654434" lon="9.270632097980457"><ele>55.0</ele><time>2026-04-03T13:43:05.999Z</time></trkpt><trkpt lat="44.33603800232606" lon="9.270653656425715"><ele>58.333333333333336</ele><time>2026-04-03T13:43:06.999Z</time></trkpt><trkpt lat="44.336122022693985" lon="9.270684160774364"><ele>61.66666666666667</ele><time>2026-04-03T13:43:07.999Z</time></trkpt><trkpt lat="44.33621098250071" lon="9.270714009743608"><ele>65.0</ele><time>2026-04-03T13:43:08.999Z</time></trkpt><trkpt lat="44.336304887421555" lon="9.270727802620183"><ele>64.2</ele><time>2026-04-03T13:43:09.999Z</time></trkpt><trkpt lat="44.33640069502835" lon="9.270708720645407"><ele>63.4</ele><time>2026-04-03T13:43:10.999Z</time></trkpt><trkpt lat="44.33648569470112" lon="9.270653668683993"><ele>62.599999999999994</ele><time>2026-04-03T13:43:11.999Z</time></trkpt><trkpt lat="44.33653605659401" lon="9.270542677857518"><ele>61.8</ele><time>2026-04-03T13:43:12.999Z</time></trkpt><trkpt lat="44.3365344389494" lon="9.270376192759466"><ele>61.0</ele><time>2026-04-03T13:43:13.999Z</time></trkpt><trkpt lat="44.33653895568068" lon="9.270212398282252"><ele>61.0</ele><time>2026-04-03T13:43:14.999Z</time></trkpt><trkpt lat="44.336535494583366" lon="9.270055715713173"><ele>60.99999999999999</ele><time>2026-04-03T13:43:15.999Z</time></trkpt><trkpt lat="44.336526083344374" lon="9.269919693760738"><ele>60.99999999999999</ele><time>2026-04-03T13:43:16.999Z</time></trkpt><trkpt lat="44.33653176301794" lon="9.269780817898445"><ele>61.0</ele><time>2026-04-03T13:43:17.999Z</time></trkpt><trkpt lat="44.33652847878132" lon="9.269648379976378"><ele>61.0</ele><time>2026-04-03T13:43:18.999Z</time></trkpt><trkpt lat="44.33650832234158" lon="9.269508287645133"><ele>59.199999999999996</ele><time>2026-04-03T13:43:19.999Z</time></trkpt><trkpt lat="44.336469276470346" lon="9.26937507757837"><ele>57.39999999999999</ele><time>2026-04-03T13:43:20.999Z</time></trkpt><trkpt lat="44.33641091125078" lon="9.2692539716866"><ele>55.6</ele><time>2026-04-03T13:43:21.999Z</time></trkpt><trkpt lat="44.33634188011694" lon="9.269147442237736"><ele>53.8</ele><time>2026-04-03T13:43:22.999Z</time></trkpt><trkpt lat="44.33628042601771" lon="9.269042529886182"><ele>52.0</ele><time>2026-04-03T13:43:23.999Z</time></trkpt><trkpt lat="44.33622142015787" lon="9.268939549759555"><ele>47.800000000000004</ele><time>2026-04-03T13:43:24.999Z</time></trkpt><trkpt lat="44.33616729463441" lon="9.268851203491897"><ele>43.6</ele><time>2026-04-03T13:43:25.999Z</time></trkpt><trkpt lat="44.336119831194935" lon="9.26871373143048"><ele>39.400000000000006</ele><time>2026-04-03T13:43:27.999Z</time></trkpt><trkpt lat="44.33618677647829" lon="9.268560908449821"><ele>35.2</ele><time>2026-04-03T13:43:29.999Z</time></trkpt><trkpt lat="44.33623886471605" lon="9.268489208074527"><ele>31.0</ele><time>2026-04-03T13:43:30.999Z</time></trkpt><trkpt lat="44.3362990865794" lon="9.268415366512679"><ele>31.000000000000004</ele><time>2026-04-03T13:43:31.999Z</time></trkpt><trkpt lat="44.33636944532318" lon="9.268341611175607"><ele>31.0</ele><time>2026-04-03T13:43:32.999Z</time></trkpt><trkpt lat="44.33643936613325" lon="9.268282311299954"><ele>31.0</ele><time>2026-04-03T13:43:33.999Z</time></trkpt><trkpt lat="44.33651926093785" lon="9.268256044670524"><ele>31.0</ele><time>2026-04-03T13:43:34.999Z</time></trkpt><trkpt lat="44.33660106203378" lon="9.268292495850346"><ele>31.000000000000004</ele><time>2026-04-03T13:43:35.999Z</time></trkpt><trkpt lat="44.33668673015075" lon="9.268363164392639"><ele>31.0</ele><time>2026-04-03T13:43:36.999Z</time></trkpt><trkpt lat="44.336768089156145" lon="9.268426482930657"><ele>32.0</ele><time>2026-04-03T13:43:37.999Z</time></trkpt><trkpt lat="44.33686072294007" lon="9.268484598783035"><ele>33.0</ele><time>2026-04-03T13:43:38.999Z</time></trkpt><trkpt lat="44.33695089135282" lon="9.26853136771285"><ele>34.0</ele><time>2026-04-03T13:43:39.999Z</time></trkpt><trkpt lat="44.3370341647127" lon="9.268562249868765"><ele>35.0</ele><time>2026-04-03T13:43:40.999Z</time></trkpt><trkpt lat="44.33711278941363" lon="9.268592331449245"><ele>36.0</ele><time>2026-04-03T13:43:41.999Z</time></trkpt><trkpt lat="44.33718896534468" lon="9.268615684815938"><ele>37.0</ele><time>2026-04-03T13:43:42.999Z</time></trkpt><trkpt lat="44.33726123405297" lon="9.268640490485074"><ele>35.285714285714285</ele><time>2026-04-03T13:43:43.999Z</time></trkpt><trkpt lat="44.33732908786951" lon="9.26866900344953"><ele>33.57142857142857</ele><time>2026-04-03T13:43:44.999Z</time></trkpt><trkpt lat="44.33739001470848" lon="9.268703144482448"><ele>31.857142857142858</ele><time>2026-04-03T13:43:45.999Z</time></trkpt><trkpt lat="44.337449699824695" lon="9.268737584924475"><ele>30.142857142857146</ele><time>2026-04-03T13:43:46.999Z</time></trkpt><trkpt lat="44.33754754848004" lon="9.268789180706722"><ele>28.42857142857143</ele><time>2026-04-03T13:43:48.999Z</time></trkpt><trkpt lat="44.33760969843371" lon="9.268815309345598"><ele>26.714285714285715</ele><time>2026-04-03T13:43:50.999Z</time></trkpt><trkpt lat="44.33767384470611" lon="9.268867192143558"><ele>25.0</ele><time>2026-04-03T13:43:58.999Z</time></trkpt><trkpt lat="44.337752165074996" lon="9.268872369015655"><ele>25.0</ele><time>2026-04-03T13:44:34Z</time></trkpt><trkpt lat="44.33782537772728" lon="9.268876081672772"><ele>25.0</ele><time>2026-04-03T13:44:35Z</time></trkpt><trkpt lat="44.33792442223624" lon="9.268895089622873"><ele>25.0</ele><time>2026-04-03T13:44:36Z</time></trkpt><trkpt lat="44.3380282509672" lon="9.268916840726114"><ele>25.0</ele><time>2026-04-03T13:44:37Z</time></trkpt><trkpt lat="44.33813613714356" lon="9.268939611791296"><ele>25.0</ele><time>2026-04-03T13:44:38Z</time></trkpt><trkpt lat="44.33824956400195" lon="9.26896344286875"><ele>30.0</ele><time>2026-04-03T13:44:39Z</time></trkpt><trkpt lat="44.33836867683385" lon="9.268986187499596"><ele>35.0</ele><time>2026-04-03T13:44:40Z</time></trkpt><trkpt lat="44.33849005115704" lon="9.26900814194771"><ele>40.0</ele><time>2026-04-03T13:44:41Z</time></trkpt><trkpt lat="44.33860863619031" lon="9.269042641202246"><ele>45.0</ele><time>2026-04-03T13:44:42Z</time></trkpt><trkpt lat="44.338720774596474" lon="9.26910340064755"><ele>45.0</ele><time>2026-04-03T13:44:43Z</time></trkpt><trkpt lat="44.338823551923646" lon="9.269191940262077"><ele>45.0</ele><time>2026-04-03T13:44:44Z</time></trkpt><trkpt lat="44.33892521464788" lon="9.269287101151072"><ele>45.0</ele><time>2026-04-03T13:44:45Z</time></trkpt><trkpt lat="44.339025643837495" lon="9.269369739452117"><ele>45.0</ele><time>2026-04-03T13:44:46Z</time></trkpt><trkpt lat="44.33913532145079" lon="9.26942874410066"><ele>40.75</ele><time>2026-04-03T13:44:47Z</time></trkpt><trkpt lat="44.339248268795124" lon="9.269427802600697"><ele>36.5</ele><time>2026-04-03T13:44:48Z</time></trkpt><trkpt lat="44.33936914898059" lon="9.269376992806217"><ele>32.25</ele><time>2026-04-03T13:44:49Z</time></trkpt><trkpt lat="44.3394871540244" lon="9.269284410973789"><ele>28.0</ele><time>2026-04-03T13:44:50Z</time></trkpt><trkpt lat="44.339599560713076" lon="9.269196868674165"><ele>28.0</ele><time>2026-04-03T13:44:51Z</time></trkpt><trkpt lat="44.33969957435493" lon="9.269106419403245"><ele>28.0</ele><time>2026-04-03T13:44:52Z</time></trkpt><trkpt lat="44.339778719494696" lon="9.268987494283282"><ele>28.0</ele><time>2026-04-03T13:44:52.999Z</time></trkpt><trkpt lat="44.33983425686131" lon="9.26884797186718"><ele>28.0</ele><time>2026-04-03T13:44:53.999Z</time></trkpt><trkpt lat="44.339844748784984" lon="9.268663239161972"><ele>27.5</ele><time>2026-04-03T13:44:54.999Z</time></trkpt><trkpt lat="44.339825088409725" lon="9.268478974474105"><ele>27.0</ele><time>2026-04-03T13:44:55.999Z</time></trkpt><trkpt lat="44.33977385418514" lon="9.26830548922381"><ele>26.5</ele><time>2026-04-03T13:44:56.999Z</time></trkpt><trkpt lat="44.339691890290815" lon="9.268165578967238"><ele>26.0</ele><time>2026-04-03T13:44:57.999Z</time></trkpt><trkpt lat="44.33955748547624" lon="9.26809255672002"><ele>30.0</ele><time>2026-04-03T13:44:58.999Z</time></trkpt><trkpt lat="44.33945223943959" lon="9.267980675559256"><ele>34.0</ele><time>2026-04-03T13:44:59.999Z</time></trkpt><trkpt lat="44.33933337941689" lon="9.267908318543205"><ele>38.0</ele><time>2026-04-03T13:45:00.999Z</time></trkpt><trkpt lat="44.339220586265576" lon="9.267813339847944"><ele>42.0</ele><time>2026-04-03T13:45:01.999Z</time></trkpt><trkpt lat="44.339104937452205" lon="9.267718769360604"><ele>42.0</ele><time>2026-04-03T13:45:02.999Z</time></trkpt><trkpt lat="44.33899081600967" lon="9.26761965480702"><ele>42.0</ele><time>2026-04-03T13:45:03.999Z</time></trkpt><trkpt lat="44.33887069991534" lon="9.2675181910965"><ele>42.0</ele><time>2026-04-03T13:45:04.999Z</time></trkpt><trkpt lat="44.33874130293606" lon="9.267423533398524"><ele>42.0</ele><time>2026-04-03T13:45:05.999Z</time></trkpt><trkpt lat="44.338613714158335" lon="9.26732015372446"><ele>44.0</ele><time>2026-04-03T13:45:06.999Z</time></trkpt><trkpt lat="44.338511636710955" lon="9.267167636106002"><ele>46.0</ele><time>2026-04-03T13:45:07.999Z</time></trkpt><trkpt lat="44.33838697410121" lon="9.267060749463555"><ele>48.0</ele><time>2026-04-03T13:45:08.999Z</time></trkpt><trkpt lat="44.338262707786534" lon="9.266954216679997"><ele>50.0</ele><time>2026-04-03T13:45:09.999Z</time></trkpt><trkpt lat="44.33814139563756" lon="9.26685054422569"><ele>43.75</ele><time>2026-04-03T13:45:10.999Z</time></trkpt><trkpt lat="44.33802482746409" lon="9.266754083459917"><ele>37.5</ele><time>2026-04-03T13:45:11.999Z</time></trkpt><trkpt lat="44.3379167250208" lon="9.266662333382579"><ele>31.25</ele><time>2026-04-03T13:45:12.999Z</time></trkpt><trkpt lat="44.33782495771577" lon="9.266560883702226"><ele>25.0</ele><time>2026-04-03T13:45:13.999Z</time></trkpt><trkpt lat="44.33774312718084" lon="9.266454353496165"><ele>30.25</ele><time>2026-04-03T13:45:14.999Z</time></trkpt><trkpt lat="44.337703445693656" lon="9.266295325046292"><ele>35.5</ele><time>2026-04-03T13:45:15.999Z</time></trkpt><trkpt lat="44.33763476127933" lon="9.266157670863182"><ele>40.75</ele><time>2026-04-03T13:45:16.999Z</time></trkpt><trkpt lat="44.33757285059069" lon="9.266008521271724"><ele>46.0</ele><time>2026-04-03T13:45:17.999Z</time></trkpt><trkpt lat="44.33750754434971" lon="9.265860609100793"><ele>46.0</ele><time>2026-04-03T13:45:18.999Z</time></trkpt><trkpt lat="44.337442227870966" lon="9.265711695577355"><ele>46.0</ele><time>2026-04-03T13:45:19.999Z</time></trkpt><trkpt lat="44.33738337691048" lon="9.265564479654717"><ele>46.0</ele><time>2026-04-03T13:45:20.999Z</time></trkpt><trkpt lat="44.337341804526275" lon="9.265412756151095"><ele>46.0</ele><time>2026-04-03T13:45:21.999Z</time></trkpt><trkpt lat="44.33732736845501" lon="9.265256789122136"><ele>47.25</ele><time>2026-04-03T13:45:22.999Z</time></trkpt><trkpt lat="44.33735157510774" lon="9.265094650624054"><ele>48.5</ele><time>2026-04-03T13:45:23.999Z</time></trkpt><trkpt lat="44.33741162600147" lon="9.264947149841687"><ele>49.75</ele><time>2026-04-03T13:45:24.999Z</time></trkpt><trkpt lat="44.3375033257079" lon="9.264827231950337"><ele>51.0</ele><time>2026-04-03T13:45:25.999Z</time></trkpt><trkpt lat="44.33759596165226" lon="9.26473971178548"><ele>49.166666666666664</ele><time>2026-04-03T13:45:26.999Z</time></trkpt><trkpt lat="44.33766557173751" lon="9.264671681944293"><ele>47.333333333333336</ele><time>2026-04-03T13:45:27.999Z</time></trkpt><trkpt lat="44.33771863637725" lon="9.264609023821386"><ele>45.5</ele><time>2026-04-03T13:45:28.999Z</time></trkpt><trkpt lat="44.337791725522266" lon="9.264499420558524"><ele>43.66666666666667</ele><time>2026-04-03T13:45:30.999Z</time></trkpt><trkpt lat="44.337857122275814" lon="9.264410620450874"><ele>41.833333333333336</ele><time>2026-04-03T13:45:32.999Z</time></trkpt><trkpt lat="44.33790392459986" lon="9.264351323467542"><ele>40.0</ele><time>2026-04-03T13:45:34.999Z</time></trkpt><trkpt lat="44.33801739673485" lon="9.264249181515712"><ele>42.6</ele><time>2026-04-03T13:46:29Z</time></trkpt><trkpt lat="44.33808687336974" lon="9.26416563401558"><ele>45.2</ele><time>2026-04-03T13:46:30Z</time></trkpt><trkpt lat="44.33816252815647" lon="9.264070991452419"><ele>47.8</ele><time>2026-04-03T13:46:31Z</time></trkpt><trkpt lat="44.33824241004961" lon="9.263970011140469"><ele>50.4</ele><time>2026-04-03T13:46:32Z</time></trkpt><trkpt lat="44.338328011257786" lon="9.263863467563421"><ele>53.0</ele><time>2026-04-03T13:46:33Z</time></trkpt><trkpt lat="44.33841949834267" lon="9.263753496611992"><ele>53.0</ele><time>2026-04-03T13:46:34Z</time></trkpt><trkpt lat="44.33851360172539" lon="9.263640218558178"><ele>53.0</ele><time>2026-04-03T13:46:35Z</time></trkpt><trkpt lat="44.33861221237807" lon="9.263520243612982"><ele>53.0</ele><time>2026-04-03T13:46:36Z</time></trkpt><trkpt lat="44.33871030923243" lon="9.263401659665393"><ele>53.0</ele><time>2026-04-03T13:46:37Z</time></trkpt><trkpt lat="44.33881079684854" lon="9.263279828151799"><ele>54.75</ele><time>2026-04-03T13:46:38Z</time></trkpt><trkpt lat="44.33891442516015" lon="9.263155388982353"><ele>56.5</ele><time>2026-04-03T13:46:39Z</time></trkpt><trkpt lat="44.339020881876756" lon="9.263025150275448"><ele>58.25</ele><time>2026-04-03T13:46:40Z</time></trkpt><trkpt lat="44.3391271565739" lon="9.2628947560425"><ele>60.0</ele><time>2026-04-03T13:46:41Z</time></trkpt><trkpt lat="44.339232120037735" lon="9.262765523197272"><ele>60.0</ele><time>2026-04-03T13:46:42Z</time></trkpt><trkpt lat="44.33933877542883" lon="9.26263891828489"><ele>60.0</ele><time>2026-04-03T13:46:43Z</time></trkpt><trkpt lat="44.33944689874496" lon="9.262535324629965"><ele>60.0</ele><time>2026-04-03T13:46:44Z</time></trkpt><trkpt lat="44.33956419500749" lon="9.262460716178223"><ele>60.0</ele><time>2026-04-03T13:46:45Z</time></trkpt><trkpt lat="44.33969174061291" lon="9.262410837629261"><ele>64.25</ele><time>2026-04-03T13:46:46Z</time></trkpt><trkpt lat="44.33982209920108" lon="9.262367394657419"><ele>68.5</ele><time>2026-04-03T13:46:47Z</time></trkpt><trkpt lat="44.33995267004571" lon="9.262324706650348"><ele>72.75</ele><time>2026-04-03T13:46:48Z</time></trkpt><trkpt lat="44.34007880696947" lon="9.262279930657735"><ele>77.0</ele><time>2026-04-03T13:46:49Z</time></trkpt><trkpt lat="44.340200157932244" lon="9.262244317693211"><ele>77.0</ele><time>2026-04-03T13:46:50Z</time></trkpt><trkpt lat="44.34032114567974" lon="9.262196019657088"><ele>77.0</ele><time>2026-04-03T13:46:51Z</time></trkpt><trkpt lat="44.34042350144758" lon="9.262090335699124"><ele>77.0</ele><time>2026-04-03T13:46:52Z</time></trkpt><trkpt lat="44.34050006317873" lon="9.261930363060465"><ele>77.0</ele><time>2026-04-03T13:46:53Z</time></trkpt><trkpt lat="44.34055720243521" lon="9.261738530463118"><ele>85.0</ele><time>2026-04-03T13:46:54Z</time></trkpt><trkpt lat="44.34061656944735" lon="9.261523823747677"><ele>93.0</ele><time>2026-04-03T13:46:55Z</time></trkpt><trkpt lat="44.3406833552838" lon="9.26129075196616"><ele>101.0</ele><time>2026-04-03T13:46:56Z</time></trkpt><trkpt lat="44.3407566042563" lon="9.261051871174022"><ele>110.33333333333333</ele><time>2026-04-03T13:46:56.999Z</time></trkpt><trkpt lat="44.34083078521776" lon="9.260809054818536"><ele>119.66666666666666</ele><time>2026-04-03T13:46:57.999Z</time></trkpt><trkpt lat="44.34090327856194" lon="9.260568714370047"><ele>129.0</ele><time>2026-04-03T13:46:58.999Z</time></trkpt><trkpt lat="44.34097326182603" lon="9.260330261417964"><ele>138.0</ele><time>2026-04-03T13:46:59.999Z</time></trkpt><trkpt lat="44.34104347786837" lon="9.260094111688248"><ele>147.0</ele><time>2026-04-03T13:47:00.999Z</time></trkpt><trkpt lat="44.34111918394996" lon="9.259848809822588"><ele>156.0</ele><time>2026-04-03T13:47:02.075Z</time></trkpt><trkpt lat="44.341185641633025" lon="9.25963198482006"><ele>157.66666666666666</ele><time>2026-04-03T13:47:03.06Z</time></trkpt><trkpt lat="44.34124970510579" lon="9.259424538608696"><ele>159.33333333333331</ele><time>2026-04-03T13:47:04.059Z</time></trkpt><trkpt lat="44.34131074289344" lon="9.259227777715706"><ele>161.0</ele><time>2026-04-03T13:47:05.056Z</time></trkpt><trkpt lat="44.341369345015536" lon="9.25903742757744"><ele>88.0</ele><time>2026-04-03T13:47:06.046Z</time></trkpt><trkpt lat="44.34180806043451" lon="9.257440858647868"><ele>87.75</ele><time>2026-04-03T13:47:12.999Z</time></trkpt><trkpt lat="44.34184900195263" lon="9.25727539148945"><ele>87.5</ele><time>2026-04-03T13:47:13.999Z</time></trkpt><trkpt lat="44.34182976448049" lon="9.257037714675356"><ele>87.25</ele><time>2026-04-03T13:47:14.999Z</time></trkpt><trkpt lat="44.341748637221976" lon="9.256873895695248"><ele>87.0</ele><time>2026-04-03T13:47:15.999Z</time></trkpt><trkpt lat="44.34167142266096" lon="9.256747304636718"><ele>87.0</ele><time>2026-04-03T13:47:16.999Z</time></trkpt><trkpt lat="44.341600652243635" lon="9.256564779999458"><ele>87.0</ele><time>2026-04-03T13:47:17.999Z</time></trkpt><trkpt lat="44.34154268764938" lon="9.25632136610956"><ele>87.0</ele><time>2026-04-03T13:47:18.999Z</time></trkpt><trkpt lat="44.341510143975725" lon="9.256098679031059"><ele>87.66666666666667</ele><time>2026-04-03T13:47:19.999Z</time></trkpt><trkpt lat="44.341485506888944" lon="9.25587187013875"><ele>88.33333333333334</ele><time>2026-04-03T13:47:20.999Z</time></trkpt><trkpt lat="44.34147527095451" lon="9.25565306994782"><ele>89.0</ele><time>2026-04-03T13:47:21.999Z</time></trkpt><trkpt lat="44.341463775673944" lon="9.255448179212685"><ele>84.75</ele><time>2026-04-03T13:47:22.999Z</time></trkpt><trkpt lat="44.3414502459586" lon="9.255267874612166"><ele>80.5</ele><time>2026-04-03T13:47:23.999Z</time></trkpt><trkpt lat="44.34146033038209" lon="9.255120355028101"><ele>76.25</ele><time>2026-04-03T13:47:24.999Z</time></trkpt><trkpt lat="44.34151040393936" lon="9.254987321193536"><ele>72.0</ele><time>2026-04-03T13:47:25.999Z</time></trkpt><trkpt lat="44.341612642945584" lon="9.254915521312316"><ele>72.0</ele><time>2026-04-03T13:47:26.999Z</time></trkpt><trkpt lat="44.34173736799276" lon="9.254886844135141"><ele>72.0</ele><time>2026-04-03T13:47:27.999Z</time></trkpt><trkpt lat="44.34189214864387" lon="9.25489115793839"><ele>72.0</ele><time>2026-04-03T13:47:28.999Z</time></trkpt><trkpt lat="44.342043718254345" lon="9.254931683635121"><ele>72.0</ele><time>2026-04-03T13:47:29.999Z</time></trkpt><trkpt lat="44.34220652629496" lon="9.254999800571206"><ele>74.25</ele><time>2026-04-03T13:47:30.999Z</time></trkpt><trkpt lat="44.34236106564325" lon="9.25505946619465"><ele>76.5</ele><time>2026-04-03T13:47:31.999Z</time></trkpt><trkpt lat="44.342499777518164" lon="9.255106856127187"><ele>78.75</ele><time>2026-04-03T13:47:32.999Z</time></trkpt><trkpt lat="44.34262791931164" lon="9.255121699988443"><ele>81.0</ele><time>2026-04-03T13:47:33.999Z</time></trkpt><trkpt lat="44.342742210894" lon="9.255069603582697"><ele>81.0</ele><time>2026-04-03T13:47:34.999Z</time></trkpt><trkpt lat="44.34283304691982" lon="9.254949180171822"><ele>81.0</ele><time>2026-04-03T13:47:35.999Z</time></trkpt><trkpt lat="44.342889480296236" lon="9.254782124750944"><ele>81.0</ele><time>2026-04-03T13:47:36.999Z</time></trkpt><trkpt lat="44.34287177029824" lon="9.25460892984477"><ele>81.0</ele><time>2026-04-03T13:47:37.999Z</time></trkpt><trkpt lat="44.34284055709513" lon="9.254386453108786"><ele>82.0</ele><time>2026-04-03T13:47:38.999Z</time></trkpt><trkpt lat="44.34287933454098" lon="9.254190472650555"><ele>83.0</ele><time>2026-04-03T13:47:39.999Z</time></trkpt><trkpt lat="44.34290829725349" lon="9.25403290386509"><ele>84.0</ele><time>2026-04-03T13:47:40.999Z</time></trkpt><trkpt lat="44.34292251560567" lon="9.25390982704796"><ele>85.0</ele><time>2026-04-03T13:47:41.999Z</time></trkpt><trkpt lat="44.3428425820696" lon="9.253803132852084"><ele>85.0</ele><time>2026-04-03T13:47:42.999Z</time></trkpt><trkpt lat="44.34274036150752" lon="9.253715379990206"><ele>85.0</ele><time>2026-04-03T13:47:43.999Z</time></trkpt><trkpt lat="44.342592237349834" lon="9.25365478634343"><ele>85.0</ele><time>2026-04-03T13:47:44.999Z</time></trkpt><trkpt lat="44.342449898439476" lon="9.253582371524526"><ele>85.0</ele><time>2026-04-03T13:47:45.999Z</time></trkpt><trkpt lat="44.34231504432041" lon="9.253501149030672"><ele>83.0</ele><time>2026-04-03T13:47:46.999Z</time></trkpt><trkpt lat="44.3421991994533" lon="9.253399329974055"><ele>81.0</ele><time>2026-04-03T13:47:47.999Z</time></trkpt><trkpt lat="44.34210242143195" lon="9.25325642224365"><ele>79.0</ele><time>2026-04-03T13:47:48.999Z</time></trkpt><trkpt lat="44.3420232295102" lon="9.253077588248514"><ele>77.0</ele><time>2026-04-03T13:47:49.999Z</time></trkpt><trkpt lat="44.34196043367179" lon="9.252875217856225"><ele>77.0</ele><time>2026-04-03T13:47:50.999Z</time></trkpt><trkpt lat="44.34188153896536" lon="9.252691575754941"><ele>77.0</ele><time>2026-04-03T13:47:51.999Z</time></trkpt><trkpt lat="44.341748528109896" lon="9.252558606763923"><ele>77.0</ele><time>2026-04-03T13:47:52.999Z</time></trkpt><trkpt lat="44.34156831084044" lon="9.252467092661737"><ele>77.0</ele><time>2026-04-03T13:47:53.999Z</time></trkpt><trkpt lat="44.34139731742645" lon="9.252341442081388"><ele>77.0</ele><time>2026-04-03T13:47:54.999Z</time></trkpt><trkpt lat="44.341249038155155" lon="9.252240936588958"><ele>77.0</ele><time>2026-04-03T13:47:55.999Z</time></trkpt><trkpt lat="44.34112594091311" lon="9.252125980810671"><ele>75.66666666666667</ele><time>2026-04-03T13:47:56.999Z</time></trkpt><trkpt lat="44.34103794664514" lon="9.251956917122138"><ele>74.33333333333333</ele><time>2026-04-03T13:47:57.999Z</time></trkpt><trkpt lat="44.34091434253973" lon="9.251805695207482"><ele>73.0</ele><time>2026-04-03T13:47:58.999Z</time></trkpt><trkpt lat="44.34078404277801" lon="9.251686442360759"><ele>73.0</ele><time>2026-04-03T13:47:59.999Z</time></trkpt><trkpt lat="44.34065913231137" lon="9.251629974492953"><ele>73.0</ele><time>2026-04-03T13:48:00.999Z</time></trkpt><trkpt lat="44.340569731918364" lon="9.251547384356437"><ele>73.0</ele><time>2026-04-03T13:48:01.999Z</time></trkpt><trkpt lat="44.340489950488546" lon="9.251478856210973"><ele>73.0</ele><time>2026-04-03T13:48:02.999Z</time></trkpt><trkpt lat="44.34047012364371" lon="9.251335338341095"><ele>73.0</ele><time>2026-04-03T13:48:03.999Z</time></trkpt><trkpt lat="44.34042787244463" lon="9.251199541532886"><ele>72.8</ele><time>2026-04-03T13:48:04.999Z</time></trkpt><trkpt lat="44.34040305894767" lon="9.251064438506"><ele>72.6</ele><time>2026-04-03T13:48:05.999Z</time></trkpt><trkpt lat="44.34039307819618" lon="9.250940344637302"><ele>72.4</ele><time>2026-04-03T13:48:06.999Z</time></trkpt><trkpt lat="44.34042993168905" lon="9.250833538875895"><ele>72.2</ele><time>2026-04-03T13:48:07.999Z</time></trkpt><trkpt lat="44.34050620622497" lon="9.250765880387515"><ele>72.0</ele><time>2026-04-03T13:48:08.999Z</time></trkpt><trkpt lat="44.34061053564869" lon="9.250740232372161"><ele>72.0</ele><time>2026-04-03T13:48:09.999Z</time></trkpt><trkpt lat="44.34072410446732" lon="9.250715212695528"><ele>72.0</ele><time>2026-04-03T13:48:10.999Z</time></trkpt><trkpt lat="44.340834594817586" lon="9.25068011573557"><ele>72.0</ele><time>2026-04-03T13:48:11.999Z</time></trkpt><trkpt lat="44.340934500863625" lon="9.250634125533566"><ele>72.0</ele><time>2026-04-03T13:48:12.999Z</time></trkpt><trkpt lat="44.341035809593905" lon="9.250576962706283"><ele>72.0</ele><time>2026-04-03T13:48:13.999Z</time></trkpt><trkpt lat="44.34111969323283" lon="9.250471818216484"><ele>68.0</ele><time>2026-04-03T13:48:14.999Z</time></trkpt><trkpt lat="44.34115291699415" lon="9.250313628254528"><ele>64.0</ele><time>2026-04-03T13:48:15.999Z</time></trkpt><trkpt lat="44.341129215343386" lon="9.250129210183772"><ele>60.0</ele><time>2026-04-03T13:48:16.999Z</time></trkpt><trkpt lat="44.34106601606207" lon="9.24994461461892"><ele>56.0</ele><time>2026-04-03T13:48:17.999Z</time></trkpt><trkpt lat="44.3410096444236" lon="9.249747613981878"><ele>54.333333333333336</ele><time>2026-04-03T13:48:18.999Z</time></trkpt><trkpt lat="44.34100873216235" lon="9.24953527870673"><ele>52.66666666666667</ele><time>2026-04-03T13:48:19.999Z</time></trkpt><trkpt lat="44.3410119409125" lon="9.249317139539377"><ele>51.0</ele><time>2026-04-03T13:48:20.999Z</time></trkpt><trkpt lat="44.34101144105514" lon="9.249083935370642"><ele>45.333333333333336</ele><time>2026-04-03T13:48:21.999Z</time></trkpt><trkpt lat="44.341019241545425" lon="9.248851245161132"><ele>39.66666666666667</ele><time>2026-04-03T13:48:22.999Z</time></trkpt><trkpt lat="44.34102762999961" lon="9.248614814961678"><ele>34.0</ele><time>2026-04-03T13:48:23.999Z</time></trkpt><trkpt lat="44.341050125807094" lon="9.24839432543023"><ele>34.0</ele><time>2026-04-03T13:48:24.999Z</time></trkpt><trkpt lat="44.34111212621351" lon="9.248202877791716"><ele>34.0</ele><time>2026-04-03T13:48:25.999Z</time></trkpt><trkpt lat="44.34115288968622" lon="9.248015675355122"><ele>34.0</ele><time>2026-04-03T13:48:26.999Z</time></trkpt><trkpt lat="44.34120681589285" lon="9.247859287884305"><ele>34.0</ele><time>2026-04-03T13:48:27.999Z</time></trkpt><trkpt lat="44.34124574215239" lon="9.247719450365732"><ele>35.4</ele><time>2026-04-03T13:48:28.999Z</time></trkpt><trkpt lat="44.34128222112196" lon="9.247585981193055"><ele>36.8</ele><time>2026-04-03T13:48:30Z</time></trkpt><trkpt lat="44.34132887733161" lon="9.247476454144918"><ele>38.199999999999996</ele><time>2026-04-03T13:48:31Z</time></trkpt><trkpt lat="44.34139321297251" lon="9.247426253513533"><ele>39.599999999999994</ele><time>2026-04-03T13:48:32Z</time></trkpt><trkpt lat="44.34147691330363" lon="9.247445770239176"><ele>41.0</ele><time>2026-04-03T13:48:33Z</time></trkpt><trkpt lat="44.34155051678874" lon="9.247544115073548"><ele>41.0</ele><time>2026-04-03T13:48:34Z</time></trkpt><trkpt lat="44.341603962373604" lon="9.247694851395474"><ele>41.0</ele><time>2026-04-03T13:48:35Z</time></trkpt><trkpt lat="44.34166918753255" lon="9.247826074814041"><ele>41.0</ele><time>2026-04-03T13:48:36Z</time></trkpt><trkpt lat="44.341788119854904" lon="9.247950813698198"><ele>41.0</ele><time>2026-04-03T13:48:37Z</time></trkpt><trkpt lat="44.34192901248583" lon="9.24803604617295"><ele>41.0</ele><time>2026-04-03T13:48:38Z</time></trkpt><trkpt lat="44.34205072129171" lon="9.248026693638336"><ele>41.0</ele><time>2026-04-03T13:48:39Z</time></trkpt><trkpt lat="44.34216155522081" lon="9.248042098783667"><ele>41.0</ele><time>2026-04-03T13:48:40Z</time></trkpt><trkpt lat="44.34225887291319" lon="9.248086723251676"><ele>41.0</ele><time>2026-04-03T13:48:41Z</time></trkpt><trkpt lat="44.34235501626209" lon="9.248118296055988"><ele>41.0</ele><time>2026-04-03T13:48:42Z</time></trkpt><trkpt lat="44.34246048617642" lon="9.248170205720957"><ele>43.75</ele><time>2026-04-03T13:48:43Z</time></trkpt><trkpt lat="44.34256235150344" lon="9.248266421189664"><ele>46.5</ele><time>2026-04-03T13:48:44Z</time></trkpt><trkpt lat="44.34264692551446" lon="9.248394186964896"><ele>49.25</ele><time>2026-04-03T13:48:45Z</time></trkpt><trkpt lat="44.34272490502561" lon="9.248502035680403"><ele>52.0</ele><time>2026-04-03T13:48:46Z</time></trkpt><trkpt lat="44.342817706589045" lon="9.248550798543558"><ele>52.0</ele><time>2026-04-03T13:48:47Z</time></trkpt><trkpt lat="44.342925096444425" lon="9.248523719604744"><ele>52.0</ele><time>2026-04-03T13:48:48Z</time></trkpt><trkpt lat="44.34302932070365" lon="9.248419813510486"><ele>52.0</ele><time>2026-04-03T13:48:49Z</time></trkpt><trkpt lat="44.34313377858741" lon="9.248230172136305"><ele>52.0</ele><time>2026-04-03T13:48:50Z</time></trkpt><trkpt lat="44.343212708997534" lon="9.248095695331813"><ele>51.0</ele><time>2026-04-03T13:48:51Z</time></trkpt><trkpt lat="44.34326808406715" lon="9.247947695031952"><ele>50.0</ele><time>2026-04-03T13:48:52Z</time></trkpt><trkpt lat="44.343265431392304" lon="9.247785805757038"><ele>49.0</ele><time>2026-04-03T13:48:53Z</time></trkpt><trkpt lat="44.34323138684063" lon="9.247600386622135"><ele>48.0</ele><time>2026-04-03T13:48:54Z</time></trkpt><trkpt lat="44.343107975704434" lon="9.247462939352864"><ele>43.0</ele><time>2026-04-03T13:48:55Z</time></trkpt><trkpt lat="44.342964761159216" lon="9.247312430691805"><ele>38.0</ele><time>2026-04-03T13:48:56Z</time></trkpt><trkpt lat="44.34282622661377" lon="9.247139281497228"><ele>33.0</ele><time>2026-04-03T13:48:56.999Z</time></trkpt><trkpt lat="44.3427167556964" lon="9.246950916961609"><ele>32.333333333333336</ele><time>2026-04-03T13:48:57.999Z</time></trkpt><trkpt lat="44.34261612122164" lon="9.246744506388161"><ele>31.666666666666668</ele><time>2026-04-03T13:48:58.999Z</time></trkpt><trkpt lat="44.342506736104546" lon="9.246543568158954"><ele>31.0</ele><time>2026-04-03T13:48:59.999Z</time></trkpt><trkpt lat="44.342425797547726" lon="9.246329614376707"><ele>33.333333333333336</ele><time>2026-04-03T13:49:00.999Z</time></trkpt><trkpt lat="44.34238725604404" lon="9.24609893228329"><ele>35.666666666666664</ele><time>2026-04-03T13:49:01.999Z</time></trkpt><trkpt lat="44.34235823149397" lon="9.245874143733243"><ele>38.0</ele><time>2026-04-03T13:49:02.999Z</time></trkpt><trkpt lat="44.342322146175704" lon="9.24566553618599"><ele>36.5</ele><time>2026-04-03T13:49:03.999Z</time></trkpt><trkpt lat="44.342305070679004" lon="9.24547371402715"><ele>35.0</ele><time>2026-04-03T13:49:04.999Z</time></trkpt><trkpt lat="44.34228998028015" lon="9.245300620492447"><ele>33.5</ele><time>2026-04-03T13:49:05.999Z</time></trkpt><trkpt lat="44.3423102206573" lon="9.245140906357172"><ele>32.0</ele><time>2026-04-03T13:49:06.999Z</time></trkpt><trkpt lat="44.342326970070886" lon="9.244988318011291"><ele>32.0</ele><time>2026-04-03T13:49:07.999Z</time></trkpt><trkpt lat="44.34239396002266" lon="9.244861532792795"><ele>32.0</ele><time>2026-04-03T13:49:08.999Z</time></trkpt><trkpt lat="44.34248387013642" lon="9.244767688724083"><ele>32.0</ele><time>2026-04-03T13:49:09.999Z</time></trkpt><trkpt lat="44.342599655263" lon="9.244706535135398"><ele>32.0</ele><time>2026-04-03T13:49:10.999Z</time></trkpt><trkpt lat="44.34273516990574" lon="9.244663434344975"><ele>32.25</ele><time>2026-04-03T13:49:11.999Z</time></trkpt><trkpt lat="44.34287176124297" lon="9.244609990912913"><ele>32.5</ele><time>2026-04-03T13:49:12.999Z</time></trkpt><trkpt lat="44.34299984835756" lon="9.244546293497875"><ele>32.75</ele><time>2026-04-03T13:49:13.999Z</time></trkpt><trkpt lat="44.343119547600864" lon="9.244490324106158"><ele>33.0</ele><time>2026-04-03T13:49:14.999Z</time></trkpt><trkpt lat="44.343232575526415" lon="9.244438877273666"><ele>33.0</ele><time>2026-04-03T13:49:15.999Z</time></trkpt><trkpt lat="44.34333341416179" lon="9.244369867298008"><ele>33.0</ele><time>2026-04-03T13:49:16.999Z</time></trkpt><trkpt lat="44.34340117117372" lon="9.244257855520512"><ele>33.0</ele><time>2026-04-03T13:49:17.999Z</time></trkpt><trkpt lat="44.3434212088804" lon="9.244112715807308"><ele>33.0</ele><time>2026-04-03T13:49:18.999Z</time></trkpt><trkpt lat="44.343395847381856" lon="9.243947842106955"><ele>33.0</ele><time>2026-04-03T13:49:19.999Z</time></trkpt><trkpt lat="44.3433350516217" lon="9.24378103656385"><ele>31.25</ele><time>2026-04-03T13:49:20.999Z</time></trkpt><trkpt lat="44.34327566164146" lon="9.24361381373092"><ele>29.5</ele><time>2026-04-03T13:49:21.999Z</time></trkpt><trkpt lat="44.34322979828664" lon="9.243453946835908"><ele>27.75</ele><time>2026-04-03T13:49:22.999Z</time></trkpt><trkpt lat="44.343205624411574" lon="9.24329496357681"><ele>26.0</ele><time>2026-04-03T13:49:23.999Z</time></trkpt><trkpt lat="44.343224041033935" lon="9.243143722972274"><ele>23.75</ele><time>2026-04-03T13:49:24.999Z</time></trkpt><trkpt lat="44.3432754172246" lon="9.242993284184884"><ele>21.5</ele><time>2026-04-03T13:49:25.999Z</time></trkpt><trkpt lat="44.343340414980695" lon="9.24284675839683"><ele>19.25</ele><time>2026-04-03T13:49:26.999Z</time></trkpt><trkpt lat="44.34341871513425" lon="9.242722439725883"><ele>17.0</ele><time>2026-04-03T13:49:27.999Z</time></trkpt><trkpt lat="44.343519537620814" lon="9.242624197489102"><ele>17.0</ele><time>2026-04-03T13:49:28.999Z</time></trkpt><trkpt lat="44.34362928880719" lon="9.242532511084143"><ele>17.0</ele><time>2026-04-03T13:49:29.999Z</time></trkpt><trkpt lat="44.34373337726162" lon="9.242436802713058"><ele>17.0</ele><time>2026-04-03T13:49:30.999Z</time></trkpt><trkpt lat="44.343830771104464" lon="9.242328768659844"><ele>17.0</ele><time>2026-04-03T13:49:31.999Z</time></trkpt><trkpt lat="44.34390470078212" lon="9.242186657850551"><ele>18.25</ele><time>2026-04-03T13:49:32.999Z</time></trkpt><trkpt lat="44.34395080332959" lon="9.24200724490426"><ele>19.5</ele><time>2026-04-03T13:49:33.999Z</time></trkpt><trkpt lat="44.343954673590765" lon="9.241810705873363"><ele>20.75</ele><time>2026-04-03T13:49:34.999Z</time></trkpt><trkpt lat="44.34395888912355" lon="9.241612445487231"><ele>22.0</ele><time>2026-04-03T13:49:35.999Z</time></trkpt><trkpt lat="44.344005553722326" lon="9.241441226744065"><ele>19.0</ele><time>2026-04-03T13:49:36.999Z</time></trkpt><trkpt lat="44.34408737484523" lon="9.241295822996332"><ele>16.0</ele><time>2026-04-03T13:49:37.999Z</time></trkpt><trkpt lat="44.34419270817723" lon="9.241166179842322"><ele>13.0</ele><time>2026-04-03T13:49:38.999Z</time></trkpt><trkpt lat="44.3442963691922" lon="9.241055764248106"><ele>10.0</ele><time>2026-04-03T13:49:39.999Z</time></trkpt><trkpt lat="44.34439335547648" lon="9.240953831228385"><ele>10.0</ele><time>2026-04-03T13:49:40.999Z</time></trkpt><trkpt lat="44.344493098149805" lon="9.24088447540466"><ele>10.0</ele><time>2026-04-03T13:49:41.999Z</time></trkpt><trkpt lat="44.34459179759044" lon="9.240879949508937"><ele>10.0</ele><time>2026-04-03T13:49:42.999Z</time></trkpt><trkpt lat="44.34468100204363" lon="9.240945854514667"><ele>10.0</ele><time>2026-04-03T13:49:43.999Z</time></trkpt><trkpt lat="44.34477032058118" lon="9.241055130470524"><ele>10.0</ele><time>2026-04-03T13:49:44.999Z</time></trkpt><trkpt lat="44.34485439973387" lon="9.241173958284245"><ele>10.75</ele><time>2026-04-03T13:49:45.999Z</time></trkpt><trkpt lat="44.34494635956015" lon="9.241275951205159"><ele>11.5</ele><time>2026-04-03T13:49:46.999Z</time></trkpt><trkpt lat="44.3450450071766" lon="9.241322955885865"><ele>12.25</ele><time>2026-04-03T13:49:47.999Z</time></trkpt><trkpt lat="44.34515525657737" lon="9.241314364935961"><ele>13.0</ele><time>2026-04-03T13:49:48.999Z</time></trkpt><trkpt lat="44.34526789045871" lon="9.241250649048599"><ele>13.0</ele><time>2026-04-03T13:49:49.999Z</time></trkpt><trkpt lat="44.34537795666408" lon="9.241167301884227"><ele>13.0</ele><time>2026-04-03T13:49:50.999Z</time></trkpt><trkpt lat="44.345480448995495" lon="9.241086932068482"><ele>13.0</ele><time>2026-04-03T13:49:51.999Z</time></trkpt><trkpt lat="44.345588616999116" lon="9.241045029722626"><ele>13.0</ele><time>2026-04-03T13:49:52.999Z</time></trkpt><trkpt lat="44.34567757108717" lon="9.241071395717935"><ele>13.0</ele><time>2026-04-03T13:49:53.999Z</time></trkpt><trkpt lat="44.34573990207926" lon="9.241175768546189"><ele>13.8</ele><time>2026-04-03T13:49:54.999Z</time></trkpt><trkpt lat="44.345782224676505" lon="9.241327635672556"><ele>14.600000000000001</ele><time>2026-04-03T13:49:55.999Z</time></trkpt><trkpt lat="44.34582021289487" lon="9.241480116092882"><ele>15.399999999999999</ele><time>2026-04-03T13:49:56.999Z</time></trkpt><trkpt lat="44.34586905980398" lon="9.24161556173021"><ele>16.2</ele><time>2026-04-03T13:49:57.999Z</time></trkpt><trkpt lat="44.34592757015533" lon="9.241744077711648"><ele>17.0</ele><time>2026-04-03T13:49:58.999Z</time></trkpt><trkpt lat="44.34599711924177" lon="9.24185394633992"><ele>17.0</ele><time>2026-04-03T13:49:59.999Z</time></trkpt><trkpt lat="44.34610066655598" lon="9.241886714869203"><ele>17.0</ele><time>2026-04-03T13:50:00.999Z</time></trkpt><trkpt lat="44.34623359143333" lon="9.241876530209467"><ele>17.0</ele><time>2026-04-03T13:50:01.999Z</time></trkpt><trkpt lat="44.346349433716306" lon="9.24183414518945"><ele>17.0</ele><time>2026-04-03T13:50:02.999Z</time></trkpt><trkpt lat="44.34646845986932" lon="9.241775183370388"><ele>17.0</ele><time>2026-04-03T13:50:03.999Z</time></trkpt><trkpt lat="44.34659005636925" lon="9.241731757452975"><ele>17.0</ele><time>2026-04-03T13:50:04.999Z</time></trkpt><trkpt lat="44.34671070342851" lon="9.241695591967567"><ele>17.0</ele><time>2026-04-03T13:50:05.999Z</time></trkpt><trkpt lat="44.346826764960866" lon="9.24164823444651"><ele>17.0</ele><time>2026-04-03T13:50:06.999Z</time></trkpt><trkpt lat="44.3469356896736" lon="9.24156423215712"><ele>17.0</ele><time>2026-04-03T13:50:07.999Z</time></trkpt><trkpt lat="44.34702356802883" lon="9.241463896007746"><ele>17.0</ele><time>2026-04-03T13:50:08.999Z</time></trkpt><trkpt lat="44.34708707421891" lon="9.24137763852858"><ele>17.0</ele><time>2026-04-03T13:50:09.999Z</time></trkpt><trkpt lat="44.34713367839649" lon="9.24131776912744"><ele>17.0</ele><time>2026-04-03T13:50:10.999Z</time></trkpt><trkpt lat="44.34718766099035" lon="9.24126022227246"><ele>17.0</ele><time>2026-04-03T13:50:12.999Z</time></trkpt><trkpt lat="44.347289657099424" lon="9.241141938606358"><ele>17.333333333333336</ele><time>2026-04-03T13:50:18.999Z</time></trkpt><trkpt lat="44.34734815797266" lon="9.241066888938477"><ele>17.666666666666668</ele><time>2026-04-03T13:50:19.999Z</time></trkpt><trkpt lat="44.34740439458448" lon="9.240970282970355"><ele>18.0</ele><time>2026-04-03T13:50:20.999Z</time></trkpt><trkpt lat="44.347461649623476" lon="9.240858496591494"><ele>18.333333333333332</ele><time>2026-04-03T13:50:21.999Z</time></trkpt><trkpt lat="44.34750360424966" lon="9.240745824431084"><ele>18.666666666666664</ele><time>2026-04-03T13:50:22.999Z</time></trkpt><trkpt lat="44.34752783300465" lon="9.240628210824365"><ele>19.0</ele><time>2026-04-03T13:50:23.999Z</time></trkpt><trkpt lat="44.34752901899098" lon="9.240503997844558"><ele>19.0</ele><time>2026-04-03T13:50:24.999Z</time></trkpt><trkpt lat="44.347514765827285" lon="9.240367871886468"><ele>19.0</ele><time>2026-04-03T13:50:25.999Z</time></trkpt><trkpt lat="44.34749711206384" lon="9.240223253714058"><ele>19.0</ele><time>2026-04-03T13:50:26.999Z</time></trkpt><trkpt lat="44.347479725865156" lon="9.240070014290346"><ele>19.0</ele><time>2026-04-03T13:50:27.999Z</time></trkpt><trkpt lat="44.34746889076266" lon="9.239908760460363"><ele>19.0</ele><time>2026-04-03T13:50:28.999Z</time></trkpt><trkpt lat="44.34745384421274" lon="9.239744717438073"><ele>18.599999999999998</ele><time>2026-04-03T13:50:29.999Z</time></trkpt><trkpt lat="44.34743906771241" lon="9.2395797144185"><ele>18.2</ele><time>2026-04-03T13:50:30.999Z</time></trkpt><trkpt lat="44.34742642428192" lon="9.239420723753147"><ele>17.799999999999997</ele><time>2026-04-03T13:50:31.999Z</time></trkpt><trkpt lat="44.3474119427521" lon="9.239268679295034"><ele>17.4</ele><time>2026-04-03T13:50:32.998Z</time></trkpt><trkpt lat="44.347399336921455" lon="9.239124420289937"><ele>17.0</ele><time>2026-04-03T13:50:33.998Z</time></trkpt><trkpt lat="44.34738610112113" lon="9.238980156854277"><ele>16.0</ele><time>2026-04-03T13:50:34.998Z</time></trkpt><trkpt lat="44.34737570762922" lon="9.238830973026413"><ele>15.0</ele><time>2026-04-03T13:50:36Z</time></trkpt><trkpt lat="44.34737870796674" lon="9.23869149681973"><ele>14.0</ele><time>2026-04-03T13:50:37Z</time></trkpt><trkpt lat="44.347406514877235" lon="9.238548994200649"><ele>13.0</ele><time>2026-04-03T13:50:38Z</time></trkpt><trkpt lat="44.347451719198546" lon="9.238426794288799"><ele>12.0</ele><time>2026-04-03T13:50:39Z</time></trkpt><trkpt lat="44.347517810756095" lon="9.2383208445173"><ele>12.0</ele><time>2026-04-03T13:50:40Z</time></trkpt><trkpt lat="44.347597442672715" lon="9.238228740098327"><ele>12.0</ele><time>2026-04-03T13:50:41Z</time></trkpt><trkpt lat="44.347679719972454" lon="9.238141345409023"><ele>12.0</ele><time>2026-04-03T13:50:42Z</time></trkpt><trkpt lat="44.347762583821506" lon="9.238061090315982"><ele>12.0</ele><time>2026-04-03T13:50:43Z</time></trkpt><trkpt lat="44.34784235228825" lon="9.237971362880996"><ele>12.0</ele><time>2026-04-03T13:50:44Z</time></trkpt><trkpt lat="44.347914180917556" lon="9.237893078049954"><ele>12.0</ele><time>2026-04-03T13:50:45Z</time></trkpt><trkpt lat="44.34798224110124" lon="9.237821210622092"><ele>12.0</ele><time>2026-04-03T13:50:46Z</time></trkpt><trkpt lat="44.34804907928854" lon="9.23774649003673"><ele>12.0</ele><time>2026-04-03T13:50:47Z</time></trkpt><trkpt lat="44.3481078105265" lon="9.23767181608834"><ele>12.0</ele><time>2026-04-03T13:50:48Z</time></trkpt><trkpt lat="44.348155941568564" lon="9.237593725268336"><ele>12.0</ele><time>2026-04-03T13:50:49Z</time></trkpt><trkpt lat="44.34819316384788" lon="9.237506121900331"><ele>12.0</ele><time>2026-04-03T13:50:50Z</time></trkpt><trkpt lat="44.3482167683651" lon="9.237423856182444"><ele>13.333333333333334</ele><time>2026-04-03T13:50:51Z</time></trkpt><trkpt lat="44.34824423938236" lon="9.23724902611704"><ele>14.666666666666668</ele><time>2026-04-03T13:50:53Z</time></trkpt><trkpt lat="44.34824724179181" lon="9.237145933173634"><ele>16.0</ele><time>2026-04-03T13:50:54Z</time></trkpt><trkpt lat="44.34823442704405" lon="9.237038749689235"><ele>17.333333333333336</ele><time>2026-04-03T13:50:55Z</time></trkpt><trkpt lat="44.3482106901661" lon="9.236931402873315"><ele>18.666666666666668</ele><time>2026-04-03T13:50:55.999Z</time></trkpt><trkpt lat="44.34818377968793" lon="9.236823405582616"><ele>20.0</ele><time>2026-04-03T13:50:56.999Z</time></trkpt><trkpt lat="44.34815842553874" lon="9.236718733772452"><ele>20.0</ele><time>2026-04-03T13:50:57.999Z</time></trkpt><trkpt lat="44.348132634330824" lon="9.236617112666051"><ele>20.0</ele><time>2026-04-03T13:50:58.999Z</time></trkpt><trkpt lat="44.34810827832962" lon="9.23651928470505"><ele>20.0</ele><time>2026-04-03T13:50:59.999Z</time></trkpt><trkpt lat="44.3480843643078" lon="9.236426335324081"><ele>20.0</ele><time>2026-04-03T13:51:00.999Z</time></trkpt><trkpt lat="44.34806275928162" lon="9.236328686416956"><ele>20.0</ele><time>2026-04-03T13:51:01.999Z</time></trkpt><trkpt lat="44.348038117988594" lon="9.236226155275926"><ele>20.0</ele><time>2026-04-03T13:51:02.999Z</time></trkpt><trkpt lat="44.34801431121877" lon="9.23612614403202"><ele>20.0</ele><time>2026-04-03T13:51:03.999Z</time></trkpt><trkpt lat="44.34798943014554" lon="9.236027007337599"><ele>16.8</ele><time>2026-04-03T13:51:04.999Z</time></trkpt><trkpt lat="44.34796930286806" lon="9.23593443758394"><ele>13.6</ele><time>2026-04-03T13:51:05.999Z</time></trkpt><trkpt lat="44.347950014101194" lon="9.235776545474051"><ele>10.4</ele><time>2026-04-03T13:51:07.999Z</time></trkpt><trkpt lat="44.34795806207272" lon="9.235628753870738"><ele>7.2</ele><time>2026-04-03T13:51:09.999Z</time></trkpt><trkpt lat="44.347974254805244" lon="9.235478153215668"><ele>4.0</ele><time>2026-04-03T13:51:11.999Z</time></trkpt><trkpt lat="44.34800166657808" lon="9.235346187473516"><ele>3.8000000000000003</ele><time>2026-04-03T13:51:13.999Z</time></trkpt><trkpt lat="44.34803272234286" lon="9.235242282360682"><ele>3.6000000000000005</ele><time>2026-04-03T13:51:15.999Z</time></trkpt><trkpt lat="44.34807961666389" lon="9.235132721685536"><ele>3.4</ele><time>2026-04-03T13:51:17.999Z</time></trkpt><trkpt lat="44.3481342952505" lon="9.235020850859893"><ele>3.2</ele><time>2026-04-03T13:51:19.999Z</time></trkpt><trkpt lat="44.348199277283555" lon="9.234894849689411"><ele>3.0</ele><time>2026-04-03T13:51:21.999Z</time></trkpt><trkpt lat="44.3482699785317" lon="9.234753139841683"><ele>3.833333333333333</ele><time>2026-04-03T13:51:23.999Z</time></trkpt><trkpt lat="44.348306536881175" lon="9.234679491215829"><ele>4.666666666666666</ele><time>2026-04-03T13:51:24.999Z</time></trkpt><trkpt lat="44.34835529356957" lon="9.234541644019234"><ele>5.5</ele><time>2026-04-03T13:51:26.999Z</time></trkpt><trkpt lat="44.34840505196547" lon="9.234440906860367"><ele>6.333333333333333</ele><time>2026-04-03T13:51:28.999Z</time></trkpt><trkpt lat="44.3484618402147" lon="9.234341524927462"><ele>7.166666666666666</ele><time>2026-04-03T13:51:30.999Z</time></trkpt><trkpt lat="44.34853084072347" lon="9.234259959272157"><ele>8.0</ele><time>2026-04-03T13:51:32.999Z</time></trkpt><trkpt lat="44.348583313279384" lon="9.234206896366416"><ele>7.999999999999999</ele><time>2026-04-03T13:51:35.999Z</time></trkpt><trkpt lat="44.34864560492937" lon="9.234161829764009"><ele>8.0</ele><time>2026-04-03T13:51:37.999Z</time></trkpt><trkpt lat="44.348698078013264" lon="9.234076116425433"><ele>8.0</ele><time>2026-04-03T13:51:39.999Z</time></trkpt><trkpt lat="44.34868459362036" lon="9.23394376086381"><ele>8.0</ele><time>2026-04-03T13:51:41.999Z</time></trkpt><trkpt lat="44.34860448446389" lon="9.233877483348207"><ele>7.999999999999999</ele><time>2026-04-03T13:51:43.999Z</time></trkpt><trkpt lat="44.34854189274101" lon="9.233856073821524"><ele>8.0</ele><time>2026-04-03T13:51:45.999Z</time></trkpt><trkpt lat="44.3484664750988" lon="9.233680348643011"><ele>7.2</ele><time>2026-04-03T13:51:58.999Z</time></trkpt><trkpt lat="44.348430000340635" lon="9.23356788850063"><ele>6.4</ele><time>2026-04-03T13:52:00.999Z</time></trkpt><trkpt lat="44.348441884255664" lon="9.233428706312504"><ele>5.6000000000000005</ele><time>2026-04-03T13:52:02.999Z</time></trkpt><trkpt lat="44.348460927878584" lon="9.233295017395974"><ele>4.800000000000001</ele><time>2026-04-03T13:52:04.999Z</time></trkpt><trkpt lat="44.34847914517729" lon="9.233175716447285"><ele>4.0</ele><time>2026-04-03T13:52:06.999Z</time></trkpt><trkpt lat="44.34849505774971" lon="9.233056066220904"><ele>3.8000000000000003</ele><time>2026-04-03T13:52:08.999Z</time></trkpt><trkpt lat="44.34851162565458" lon="9.232926970211487"><ele>3.6000000000000005</ele><time>2026-04-03T13:52:10.999Z</time></trkpt><trkpt lat="44.348525344403946" lon="9.232794128255517"><ele>3.4</ele><time>2026-04-03T13:52:12.999Z</time></trkpt><trkpt lat="44.34853797479365" lon="9.232662481664525"><ele>3.2</ele><time>2026-04-03T13:52:14.999Z</time></trkpt><trkpt lat="44.34856029005708" lon="9.232532754867025"><ele>3.0</ele><time>2026-04-03T13:52:16.999Z</time></trkpt><trkpt lat="44.348585289780495" lon="9.232408212583236"><ele>3.4</ele><time>2026-04-03T13:52:18.999Z</time></trkpt><trkpt lat="44.348615615371855" lon="9.232254510390097"><ele>3.8</ele><time>2026-04-03T13:52:20.999Z</time></trkpt><trkpt lat="44.348643340301265" lon="9.232108391021052"><ele>4.2</ele><time>2026-04-03T13:52:22.999Z</time></trkpt><trkpt lat="44.34867025950966" lon="9.231964854353604"><ele>4.6</ele><time>2026-04-03T13:52:24.999Z</time></trkpt><trkpt lat="44.348682525470714" lon="9.231853978879824"><ele>5.0</ele><time>2026-04-03T13:52:26.999Z</time></trkpt><trkpt lat="44.348689810634696" lon="9.2317386321315"><ele>5.0</ele><time>2026-04-03T13:52:29.999Z</time></trkpt><trkpt lat="44.3486869056053" lon="9.231598552338424"><ele>5.0</ele><time>2026-04-03T13:52:32.998Z</time></trkpt><trkpt lat="44.34869242823895" lon="9.231465575486482"><ele>5.0</ele><time>2026-04-03T13:52:34.998Z</time></trkpt><trkpt lat="44.348701180385035" lon="9.231317309554987"><ele>5.0</ele><time>2026-04-03T13:52:36.998Z</time></trkpt><trkpt lat="44.348704520955" lon="9.231174662399015"><ele>5.0</ele><time>2026-04-03T13:52:38.998Z</time></trkpt><trkpt lat="44.34869901413365" lon="9.231036265993563"><ele>5.0</ele><time>2026-04-03T13:52:40.998Z</time></trkpt><trkpt lat="44.34868173913319" lon="9.23089154226621"><ele>5.0</ele><time>2026-04-03T13:52:42.999Z</time></trkpt><trkpt lat="44.34866940876247" lon="9.230752189311817"><ele>5.0</ele><time>2026-04-03T13:52:44.999Z</time></trkpt><trkpt lat="44.348655674789335" lon="9.230614155605025"><ele>5.0</ele><time>2026-04-03T13:52:46.999Z</time></trkpt><trkpt lat="44.348642948032975" lon="9.230470545504996"><ele>5.0</ele><time>2026-04-03T13:52:48.999Z</time></trkpt><trkpt lat="44.34860904514804" lon="9.23033509869516"><ele>4.833333333333334</ele><time>2026-04-03T13:52:50.999Z</time></trkpt><trkpt lat="44.348550703066266" lon="9.230221773907072"><ele>4.666666666666667</ele><time>2026-04-03T13:52:52.999Z</time></trkpt><trkpt lat="44.3484929116912" lon="9.23013598954655"><ele>4.5</ele><time>2026-04-03T13:52:54.999Z</time></trkpt><trkpt lat="44.34844158828951" lon="9.230057210329157"><ele>4.333333333333333</ele><time>2026-04-03T13:52:56.999Z</time></trkpt><trkpt lat="44.348380424993145" lon="9.229964358966942"><ele>4.166666666666666</ele><time>2026-04-03T13:52:59.999Z</time></trkpt><trkpt lat="44.34832995570749" lon="9.229883324557589"><ele>4.0</ele><time>2026-04-03T13:53:02.999Z</time></trkpt><trkpt lat="44.348284658587566" lon="9.22981046030713"><ele>4.666666666666666</ele><time>2026-04-03T13:53:04.999Z</time></trkpt><trkpt lat="44.34825355494977" lon="9.229688906781883"><ele>5.333333333333333</ele><time>2026-04-03T13:53:07.999Z</time></trkpt><trkpt lat="44.34828057715696" lon="9.229606373041142"><ele>6.0</ele><time>2026-04-03T13:53:09.999Z</time></trkpt><trkpt lat="44.34832714056849" lon="9.229510085698214"><ele>6.666666666666666</ele><time>2026-04-03T13:53:12.999Z</time></trkpt><trkpt lat="44.3483654264902" lon="9.229434700951444"><ele>7.333333333333333</ele><time>2026-04-03T13:53:17.999Z</time></trkpt><trkpt lat="44.34837713624352" lon="9.229324351612618"><ele>8.0</ele><time>2026-04-03T13:53:21.999Z</time></trkpt><trkpt lat="44.34832411732498" lon="9.229266063429115"><ele>8.0</ele><time>2026-04-03T13:53:23.999Z</time></trkpt><trkpt lat="44.34823965625816" lon="9.229406876099691"><ele>8.0</ele><time>2026-04-03T13:53:25.999Z</time></trkpt><trkpt lat="44.34819669879531" lon="9.229495978676239"><ele>8.0</ele><time>2026-04-03T13:53:27.999Z</time></trkpt><trkpt lat="44.348154935129564" lon="9.229582757542566"><ele>8.0</ele><time>2026-04-03T13:53:29.999Z</time></trkpt><trkpt lat="44.348235048175184" lon="9.229616072613549"><ele>8.0</ele><time>2026-04-03T13:53:32.999Z</time></trkpt><trkpt lat="44.34818742592744" lon="9.229742432979826"><ele>8.0</ele><time>2026-04-03T13:53:46.999Z</time></trkpt><trkpt lat="44.34825181700245" lon="9.229636335775695"><ele>8.0</ele><time>2026-04-03T13:53:51.999Z</time></trkpt><trkpt lat="44.34818469665046" lon="9.229744705222434"><ele>8.0</ele><time>2026-04-03T13:53:54.999Z</time></trkpt><trkpt lat="44.34825407497163" lon="9.229639064265749"><ele>8.0</ele><time>2026-04-03T13:53:58.999Z</time></trkpt><trkpt lat="44.34819701077632" lon="9.229771778962077"><ele>8.0</ele><time>2026-04-03T13:54:00.999Z</time></trkpt><trkpt lat="44.34825618925279" lon="9.229856168114056"><ele>7.428571428571428</ele><time>2026-04-03T13:54:04.999Z</time></trkpt><trkpt lat="44.34831210333984" lon="9.22994514521551"><ele>6.857142857142856</ele><time>2026-04-03T13:54:07.999Z</time></trkpt><trkpt lat="44.34835409630304" lon="9.23001101042334"><ele>6.285714285714286</ele><time>2026-04-03T13:54:09.999Z</time></trkpt><trkpt lat="44.348398960011096" lon="9.230079551929514"><ele>5.7142857142857135</ele><time>2026-04-03T13:54:11.999Z</time></trkpt><trkpt lat="44.348439376899776" lon="9.230147134163147"><ele>5.142857142857142</ele><time>2026-04-03T13:54:13.999Z</time></trkpt><trkpt lat="44.34848667036553" lon="9.230211695698076"><ele>4.571428571428571</ele><time>2026-04-03T13:54:15.999Z</time></trkpt><trkpt lat="44.348534456362145" lon="9.230283654424628"><ele>4.0</ele><time>2026-04-03T13:54:17.999Z</time></trkpt><trkpt lat="44.348574533818024" lon="9.230359171169653"><ele>3.9999999999999996</ele><time>2026-04-03T13:54:19.999Z</time></trkpt><trkpt lat="44.348596019309" lon="9.230453634866311"><ele>4.0</ele><time>2026-04-03T13:54:21.999Z</time></trkpt><trkpt lat="44.348606936402724" lon="9.23054913788105"><ele>4.0</ele><time>2026-04-03T13:54:23.999Z</time></trkpt><trkpt lat="44.34861849743833" lon="9.230682981104303"><ele>4.0</ele><time>2026-04-03T13:54:26.999Z</time></trkpt><trkpt lat="44.34863263040985" lon="9.230772400556923"><ele>3.9999999999999996</ele><time>2026-04-03T13:54:28.999Z</time></trkpt><trkpt lat="44.348637833300984" lon="9.230876376630597"><ele>4.0</ele><time>2026-04-03T13:54:30.999Z</time></trkpt><trkpt lat="44.34865645942967" lon="9.230990782991709"><ele>4.166666666666666</ele><time>2026-04-03T13:54:32.998Z</time></trkpt><trkpt lat="44.34867280086028" lon="9.231111666241993"><ele>4.333333333333333</ele><time>2026-04-03T13:54:34.998Z</time></trkpt><trkpt lat="44.348673476547084" lon="9.23124127218905"><ele>4.5</ele><time>2026-04-03T13:54:36.999Z</time></trkpt><trkpt lat="44.348671987945664" lon="9.23136457002527"><ele>4.666666666666667</ele><time>2026-04-03T13:54:38.999Z</time></trkpt><trkpt lat="44.34866728578574" lon="9.231497816339768"><ele>4.833333333333334</ele><time>2026-04-03T13:54:41.999Z</time></trkpt><trkpt lat="44.34865505063781" lon="9.231609140386105"><ele>5.0</ele><time>2026-04-03T13:54:44.999Z</time></trkpt><trkpt lat="44.348649263981045" lon="9.231703576325687"><ele>5.0</ele><time>2026-04-03T13:54:48Z</time></trkpt><trkpt lat="44.34864821166172" lon="9.23180028787659"><ele>5.0</ele><time>2026-04-03T13:54:57Z</time></trkpt><trkpt lat="44.34864282126869" lon="9.231890877658447"><ele>5.0</ele><time>2026-04-03T13:54:59Z</time></trkpt><trkpt lat="44.348634046689035" lon="9.231978591871165"><ele>5.0</ele><time>2026-04-03T13:55:01Z</time></trkpt><trkpt lat="44.34860741824641" lon="9.232095021432258"><ele>5.0</ele><time>2026-04-03T13:55:04Z</time></trkpt><trkpt lat="44.348566262955565" lon="9.232195905527059"><ele>5.0</ele><time>2026-04-03T13:55:07Z</time></trkpt><trkpt lat="44.34856673552194" lon="9.232342566920424"><ele>4.6</ele><time>2026-04-03T13:56:27.999Z</time></trkpt><trkpt lat="44.34853191552375" lon="9.232497726146988"><ele>4.2</ele><time>2026-04-03T13:56:29.999Z</time></trkpt><trkpt lat="44.34850149434473" lon="9.23266012689288"><ele>3.8</ele><time>2026-04-03T13:56:31.999Z</time></trkpt><trkpt lat="44.34848709475042" lon="9.232803826380362"><ele>3.4</ele><time>2026-04-03T13:56:33.999Z</time></trkpt><trkpt lat="44.34846746985012" lon="9.232932598171889"><ele>3.0</ele><time>2026-04-03T13:56:35.999Z</time></trkpt><trkpt lat="44.34844941093759" lon="9.23310232342548"><ele>3.1666666666666665</ele><time>2026-04-03T13:56:37.999Z</time></trkpt><trkpt lat="44.348439700028464" lon="9.233193590424396"><ele>3.333333333333333</ele><time>2026-04-03T13:56:38.999Z</time></trkpt><trkpt lat="44.348425329957756" lon="9.233290123890006"><ele>3.5</ele><time>2026-04-03T13:56:39.999Z</time></trkpt><trkpt lat="44.34842550670581" lon="9.233395278914154"><ele>3.6666666666666665</ele><time>2026-04-03T13:56:40.999Z</time></trkpt><trkpt lat="44.34840692357577" lon="9.233485930269262"><ele>3.833333333333333</ele><time>2026-04-03T13:56:41.999Z</time></trkpt><trkpt lat="44.34841631283496" lon="9.233613962796062"><ele>4.0</ele><time>2026-04-03T13:56:43.999Z</time></trkpt><trkpt lat="44.34844863427856" lon="9.23374567307294"><ele>4.0</ele><time>2026-04-03T13:56:45.999Z</time></trkpt><trkpt lat="44.34849160613128" lon="9.233862314719506"><ele>4.0</ele><time>2026-04-03T13:56:47.999Z</time></trkpt><trkpt lat="44.34853321519228" lon="9.233996135904128"><ele>4.0</ele><time>2026-04-03T13:56:49.999Z</time></trkpt><trkpt lat="44.34858182758116" lon="9.23411933959213"><ele>4.0</ele><time>2026-04-03T13:56:51.999Z</time></trkpt><trkpt lat="44.34867577995608" lon="9.23413684359584"><ele>4.0</ele><time>2026-04-03T13:56:53.999Z</time></trkpt><trkpt lat="44.34871010769059" lon="9.234016533215785"><ele>3.9999999999999996</ele><time>2026-04-03T13:56:55.999Z</time></trkpt><trkpt lat="44.348689012568684" lon="9.233925355983153"><ele>4.0</ele><time>2026-04-03T13:56:57.999Z</time></trkpt><trkpt lat="44.34860644923184" lon="9.233912247082094"><ele>4.0</ele><time>2026-04-03T13:56:58.999Z</time></trkpt><trkpt lat="44.34854347025401" lon="9.233889334790705"><ele>4.0</ele><time>2026-04-03T13:57:02.999Z</time></trkpt><trkpt lat="44.348480346906655" lon="9.233726762432909"><ele>3.9999999999999996</ele><time>2026-04-03T13:57:05.999Z</time></trkpt><trkpt lat="44.34844840406076" lon="9.233636552573167"><ele>4.0</ele><time>2026-04-03T13:57:07.999Z</time></trkpt><trkpt lat="44.34843552998893" lon="9.23353098952105"><ele>3.9999999999999996</ele><time>2026-04-03T13:57:09.999Z</time></trkpt><trkpt lat="44.34844536156939" lon="9.23343002578985"><ele>4.0</ele><time>2026-04-03T13:57:11.999Z</time></trkpt><trkpt lat="44.34846206815308" lon="9.233334135158234"><ele>4.0</ele><time>2026-04-03T13:57:17Z</time></trkpt><trkpt lat="44.348484567600536" lon="9.233195262150767"><ele>4.0</ele><time>2026-04-03T13:57:19Z</time></trkpt><trkpt lat="44.34849809194167" lon="9.23303004473998"><ele>3.9999999999999996</ele><time>2026-04-03T13:57:21Z</time></trkpt><trkpt lat="44.34850448015618" lon="9.232932337761847"><ele>4.0</ele><time>2026-04-03T13:57:22Z</time></trkpt><trkpt lat="44.348515377776145" lon="9.232835162658159"><ele>3.8571428571428568</ele><time>2026-04-03T13:57:23Z</time></trkpt><trkpt lat="44.34852802142335" lon="9.232738498797824"><ele>3.714285714285714</ele><time>2026-04-03T13:57:24Z</time></trkpt><trkpt lat="44.34854112424684" lon="9.232646922621818"><ele>3.571428571428571</ele><time>2026-04-03T13:57:25Z</time></trkpt><trkpt lat="44.34855908698132" lon="9.2325609104958"><ele>3.4285714285714284</ele><time>2026-04-03T13:57:26Z</time></trkpt><trkpt lat="44.348576744882905" lon="9.23247543858895"><ele>3.2857142857142856</ele><time>2026-04-03T13:57:27Z</time></trkpt><trkpt lat="44.348595092865516" lon="9.23239114758315"><ele>3.1428571428571423</ele><time>2026-04-03T13:57:28Z</time></trkpt><trkpt lat="44.34861305458103" lon="9.232305490871612"><ele>3.0</ele><time>2026-04-03T13:57:29Z</time></trkpt><trkpt lat="44.34862966148012" lon="9.232220552787913"><ele>3.4</ele><time>2026-04-03T13:57:30Z</time></trkpt><trkpt lat="44.348646628740816" lon="9.232132529122124"><ele>3.8</ele><time>2026-04-03T13:57:31Z</time></trkpt><trkpt lat="44.34867318246204" lon="9.231963787784657"><ele>4.2</ele><time>2026-04-03T13:57:33Z</time></trkpt><trkpt lat="44.348679613367466" lon="9.231815924381294"><ele>4.6</ele><time>2026-04-03T13:57:35Z</time></trkpt><trkpt lat="44.348678201805974" lon="9.231695277305732"><ele>5.0</ele><time>2026-04-03T13:57:37Z</time></trkpt><trkpt lat="44.34868819563897" lon="9.2315498263622"><ele>5.0</ele><time>2026-04-03T13:57:39Z</time></trkpt><trkpt lat="44.3486924976886" lon="9.23139071895985"><ele>5.0</ele><time>2026-04-03T13:57:41Z</time></trkpt><trkpt lat="44.34869838204469" lon="9.231301570637992"><ele>5.0</ele><time>2026-04-03T13:57:42Z</time></trkpt><trkpt lat="44.348701395999846" lon="9.23120871704151"><ele>5.0</ele><time>2026-04-03T13:57:43Z</time></trkpt><trkpt lat="44.34869764298053" lon="9.231112889233405"><ele>5.0</ele><time>2026-04-03T13:57:44Z</time></trkpt><trkpt lat="44.34869043339547" lon="9.231013357900416"><ele>5.0</ele><time>2026-04-03T13:57:45Z</time></trkpt><trkpt lat="44.34868009986449" lon="9.230908148114406"><ele>5.0</ele><time>2026-04-03T13:57:46Z</time></trkpt><trkpt lat="44.34866921416385" lon="9.230803285582706"><ele>5.0</ele><time>2026-04-03T13:57:47Z</time></trkpt><trkpt lat="44.34865881667838" lon="9.230702264098037"><ele>5.0</ele><time>2026-04-03T13:57:48Z</time></trkpt><trkpt lat="44.34865117260213" lon="9.230603192570118"><ele>5.0</ele><time>2026-04-03T13:57:49Z</time></trkpt><trkpt lat="44.34864087378571" lon="9.230501678456681"><ele>5.0</ele><time>2026-04-03T13:57:50Z</time></trkpt><trkpt lat="44.34862346282538" lon="9.230406554936534"><ele>5.0</ele><time>2026-04-03T13:57:50.999Z</time></trkpt><trkpt lat="44.34859124542572" lon="9.230318859429957"><ele>5.0</ele><time>2026-04-03T13:57:51.999Z</time></trkpt><trkpt lat="44.348548325577156" lon="9.230241608734026"><ele>4.833333333333334</ele><time>2026-04-03T13:57:52.999Z</time></trkpt><trkpt lat="44.34851659741747" lon="9.230155691159085"><ele>4.666666666666667</ele><time>2026-04-03T13:57:53.999Z</time></trkpt><trkpt lat="44.34844972084323" lon="9.230048775730847"><ele>4.5</ele><time>2026-04-03T13:57:55.999Z</time></trkpt><trkpt lat="44.34840137158232" lon="9.229973203782363"><ele>4.333333333333333</ele><time>2026-04-03T13:57:59.999Z</time></trkpt><trkpt lat="44.34834495788133" lon="9.2298882358668"><ele>4.166666666666666</ele><time>2026-04-03T13:58:08.999Z</time></trkpt><trkpt lat="44.348295976045385" lon="9.229815692703118"><ele>4.0</ele><time>2026-04-03T13:58:10.999Z</time></trkpt><trkpt lat="44.34825058539598" lon="9.229716905681098"><ele>4.800000000000001</ele><time>2026-04-03T13:58:12.999Z</time></trkpt><trkpt lat="44.34828664095674" lon="9.229603053338584"><ele>5.6000000000000005</ele><time>2026-04-03T13:58:14.999Z</time></trkpt><trkpt lat="44.34834929504455" lon="9.229483657994098"><ele>6.4</ele><time>2026-04-03T13:58:16.999Z</time></trkpt><trkpt lat="44.34841906067766" lon="9.229341779966356"><ele>7.2</ele><time>2026-04-03T13:58:18.999Z</time></trkpt><trkpt lat="44.34842080290764" lon="9.229241297585611"><ele>8.0</ele><time>2026-04-03T13:58:19.999Z</time></trkpt><trkpt lat="44.34850318390456" lon="9.229175538342615"><ele>7.999999999999999</ele><time>2026-04-03T13:58:20.999Z</time></trkpt><trkpt lat="44.34855301287085" lon="9.229090200498648"><ele>8.0</ele><time>2026-04-03T13:58:21.999Z</time></trkpt><trkpt lat="44.34860764161125" lon="9.229009379007254"><ele>8.0</ele><time>2026-04-03T13:58:22.999Z</time></trkpt><trkpt lat="44.34866345580585" lon="9.228921341261547"><ele>8.0</ele><time>2026-04-03T13:58:23.999Z</time></trkpt><trkpt lat="44.34871214280694" lon="9.228829110683925"><ele>7.999999999999999</ele><time>2026-04-03T13:58:24.999Z</time></trkpt><trkpt lat="44.348758416102235" lon="9.228741557766755"><ele>8.0</ele><time>2026-04-03T13:58:25.999Z</time></trkpt><trkpt lat="44.34881241004279" lon="9.228656471144996"><ele>9.0</ele><time>2026-04-03T13:58:26.999Z</time></trkpt><trkpt lat="44.34885623450814" lon="9.228572033543882"><ele>10.0</ele><time>2026-04-03T13:58:27.999Z</time></trkpt><trkpt lat="44.34891775139125" lon="9.228497129551698"><ele>11.0</ele><time>2026-04-03T13:58:28.999Z</time></trkpt><trkpt lat="44.34898418001758" lon="9.22839833176317"><ele>12.0</ele><time>2026-04-03T13:58:29.999Z</time></trkpt><trkpt lat="44.3490420671485" lon="9.228276774024412"><ele>13.0</ele><time>2026-04-03T13:58:30.999Z</time></trkpt><trkpt lat="44.349107925667454" lon="9.228145064603233"><ele>12.600000000000001</ele><time>2026-04-03T13:58:31.999Z</time></trkpt><trkpt lat="44.34918029269598" lon="9.228022006166423"><ele>12.200000000000001</ele><time>2026-04-03T13:58:32.999Z</time></trkpt><trkpt lat="44.34924263528441" lon="9.227897326206808"><ele>11.8</ele><time>2026-04-03T13:58:33.999Z</time></trkpt><trkpt lat="44.349302250539154" lon="9.227780965147465"><ele>11.4</ele><time>2026-04-03T13:58:34.999Z</time></trkpt><trkpt lat="44.34935147788583" lon="9.227673306763277"><ele>11.0</ele><time>2026-04-03T13:58:35.999Z</time></trkpt><trkpt lat="44.34939555284837" lon="9.227587408507805"><ele>11.0</ele><time>2026-04-03T13:58:36.999Z</time></trkpt><trkpt lat="44.34943890935712" lon="9.227514738868557"><ele>11.0</ele><time>2026-04-03T13:58:37.999Z</time></trkpt><trkpt lat="44.34947717452703" lon="9.227437373210797"><ele>11.0</ele><time>2026-04-03T13:58:38.999Z</time></trkpt><trkpt lat="44.3495352295814" lon="9.227324031487546"><ele>11.0</ele><time>2026-04-03T13:58:40.999Z</time></trkpt><trkpt lat="44.34960121340882" lon="9.22722434730132"><ele>11.0</ele><time>2026-04-03T13:58:42.999Z</time></trkpt><trkpt lat="44.34966151527082" lon="9.22707573048937"><ele>10.714285714285715</ele><time>2026-04-03T13:58:44.999Z</time></trkpt><trkpt lat="44.349702108754734" lon="9.227004009546365"><ele>10.428571428571429</ele><time>2026-04-03T13:58:45.999Z</time></trkpt><trkpt lat="44.34974099830989" lon="9.226930736755152"><ele>10.142857142857142</ele><time>2026-04-03T13:58:46.999Z</time></trkpt><trkpt lat="44.34978153129638" lon="9.226854673468322"><ele>9.857142857142858</ele><time>2026-04-03T13:58:47.999Z</time></trkpt><trkpt lat="44.34982600396321" lon="9.226778195100085"><ele>9.571428571428571</ele><time>2026-04-03T13:58:48.999Z</time></trkpt><trkpt lat="44.34986681049823" lon="9.226693751934551"><ele>9.285714285714286</ele><time>2026-04-03T13:58:49.999Z</time></trkpt><trkpt lat="44.34990875126704" lon="9.226607576193313"><ele>9.0</ele><time>2026-04-03T13:58:50.999Z</time></trkpt><trkpt lat="44.34995248361695" lon="9.226523571697083"><ele>9.166666666666666</ele><time>2026-04-03T13:58:51.999Z</time></trkpt><trkpt lat="44.34999528693164" lon="9.226430244246139"><ele>9.333333333333334</ele><time>2026-04-03T13:58:52.999Z</time></trkpt><trkpt lat="44.35003907992252" lon="9.226347443329187"><ele>9.5</ele><time>2026-04-03T13:58:53.999Z</time></trkpt><trkpt lat="44.350085593463845" lon="9.226268093192333"><ele>9.666666666666668</ele><time>2026-04-03T13:58:54.999Z</time></trkpt><trkpt lat="44.3501236921562" lon="9.22618062304092"><ele>9.833333333333334</ele><time>2026-04-03T13:58:55.999Z</time></trkpt><trkpt lat="44.35016955999217" lon="9.226093859690849"><ele>10.0</ele><time>2026-04-03T13:58:56.999Z</time></trkpt><trkpt lat="44.35021907449608" lon="9.225994726894456"><ele>10.0</ele><time>2026-04-03T13:58:57.999Z</time></trkpt><trkpt lat="44.35027202566369" lon="9.22589779411107"><ele>10.0</ele><time>2026-04-03T13:58:58.999Z</time></trkpt><trkpt lat="44.35032323427508" lon="9.225794400643863"><ele>10.0</ele><time>2026-04-03T13:58:59.999Z</time></trkpt><trkpt lat="44.350378138398604" lon="9.225693319120465"><ele>10.0</ele><time>2026-04-03T13:59:00.999Z</time></trkpt><trkpt lat="44.35042739694442" lon="9.225598800466637"><ele>10.0</ele><time>2026-04-03T13:59:01.999Z</time></trkpt><trkpt lat="44.35045709905519" lon="9.225474449351783"><ele>10.0</ele><time>2026-04-03T13:59:02.999Z</time></trkpt><trkpt lat="44.35052429511017" lon="9.225399630483421"><ele>10.333333333333334</ele><time>2026-04-03T13:59:03.999Z</time></trkpt><trkpt lat="44.350561258114254" lon="9.225312369416516"><ele>10.666666666666668</ele><time>2026-04-03T13:59:04.999Z</time></trkpt><trkpt lat="44.35059863782079" lon="9.225231176875342"><ele>11.0</ele><time>2026-04-03T13:59:05.999Z</time></trkpt><trkpt lat="44.35063878756774" lon="9.225157551569628"><ele>11.333333333333334</ele><time>2026-04-03T13:59:06.999Z</time></trkpt><trkpt lat="44.35068794189731" lon="9.225030387420752"><ele>11.666666666666666</ele><time>2026-04-03T13:59:08.999Z</time></trkpt><trkpt lat="44.350722986278974" lon="9.22492023076678"><ele>12.0</ele><time>2026-04-03T13:59:11.999Z</time></trkpt><trkpt lat="44.35078698839055" lon="9.22482003527676"><ele>11.333333333333334</ele><time>2026-04-03T13:59:49Z</time></trkpt><trkpt lat="44.35082707197098" lon="9.224751736961016"><ele>10.666666666666666</ele><time>2026-04-03T13:59:50Z</time></trkpt><trkpt lat="44.35087077771538" lon="9.224665408274559"><ele>10.0</ele><time>2026-04-03T13:59:51Z</time></trkpt><trkpt lat="44.35092312113806" lon="9.224564420154831"><ele>9.333333333333332</ele><time>2026-04-03T13:59:52Z</time></trkpt><trkpt lat="44.3509761542706" lon="9.224451228485835"><ele>8.666666666666666</ele><time>2026-04-03T13:59:53Z</time></trkpt><trkpt lat="44.35103324665499" lon="9.224330897982831"><ele>8.0</ele><time>2026-04-03T13:59:54Z</time></trkpt><trkpt lat="44.351095031940574" lon="9.224206722882924"><ele>8.0</ele><time>2026-04-03T13:59:55Z</time></trkpt><trkpt lat="44.35115719011561" lon="9.2240811683683"><ele>8.0</ele><time>2026-04-03T13:59:56Z</time></trkpt><trkpt lat="44.35121866089863" lon="9.22396354685111"><ele>8.0</ele><time>2026-04-03T13:59:57Z</time></trkpt><trkpt lat="44.35127301209214" lon="9.22384805285807"><ele>8.0</ele><time>2026-04-03T13:59:58Z</time></trkpt><trkpt lat="44.35132474540649" lon="9.223735673251678"><ele>8.0</ele><time>2026-04-03T13:59:59Z</time></trkpt><trkpt lat="44.351375778818344" lon="9.22363175169329"><ele>7.833333333333333</ele><time>2026-04-03T14:00:00Z</time></trkpt><trkpt lat="44.35142271303508" lon="9.22352747184424"><ele>7.666666666666666</ele><time>2026-04-03T14:00:01Z</time></trkpt><trkpt lat="44.351469231837335" lon="9.223427471418663"><ele>7.5</ele><time>2026-04-03T14:00:02Z</time></trkpt><trkpt lat="44.351516217642704" lon="9.22333060238918"><ele>7.333333333333334</ele><time>2026-04-03T14:00:03Z</time></trkpt><trkpt lat="44.351563016740826" lon="9.22323469938403"><ele>7.166666666666667</ele><time>2026-04-03T14:00:04Z</time></trkpt><trkpt lat="44.35160805188731" lon="9.223135766078027"><ele>7.0</ele><time>2026-04-03T14:00:05Z</time></trkpt><trkpt lat="44.35165229720635" lon="9.223038020042061"><ele>7.000000000000001</ele><time>2026-04-03T14:00:06Z</time></trkpt><trkpt lat="44.35170034778879" lon="9.222945229657647"><ele>7.0</ele><time>2026-04-03T14:00:07Z</time></trkpt><trkpt lat="44.351747265479304" lon="9.222854731038291"><ele>7.0</ele><time>2026-04-03T14:00:08Z</time></trkpt><trkpt lat="44.3517932334887" lon="9.222773380623181"><ele>7.0</ele><time>2026-04-03T14:00:09Z</time></trkpt><trkpt lat="44.35186867067286" lon="9.222660738615726"><ele>7.000000000000001</ele><time>2026-04-03T14:00:11Z</time></trkpt><trkpt lat="44.35192006718657" lon="9.22260611796836"><ele>7.0</ele><time>2026-04-03T14:00:13Z</time></trkpt><trkpt lat="44.35195876817392" lon="9.222495484185238"><ele>7.0</ele><time>2026-04-03T14:00:15Z</time></trkpt><trkpt lat="44.35197922225088" lon="9.222357113020651"><ele>6.999999999999999</ele><time>2026-04-03T14:00:17Z</time></trkpt><trkpt lat="44.35200408286971" lon="9.222249002360625"><ele>6.999999999999999</ele><time>2026-04-03T14:00:19Z</time></trkpt><trkpt lat="44.35203090224701" lon="9.22211932470156"><ele>7.0</ele><time>2026-04-03T14:00:20.999Z</time></trkpt><trkpt lat="44.352052773331465" lon="9.221969620117983"><ele>7.0</ele><time>2026-04-03T14:00:22.999Z</time></trkpt><trkpt lat="44.352071382246535" lon="9.221810443762879"><ele>7.000000000000001</ele><time>2026-04-03T14:00:24.999Z</time></trkpt><trkpt lat="44.352088755689394" lon="9.221648446917648"><ele>7.0</ele><time>2026-04-03T14:00:26.999Z</time></trkpt><trkpt lat="44.352100360261346" lon="9.22155590075788"><ele>7.0</ele><time>2026-04-03T14:00:28.999Z</time></trkpt><trkpt lat="44.35211212292868" lon="9.221462050130397"><ele>7.0</ele><time>2026-04-03T14:00:31.999Z</time></trkpt><trkpt lat="44.352123048161985" lon="9.221353516842708"><ele>7.000000000000001</ele><time>2026-04-03T14:00:33.999Z</time></trkpt><trkpt lat="44.35213166985717" lon="9.221246542090404"><ele>7.0</ele><time>2026-04-03T14:00:35.999Z</time></trkpt><trkpt lat="44.35214287437348" lon="9.221125146654117"><ele>7.199999999999999</ele><time>2026-04-03T14:00:37.999Z</time></trkpt><trkpt lat="44.352158789310714" lon="9.220985759132297"><ele>7.3999999999999995</ele><time>2026-04-03T14:00:39.999Z</time></trkpt><trkpt lat="44.352174011213" lon="9.220852210003052"><ele>7.6000000000000005</ele><time>2026-04-03T14:00:41.999Z</time></trkpt><trkpt lat="44.35219120711376" lon="9.22071572685673"><ele>7.800000000000001</ele><time>2026-04-03T14:00:43.999Z</time></trkpt><trkpt lat="44.35220717790667" lon="9.220594945492506"><ele>8.0</ele><time>2026-04-03T14:00:45.999Z</time></trkpt><trkpt lat="44.35222439284307" lon="9.220459789971434"><ele>8.0</ele><time>2026-04-03T14:00:47.999Z</time></trkpt><trkpt lat="44.35224233163692" lon="9.220319705267482"><ele>8.0</ele><time>2026-04-03T14:00:49.999Z</time></trkpt><trkpt lat="44.35226053063515" lon="9.220181228224575"><ele>8.0</ele><time>2026-04-03T14:00:51.999Z</time></trkpt><trkpt lat="44.35227750955291" lon="9.220045315890708"><ele>8.0</ele><time>2026-04-03T14:00:53.999Z</time></trkpt><trkpt lat="44.35229235635079" lon="9.21989512211181"><ele>8.0</ele><time>2026-04-03T14:00:55.999Z</time></trkpt><trkpt lat="44.35231030591914" lon="9.219742454870909"><ele>8.4</ele><time>2026-04-03T14:00:57.999Z</time></trkpt><trkpt lat="44.35232762358173" lon="9.21960646367719"><ele>8.8</ele><time>2026-04-03T14:00:59.999Z</time></trkpt><trkpt lat="44.35236404100027" lon="9.219460481802539"><ele>9.2</ele><time>2026-04-03T14:01:01.999Z</time></trkpt><trkpt lat="44.35238478905254" lon="9.2193057105165"><ele>9.6</ele><time>2026-04-03T14:01:03.999Z</time></trkpt><trkpt lat="44.35240538131788" lon="9.219153098729429"><ele>10.0</ele><time>2026-04-03T14:01:06Z</time></trkpt><trkpt lat="44.35242605671827" lon="9.218996144256348"><ele>10.0</ele><time>2026-04-03T14:01:08Z</time></trkpt><trkpt lat="44.35244612879734" lon="9.218848519455397"><ele>10.0</ele><time>2026-04-03T14:01:10Z</time></trkpt><trkpt lat="44.352451019600146" lon="9.218710163895622"><ele>10.0</ele><time>2026-04-03T14:01:12Z</time></trkpt><trkpt lat="44.352471870587685" lon="9.218602498856477"><ele>10.0</ele><time>2026-04-03T14:01:14Z</time></trkpt><trkpt lat="44.35248893159811" lon="9.218508310297072"><ele>10.0</ele><time>2026-04-03T14:01:16Z</time></trkpt><trkpt lat="44.3525114010962" lon="9.21842227161439"><ele>10.0</ele><time>2026-04-03T14:01:18Z</time></trkpt><trkpt lat="44.35253933952868" lon="9.218308736292524"><ele>10.0</ele><time>2026-04-03T14:01:20Z</time></trkpt><trkpt lat="44.35256114833945" lon="9.218196601628607"><ele>10.0</ele><time>2026-04-03T14:01:22Z</time></trkpt><trkpt lat="44.35258529719147" lon="9.218068004855352"><ele>10.0</ele><time>2026-04-03T14:01:24Z</time></trkpt><trkpt lat="44.352611206405236" lon="9.217923786206553"><ele>10.0</ele><time>2026-04-03T14:01:26Z</time></trkpt><trkpt lat="44.35263652398823" lon="9.217776798048169"><ele>10.0</ele><time>2026-04-03T14:01:28Z</time></trkpt><trkpt lat="44.35266353348009" lon="9.217626859593786"><ele>10.0</ele><time>2026-04-03T14:01:30Z</time></trkpt><trkpt lat="44.352691531031354" lon="9.217489039913039"><ele>10.0</ele><time>2026-04-03T14:01:32Z</time></trkpt><trkpt lat="44.35274150079608" lon="9.21737892994845"><ele>10.0</ele><time>2026-04-03T14:01:34Z</time></trkpt><trkpt lat="44.352846966861634" lon="9.217438338852068"><ele>10.0</ele><time>2026-04-03T14:01:57Z</time></trkpt><trkpt lat="44.352909691881614" lon="9.21742065397985"><ele>10.0</ele><time>2026-04-03T14:02:00Z</time></trkpt><trkpt lat="44.35287956962716" lon="9.217340303667322"><ele>10.0</ele><time>2026-04-03T14:02:02Z</time></trkpt><trkpt lat="44.352945429318254" lon="9.217309162035246"><ele>10.166666666666668</ele><time>2026-04-03T14:08:05.001Z</time></trkpt><trkpt lat="44.352912546864445" lon="9.217213802233008"><ele>10.333333333333334</ele><time>2026-04-03T14:08:09Z</time></trkpt><trkpt lat="44.35285452324406" lon="9.217127255355704"><ele>10.5</ele><time>2026-04-03T14:08:12Z</time></trkpt><trkpt lat="44.35285357320216" lon="9.217021416511134"><ele>10.666666666666666</ele><time>2026-04-03T14:08:14Z</time></trkpt><trkpt lat="44.352796149345416" lon="9.21694397794468"><ele>10.833333333333332</ele><time>2026-04-03T14:08:17Z</time></trkpt><trkpt lat="44.35282520406313" lon="9.216852292723617"><ele>11.0</ele><time>2026-04-03T14:08:18Z</time></trkpt><trkpt lat="44.352847766069324" lon="9.216696179431493"><ele>11.0</ele><time>2026-04-03T14:08:20Z</time></trkpt><trkpt lat="44.35286990473144" lon="9.21654354225923"><ele>11.0</ele><time>2026-04-03T14:08:22Z</time></trkpt><trkpt lat="44.35290367209808" lon="9.216404097583615"><ele>11.0</ele><time>2026-04-03T14:08:24Z</time></trkpt><trkpt lat="44.35292768608078" lon="9.216259614732213"><ele>11.0</ele><time>2026-04-03T14:08:26Z</time></trkpt><trkpt lat="44.35295431140122" lon="9.216099595077981"><ele>11.0</ele><time>2026-04-03T14:08:28Z</time></trkpt><trkpt lat="44.35299065135938" lon="9.215943593920016"><ele>11.0</ele><time>2026-04-03T14:08:30Z</time></trkpt><trkpt lat="44.35302864723283" lon="9.215793804625703"><ele>11.0</ele><time>2026-04-03T14:08:32Z</time></trkpt><trkpt lat="44.35306235369395" lon="9.215646903293477"><ele>11.0</ele><time>2026-04-03T14:08:34Z</time></trkpt><trkpt lat="44.35309221708858" lon="9.215501747066451"><ele>11.0</ele><time>2026-04-03T14:08:36Z</time></trkpt><trkpt lat="44.353122019819" lon="9.215369543486982"><ele>11.0</ele><time>2026-04-03T14:08:38Z</time></trkpt><trkpt lat="44.35314415811801" lon="9.215238498152454"><ele>10.5</ele><time>2026-04-03T14:08:40Z</time></trkpt><trkpt lat="44.35316854976319" lon="9.215106216510746"><ele>10.0</ele><time>2026-04-03T14:08:42Z</time></trkpt><trkpt lat="44.35319666287634" lon="9.21501167117387"><ele>9.5</ele><time>2026-04-03T14:08:44Z</time></trkpt><trkpt lat="44.3532230814365" lon="9.214914884451817"><ele>9.0</ele><time>2026-04-03T14:08:48Z</time></trkpt><trkpt lat="44.35325040374178" lon="9.214814109359445"><ele>8.5</ele><time>2026-04-03T14:08:51Z</time></trkpt><trkpt lat="44.353284403755545" lon="9.214696623301617"><ele>8.0</ele><time>2026-04-03T14:08:54Z</time></trkpt><trkpt lat="44.353308089763814" lon="9.214613140094666"><ele>7.999999999999999</ele><time>2026-04-03T14:08:56Z</time></trkpt><trkpt lat="44.35334174046237" lon="9.214530410368429"><ele>8.0</ele><time>2026-04-03T14:08:58Z</time></trkpt><trkpt lat="44.3533723630945" lon="9.214442324567479"><ele>8.0</ele><time>2026-04-03T14:09:00Z</time></trkpt><trkpt lat="44.35341595178952" lon="9.214368290741044"><ele>8.0</ele><time>2026-04-03T14:09:02Z</time></trkpt><trkpt lat="44.35345925689089" lon="9.214295966651733"><ele>7.999999999999999</ele><time>2026-04-03T14:09:04Z</time></trkpt><trkpt lat="44.35351121855086" lon="9.214210320670052"><ele>8.0</ele><time>2026-04-03T14:09:06Z</time></trkpt><trkpt lat="44.35357536719526" lon="9.214104587532281"><ele>7.999999999999999</ele><time>2026-04-03T14:09:08Z</time></trkpt><trkpt lat="44.35363756600358" lon="9.214004225720313"><ele>8.0</ele><time>2026-04-03T14:09:10Z</time></trkpt><trkpt lat="44.35369151696679" lon="9.213919121505915"><ele>8.0</ele><time>2026-04-03T14:09:12Z</time></trkpt><trkpt lat="44.35376696314934" lon="9.213807779899973"><ele>8.0</ele><time>2026-04-03T14:09:14Z</time></trkpt><trkpt lat="44.35381324450908" lon="9.213741175523504"><ele>7.999999999999999</ele><time>2026-04-03T14:09:15Z</time></trkpt><trkpt lat="44.353872700953445" lon="9.213685531183165"><ele>8.0</ele><time>2026-04-03T14:09:16Z</time></trkpt><trkpt lat="44.35391862445051" lon="9.213613161973255"><ele>8.5</ele><time>2026-04-03T14:09:17Z</time></trkpt><trkpt lat="44.353962917045145" lon="9.213544871019225"><ele>9.0</ele><time>2026-04-03T14:09:18Z</time></trkpt><trkpt lat="44.354006545356626" lon="9.213476332291686"><ele>9.5</ele><time>2026-04-03T14:09:19Z</time></trkpt><trkpt lat="44.35405087153569" lon="9.213408247956611"><ele>10.0</ele><time>2026-04-03T14:09:20Z</time></trkpt><trkpt lat="44.354096605043665" lon="9.213342498976415"><ele>10.5</ele><time>2026-04-03T14:09:21Z</time></trkpt><trkpt lat="44.35413700652723" lon="9.21327121299104"><ele>11.0</ele><time>2026-04-03T14:09:22Z</time></trkpt><trkpt lat="44.35421496213636" lon="9.213140229094703"><ele>11.0</ele><time>2026-04-03T14:09:24Z</time></trkpt><trkpt lat="44.354256151785464" lon="9.213068286954691"><ele>11.0</ele><time>2026-04-03T14:09:25Z</time></trkpt><trkpt lat="44.35430006257141" lon="9.212995140086296"><ele>11.0</ele><time>2026-04-03T14:09:26Z</time></trkpt><trkpt lat="44.35434582983679" lon="9.212922348711924"><ele>11.0</ele><time>2026-04-03T14:09:27Z</time></trkpt><trkpt lat="44.354393641187336" lon="9.212843403677624"><ele>11.0</ele><time>2026-04-03T14:09:28Z</time></trkpt><trkpt lat="44.35444305790852" lon="9.212762124396724"><ele>11.0</ele><time>2026-04-03T14:09:29Z</time></trkpt><trkpt lat="44.35448964449396" lon="9.21266772572071"><ele>11.0</ele><time>2026-04-03T14:09:30.001Z</time></trkpt><trkpt lat="44.354539325527846" lon="9.212570920256532"><ele>11.0</ele><time>2026-04-03T14:09:31.001Z</time></trkpt><trkpt lat="44.35459221477184" lon="9.212472537787233"><ele>11.0</ele><time>2026-04-03T14:09:32.001Z</time></trkpt><trkpt lat="44.35464870311583" lon="9.212374607825357"><ele>11.0</ele><time>2026-04-03T14:09:33.001Z</time></trkpt><trkpt lat="44.35471227862861" lon="9.212280120293629"><ele>11.0</ele><time>2026-04-03T14:09:34.001Z</time></trkpt><trkpt lat="44.354785485937505" lon="9.212191539750268"><ele>11.0</ele><time>2026-04-03T14:09:35.001Z</time></trkpt><trkpt lat="44.35485947686313" lon="9.212100798244851"><ele>11.200000000000001</ele><time>2026-04-03T14:09:36.001Z</time></trkpt><trkpt lat="44.3549269858699" lon="9.21200195485525"><ele>11.4</ele><time>2026-04-03T14:09:37.001Z</time></trkpt><trkpt lat="44.354992903605236" lon="9.211898193293939"><ele>11.6</ele><time>2026-04-03T14:09:38.001Z</time></trkpt><trkpt lat="44.35505739878349" lon="9.211791194842652"><ele>11.8</ele><time>2026-04-03T14:09:39.001Z</time></trkpt><trkpt lat="44.3551136379809" lon="9.211675052567438"><ele>12.0</ele><time>2026-04-03T14:09:40.001Z</time></trkpt><trkpt lat="44.35516677555514" lon="9.211564192846845"><ele>11.666666666666666</ele><time>2026-04-03T14:09:41.001Z</time></trkpt><trkpt lat="44.355220644928416" lon="9.211461823283907"><ele>11.333333333333334</ele><time>2026-04-03T14:09:42.001Z</time></trkpt><trkpt lat="44.35526990013898" lon="9.211371720402065"><ele>11.0</ele><time>2026-04-03T14:09:43.001Z</time></trkpt><trkpt lat="44.355316119785456" lon="9.211274669560042"><ele>10.666666666666668</ele><time>2026-04-03T14:09:44Z</time></trkpt><trkpt lat="44.355360326778474" lon="9.21118450809235"><ele>10.333333333333334</ele><time>2026-04-03T14:09:45Z</time></trkpt><trkpt lat="44.355403464709106" lon="9.211101553303335"><ele>10.0</ele><time>2026-04-03T14:09:46Z</time></trkpt><trkpt lat="44.355441475246316" lon="9.211024612935722"><ele>10.0</ele><time>2026-04-03T14:09:47Z</time></trkpt><trkpt lat="44.35551227635068" lon="9.210890121460789"><ele>10.0</ele><time>2026-04-03T14:09:49Z</time></trkpt><trkpt lat="44.355586469128845" lon="9.210769783712864"><ele>10.0</ele><time>2026-04-03T14:09:51Z</time></trkpt><trkpt lat="44.35563616866783" lon="9.210712306632905"><ele>10.0</ele><time>2026-04-03T14:09:52Z</time></trkpt><trkpt lat="44.355686631035304" lon="9.21063504618635"><ele>10.0</ele><time>2026-04-03T14:09:53Z</time></trkpt><trkpt lat="44.35573448556483" lon="9.210532907747204"><ele>10.2</ele><time>2026-04-03T14:09:54Z</time></trkpt><trkpt lat="44.35578099018724" lon="9.210421222109593"><ele>10.4</ele><time>2026-04-03T14:09:55Z</time></trkpt><trkpt lat="44.355805647926125" lon="9.210294287685727"><ele>10.600000000000001</ele><time>2026-04-03T14:09:56Z</time></trkpt><trkpt lat="44.3558407900067" lon="9.21017458278432"><ele>10.8</ele><time>2026-04-03T14:09:57Z</time></trkpt><trkpt lat="44.35593215750553" lon="9.21010683581636"><ele>11.0</ele><time>2026-04-03T14:09:58Z</time></trkpt><trkpt lat="44.355987668363554" lon="9.210030470410057"><ele>11.0</ele><time>2026-04-03T14:09:59Z</time></trkpt><trkpt lat="44.35605532479411" lon="9.209964630244064"><ele>11.0</ele><time>2026-04-03T14:10:00Z</time></trkpt><trkpt lat="44.35611957034742" lon="9.209917433608588"><ele>11.0</ele><time>2026-04-03T14:10:01Z</time></trkpt><trkpt lat="44.35619475812783" lon="9.209859442177724"><ele>11.0</ele><time>2026-04-03T14:10:02Z</time></trkpt><trkpt lat="44.35627331210542" lon="9.20981877237052"><ele>11.0</ele><time>2026-04-03T14:10:03Z</time></trkpt><trkpt lat="44.356349027725706" lon="9.209793044111265"><ele>11.0</ele><time>2026-04-03T14:10:04Z</time></trkpt><trkpt lat="44.356415262850966" lon="9.209777723103356"><ele>11.200000000000001</ele><time>2026-04-03T14:10:05Z</time></trkpt><trkpt lat="44.35651882000434" lon="9.209748613587292"><ele>11.4</ele><time>2026-04-03T14:10:07Z</time></trkpt><trkpt lat="44.35663016448407" lon="9.20971636648466"><ele>11.6</ele><time>2026-04-03T14:10:09Z</time></trkpt><trkpt lat="44.35671038080175" lon="9.209689005007991"><ele>11.8</ele><time>2026-04-03T14:10:10Z</time></trkpt><trkpt lat="44.35680357018724" lon="9.209656434085455"><ele>12.0</ele><time>2026-04-03T14:10:11Z</time></trkpt><trkpt lat="44.35691334634562" lon="9.209614239620143"><ele>12.0</ele><time>2026-04-03T14:10:12Z</time></trkpt><trkpt lat="44.357037796394245" lon="9.209569501443548"><ele>12.0</ele><time>2026-04-03T14:10:13Z</time></trkpt><trkpt lat="44.35717488992594" lon="9.209520266420101"><ele>12.0</ele><time>2026-04-03T14:10:14Z</time></trkpt><trkpt lat="44.35732344292995" lon="9.20946864028571"><ele>12.0</ele><time>2026-04-03T14:10:15Z</time></trkpt><trkpt lat="44.35747757287307" lon="9.209421404399077"><ele>15.0</ele><time>2026-04-03T14:10:16Z</time></trkpt><trkpt lat="44.35763022354361" lon="9.209376690142035"><ele>18.0</ele><time>2026-04-03T14:10:17Z</time></trkpt><trkpt lat="44.35778288945801" lon="9.20932758933606"><ele>21.0</ele><time>2026-04-03T14:10:18Z</time></trkpt><trkpt lat="44.35793727252558" lon="9.209278262845322"><ele>22.0</ele><time>2026-04-03T14:10:19Z</time></trkpt><trkpt lat="44.35809667782607" lon="9.209227692046506"><ele>23.0</ele><time>2026-04-03T14:10:20Z</time></trkpt><trkpt lat="44.358248488636775" lon="9.209158446950356"><ele>24.0</ele><time>2026-04-03T14:10:21Z</time></trkpt><trkpt lat="44.358415177676626" lon="9.2091289611467"><ele>24.0</ele><time>2026-04-03T14:10:22Z</time></trkpt><trkpt lat="44.35858051884064" lon="9.20907584119616"><ele>24.0</ele><time>2026-04-03T14:10:23Z</time></trkpt><trkpt lat="44.35874590858166" lon="9.208999192437444"><ele>24.0</ele><time>2026-04-03T14:10:24Z</time></trkpt><trkpt lat="44.358918051320856" lon="9.208944151872736"><ele>25.666666666666664</ele><time>2026-04-03T14:10:25Z</time></trkpt><trkpt lat="44.35909294207269" lon="9.208889507706036"><ele>27.333333333333332</ele><time>2026-04-03T14:10:26Z</time></trkpt><trkpt lat="44.359267452279965" lon="9.208834866978279"><ele>29.0</ele><time>2026-04-03T14:10:27Z</time></trkpt><trkpt lat="44.35944466716132" lon="9.208778676664615"><ele>29.0</ele><time>2026-04-03T14:10:28Z</time></trkpt><trkpt lat="44.35961290468355" lon="9.208743673460134"><ele>29.0</ele><time>2026-04-03T14:10:29Z</time></trkpt><trkpt lat="44.35975939165469" lon="9.208642675442595"><ele>29.0</ele><time>2026-04-03T14:10:30Z</time></trkpt><trkpt lat="44.35988911468286" lon="9.208507327689182"><ele>28.333333333333332</ele><time>2026-04-03T14:10:31Z</time></trkpt><trkpt lat="44.35998881923136" lon="9.208329317690083"><ele>27.666666666666664</ele><time>2026-04-03T14:10:32Z</time></trkpt><trkpt lat="44.36008227146652" lon="9.208126972917427"><ele>27.0</ele><time>2026-04-03T14:10:33Z</time></trkpt><trkpt lat="44.36014944985712" lon="9.207896579126306"><ele>28.666666666666664</ele><time>2026-04-03T14:10:34Z</time></trkpt><trkpt lat="44.36021752683081" lon="9.207674951229224"><ele>30.333333333333332</ele><time>2026-04-03T14:10:35Z</time></trkpt><trkpt lat="44.36029234408308" lon="9.207457878643767"><ele>32.0</ele><time>2026-04-03T14:10:36Z</time></trkpt><trkpt lat="44.360374225407014" lon="9.20724520713943"><ele>33.666666666666664</ele><time>2026-04-03T14:10:37Z</time></trkpt><trkpt lat="44.360455748401" lon="9.207040773890979"><ele>35.333333333333336</ele><time>2026-04-03T14:10:38Z</time></trkpt><trkpt lat="44.36052541330413" lon="9.206837305080764"><ele>37.0</ele><time>2026-04-03T14:10:39Z</time></trkpt><trkpt lat="44.36056299140076" lon="9.206626218166992"><ele>39.333333333333336</ele><time>2026-04-03T14:10:40Z</time></trkpt><trkpt lat="44.36056934895828" lon="9.206401940784694"><ele>41.666666666666664</ele><time>2026-04-03T14:10:41Z</time></trkpt><trkpt lat="44.36054992489451" lon="9.206164909546406"><ele>44.0</ele><time>2026-04-03T14:10:42Z</time></trkpt><trkpt lat="44.36050501966412" lon="9.205935506316354"><ele>44.0</ele><time>2026-04-03T14:10:43Z</time></trkpt><trkpt lat="44.360443999504305" lon="9.20570842851362"><ele>44.0</ele><time>2026-04-03T14:10:44Z</time></trkpt><trkpt lat="44.36038886229471" lon="9.205478293906536"><ele>44.0</ele><time>2026-04-03T14:10:45Z</time></trkpt><trkpt lat="44.3603517508588" lon="9.205233882679863"><ele>44.666666666666664</ele><time>2026-04-03T14:10:46Z</time></trkpt><trkpt lat="44.360336770232784" lon="9.204980019721795"><ele>45.333333333333336</ele><time>2026-04-03T14:10:47Z</time></trkpt><trkpt lat="44.36033921618894" lon="9.204714597052677"><ele>46.0</ele><time>2026-04-03T14:10:48Z</time></trkpt><trkpt lat="44.360356436798526" lon="9.204460841623309"><ele>46.0</ele><time>2026-04-03T14:10:49Z</time></trkpt><trkpt lat="44.36037590448835" lon="9.20419757850134"><ele>46.0</ele><time>2026-04-03T14:10:50Z</time></trkpt><trkpt lat="44.36039061438406" lon="9.203927963490548"><ele>46.0</ele><time>2026-04-03T14:10:51Z</time></trkpt><trkpt lat="44.36040302598452" lon="9.20365429282867"><ele>46.0</ele><time>2026-04-03T14:10:52Z</time></trkpt><trkpt lat="44.360412012376294" lon="9.20337830882842"><ele>46.0</ele><time>2026-04-03T14:10:53Z</time></trkpt><trkpt lat="44.36042257268316" lon="9.203088096113467"><ele>46.0</ele><time>2026-04-03T14:10:54Z</time></trkpt><trkpt lat="44.3604347201618" lon="9.202795253134024"><ele>47.0</ele><time>2026-04-03T14:10:55Z</time></trkpt><trkpt lat="44.360445904873345" lon="9.202491373221648"><ele>48.0</ele><time>2026-04-03T14:10:56Z</time></trkpt><trkpt lat="44.36045865656675" lon="9.202187194251305"><ele>49.0</ele><time>2026-04-03T14:10:57Z</time></trkpt><trkpt lat="44.36047687432026" lon="9.201878098936954"><ele>49.666666666666664</ele><time>2026-04-03T14:10:58Z</time></trkpt><trkpt lat="44.36049852355243" lon="9.201568408925851"><ele>50.33333333333333</ele><time>2026-04-03T14:10:59Z</time></trkpt><trkpt lat="44.36051861004312" lon="9.201255402125446"><ele>51.0</ele><time>2026-04-03T14:11:00Z</time></trkpt><trkpt lat="44.36053625362599" lon="9.200943205619936"><ele>59.33333333333333</ele><time>2026-04-03T14:11:01Z</time></trkpt><trkpt lat="44.36055516848959" lon="9.20063369637384"><ele>67.66666666666666</ele><time>2026-04-03T14:11:02Z</time></trkpt><trkpt lat="44.36057266239242" lon="9.200322026578519"><ele>76.0</ele><time>2026-04-03T14:11:03Z</time></trkpt><trkpt lat="44.360588235061044" lon="9.200008351736631"><ele>78.33333333333333</ele><time>2026-04-03T14:11:04Z</time></trkpt><trkpt lat="44.36060700213331" lon="9.199697912988118"><ele>80.66666666666667</ele><time>2026-04-03T14:11:05Z</time></trkpt><trkpt lat="44.36063229071645" lon="9.199384054198024"><ele>83.0</ele><time>2026-04-03T14:11:06Z</time></trkpt><trkpt lat="44.36066785917292" lon="9.199069031606012"><ele>81.0</ele><time>2026-04-03T14:11:07Z</time></trkpt><trkpt lat="44.36071492601565" lon="9.198762802262907"><ele>79.0</ele><time>2026-04-03T14:11:08Z</time></trkpt><trkpt lat="44.360775771784425" lon="9.198461177018622"><ele>77.0</ele><time>2026-04-03T14:11:09Z</time></trkpt><trkpt lat="44.36084385901369" lon="9.198161272407106"><ele>73.0</ele><time>2026-04-03T14:11:10Z</time></trkpt><trkpt lat="44.36091542011202" lon="9.197862565359683"><ele>69.0</ele><time>2026-04-03T14:11:11Z</time></trkpt><trkpt lat="44.3609919638119" lon="9.197566588400322"><ele>67.0</ele><time>2026-04-03T14:11:12Z</time></trkpt><trkpt lat="44.361077860777485" lon="9.19726735366666"><ele>65.0</ele><time>2026-04-03T14:11:13Z</time></trkpt><trkpt lat="44.36115901471333" lon="9.196963183690752"><ele>65.0</ele><time>2026-04-03T14:11:14Z</time></trkpt><trkpt lat="44.361227521270244" lon="9.19665493573826"><ele>65.0</ele><time>2026-04-03T14:11:15Z</time></trkpt><trkpt lat="44.36128748283563" lon="9.196334614202382"><ele>66.0</ele><time>2026-04-03T14:11:16Z</time></trkpt><trkpt lat="44.361335969459134" lon="9.19600017830711"><ele>67.0</ele><time>2026-04-03T14:11:17Z</time></trkpt><trkpt lat="44.36138192790534" lon="9.19567163671343"><ele>81.0</ele><time>2026-04-03T14:11:18Z</time></trkpt><trkpt lat="44.36141980850882" lon="9.195331395991536"><ele>95.0</ele><time>2026-04-03T14:11:19Z</time></trkpt><trkpt lat="44.36144855401034" lon="9.194985879455544"><ele>105.0</ele><time>2026-04-03T14:11:20Z</time></trkpt><trkpt lat="44.361474055040965" lon="9.19464560670702"><ele>115.0</ele><time>2026-04-03T14:11:21Z</time></trkpt><trkpt lat="44.361489657510354" lon="9.194304758316564"><ele>115.0</ele><time>2026-04-03T14:11:22Z</time></trkpt><trkpt lat="44.36148259670046" lon="9.19401877886705"><ele>115.0</ele><time>2026-04-03T14:11:23Z</time></trkpt><trkpt lat="44.361489569683314" lon="9.193698817661081"><ele>115.0</ele><time>2026-04-03T14:11:24Z</time></trkpt><trkpt lat="44.36150680120053" lon="9.19333865511311"><ele>97.5</ele><time>2026-04-03T14:11:25Z</time></trkpt><trkpt lat="44.361553482761195" lon="9.192971526742303"><ele>80.0</ele><time>2026-04-03T14:11:26Z</time></trkpt><trkpt lat="44.36166885914024" lon="9.192652437002991"><ele>76.0</ele><time>2026-04-03T14:11:27Z</time></trkpt><trkpt lat="44.36174855374538" lon="9.192333952550909"><ele>72.0</ele><time>2026-04-03T14:11:28Z</time></trkpt><trkpt lat="44.361820655045506" lon="9.19200455342386"><ele>72.0</ele><time>2026-04-03T14:11:29Z</time></trkpt><trkpt lat="44.36188094981963" lon="9.19167566074464"><ele>72.0</ele><time>2026-04-03T14:11:30Z</time></trkpt><trkpt lat="44.36194057714974" lon="9.191347942881066"><ele>74.5</ele><time>2026-04-03T14:11:31Z</time></trkpt><trkpt lat="44.3619913939466" lon="9.191019130494066"><ele>77.0</ele><time>2026-04-03T14:11:32Z</time></trkpt><trkpt lat="44.362048497809724" lon="9.190699611089853"><ele>76.0</ele><time>2026-04-03T14:11:33Z</time></trkpt><trkpt lat="44.362111689493524" lon="9.19037420267299"><ele>75.0</ele><time>2026-04-03T14:11:34Z</time></trkpt><trkpt lat="44.36215684659197" lon="9.190044171274423"><ele>94.0</ele><time>2026-04-03T14:11:35Z</time></trkpt><trkpt lat="44.36221313476941" lon="9.1897166003527"><ele>113.0</ele><time>2026-04-03T14:11:36Z</time></trkpt><trkpt lat="44.36226863476192" lon="9.189387461462832"><ele>113.0</ele><time>2026-04-03T14:11:37Z</time></trkpt><trkpt lat="44.36232694780577" lon="9.189058034607369"><ele>113.0</ele><time>2026-04-03T14:11:38Z</time></trkpt><trkpt lat="44.3623852478106" lon="9.188725446090418"><ele>109.0</ele><time>2026-04-03T14:11:39Z</time></trkpt><trkpt lat="44.362443519835544" lon="9.188392232566589"><ele>105.0</ele><time>2026-04-03T14:11:40Z</time></trkpt><trkpt lat="44.36249952901094" lon="9.188049714813847"><ele>104.0</ele><time>2026-04-03T14:11:41Z</time></trkpt><trkpt lat="44.362555014192154" lon="9.187707244353534"><ele>103.0</ele><time>2026-04-03T14:11:42Z</time></trkpt><trkpt lat="44.36261305819706" lon="9.187360149088828"><ele>102.5</ele><time>2026-04-03T14:11:43Z</time></trkpt><trkpt lat="44.36267496260747" lon="9.187012842876007"><ele>102.0</ele><time>2026-04-03T14:11:44Z</time></trkpt><trkpt lat="44.362744306246114" lon="9.186667759239105"><ele>104.5</ele><time>2026-04-03T14:11:45Z</time></trkpt><trkpt lat="44.362824802696714" lon="9.18632840608842"><ele>107.0</ele><time>2026-04-03T14:11:46Z</time></trkpt><trkpt lat="44.36292103250231" lon="9.186001605447323"><ele>113.5</ele><time>2026-04-03T14:11:47Z</time></trkpt><trkpt lat="44.36303632206794" lon="9.18568609327164"><ele>120.0</ele><time>2026-04-03T14:11:48Z</time></trkpt><trkpt lat="44.36317181117799" lon="9.185387192972561"><ele>120.0</ele><time>2026-04-03T14:11:49Z</time></trkpt><trkpt lat="44.36332303675351" lon="9.185110110970555"><ele>120.0</ele><time>2026-04-03T14:11:50Z</time></trkpt><trkpt lat="44.363482708380246" lon="9.184835496192315"><ele>121.5</ele><time>2026-04-03T14:11:51Z</time></trkpt><trkpt lat="44.363642729088184" lon="9.184567270273927"><ele>123.0</ele><time>2026-04-03T14:11:52Z</time></trkpt><trkpt lat="44.363801173269465" lon="9.184299615844163"><ele>128.0</ele><time>2026-04-03T14:11:53Z</time></trkpt><trkpt lat="44.363949597215246" lon="9.184026314608943"><ele>133.0</ele><time>2026-04-03T14:11:54Z</time></trkpt><trkpt lat="44.36408290161577" lon="9.183742148149825"><ele>133.0</ele><time>2026-04-03T14:11:55Z</time></trkpt><trkpt lat="44.36420292193978" lon="9.183446036125314"><ele>133.0</ele><time>2026-04-03T14:11:56Z</time></trkpt><trkpt lat="44.364307074398184" lon="9.18314060165433"><ele>145.5</ele><time>2026-04-03T14:11:57Z</time></trkpt><trkpt lat="44.36439555196617" lon="9.182825715408777"><ele>158.0</ele><time>2026-04-03T14:11:58Z</time></trkpt><trkpt lat="44.364472377223926" lon="9.182503329654773"><ele>179.5</ele><time>2026-04-03T14:11:59Z</time></trkpt><trkpt lat="44.364540910277654" lon="9.182184595166428"><ele>201.0</ele><time>2026-04-03T14:12:00Z</time></trkpt><trkpt lat="44.36460683492595" lon="9.181867886918644"><ele>201.0</ele><time>2026-04-03T14:12:01Z</time></trkpt><trkpt lat="44.36467009373954" lon="9.18155139506205"><ele>201.0</ele><time>2026-04-03T14:12:02Z</time></trkpt><trkpt lat="44.364736505754145" lon="9.18123226296838"><ele>206.5</ele><time>2026-04-03T14:12:03Z</time></trkpt><trkpt lat="44.36480112227129" lon="9.180913443077861"><ele>212.0</ele><time>2026-04-03T14:12:04Z</time></trkpt><trkpt lat="44.36486957122401" lon="9.18057130080589"><ele>233.0</ele><time>2026-04-03T14:12:05.073Z</time></trkpt><trkpt lat="44.364932573628565" lon="9.180255976036118"><ele>254.0</ele><time>2026-04-03T14:12:06.061Z</time></trkpt><trkpt lat="44.365481546262465" lon="9.17753727045213"><ele>385.0</ele><time>2026-04-03T14:12:10.034Z</time></trkpt><trkpt lat="44.36575395570958" lon="9.176210925659333"><ele>417.0</ele><time>2026-04-03T14:12:11.033Z</time></trkpt><trkpt lat="44.36602692382031" lon="9.17488320660502"><ele>497.0</ele><time>2026-04-03T14:12:12.034Z</time></trkpt><trkpt lat="44.36630160778379" lon="9.173563245481548"><ele>553.0</ele><time>2026-04-03T14:12:13.03Z</time></trkpt><trkpt lat="44.36657356489711" lon="9.172237534743429"><ele>530.0</ele><time>2026-04-03T14:12:14.029Z</time></trkpt><trkpt lat="44.36684764271619" lon="9.170905644485561"><ele>455.0</ele><time>2026-04-03T14:12:15.033Z</time></trkpt><trkpt lat="44.36711966476384" lon="9.169582272985354"><ele>410.0</ele><time>2026-04-03T14:12:16.031Z</time></trkpt><trkpt lat="44.36739582643967" lon="9.168252333415294"><ele>344.0</ele><time>2026-04-03T14:12:17.034Z</time></trkpt><trkpt lat="44.36767008897386" lon="9.166926379065838"><ele>282.0</ele><time>2026-04-03T14:12:18.034Z</time></trkpt><trkpt lat="44.36794350846259" lon="9.165601510890388"><ele>252.0</ele><time>2026-04-03T14:12:19.033Z</time></trkpt><trkpt lat="44.36821527950112" lon="9.164278918308117"><ele>178.0</ele><time>2026-04-03T14:12:20.03Z</time></trkpt><trkpt lat="44.36848867060564" lon="9.162946736215494"><ele>145.0</ele><time>2026-04-03T14:12:21.034Z</time></trkpt><trkpt lat="44.36876010293215" lon="9.161619546265888"><ele>131.0</ele><time>2026-04-03T14:12:22.034Z</time></trkpt><trkpt lat="44.368982455202506" lon="9.160550480606389"><ele>131.0</ele><time>2026-04-03T14:13:09Z</time></trkpt><trkpt lat="44.36903458551441" lon="9.160250280428224"><ele>131.0</ele><time>2026-04-03T14:13:10Z</time></trkpt><trkpt lat="44.369082273956224" lon="9.159930850873813"><ele>125.5</ele><time>2026-04-03T14:13:11Z</time></trkpt><trkpt lat="44.36912653588831" lon="9.159617020289836"><ele>120.0</ele><time>2026-04-03T14:13:12Z</time></trkpt><trkpt lat="44.369166937081864" lon="9.15929654742981"><ele>117.5</ele><time>2026-04-03T14:13:13Z</time></trkpt><trkpt lat="44.36920968619976" lon="9.158970847477363"><ele>115.0</ele><time>2026-04-03T14:13:13.999Z</time></trkpt><trkpt lat="44.3692486474588" lon="9.158646975762517"><ele>115.0</ele><time>2026-04-03T14:13:14.999Z</time></trkpt><trkpt lat="44.369291049029584" lon="9.158319239296494"><ele>115.0</ele><time>2026-04-03T14:13:15.999Z</time></trkpt><trkpt lat="44.36933761445036" lon="9.157995069866272"><ele>109.0</ele><time>2026-04-03T14:13:16.999Z</time></trkpt><trkpt lat="44.36938106192013" lon="9.157670252163298"><ele>103.0</ele><time>2026-04-03T14:13:17.999Z</time></trkpt><trkpt lat="44.36942610538913" lon="9.157346770645763"><ele>94.0</ele><time>2026-04-03T14:13:18.999Z</time></trkpt><trkpt lat="44.369474917156026" lon="9.157025249148424"><ele>85.0</ele><time>2026-04-03T14:13:19.999Z</time></trkpt><trkpt lat="44.369533649430174" lon="9.156706463659688"><ele>80.0</ele><time>2026-04-03T14:13:20.999Z</time></trkpt><trkpt lat="44.36960322350795" lon="9.156392295299622"><ele>75.0</ele><time>2026-04-03T14:13:21.999Z</time></trkpt><trkpt lat="44.369689559719816" lon="9.156089237303316"><ele>91.0</ele><time>2026-04-03T14:13:22.999Z</time></trkpt><trkpt lat="44.36979199103018" lon="9.155793300354912"><ele>107.0</ele><time>2026-04-03T14:13:23.999Z</time></trkpt><trkpt lat="44.36990841723888" lon="9.155507605021478"><ele>107.0</ele><time>2026-04-03T14:13:24.999Z</time></trkpt><trkpt lat="44.37003807148313" lon="9.155230593555723"><ele>107.0</ele><time>2026-04-03T14:13:25.999Z</time></trkpt><trkpt lat="44.370181159029194" lon="9.154963585167385"><ele>100.5</ele><time>2026-04-03T14:13:26.999Z</time></trkpt><trkpt lat="44.37034706128878" lon="9.154714742177427"><ele>94.0</ele><time>2026-04-03T14:13:27.999Z</time></trkpt><trkpt lat="44.37051663469823" lon="9.154472436375944"><ele>87.0</ele><time>2026-04-03T14:13:28.999Z</time></trkpt><trkpt lat="44.37069716104409" lon="9.154244429441086"><ele>80.0</ele><time>2026-04-03T14:13:29.999Z</time></trkpt><trkpt lat="44.37089528475095" lon="9.154033327776826"><ele>80.0</ele><time>2026-04-03T14:13:30.999Z</time></trkpt><trkpt lat="44.371104933964304" lon="9.153838535259446"><ele>80.0</ele><time>2026-04-03T14:13:31.999Z</time></trkpt><trkpt lat="44.371321691323566" lon="9.153662138339566"><ele>83.5</ele><time>2026-04-03T14:13:32.999Z</time></trkpt><trkpt lat="44.371548779685206" lon="9.153493627494683"><ele>87.0</ele><time>2026-04-03T14:13:33.999Z</time></trkpt><trkpt lat="44.371772506249656" lon="9.153325708662509"><ele>72.5</ele><time>2026-04-03T14:13:34.999Z</time></trkpt><trkpt lat="44.37200590838761" lon="9.153158371431239"><ele>58.0</ele><time>2026-04-03T14:13:35.999Z</time></trkpt><trkpt lat="44.372236253608044" lon="9.152987995433783"><ele>58.0</ele><time>2026-04-03T14:13:36.999Z</time></trkpt><trkpt lat="44.372463070639974" lon="9.15280681365269"><ele>58.0</ele><time>2026-04-03T14:13:37.999Z</time></trkpt><trkpt lat="44.37268273862916" lon="9.152606036446008"><ele>58.0</ele><time>2026-04-03T14:13:38.999Z</time></trkpt><trkpt lat="44.3728947173155" lon="9.152390286071277"><ele>58.0</ele><time>2026-04-03T14:13:39.999Z</time></trkpt><trkpt lat="44.37309624746658" lon="9.152161694345855"><ele>43.5</ele><time>2026-04-03T14:13:40.999Z</time></trkpt><trkpt lat="44.37329525436224" lon="9.151919883826578"><ele>29.0</ele><time>2026-04-03T14:13:42Z</time></trkpt><trkpt lat="44.373483186461975" lon="9.151677555548519"><ele>27.0</ele><time>2026-04-03T14:13:43Z</time></trkpt><trkpt lat="44.37366748870974" lon="9.151424529071202"><ele>25.0</ele><time>2026-04-03T14:13:44Z</time></trkpt><trkpt lat="44.37383887716655" lon="9.151162332091486"><ele>22.0</ele><time>2026-04-03T14:13:45Z</time></trkpt><trkpt lat="44.37399893196556" lon="9.15088932713092"><ele>19.0</ele><time>2026-04-03T14:13:46Z</time></trkpt><trkpt lat="44.374153201708204" lon="9.150605227413196"><ele>25.5</ele><time>2026-04-03T14:13:47Z</time></trkpt><trkpt lat="44.374297378455246" lon="9.150317988482604"><ele>32.0</ele><time>2026-04-03T14:13:48Z</time></trkpt><trkpt lat="44.374436523117595" lon="9.150023100296192"><ele>42.0</ele><time>2026-04-03T14:13:49Z</time></trkpt><trkpt lat="44.374568495589216" lon="9.149725110671406"><ele>52.0</ele><time>2026-04-03T14:13:50Z</time></trkpt><trkpt lat="44.37469705844407" lon="9.149423851747127"><ele>59.0</ele><time>2026-04-03T14:13:51Z</time></trkpt><trkpt lat="44.37482199745284" lon="9.14912349494236"><ele>66.0</ele><time>2026-04-03T14:13:52Z</time></trkpt><trkpt lat="44.37494646717521" lon="9.148825912798594"><ele>78.5</ele><time>2026-04-03T14:13:53Z</time></trkpt><trkpt lat="44.3750760076937" lon="9.1485323169986"><ele>91.0</ele><time>2026-04-03T14:13:54Z</time></trkpt><trkpt lat="44.37521217426163" lon="9.148248642411701"><ele>100.5</ele><time>2026-04-03T14:13:55Z</time></trkpt><trkpt lat="44.37535593482973" lon="9.147968381782109"><ele>110.0</ele><time>2026-04-03T14:13:56Z</time></trkpt><trkpt lat="44.375499966012804" lon="9.147696288428639"><ele>104.5</ele><time>2026-04-03T14:13:57Z</time></trkpt><trkpt lat="44.375645918870056" lon="9.147429203049587"><ele>99.0</ele><time>2026-04-03T14:13:58Z</time></trkpt><trkpt lat="44.37579462366008" lon="9.147162876012871"><ele>99.0</ele><time>2026-04-03T14:13:59Z</time></trkpt><trkpt lat="44.3759442877382" lon="9.146902651532079"><ele>99.0</ele><time>2026-04-03T14:14:00Z</time></trkpt><trkpt lat="44.3760951966936" lon="9.146643138718778"><ele>93.0</ele><time>2026-04-03T14:14:01Z</time></trkpt><trkpt lat="44.37624491423558" lon="9.146386633784982"><ele>87.0</ele><time>2026-04-03T14:14:02Z</time></trkpt><trkpt lat="44.37639066891836" lon="9.1461299507914"><ele>87.0</ele><time>2026-04-03T14:14:03Z</time></trkpt><trkpt lat="44.3765297030912" lon="9.145868799413195"><ele>87.0</ele><time>2026-04-03T14:14:04Z</time></trkpt><trkpt lat="44.37666065259004" lon="9.145597564296006"><ele>99.5</ele><time>2026-04-03T14:14:05Z</time></trkpt><trkpt lat="44.37677827156484" lon="9.145319115875601"><ele>112.0</ele><time>2026-04-03T14:14:06Z</time></trkpt><trkpt lat="44.376884708200784" lon="9.14503036020958"><ele>115.0</ele><time>2026-04-03T14:14:07Z</time></trkpt><trkpt lat="44.37698144967654" lon="9.144730885454871"><ele>118.0</ele><time>2026-04-03T14:14:08Z</time></trkpt><trkpt lat="44.377067971165104" lon="9.14442443543643"><ele>118.0</ele><time>2026-04-03T14:14:09Z</time></trkpt><trkpt lat="44.37714467528694" lon="9.144113847982348"><ele>118.0</ele><time>2026-04-03T14:14:10Z</time></trkpt><trkpt lat="44.37721059277659" lon="9.143798731115593"><ele>115.0</ele><time>2026-04-03T14:14:11Z</time></trkpt><trkpt lat="44.37726477910665" lon="9.143480919682572"><ele>112.0</ele><time>2026-04-03T14:14:12Z</time></trkpt><trkpt lat="44.377305438026276" lon="9.143159281793745"><ele>118.5</ele><time>2026-04-03T14:14:13Z</time></trkpt><trkpt lat="44.377339162372564" lon="9.142835226525321"><ele>125.0</ele><time>2026-04-03T14:14:14Z</time></trkpt><trkpt lat="44.37736562337701" lon="9.142509091706918"><ele>136.0</ele><time>2026-04-03T14:14:15Z</time></trkpt><trkpt lat="44.377394017524246" lon="9.142181453049213"><ele>147.0</ele><time>2026-04-03T14:14:16Z</time></trkpt><trkpt lat="44.377422109048595" lon="9.141854821300265"><ele>154.5</ele><time>2026-04-03T14:14:17Z</time></trkpt><trkpt lat="44.37744474760198" lon="9.141529784256416"><ele>162.0</ele><time>2026-04-03T14:14:18Z</time></trkpt><trkpt lat="44.37746361305467" lon="9.141211126135419"><ele>162.0</ele><time>2026-04-03T14:14:19Z</time></trkpt><trkpt lat="44.37748297881502" lon="9.14089218441921"><ele>162.0</ele><time>2026-04-03T14:14:20Z</time></trkpt><trkpt lat="44.37750180204873" lon="9.140572793555881"><ele>170.5</ele><time>2026-04-03T14:14:21Z</time></trkpt><trkpt lat="44.37752169234961" lon="9.140249420761517"><ele>179.0</ele><time>2026-04-03T14:14:22Z</time></trkpt><trkpt lat="44.37753990855027" lon="9.13993089970007"><ele>186.0</ele><time>2026-04-03T14:14:23Z</time></trkpt><trkpt lat="44.377560803819726" lon="9.139582680432351"><ele>193.0</ele><time>2026-04-03T14:14:24.077Z</time></trkpt><trkpt lat="44.37758107381516" lon="9.139264763394616"><ele>199.5</ele><time>2026-04-03T14:14:25.062Z</time></trkpt><trkpt lat="44.37760271929524" lon="9.138945380268842"><ele>206.0</ele><time>2026-04-03T14:14:26.061Z</time></trkpt><trkpt lat="44.37788839940585" lon="9.136147995275394"><ele>309.0</ele><time>2026-04-03T14:14:30.033Z</time></trkpt><trkpt lat="44.37800918389226" lon="9.134778058276687"><ele>370.0</ele><time>2026-04-03T14:14:31.033Z</time></trkpt><trkpt lat="44.37812860862283" lon="9.133407910031165"><ele>409.0</ele><time>2026-04-03T14:14:32.033Z</time></trkpt><trkpt lat="44.37824555453637" lon="9.132037357840243"><ele>480.0</ele><time>2026-04-03T14:14:33.033Z</time></trkpt><trkpt lat="44.378362191195095" lon="9.130666650828864"><ele>520.0</ele><time>2026-04-03T14:14:34.033Z</time></trkpt><trkpt lat="44.37847885273468" lon="9.129296061446865"><ele>495.0</ele><time>2026-04-03T14:14:35.033Z</time></trkpt><trkpt lat="44.37859522657508" lon="9.12793204289225"><ele>438.0</ele><time>2026-04-03T14:14:36.028Z</time></trkpt><trkpt lat="44.37871291780354" lon="9.126555449278227"><ele>411.0</ele><time>2026-04-03T14:14:37.033Z</time></trkpt><trkpt lat="44.37882965385823" lon="9.125190348092085"><ele>361.0</ele><time>2026-04-03T14:14:38.029Z</time></trkpt><trkpt lat="44.378947875537904" lon="9.123814069614895"><ele>332.0</ele><time>2026-04-03T14:14:39.033Z</time></trkpt><trkpt lat="44.37906817191034" lon="9.122446675071627"><ele>263.0</ele><time>2026-04-03T14:14:40.031Z</time></trkpt><trkpt lat="44.379188550242176" lon="9.121073805387505"><ele>198.0</ele><time>2026-04-03T14:14:41.033Z</time></trkpt><trkpt lat="44.37930876023769" lon="9.119703737023311"><ele>170.0</ele><time>2026-04-03T14:14:42.033Z</time></trkpt><trkpt lat="44.379426587883" lon="9.118333314638491"><ele>165.0</ele><time>2026-04-03T14:14:43.033Z</time></trkpt><trkpt lat="44.379921653964736" lon="9.117512016517459"><ele>161.0</ele><time>2026-04-03T14:15:29.999Z</time></trkpt><trkpt lat="44.37962501724444" lon="9.116832738707757"><ele>161.0</ele><time>2026-04-03T14:15:30.999Z</time></trkpt><trkpt lat="44.37961336879265" lon="9.116440960743219"><ele>161.0</ele><time>2026-04-03T14:15:31.999Z</time></trkpt><trkpt lat="44.37963331201182" lon="9.116069064855079"><ele>163.5</ele><time>2026-04-03T14:15:32.999Z</time></trkpt><trkpt lat="44.37964956362542" lon="9.115697477800182"><ele>166.0</ele><time>2026-04-03T14:15:33.999Z</time></trkpt><trkpt lat="44.37967237152947" lon="9.115327242466837"><ele>145.0</ele><time>2026-04-03T14:15:34.999Z</time></trkpt><trkpt lat="44.379697648326484" lon="9.114953474256556"><ele>124.0</ele><time>2026-04-03T14:15:35.999Z</time></trkpt><trkpt lat="44.379726988334305" lon="9.114580130064915"><ele>123.5</ele><time>2026-04-03T14:15:36.999Z</time></trkpt><trkpt lat="44.37975521170592" lon="9.114207976043117"><ele>123.0</ele><time>2026-04-03T14:15:37.999Z</time></trkpt><trkpt lat="44.379785816046855" lon="9.113834933353802"><ele>123.5</ele><time>2026-04-03T14:15:38.999Z</time></trkpt><trkpt lat="44.379816830409446" lon="9.113458553785872"><ele>124.0</ele><time>2026-04-03T14:15:39.999Z</time></trkpt><trkpt lat="44.379848341533815" lon="9.113086460402908"><ele>124.0</ele><time>2026-04-03T14:15:40.999Z</time></trkpt><trkpt lat="44.37987910219848" lon="9.112712945292746"><ele>124.0</ele><time>2026-04-03T14:15:41.999Z</time></trkpt><trkpt lat="44.379910101662304" lon="9.11234537674016"><ele>124.0</ele><time>2026-04-03T14:15:42.999Z</time></trkpt><trkpt lat="44.37994223951898" lon="9.111977326170805"><ele>124.0</ele><time>2026-04-03T14:15:43.999Z</time></trkpt><trkpt lat="44.37997017226981" lon="9.111612025190002"><ele>110.0</ele><time>2026-04-03T14:15:44.999Z</time></trkpt><trkpt lat="44.37999831959707" lon="9.11124864481562"><ele>96.0</ele><time>2026-04-03T14:15:45.999Z</time></trkpt><trkpt lat="44.38002721968768" lon="9.11088753550928"><ele>78.5</ele><time>2026-04-03T14:15:46.999Z</time></trkpt><trkpt lat="44.380058140492935" lon="9.110532017263397"><ele>61.0</ele><time>2026-04-03T14:15:48Z</time></trkpt><trkpt lat="44.38009077020452" lon="9.11017910123729"><ele>49.0</ele><time>2026-04-03T14:15:49Z</time></trkpt><trkpt lat="44.380122194597654" lon="9.109831475515104"><ele>37.0</ele><time>2026-04-03T14:15:50Z</time></trkpt><trkpt lat="44.38015304090158" lon="9.109481910649842"><ele>37.0</ele><time>2026-04-03T14:15:51Z</time></trkpt><trkpt lat="44.38018367579286" lon="9.109137526598168"><ele>37.0</ele><time>2026-04-03T14:15:52Z</time></trkpt><trkpt lat="44.380213669004" lon="9.108792972639954"><ele>40.0</ele><time>2026-04-03T14:15:53Z</time></trkpt><trkpt lat="44.380241978507" lon="9.10845071800685"><ele>43.0</ele><time>2026-04-03T14:15:54Z</time></trkpt><trkpt lat="44.38027209538415" lon="9.10810332063959"><ele>57.0</ele><time>2026-04-03T14:15:55Z</time></trkpt><trkpt lat="44.38030140140141" lon="9.107757200476463"><ele>71.0</ele><time>2026-04-03T14:15:56Z</time></trkpt><trkpt lat="44.38033514239991" lon="9.10741527396201"><ele>86.5</ele><time>2026-04-03T14:15:57Z</time></trkpt><trkpt lat="44.38038247783517" lon="9.10707203295623"><ele>102.0</ele><time>2026-04-03T14:15:58Z</time></trkpt><trkpt lat="44.38044836644701" lon="9.106738210382982"><ele>113.5</ele><time>2026-04-03T14:15:59Z</time></trkpt><trkpt lat="44.380531376546266" lon="9.106428871423809"><ele>125.0</ele><time>2026-04-03T14:16:00Z</time></trkpt><trkpt lat="44.38063541059234" lon="9.106114899008375"><ele>125.0</ele><time>2026-04-03T14:16:01Z</time></trkpt><trkpt lat="44.38074980272911" lon="9.105819641620606"><ele>125.0</ele><time>2026-04-03T14:16:02Z</time></trkpt><trkpt lat="44.38087710687447" lon="9.105534391522617"><ele>133.5</ele><time>2026-04-03T14:16:03Z</time></trkpt><trkpt lat="44.38101750985053" lon="9.105260140581061"><ele>142.0</ele><time>2026-04-03T14:16:04Z</time></trkpt><trkpt lat="44.38116919352721" lon="9.105004079490193"><ele>138.5</ele><time>2026-04-03T14:16:05Z</time></trkpt><trkpt lat="44.381335899188315" lon="9.104758005118383"><ele>135.0</ele><time>2026-04-03T14:16:06Z</time></trkpt><trkpt lat="44.38151275717771" lon="9.104528429654351"><ele>135.0</ele><time>2026-04-03T14:16:07Z</time></trkpt><trkpt lat="44.381700963732904" lon="9.10431769854846"><ele>135.0</ele><time>2026-04-03T14:16:08Z</time></trkpt><trkpt lat="44.381899664656096" lon="9.104125315077864"><ele>141.5</ele><time>2026-04-03T14:16:09Z</time></trkpt><trkpt lat="44.38210621782786" lon="9.103952045026842"><ele>148.0</ele><time>2026-04-03T14:16:10Z</time></trkpt><trkpt lat="44.38231937032974" lon="9.10379051334224"><ele>148.0</ele><time>2026-04-03T14:16:11Z</time></trkpt><trkpt lat="44.38252985245825" lon="9.1036333122659"><ele>148.0</ele><time>2026-04-03T14:16:12Z</time></trkpt><trkpt lat="44.38273838502266" lon="9.103473329904194"><ele>148.0</ele><time>2026-04-03T14:16:13Z</time></trkpt><trkpt lat="44.382943068558426" lon="9.103304273301278"><ele>148.0</ele><time>2026-04-03T14:16:14Z</time></trkpt><trkpt lat="44.38314187412165" lon="9.103128362747077"><ele>152.0</ele><time>2026-04-03T14:16:15Z</time></trkpt><trkpt lat="44.38333467063982" lon="9.10293761833728"><ele>156.0</ele><time>2026-04-03T14:16:16Z</time></trkpt><trkpt lat="44.383519945107146" lon="9.102735617291332"><ele>156.0</ele><time>2026-04-03T14:16:17Z</time></trkpt><trkpt lat="44.38370057825975" lon="9.102522119305851"><ele>156.0</ele><time>2026-04-03T14:16:18Z</time></trkpt><trkpt lat="44.383877326160786" lon="9.102296275437403"><ele>147.5</ele><time>2026-04-03T14:16:19Z</time></trkpt><trkpt lat="44.38404685575741" lon="9.102062602487695"><ele>139.0</ele><time>2026-04-03T14:16:20Z</time></trkpt><trkpt lat="44.38420934697998" lon="9.101816347001472"><ele>155.5</ele><time>2026-04-03T14:16:21Z</time></trkpt><trkpt lat="44.38436814085922" lon="9.101558614816652"><ele>172.0</ele><time>2026-04-03T14:16:22Z</time></trkpt><trkpt lat="44.38452409456279" lon="9.101302497284777"><ele>154.0</ele><time>2026-04-03T14:16:23Z</time></trkpt><trkpt lat="44.384684445532244" lon="9.101047728473178"><ele>136.0</ele><time>2026-04-03T14:16:24Z</time></trkpt><trkpt lat="44.38484787151694" lon="9.100795528733087"><ele>151.0</ele><time>2026-04-03T14:16:25Z</time></trkpt><trkpt lat="44.38501173402923" lon="9.100548573676685"><ele>166.0</ele><time>2026-04-03T14:16:26Z</time></trkpt><trkpt lat="44.38517478374744" lon="9.100298979586228"><ele>166.0</ele><time>2026-04-03T14:16:27Z</time></trkpt><trkpt lat="44.38533704059523" lon="9.100049125973753"><ele>166.0</ele><time>2026-04-03T14:16:28Z</time></trkpt><trkpt lat="44.38549677270128" lon="9.099800019131921"><ele>152.0</ele><time>2026-04-03T14:16:29Z</time></trkpt><trkpt lat="44.38565229968285" lon="9.099545735110338"><ele>138.0</ele><time>2026-04-03T14:16:30Z</time></trkpt><trkpt lat="44.38580187507474" lon="9.099286527827271"><ele>152.0</ele><time>2026-04-03T14:16:31Z</time></trkpt><trkpt lat="44.385939142330464" lon="9.099014077328315"><ele>166.0</ele><time>2026-04-03T14:16:32Z</time></trkpt><trkpt lat="44.38606618985585" lon="9.098733438378597"><ele>166.0</ele><time>2026-04-03T14:16:33Z</time></trkpt><trkpt lat="44.38618026974144" lon="9.098442839502704"><ele>166.0</ele><time>2026-04-03T14:16:34Z</time></trkpt><trkpt lat="44.386286483979795" lon="9.098148057469201"><ele>189.5</ele><time>2026-04-03T14:16:35Z</time></trkpt><trkpt lat="44.38638766108371" lon="9.097850767748605"><ele>213.0</ele><time>2026-04-03T14:16:36Z</time></trkpt><trkpt lat="44.3864820007229" lon="9.097558760044544"><ele>227.0</ele><time>2026-04-03T14:16:37Z</time></trkpt><trkpt lat="44.38657669702534" lon="9.097267877166162"><ele>241.0</ele><time>2026-04-03T14:16:38Z</time></trkpt><trkpt lat="44.3866718233511" lon="9.096977361412396"><ele>241.0</ele><time>2026-04-03T14:16:39Z</time></trkpt><trkpt lat="44.38676594699449" lon="9.0966829942329"><ele>241.0</ele><time>2026-04-03T14:16:40Z</time></trkpt><trkpt lat="44.38685901809819" lon="9.096362178523796"><ele>252.0</ele><time>2026-04-03T14:16:41.072Z</time></trkpt><trkpt lat="44.38691446323377" lon="9.096054011849153"><ele>263.0</ele><time>2026-04-03T14:16:42.062Z</time></trkpt><trkpt lat="44.386986183861964" lon="9.095746731875709"><ele>267.0</ele><time>2026-04-03T14:16:43.062Z</time></trkpt><trkpt lat="44.38705650554587" lon="9.095445445587107"><ele>271.0</ele><time>2026-04-03T14:16:44.059Z</time></trkpt><trkpt lat="44.38761743273937" lon="9.092724945755279"><ele>140.0</ele><time>2026-04-03T14:16:48.029Z</time></trkpt><trkpt lat="44.38949989022623" lon="9.081799489580405"><ele>136.0</ele><time>2026-04-03T14:17:25.999Z</time></trkpt><trkpt lat="44.38948937873942" lon="9.081462415099903"><ele>132.0</ele><time>2026-04-03T14:17:26.999Z</time></trkpt><trkpt lat="44.38949643299474" lon="9.081116369679751"><ele>132.0</ele><time>2026-04-03T14:17:27.999Z</time></trkpt><trkpt lat="44.389475173431585" lon="9.08079390981251"><ele>132.0</ele><time>2026-04-03T14:17:28.999Z</time></trkpt><trkpt lat="44.38944839233808" lon="9.08045750021938"><ele>139.0</ele><time>2026-04-03T14:17:29.999Z</time></trkpt><trkpt lat="44.38943500103264" lon="9.080122057735343"><ele>146.0</ele><time>2026-04-03T14:17:30.999Z</time></trkpt><trkpt lat="44.38941866451079" lon="9.079795042888405"><ele>150.0</ele><time>2026-04-03T14:17:31.999Z</time></trkpt><trkpt lat="44.389406707779976" lon="9.07946515153095"><ele>154.0</ele><time>2026-04-03T14:17:32.999Z</time></trkpt><trkpt lat="44.389394121990236" lon="9.079133209431495"><ele>157.5</ele><time>2026-04-03T14:17:33.999Z</time></trkpt><trkpt lat="44.389374543747515" lon="9.078801119348945"><ele>161.0</ele><time>2026-04-03T14:17:34.999Z</time></trkpt><trkpt lat="44.38935636916052" lon="9.078469110732609"><ele>172.5</ele><time>2026-04-03T14:17:35.999Z</time></trkpt><trkpt lat="44.38933994848974" lon="9.078137889238313"><ele>184.0</ele><time>2026-04-03T14:17:36.999Z</time></trkpt><trkpt lat="44.38932424690229" lon="9.077806969550101"><ele>184.0</ele><time>2026-04-03T14:17:37.999Z</time></trkpt><trkpt lat="44.38931182377442" lon="9.077473384306659"><ele>184.0</ele><time>2026-04-03T14:17:38.999Z</time></trkpt><trkpt lat="44.38930410945685" lon="9.077136288974117"><ele>201.0</ele><time>2026-04-03T14:17:39.999Z</time></trkpt><trkpt lat="44.38930224905978" lon="9.076795502646645"><ele>218.0</ele><time>2026-04-03T14:17:40.999Z</time></trkpt><trkpt lat="44.38930095890662" lon="9.076458410684825"><ele>236.0</ele><time>2026-04-03T14:17:41.999Z</time></trkpt><trkpt lat="44.389298639448114" lon="9.076120959954881"><ele>254.0</ele><time>2026-04-03T14:17:42.999Z</time></trkpt><trkpt lat="44.389284083806174" lon="9.07575957476848"><ele>274.0</ele><time>2026-04-03T14:17:44.072Z</time></trkpt><trkpt lat="44.38926840633708" lon="9.075429832723266"><ele>294.0</ele><time>2026-04-03T14:17:45.055Z</time></trkpt><trkpt lat="44.389252384479306" lon="9.075092845812655"><ele>295.5</ele><time>2026-04-03T14:17:46.055Z</time></trkpt><trkpt lat="44.38923631440035" lon="9.074754845728592"><ele>297.0</ele><time>2026-04-03T14:17:47.055Z</time></trkpt><trkpt lat="44.38922031853579" lon="9.07441763159373"><ele>283.5</ele><time>2026-04-03T14:17:48.045Z</time></trkpt><trkpt lat="44.38920440434361" lon="9.074081994250394"><ele>270.0</ele><time>2026-04-03T14:17:49.037Z</time></trkpt><trkpt lat="44.38900674936888" lon="9.071273138320546"><ele>178.0</ele><time>2026-04-03T14:17:53.029Z</time></trkpt><trkpt lat="44.38903994718361" lon="9.069706600464007"><ele>178.0</ele><time>2026-04-03T14:18:01.999Z</time></trkpt><trkpt lat="44.38914761558204" lon="9.069868685907947"><ele>178.0</ele><time>2026-04-03T14:18:02.999Z</time></trkpt><trkpt lat="44.388985973888055" lon="9.069500322903032"><ele>187.0</ele><time>2026-04-03T14:18:03.999Z</time></trkpt><trkpt lat="44.388965913230095" lon="9.06909298944813"><ele>196.0</ele><time>2026-04-03T14:18:04.999Z</time></trkpt><trkpt lat="44.38894577435661" lon="9.06866560288727"><ele>196.0</ele><time>2026-04-03T14:18:05.999Z</time></trkpt><trkpt lat="44.38893028862743" lon="9.068281121407159"><ele>196.0</ele><time>2026-04-03T14:18:06.999Z</time></trkpt><trkpt lat="44.38891089719075" lon="9.06793858755791"><ele>196.5</ele><time>2026-04-03T14:18:08Z</time></trkpt><trkpt lat="44.388919474557056" lon="9.067609750992672"><ele>197.0</ele><time>2026-04-03T14:18:09Z</time></trkpt><trkpt lat="44.388946941877414" lon="9.067289017327642"><ele>210.5</ele><time>2026-04-03T14:18:10Z</time></trkpt><trkpt lat="44.38898644413544" lon="9.066968600798447"><ele>224.0</ele><time>2026-04-03T14:18:11Z</time></trkpt><trkpt lat="44.389022929603854" lon="9.066644304973144"><ele>243.5</ele><time>2026-04-03T14:18:12Z</time></trkpt><trkpt lat="44.389059188652155" lon="9.066318203299407"><ele>263.0</ele><time>2026-04-03T14:18:13Z</time></trkpt><trkpt lat="44.38909049086781" lon="9.065991796239508"><ele>271.5</ele><time>2026-04-03T14:18:14Z</time></trkpt><trkpt lat="44.3891191371399" lon="9.06566673618694"><ele>280.0</ele><time>2026-04-03T14:18:15Z</time></trkpt><trkpt lat="44.38919970269467" lon="9.065359968895196"><ele>280.0</ele><time>2026-04-03T14:18:16Z</time></trkpt><trkpt lat="44.38927149840935" lon="9.06502628713647"><ele>280.0</ele><time>2026-04-03T14:18:17.07Z</time></trkpt><trkpt lat="44.389339288622836" lon="9.064712929162345"><ele>289.0</ele><time>2026-04-03T14:18:18.057Z</time></trkpt><trkpt lat="44.38940654595831" lon="9.06440203450828"><ele>298.0</ele><time>2026-04-03T14:18:19.056Z</time></trkpt><trkpt lat="44.389474246017926" lon="9.064089093234612"><ele>299.5</ele><time>2026-04-03T14:18:20.06Z</time></trkpt><trkpt lat="44.38954085830925" lon="9.063781180248808"><ele>301.0</ele><time>2026-04-03T14:18:21.059Z</time></trkpt><trkpt lat="44.389606643934826" lon="9.063477495478008"><ele>390.0</ele><time>2026-04-03T14:18:22.049Z</time></trkpt><trkpt lat="44.39025712844312" lon="9.060800272059353"><ele>457.0</ele><time>2026-04-03T14:18:26.03Z</time></trkpt><trkpt lat="44.390465674232935" lon="9.059842529695244"><ele>464.0</ele><time>2026-04-03T14:18:27.027Z</time></trkpt><trkpt lat="44.390675784324614" lon="9.058878805685616"><ele>445.0</ele><time>2026-04-03T14:18:28.03Z</time></trkpt><trkpt lat="44.39088515766551" lon="9.057920938767714"><ele>430.0</ele><time>2026-04-03T14:18:29.027Z</time></trkpt><trkpt lat="44.391095874754136" lon="9.056956924307332"><ele>409.0</ele><time>2026-04-03T14:18:30.031Z</time></trkpt><trkpt lat="44.39130488623275" lon="9.05599996827688"><ele>362.0</ele><time>2026-04-03T14:18:31.027Z</time></trkpt><trkpt lat="44.39151357271206" lon="9.055036513045202"><ele>336.0</ele><time>2026-04-03T14:18:32.03Z</time></trkpt><trkpt lat="44.39172134980653" lon="9.054073846840467"><ele>324.0</ele><time>2026-04-03T14:18:33.031Z</time></trkpt><trkpt lat="44.39192916225164" lon="9.053112494605006"><ele>306.0</ele><time>2026-04-03T14:18:34.031Z</time></trkpt><trkpt lat="44.39213639458014" lon="9.052154024344516"><ele>255.0</ele><time>2026-04-03T14:18:35.028Z</time></trkpt><trkpt lat="44.392344479340956" lon="9.051192926535274"><ele>228.0</ele><time>2026-04-03T14:18:36.028Z</time></trkpt><trkpt lat="44.39255458969379" lon="9.050229399926858"><ele>215.0</ele><time>2026-04-03T14:18:37.031Z</time></trkpt><trkpt lat="44.39272785354978" lon="9.049257666476812"><ele>184.0</ele><time>2026-04-03T14:18:38.028Z</time></trkpt><trkpt lat="44.39282876557296" lon="9.0482642405854"><ele>164.0</ele><time>2026-04-03T14:18:39.028Z</time></trkpt><trkpt lat="44.392858602837755" lon="9.047260976399414"><ele>149.0</ele><time>2026-04-03T14:18:40.029Z</time></trkpt><trkpt lat="44.39262304444742" lon="9.04561843366786"><ele>154.0</ele><time>2026-04-03T14:19:08.092Z</time></trkpt><trkpt lat="44.39284439734439" lon="9.046207648618088"><ele>154.0</ele><time>2026-04-03T14:19:14Z</time></trkpt><trkpt lat="44.39277158619702" lon="9.045798244558451"><ele>154.0</ele><time>2026-04-03T14:19:15Z</time></trkpt><trkpt lat="44.392783359287634" lon="9.045530061666332"><ele>152.33333333333334</ele><time>2026-04-03T14:19:16Z</time></trkpt><trkpt lat="44.392789822331466" lon="9.04522031861422"><ele>150.66666666666666</ele><time>2026-04-03T14:19:17Z</time></trkpt><trkpt lat="44.39277958793849" lon="9.04490508820764"><ele>149.0</ele><time>2026-04-03T14:19:18Z</time></trkpt><trkpt lat="44.39276321635006" lon="9.044588407609716"><ele>139.33333333333331</ele><time>2026-04-03T14:19:19Z</time></trkpt><trkpt lat="44.392745237044494" lon="9.044274691158742"><ele>129.66666666666666</ele><time>2026-04-03T14:19:20Z</time></trkpt><trkpt lat="44.39272672923824" lon="9.043962580528142"><ele>120.0</ele><time>2026-04-03T14:19:21Z</time></trkpt><trkpt lat="44.39271326221986" lon="9.043647454941762"><ele>103.5</ele><time>2026-04-03T14:19:22Z</time></trkpt><trkpt lat="44.39270078768858" lon="9.043334823738979"><ele>87.0</ele><time>2026-04-03T14:19:23Z</time></trkpt><trkpt lat="44.392683102141554" lon="9.04301570538059"><ele>76.5</ele><time>2026-04-03T14:19:24Z</time></trkpt><trkpt lat="44.3926632317128" lon="9.04270316305642"><ele>66.0</ele><time>2026-04-03T14:19:24.999Z</time></trkpt><trkpt lat="44.39264241194343" lon="9.042383952943812"><ele>62.5</ele><time>2026-04-03T14:19:25.999Z</time></trkpt><trkpt lat="44.39262586818252" lon="9.042064645130896"><ele>59.0</ele><time>2026-04-03T14:19:26.999Z</time></trkpt><trkpt lat="44.392611895111486" lon="9.041747671736573"><ele>65.0</ele><time>2026-04-03T14:19:27.999Z</time></trkpt><trkpt lat="44.39259673281057" lon="9.041428564835066"><ele>71.0</ele><time>2026-04-03T14:19:28.999Z</time></trkpt><trkpt lat="44.39258124269359" lon="9.041109107880333"><ele>95.5</ele><time>2026-04-03T14:19:29.999Z</time></trkpt><trkpt lat="44.39256477438772" lon="9.040791117216173"><ele>120.0</ele><time>2026-04-03T14:19:30.999Z</time></trkpt><trkpt lat="44.39254687229527" lon="9.04047126797545"><ele>120.0</ele><time>2026-04-03T14:19:31.999Z</time></trkpt><trkpt lat="44.392527925701415" lon="9.040152510154787"><ele>120.0</ele><time>2026-04-03T14:19:32.999Z</time></trkpt><trkpt lat="44.392512254733866" lon="9.039835937194182"><ele>131.0</ele><time>2026-04-03T14:19:33.999Z</time></trkpt><trkpt lat="44.392498417396794" lon="9.039521515279434"><ele>142.0</ele><time>2026-04-03T14:19:34.999Z</time></trkpt><trkpt lat="44.39248922740539" lon="9.03920287836619"><ele>149.5</ele><time>2026-04-03T14:19:35.999Z</time></trkpt><trkpt lat="44.39248226465973" lon="9.038882177674871"><ele>157.0</ele><time>2026-04-03T14:19:36.999Z</time></trkpt><trkpt lat="44.39247856524267" lon="9.038562263308524"><ele>168.0</ele><time>2026-04-03T14:19:37.999Z</time></trkpt><trkpt lat="44.39247975098715" lon="9.038251591833207"><ele>179.0</ele><time>2026-04-03T14:19:38.999Z</time></trkpt><trkpt lat="44.392484422422314" lon="9.037940692852208"><ele>190.0</ele><time>2026-04-03T14:19:39.999Z</time></trkpt><trkpt lat="44.392499317307326" lon="9.037624264132434"><ele>192.5</ele><time>2026-04-03T14:19:40.999Z</time></trkpt><trkpt lat="44.39251545654268" lon="9.037301376655646"><ele>195.0</ele><time>2026-04-03T14:19:41.999Z</time></trkpt><trkpt lat="44.3925313962806" lon="9.036967068224714"><ele>186.0</ele><time>2026-04-03T14:19:42.999Z</time></trkpt><trkpt lat="44.392545758883045" lon="9.036634504141203"><ele>177.0</ele><time>2026-04-03T14:19:43.999Z</time></trkpt><trkpt lat="44.39251471565512" lon="9.0363152227486"><ele>177.0</ele><time>2026-04-03T14:19:44.999Z</time></trkpt><trkpt lat="44.39249906757885" lon="9.035997716258624"><ele>177.0</ele><time>2026-04-03T14:19:45.999Z</time></trkpt><trkpt lat="44.39248169202674" lon="9.035645158955607"><ele>165.5</ele><time>2026-04-03T14:19:47.07Z</time></trkpt><trkpt lat="44.39246540161182" lon="9.035314617619102"><ele>154.0</ele><time>2026-04-03T14:19:48.065Z</time></trkpt><trkpt lat="44.39241163124602" lon="9.034701996872748"><ele>154.0</ele><time>2026-04-03T14:19:49.999Z</time></trkpt><trkpt lat="44.39239576278883" lon="9.034359116818102"><ele>154.0</ele><time>2026-04-03T14:19:50.999Z</time></trkpt><trkpt lat="44.3924045985086" lon="9.034034264059178"><ele>162.0</ele><time>2026-04-03T14:19:51.999Z</time></trkpt><trkpt lat="44.392417741160806" lon="9.033707122196073"><ele>170.0</ele><time>2026-04-03T14:19:52.999Z</time></trkpt><trkpt lat="44.39243798327473" lon="9.03338767279078"><ele>185.0</ele><time>2026-04-03T14:19:53.999Z</time></trkpt><trkpt lat="44.39246045561054" lon="9.03306669623275"><ele>200.0</ele><time>2026-04-03T14:19:54.999Z</time></trkpt><trkpt lat="44.39249396204181" lon="9.032752540907484"><ele>209.0</ele><time>2026-04-03T14:19:55.999Z</time></trkpt><trkpt lat="44.392535806510246" lon="9.032443329882833"><ele>218.0</ele><time>2026-04-03T14:19:56.999Z</time></trkpt><trkpt lat="44.3925819338865" lon="9.032139573995288"><ele>227.0</ele><time>2026-04-03T14:19:57.999Z</time></trkpt><trkpt lat="44.392627743945916" lon="9.031838468563448"><ele>234.0</ele><time>2026-04-03T14:19:58.999Z</time></trkpt><trkpt lat="44.39267158389148" lon="9.031535825281628"><ele>241.0</ele><time>2026-04-03T14:19:59.999Z</time></trkpt><trkpt lat="44.3927137471755" lon="9.031211082821038"><ele>241.0</ele><time>2026-04-03T14:20:01.074Z</time></trkpt><trkpt lat="44.392763627390764" lon="9.030921332414474"><ele>241.0</ele><time>2026-04-03T14:20:02.057Z</time></trkpt><trkpt lat="44.39280955550029" lon="9.030617495603847"><ele>241.0</ele><time>2026-04-03T14:20:03.058Z</time></trkpt><trkpt lat="44.39286041598632" lon="9.03031875413693"><ele>387.0</ele><time>2026-04-03T14:20:04.061Z</time></trkpt><trkpt lat="44.39335285162124" lon="9.027578927513298"><ele>352.0</ele><time>2026-04-03T14:20:08.03Z</time></trkpt><trkpt lat="44.39359535720474" lon="9.026240362611029"><ele>300.0</ele><time>2026-04-03T14:20:09.03Z</time></trkpt><trkpt lat="44.39383684903209" lon="9.024901453071594"><ele>228.0</ele><time>2026-04-03T14:20:10.03Z</time></trkpt><trkpt lat="44.394077375588815" lon="9.023567895307718"><ele>164.0</ele><time>2026-04-03T14:20:11.026Z</time></trkpt><trkpt lat="44.39431981796898" lon="9.022228768268832"><ele>144.0</ele><time>2026-04-03T14:20:12.026Z</time></trkpt><trkpt lat="44.39433473076595" lon="9.021557697440706"><ele>144.0</ele><time>2026-04-03T14:20:29.999Z</time></trkpt><trkpt lat="44.394387886732126" lon="9.021231228703103"><ele>144.0</ele><time>2026-04-03T14:20:30.999Z</time></trkpt><trkpt lat="44.39457647550372" lon="9.020889637484867"><ele>139.0</ele><time>2026-04-03T14:20:31.999Z</time></trkpt><trkpt lat="44.39462891089739" lon="9.02055998336889"><ele>134.0</ele><time>2026-04-03T14:20:32.999Z</time></trkpt><trkpt lat="44.39468181473414" lon="9.020234800574473"><ele>158.0</ele><time>2026-04-03T14:20:33.999Z</time></trkpt><trkpt lat="44.394740345801246" lon="9.019911248769091"><ele>182.0</ele><time>2026-04-03T14:20:34.999Z</time></trkpt><trkpt lat="44.39479938033587" lon="9.019591265486186"><ele>182.0</ele><time>2026-04-03T14:20:36Z</time></trkpt><trkpt lat="44.39486011150448" lon="9.019272516151633"><ele>182.0</ele><time>2026-04-03T14:20:37Z</time></trkpt><trkpt lat="44.3949332639566" lon="9.018955227159548"><ele>195.5</ele><time>2026-04-03T14:20:38Z</time></trkpt><trkpt lat="44.39501672331282" lon="9.018643133740238"><ele>209.0</ele><time>2026-04-03T14:20:39Z</time></trkpt><trkpt lat="44.395097134080686" lon="9.018333872898962"><ele>218.0</ele><time>2026-04-03T14:20:40Z</time></trkpt><trkpt lat="44.395138056538" lon="9.018008696158098"><ele>227.0</ele><time>2026-04-03T14:20:41Z</time></trkpt><trkpt lat="44.39517909545062" lon="9.017687765857128"><ele>223.5</ele><time>2026-04-03T14:20:42Z</time></trkpt><trkpt lat="44.395213525567016" lon="9.017366014811095"><ele>220.0</ele><time>2026-04-03T14:20:43Z</time></trkpt><trkpt lat="44.3952390903142" lon="9.017032742051475"><ele>220.0</ele><time>2026-04-03T14:20:44.07Z</time></trkpt><trkpt lat="44.39525511440993" lon="9.016711776684867"><ele>220.0</ele><time>2026-04-03T14:20:45.056Z</time></trkpt><trkpt lat="44.39527160181033" lon="9.016364172647581"><ele>202.5</ele><time>2026-04-03T14:20:46.056Z</time></trkpt><trkpt lat="44.39528930764077" lon="9.016021721243801"><ele>185.0</ele><time>2026-04-03T14:20:47.056Z</time></trkpt><trkpt lat="44.395306553450375" lon="9.015688167260832"><ele>124.0</ele><time>2026-04-03T14:20:48.052Z</time></trkpt><trkpt lat="44.39534435146192" lon="9.014568041594954"><ele>124.0</ele><time>2026-04-03T14:20:51Z</time></trkpt><trkpt lat="44.39536104213689" lon="9.014236910216928"><ele>124.0</ele><time>2026-04-03T14:20:52Z</time></trkpt><trkpt lat="44.39534433144315" lon="9.013933470564533"><ele>113.33333333333334</ele><time>2026-04-03T14:20:53Z</time></trkpt><trkpt lat="44.39536488356794" lon="9.013633054550453"><ele>102.66666666666667</ele><time>2026-04-03T14:20:54Z</time></trkpt><trkpt lat="44.39538217649547" lon="9.01330743106986"><ele>92.0</ele><time>2026-04-03T14:20:55Z</time></trkpt><trkpt lat="44.395392706531574" lon="9.012983607582306"><ele>92.0</ele><time>2026-04-03T14:20:56Z</time></trkpt><trkpt lat="44.395415951516604" lon="9.012675230009414"><ele>92.0</ele><time>2026-04-03T14:20:57Z</time></trkpt><trkpt lat="44.39543606207205" lon="9.01235480767335"><ele>100.0</ele><time>2026-04-03T14:20:58Z</time></trkpt><trkpt lat="44.395454134343204" lon="9.012040538544268"><ele>108.0</ele><time>2026-04-03T14:20:59Z</time></trkpt><trkpt lat="44.39546931632055" lon="9.011724513668586"><ele>113.0</ele><time>2026-04-03T14:21:00Z</time></trkpt><trkpt lat="44.395488164494274" lon="9.011408492154366"><ele>118.0</ele><time>2026-04-03T14:21:01Z</time></trkpt><trkpt lat="44.395504618970534" lon="9.011094099946348"><ele>132.0</ele><time>2026-04-03T14:21:02Z</time></trkpt><trkpt lat="44.39554104249517" lon="9.010776947232001"><ele>146.0</ele><time>2026-04-03T14:21:03Z</time></trkpt><trkpt lat="44.39559055857557" lon="9.010469240306815"><ele>146.0</ele><time>2026-04-03T14:21:04Z</time></trkpt><trkpt lat="44.39566042073092" lon="9.01016278313581"><ele>146.0</ele><time>2026-04-03T14:21:05Z</time></trkpt><trkpt lat="44.395745371292385" lon="9.009864597032635"><ele>141.0</ele><time>2026-04-03T14:21:06Z</time></trkpt><trkpt lat="44.39583643588125" lon="9.0095751543365"><ele>136.0</ele><time>2026-04-03T14:21:07Z</time></trkpt><trkpt lat="44.395944787744746" lon="9.009288036877821"><ele>133.0</ele><time>2026-04-03T14:21:08Z</time></trkpt><trkpt lat="44.396067408962665" lon="9.009015404748048"><ele>130.0</ele><time>2026-04-03T14:21:09Z</time></trkpt><trkpt lat="44.39620529258004" lon="9.008753890366462"><ele>128.5</ele><time>2026-04-03T14:21:10Z</time></trkpt><trkpt lat="44.396353602791116" lon="9.008503058486546"><ele>127.0</ele><time>2026-04-03T14:21:11Z</time></trkpt><trkpt lat="44.39651468734561" lon="9.008263067159522"><ele>127.0</ele><time>2026-04-03T14:21:12Z</time></trkpt><trkpt lat="44.39668441786937" lon="9.008038829212385"><ele>127.0</ele><time>2026-04-03T14:21:13Z</time></trkpt><trkpt lat="44.3968670272746" lon="9.007833655095657"><ele>127.0</ele><time>2026-04-03T14:21:14Z</time></trkpt><trkpt lat="44.39705713405081" lon="9.007641707755413"><ele>127.0</ele><time>2026-04-03T14:21:15Z</time></trkpt><trkpt lat="44.39725655346793" lon="9.00746176213591"><ele>110.0</ele><time>2026-04-03T14:21:16Z</time></trkpt><trkpt lat="44.39745136992113" lon="9.00727912896895"><ele>93.0</ele><time>2026-04-03T14:21:17Z</time></trkpt><trkpt lat="44.39764825519893" lon="9.007086833293153"><ele>93.0</ele><time>2026-04-03T14:21:18Z</time></trkpt><trkpt lat="44.39784019685881" lon="9.006891499354213"><ele>93.0</ele><time>2026-04-03T14:21:19Z</time></trkpt><trkpt lat="44.398032835737" lon="9.006693273940986"><ele>95.5</ele><time>2026-04-03T14:21:20Z</time></trkpt><trkpt lat="44.398229410243296" lon="9.00649405563237"><ele>98.0</ele><time>2026-04-03T14:21:21Z</time></trkpt><trkpt lat="44.398429545564944" lon="9.0062930404078"><ele>98.0</ele><time>2026-04-03T14:21:22Z</time></trkpt><trkpt lat="44.39863159781292" lon="9.00609446668585"><ele>98.0</ele><time>2026-04-03T14:21:23Z</time></trkpt><trkpt lat="44.39883680483193" lon="9.005897923690041"><ele>121.5</ele><time>2026-04-03T14:21:24Z</time></trkpt><trkpt lat="44.399044175052495" lon="9.005702030810562"><ele>145.0</ele><time>2026-04-03T14:21:25Z</time></trkpt><trkpt lat="44.39925091399617" lon="9.005501211818546"><ele>145.0</ele><time>2026-04-03T14:21:26Z</time></trkpt><trkpt lat="44.39945594917" lon="9.005301058840438"><ele>145.0</ele><time>2026-04-03T14:21:27Z</time></trkpt><trkpt lat="44.39965795436937" lon="9.005095597838489"><ele>167.5</ele><time>2026-04-03T14:21:28Z</time></trkpt><trkpt lat="44.39985826377202" lon="9.00489506727911"><ele>190.0</ele><time>2026-04-03T14:21:29Z</time></trkpt><trkpt lat="44.400055224798884" lon="9.004699984102212"><ele>190.0</ele><time>2026-04-03T14:21:30Z</time></trkpt><trkpt lat="44.40025341589148" lon="9.004504937325542"><ele>190.0</ele><time>2026-04-03T14:21:31Z</time></trkpt><trkpt lat="44.40045763389168" lon="9.004307267016499"><ele>177.0</ele><time>2026-04-03T14:21:32Z</time></trkpt><trkpt lat="44.400658959700486" lon="9.004111049357347"><ele>164.0</ele><time>2026-04-03T14:21:33Z</time></trkpt><trkpt lat="44.400887909822416" lon="9.003899294221124"><ele>164.0</ele><time>2026-04-03T14:21:34.073Z</time></trkpt><trkpt lat="44.40108975760499" lon="9.003704597598098"><ele>164.0</ele><time>2026-04-03T14:21:35.067Z</time></trkpt><trkpt lat="44.401970002286156" lon="9.002821105278683"><ele>143.0</ele><time>2026-04-03T14:21:39Z</time></trkpt><trkpt lat="44.40217006379017" lon="9.002619737274708"><ele>122.0</ele><time>2026-04-03T14:21:40Z</time></trkpt><trkpt lat="44.4023572114285" lon="9.002416912733546"><ele>117.0</ele><time>2026-04-03T14:21:41Z</time></trkpt><trkpt lat="44.40254844330968" lon="9.00222837813416"><ele>112.0</ele><time>2026-04-03T14:21:42Z</time></trkpt><trkpt lat="44.402746117838824" lon="9.002039360874898"><ele>112.0</ele><time>2026-04-03T14:21:42.999Z</time></trkpt><trkpt lat="44.40293623963043" lon="9.001851151417036"><ele>112.0</ele><time>2026-04-03T14:21:43.999Z</time></trkpt><trkpt lat="44.403128277986625" lon="9.001641136873229"><ele>131.0</ele><time>2026-04-03T14:21:44.999Z</time></trkpt><trkpt lat="44.40332416740841" lon="9.001453033250815"><ele>150.0</ele><time>2026-04-03T14:21:45.999Z</time></trkpt><trkpt lat="44.40351980230784" lon="9.001264820647412"><ele>150.0</ele><time>2026-04-03T14:21:46.999Z</time></trkpt><trkpt lat="44.40372527517275" lon="9.001082241558946"><ele>150.0</ele><time>2026-04-03T14:21:47.999Z</time></trkpt><trkpt lat="44.40393141578282" lon="9.000902480119121"><ele>157.5</ele><time>2026-04-03T14:21:48.999Z</time></trkpt><trkpt lat="44.40413994029084" lon="9.000725497603272"><ele>165.0</ele><time>2026-04-03T14:21:49.999Z</time></trkpt><trkpt lat="44.40432594003292" lon="9.000511819978094"><ele>165.0</ele><time>2026-04-03T14:21:50.999Z</time></trkpt><trkpt lat="44.40451101863455" lon="9.0002958949253"><ele>165.0</ele><time>2026-04-03T14:21:51.999Z</time></trkpt><trkpt lat="44.40470672816842" lon="9.000066527114317"><ele>171.0</ele><time>2026-04-03T14:21:53.06Z</time></trkpt><trkpt lat="44.404894585429346" lon="8.999842951700431"><ele>177.0</ele><time>2026-04-03T14:21:54.07Z</time></trkpt><trkpt lat="44.40507462914039" lon="8.999628887257044"><ele>232.0</ele><time>2026-04-03T14:21:55.062Z</time></trkpt><trkpt lat="44.40657083560941" lon="8.997725135165677"><ele>261.0</ele><time>2026-04-03T14:21:59.029Z</time></trkpt><trkpt lat="44.407319354407285" lon="8.996831362609367"><ele>261.0</ele><time>2026-04-03T14:22:00.024Z</time></trkpt><trkpt lat="44.40807330048631" lon="8.995929334616548"><ele>229.0</ele><time>2026-04-03T14:22:01.028Z</time></trkpt><trkpt lat="44.40882614206649" lon="8.995029163167544"><ele>194.0</ele><time>2026-04-03T14:22:02.029Z</time></trkpt><trkpt lat="44.40957545038208" lon="8.994131504134177"><ele>157.0</ele><time>2026-04-03T14:22:03.027Z</time></trkpt><trkpt lat="44.41032593020172" lon="8.99322939627217"><ele>105.0</ele><time>2026-04-03T14:22:04.028Z</time></trkpt><trkpt lat="44.41110121845656" lon="8.992221177593443"><ele>105.0</ele><time>2026-04-03T14:22:26.999Z</time></trkpt><trkpt lat="44.41127645520188" lon="8.991997571296926"><ele>105.0</ele><time>2026-04-03T14:22:27.999Z</time></trkpt><trkpt lat="44.41146207015286" lon="8.991780409965942"><ele>87.0</ele><time>2026-04-03T14:22:28.999Z</time></trkpt><trkpt lat="44.411636502163645" lon="8.99157860227412"><ele>69.0</ele><time>2026-04-03T14:22:29.999Z</time></trkpt><trkpt lat="44.41180429887386" lon="8.991376953009587"><ele>51.0</ele><time>2026-04-03T14:22:30.999Z</time></trkpt><trkpt lat="44.411975291266046" lon="8.991173017787345"><ele>51.0</ele><time>2026-04-03T14:22:31.999Z</time></trkpt><trkpt lat="44.41214311950359" lon="8.990969113627175"><ele>51.0</ele><time>2026-04-03T14:22:32.999Z</time></trkpt><trkpt lat="44.412321831149" lon="8.990757872412141"><ele>62.66666666666667</ele><time>2026-04-03T14:22:33.999Z</time></trkpt><trkpt lat="44.41249045860859" lon="8.990556746314144"><ele>74.33333333333334</ele><time>2026-04-03T14:22:34.999Z</time></trkpt><trkpt lat="44.41266089086347" lon="8.990353584410549"><ele>86.0</ele><time>2026-04-03T14:22:35.999Z</time></trkpt><trkpt lat="44.412837965485245" lon="8.990150934187545"><ele>107.0</ele><time>2026-04-03T14:22:36.999Z</time></trkpt><trkpt lat="44.41302064936071" lon="8.98995570597604"><ele>128.0</ele><time>2026-04-03T14:22:37.999Z</time></trkpt><trkpt lat="44.41320488469058" lon="8.989770831968015"><ele>128.0</ele><time>2026-04-03T14:22:38.999Z</time></trkpt><trkpt lat="44.41338858546957" lon="8.989581267693339"><ele>128.0</ele><time>2026-04-03T14:22:39.999Z</time></trkpt><trkpt lat="44.413570723459024" lon="8.989376581704482"><ele>134.0</ele><time>2026-04-03T14:22:41Z</time></trkpt><trkpt lat="44.41375227996712" lon="8.98917315143581"><ele>140.0</ele><time>2026-04-03T14:22:42Z</time></trkpt><trkpt lat="44.413931643729775" lon="8.988967419096431"><ele>159.0</ele><time>2026-04-03T14:22:43Z</time></trkpt><trkpt lat="44.41411199663296" lon="8.988760970420753"><ele>178.0</ele><time>2026-04-03T14:22:44Z</time></trkpt><trkpt lat="44.414290347199284" lon="8.988565749976326"><ele>178.0</ele><time>2026-04-03T14:22:45Z</time></trkpt><trkpt lat="44.4144723440764" lon="8.98837357402384"><ele>178.0</ele><time>2026-04-03T14:22:46Z</time></trkpt><trkpt lat="44.41465317677958" lon="8.988180819989049"><ele>197.5</ele><time>2026-04-03T14:22:47Z</time></trkpt><trkpt lat="44.414848216966575" lon="8.987972458205709"><ele>217.0</ele><time>2026-04-03T14:22:48.075Z</time></trkpt><trkpt lat="44.41501056890404" lon="8.987750308615107"><ele>217.0</ele><time>2026-04-03T14:22:49.065Z</time></trkpt><trkpt lat="44.41517877737418" lon="8.987547663542559"><ele>217.0</ele><time>2026-04-03T14:22:50.063Z</time></trkpt><trkpt lat="44.416622621466104" lon="8.98555903866884"><ele>291.0</ele><time>2026-04-03T14:22:54.028Z</time></trkpt><trkpt lat="44.41732673574994" lon="8.98459300282683"><ele>284.0</ele><time>2026-04-03T14:22:55.026Z</time></trkpt><trkpt lat="44.41803369103588" lon="8.983621365038784"><ele>264.0</ele><time>2026-04-03T14:22:56.028Z</time></trkpt><trkpt lat="44.4187363203856" lon="8.982648746701505"><ele>227.0</ele><time>2026-04-03T14:22:57.028Z</time></trkpt><trkpt lat="44.4194380214235" lon="8.981683052317415"><ele>211.0</ele><time>2026-04-03T14:22:58.024Z</time></trkpt><trkpt lat="44.420147393345346" lon="8.980710861158755"><ele>207.0</ele><time>2026-04-03T14:22:59.028Z</time></trkpt><trkpt lat="44.42085093314961" lon="8.979740935576366"><ele>180.0</ele><time>2026-04-03T14:23:00.027Z</time></trkpt><trkpt lat="44.421553516154304" lon="8.978772785977663"><ele>115.0</ele><time>2026-04-03T14:23:01.025Z</time></trkpt><trkpt lat="44.42223450392567" lon="8.977417549186065"><ele>115.0</ele><time>2026-04-03T14:23:32.278Z</time></trkpt><trkpt lat="44.422436566272346" lon="8.976773538379648"><ele>168.0</ele><time>2026-04-03T14:23:33Z</time></trkpt><trkpt lat="44.42263526735833" lon="8.97835811912726"><ele>151.5</ele><time>2026-04-03T14:23:34Z</time></trkpt><trkpt lat="44.42277886526478" lon="8.97820223895813"><ele>135.0</ele><time>2026-04-03T14:23:34.999Z</time></trkpt><trkpt lat="44.42278597967981" lon="8.976996993274774"><ele>128.33333333333334</ele><time>2026-04-03T14:23:35.999Z</time></trkpt><trkpt lat="44.422895791592566" lon="8.976830763711128"><ele>121.66666666666667</ele><time>2026-04-03T14:23:36.999Z</time></trkpt><trkpt lat="44.423049067271485" lon="8.976615847535303"><ele>115.0</ele><time>2026-04-03T14:23:37.999Z</time></trkpt><trkpt lat="44.42320697269607" lon="8.976405943450068"><ele>106.5</ele><time>2026-04-03T14:23:38.999Z</time></trkpt><trkpt lat="44.42336852677834" lon="8.976178398974417"><ele>98.0</ele><time>2026-04-03T14:23:39.999Z</time></trkpt><trkpt lat="44.42352959580257" lon="8.975951229089809"><ele>107.5</ele><time>2026-04-03T14:23:40.999Z</time></trkpt><trkpt lat="44.423682462323235" lon="8.975722925449796"><ele>117.0</ele><time>2026-04-03T14:23:41.999Z</time></trkpt><trkpt lat="44.42385492832357" lon="8.97548380120407"><ele>127.5</ele><time>2026-04-03T14:23:42.999Z</time></trkpt><trkpt lat="44.424026989874875" lon="8.975260550732962"><ele>138.0</ele><time>2026-04-03T14:23:43.999Z</time></trkpt><trkpt lat="44.42418996299626" lon="8.975051153901243"><ele>140.66666666666666</ele><time>2026-04-03T14:23:44.999Z</time></trkpt><trkpt lat="44.42435048437639" lon="8.97483981524077"><ele>143.33333333333331</ele><time>2026-04-03T14:23:45.999Z</time></trkpt><trkpt lat="44.424508011498844" lon="8.974632213633118"><ele>146.0</ele><time>2026-04-03T14:23:46.999Z</time></trkpt><trkpt lat="44.42466853301878" lon="8.974420873642025"><ele>154.33333333333331</ele><time>2026-04-03T14:23:47.999Z</time></trkpt><trkpt lat="44.42482905453227" lon="8.974209533075774"><ele>162.66666666666666</ele><time>2026-04-03T14:23:48.999Z</time></trkpt><trkpt lat="44.42498957602848" lon="8.973998191947862"><ele>171.0</ele><time>2026-04-03T14:23:49.999Z</time></trkpt><trkpt lat="44.425150097620886" lon="8.97378685011665"><ele>172.66666666666666</ele><time>2026-04-03T14:23:50.999Z</time></trkpt><trkpt lat="44.42531061930949" lon="8.973575507582112"><ele>174.33333333333331</ele><time>2026-04-03T14:23:51.999Z</time></trkpt><trkpt lat="44.42547114091235" lon="8.973364164571349"><ele>176.0</ele><time>2026-04-03T14:23:52.999Z</time></trkpt><trkpt lat="44.42563663802494" lon="8.973146610087339"><ele>217.0</ele><time>2026-04-03T14:23:54.03Z</time></trkpt><trkpt lat="44.42704560275975" lon="8.971118826128631"><ele>260.0</ele><time>2026-04-03T14:23:58.026Z</time></trkpt><trkpt lat="44.42762063339169" lon="8.97015452890923"><ele>291.0</ele><time>2026-04-03T14:23:59.025Z</time></trkpt><trkpt lat="44.42817911024693" lon="8.969167656922545"><ele>282.0</ele><time>2026-04-03T14:24:00.026Z</time></trkpt><trkpt lat="44.42873536646153" lon="8.968178373689895"><ele>260.0</ele><time>2026-04-03T14:24:01.028Z</time></trkpt><trkpt lat="44.4292893587982" lon="8.967192270894424"><ele>220.0</ele><time>2026-04-03T14:24:02.025Z</time></trkpt><trkpt lat="44.429845839831295" lon="8.966201738235322"><ele>217.0</ele><time>2026-04-03T14:24:03.028Z</time></trkpt><trkpt lat="44.4303994033401" lon="8.96521861292046"><ele>180.0</ele><time>2026-04-03T14:24:04.023Z</time></trkpt><trkpt lat="44.43095699716689" lon="8.964225817981635"><ele>105.0</ele><time>2026-04-03T14:24:05.028Z</time></trkpt><trkpt lat="44.431488434772604" lon="8.963220853655281"><ele>76.0</ele><time>2026-04-03T14:24:06.023Z</time></trkpt><trkpt lat="44.43204356511045" lon="8.961579975903112"><ele>81.5</ele><time>2026-04-03T14:24:31.999Z</time></trkpt><trkpt lat="44.43219212494453" lon="8.961291758209816"><ele>87.0</ele><time>2026-04-03T14:24:32.999Z</time></trkpt><trkpt lat="44.432084815175465" lon="8.962162461036897"><ele>70.5</ele><time>2026-04-03T14:24:33.999Z</time></trkpt><trkpt lat="44.432235112867566" lon="8.96190275332382"><ele>54.0</ele><time>2026-04-03T14:24:34.999Z</time></trkpt><trkpt lat="44.43237490636772" lon="8.961645247208972"><ele>50.666666666666664</ele><time>2026-04-03T14:24:35.999Z</time></trkpt><trkpt lat="44.43250318722762" lon="8.961403672678356"><ele>47.33333333333333</ele><time>2026-04-03T14:24:36.999Z</time></trkpt><trkpt lat="44.43264147628596" lon="8.961149207225807"><ele>44.0</ele><time>2026-04-03T14:24:37.999Z</time></trkpt><trkpt lat="44.43277327528952" lon="8.960896660254726"><ele>38.5</ele><time>2026-04-03T14:24:38.999Z</time></trkpt><trkpt lat="44.43291791735091" lon="8.960642399162724"><ele>33.0</ele><time>2026-04-03T14:24:39.999Z</time></trkpt><trkpt lat="44.4330548962185" lon="8.96038731840018"><ele>34.0</ele><time>2026-04-03T14:24:40.999Z</time></trkpt><trkpt lat="44.43319179439898" lon="8.960135860866364"><ele>35.0</ele><time>2026-04-03T14:24:41.999Z</time></trkpt><trkpt lat="44.4333308698771" lon="8.959887668060865"><ele>35.0</ele><time>2026-04-03T14:24:42.999Z</time></trkpt><trkpt lat="44.433462593144085" lon="8.959633647717254"><ele>35.0</ele><time>2026-04-03T14:24:43.999Z</time></trkpt><trkpt lat="44.43360288651423" lon="8.959385100982201"><ele>35.0</ele><time>2026-04-03T14:24:44.999Z</time></trkpt><trkpt lat="44.43374138363087" lon="8.959134816067863"><ele>35.0</ele><time>2026-04-03T14:24:45.999Z</time></trkpt><trkpt lat="44.43387570480472" lon="8.9588862752179"><ele>35.0</ele><time>2026-04-03T14:24:47Z</time></trkpt><trkpt lat="44.43401062720616" lon="8.958637225073582"><ele>35.0</ele><time>2026-04-03T14:24:48Z</time></trkpt><trkpt lat="44.43414785349856" lon="8.958385778149285"><ele>35.0</ele><time>2026-04-03T14:24:49Z</time></trkpt><trkpt lat="44.43428608582709" lon="8.958136115006445"><ele>44.0</ele><time>2026-04-03T14:24:50Z</time></trkpt><trkpt lat="44.434425711470254" lon="8.95788542778344"><ele>53.0</ele><time>2026-04-03T14:24:51Z</time></trkpt><trkpt lat="44.434562606504215" lon="8.957631545173506"><ele>61.5</ele><time>2026-04-03T14:24:52Z</time></trkpt><trkpt lat="44.43470260843767" lon="8.957378533426658"><ele>70.0</ele><time>2026-04-03T14:24:53Z</time></trkpt><trkpt lat="44.43483901583303" lon="8.957123781286276"><ele>70.0</ele><time>2026-04-03T14:24:54Z</time></trkpt><trkpt lat="44.43496153154516" lon="8.956860962263164"><ele>70.0</ele><time>2026-04-03T14:24:55Z</time></trkpt><trkpt lat="44.43508246452523" lon="8.956588512953926"><ele>83.0</ele><time>2026-04-03T14:24:56Z</time></trkpt><trkpt lat="44.435189337233936" lon="8.956308853120175"><ele>96.0</ele><time>2026-04-03T14:24:57Z</time></trkpt><trkpt lat="44.435291407186554" lon="8.956023255946283"><ele>103.66666666666666</ele><time>2026-04-03T14:24:58Z</time></trkpt><trkpt lat="44.435374779339334" lon="8.955734889610296"><ele>111.33333333333333</ele><time>2026-04-03T14:24:59Z</time></trkpt><trkpt lat="44.43544363758285" lon="8.955450397190024"><ele>119.0</ele><time>2026-04-03T14:25:00Z</time></trkpt><trkpt lat="44.43550564113611" lon="8.955165909739737"><ele>131.66666666666666</ele><time>2026-04-03T14:25:01Z</time></trkpt><trkpt lat="44.43556735698435" lon="8.954885811251836"><ele>144.33333333333334</ele><time>2026-04-03T14:25:02Z</time></trkpt><trkpt lat="44.43565532448178" lon="8.9546177291174"><ele>157.0</ele><time>2026-04-03T14:25:03Z</time></trkpt><trkpt lat="44.43574850581743" lon="8.95433133364273"><ele>166.0</ele><time>2026-04-03T14:25:04.071Z</time></trkpt><trkpt lat="44.43583579912914" lon="8.954063034983077"><ele>175.0</ele><time>2026-04-03T14:25:05.065Z</time></trkpt><trkpt lat="44.435919699831" lon="8.95380538869151"><ele>184.0</ele><time>2026-04-03T14:25:06.066Z</time></trkpt><trkpt lat="44.43599763002586" lon="8.953566598138908"><ele>191.66666666666669</ele><time>2026-04-03T14:25:07.068Z</time></trkpt><trkpt lat="44.43608168730459" lon="8.953308835082982"><ele>199.33333333333334</ele><time>2026-04-03T14:25:08.067Z</time></trkpt><trkpt lat="44.43616804469092" lon="8.953044018347013"><ele>207.0</ele><time>2026-04-03T14:25:09.058Z</time></trkpt><trkpt lat="44.43703943249137" lon="8.950500164117956"><ele>154.0</ele><time>2026-04-03T14:25:13.024Z</time></trkpt><trkpt lat="44.43719768262405" lon="8.94952293410668"><ele>126.0</ele><time>2026-04-03T14:25:14.022Z</time></trkpt><trkpt lat="44.43723262682976" lon="8.948390527564634"><ele>114.0</ele><time>2026-04-03T14:25:24Z</time></trkpt><trkpt lat="44.437216120187585" lon="8.94803666538304"><ele>102.0</ele><time>2026-04-03T14:25:25Z</time></trkpt><trkpt lat="44.4372129088935" lon="8.947713296237595"><ele>96.0</ele><time>2026-04-03T14:25:26Z</time></trkpt><trkpt lat="44.43720572284273" lon="8.947391941066613"><ele>90.0</ele><time>2026-04-03T14:25:27Z</time></trkpt><trkpt lat="44.437198981771346" lon="8.947066845286255"><ele>90.0</ele><time>2026-04-03T14:25:28Z</time></trkpt><trkpt lat="44.43718815149442" lon="8.946746669276958"><ele>90.0</ele><time>2026-04-03T14:25:29Z</time></trkpt><trkpt lat="44.43717876727476" lon="8.946426984793726"><ele>103.0</ele><time>2026-04-03T14:25:30Z</time></trkpt><trkpt lat="44.4371681259048" lon="8.946098863563707"><ele>116.0</ele><time>2026-04-03T14:25:31Z</time></trkpt><trkpt lat="44.437157226830195" lon="8.945780783656868"><ele>113.0</ele><time>2026-04-03T14:25:32Z</time></trkpt><trkpt lat="44.43714472869089" lon="8.945460518182726"><ele>110.0</ele><time>2026-04-03T14:25:32.999Z</time></trkpt><trkpt lat="44.43713087096147" lon="8.94514075110806"><ele>114.5</ele><time>2026-04-03T14:25:33.999Z</time></trkpt><trkpt lat="44.43711723831685" lon="8.94481644013168"><ele>119.0</ele><time>2026-04-03T14:25:34.999Z</time></trkpt><trkpt lat="44.437105881993304" lon="8.944494234500507"><ele>121.5</ele><time>2026-04-03T14:25:35.999Z</time></trkpt><trkpt lat="44.43709525637546" lon="8.944172472887471"><ele>124.0</ele><time>2026-04-03T14:25:36.999Z</time></trkpt><trkpt lat="44.43708346338739" lon="8.943851840867923"><ele>124.0</ele><time>2026-04-03T14:25:37.999Z</time></trkpt><trkpt lat="44.43707177951159" lon="8.943534725925204"><ele>124.0</ele><time>2026-04-03T14:25:38.999Z</time></trkpt><trkpt lat="44.43706327503357" lon="8.943219308207558"><ele>126.0</ele><time>2026-04-03T14:25:39.999Z</time></trkpt><trkpt lat="44.4370591104672" lon="8.942907325133918"><ele>128.0</ele><time>2026-04-03T14:25:40.999Z</time></trkpt><trkpt lat="44.43706431397531" lon="8.942588162073454"><ele>130.5</ele><time>2026-04-03T14:25:41.999Z</time></trkpt><trkpt lat="44.43708023580795" lon="8.942272637647582"><ele>133.0</ele><time>2026-04-03T14:25:42.999Z</time></trkpt><trkpt lat="44.437110372616246" lon="8.94195283115101"><ele>144.5</ele><time>2026-04-03T14:25:43.999Z</time></trkpt><trkpt lat="44.4371614128099" lon="8.941636761384945"><ele>156.0</ele><time>2026-04-03T14:25:44.999Z</time></trkpt><trkpt lat="44.43723510568434" lon="8.941328702255014"><ele>156.0</ele><time>2026-04-03T14:25:45.999Z</time></trkpt><trkpt lat="44.43733086978641" lon="8.941029872186402"><ele>156.0</ele><time>2026-04-03T14:25:46.999Z</time></trkpt><trkpt lat="44.43744371269774" lon="8.940742945339794"><ele>150.5</ele><time>2026-04-03T14:25:47.999Z</time></trkpt><trkpt lat="44.437572059819594" lon="8.940466290613909"><ele>145.0</ele><time>2026-04-03T14:25:48.999Z</time></trkpt><trkpt lat="44.43771142966566" lon="8.940201577284444"><ele>146.0</ele><time>2026-04-03T14:25:49.999Z</time></trkpt><trkpt lat="44.4378571568777" lon="8.939939327333192"><ele>147.0</ele><time>2026-04-03T14:25:50.999Z</time></trkpt><trkpt lat="44.437999414216" lon="8.93967642014333"><ele>152.5</ele><time>2026-04-03T14:25:51.999Z</time></trkpt><trkpt lat="44.43814016304578" lon="8.93940678226994"><ele>158.0</ele><time>2026-04-03T14:25:52.999Z</time></trkpt><trkpt lat="44.43827940220393" lon="8.939132807835858"><ele>158.0</ele><time>2026-04-03T14:25:53.999Z</time></trkpt><trkpt lat="44.4384197526514" lon="8.938852790729895"><ele>158.0</ele><time>2026-04-03T14:25:54.999Z</time></trkpt><trkpt lat="44.4385592354857" lon="8.938580337995807"><ele>172.0</ele><time>2026-04-03T14:25:55.999Z</time></trkpt><trkpt lat="44.43870799449151" lon="8.938305965574521"><ele>186.0</ele><time>2026-04-03T14:25:56.999Z</time></trkpt><trkpt lat="44.43885062648057" lon="8.938029444478085"><ele>187.5</ele><time>2026-04-03T14:25:57.999Z</time></trkpt><trkpt lat="44.43899209610288" lon="8.937752577403245"><ele>189.0</ele><time>2026-04-03T14:25:58.999Z</time></trkpt><trkpt lat="44.439133923679115" lon="8.937476682422384"><ele>195.5</ele><time>2026-04-03T14:25:59.999Z</time></trkpt><trkpt lat="44.43928111908372" lon="8.937193992385081"><ele>202.0</ele><time>2026-04-03T14:26:00.999Z</time></trkpt><trkpt lat="44.4394330236569" lon="8.936895692006912"><ele>220.5</ele><time>2026-04-03T14:26:02.068Z</time></trkpt><trkpt lat="44.43957707084152" lon="8.936611073415378"><ele>239.0</ele><time>2026-04-03T14:26:03.058Z</time></trkpt><trkpt lat="44.43971879276657" lon="8.936331817191409"><ele>240.5</ele><time>2026-04-03T14:26:04.059Z</time></trkpt><trkpt lat="44.43983013985495" lon="8.936031754373008"><ele>242.0</ele><time>2026-04-03T14:26:05.052Z</time></trkpt><trkpt lat="44.439954753967214" lon="8.935739899215514"><ele>379.0</ele><time>2026-04-03T14:26:06.054Z</time></trkpt><trkpt lat="44.44093836961501" lon="8.933266953804685"><ele>379.0</ele><time>2026-04-03T14:26:10.025Z</time></trkpt><trkpt lat="44.44121621803853" lon="8.932624091261115"><ele>453.0</ele><time>2026-04-03T14:26:11.021Z</time></trkpt><trkpt lat="44.44149477784087" lon="8.93197462074622"><ele>479.0</ele><time>2026-04-03T14:26:12.026Z</time></trkpt><trkpt lat="44.441772204259706" lon="8.931327521611188"><ele>476.0</ele><time>2026-04-03T14:26:13.026Z</time></trkpt><trkpt lat="44.442047792801496" lon="8.930679753030237"><ele>410.0</ele><time>2026-04-03T14:26:14.026Z</time></trkpt><trkpt lat="44.442325585309135" lon="8.930032681370612"><ele>410.0</ele><time>2026-04-03T14:26:15.027Z</time></trkpt><trkpt lat="44.442602840834766" lon="8.929387202727593"><ele>383.0</ele><time>2026-04-03T14:26:16.025Z</time></trkpt><trkpt lat="44.442878412476965" lon="8.928741449894037"><ele>315.0</ele><time>2026-04-03T14:26:17.023Z</time></trkpt><trkpt lat="44.44315578516259" lon="8.928095188631852"><ele>294.0</ele><time>2026-04-03T14:26:18.022Z</time></trkpt><trkpt lat="44.44343428936834" lon="8.927447145043809"><ele>294.0</ele><time>2026-04-03T14:26:19.025Z</time></trkpt><trkpt lat="44.44371237748855" lon="8.926800069633492"><ele>258.0</ele><time>2026-04-03T14:26:20.026Z</time></trkpt><trkpt lat="44.44398862703612" lon="8.926153307693774"><ele>250.0</ele><time>2026-04-03T14:26:21.025Z</time></trkpt><trkpt lat="44.44426626887199" lon="8.925508200839529"><ele>240.0</ele><time>2026-04-03T14:26:22.024Z</time></trkpt><trkpt lat="44.44454388407589" lon="8.924859430047466"><ele>201.0</ele><time>2026-04-03T14:26:23.026Z</time></trkpt><trkpt lat="44.44482057090704" lon="8.924212828809203"><ele>201.0</ele><time>2026-04-03T14:26:24.026Z</time></trkpt><trkpt lat="44.44509682060381" lon="8.923565113898997"><ele>197.0</ele><time>2026-04-03T14:26:25.026Z</time></trkpt><trkpt lat="44.44537275522796" lon="8.922917244734238"><ele>155.0</ele><time>2026-04-03T14:26:26.026Z</time></trkpt><trkpt lat="44.44564823891835" lon="8.92226870513307"><ele>142.0</ele><time>2026-04-03T14:26:27.026Z</time></trkpt><trkpt lat="44.44591575200347" lon="8.921614191799435"><ele>128.0</ele><time>2026-04-03T14:26:28.026Z</time></trkpt><trkpt lat="44.446249534804004" lon="8.920375402147318"><ele>129.0</ele><time>2026-04-03T14:26:55.999Z</time></trkpt><trkpt lat="44.44629487873649" lon="8.920115426915176"><ele>130.0</ele><time>2026-04-03T14:26:56.999Z</time></trkpt><trkpt lat="44.44633479708602" lon="8.91968678110784"><ele>130.0</ele><time>2026-04-03T14:26:57.999Z</time></trkpt><trkpt lat="44.44633463778454" lon="8.919317426402745"><ele>130.0</ele><time>2026-04-03T14:26:58.999Z</time></trkpt><trkpt lat="44.44631963040371" lon="8.918960215149927"><ele>121.5</ele><time>2026-04-03T14:26:59.999Z</time></trkpt><trkpt lat="44.44628746562694" lon="8.918600442570531"><ele>113.0</ele><time>2026-04-03T14:27:00.999Z</time></trkpt><trkpt lat="44.44623624808706" lon="8.918255713036336"><ele>112.5</ele><time>2026-04-03T14:27:02Z</time></trkpt><trkpt lat="44.446171452118776" lon="8.917911186870155"><ele>112.0</ele><time>2026-04-03T14:27:03Z</time></trkpt><trkpt lat="44.446096566334184" lon="8.917570544471328"><ele>110.0</ele><time>2026-04-03T14:27:04Z</time></trkpt><trkpt lat="44.4460217401702" lon="8.917232984234852"><ele>108.0</ele><time>2026-04-03T14:27:05Z</time></trkpt><trkpt lat="44.445951184110385" lon="8.916884625190475"><ele>108.5</ele><time>2026-04-03T14:27:06Z</time></trkpt><trkpt lat="44.4458847320984" lon="8.916537968031912"><ele>109.0</ele><time>2026-04-03T14:27:07Z</time></trkpt><trkpt lat="44.445821225199396" lon="8.916188654728678"><ele>107.0</ele><time>2026-04-03T14:27:08Z</time></trkpt><trkpt lat="44.445760784823136" lon="8.91583577283365"><ele>105.0</ele><time>2026-04-03T14:27:09Z</time></trkpt><trkpt lat="44.445699838815884" lon="8.91547356447909"><ele>105.0</ele><time>2026-04-03T14:27:10Z</time></trkpt><trkpt lat="44.44565259495724" lon="8.915112375273436"><ele>105.0</ele><time>2026-04-03T14:27:11Z</time></trkpt><trkpt lat="44.44561775053804" lon="8.914740657931508"><ele>103.5</ele><time>2026-04-03T14:27:12Z</time></trkpt><trkpt lat="44.44559363609409" lon="8.914368111600181"><ele>102.0</ele><time>2026-04-03T14:27:13Z</time></trkpt><trkpt lat="44.44557795431961" lon="8.913993202620997"><ele>103.5</ele><time>2026-04-03T14:27:14Z</time></trkpt><trkpt lat="44.445568270054416" lon="8.913624360967166"><ele>105.0</ele><time>2026-04-03T14:27:15Z</time></trkpt><trkpt lat="44.445570683061064" lon="8.91325462892335"><ele>105.0</ele><time>2026-04-03T14:27:16Z</time></trkpt><trkpt lat="44.44558275404605" lon="8.912886940725704"><ele>105.0</ele><time>2026-04-03T14:27:17Z</time></trkpt><trkpt lat="44.44560432745546" lon="8.91251930766252"><ele>101.0</ele><time>2026-04-03T14:27:18Z</time></trkpt><trkpt lat="44.445627513664725" lon="8.912154743675933"><ele>97.0</ele><time>2026-04-03T14:27:19Z</time></trkpt><trkpt lat="44.445651801605585" lon="8.911789433694597"><ele>96.0</ele><time>2026-04-03T14:27:20Z</time></trkpt><trkpt lat="44.44567156247897" lon="8.911421844676802"><ele>95.0</ele><time>2026-04-03T14:27:21Z</time></trkpt><trkpt lat="44.44569021929321" lon="8.911056511120847"><ele>93.0</ele><time>2026-04-03T14:27:22Z</time></trkpt><trkpt lat="44.44571023467297" lon="8.910689328278412"><ele>91.0</ele><time>2026-04-03T14:27:23Z</time></trkpt><trkpt lat="44.44572977134434" lon="8.910321736402322"><ele>89.5</ele><time>2026-04-03T14:27:24Z</time></trkpt><trkpt lat="44.445749685211425" lon="8.909953210424302"><ele>88.0</ele><time>2026-04-03T14:27:25Z</time></trkpt><trkpt lat="44.44576852268731" lon="8.909588111665437"><ele>82.5</ele><time>2026-04-03T14:27:26Z</time></trkpt><trkpt lat="44.4457849907322" lon="8.909227110382743"><ele>77.0</ele><time>2026-04-03T14:27:27Z</time></trkpt><trkpt lat="44.44579609939907" lon="8.908866775432616"><ele>77.0</ele><time>2026-04-03T14:27:28Z</time></trkpt><trkpt lat="44.445798051446474" lon="8.908507962054902"><ele>77.0</ele><time>2026-04-03T14:27:29Z</time></trkpt><trkpt lat="44.44578393789509" lon="8.908153767471921"><ele>80.0</ele><time>2026-04-03T14:27:30Z</time></trkpt><trkpt lat="44.44575688348292" lon="8.907802289520257"><ele>83.0</ele><time>2026-04-03T14:27:31Z</time></trkpt><trkpt lat="44.44571809363996" lon="8.90744594742945"><ele>85.0</ele><time>2026-04-03T14:27:32Z</time></trkpt><trkpt lat="44.44568616894879" lon="8.907095229929809"><ele>87.0</ele><time>2026-04-03T14:27:33Z</time></trkpt><trkpt lat="44.4456651404029" lon="8.906774396999559"><ele>85.5</ele><time>2026-04-03T14:27:34Z</time></trkpt><trkpt lat="44.445602559544845" lon="8.906452347232072"><ele>84.0</ele><time>2026-04-03T14:27:35Z</time></trkpt><trkpt lat="44.44558281704366" lon="8.90612772860487"><ele>85.0</ele><time>2026-04-03T14:27:36Z</time></trkpt><trkpt lat="44.445519986452304" lon="8.905819545494301"><ele>86.0</ele><time>2026-04-03T14:27:37Z</time></trkpt><trkpt lat="44.44548032673184" lon="8.90551745321351"><ele>87.0</ele><time>2026-04-03T14:27:38Z</time></trkpt><trkpt lat="44.44543804253507" lon="8.905233789133609"><ele>81.0</ele><time>2026-04-03T14:27:39Z</time></trkpt><trkpt lat="44.44540602490809" lon="8.904987363769159"><ele>75.0</ele><time>2026-04-03T14:27:40Z</time></trkpt><trkpt lat="44.44539420687825" lon="8.904753414707852"><ele>69.0</ele><time>2026-04-03T14:27:40.999Z</time></trkpt><trkpt lat="44.44541550879173" lon="8.90453568459633"><ele>73.75</ele><time>2026-04-03T14:27:41.999Z</time></trkpt><trkpt lat="44.44546723790768" lon="8.904332633187584"><ele>78.5</ele><time>2026-04-03T14:27:42.999Z</time></trkpt><trkpt lat="44.44556138667569" lon="8.904175654146115"><ele>83.25</ele><time>2026-04-03T14:27:43.999Z</time></trkpt><trkpt lat="44.445682358882145" lon="8.904056266166453"><ele>88.0</ele><time>2026-04-03T14:27:44.999Z</time></trkpt><trkpt lat="44.44582843915315" lon="8.903978361504889"><ele>88.0</ele><time>2026-04-03T14:27:45.999Z</time></trkpt><trkpt lat="44.44598022470728" lon="8.903936436030081"><ele>88.0</ele><time>2026-04-03T14:27:46.999Z</time></trkpt><trkpt lat="44.4461324318318" lon="8.903924410132202"><ele>88.0</ele><time>2026-04-03T14:27:47.999Z</time></trkpt><trkpt lat="44.44628570496434" lon="8.903916352557728"><ele>89.66666666666666</ele><time>2026-04-03T14:27:48.999Z</time></trkpt><trkpt lat="44.44644807851014" lon="8.903903061971716"><ele>91.33333333333333</ele><time>2026-04-03T14:27:49.999Z</time></trkpt><trkpt lat="44.44662267173029" lon="8.903889573642404"><ele>93.0</ele><time>2026-04-03T14:27:50.999Z</time></trkpt><trkpt lat="44.4468133184924" lon="8.903879709260812"><ele>93.0</ele><time>2026-04-03T14:27:51.999Z</time></trkpt><trkpt lat="44.44701128960515" lon="8.903873664572188"><ele>93.0</ele><time>2026-04-03T14:27:52.999Z</time></trkpt><trkpt lat="44.44720958843839" lon="8.90385509156317"><ele>93.0</ele><time>2026-04-03T14:27:53.999Z</time></trkpt><trkpt lat="44.4474098593554" lon="8.903829361198923"><ele>97.66666666666666</ele><time>2026-04-03T14:27:54.999Z</time></trkpt><trkpt lat="44.44760774530308" lon="8.90380866487587"><ele>102.33333333333333</ele><time>2026-04-03T14:27:55.999Z</time></trkpt><trkpt lat="44.4478053780083" lon="8.903790919377272"><ele>107.0</ele><time>2026-04-03T14:27:56.999Z</time></trkpt><trkpt lat="44.448027099692155" lon="8.903782471639623"><ele>116.66666666666666</ele><time>2026-04-03T14:27:57.999Z</time></trkpt><trkpt lat="44.448235593257124" lon="8.903898799901318"><ele>126.33333333333334</ele><time>2026-04-03T14:27:58.999Z</time></trkpt><trkpt lat="44.448448673722" lon="8.903929295828833"><ele>136.0</ele><time>2026-04-03T14:27:59.999Z</time></trkpt><trkpt lat="44.448654751197466" lon="8.90392605758894"><ele>146.66666666666669</ele><time>2026-04-03T14:28:00.999Z</time></trkpt><trkpt lat="44.44887705980628" lon="8.903922564302986"><ele>157.33333333333334</ele><time>2026-04-03T14:28:02.07Z</time></trkpt><trkpt lat="44.44907756417019" lon="8.903919409856933"><ele>168.0</ele><time>2026-04-03T14:28:03.035Z</time></trkpt><trkpt lat="44.44928323150568" lon="8.90391614244262"><ele>168.0</ele><time>2026-04-03T14:28:04.029Z</time></trkpt><trkpt lat="44.44948830018141" lon="8.903912761573558"><ele>168.0</ele><time>2026-04-03T14:28:05.03Z</time></trkpt><trkpt lat="44.451512954152406" lon="8.903790883359958"><ele>92.0</ele><time>2026-04-03T14:28:09.02Z</time></trkpt><trkpt lat="44.45250402953463" lon="8.903773681627406"><ele>121.0</ele><time>2026-04-03T14:28:10.021Z</time></trkpt><trkpt lat="44.45349792906524" lon="8.903758270005419"><ele>123.0</ele><time>2026-04-03T14:28:11.025Z</time></trkpt><trkpt lat="44.45403761701297" lon="8.90374995842894"><ele>123.0</ele><time>2026-04-03T14:28:12.025Z</time></trkpt><trkpt lat="44.45457606787098" lon="8.903741306639409"><ele>85.0</ele><time>2026-04-03T14:28:13.022Z</time></trkpt><trkpt lat="44.45511670648024" lon="8.903779568019479"><ele>92.0</ele><time>2026-04-03T14:28:14.026Z</time></trkpt><trkpt lat="44.45267940747129" lon="8.903780200849168"><ele>92.0</ele><time>2026-04-03T14:28:15.999Z</time></trkpt><trkpt lat="44.45293348624583" lon="8.903752365566534"><ele>92.0</ele><time>2026-04-03T14:28:16.999Z</time></trkpt><trkpt lat="44.453195177316275" lon="8.903719562701848"><ele>106.5</ele><time>2026-04-03T14:28:17.999Z</time></trkpt><trkpt lat="44.45346036091343" lon="8.903689546457795"><ele>121.0</ele><time>2026-04-03T14:28:18.999Z</time></trkpt><trkpt lat="44.453725325662546" lon="8.903662090368481"><ele>122.0</ele><time>2026-04-03T14:28:19.999Z</time></trkpt><trkpt lat="44.45398983361459" lon="8.903657754415333"><ele>123.0</ele><time>2026-04-03T14:28:20.999Z</time></trkpt><trkpt lat="44.45426958590577" lon="8.903653248647672"><ele>123.0</ele><time>2026-04-03T14:28:22.058Z</time></trkpt><trkpt lat="44.454534656098474" lon="8.903648993703943"><ele>123.0</ele><time>2026-04-03T14:28:23.058Z</time></trkpt><trkpt lat="44.454795827592676" lon="8.903652041475324"><ele>56.0</ele><time>2026-04-03T14:28:24.058Z</time></trkpt><trkpt lat="44.4556476334621" lon="8.903904181039401"><ele>56.0</ele><time>2026-04-03T14:28:26.999Z</time></trkpt><trkpt lat="44.45591123515808" lon="8.903970129427814"><ele>56.0</ele><time>2026-04-03T14:28:27.999Z</time></trkpt><trkpt lat="44.456199904057364" lon="8.904043634047351"><ele>55.0</ele><time>2026-04-03T14:28:28.999Z</time></trkpt><trkpt lat="44.45647910557946" lon="8.904103965371942"><ele>54.0</ele><time>2026-04-03T14:28:29.999Z</time></trkpt><trkpt lat="44.456744825110086" lon="8.904170354172987"><ele>54.0</ele><time>2026-04-03T14:28:30.999Z</time></trkpt><trkpt lat="44.4569982638331" lon="8.90423658096663"><ele>54.0</ele><time>2026-04-03T14:28:31.999Z</time></trkpt><trkpt lat="44.45724684419517" lon="8.904300956815637"><ele>68.0</ele><time>2026-04-03T14:28:32.999Z</time></trkpt><trkpt lat="44.45750309927549" lon="8.904370617729523"><ele>82.0</ele><time>2026-04-03T14:28:33.999Z</time></trkpt><trkpt lat="44.457755845361945" lon="8.90444062247938"><ele>87.5</ele><time>2026-04-03T14:28:34.999Z</time></trkpt><trkpt lat="44.458009485158975" lon="8.90450748950989"><ele>93.0</ele><time>2026-04-03T14:28:35.999Z</time></trkpt><trkpt lat="44.45826623945858" lon="8.904569894099524"><ele>93.0</ele><time>2026-04-03T14:28:36.999Z</time></trkpt><trkpt lat="44.45853071104472" lon="8.904641309259826"><ele>93.0</ele><time>2026-04-03T14:28:37.999Z</time></trkpt><trkpt lat="44.45880421681201" lon="8.904715410565954"><ele>104.0</ele><time>2026-04-03T14:28:38.999Z</time></trkpt><trkpt lat="44.459084870031745" lon="8.904788899337966"><ele>115.0</ele><time>2026-04-03T14:28:39.999Z</time></trkpt><trkpt lat="44.459364503517364" lon="8.904863793281658"><ele>124.0</ele><time>2026-04-03T14:28:40.999Z</time></trkpt><trkpt lat="44.459643992064805" lon="8.904936212009455"><ele>133.0</ele><time>2026-04-03T14:28:41.999Z</time></trkpt><trkpt lat="44.45992211655239" lon="8.905007458178243"><ele>133.0</ele><time>2026-04-03T14:28:42.999Z</time></trkpt><trkpt lat="44.46020328873462" lon="8.905078962498884"><ele>133.0</ele><time>2026-04-03T14:28:43.999Z</time></trkpt><trkpt lat="44.46048632400222" lon="8.90515193417287"><ele>146.0</ele><time>2026-04-03T14:28:44.999Z</time></trkpt><trkpt lat="44.46077194270922" lon="8.905230375548019"><ele>159.0</ele><time>2026-04-03T14:28:45.999Z</time></trkpt><trkpt lat="44.46105895851895" lon="8.905309008749795"><ele>160.33333333333334</ele><time>2026-04-03T14:28:46.999Z</time></trkpt><trkpt lat="44.461343833548604" lon="8.905385455117724"><ele>161.66666666666669</ele><time>2026-04-03T14:28:47.999Z</time></trkpt><trkpt lat="44.461489004020194" lon="8.905387053900373"><ele>163.0</ele><time>2026-04-03T14:28:48.999Z</time></trkpt><trkpt lat="44.461755109880734" lon="8.90545388356491"><ele>163.0</ele><time>2026-04-03T14:28:49.999Z</time></trkpt><trkpt lat="44.462021323658874" lon="8.905519356119154"><ele>163.0</ele><time>2026-04-03T14:28:50.999Z</time></trkpt><trkpt lat="44.4622867697614" lon="8.905585504358228"><ele>153.0</ele><time>2026-04-03T14:28:51.999Z</time></trkpt><trkpt lat="44.462551748908844" lon="8.905653140747923"><ele>143.0</ele><time>2026-04-03T14:28:52.999Z</time></trkpt><trkpt lat="44.462817479952044" lon="8.905717298752538"><ele>124.5</ele><time>2026-04-03T14:28:53.999Z</time></trkpt><trkpt lat="44.46308177919036" lon="8.90578210793499"><ele>106.0</ele><time>2026-04-03T14:28:54.999Z</time></trkpt><trkpt lat="44.46334584702348" lon="8.905846603582662"><ele>108.0</ele><time>2026-04-03T14:28:55.999Z</time></trkpt><trkpt lat="44.463609445392564" lon="8.905912847632067"><ele>110.0</ele><time>2026-04-03T14:28:56.999Z</time></trkpt><trkpt lat="44.46387070776645" lon="8.90598190201479"><ele>110.0</ele><time>2026-04-03T14:28:57.999Z</time></trkpt><trkpt lat="44.4641339621625" lon="8.906048782928407"><ele>110.0</ele><time>2026-04-03T14:28:58.999Z</time></trkpt><trkpt lat="44.46439703331024" lon="8.906113903754886"><ele>101.0</ele><time>2026-04-03T14:28:59.999Z</time></trkpt><trkpt lat="44.46466128233636" lon="8.906182004285295"><ele>92.0</ele><time>2026-04-03T14:29:00.999Z</time></trkpt><trkpt lat="44.46490942682408" lon="8.906257386241865"><ele>92.0</ele><time>2026-04-03T14:29:01.999Z</time></trkpt><trkpt lat="44.465199063273" lon="8.906361812593412"><ele>92.0</ele><time>2026-04-03T14:29:02.999Z</time></trkpt><trkpt lat="44.46545514522247" lon="8.906481854285277"><ele>85.5</ele><time>2026-04-03T14:29:03.999Z</time></trkpt><trkpt lat="44.46572878192698" lon="8.906590448986764"><ele>79.0</ele><time>2026-04-03T14:29:04.999Z</time></trkpt><trkpt lat="44.46598403830835" lon="8.906696319436753"><ele>87.5</ele><time>2026-04-03T14:29:05.999Z</time></trkpt><trkpt lat="44.4662120728604" lon="8.90680948121268"><ele>96.0</ele><time>2026-04-03T14:29:06.999Z</time></trkpt><trkpt lat="44.46646057489311" lon="8.906921704458755"><ele>96.0</ele><time>2026-04-03T14:29:08Z</time></trkpt><trkpt lat="44.46670891378386" lon="8.90703392489221"><ele>96.0</ele><time>2026-04-03T14:29:09Z</time></trkpt><trkpt lat="44.46695887109012" lon="8.907147389818414"><ele>85.0</ele><time>2026-04-03T14:29:10Z</time></trkpt><trkpt lat="44.46720644823293" lon="8.907260035093401"><ele>74.0</ele><time>2026-04-03T14:29:11Z</time></trkpt><trkpt lat="44.46745689702141" lon="8.907372042708394"><ele>74.0</ele><time>2026-04-03T14:29:12Z</time></trkpt><trkpt lat="44.467705597999064" lon="8.907480668102766"><ele>74.0</ele><time>2026-04-03T14:29:13Z</time></trkpt><trkpt lat="44.46795485114435" lon="8.907589815000614"><ele>89.0</ele><time>2026-04-03T14:29:14Z</time></trkpt><trkpt lat="44.468204720963996" lon="8.907701303648304"><ele>104.0</ele><time>2026-04-03T14:29:15Z</time></trkpt><trkpt lat="44.46845199321588" lon="8.907818212020592"><ele>104.0</ele><time>2026-04-03T14:29:16Z</time></trkpt><trkpt lat="44.46868983324356" lon="8.907943251272734"><ele>104.0</ele><time>2026-04-03T14:29:17Z</time></trkpt><trkpt lat="44.4689179789794" lon="8.908105336764033"><ele>101.0</ele><time>2026-04-03T14:29:18Z</time></trkpt><trkpt lat="44.46912618590791" lon="8.90831247359613"><ele>98.0</ele><time>2026-04-03T14:29:19Z</time></trkpt><trkpt lat="44.46931635648534" lon="8.908556773661761"><ele>98.0</ele><time>2026-04-03T14:29:20Z</time></trkpt><trkpt lat="44.469490171688314" lon="8.908818419947512"><ele>98.0</ele><time>2026-04-03T14:29:21Z</time></trkpt><trkpt lat="44.46966406850759" lon="8.909087850402498"><ele>87.0</ele><time>2026-04-03T14:29:22Z</time></trkpt><trkpt lat="44.46983941704419" lon="8.909348745567225"><ele>76.0</ele><time>2026-04-03T14:29:23Z</time></trkpt><trkpt lat="44.47002263787622" lon="8.909602901354841"><ele>76.0</ele><time>2026-04-03T14:29:24Z</time></trkpt><trkpt lat="44.47020384084679" lon="8.909858433513358"><ele>76.0</ele><time>2026-04-03T14:29:25Z</time></trkpt><trkpt lat="44.47038580199618" lon="8.910105999076974"><ele>75.5</ele><time>2026-04-03T14:29:26Z</time></trkpt><trkpt lat="44.47058477390942" lon="8.910340673689749"><ele>75.0</ele><time>2026-04-03T14:29:27Z</time></trkpt><trkpt lat="44.47079908992771" lon="8.910541693568613"><ele>75.0</ele><time>2026-04-03T14:29:28Z</time></trkpt><trkpt lat="44.471029755565866" lon="8.910707701816317"><ele>75.0</ele><time>2026-04-03T14:29:29Z</time></trkpt><trkpt lat="44.47126774799234" lon="8.9108476740771"><ele>68.5</ele><time>2026-04-03T14:29:30Z</time></trkpt><trkpt lat="44.471512035129564" lon="8.910959810053981"><ele>62.0</ele><time>2026-04-03T14:29:31Z</time></trkpt><trkpt lat="44.471766975270135" lon="8.911033267708946"><ele>62.0</ele><time>2026-04-03T14:29:32Z</time></trkpt><trkpt lat="44.472018754728936" lon="8.911079386560047"><ele>62.0</ele><time>2026-04-03T14:29:33Z</time></trkpt><trkpt lat="44.47227451641219" lon="8.911088769566849"><ele>61.0</ele><time>2026-04-03T14:29:34Z</time></trkpt><trkpt lat="44.47252911808764" lon="8.911062566778558"><ele>60.0</ele><time>2026-04-03T14:29:35Z</time></trkpt><trkpt lat="44.47278229387563" lon="8.911010454152933"><ele>60.0</ele><time>2026-04-03T14:29:36Z</time></trkpt><trkpt lat="44.473035160206585" lon="8.910957678889746"><ele>60.0</ele><time>2026-04-03T14:29:37Z</time></trkpt><trkpt lat="44.473285198121246" lon="8.910904422980279"><ele>59.5</ele><time>2026-04-03T14:29:38Z</time></trkpt><trkpt lat="44.47353327561162" lon="8.91085262877854"><ele>59.0</ele><time>2026-04-03T14:29:38.999Z</time></trkpt><trkpt lat="44.47378072992446" lon="8.910801747595526"><ele>62.5</ele><time>2026-04-03T14:29:39.999Z</time></trkpt><trkpt lat="44.47402610588357" lon="8.910754099476797"><ele>66.0</ele><time>2026-04-03T14:29:40.999Z</time></trkpt><trkpt lat="44.474269116415634" lon="8.910710054972323"><ele>66.0</ele><time>2026-04-03T14:29:41.999Z</time></trkpt><trkpt lat="44.47451199506301" lon="8.91066628701505"><ele>66.0</ele><time>2026-04-03T14:29:42.999Z</time></trkpt><trkpt lat="44.474752624449934" lon="8.910619702940913"><ele>72.5</ele><time>2026-04-03T14:29:43.999Z</time></trkpt><trkpt lat="44.47499582274933" lon="8.910573114762883"><ele>79.0</ele><time>2026-04-03T14:29:44.999Z</time></trkpt><trkpt lat="44.47523790587122" lon="8.910526285019689"><ele>82.5</ele><time>2026-04-03T14:29:45.999Z</time></trkpt><trkpt lat="44.47548006908916" lon="8.910477217336021"><ele>86.0</ele><time>2026-04-03T14:29:46.999Z</time></trkpt><trkpt lat="44.47572304940759" lon="8.910423803761896"><ele>86.0</ele><time>2026-04-03T14:29:47.999Z</time></trkpt><trkpt lat="44.47596586769711" lon="8.910374145416458"><ele>86.0</ele><time>2026-04-03T14:29:48.999Z</time></trkpt><trkpt lat="44.47620983969442" lon="8.910335101152587"><ele>89.5</ele><time>2026-04-03T14:29:49.999Z</time></trkpt><trkpt lat="44.47645438971567" lon="8.910312563916301"><ele>93.0</ele><time>2026-04-03T14:29:50.999Z</time></trkpt><trkpt lat="44.476701668030564" lon="8.910331840883652"><ele>93.0</ele><time>2026-04-03T14:29:51.999Z</time></trkpt><trkpt lat="44.476944356948735" lon="8.910385228706367"><ele>93.0</ele><time>2026-04-03T14:29:52.999Z</time></trkpt><trkpt lat="44.47718703835046" lon="8.91047559012143"><ele>97.0</ele><time>2026-04-03T14:29:53.999Z</time></trkpt><trkpt lat="44.47741812702365" lon="8.91060979318262"><ele>101.0</ele><time>2026-04-03T14:29:54.999Z</time></trkpt><trkpt lat="44.47763656728798" lon="8.910786933917835"><ele>102.0</ele><time>2026-04-03T14:29:55.999Z</time></trkpt><trkpt lat="44.47783836336287" lon="8.910987653872992"><ele>103.0</ele><time>2026-04-03T14:29:56.999Z</time></trkpt><trkpt lat="44.47802897589869" lon="8.9112100090541"><ele>103.0</ele><time>2026-04-03T14:29:57.999Z</time></trkpt><trkpt lat="44.47819949259647" lon="8.911463607171024"><ele>103.0</ele><time>2026-04-03T14:29:58.999Z</time></trkpt><trkpt lat="44.4783402930333" lon="8.911751461416438"><ele>102.5</ele><time>2026-04-03T14:29:59.999Z</time></trkpt><trkpt lat="44.47845741109019" lon="8.91204984569798"><ele>102.0</ele><time>2026-04-03T14:30:00.999Z</time></trkpt><trkpt lat="44.47855576892801" lon="8.912365683932268"><ele>96.5</ele><time>2026-04-03T14:30:01.999Z</time></trkpt><trkpt lat="44.47863693485285" lon="8.912686210031094"><ele>91.0</ele><time>2026-04-03T14:30:02.999Z</time></trkpt><trkpt lat="44.47870798322799" lon="8.913009201025275"><ele>97.0</ele><time>2026-04-03T14:30:03.999Z</time></trkpt><trkpt lat="44.47877718190348" lon="8.913332734533482"><ele>103.0</ele><time>2026-04-03T14:30:04.999Z</time></trkpt><trkpt lat="44.47884910800347" lon="8.913651044309042"><ele>106.5</ele><time>2026-04-03T14:30:05.999Z</time></trkpt><trkpt lat="44.478925782488304" lon="8.913971868420393"><ele>110.0</ele><time>2026-04-03T14:30:06.999Z</time></trkpt><trkpt lat="44.479000804728074" lon="8.91429081065616"><ele>111.0</ele><time>2026-04-03T14:30:07.999Z</time></trkpt><trkpt lat="44.47908117336352" lon="8.914612985121579"><ele>112.0</ele><time>2026-04-03T14:30:08.999Z</time></trkpt><trkpt lat="44.47917984117277" lon="8.914925351674011"><ele>104.5</ele><time>2026-04-03T14:30:09.999Z</time></trkpt><trkpt lat="44.4793075716214" lon="8.91521695287475"><ele>97.0</ele><time>2026-04-03T14:30:10.999Z</time></trkpt><trkpt lat="44.479458314027525" lon="8.915488151477852"><ele>103.5</ele><time>2026-04-03T14:30:11.999Z</time></trkpt><trkpt lat="44.47962329910372" lon="8.915736844387899"><ele>110.0</ele><time>2026-04-03T14:30:12.999Z</time></trkpt><trkpt lat="44.47979830635498" lon="8.915974175171975"><ele>110.0</ele><time>2026-04-03T14:30:13.999Z</time></trkpt><trkpt lat="44.47997869232331" lon="8.916206627313969"><ele>110.0</ele><time>2026-04-03T14:30:14.999Z</time></trkpt><trkpt lat="44.48015674009535" lon="8.916446621553881"><ele>110.0</ele><time>2026-04-03T14:30:15.999Z</time></trkpt><trkpt lat="44.480327359509616" lon="8.916696895584534"><ele>110.0</ele><time>2026-04-03T14:30:16.999Z</time></trkpt><trkpt lat="44.48049899799369" lon="8.916946214230814"><ele>115.0</ele><time>2026-04-03T14:30:17.999Z</time></trkpt><trkpt lat="44.48067390229691" lon="8.91718621999841"><ele>120.0</ele><time>2026-04-03T14:30:18.999Z</time></trkpt><trkpt lat="44.48086383655952" lon="8.917400135656434"><ele>115.5</ele><time>2026-04-03T14:30:19.999Z</time></trkpt><trkpt lat="44.48106840008085" lon="8.917580582734038"><ele>111.0</ele><time>2026-04-03T14:30:20.999Z</time></trkpt><trkpt lat="44.48128264301222" lon="8.917730478855667"><ele>111.0</ele><time>2026-04-03T14:30:21.999Z</time></trkpt><trkpt lat="44.48150728481" lon="8.917854732290289"><ele>111.0</ele><time>2026-04-03T14:30:22.999Z</time></trkpt><trkpt lat="44.48173581078074" lon="8.917954900160488"><ele>111.0</ele><time>2026-04-03T14:30:23.999Z</time></trkpt><trkpt lat="44.481970517328286" lon="8.918037500076236"><ele>111.0</ele><time>2026-04-03T14:30:24.999Z</time></trkpt><trkpt lat="44.48220646332085" lon="8.918116693980563"><ele>117.5</ele><time>2026-04-03T14:30:25.999Z</time></trkpt><trkpt lat="44.48244263934176" lon="8.918198550611246"><ele>124.0</ele><time>2026-04-03T14:30:26.999Z</time></trkpt><trkpt lat="44.48268032541652" lon="8.918285396013568"><ele>124.0</ele><time>2026-04-03T14:30:27.999Z</time></trkpt><trkpt lat="44.48291484675638" lon="8.918374281154803"><ele>124.0</ele><time>2026-04-03T14:30:28.999Z</time></trkpt><trkpt lat="44.48315457265534" lon="8.918456734686433"><ele>119.5</ele><time>2026-04-03T14:30:29.999Z</time></trkpt><trkpt lat="44.48339664289062" lon="8.918536139800043"><ele>115.0</ele><time>2026-04-03T14:30:30.999Z</time></trkpt><trkpt lat="44.483642895376974" lon="8.918594967410606"><ele>117.0</ele><time>2026-04-03T14:30:31.999Z</time></trkpt><trkpt lat="44.48389004615337" lon="8.918622487922054"><ele>119.0</ele><time>2026-04-03T14:30:32.999Z</time></trkpt><trkpt lat="44.48414371629415" lon="8.918602527310801"><ele>119.0</ele><time>2026-04-03T14:30:33.999Z</time></trkpt><trkpt lat="44.484396319096504" lon="8.91855390759969"><ele>119.0</ele><time>2026-04-03T14:30:34.999Z</time></trkpt><trkpt lat="44.48464268177141" lon="8.91846837808019"><ele>125.0</ele><time>2026-04-03T14:30:35.999Z</time></trkpt><trkpt lat="44.484880218788916" lon="8.918343694984632"><ele>131.0</ele><time>2026-04-03T14:30:36.999Z</time></trkpt><trkpt lat="44.48511016805226" lon="8.918187304116431"><ele>131.0</ele><time>2026-04-03T14:30:37.999Z</time></trkpt><trkpt lat="44.48532424026417" lon="8.917984314257051"><ele>131.0</ele><time>2026-04-03T14:30:38.999Z</time></trkpt><trkpt lat="44.485516964786754" lon="8.917746923676933"><ele>135.0</ele><time>2026-04-03T14:30:39.999Z</time></trkpt><trkpt lat="44.485706947005156" lon="8.917496011360473"><ele>139.0</ele><time>2026-04-03T14:30:40.999Z</time></trkpt><trkpt lat="44.48589989217423" lon="8.91725311608949"><ele>139.0</ele><time>2026-04-03T14:30:41.999Z</time></trkpt><trkpt lat="44.48609414720895" lon="8.917017288343674"><ele>139.0</ele><time>2026-04-03T14:30:42.999Z</time></trkpt><trkpt lat="44.48629391044605" lon="8.916797082777189"><ele>140.0</ele><time>2026-04-03T14:30:43.999Z</time></trkpt><trkpt lat="44.48650680068553" lon="8.916603943795737"><ele>141.0</ele><time>2026-04-03T14:30:44.999Z</time></trkpt><trkpt lat="44.48673376926125" lon="8.916445997875144"><ele>141.0</ele><time>2026-04-03T14:30:45.999Z</time></trkpt><trkpt lat="44.4869692177653" lon="8.916312948859849"><ele>141.0</ele><time>2026-04-03T14:30:46.999Z</time></trkpt><trkpt lat="44.4872138516854" lon="8.916220592032385"><ele>145.0</ele><time>2026-04-03T14:30:47.999Z</time></trkpt><trkpt lat="44.48746255860376" lon="8.916162327405628"><ele>149.0</ele><time>2026-04-03T14:30:48.999Z</time></trkpt><trkpt lat="44.487713338602255" lon="8.916132838887927"><ele>149.0</ele><time>2026-04-03T14:30:49.999Z</time></trkpt><trkpt lat="44.48796344570456" lon="8.916131992747152"><ele>149.0</ele><time>2026-04-03T14:30:50.999Z</time></trkpt><trkpt lat="44.48821023194875" lon="8.91616553237363"><ele>149.0</ele><time>2026-04-03T14:30:51.999Z</time></trkpt><trkpt lat="44.488454275878055" lon="8.916226253324169"><ele>149.0</ele><time>2026-04-03T14:30:52.999Z</time></trkpt><trkpt lat="44.488693006596186" lon="8.916317017066103"><ele>148.5</ele><time>2026-04-03T14:30:53.999Z</time></trkpt><trkpt lat="44.488925232171205" lon="8.916428386919456"><ele>148.0</ele><time>2026-04-03T14:30:54.999Z</time></trkpt><trkpt lat="44.48915448515192" lon="8.916558406977298"><ele>148.0</ele><time>2026-04-03T14:30:55.999Z</time></trkpt><trkpt lat="44.4893850752097" lon="8.916684513280853"><ele>148.0</ele><time>2026-04-03T14:30:56.999Z</time></trkpt><trkpt lat="44.489623018061884" lon="8.916794367901884"><ele>150.5</ele><time>2026-04-03T14:30:57.999Z</time></trkpt><trkpt lat="44.489865768332606" lon="8.916895236592051"><ele>153.0</ele><time>2026-04-03T14:30:58.999Z</time></trkpt><trkpt lat="44.490107987905056" lon="8.91699601177204"><ele>153.0</ele><time>2026-04-03T14:30:59.999Z</time></trkpt><trkpt lat="44.49034861533817" lon="8.917101800701403"><ele>153.0</ele><time>2026-04-03T14:31:00.999Z</time></trkpt><trkpt lat="44.49058860396289" lon="8.917206240781972"><ele>152.0</ele><time>2026-04-03T14:31:01.999Z</time></trkpt><trkpt lat="44.4908325768137" lon="8.917312410495452"><ele>151.0</ele><time>2026-04-03T14:31:02.999Z</time></trkpt><trkpt lat="44.49107607793919" lon="8.917419249345048"><ele>155.5</ele><time>2026-04-03T14:31:03.999Z</time></trkpt><trkpt lat="44.49131860040413" lon="8.917525065238529"><ele>160.0</ele><time>2026-04-03T14:31:04.999Z</time></trkpt><trkpt lat="44.491562765765416" lon="8.917631303286736"><ele>151.0</ele><time>2026-04-03T14:31:05.999Z</time></trkpt><trkpt lat="44.491804254655" lon="8.917738020430326"><ele>142.0</ele><time>2026-04-03T14:31:06.999Z</time></trkpt><trkpt lat="44.49205140268408" lon="8.917841777205275"><ele>151.0</ele><time>2026-04-03T14:31:07.999Z</time></trkpt><trkpt lat="44.49230130584993" lon="8.917924436169855"><ele>160.0</ele><time>2026-04-03T14:31:08.999Z</time></trkpt><trkpt lat="44.49255557940166" lon="8.917962413780712"><ele>160.0</ele><time>2026-04-03T14:31:09.999Z</time></trkpt><trkpt lat="44.49281402121772" lon="8.91796652450657"><ele>160.0</ele><time>2026-04-03T14:31:10.998Z</time></trkpt><trkpt lat="44.493074228152864" lon="8.917933306168871"><ele>163.5</ele><time>2026-04-03T14:31:11.998Z</time></trkpt><trkpt lat="44.493326005765724" lon="8.917869993969063"><ele>167.0</ele><time>2026-04-03T14:31:13Z</time></trkpt><trkpt lat="44.49357071281269" lon="8.91777251298067"><ele>168.0</ele><time>2026-04-03T14:31:14Z</time></trkpt><trkpt lat="44.493811315911266" lon="8.917646777165812"><ele>169.0</ele><time>2026-04-03T14:31:15Z</time></trkpt><trkpt lat="44.49404015566501" lon="8.917493560094103"><ele>169.0</ele><time>2026-04-03T14:31:16Z</time></trkpt><trkpt lat="44.49426428284282" lon="8.917330003740924"><ele>169.0</ele><time>2026-04-03T14:31:17Z</time></trkpt><trkpt lat="44.494482128087974" lon="8.917156856945288"><ele>161.5</ele><time>2026-04-03T14:31:18Z</time></trkpt><trkpt lat="44.494701615516455" lon="8.916989277670327"><ele>154.0</ele><time>2026-04-03T14:31:19Z</time></trkpt><trkpt lat="44.49491932379757" lon="8.916821156436603"><ele>165.0</ele><time>2026-04-03T14:31:20Z</time></trkpt><trkpt lat="44.49513658107071" lon="8.916651010545545"><ele>176.0</ele><time>2026-04-03T14:31:21Z</time></trkpt><trkpt lat="44.49535262519699" lon="8.91649444411584"><ele>167.0</ele><time>2026-04-03T14:31:22Z</time></trkpt><trkpt lat="44.49557497191188" lon="8.916357528077219"><ele>158.0</ele><time>2026-04-03T14:31:23Z</time></trkpt><trkpt lat="44.49580246213638" lon="8.916260231956862"><ele>158.0</ele><time>2026-04-03T14:31:24Z</time></trkpt><trkpt lat="44.49603650978528" lon="8.916187757067993"><ele>158.0</ele><time>2026-04-03T14:31:25Z</time></trkpt><trkpt lat="44.49627720833487" lon="8.916146888275513"><ele>161.0</ele><time>2026-04-03T14:31:26Z</time></trkpt><trkpt lat="44.49651861358116" lon="8.916144327175985"><ele>164.0</ele><time>2026-04-03T14:31:27Z</time></trkpt><trkpt lat="44.49676088421979" lon="8.916165753220545"><ele>164.0</ele><time>2026-04-03T14:31:28Z</time></trkpt><trkpt lat="44.497000998423886" lon="8.916210212198889"><ele>164.0</ele><time>2026-04-03T14:31:29Z</time></trkpt><trkpt lat="44.49723447765281" lon="8.916285755742347"><ele>169.5</ele><time>2026-04-03T14:31:30Z</time></trkpt><trkpt lat="44.49746420194154" lon="8.916397301349031"><ele>175.0</ele><time>2026-04-03T14:31:31Z</time></trkpt><trkpt lat="44.49768763749411" lon="8.916519277480223"><ele>175.0</ele><time>2026-04-03T14:31:31.999Z</time></trkpt><trkpt lat="44.49790895027575" lon="8.916650186702764"><ele>175.0</ele><time>2026-04-03T14:31:32.999Z</time></trkpt><trkpt lat="44.49813108596149" lon="8.916774775082805"><ele>175.5</ele><time>2026-04-03T14:31:33.999Z</time></trkpt><trkpt lat="44.4983593883572" lon="8.91687416384687"><ele>176.0</ele><time>2026-04-03T14:31:34.999Z</time></trkpt><trkpt lat="44.49859554141342" lon="8.916943040101884"><ele>176.5</ele><time>2026-04-03T14:31:35.999Z</time></trkpt><trkpt lat="44.49883836115364" lon="8.916990267735834"><ele>177.0</ele><time>2026-04-03T14:31:36.999Z</time></trkpt><trkpt lat="44.49908415208023" lon="8.917012898177967"><ele>177.0</ele><time>2026-04-03T14:31:37.999Z</time></trkpt><trkpt lat="44.49932934083853" lon="8.917013693770764"><ele>177.0</ele><time>2026-04-03T14:31:38.999Z</time></trkpt><trkpt lat="44.499573660001076" lon="8.917005141146676"><ele>178.0</ele><time>2026-04-03T14:31:39.999Z</time></trkpt><trkpt lat="44.49981281861469" lon="8.91700554954111"><ele>179.0</ele><time>2026-04-03T14:31:40.999Z</time></trkpt><trkpt lat="44.50005373447278" lon="8.917031635586804"><ele>179.0</ele><time>2026-04-03T14:31:41.999Z</time></trkpt><trkpt lat="44.500293469837985" lon="8.917088264482278"><ele>179.0</ele><time>2026-04-03T14:31:42.999Z</time></trkpt><trkpt lat="44.500529251445904" lon="8.917163229451228"><ele>185.0</ele><time>2026-04-03T14:31:43.999Z</time></trkpt><trkpt lat="44.50076249589693" lon="8.91725975302764"><ele>191.0</ele><time>2026-04-03T14:31:44.999Z</time></trkpt><trkpt lat="44.50098851077579" lon="8.917386086400947"><ele>191.0</ele><time>2026-04-03T14:31:45.999Z</time></trkpt><trkpt lat="44.50120580952118" lon="8.91754236044961"><ele>191.0</ele><time>2026-04-03T14:31:46.999Z</time></trkpt><trkpt lat="44.50141935360459" lon="8.917712190027032"><ele>193.5</ele><time>2026-04-03T14:31:47.999Z</time></trkpt><trkpt lat="44.50162936702223" lon="8.917894199929934"><ele>196.0</ele><time>2026-04-03T14:31:48.999Z</time></trkpt><trkpt lat="44.50183892532161" lon="8.918083412316992"><ele>196.0</ele><time>2026-04-03T14:31:49.999Z</time></trkpt><trkpt lat="44.50204996339328" lon="8.918272605669832"><ele>196.0</ele><time>2026-04-03T14:31:50.999Z</time></trkpt><trkpt lat="44.502258863374784" lon="8.918461701528555"><ele>201.5</ele><time>2026-04-03T14:31:51.999Z</time></trkpt><trkpt lat="44.50247193570634" lon="8.91864699268823"><ele>207.0</ele><time>2026-04-03T14:31:52.999Z</time></trkpt><trkpt lat="44.50268712876409" lon="8.918825365001705"><ele>207.0</ele><time>2026-04-03T14:31:53.999Z</time></trkpt><trkpt lat="44.502908509036246" lon="8.918987965065346"><ele>207.0</ele><time>2026-04-03T14:31:54.999Z</time></trkpt><trkpt lat="44.50313863076735" lon="8.91911548038662"><ele>210.5</ele><time>2026-04-03T14:31:55.999Z</time></trkpt><trkpt lat="44.50337828193182" lon="8.919215759501663"><ele>214.0</ele><time>2026-04-03T14:31:56.999Z</time></trkpt><trkpt lat="44.50362172156266" lon="8.919286535758307"><ele>207.5</ele><time>2026-04-03T14:31:57.999Z</time></trkpt><trkpt lat="44.503864252036756" lon="8.919359795379316"><ele>201.0</ele><time>2026-04-03T14:31:58.999Z</time></trkpt><trkpt lat="44.50409955492467" lon="8.919457983632785"><ele>201.0</ele><time>2026-04-03T14:31:59.999Z</time></trkpt><trkpt lat="44.504324905004424" lon="8.919590759586557"><ele>201.0</ele><time>2026-04-03T14:32:00.999Z</time></trkpt><trkpt lat="44.50453976456686" lon="8.919756930144606"><ele>200.0</ele><time>2026-04-03T14:32:01.999Z</time></trkpt><trkpt lat="44.504738528864365" lon="8.919954610282268"><ele>199.0</ele><time>2026-04-03T14:32:02.999Z</time></trkpt><trkpt lat="44.50491910646072" lon="8.920183032601964"><ele>199.0</ele><time>2026-04-03T14:32:03.999Z</time></trkpt><trkpt lat="44.505076794208385" lon="8.920441478735707"><ele>199.0</ele><time>2026-04-03T14:32:04.999Z</time></trkpt><trkpt lat="44.5052170318033" lon="8.920726402058042"><ele>199.0</ele><time>2026-04-03T14:32:05.999Z</time></trkpt><trkpt lat="44.505336785084204" lon="8.92103012262573"><ele>199.0</ele><time>2026-04-03T14:32:06.999Z</time></trkpt><trkpt lat="44.505435309172846" lon="8.921347171725927"><ele>214.5</ele><time>2026-04-03T14:32:07.999Z</time></trkpt><trkpt lat="44.50552044451973" lon="8.921666929297812"><ele>230.0</ele><time>2026-04-03T14:32:08.999Z</time></trkpt><trkpt lat="44.505601629276114" lon="8.921997633675444"><ele>230.5</ele><time>2026-04-03T14:32:09.999Z</time></trkpt><trkpt lat="44.50568856727182" lon="8.922321242482264"><ele>231.0</ele><time>2026-04-03T14:32:10.999Z</time></trkpt><trkpt lat="44.50577894602278" lon="8.922647795971834"><ele>223.0</ele><time>2026-04-03T14:32:11.999Z</time></trkpt><trkpt lat="44.5058717449219" lon="8.92297430425044"><ele>215.0</ele><time>2026-04-03T14:32:12.999Z</time></trkpt><trkpt lat="44.50596523370719" lon="8.92329519283406"><ele>208.0</ele><time>2026-04-03T14:32:13.999Z</time></trkpt><trkpt lat="44.50607358710339" lon="8.923612188935682"><ele>201.0</ele><time>2026-04-03T14:32:14.999Z</time></trkpt><trkpt lat="44.506206019763475" lon="8.92390831065991"><ele>207.5</ele><time>2026-04-03T14:32:15.999Z</time></trkpt><trkpt lat="44.50635336458298" lon="8.92418258522407"><ele>214.0</ele><time>2026-04-03T14:32:16.999Z</time></trkpt><trkpt lat="44.5065322761739" lon="8.924428243919781"><ele>214.0</ele><time>2026-04-03T14:32:17.999Z</time></trkpt><trkpt lat="44.50672378313413" lon="8.924652987605583"><ele>214.0</ele><time>2026-04-03T14:32:18.999Z</time></trkpt><trkpt lat="44.50692471476953" lon="8.924850303475328"><ele>215.5</ele><time>2026-04-03T14:32:19.999Z</time></trkpt><trkpt lat="44.50713951261966" lon="8.925012707263715"><ele>217.0</ele><time>2026-04-03T14:32:20.999Z</time></trkpt><trkpt lat="44.50736724144175" lon="8.92514113452374"><ele>209.5</ele><time>2026-04-03T14:32:21.999Z</time></trkpt><trkpt lat="44.50760410263605" lon="8.925238514751218"><ele>202.0</ele><time>2026-04-03T14:32:22.999Z</time></trkpt><trkpt lat="44.50784576604601" lon="8.925304292420417"><ele>213.5</ele><time>2026-04-03T14:32:23.999Z</time></trkpt><trkpt lat="44.508091636693486" lon="8.925359697792809"><ele>225.0</ele><time>2026-04-03T14:32:24.999Z</time></trkpt><trkpt lat="44.50834035652715" lon="8.92542206448432"><ele>225.0</ele><time>2026-04-03T14:32:25.999Z</time></trkpt><trkpt lat="44.50858761625689" lon="8.925493730337859"><ele>225.0</ele><time>2026-04-03T14:32:26.999Z</time></trkpt><trkpt lat="44.508835092641405" lon="8.92556651841102"><ele>226.0</ele><time>2026-04-03T14:32:27.999Z</time></trkpt><trkpt lat="44.50908434833799" lon="8.925634044094577"><ele>227.0</ele><time>2026-04-03T14:32:28.999Z</time></trkpt><trkpt lat="44.50933340012316" lon="8.92570168598632"><ele>231.0</ele><time>2026-04-03T14:32:29.999Z</time></trkpt><trkpt lat="44.50958286414086" lon="8.92577622122052"><ele>235.0</ele><time>2026-04-03T14:32:30.999Z</time></trkpt><trkpt lat="44.50983324725422" lon="8.925852267619979"><ele>228.5</ele><time>2026-04-03T14:32:31.999Z</time></trkpt><trkpt lat="44.51008503608955" lon="8.925926509426876"><ele>222.0</ele><time>2026-04-03T14:32:32.999Z</time></trkpt><trkpt lat="44.51033811646038" lon="8.925997964370927"><ele>230.5</ele><time>2026-04-03T14:32:33.999Z</time></trkpt><trkpt lat="44.51059067663873" lon="8.926065975840828"><ele>239.0</ele><time>2026-04-03T14:32:34.999Z</time></trkpt><trkpt lat="44.51084393558453" lon="8.926135205377223"><ele>239.0</ele><time>2026-04-03T14:32:35.999Z</time></trkpt><trkpt lat="44.51109541033636" lon="8.926204512199696"><ele>239.0</ele><time>2026-04-03T14:32:36.999Z</time></trkpt><trkpt lat="44.51134680180222" lon="8.926278048834341"><ele>243.0</ele><time>2026-04-03T14:32:37.999Z</time></trkpt><trkpt lat="44.51159466455192" lon="8.92636424386067"><ele>247.0</ele><time>2026-04-03T14:32:38.999Z</time></trkpt><trkpt lat="44.51183744887926" lon="8.92647917742171"><ele>247.0</ele><time>2026-04-03T14:32:39.999Z</time></trkpt><trkpt lat="44.512070717357105" lon="8.926628253106852"><ele>247.0</ele><time>2026-04-03T14:32:40.999Z</time></trkpt><trkpt lat="44.51229019855342" lon="8.92681808244437"><ele>243.0</ele><time>2026-04-03T14:32:41.999Z</time></trkpt><trkpt lat="44.51249662974958" lon="8.927036743818554"><ele>239.0</ele><time>2026-04-03T14:32:42.999Z</time></trkpt><trkpt lat="44.51268981682094" lon="8.927281730581479"><ele>233.5</ele><time>2026-04-03T14:32:43.999Z</time></trkpt><trkpt lat="44.512857330052235" lon="8.927561972449038"><ele>228.0</ele><time>2026-04-03T14:32:44.999Z</time></trkpt><trkpt lat="44.51300496261936" lon="8.927859911257286"><ele>243.5</ele><time>2026-04-03T14:32:45.999Z</time></trkpt><trkpt lat="44.51312317356048" lon="8.928182417552526"><ele>259.0</ele><time>2026-04-03T14:32:46.999Z</time></trkpt><trkpt lat="44.513212668991976" lon="8.928515448901184"><ele>260.0</ele><time>2026-04-03T14:32:47.999Z</time></trkpt><trkpt lat="44.51328245606334" lon="8.928851776287532"><ele>261.0</ele><time>2026-04-03T14:32:48.999Z</time></trkpt><trkpt lat="44.513320283046305" lon="8.929191959302514"><ele>268.0</ele><time>2026-04-03T14:32:49.999Z</time></trkpt><trkpt lat="44.51333243987707" lon="8.929526284016093"><ele>275.0</ele><time>2026-04-03T14:32:50.999Z</time></trkpt><trkpt lat="44.513318788208046" lon="8.929852337084549"><ele>274.5</ele><time>2026-04-03T14:32:51.999Z</time></trkpt><trkpt lat="44.513286403287246" lon="8.930174309907633"><ele>274.0</ele><time>2026-04-03T14:32:52.999Z</time></trkpt><trkpt lat="44.513244846094494" lon="8.930488401902192"><ele>274.0</ele><time>2026-04-03T14:32:53.999Z</time></trkpt><trkpt lat="44.513218356065906" lon="8.930826232005591"><ele>274.0</ele><time>2026-04-03T14:32:54.999Z</time></trkpt><trkpt lat="44.51318418367168" lon="8.931139993854552"><ele>268.0</ele><time>2026-04-03T14:32:55.999Z</time></trkpt><trkpt lat="44.51316255414974" lon="8.931515595401649"><ele>262.0</ele><time>2026-04-03T14:32:56.999Z</time></trkpt><trkpt lat="44.51314479570254" lon="8.931861928819288"><ele>259.5</ele><time>2026-04-03T14:32:57.999Z</time></trkpt><trkpt lat="44.513141829496774" lon="8.932212331457931"><ele>257.0</ele><time>2026-04-03T14:32:58.999Z</time></trkpt><trkpt lat="44.513173275676415" lon="8.932559589775007"><ele>257.0</ele><time>2026-04-03T14:32:59.999Z</time></trkpt><trkpt lat="44.51323269414629" lon="8.932905708290052"><ele>257.0</ele><time>2026-04-03T14:33:00.999Z</time></trkpt><trkpt lat="44.513321934322605" lon="8.933245079092728"><ele>262.0</ele><time>2026-04-03T14:33:01.999Z</time></trkpt><trkpt lat="44.51343270013345" lon="8.93356664861885"><ele>267.0</ele><time>2026-04-03T14:33:02.999Z</time></trkpt><trkpt lat="44.51357333235711" lon="8.933865994316244"><ele>267.0</ele><time>2026-04-03T14:33:03.999Z</time></trkpt><trkpt lat="44.51373728842424" lon="8.934140648497891"><ele>267.0</ele><time>2026-04-03T14:33:04.998Z</time></trkpt><trkpt lat="44.51391659841516" lon="8.934390217374085"><ele>269.0</ele><time>2026-04-03T14:33:05.998Z</time></trkpt><trkpt lat="44.514117898091484" lon="8.934602269551311"><ele>271.0</ele><time>2026-04-03T14:33:06.998Z</time></trkpt><trkpt lat="44.5143319491197" lon="8.934780858642313"><ele>271.0</ele><time>2026-04-03T14:33:07.998Z</time></trkpt><trkpt lat="44.5145577299285" lon="8.934916931431761"><ele>271.0</ele><time>2026-04-03T14:33:08.998Z</time></trkpt><trkpt lat="44.51479175883583" lon="8.935018248069788"><ele>263.5</ele><time>2026-04-03T14:33:09.998Z</time></trkpt><trkpt lat="44.51502727947937" lon="8.935090090936736"><ele>256.0</ele><time>2026-04-03T14:33:10.998Z</time></trkpt><trkpt lat="44.51526424067312" lon="8.935123207419215"><ele>253.0</ele><time>2026-04-03T14:33:11.998Z</time></trkpt><trkpt lat="44.51549992505753" lon="8.9351297380672"><ele>250.0</ele><time>2026-04-03T14:33:12.998Z</time></trkpt><trkpt lat="44.51573202415374" lon="8.93510355629905"><ele>250.0</ele><time>2026-04-03T14:33:13.998Z</time></trkpt><trkpt lat="44.515963097267836" lon="8.93505769311889"><ele>250.0</ele><time>2026-04-03T14:33:14.998Z</time></trkpt><trkpt lat="44.516201439047016" lon="8.935009244906512"><ele>253.0</ele><time>2026-04-03T14:33:15.998Z</time></trkpt><trkpt lat="44.516436323629605" lon="8.934964753484168"><ele>256.0</ele><time>2026-04-03T14:33:16.998Z</time></trkpt><trkpt lat="44.516671530908255" lon="8.934926328445346"><ele>256.0</ele><time>2026-04-03T14:33:17.998Z</time></trkpt><trkpt lat="44.51690804540775" lon="8.934894750937529"><ele>256.0</ele><time>2026-04-03T14:33:18.999Z</time></trkpt><trkpt lat="44.51714358838229" lon="8.934885657466832"><ele>261.0</ele><time>2026-04-03T14:33:19.999Z</time></trkpt><trkpt lat="44.51737770632284" lon="8.934920029936967"><ele>266.0</ele><time>2026-04-03T14:33:20.999Z</time></trkpt><trkpt lat="44.51760755127815" lon="8.934986013689052"><ele>261.0</ele><time>2026-04-03T14:33:21.999Z</time></trkpt><trkpt lat="44.517831536246625" lon="8.935081421262629"><ele>256.0</ele><time>2026-04-03T14:33:22.999Z</time></trkpt><trkpt lat="44.51804678799618" lon="8.93521192955156"><ele>253.5</ele><time>2026-04-03T14:33:23.999Z</time></trkpt><trkpt lat="44.518254230915836" lon="8.93536196668536"><ele>251.0</ele><time>2026-04-03T14:33:24.999Z</time></trkpt><trkpt lat="44.51846232171752" lon="8.935515575646196"><ele>251.0</ele><time>2026-04-03T14:33:25.999Z</time></trkpt><trkpt lat="44.51867620913919" lon="8.935664115900208"><ele>251.0</ele><time>2026-04-03T14:33:26.999Z</time></trkpt><trkpt lat="44.5188931489698" lon="8.935807775764532"><ele>259.5</ele><time>2026-04-03T14:33:27.999Z</time></trkpt><trkpt lat="44.51911047001589" lon="8.93594948186446"><ele>268.0</ele><time>2026-04-03T14:33:28.999Z</time></trkpt><trkpt lat="44.519328970565816" lon="8.936094152847776"><ele>268.0</ele><time>2026-04-03T14:33:29.999Z</time></trkpt><trkpt lat="44.51954894856793" lon="8.936241904924932"><ele>268.0</ele><time>2026-04-03T14:33:30.999Z</time></trkpt><trkpt lat="44.519769630413116" lon="8.936383692591917"><ele>279.0</ele><time>2026-04-03T14:33:31.999Z</time></trkpt><trkpt lat="44.51999897736452" lon="8.93650194225205"><ele>290.0</ele><time>2026-04-03T14:33:32.999Z</time></trkpt><trkpt lat="44.5202379129579" lon="8.93659751187574"><ele>294.5</ele><time>2026-04-03T14:33:33.999Z</time></trkpt><trkpt lat="44.52047937373707" lon="8.936653032853055"><ele>299.0</ele><time>2026-04-03T14:33:34.999Z</time></trkpt><trkpt lat="44.52072273100655" lon="8.936656355891255"><ele>299.0</ele><time>2026-04-03T14:33:35.999Z</time></trkpt><trkpt lat="44.52096284483965" lon="8.936606916986417"><ele>299.0</ele><time>2026-04-03T14:33:36.999Z</time></trkpt><trkpt lat="44.52120448407991" lon="8.936539602957161"><ele>296.5</ele><time>2026-04-03T14:33:37.999Z</time></trkpt><trkpt lat="44.52144236399347" lon="8.936448977546082"><ele>294.0</ele><time>2026-04-03T14:33:38.999Z</time></trkpt><trkpt lat="44.52168289250749" lon="8.936361109168807"><ele>294.0</ele><time>2026-04-03T14:33:39.999Z</time></trkpt><trkpt lat="44.52192404682447" lon="8.936277782006139"><ele>294.0</ele><time>2026-04-03T14:33:40.999Z</time></trkpt><trkpt lat="44.52217166821646" lon="8.936208906392904"><ele>294.0</ele><time>2026-04-03T14:33:41.999Z</time></trkpt><trkpt lat="44.522418491189406" lon="8.936152957056656"><ele>294.0</ele><time>2026-04-03T14:33:42.999Z</time></trkpt><trkpt lat="44.52266718309883" lon="8.936127878437922"><ele>308.5</ele><time>2026-04-03T14:33:43.999Z</time></trkpt><trkpt lat="44.522915968594326" lon="8.936146942991064"><ele>323.0</ele><time>2026-04-03T14:33:44.999Z</time></trkpt><trkpt lat="44.52316042133551" lon="8.936202366242666"><ele>323.0</ele><time>2026-04-03T14:33:45.999Z</time></trkpt><trkpt lat="44.52339580294041" lon="8.93628495549287"><ele>323.0</ele><time>2026-04-03T14:33:46.999Z</time></trkpt><trkpt lat="44.52363688558673" lon="8.936381486690337"><ele>324.0</ele><time>2026-04-03T14:33:47.999Z</time></trkpt><trkpt lat="44.523864341823106" lon="8.936508296645677"><ele>325.0</ele><time>2026-04-03T14:33:48.999Z</time></trkpt><trkpt lat="44.52408254147782" lon="8.936662614827771"><ele>311.0</ele><time>2026-04-03T14:33:49.999Z</time></trkpt><trkpt lat="44.524294897355226" lon="8.93681534293353"><ele>297.0</ele><time>2026-04-03T14:33:50.999Z</time></trkpt><trkpt lat="44.52454254845527" lon="8.937072539365717"><ele>300.6666666666667</ele><time>2026-04-03T14:33:51.999Z</time></trkpt><trkpt lat="44.524719910228214" lon="8.937216463216313"><ele>304.33333333333337</ele><time>2026-04-03T14:33:52.999Z</time></trkpt><trkpt lat="44.5249064015798" lon="8.937347574909117"><ele>308.0</ele><time>2026-04-03T14:33:53.999Z</time></trkpt><trkpt lat="44.52508797046958" lon="8.937478595278407"><ele>307.0</ele><time>2026-04-03T14:33:54.999Z</time></trkpt><trkpt lat="44.52526552822835" lon="8.937605373208745"><ele>306.0</ele><time>2026-04-03T14:33:55.999Z</time></trkpt><trkpt lat="44.52543899271731" lon="8.937729428973181"><ele>305.0</ele><time>2026-04-03T14:33:56.999Z</time></trkpt><trkpt lat="44.52560730588911" lon="8.93784861216577"><ele>305.0</ele><time>2026-04-03T14:33:57.999Z</time></trkpt><trkpt lat="44.52577063774825" lon="8.93795555148512"><ele>305.0</ele><time>2026-04-03T14:33:58.999Z</time></trkpt><trkpt lat="44.52593466234694" lon="8.938047369846442"><ele>305.0</ele><time>2026-04-03T14:33:59.999Z</time></trkpt><trkpt lat="44.526096531169465" lon="8.938134180631685"><ele>307.0</ele><time>2026-04-03T14:34:00.999Z</time></trkpt><trkpt lat="44.52625088820944" lon="8.938220190848973"><ele>309.0</ele><time>2026-04-03T14:34:01.999Z</time></trkpt><trkpt lat="44.526401982685144" lon="8.938299217840218"><ele>311.0</ele><time>2026-04-03T14:34:02.999Z</time></trkpt><trkpt lat="44.52655105057084" lon="8.938378914300994"><ele>305.33333333333337</ele><time>2026-04-03T14:34:03.999Z</time></trkpt><trkpt lat="44.526697282956526" lon="8.938455161488875"><ele>299.6666666666667</ele><time>2026-04-03T14:34:04.999Z</time></trkpt><trkpt lat="44.52685077518975" lon="8.938532388710836"><ele>294.0</ele><time>2026-04-03T14:34:05.999Z</time></trkpt><trkpt lat="44.52700186138167" lon="8.938611274997495"><ele>293.6666666666667</ele><time>2026-04-03T14:34:06.999Z</time></trkpt><trkpt lat="44.52715142630335" lon="8.938689983711745"><ele>293.33333333333337</ele><time>2026-04-03T14:34:07.999Z</time></trkpt><trkpt lat="44.5273046623175" lon="8.93877012741408"><ele>293.0</ele><time>2026-04-03T14:34:08.999Z</time></trkpt><trkpt lat="44.52745964948057" lon="8.938851870490728"><ele>293.0</ele><time>2026-04-03T14:34:09.999Z</time></trkpt><trkpt lat="44.5276145187527" lon="8.938932877309862"><ele>293.0</ele><time>2026-04-03T14:34:10.999Z</time></trkpt><trkpt lat="44.52777028505782" lon="8.93901353333501"><ele>293.0</ele><time>2026-04-03T14:34:11.999Z</time></trkpt><trkpt lat="44.52792786801347" lon="8.939096235206035"><ele>294.6666666666667</ele><time>2026-04-03T14:34:12.999Z</time></trkpt><trkpt lat="44.52808270578185" lon="8.939177756525122"><ele>296.3333333333333</ele><time>2026-04-03T14:34:13.999Z</time></trkpt><trkpt lat="44.52823643320181" lon="8.9392598332188"><ele>298.0</ele><time>2026-04-03T14:34:14.999Z</time></trkpt><trkpt lat="44.528392028958606" lon="8.939336223204034"><ele>298.0</ele><time>2026-04-03T14:34:15.999Z</time></trkpt><trkpt lat="44.52855193203569" lon="8.939420756258082"><ele>298.0</ele><time>2026-04-03T14:34:16.999Z</time></trkpt><trkpt lat="44.52870553029978" lon="8.939503761782808"><ele>298.0</ele><time>2026-04-03T14:34:17.999Z</time></trkpt><trkpt lat="44.52885760226338" lon="8.939586085878538"><ele>306.3333333333333</ele><time>2026-04-03T14:34:18.999Z</time></trkpt><trkpt lat="44.529009676723255" lon="8.939666547152514"><ele>314.6666666666667</ele><time>2026-04-03T14:34:19.999Z</time></trkpt><trkpt lat="44.52915914887192" lon="8.939744128200399"><ele>323.0</ele><time>2026-04-03T14:34:20.999Z</time></trkpt><trkpt lat="44.529307907111075" lon="8.93982347531133"><ele>323.0</ele><time>2026-04-03T14:34:21.999Z</time></trkpt><trkpt lat="44.52945788904153" lon="8.939906057925096"><ele>323.0</ele><time>2026-04-03T14:34:22.999Z</time></trkpt><trkpt lat="44.52960668637384" lon="8.93998484245624"><ele>323.0</ele><time>2026-04-03T14:34:23.999Z</time></trkpt><trkpt lat="44.529759330813775" lon="8.940060847160284"><ele>328.0</ele><time>2026-04-03T14:34:24.999Z</time></trkpt><trkpt lat="44.529916448540355" lon="8.940135026928735"><ele>333.0</ele><time>2026-04-03T14:34:25.999Z</time></trkpt><trkpt lat="44.53007464347721" lon="8.94020657206025"><ele>338.0</ele><time>2026-04-03T14:34:26.999Z</time></trkpt><trkpt lat="44.53024199671298" lon="8.940274156982202"><ele>341.0</ele><time>2026-04-03T14:34:27.999Z</time></trkpt><trkpt lat="44.53041587509301" lon="8.94033663613609"><ele>344.0</ele><time>2026-04-03T14:34:29Z</time></trkpt><trkpt lat="44.5305933306459" lon="8.940395388517308"><ele>347.0</ele><time>2026-04-03T14:34:30Z</time></trkpt><trkpt lat="44.53077273633477" lon="8.94045635850385"><ele>347.0</ele><time>2026-04-03T14:34:31Z</time></trkpt><trkpt lat="44.53096041531644" lon="8.94051682798868"><ele>347.0</ele><time>2026-04-03T14:34:32Z</time></trkpt><trkpt lat="44.53114678248573" lon="8.940580704797371"><ele>347.0</ele><time>2026-04-03T14:34:33Z</time></trkpt><trkpt lat="44.531332686334935" lon="8.940644792508255"><ele>355.33333333333337</ele><time>2026-04-03T14:34:34Z</time></trkpt><trkpt lat="44.5315185455813" lon="8.94070942479936"><ele>363.6666666666667</ele><time>2026-04-03T14:34:35Z</time></trkpt><trkpt lat="44.5317037360679" lon="8.940773035638186"><ele>372.0</ele><time>2026-04-03T14:34:36Z</time></trkpt><trkpt lat="44.53189443606445" lon="8.940829771427573"><ele>380.0</ele><time>2026-04-03T14:34:37Z</time></trkpt><trkpt lat="44.532095659063344" lon="8.940873814241575"><ele>388.0</ele><time>2026-04-03T14:34:38Z</time></trkpt><trkpt lat="44.53228567677066" lon="8.940932364575819"><ele>396.0</ele><time>2026-04-03T14:34:39Z</time></trkpt><trkpt lat="44.53246037244678" lon="8.940984861021859"><ele>396.0</ele><time>2026-04-03T14:34:40Z</time></trkpt><trkpt lat="44.532643607827204" lon="8.941042487720102"><ele>396.0</ele><time>2026-04-03T14:34:41Z</time></trkpt><trkpt lat="44.53282593359133" lon="8.941100545793427"><ele>396.0</ele><time>2026-04-03T14:34:42Z</time></trkpt><trkpt lat="44.53301018188276" lon="8.941157472875584"><ele>395.66666666666663</ele><time>2026-04-03T14:34:43Z</time></trkpt><trkpt lat="44.53322137649931" lon="8.941266251520181"><ele>395.3333333333333</ele><time>2026-04-03T14:34:45Z</time></trkpt><trkpt lat="44.53338683297783" lon="8.941325358397465"><ele>395.0</ele><time>2026-04-03T14:34:46Z</time></trkpt><trkpt lat="44.533553494371986" lon="8.941379720853057"><ele>387.0</ele><time>2026-04-03T14:34:47Z</time></trkpt><trkpt lat="44.533722351813566" lon="8.941432625569655"><ele>379.0</ele><time>2026-04-03T14:34:48Z</time></trkpt><trkpt lat="44.53388948946602" lon="8.94148762518611"><ele>371.0</ele><time>2026-04-03T14:34:49Z</time></trkpt><trkpt lat="44.5340531504289" lon="8.941550527619473"><ele>371.0</ele><time>2026-04-03T14:34:50Z</time></trkpt><trkpt lat="44.53421921444359" lon="8.941609740345747"><ele>371.0</ele><time>2026-04-03T14:34:51Z</time></trkpt><trkpt lat="44.534384531540994" lon="8.941668943384682"><ele>371.0</ele><time>2026-04-03T14:34:52Z</time></trkpt><trkpt lat="44.53455068552117" lon="8.941725935527378"><ele>372.6666666666667</ele><time>2026-04-03T14:34:53Z</time></trkpt><trkpt lat="44.53473939199078" lon="8.94180897765266"><ele>374.3333333333333</ele><time>2026-04-03T14:34:54Z</time></trkpt><trkpt lat="44.53492591388144" lon="8.941852056593707"><ele>376.0</ele><time>2026-04-03T14:34:55Z</time></trkpt><trkpt lat="44.535099125186186" lon="8.941924248060673"><ele>376.0</ele><time>2026-04-03T14:34:56Z</time></trkpt><trkpt lat="44.53527209439975" lon="8.941975789619665"><ele>376.0</ele><time>2026-04-03T14:34:57Z</time></trkpt><trkpt lat="44.535442175465874" lon="8.94203880359154"><ele>376.0</ele><time>2026-04-03T14:34:58Z</time></trkpt><trkpt lat="44.53563429855241" lon="8.942126144324778"><ele>372.66666666666663</ele><time>2026-04-03T14:34:59Z</time></trkpt><trkpt lat="44.53580939685456" lon="8.942207215469823"><ele>369.3333333333333</ele><time>2026-04-03T14:35:00Z</time></trkpt><trkpt lat="44.535985695493814" lon="8.942314377113577"><ele>366.0</ele><time>2026-04-03T14:35:01Z</time></trkpt><trkpt lat="44.53615396760829" lon="8.94243514439859"><ele>370.0</ele><time>2026-04-03T14:35:02Z</time></trkpt><trkpt lat="44.53632334416675" lon="8.942562515064594"><ele>374.0</ele><time>2026-04-03T14:35:03Z</time></trkpt><trkpt lat="44.53650068071373" lon="8.942690198662667"><ele>378.0</ele><time>2026-04-03T14:35:04Z</time></trkpt><trkpt lat="44.536680134571256" lon="8.942809890219245"><ele>378.0</ele><time>2026-04-03T14:35:05Z</time></trkpt><trkpt lat="44.536861586782486" lon="8.942918699981382"><ele>378.0</ele><time>2026-04-03T14:35:05.999Z</time></trkpt><trkpt lat="44.537061643096756" lon="8.943000082907824"><ele>378.0</ele><time>2026-04-03T14:35:06.999Z</time></trkpt><trkpt lat="44.53726788706368" lon="8.94306283574097"><ele>370.6666666666667</ele><time>2026-04-03T14:35:07.999Z</time></trkpt><trkpt lat="44.53747919254173" lon="8.943096630758882"><ele>363.33333333333337</ele><time>2026-04-03T14:35:08.999Z</time></trkpt><trkpt lat="44.53769125899384" lon="8.943098656852813"><ele>356.0</ele><time>2026-04-03T14:35:09.999Z</time></trkpt><trkpt lat="44.537906150171445" lon="8.9430720688673"><ele>346.6666666666667</ele><time>2026-04-03T14:35:10.999Z</time></trkpt><trkpt lat="44.53811965020328" lon="8.94302494861489"><ele>337.3333333333333</ele><time>2026-04-03T14:35:11.999Z</time></trkpt><trkpt lat="44.53832727805604" lon="8.942938744824643"><ele>328.0</ele><time>2026-04-03T14:35:12.999Z</time></trkpt><trkpt lat="44.53851951738526" lon="8.942826646906054"><ele>328.0</ele><time>2026-04-03T14:35:13.999Z</time></trkpt><trkpt lat="44.538716476201664" lon="8.94268809391143"><ele>328.0</ele><time>2026-04-03T14:35:14.999Z</time></trkpt><trkpt lat="44.53890156430187" lon="8.942537184025804"><ele>328.0</ele><time>2026-04-03T14:35:15.999Z</time></trkpt><trkpt lat="44.539082572219115" lon="8.942360454820271"><ele>323.66666666666663</ele><time>2026-04-03T14:35:16.999Z</time></trkpt><trkpt lat="44.539258459308634" lon="8.94217926141518"><ele>319.3333333333333</ele><time>2026-04-03T14:35:17.999Z</time></trkpt><trkpt lat="44.5394376431204" lon="8.941991112029214"><ele>315.0</ele><time>2026-04-03T14:35:18.999Z</time></trkpt><trkpt lat="44.53961847176568" lon="8.94180726080097"><ele>318.0</ele><time>2026-04-03T14:35:19.999Z</time></trkpt><trkpt lat="44.53980301875617" lon="8.941627505461772"><ele>321.0</ele><time>2026-04-03T14:35:20.999Z</time></trkpt><trkpt lat="44.53998794300818" lon="8.941446785116677"><ele>321.0</ele><time>2026-04-03T14:35:21.999Z</time></trkpt><trkpt lat="44.540172131011836" lon="8.941266660995984"><ele>321.0</ele><time>2026-04-03T14:35:22.999Z</time></trkpt><trkpt lat="44.540360882715426" lon="8.941090873509498"><ele>335.5</ele><time>2026-04-03T14:35:23.999Z</time></trkpt><trkpt lat="44.540558001367735" lon="8.940935592550911"><ele>350.0</ele><time>2026-04-03T14:35:25Z</time></trkpt><trkpt lat="44.54076247929343" lon="8.940808713246408"><ele>350.0</ele><time>2026-04-03T14:35:26Z</time></trkpt><trkpt lat="44.54098445748687" lon="8.940716109499682"><ele>350.0</ele><time>2026-04-03T14:35:27Z</time></trkpt><trkpt lat="44.54120601056034" lon="8.940663505674667"><ele>356.6666666666667</ele><time>2026-04-03T14:35:28Z</time></trkpt><trkpt lat="44.54142278134032" lon="8.940634942823491"><ele>363.3333333333333</ele><time>2026-04-03T14:35:29Z</time></trkpt><trkpt lat="44.54164004425768" lon="8.940632784022599"><ele>370.0</ele><time>2026-04-03T14:35:30Z</time></trkpt><trkpt lat="44.54185568860101" lon="8.940667913057773"><ele>365.66666666666663</ele><time>2026-04-03T14:35:31Z</time></trkpt><trkpt lat="44.54207434059825" lon="8.940733295323367"><ele>361.3333333333333</ele><time>2026-04-03T14:35:32Z</time></trkpt><trkpt lat="44.542283311636" lon="8.94082717236103"><ele>357.0</ele><time>2026-04-03T14:35:33Z</time></trkpt><trkpt lat="44.54248587233288" lon="8.940946290795223"><ele>361.3333333333333</ele><time>2026-04-03T14:35:34Z</time></trkpt><trkpt lat="44.542682308615504" lon="8.941089919956797"><ele>365.66666666666663</ele><time>2026-04-03T14:35:35Z</time></trkpt><trkpt lat="44.54287887067289" lon="8.941240004388577"><ele>370.0</ele><time>2026-04-03T14:35:36Z</time></trkpt><trkpt lat="44.54307281006594" lon="8.941393902608802"><ele>370.0</ele><time>2026-04-03T14:35:37Z</time></trkpt><trkpt lat="44.54326868965965" lon="8.941544398098005"><ele>370.0</ele><time>2026-04-03T14:35:38Z</time></trkpt><trkpt lat="44.54346708730331" lon="8.94169151303337"><ele>370.0</ele><time>2026-04-03T14:35:39Z</time></trkpt><trkpt lat="44.54366586948431" lon="8.941838459446746"><ele>374.66666666666663</ele><time>2026-04-03T14:35:40Z</time></trkpt><trkpt lat="44.54386219667776" lon="8.94198443582805"><ele>379.3333333333333</ele><time>2026-04-03T14:35:41Z</time></trkpt><trkpt lat="44.54405411678383" lon="8.942131986285798"><ele>384.0</ele><time>2026-04-03T14:35:42Z</time></trkpt><trkpt lat="44.544243676735135" lon="8.94227675215482"><ele>384.0</ele><time>2026-04-03T14:35:43Z</time></trkpt><trkpt lat="44.54443290998522" lon="8.94242045924206"><ele>384.0</ele><time>2026-04-03T14:35:44Z</time></trkpt><trkpt lat="44.54462133574391" lon="8.94256408504114"><ele>384.0</ele><time>2026-04-03T14:35:45Z</time></trkpt><trkpt lat="44.54480566038945" lon="8.942706270047754"><ele>389.0</ele><time>2026-04-03T14:35:46Z</time></trkpt><trkpt lat="44.54498891364144" lon="8.942842713315716"><ele>394.0</ele><time>2026-04-03T14:35:47Z</time></trkpt><trkpt lat="44.545167746782866" lon="8.942980362917918"><ele>399.0</ele><time>2026-04-03T14:35:48Z</time></trkpt><trkpt lat="44.54534502504094" lon="8.943112624260108"><ele>400.0</ele><time>2026-04-03T14:35:49Z</time></trkpt><trkpt lat="44.5455158971236" lon="8.943243985777196"><ele>401.0</ele><time>2026-04-03T14:35:50Z</time></trkpt><trkpt lat="44.545684503533764" lon="8.943379418065147"><ele>402.0</ele><time>2026-04-03T14:35:51Z</time></trkpt><trkpt lat="44.54585255473837" lon="8.943513957650824"><ele>402.0</ele><time>2026-04-03T14:35:52Z</time></trkpt><trkpt lat="44.54602196399907" lon="8.943646719900604"><ele>402.0</ele><time>2026-04-03T14:35:53Z</time></trkpt><trkpt lat="44.54619283828043" lon="8.943771752533536"><ele>402.0</ele><time>2026-04-03T14:35:54Z</time></trkpt><trkpt lat="44.54636521372425" lon="8.943899978051844"><ele>407.0</ele><time>2026-04-03T14:35:55Z</time></trkpt><trkpt lat="44.5465370252454" lon="8.944029285799543"><ele>412.0</ele><time>2026-04-03T14:35:56Z</time></trkpt><trkpt lat="44.546708039916254" lon="8.944159847399975"><ele>417.0</ele><time>2026-04-03T14:35:57Z</time></trkpt><trkpt lat="44.54687936610799" lon="8.944290483549917"><ele>410.0</ele><time>2026-04-03T14:35:58Z</time></trkpt><trkpt lat="44.54705286084094" lon="8.94442022781298"><ele>403.0</ele><time>2026-04-03T14:35:59Z</time></trkpt><trkpt lat="44.54722648869089" lon="8.944550785166703"><ele>396.0</ele><time>2026-04-03T14:36:00Z</time></trkpt><trkpt lat="44.54740024211097" lon="8.944678659629272"><ele>396.0</ele><time>2026-04-03T14:36:01Z</time></trkpt><trkpt lat="44.54757433651969" lon="8.944796898571495"><ele>396.0</ele><time>2026-04-03T14:36:02Z</time></trkpt><trkpt lat="44.547755767392545" lon="8.944891950227074"><ele>396.0</ele><time>2026-04-03T14:36:03Z</time></trkpt><trkpt lat="44.547943555135106" lon="8.944952986891716"><ele>391.0</ele><time>2026-04-03T14:36:04Z</time></trkpt><trkpt lat="44.54813286383557" lon="8.944991929352566"><ele>386.0</ele><time>2026-04-03T14:36:05Z</time></trkpt><trkpt lat="44.548322048523524" lon="8.945011083497622"><ele>381.0</ele><time>2026-04-03T14:36:06Z</time></trkpt><trkpt lat="44.548512660983576" lon="8.945008090546269"><ele>381.0</ele><time>2026-04-03T14:36:07Z</time></trkpt><trkpt lat="44.54869033483661" lon="8.944979135599345"><ele>381.0</ele><time>2026-04-03T14:36:08Z</time></trkpt><trkpt lat="44.54885320389703" lon="8.944938744295275"><ele>381.0</ele><time>2026-04-03T14:36:09Z</time></trkpt><trkpt lat="44.54900548331116" lon="8.944901016673327"><ele>383.5</ele><time>2026-04-03T14:36:09.999Z</time></trkpt><trkpt lat="44.54914652294955" lon="8.944871535412604"><ele>386.0</ele><time>2026-04-03T14:36:10.999Z</time></trkpt><trkpt lat="44.54928184322323" lon="8.944843377457849"><ele>388.5</ele><time>2026-04-03T14:36:11.999Z</time></trkpt><trkpt lat="44.54940275510952" lon="8.94481678263083"><ele>391.0</ele><time>2026-04-03T14:36:12.999Z</time></trkpt><trkpt lat="44.549519116593416" lon="8.944790680492053"><ele>393.5</ele><time>2026-04-03T14:36:13.999Z</time></trkpt><trkpt lat="44.54963709428077" lon="8.944768628181377"><ele>396.0</ele><time>2026-04-03T14:36:14.999Z</time></trkpt><trkpt lat="44.54975524379159" lon="8.944753622104733"><ele>398.5</ele><time>2026-04-03T14:36:15.999Z</time></trkpt><trkpt lat="44.54987449039586" lon="8.944744443201829"><ele>401.0</ele><time>2026-04-03T14:36:16.999Z</time></trkpt><trkpt lat="44.54999054086667" lon="8.944738820711956"><ele>401.0</ele><time>2026-04-03T14:36:17.999Z</time></trkpt><trkpt lat="44.5501036564948" lon="8.944728843764606"><ele>401.0</ele><time>2026-04-03T14:36:18.999Z</time></trkpt><trkpt lat="44.550217700805895" lon="8.944705595970644"><ele>401.0</ele><time>2026-04-03T14:36:19.999Z</time></trkpt><trkpt lat="44.55033051898564" lon="8.944705842213695"><ele>401.0</ele><time>2026-04-03T14:36:20.999Z</time></trkpt><trkpt lat="44.55043922046671" lon="8.944735281448938"><ele>402.25</ele><time>2026-04-03T14:36:21.999Z</time></trkpt><trkpt lat="44.55054863045656" lon="8.944764578453517"><ele>403.5</ele><time>2026-04-03T14:36:22.999Z</time></trkpt><trkpt lat="44.550667134512146" lon="8.944798860941473"><ele>404.75</ele><time>2026-04-03T14:36:23.999Z</time></trkpt><trkpt lat="44.550790341562255" lon="8.944836758923524"><ele>406.0</ele><time>2026-04-03T14:36:24.999Z</time></trkpt><trkpt lat="44.550916587634106" lon="8.94487673155761"><ele>406.0</ele><time>2026-04-03T14:36:25.999Z</time></trkpt><trkpt lat="44.55105042115851" lon="8.944918466269622"><ele>406.0</ele><time>2026-04-03T14:36:26.999Z</time></trkpt><trkpt lat="44.55118098558008" lon="8.944957502006316"><ele>406.0</ele><time>2026-04-03T14:36:27.999Z</time></trkpt><trkpt lat="44.55131656583081" lon="8.9449981868228"><ele>406.0</ele><time>2026-04-03T14:36:28.999Z</time></trkpt><trkpt lat="44.55145388841035" lon="8.945038418276974"><ele>417.0</ele><time>2026-04-03T14:36:29.999Z</time></trkpt><trkpt lat="44.55158704278002" lon="8.945076881324589"><ele>428.0</ele><time>2026-04-03T14:36:30.999Z</time></trkpt><trkpt lat="44.55171549625673" lon="8.945115061468517"><ele>439.0</ele><time>2026-04-03T14:36:31.999Z</time></trkpt><trkpt lat="44.55184237744716" lon="8.945153177574184"><ele>450.0</ele><time>2026-04-03T14:36:32.999Z</time></trkpt><trkpt lat="44.55200517045488" lon="8.945202084693697"><ele>460.33333333333337</ele><time>2026-04-03T14:36:33.999Z</time></trkpt><trkpt lat="44.55219319357556" lon="8.945273492562883"><ele>470.6666666666667</ele><time>2026-04-03T14:36:34.999Z</time></trkpt><trkpt lat="44.55235079006524" lon="8.945353421827955"><ele>481.0</ele><time>2026-04-03T14:36:35.999Z</time></trkpt><trkpt lat="44.55254451798135" lon="8.945442201423615"><ele>481.0</ele><time>2026-04-03T14:36:36.999Z</time></trkpt><trkpt lat="44.552656953230674" lon="8.945441864071256"><ele>481.0</ele><time>2026-04-03T14:36:37.999Z</time></trkpt><trkpt lat="44.55284784413914" lon="8.945495169639727"><ele>481.0</ele><time>2026-04-03T14:36:38.999Z</time></trkpt><trkpt lat="44.55301646740307" lon="8.94553356900936"><ele>488.6666666666667</ele><time>2026-04-03T14:36:39.999Z</time></trkpt><trkpt lat="44.553192570183754" lon="8.9455988126401"><ele>496.33333333333337</ele><time>2026-04-03T14:36:40.999Z</time></trkpt><trkpt lat="44.55336687812183" lon="8.945665263486363"><ele>504.0</ele><time>2026-04-03T14:36:41.999Z</time></trkpt><trkpt lat="44.55351612638878" lon="8.945690831859162"><ele>504.0</ele><time>2026-04-03T14:36:42.999Z</time></trkpt><trkpt lat="44.55365648057222" lon="8.945694344947535"><ele>504.0</ele><time>2026-04-03T14:36:44.999Z</time></trkpt><trkpt lat="44.55381484914201" lon="8.945741312659711"><ele>504.0</ele><time>2026-04-03T14:36:45.999Z</time></trkpt><trkpt lat="44.553974768341284" lon="8.945789093222706"><ele>505.0</ele><time>2026-04-03T14:36:46.999Z</time></trkpt><trkpt lat="44.55413891333352" lon="8.945838136215533"><ele>506.0</ele><time>2026-04-03T14:36:47.999Z</time></trkpt><trkpt lat="44.55430269960824" lon="8.945886956097993"><ele>507.0</ele><time>2026-04-03T14:36:48.999Z</time></trkpt><trkpt lat="44.5544664005231" lon="8.945935649374332"><ele>500.66666666666663</ele><time>2026-04-03T14:36:49.999Z</time></trkpt><trkpt lat="44.55463188061272" lon="8.945985220391625"><ele>494.3333333333333</ele><time>2026-04-03T14:36:50.999Z</time></trkpt><trkpt lat="44.55480132695495" lon="8.946036769426264"><ele>488.0</ele><time>2026-04-03T14:36:51.999Z</time></trkpt><trkpt lat="44.554974990771775" lon="8.946089601632883"><ele>488.0</ele><time>2026-04-03T14:36:52.999Z</time></trkpt><trkpt lat="44.555150335082686" lon="8.94614238319098"><ele>488.0</ele><time>2026-04-03T14:36:53.999Z</time></trkpt><trkpt lat="44.5553245193761" lon="8.94619458018437"><ele>488.0</ele><time>2026-04-03T14:36:54.999Z</time></trkpt><trkpt lat="44.55550082529149" lon="8.946247410678728"><ele>483.3333333333333</ele><time>2026-04-03T14:36:55.999Z</time></trkpt><trkpt lat="44.555674868330925" lon="8.946300015736087"><ele>478.66666666666663</ele><time>2026-04-03T14:36:56.999Z</time></trkpt><trkpt lat="44.55584863697146" lon="8.946352537738829"><ele>474.0</ele><time>2026-04-03T14:36:57.999Z</time></trkpt><trkpt lat="44.556026569703675" lon="8.946406613354796"><ele>474.0</ele><time>2026-04-03T14:36:58.999Z</time></trkpt><trkpt lat="44.556201961179724" lon="8.946459928207116"><ele>474.0</ele><time>2026-04-03T14:36:59.999Z</time></trkpt><trkpt lat="44.55637643279012" lon="8.946512963408876"><ele>474.0</ele><time>2026-04-03T14:37:00.999Z</time></trkpt><trkpt lat="44.556562742254826" lon="8.94656959704594"><ele>470.5</ele><time>2026-04-03T14:37:01.999Z</time></trkpt><trkpt lat="44.55674930138731" lon="8.946625731179498"><ele>467.0</ele><time>2026-04-03T14:37:03.016Z</time></trkpt><trkpt lat="44.55871293748674" lon="8.947319650398123"><ele>440.0</ele><time>2026-04-03T14:37:06.019Z</time></trkpt><trkpt lat="44.55968072679909" lon="8.94761063040121"><ele>434.0</ele><time>2026-04-03T14:37:07.019Z</time></trkpt><trkpt lat="44.56064454314083" lon="8.947896096312224"><ele>433.0</ele><time>2026-04-03T14:37:08.014Z</time></trkpt><trkpt lat="44.561612651923724" lon="8.948189219465755"><ele>473.0</ele><time>2026-04-03T14:37:09.015Z</time></trkpt><trkpt lat="44.562584849654826" lon="8.948478024236364"><ele>482.0</ele><time>2026-04-03T14:37:10.019Z</time></trkpt><trkpt lat="44.563551014955685" lon="8.94877091004651"><ele>463.0</ele><time>2026-04-03T14:37:11.017Z</time></trkpt><trkpt lat="44.56451897185835" lon="8.949067354344056"><ele>418.0</ele><time>2026-04-03T14:37:12.018Z</time></trkpt><trkpt lat="44.565486509191096" lon="8.949361978860074"><ele>418.0</ele><time>2026-04-03T14:37:13.019Z</time></trkpt><trkpt lat="44.56601455433759" lon="8.949525051362846"><ele>391.0</ele><time>2026-04-03T14:37:14.02Z</time></trkpt><trkpt lat="44.56654011575606" lon="8.949684177324041"><ele>426.0</ele><time>2026-04-03T14:37:15.016Z</time></trkpt><trkpt lat="44.55989588520911" lon="8.946825933639097"><ele>426.0</ele><time>2026-04-03T14:37:21.999Z</time></trkpt><trkpt lat="44.560053630543905" lon="8.946814760402692"><ele>426.0</ele><time>2026-04-03T14:37:22.999Z</time></trkpt><trkpt lat="44.560220547903974" lon="8.94687125004207"><ele>426.0</ele><time>2026-04-03T14:37:23.999Z</time></trkpt><trkpt lat="44.56038858875782" lon="8.94693330181153"><ele>422.33333333333337</ele><time>2026-04-03T14:37:24.999Z</time></trkpt><trkpt lat="44.56056611515673" lon="8.947021570915714"><ele>418.6666666666667</ele><time>2026-04-03T14:37:25.999Z</time></trkpt><trkpt lat="44.56074622598165" lon="8.94711630420775"><ele>415.0</ele><time>2026-04-03T14:37:26.999Z</time></trkpt><trkpt lat="44.56091759734489" lon="8.947235336519215"><ele>415.0</ele><time>2026-04-03T14:37:27.999Z</time></trkpt><trkpt lat="44.561097124585835" lon="8.947347140538445"><ele>415.0</ele><time>2026-04-03T14:37:28.999Z</time></trkpt><trkpt lat="44.561286998323816" lon="8.947408766273796"><ele>415.0</ele><time>2026-04-03T14:37:29.999Z</time></trkpt><trkpt lat="44.56148097256501" lon="8.947411514774256"><ele>415.0</ele><time>2026-04-03T14:37:31Z</time></trkpt><trkpt lat="44.56167369908362" lon="8.94734739744092"><ele>415.0</ele><time>2026-04-03T14:37:32Z</time></trkpt><trkpt lat="44.56185688243858" lon="8.947233824400787"><ele>415.0</ele><time>2026-04-03T14:37:33Z</time></trkpt><trkpt lat="44.56203463086222" lon="8.947098295941634"><ele>419.0</ele><time>2026-04-03T14:37:34Z</time></trkpt><trkpt lat="44.56221649380804" lon="8.946974550391872"><ele>423.0</ele><time>2026-04-03T14:37:35Z</time></trkpt><trkpt lat="44.56239464105894" lon="8.946866790308288"><ele>427.0</ele><time>2026-04-03T14:37:36Z</time></trkpt><trkpt lat="44.56258037134983" lon="8.946774202540977"><ele>424.0</ele><time>2026-04-03T14:37:37Z</time></trkpt><trkpt lat="44.56277521335189" lon="8.946702924484597"><ele>421.0</ele><time>2026-04-03T14:37:38Z</time></trkpt><trkpt lat="44.5629748262351" lon="8.946635024304447"><ele>418.0</ele><time>2026-04-03T14:37:39Z</time></trkpt><trkpt lat="44.56316699739423" lon="8.946542976091992"><ele>418.0</ele><time>2026-04-03T14:37:40Z</time></trkpt><trkpt lat="44.56334018933492" lon="8.946407633086041"><ele>418.0</ele><time>2026-04-03T14:37:41Z</time></trkpt><trkpt lat="44.56350602222149" lon="8.946244363455321"><ele>418.0</ele><time>2026-04-03T14:37:42Z</time></trkpt><trkpt lat="44.56365213560371" lon="8.946063064097993"><ele>417.33333333333337</ele><time>2026-04-03T14:37:43Z</time></trkpt><trkpt lat="44.563781440145306" lon="8.94587383371485"><ele>416.66666666666663</ele><time>2026-04-03T14:37:44Z</time></trkpt><trkpt lat="44.563899468793544" lon="8.945687576178837"><ele>416.0</ele><time>2026-04-03T14:37:45Z</time></trkpt><trkpt lat="44.56401392803552" lon="8.94550766615132"><ele>416.0</ele><time>2026-04-03T14:37:46Z</time></trkpt><trkpt lat="44.5641212188934" lon="8.945347221445065"><ele>416.0</ele><time>2026-04-03T14:37:47Z</time></trkpt><trkpt lat="44.56407931190431" lon="8.945026116862184"><ele>416.0</ele><time>2026-04-03T14:37:48Z</time></trkpt><trkpt lat="44.56412149042695" lon="8.944912191827614"><ele>408.3333333333333</ele><time>2026-04-03T14:37:49Z</time></trkpt><trkpt lat="44.564179497768905" lon="8.944786233206278"><ele>400.66666666666663</ele><time>2026-04-03T14:37:50Z</time></trkpt><trkpt lat="44.5641895581154" lon="8.944437760386656"><ele>393.0</ele><time>2026-04-03T14:37:51Z</time></trkpt><trkpt lat="44.564489781586694" lon="8.944166079709225"><ele>394.0</ele><time>2026-04-03T14:37:52Z</time></trkpt><trkpt lat="44.56473824427271" lon="8.944060866536548"><ele>395.0</ele><time>2026-04-03T14:37:54Z</time></trkpt><trkpt lat="44.56529618506721" lon="8.944299946533777"><ele>391.5</ele><time>2026-04-03T14:37:56Z</time></trkpt><trkpt lat="44.5653914109714" lon="8.944425364890426"><ele>388.0</ele><time>2026-04-03T14:37:57Z</time></trkpt><trkpt lat="44.56548376357121" lon="8.944551326396237"><ele>384.5</ele><time>2026-04-03T14:37:58Z</time></trkpt><trkpt lat="44.565577530248866" lon="8.944676694207457"><ele>381.0</ele><time>2026-04-03T14:37:59Z</time></trkpt><trkpt lat="44.565677798759324" lon="8.94481014203431"><ele>381.0</ele><time>2026-04-03T14:38:00Z</time></trkpt><trkpt lat="44.56578091948771" lon="8.944952732310002"><ele>381.0</ele><time>2026-04-03T14:38:01Z</time></trkpt><trkpt lat="44.56588097753157" lon="8.945105146361675"><ele>381.0</ele><time>2026-04-03T14:38:02Z</time></trkpt><trkpt lat="44.565980029474346" lon="8.94526732556477"><ele>381.0</ele><time>2026-04-03T14:38:03Z</time></trkpt><trkpt lat="44.56590211556166" lon="8.94591548312289"><ele>383.0</ele><time>2026-04-03T14:38:04Z</time></trkpt><trkpt lat="44.566013801485255" lon="8.946043118312037"><ele>385.0</ele><time>2026-04-03T14:38:05Z</time></trkpt><trkpt lat="44.5661304025206" lon="8.946172813616034"><ele>387.0</ele><time>2026-04-03T14:38:06Z</time></trkpt><trkpt lat="44.566246830258414" lon="8.946301126433402"><ele>389.0</ele><time>2026-04-03T14:38:07Z</time></trkpt><trkpt lat="44.56637265900717" lon="8.946405588088723"><ele>389.0</ele><time>2026-04-03T14:38:08Z</time></trkpt><trkpt lat="44.566494322660525" lon="8.946489647042801"><ele>389.0</ele><time>2026-04-03T14:38:09Z</time></trkpt><trkpt lat="44.56661463971847" lon="8.946572948428873"><ele>389.0</ele><time>2026-04-03T14:38:10Z</time></trkpt><trkpt lat="44.566729676739016" lon="8.946652530283606"><ele>389.0</ele><time>2026-04-03T14:38:11Z</time></trkpt><trkpt lat="44.56684416069009" lon="8.946727923672047"><ele>386.75</ele><time>2026-04-03T14:38:12Z</time></trkpt><trkpt lat="44.56695183600871" lon="8.946801001777162"><ele>384.5</ele><time>2026-04-03T14:38:13Z</time></trkpt><trkpt lat="44.56704917944117" lon="8.946888207144124"><ele>382.25</ele><time>2026-04-03T14:38:14Z</time></trkpt><trkpt lat="44.56713337876308" lon="8.947016619347762"><ele>380.0</ele><time>2026-04-03T14:38:15Z</time></trkpt><trkpt lat="44.567195747154365" lon="8.94718305726873"><ele>380.0</ele><time>2026-04-03T14:38:16Z</time></trkpt><trkpt lat="44.567250358138594" lon="8.947359169725953"><ele>380.0</ele><time>2026-04-03T14:38:17Z</time></trkpt><trkpt lat="44.56727127855271" lon="8.947547860684569"><ele>380.0</ele><time>2026-04-03T14:38:18Z</time></trkpt><trkpt lat="44.56726835834385" lon="8.947743694590343"><ele>380.0</ele><time>2026-04-03T14:38:19Z</time></trkpt><trkpt lat="44.56722753710746" lon="8.94793973414243"><ele>378.6666666666667</ele><time>2026-04-03T14:38:20Z</time></trkpt><trkpt lat="44.567165067716815" lon="8.948128399874127"><ele>377.3333333333333</ele><time>2026-04-03T14:38:21Z</time></trkpt><trkpt lat="44.56700649997219" lon="8.948272814842607"><ele>376.0</ele><time>2026-04-03T14:38:22Z</time></trkpt><trkpt lat="44.566965570459125" lon="8.948470590490986"><ele>374.75</ele><time>2026-04-03T14:38:23Z</time></trkpt><trkpt lat="44.56692947113025" lon="8.94864982376079"><ele>373.5</ele><time>2026-04-03T14:38:24Z</time></trkpt><trkpt lat="44.56689518898005" lon="8.94882003452191"><ele>372.25</ele><time>2026-04-03T14:38:25Z</time></trkpt><trkpt lat="44.56686298651323" lon="8.948979919661998"><ele>371.0</ele><time>2026-04-03T14:38:26Z</time></trkpt><trkpt lat="44.567039619176626" lon="8.949207251125962"><ele>370.5</ele><time>2026-04-03T14:38:27Z</time></trkpt><trkpt lat="44.56708269871164" lon="8.94936517592869"><ele>370.0</ele><time>2026-04-03T14:38:28Z</time></trkpt><trkpt lat="44.56713567904641" lon="8.949521679643926"><ele>369.5</ele><time>2026-04-03T14:38:29Z</time></trkpt><trkpt lat="44.5671977095568" lon="8.949669314391103"><ele>369.0</ele><time>2026-04-03T14:38:30Z</time></trkpt><trkpt lat="44.56726190666919" lon="8.949803635536098"><ele>369.0</ele><time>2026-04-03T14:38:31Z</time></trkpt><trkpt lat="44.567319922711924" lon="8.949926707465277"><ele>369.0</ele><time>2026-04-03T14:38:32Z</time></trkpt><trkpt lat="44.56737696385583" lon="8.950039379760634"><ele>369.0</ele><time>2026-04-03T14:38:33Z</time></trkpt><trkpt lat="44.56745777964574" lon="8.950139816976698"><ele>369.0</ele><time>2026-04-03T14:38:34Z</time></trkpt><trkpt lat="44.567564757714834" lon="8.950229404059536"><ele>369.0</ele><time>2026-04-03T14:38:35Z</time></trkpt><trkpt lat="44.5676778699194" lon="8.950318214487755"><ele>369.75</ele><time>2026-04-03T14:38:36Z</time></trkpt><trkpt lat="44.567792591098026" lon="8.950408093657344"><ele>370.5</ele><time>2026-04-03T14:38:37Z</time></trkpt><trkpt lat="44.56791463739251" lon="8.95049882163456"><ele>371.25</ele><time>2026-04-03T14:38:38Z</time></trkpt><trkpt lat="44.568033893350254" lon="8.950593994401668"><ele>372.0</ele><time>2026-04-03T14:38:39Z</time></trkpt><trkpt lat="44.56816072611216" lon="8.950695629184317"><ele>369.0</ele><time>2026-04-03T14:38:40Z</time></trkpt><trkpt lat="44.56829034675066" lon="8.95080117861271"><ele>366.0</ele><time>2026-04-03T14:38:41Z</time></trkpt><trkpt lat="44.5684271562923" lon="8.950910433370673"><ele>363.0</ele><time>2026-04-03T14:38:42Z</time></trkpt><trkpt lat="44.568566645699505" lon="8.951023074197494"><ele>360.3333333333333</ele><time>2026-04-03T14:38:43Z</time></trkpt><trkpt lat="44.56870405859666" lon="8.951134490186284"><ele>357.66666666666663</ele><time>2026-04-03T14:38:44Z</time></trkpt><trkpt lat="44.5688453532167" lon="8.951249586243481"><ele>355.0</ele><time>2026-04-03T14:38:45Z</time></trkpt><trkpt lat="44.56898995989354" lon="8.951366183625996"><ele>355.0</ele><time>2026-04-03T14:38:46Z</time></trkpt><trkpt lat="44.569136883237505" lon="8.95148079467662"><ele>355.0</ele><time>2026-04-03T14:38:47Z</time></trkpt><trkpt lat="44.56928743839378" lon="8.95159834594566"><ele>355.0</ele><time>2026-04-03T14:38:48Z</time></trkpt><trkpt lat="44.56943787062619" lon="8.951720244012122"><ele>357.0</ele><time>2026-04-03T14:38:49Z</time></trkpt><trkpt lat="44.56959367276295" lon="8.951840160322236"><ele>359.0</ele><time>2026-04-03T14:38:50Z</time></trkpt><trkpt lat="44.569755306141545" lon="8.95194444920786"><ele>361.0</ele><time>2026-04-03T14:38:51Z</time></trkpt><trkpt lat="44.569929482574985" lon="8.952018169180912"><ele>361.0</ele><time>2026-04-03T14:38:52Z</time></trkpt><trkpt lat="44.57011080998318" lon="8.952059693709577"><ele>361.0</ele><time>2026-04-03T14:38:53Z</time></trkpt><trkpt lat="44.57029454980274" lon="8.952080933960037"><ele>361.0</ele><time>2026-04-03T14:38:54Z</time></trkpt><trkpt lat="44.57048260965794" lon="8.952084591119993"><ele>361.3333333333333</ele><time>2026-04-03T14:38:55Z</time></trkpt><trkpt lat="44.570669669860315" lon="8.952063170717105"><ele>361.6666666666667</ele><time>2026-04-03T14:38:56Z</time></trkpt><trkpt lat="44.57085344924905" lon="8.952017441697885"><ele>362.0</ele><time>2026-04-03T14:38:57Z</time></trkpt><trkpt lat="44.57103400421702" lon="8.951956543103885"><ele>361.6666666666667</ele><time>2026-04-03T14:38:58Z</time></trkpt><trkpt lat="44.57120341149371" lon="8.951860038241378"><ele>361.3333333333333</ele><time>2026-04-03T14:38:59Z</time></trkpt><trkpt lat="44.571372433727376" lon="8.951740411733464"><ele>361.0</ele><time>2026-04-03T14:39:00Z</time></trkpt><trkpt lat="44.571534097393304" lon="8.951609212676592"><ele>361.0</ele><time>2026-04-03T14:39:01Z</time></trkpt><trkpt lat="44.57169654085478" lon="8.951472074872532"><ele>361.0</ele><time>2026-04-03T14:39:02Z</time></trkpt><trkpt lat="44.57186349916577" lon="8.951335748127999"><ele>361.0</ele><time>2026-04-03T14:39:03Z</time></trkpt><trkpt lat="44.572032843684575" lon="8.951201345400609"><ele>360.66666666666663</ele><time>2026-04-03T14:39:04Z</time></trkpt><trkpt lat="44.57220254258292" lon="8.951069697892265"><ele>360.3333333333333</ele><time>2026-04-03T14:39:05Z</time></trkpt><trkpt lat="44.57237264018896" lon="8.950934915920039"><ele>360.0</ele><time>2026-04-03T14:39:06Z</time></trkpt><trkpt lat="44.57254494094049" lon="8.95079500359819"><ele>359.6666666666667</ele><time>2026-04-03T14:39:07Z</time></trkpt><trkpt lat="44.572716304634845" lon="8.95065360345314"><ele>359.33333333333337</ele><time>2026-04-03T14:39:08Z</time></trkpt><trkpt lat="44.572889924239455" lon="8.950509572174296"><ele>359.0</ele><time>2026-04-03T14:39:09Z</time></trkpt><trkpt lat="44.57306700965291" lon="8.95036318677183"><ele>358.6666666666667</ele><time>2026-04-03T14:39:10Z</time></trkpt><trkpt lat="44.57324370135766" lon="8.950217698206625"><ele>358.3333333333333</ele><time>2026-04-03T14:39:10.999Z</time></trkpt><trkpt lat="44.57342386738362" lon="8.950072344949628"><ele>358.0</ele><time>2026-04-03T14:39:11.999Z</time></trkpt><trkpt lat="44.57360658005674" lon="8.949924962399088"><ele>359.0</ele><time>2026-04-03T14:39:12.999Z</time></trkpt><trkpt lat="44.573787874251295" lon="8.949778403537753"><ele>360.0</ele><time>2026-04-03T14:39:13.999Z</time></trkpt><trkpt lat="44.57396935341699" lon="8.949629173818545"><ele>361.0</ele><time>2026-04-03T14:39:14.999Z</time></trkpt><trkpt lat="44.574155351474786" lon="8.94947281903135"><ele>361.0</ele><time>2026-04-03T14:39:15.999Z</time></trkpt><trkpt lat="44.57434013948555" lon="8.949318970489454"><ele>361.0</ele><time>2026-04-03T14:39:16.999Z</time></trkpt><trkpt lat="44.574524804382385" lon="8.949164759185447"><ele>361.0</ele><time>2026-04-03T14:39:17.999Z</time></trkpt><trkpt lat="44.57471448758659" lon="8.949010703468554"><ele>362.3333333333333</ele><time>2026-04-03T14:39:18.999Z</time></trkpt><trkpt lat="44.57490596325716" lon="8.948859631716585"><ele>363.6666666666667</ele><time>2026-04-03T14:39:19.999Z</time></trkpt><trkpt lat="44.57509590474351" lon="8.948704960641745"><ele>365.0</ele><time>2026-04-03T14:39:20.999Z</time></trkpt><trkpt lat="44.575283958405485" lon="8.948548241593757"><ele>367.0</ele><time>2026-04-03T14:39:21.999Z</time></trkpt><trkpt lat="44.57547145490367" lon="8.94839597406294"><ele>369.0</ele><time>2026-04-03T14:39:22.999Z</time></trkpt><trkpt lat="44.575656009044465" lon="8.948242180969073"><ele>371.0</ele><time>2026-04-03T14:39:23.999Z</time></trkpt><trkpt lat="44.575833770557" lon="8.948071265056857"><ele>371.0</ele><time>2026-04-03T14:39:24.999Z</time></trkpt><trkpt lat="44.57600010554152" lon="8.947870088982286"><ele>371.0</ele><time>2026-04-03T14:39:25.999Z</time></trkpt><trkpt lat="44.57615753058584" lon="8.947640096018041"><ele>371.0</ele><time>2026-04-03T14:39:26.999Z</time></trkpt><trkpt lat="44.5763096563296" lon="8.94739394089066"><ele>368.0</ele><time>2026-04-03T14:39:27.999Z</time></trkpt><trkpt lat="44.5764486275373" lon="8.947130297115221"><ele>365.0</ele><time>2026-04-03T14:39:28.999Z</time></trkpt><trkpt lat="44.57657821416758" lon="8.946841861337031"><ele>363.5</ele><time>2026-04-03T14:39:29.999Z</time></trkpt><trkpt lat="44.57668594593676" lon="8.946533250627823"><ele>362.0</ele><time>2026-04-03T14:39:30.999Z</time></trkpt><trkpt lat="44.57677682690466" lon="8.946214582469409"><ele>362.0</ele><time>2026-04-03T14:39:31.999Z</time></trkpt><trkpt lat="44.57685036361782" lon="8.945880536943385"><ele>362.0</ele><time>2026-04-03T14:39:32.999Z</time></trkpt><trkpt lat="44.57692282765669" lon="8.945544208621637"><ele>359.5</ele><time>2026-04-03T14:39:33.999Z</time></trkpt><trkpt lat="44.5769990733528" lon="8.945220751474633"><ele>357.0</ele><time>2026-04-03T14:39:34.999Z</time></trkpt><trkpt lat="44.57710479933911" lon="8.944913816807896"><ele>367.5</ele><time>2026-04-03T14:39:36Z</time></trkpt><trkpt lat="44.5772471637567" lon="8.94463423272741"><ele>378.0</ele><time>2026-04-03T14:39:37Z</time></trkpt><trkpt lat="44.577403292838945" lon="8.94438019466337"><ele>369.0</ele><time>2026-04-03T14:39:38Z</time></trkpt><trkpt lat="44.577571238792395" lon="8.944141594582954"><ele>360.0</ele><time>2026-04-03T14:39:39Z</time></trkpt><trkpt lat="44.57773980802311" lon="8.94390711531252"><ele>368.0</ele><time>2026-04-03T14:39:40Z</time></trkpt><trkpt lat="44.57791462148492" lon="8.943690910957706"><ele>376.0</ele><time>2026-04-03T14:39:41Z</time></trkpt><trkpt lat="44.578098708370305" lon="8.94348957982858"><ele>368.5</ele><time>2026-04-03T14:39:42Z</time></trkpt><trkpt lat="44.57829173463057" lon="8.943309007443217"><ele>361.0</ele><time>2026-04-03T14:39:43Z</time></trkpt><trkpt lat="44.578493193903014" lon="8.943150598262152"><ele>363.5</ele><time>2026-04-03T14:39:44Z</time></trkpt><trkpt lat="44.578702151393806" lon="8.943011840798839"><ele>366.0</ele><time>2026-04-03T14:39:45Z</time></trkpt><trkpt lat="44.57892263253314" lon="8.942892322986078"><ele>366.0</ele><time>2026-04-03T14:39:46Z</time></trkpt><trkpt lat="44.57914619282395" lon="8.942793644356831"><ele>366.0</ele><time>2026-04-03T14:39:47Z</time></trkpt><trkpt lat="44.57937302700153" lon="8.94271059849875"><ele>368.5</ele><time>2026-04-03T14:39:48Z</time></trkpt><trkpt lat="44.57960369039952" lon="8.942653299635928"><ele>371.0</ele><time>2026-04-03T14:39:49Z</time></trkpt><trkpt lat="44.579837012863486" lon="8.942617117372215"><ele>371.0</ele><time>2026-04-03T14:39:50Z</time></trkpt><trkpt lat="44.58006966612723" lon="8.942596089049248"><ele>371.0</ele><time>2026-04-03T14:39:51Z</time></trkpt><trkpt lat="44.58030415928975" lon="8.942571416539504"><ele>366.5</ele><time>2026-04-03T14:39:52Z</time></trkpt><trkpt lat="44.580539122514445" lon="8.942543167121093"><ele>362.0</ele><time>2026-04-03T14:39:53Z</time></trkpt><trkpt lat="44.5807723501459" lon="8.942512643730325"><ele>362.0</ele><time>2026-04-03T14:39:54Z</time></trkpt><trkpt lat="44.58100423073312" lon="8.942480445962742"><ele>362.0</ele><time>2026-04-03T14:39:55Z</time></trkpt><trkpt lat="44.58124083044393" lon="8.942447643048009"><ele>361.0</ele><time>2026-04-03T14:39:56Z</time></trkpt><trkpt lat="44.581473347552496" lon="8.942414760133152"><ele>360.0</ele><time>2026-04-03T14:39:57Z</time></trkpt><trkpt lat="44.581708519458495" lon="8.942383795605911"><ele>360.0</ele><time>2026-04-03T14:39:58Z</time></trkpt><trkpt lat="44.58194577113687" lon="8.942354159972293"><ele>360.0</ele><time>2026-04-03T14:39:59Z</time></trkpt><trkpt lat="44.58218245345477" lon="8.942324758116104"><ele>362.5</ele><time>2026-04-03T14:40:00Z</time></trkpt><trkpt lat="44.58241477151823" lon="8.942296607732285"><ele>365.0</ele><time>2026-04-03T14:40:01Z</time></trkpt><trkpt lat="44.582651679853235" lon="8.942267276145119"><ele>367.5</ele><time>2026-04-03T14:40:02Z</time></trkpt><trkpt lat="44.58288792128667" lon="8.94223668085529"><ele>370.0</ele><time>2026-04-03T14:40:03Z</time></trkpt><trkpt lat="44.58312857135016" lon="8.942202399420575"><ele>370.0</ele><time>2026-04-03T14:40:04Z</time></trkpt><trkpt lat="44.5833682164293" lon="8.942167636666023"><ele>370.0</ele><time>2026-04-03T14:40:05Z</time></trkpt><trkpt lat="44.58360922484691" lon="8.942135574337795"><ele>374.5</ele><time>2026-04-03T14:40:06Z</time></trkpt><trkpt lat="44.58384746062079" lon="8.942106121549992"><ele>379.0</ele><time>2026-04-03T14:40:07Z</time></trkpt><trkpt lat="44.584090433776005" lon="8.942072597940014"><ele>379.0</ele><time>2026-04-03T14:40:08Z</time></trkpt><trkpt lat="44.58432999433823" lon="8.94203667071309"><ele>379.0</ele><time>2026-04-03T14:40:09Z</time></trkpt><trkpt lat="44.58457439937426" lon="8.942000635967519"><ele>385.5</ele><time>2026-04-03T14:40:10Z</time></trkpt><trkpt lat="44.584812088786144" lon="8.941973854239341"><ele>392.0</ele><time>2026-04-03T14:40:11Z</time></trkpt><trkpt lat="44.58504963927904" lon="8.941965927135161"><ele>392.0</ele><time>2026-04-03T14:40:12Z</time></trkpt><trkpt lat="44.58528099641014" lon="8.941979627662915"><ele>392.0</ele><time>2026-04-03T14:40:13Z</time></trkpt><trkpt lat="44.58551287910132" lon="8.942058198798632"><ele>398.5</ele><time>2026-04-03T14:40:14Z</time></trkpt><trkpt lat="44.58573540380703" lon="8.942161425903608"><ele>405.0</ele><time>2026-04-03T14:40:15Z</time></trkpt><trkpt lat="44.58594553999314" lon="8.942265611211386"><ele>405.0</ele><time>2026-04-03T14:40:16Z</time></trkpt><trkpt lat="44.58615798166697" lon="8.942387227660772"><ele>405.0</ele><time>2026-04-03T14:40:17Z</time></trkpt><trkpt lat="44.586373588972016" lon="8.942502988434669"><ele>433.5</ele><time>2026-04-03T14:40:18Z</time></trkpt><trkpt lat="44.586579109785674" lon="8.942636998216864"><ele>462.0</ele><time>2026-04-03T14:40:19Z</time></trkpt><trkpt lat="44.5867839630301" lon="8.94277010755991"><ele>462.0</ele><time>2026-04-03T14:40:20Z</time></trkpt><trkpt lat="44.58698730617159" lon="8.942922829543738"><ele>462.0</ele><time>2026-04-03T14:40:21Z</time></trkpt><trkpt lat="44.587182167481814" lon="8.943109503322779"><ele>469.0</ele><time>2026-04-03T14:40:22Z</time></trkpt><trkpt lat="44.58738786133804" lon="8.943292270589275"><ele>476.0</ele><time>2026-04-03T14:40:23Z</time></trkpt><trkpt lat="44.587586538109" lon="8.943466577066449"><ele>479.0</ele><time>2026-04-03T14:40:24Z</time></trkpt><trkpt lat="44.587782936591054" lon="8.94363888292584"><ele>482.0</ele><time>2026-04-03T14:40:25Z</time></trkpt><trkpt lat="44.58797902984129" lon="8.943815357659586"><ele>474.0</ele><time>2026-04-03T14:40:26Z</time></trkpt><trkpt lat="44.588196701844076" lon="8.944103032721241"><ele>466.0</ele><time>2026-04-03T14:40:27Z</time></trkpt><trkpt lat="44.58840585880568" lon="8.944287439981654"><ele>460.0</ele><time>2026-04-03T14:40:28Z</time></trkpt><trkpt lat="44.58861604697143" lon="8.944467225972163"><ele>454.0</ele><time>2026-04-03T14:40:29Z</time></trkpt><trkpt lat="44.58882533728955" lon="8.944648860882427"><ele>445.0</ele><time>2026-04-03T14:40:30Z</time></trkpt><trkpt lat="44.58903351047271" lon="8.944829910198917"><ele>436.0</ele><time>2026-04-03T14:40:31Z</time></trkpt><trkpt lat="44.58923904880744" lon="8.9450110533852"><ele>432.0</ele><time>2026-04-03T14:40:32Z</time></trkpt><trkpt lat="44.589445087104956" lon="8.945195004939466"><ele>428.0</ele><time>2026-04-03T14:40:33Z</time></trkpt><trkpt lat="44.58964968901365" lon="8.945377799845593"><ele>423.0</ele><time>2026-04-03T14:40:34Z</time></trkpt><trkpt lat="44.589851698704074" lon="8.945565560080164"><ele>418.0</ele><time>2026-04-03T14:40:35Z</time></trkpt><trkpt lat="44.59005066524063" lon="8.945754250753113"><ele>416.5</ele><time>2026-04-03T14:40:36Z</time></trkpt><trkpt lat="44.59025136910834" lon="8.945939291653861"><ele>415.0</ele><time>2026-04-03T14:40:37Z</time></trkpt><trkpt lat="44.59045554312683" lon="8.9461189414697"><ele>409.0</ele><time>2026-04-03T14:40:38Z</time></trkpt><trkpt lat="44.59066197944567" lon="8.94629702951328"><ele>403.0</ele><time>2026-04-03T14:40:39Z</time></trkpt><trkpt lat="44.59087015300899" lon="8.946480561580243"><ele>403.0</ele><time>2026-04-03T14:40:40Z</time></trkpt><trkpt lat="44.59107433541901" lon="8.946656605351627"><ele>403.0</ele><time>2026-04-03T14:40:41Z</time></trkpt><trkpt lat="44.59127403367565" lon="8.94682808861242"><ele>399.5</ele><time>2026-04-03T14:40:42Z</time></trkpt><trkpt lat="44.591474167575925" lon="8.947006199602363"><ele>396.0</ele><time>2026-04-03T14:40:43Z</time></trkpt><trkpt lat="44.59167351000606" lon="8.947182917839312"><ele>396.0</ele><time>2026-04-03T14:40:44Z</time></trkpt><trkpt lat="44.59187008479739" lon="8.947357877058922"><ele>396.0</ele><time>2026-04-03T14:40:45Z</time></trkpt><trkpt lat="44.592057517970716" lon="8.947520017392605"><ele>389.5</ele><time>2026-04-03T14:40:46Z</time></trkpt><trkpt lat="44.592217860168695" lon="8.947657188852105"><ele>383.0</ele><time>2026-04-03T14:40:47.021Z</time></trkpt><trkpt lat="44.5935004027199" lon="8.949531967751383"><ele>373.5</ele><time>2026-04-03T14:40:53Z</time></trkpt><trkpt lat="44.593595755045165" lon="8.949837710740745"><ele>364.0</ele><time>2026-04-03T14:40:54Z</time></trkpt><trkpt lat="44.59365672673847" lon="8.950217773613625"><ele>351.5</ele><time>2026-04-03T14:40:55Z</time></trkpt><trkpt lat="44.59368598578711" lon="8.950553373249287"><ele>339.0</ele><time>2026-04-03T14:40:56Z</time></trkpt><trkpt lat="44.593722037454505" lon="8.950902152611052"><ele>339.0</ele><time>2026-04-03T14:40:57Z</time></trkpt><trkpt lat="44.5937591572897" lon="8.951267481384367"><ele>339.0</ele><time>2026-04-03T14:40:58Z</time></trkpt><trkpt lat="44.593791584815314" lon="8.951635785262843"><ele>340.5</ele><time>2026-04-03T14:40:59Z</time></trkpt><trkpt lat="44.59384431589029" lon="8.951994938989033"><ele>342.0</ele><time>2026-04-03T14:41:00Z</time></trkpt><trkpt lat="44.5939141386419" lon="8.95234958147414"><ele>341.5</ele><time>2026-04-03T14:41:01Z</time></trkpt><trkpt lat="44.59401600079946" lon="8.952690918946002"><ele>341.0</ele><time>2026-04-03T14:41:02Z</time></trkpt><trkpt lat="44.59414949879607" lon="8.952997457892433"><ele>341.0</ele><time>2026-04-03T14:41:03Z</time></trkpt><trkpt lat="44.5943144702271" lon="8.953277830333821"><ele>341.0</ele><time>2026-04-03T14:41:04Z</time></trkpt><trkpt lat="44.59449426170033" lon="8.953539004053702"><ele>339.0</ele><time>2026-04-03T14:41:05Z</time></trkpt><trkpt lat="44.59468755610053" lon="8.95377160808507"><ele>337.0</ele><time>2026-04-03T14:41:06Z</time></trkpt><trkpt lat="44.594900599458036" lon="8.953981384303972"><ele>337.0</ele><time>2026-04-03T14:41:07Z</time></trkpt><trkpt lat="44.595130985047696" lon="8.954153168124908"><ele>337.0</ele><time>2026-04-03T14:41:08Z</time></trkpt><trkpt lat="44.595371991630905" lon="8.954285369529421"><ele>336.5</ele><time>2026-04-03T14:41:09Z</time></trkpt><trkpt lat="44.59562534034885" lon="8.954376963483206"><ele>336.0</ele><time>2026-04-03T14:41:10Z</time></trkpt><trkpt lat="44.59588290160755" lon="8.954446212242585"><ele>336.0</ele><time>2026-04-03T14:41:11Z</time></trkpt><trkpt lat="44.59614165546515" lon="8.954523131455005"><ele>336.0</ele><time>2026-04-03T14:41:11.999Z</time></trkpt><trkpt lat="44.596401494099155" lon="8.954599983914186"><ele>336.0</ele><time>2026-04-03T14:41:12.999Z</time></trkpt><trkpt lat="44.59666449394145" lon="8.954648539236773"><ele>336.0</ele><time>2026-04-03T14:41:13.999Z</time></trkpt><trkpt lat="44.59693033494128" lon="8.954644250648132"><ele>337.0</ele><time>2026-04-03T14:41:14.999Z</time></trkpt><trkpt lat="44.59719238261016" lon="8.954593481365112"><ele>338.0</ele><time>2026-04-03T14:41:15.999Z</time></trkpt><trkpt lat="44.59743923631324" lon="8.954492969681581"><ele>338.0</ele><time>2026-04-03T14:41:16.999Z</time></trkpt><trkpt lat="44.597694550675136" lon="8.954364178969037"><ele>338.0</ele><time>2026-04-03T14:41:17.999Z</time></trkpt><trkpt lat="44.59793390791238" lon="8.954185700042562"><ele>339.0</ele><time>2026-04-03T14:41:18.999Z</time></trkpt><trkpt lat="44.59815854659385" lon="8.953990147330005"><ele>340.0</ele><time>2026-04-03T14:41:19.999Z</time></trkpt><trkpt lat="44.598391601752866" lon="8.953784854672548"><ele>340.0</ele><time>2026-04-03T14:41:20.999Z</time></trkpt><trkpt lat="44.598622506588534" lon="8.953584746175268"><ele>340.0</ele><time>2026-04-03T14:41:21.999Z</time></trkpt><trkpt lat="44.59885961856708" lon="8.953390207720968"><ele>340.0</ele><time>2026-04-03T14:41:22.999Z</time></trkpt><trkpt lat="44.59909651924353" lon="8.953201099110675"><ele>340.0</ele><time>2026-04-03T14:41:23.999Z</time></trkpt><trkpt lat="44.59933245540161" lon="8.953007940444333"><ele>338.0</ele><time>2026-04-03T14:41:24.999Z</time></trkpt><trkpt lat="44.599570605884175" lon="8.952810368073873"><ele>336.0</ele><time>2026-04-03T14:41:25.999Z</time></trkpt><trkpt lat="44.599801767070836" lon="8.95260756770712"><ele>338.0</ele><time>2026-04-03T14:41:26.999Z</time></trkpt><trkpt lat="44.60002740503447" lon="8.952389659140525"><ele>340.0</ele><time>2026-04-03T14:41:27.999Z</time></trkpt><trkpt lat="44.60024124050564" lon="8.952154219237904"><ele>339.5</ele><time>2026-04-03T14:41:28.999Z</time></trkpt><trkpt lat="44.60044902479714" lon="8.951908492215786"><ele>339.0</ele><time>2026-04-03T14:41:29.999Z</time></trkpt><trkpt lat="44.60066788240383" lon="8.951685353448582"><ele>339.0</ele><time>2026-04-03T14:41:30.999Z</time></trkpt><trkpt lat="44.600906119127764" lon="8.951505667641081"><ele>339.0</ele><time>2026-04-03T14:41:31.999Z</time></trkpt><trkpt lat="44.601155016812754" lon="8.95137342435231"><ele>336.0</ele><time>2026-04-03T14:41:32.999Z</time></trkpt><trkpt lat="44.60141340661869" lon="8.951291590814119"><ele>333.0</ele><time>2026-04-03T14:41:33.999Z</time></trkpt><trkpt lat="44.60167571882429" lon="8.951242690389375"><ele>333.0</ele><time>2026-04-03T14:41:34.999Z</time></trkpt><trkpt lat="44.60193868564688" lon="8.951245244874427"><ele>333.0</ele><time>2026-04-03T14:41:35.999Z</time></trkpt><trkpt lat="44.602196476109036" lon="8.951279979113254"><ele>333.5</ele><time>2026-04-03T14:41:36.999Z</time></trkpt><trkpt lat="44.60245188067217" lon="8.95135655703647"><ele>334.0</ele><time>2026-04-03T14:41:37.999Z</time></trkpt><trkpt lat="44.60270067468952" lon="8.951473198200377"><ele>334.5</ele><time>2026-04-03T14:41:38.999Z</time></trkpt><trkpt lat="44.60293208689727" lon="8.951634343581183"><ele>335.0</ele><time>2026-04-03T14:41:39.999Z</time></trkpt><trkpt lat="44.603150949277854" lon="8.951823178358358"><ele>339.5</ele><time>2026-04-03T14:41:40.999Z</time></trkpt><trkpt lat="44.60334581191467" lon="8.952051998926349"><ele>344.0</ele><time>2026-04-03T14:41:42Z</time></trkpt><trkpt lat="44.603516939050124" lon="8.95230891746828"><ele>341.0</ele><time>2026-04-03T14:41:43Z</time></trkpt><trkpt lat="44.60367226013024" lon="8.952584810728501"><ele>338.0</ele><time>2026-04-03T14:41:44Z</time></trkpt><trkpt lat="44.60381059186435" lon="8.952871780137006"><ele>338.0</ele><time>2026-04-03T14:41:45Z</time></trkpt><trkpt lat="44.60393149599552" lon="8.953152949261181"><ele>338.0</ele><time>2026-04-03T14:41:46Z</time></trkpt><trkpt lat="44.60405069662296" lon="8.953436414304011"><ele>337.33333333333337</ele><time>2026-04-03T14:41:47Z</time></trkpt><trkpt lat="44.60415996172605" lon="8.953697948882466"><ele>336.6666666666667</ele><time>2026-04-03T14:41:48Z</time></trkpt><trkpt lat="44.60426423267245" lon="8.953944324640304"><ele>336.0</ele><time>2026-04-03T14:41:49Z</time></trkpt><trkpt lat="44.60436914204672" lon="8.954192251214915"><ele>335.3333333333333</ele><time>2026-04-03T14:41:50Z</time></trkpt><trkpt lat="44.60447356385659" lon="8.95443935522153"><ele>334.66666666666663</ele><time>2026-04-03T14:41:51Z</time></trkpt><trkpt lat="44.60457781728243" lon="8.954689937283037"><ele>334.0</ele><time>2026-04-03T14:41:52Z</time></trkpt><trkpt lat="44.60468306001735" lon="8.954940394967581"><ele>335.66666666666663</ele><time>2026-04-03T14:41:53Z</time></trkpt><trkpt lat="44.604789594643" lon="8.955193654395798"><ele>337.3333333333333</ele><time>2026-04-03T14:41:54Z</time></trkpt><trkpt lat="44.604899126003296" lon="8.955445010652957"><ele>339.0</ele><time>2026-04-03T14:41:55Z</time></trkpt><trkpt lat="44.60501601349265" lon="8.955695527115491"><ele>340.3333333333333</ele><time>2026-04-03T14:41:56Z</time></trkpt><trkpt lat="44.60514690794486" lon="8.955940984842789"><ele>341.66666666666663</ele><time>2026-04-03T14:41:57Z</time></trkpt><trkpt lat="44.60529425226519" lon="8.956174941997682"><ele>343.0</ele><time>2026-04-03T14:41:58Z</time></trkpt><trkpt lat="44.60546145337933" lon="8.956392426745596"><ele>342.0</ele><time>2026-04-03T14:41:59Z</time></trkpt><trkpt lat="44.605637155198224" lon="8.956582605181886"><ele>341.0</ele><time>2026-04-03T14:42:00Z</time></trkpt><trkpt lat="44.60583110267481" lon="8.95673972923818"><ele>340.0</ele><time>2026-04-03T14:42:01Z</time></trkpt><trkpt lat="44.606041143519604" lon="8.956864352657538"><ele>337.66666666666663</ele><time>2026-04-03T14:42:02Z</time></trkpt><trkpt lat="44.60625771633276" lon="8.95695899409186"><ele>335.3333333333333</ele><time>2026-04-03T14:42:03Z</time></trkpt><trkpt lat="44.60646955910886" lon="8.957024787258131"><ele>333.0</ele><time>2026-04-03T14:42:04Z</time></trkpt><trkpt lat="44.60668460456128" lon="8.957073918719452"><ele>333.0</ele><time>2026-04-03T14:42:05Z</time></trkpt><trkpt lat="44.60688494707391" lon="8.957093797514203"><ele>333.0</ele><time>2026-04-03T14:42:06Z</time></trkpt><trkpt lat="44.607038324060035" lon="8.957086836956494"><ele>333.0</ele><time>2026-04-03T14:42:07Z</time></trkpt><trkpt lat="44.607139927672826" lon="8.957082985665032"><ele>331.79999999999995</ele><time>2026-04-03T14:42:08Z</time></trkpt><trkpt lat="44.607217542563326" lon="8.957071703381809"><ele>330.6</ele><time>2026-04-03T14:42:09Z</time></trkpt><trkpt lat="44.60732772694984" lon="8.957060668472952"><ele>329.4</ele><time>2026-04-03T14:42:11Z</time></trkpt><trkpt lat="44.60744516888207" lon="8.95704887132985"><ele>328.20000000000005</ele><time>2026-04-03T14:42:13Z</time></trkpt><trkpt lat="44.60758449873976" lon="8.957035291840874"><ele>327.0</ele><time>2026-04-03T14:42:15Z</time></trkpt><trkpt lat="44.607674429060246" lon="8.957025231811533"><ele>327.0</ele><time>2026-04-03T14:42:16Z</time></trkpt><trkpt lat="44.607763233694946" lon="8.957011054290822"><ele>327.0</ele><time>2026-04-03T14:42:17Z</time></trkpt><trkpt lat="44.60786137679167" lon="8.956987420480273"><ele>327.0</ele><time>2026-04-03T14:42:18Z</time></trkpt><trkpt lat="44.607965853782815" lon="8.956957800574955"><ele>327.0</ele><time>2026-04-03T14:42:19Z</time></trkpt><trkpt lat="44.60807760752488" lon="8.956927367201244"><ele>327.0</ele><time>2026-04-03T14:42:20Z</time></trkpt><trkpt lat="44.608195521133695" lon="8.956903440696617"><ele>327.75</ele><time>2026-04-03T14:42:21Z</time></trkpt><trkpt lat="44.60831300298508" lon="8.956892419746762"><ele>328.5</ele><time>2026-04-03T14:42:22Z</time></trkpt><trkpt lat="44.60842271415745" lon="8.956886659649395"><ele>329.25</ele><time>2026-04-03T14:42:23Z</time></trkpt><trkpt lat="44.60853300867378" lon="8.95687778943541"><ele>330.0</ele><time>2026-04-03T14:42:24Z</time></trkpt><trkpt lat="44.60865287930268" lon="8.956866625292278"><ele>330.0</ele><time>2026-04-03T14:42:25Z</time></trkpt><trkpt lat="44.608774740176706" lon="8.956856340821377"><ele>330.0</ele><time>2026-04-03T14:42:26Z</time></trkpt><trkpt lat="44.608900803639735" lon="8.956846857454531"><ele>330.0</ele><time>2026-04-03T14:42:27Z</time></trkpt><trkpt lat="44.609024070334314" lon="8.9568354733655"><ele>330.0</ele><time>2026-04-03T14:42:28Z</time></trkpt><trkpt lat="44.6091455981607" lon="8.956825537396144"><ele>330.0</ele><time>2026-04-03T14:42:29Z</time></trkpt><trkpt lat="44.60927134146653" lon="8.95681633952691"><ele>330.0</ele><time>2026-04-03T14:42:30Z</time></trkpt><trkpt lat="44.60939925093253" lon="8.9568077587447"><ele>330.0</ele><time>2026-04-03T14:42:31Z</time></trkpt><trkpt lat="44.609528615863994" lon="8.956797531041834"><ele>330.0</ele><time>2026-04-03T14:42:32Z</time></trkpt><trkpt lat="44.60966407696644" lon="8.95678848790937"><ele>329.5</ele><time>2026-04-03T14:42:33Z</time></trkpt><trkpt lat="44.60980073750948" lon="8.956778152909072"><ele>329.0</ele><time>2026-04-03T14:42:34Z</time></trkpt><trkpt lat="44.60994135443076" lon="8.95676600080272"><ele>328.5</ele><time>2026-04-03T14:42:35Z</time></trkpt><trkpt lat="44.61008335196665" lon="8.956755716137117"><ele>328.0</ele><time>2026-04-03T14:42:36Z</time></trkpt><trkpt lat="44.6102254415045" lon="8.956743742241615"><ele>327.75</ele><time>2026-04-03T14:42:37Z</time></trkpt><trkpt lat="44.61037115906703" lon="8.956731009475254"><ele>327.5</ele><time>2026-04-03T14:42:38Z</time></trkpt><trkpt lat="44.6105188014138" lon="8.956716238192772"><ele>327.25</ele><time>2026-04-03T14:42:39Z</time></trkpt><trkpt lat="44.61066532722175" lon="8.95669713800962"><ele>327.0</ele><time>2026-04-03T14:42:40Z</time></trkpt><trkpt lat="44.610812053077886" lon="8.9566758248794"><ele>327.0</ele><time>2026-04-03T14:42:41Z</time></trkpt><trkpt lat="44.610961005625775" lon="8.956654310586709"><ele>327.0</ele><time>2026-04-03T14:42:42Z</time></trkpt><trkpt lat="44.61110910146071" lon="8.956639817083238"><ele>327.0</ele><time>2026-04-03T14:42:43Z</time></trkpt><trkpt lat="44.6112594462529" lon="8.956607053191373"><ele>327.25</ele><time>2026-04-03T14:42:44Z</time></trkpt><trkpt lat="44.611408366349956" lon="8.956602163107755"><ele>327.5</ele><time>2026-04-03T14:42:45Z</time></trkpt><trkpt lat="44.61155298426978" lon="8.956585619512229"><ele>327.75</ele><time>2026-04-03T14:42:46Z</time></trkpt><trkpt lat="44.61169277499264" lon="8.956569628076236"><ele>328.0</ele><time>2026-04-03T14:42:47Z</time></trkpt><trkpt lat="44.61182212015873" lon="8.956554831584498"><ele>328.0</ele><time>2026-04-03T14:42:48Z</time></trkpt><trkpt lat="44.61194413098015" lon="8.956540874146912"><ele>328.0</ele><time>2026-04-03T14:42:49Z</time></trkpt><trkpt lat="44.61206482496168" lon="8.956527086353615"><ele>328.0</ele><time>2026-04-03T14:42:50Z</time></trkpt><trkpt lat="44.61219057732958" lon="8.956512623944235"><ele>328.0</ele><time>2026-04-03T14:42:51Z</time></trkpt><trkpt lat="44.612317411856175" lon="8.956497972813576"><ele>327.5</ele><time>2026-04-03T14:42:52Z</time></trkpt><trkpt lat="44.61244275655538" lon="8.956483501191588"><ele>327.0</ele><time>2026-04-03T14:42:53Z</time></trkpt><trkpt lat="44.6125688760521" lon="8.956451849823727"><ele>326.5</ele><time>2026-04-03T14:42:54Z</time></trkpt><trkpt lat="44.61269641471943" lon="8.95641548831308"><ele>326.0</ele><time>2026-04-03T14:42:55Z</time></trkpt><trkpt lat="44.61282300022135" lon="8.956374765430734"><ele>325.5</ele><time>2026-04-03T14:42:56Z</time></trkpt><trkpt lat="44.61294831714764" lon="8.956329145197495"><ele>325.0</ele><time>2026-04-03T14:42:57Z</time></trkpt><trkpt lat="44.61301597215429" lon="8.955355669563357"><ele>325.0</ele><time>2026-04-03T14:42:58Z</time></trkpt><trkpt lat="44.61312236041682" lon="8.955245684479324"><ele>325.0</ele><time>2026-04-03T14:42:59Z</time></trkpt><trkpt lat="44.61322250065719" lon="8.955139216216745"><ele>325.0</ele><time>2026-04-03T14:43:00Z</time></trkpt><trkpt lat="44.61331465588281" lon="8.955041824755956"><ele>325.0</ele><time>2026-04-03T14:43:01Z</time></trkpt><trkpt lat="44.613402257418436" lon="8.95494558314896"><ele>325.25</ele><time>2026-04-03T14:43:02Z</time></trkpt><trkpt lat="44.61349583586865" lon="8.954841349021557"><ele>325.5</ele><time>2026-04-03T14:43:03Z</time></trkpt><trkpt lat="44.61359673599936" lon="8.954733027227409"><ele>325.75</ele><time>2026-04-03T14:43:04Z</time></trkpt><trkpt lat="44.61370172662617" lon="8.954626337949136"><ele>326.0</ele><time>2026-04-03T14:43:05Z</time></trkpt><trkpt lat="44.61380311918905" lon="8.954517788474712"><ele>326.5</ele><time>2026-04-03T14:43:06Z</time></trkpt><trkpt lat="44.613903315652216" lon="8.954402865452899"><ele>327.0</ele><time>2026-04-03T14:43:07Z</time></trkpt><trkpt lat="44.6139995333053" lon="8.954279813802646"><ele>327.5</ele><time>2026-04-03T14:43:08Z</time></trkpt><trkpt lat="44.61409079004881" lon="8.954145071531107"><ele>328.0</ele><time>2026-04-03T14:43:09Z</time></trkpt><trkpt lat="44.614178227705075" lon="8.954003849124751"><ele>328.0</ele><time>2026-04-03T14:43:10Z</time></trkpt><trkpt lat="44.61426372117822" lon="8.95386110641921"><ele>328.0</ele><time>2026-04-03T14:43:11Z</time></trkpt><trkpt lat="44.61434361442239" lon="8.953718933691821"><ele>328.0</ele><time>2026-04-03T14:43:12Z</time></trkpt><trkpt lat="44.61446781228053" lon="8.953636000386515"><ele>328.0</ele><time>2026-04-03T14:43:13Z</time></trkpt><trkpt lat="44.614538248384825" lon="8.953510408848238"><ele>330.75</ele><time>2026-04-03T14:43:14Z</time></trkpt><trkpt lat="44.61460951005654" lon="8.95337387695002"><ele>333.5</ele><time>2026-04-03T14:43:15Z</time></trkpt><trkpt lat="44.61467602825068" lon="8.953234919994088"><ele>336.25</ele><time>2026-04-03T14:43:15.999Z</time></trkpt><trkpt lat="44.61474484552636" lon="8.953088337866117"><ele>339.0</ele><time>2026-04-03T14:43:16.999Z</time></trkpt><trkpt lat="44.61481474935316" lon="8.95294208499689"><ele>339.0</ele><time>2026-04-03T14:43:17.999Z</time></trkpt><trkpt lat="44.61488851055286" lon="8.95278454531934"><ele>339.0</ele><time>2026-04-03T14:43:18.999Z</time></trkpt><trkpt lat="44.61495334229697" lon="8.952618417795138"><ele>339.0</ele><time>2026-04-03T14:43:19.999Z</time></trkpt><trkpt lat="44.61500896833706" lon="8.952441850968633"><ele>339.0</ele><time>2026-04-03T14:43:20.999Z</time></trkpt><trkpt lat="44.61505755435055" lon="8.952270554495364"><ele>338.0</ele><time>2026-04-03T14:43:21.999Z</time></trkpt><trkpt lat="44.615101279998186" lon="8.952089097177069"><ele>337.0</ele><time>2026-04-03T14:43:22.999Z</time></trkpt><trkpt lat="44.615145078940216" lon="8.951911585799808"><ele>336.0</ele><time>2026-04-03T14:43:23.999Z</time></trkpt><trkpt lat="44.61519265150858" lon="8.951736525693446"><ele>335.0</ele><time>2026-04-03T14:43:24.999Z</time></trkpt><trkpt lat="44.61524354274624" lon="8.951568772145286"><ele>333.0</ele><time>2026-04-03T14:43:25.999Z</time></trkpt><trkpt lat="44.61530291448895" lon="8.951402165870789"><ele>331.0</ele><time>2026-04-03T14:43:26.999Z</time></trkpt><trkpt lat="44.615375670063614" lon="8.951285094876985"><ele>329.0</ele><time>2026-04-03T14:43:27.999Z</time></trkpt><trkpt lat="44.61545874097044" lon="8.951144520657394"><ele>327.0</ele><time>2026-04-03T14:43:28.999Z</time></trkpt><trkpt lat="44.61573145351831" lon="8.950928845183057"><ele>329.5</ele><time>2026-04-03T14:43:29.999Z</time></trkpt><trkpt lat="44.61576012575313" lon="8.950801665290875"><ele>332.0</ele><time>2026-04-03T14:43:30.999Z</time></trkpt><trkpt lat="44.61581110837047" lon="8.950576453204434"><ele>334.5</ele><time>2026-04-03T14:43:31.999Z</time></trkpt><trkpt lat="44.61584640782782" lon="8.950445821875253"><ele>337.0</ele><time>2026-04-03T14:43:32.999Z</time></trkpt><trkpt lat="44.61590209243163" lon="8.950289932905866"><ele>337.0</ele><time>2026-04-03T14:43:33.999Z</time></trkpt><trkpt lat="44.61596365311864" lon="8.95010515450475"><ele>337.0</ele><time>2026-04-03T14:43:34.999Z</time></trkpt><trkpt lat="44.616025786283615" lon="8.949918656994189"><ele>337.0</ele><time>2026-04-03T14:43:35.999Z</time></trkpt><trkpt lat="44.6160870687484" lon="8.949732066528604"><ele>337.0</ele><time>2026-04-03T14:43:36.999Z</time></trkpt><trkpt lat="44.616150720088704" lon="8.949527371201642"><ele>337.0</ele><time>2026-04-03T14:43:37.999Z</time></trkpt><trkpt lat="44.61620579101579" lon="8.949341207520046"><ele>337.0</ele><time>2026-04-03T14:43:38.999Z</time></trkpt><trkpt lat="44.616250653642176" lon="8.949208992470407"><ele>337.0</ele><time>2026-04-03T14:43:39.999Z</time></trkpt><trkpt lat="44.61631175168899" lon="8.949085715652464"><ele>337.0</ele><time>2026-04-03T14:43:40.999Z</time></trkpt><trkpt lat="44.6163795112812" lon="8.94900967192748"><ele>337.0</ele><time>2026-04-03T14:43:41.999Z</time></trkpt><trkpt lat="44.61650957622378" lon="8.948872630089925"><ele>337.0</ele><time>2026-04-03T14:43:42.999Z</time></trkpt><trkpt lat="44.616635221390226" lon="8.948720537519657"><ele>337.0</ele><time>2026-04-03T14:43:43.999Z</time></trkpt><trkpt lat="44.61674690665133" lon="8.948490820956769"><ele>337.0</ele><time>2026-04-03T14:43:44.999Z</time></trkpt><trkpt lat="44.61678742895061" lon="8.9483625752964"><ele>337.25</ele><time>2026-04-03T14:43:45.999Z</time></trkpt><trkpt lat="44.61687841808444" lon="8.948247827283"><ele>337.5</ele><time>2026-04-03T14:43:46.999Z</time></trkpt><trkpt lat="44.61700307863365" lon="8.948149624592043"><ele>337.75</ele><time>2026-04-03T14:43:48Z</time></trkpt><trkpt lat="44.617133117759906" lon="8.94805533532276"><ele>338.0</ele><time>2026-04-03T14:43:49Z</time></trkpt><trkpt lat="44.61726253164725" lon="8.94796150095304"><ele>338.0</ele><time>2026-04-03T14:43:50Z</time></trkpt><trkpt lat="44.617392155177576" lon="8.947867512980178"><ele>338.0</ele><time>2026-04-03T14:43:51Z</time></trkpt><trkpt lat="44.61752207134213" lon="8.947772318165585"><ele>338.0</ele><time>2026-04-03T14:43:52Z</time></trkpt><trkpt lat="44.61765280781836" lon="8.947675290617067"><ele>338.0</ele><time>2026-04-03T14:43:53Z</time></trkpt><trkpt lat="44.617779986181084" lon="8.947582333477305"><ele>337.25</ele><time>2026-04-03T14:43:54Z</time></trkpt><trkpt lat="44.61791278329417" lon="8.947487984650092"><ele>336.5</ele><time>2026-04-03T14:43:55Z</time></trkpt><trkpt lat="44.6180441776322" lon="8.94739335593736"><ele>335.75</ele><time>2026-04-03T14:43:56Z</time></trkpt><trkpt lat="44.61817021900582" lon="8.947301214396981"><ele>335.0</ele><time>2026-04-03T14:43:57Z</time></trkpt><trkpt lat="44.61829526755711" lon="8.947209798585769"><ele>335.0</ele><time>2026-04-03T14:43:58Z</time></trkpt><trkpt lat="44.61841581093917" lon="8.947121999880263"><ele>335.0</ele><time>2026-04-03T14:43:59Z</time></trkpt><trkpt lat="44.618536986821084" lon="8.947042639396795"><ele>335.0</ele><time>2026-04-03T14:44:00Z</time></trkpt><trkpt lat="44.618650772584864" lon="8.947010148418522"><ele>335.0</ele><time>2026-04-03T14:44:01Z</time></trkpt><trkpt lat="44.61876748817046" lon="8.94703928818313"><ele>336.25</ele><time>2026-04-03T14:44:02Z</time></trkpt><trkpt lat="44.618902037480076" lon="8.947060391059601"><ele>337.5</ele><time>2026-04-03T14:44:03Z</time></trkpt><trkpt lat="44.61905365023202" lon="8.947081766522698"><ele>338.75</ele><time>2026-04-03T14:44:04Z</time></trkpt><trkpt lat="44.61919900335918" lon="8.947080507427007"><ele>340.0</ele><time>2026-04-03T14:44:05Z</time></trkpt><trkpt lat="44.619280079077086" lon="8.947193857591579"><ele>340.0</ele><time>2026-04-03T14:44:06Z</time></trkpt><trkpt lat="44.619394654423274" lon="8.947315272247632"><ele>340.0</ele><time>2026-04-03T14:44:07Z</time></trkpt><trkpt lat="44.619497541836516" lon="8.947458679571831"><ele>340.0</ele><time>2026-04-03T14:44:08Z</time></trkpt><trkpt lat="44.619568527442034" lon="8.947631029685466"><ele>340.0</ele><time>2026-04-03T14:44:09Z</time></trkpt><trkpt lat="44.61963847505599" lon="8.947817193358008"><ele>337.66666666666663</ele><time>2026-04-03T14:44:10Z</time></trkpt><trkpt lat="44.61970973184833" lon="8.948008209807876"><ele>335.3333333333333</ele><time>2026-04-03T14:44:11Z</time></trkpt><trkpt lat="44.61977888071042" lon="8.948201991751617"><ele>333.0</ele><time>2026-04-03T14:44:12Z</time></trkpt><trkpt lat="44.619847615533494" lon="8.948395708123478"><ele>341.3333333333333</ele><time>2026-04-03T14:44:13Z</time></trkpt><trkpt lat="44.61991845967454" lon="8.948590615445744"><ele>349.66666666666663</ele><time>2026-04-03T14:44:14Z</time></trkpt><trkpt lat="44.61998795811463" lon="8.948776291168075"><ele>358.0</ele><time>2026-04-03T14:44:15Z</time></trkpt><trkpt lat="44.62006165085205" lon="8.948962400730913"><ele>358.0</ele><time>2026-04-03T14:44:16Z</time></trkpt><trkpt lat="44.62014993414957" lon="8.949141777771088"><ele>358.0</ele><time>2026-04-03T14:44:17Z</time></trkpt><trkpt lat="44.620248072971286" lon="8.949307831736911"><ele>358.0</ele><time>2026-04-03T14:44:18Z</time></trkpt><trkpt lat="44.62034657766059" lon="8.949464399839913"><ele>348.3333333333333</ele><time>2026-04-03T14:44:19Z</time></trkpt><trkpt lat="44.62045158104859" lon="8.949618769368172"><ele>338.6666666666667</ele><time>2026-04-03T14:44:20Z</time></trkpt><trkpt lat="44.6205557689566" lon="8.94976734255755"><ele>329.0</ele><time>2026-04-03T14:44:21Z</time></trkpt><trkpt lat="44.62066265461896" lon="8.949919762530495"><ele>336.75</ele><time>2026-04-03T14:44:22Z</time></trkpt><trkpt lat="44.62076202840752" lon="8.950071498563227"><ele>344.5</ele><time>2026-04-03T14:44:23Z</time></trkpt><trkpt lat="44.620849871105825" lon="8.950236239328028"><ele>352.25</ele><time>2026-04-03T14:44:24Z</time></trkpt><trkpt lat="44.6209370636114" lon="8.950411214784312"><ele>360.0</ele><time>2026-04-03T14:44:25Z</time></trkpt><trkpt lat="44.621026593965894" lon="8.950586428086954"><ele>360.0</ele><time>2026-04-03T14:44:26Z</time></trkpt><trkpt lat="44.62111435659879" lon="8.950760359281398"><ele>360.0</ele><time>2026-04-03T14:44:27Z</time></trkpt><trkpt lat="44.6212013696162" lon="8.95093292522568"><ele>360.0</ele><time>2026-04-03T14:44:28Z</time></trkpt><trkpt lat="44.62128353370428" lon="8.951099901254565"><ele>360.0</ele><time>2026-04-03T14:44:29Z</time></trkpt><trkpt lat="44.6214038858844" lon="8.951340557205867"><ele>357.6666666666667</ele><time>2026-04-03T14:44:30Z</time></trkpt><trkpt lat="44.6214940322055" lon="8.951463894536532"><ele>355.33333333333337</ele><time>2026-04-03T14:44:31Z</time></trkpt><trkpt lat="44.62157477218716" lon="8.95161624860917"><ele>353.0</ele><time>2026-04-03T14:44:32Z</time></trkpt><trkpt lat="44.621702010879496" lon="8.95181979484633"><ele>357.33333333333337</ele><time>2026-04-03T14:44:33Z</time></trkpt><trkpt lat="44.62190194384969" lon="8.95201908384497"><ele>361.6666666666667</ele><time>2026-04-03T14:44:34Z</time></trkpt><trkpt lat="44.62203389184222" lon="8.952097804484378"><ele>366.0</ele><time>2026-04-03T14:44:35Z</time></trkpt><trkpt lat="44.62214996656595" lon="8.952190596793216"><ele>366.0</ele><time>2026-04-03T14:44:36Z</time></trkpt><trkpt lat="44.6222700733129" lon="8.952289506674937"><ele>366.0</ele><time>2026-04-03T14:44:37Z</time></trkpt><trkpt lat="44.62236384792634" lon="8.952377586780603"><ele>366.0</ele><time>2026-04-03T14:44:38Z</time></trkpt><trkpt lat="44.62244644791873" lon="8.952443905092245"><ele>366.0</ele><time>2026-04-03T14:44:39Z</time></trkpt><trkpt lat="44.622506663730086" lon="8.952491205463485"><ele>366.0</ele><time>2026-04-03T14:44:40Z</time></trkpt><trkpt lat="44.62307693696911" lon="8.951723357187374"><ele>355.3333333333333</ele><time>2026-04-03T14:44:41Z</time></trkpt><trkpt lat="44.623216595640855" lon="8.951640505457886"><ele>344.66666666666663</ele><time>2026-04-03T14:44:42Z</time></trkpt><trkpt lat="44.623356813375025" lon="8.951554942349285"><ele>334.0</ele><time>2026-04-03T14:44:43Z</time></trkpt><trkpt lat="44.62349374994963" lon="8.951468560836036"><ele>334.0</ele><time>2026-04-03T14:44:44Z</time></trkpt><trkpt lat="44.62362408526016" lon="8.951364868356043"><ele>334.0</ele><time>2026-04-03T14:44:45Z</time></trkpt><trkpt lat="44.62375182450129" lon="8.951257868527074"><ele>334.0</ele><time>2026-04-03T14:44:46Z</time></trkpt><trkpt lat="44.623869624633166" lon="8.95113637728279"><ele>334.0</ele><time>2026-04-03T14:44:47Z</time></trkpt><trkpt lat="44.62398761747213" lon="8.951011281325654"><ele>333.0</ele><time>2026-04-03T14:44:48Z</time></trkpt><trkpt lat="44.6241030734937" lon="8.95088656611134"><ele>332.0</ele><time>2026-04-03T14:44:49Z</time></trkpt><trkpt lat="44.62422018810821" lon="8.950762703684871"><ele>331.0</ele><time>2026-04-03T14:44:50Z</time></trkpt><trkpt lat="44.62433967116969" lon="8.950645136352476"><ele>330.0</ele><time>2026-04-03T14:44:51Z</time></trkpt><trkpt lat="44.624466362506155" lon="8.95052896114208"><ele>342.0</ele><time>2026-04-03T14:44:52Z</time></trkpt><trkpt lat="44.62459561430698" lon="8.950404139718028"><ele>354.0</ele><time>2026-04-03T14:44:53Z</time></trkpt><trkpt lat="44.62472920705021" lon="8.950257796537603"><ele>366.0</ele><time>2026-04-03T14:44:54Z</time></trkpt><trkpt lat="44.624855871756246" lon="8.950105643392543"><ele>356.3333333333333</ele><time>2026-04-03T14:44:55Z</time></trkpt><trkpt lat="44.624983201009286" lon="8.949942754530868"><ele>346.66666666666663</ele><time>2026-04-03T14:44:56Z</time></trkpt><trkpt lat="44.625105734303865" lon="8.949769101104312"><ele>337.0</ele><time>2026-04-03T14:44:57Z</time></trkpt><trkpt lat="44.62522339477132" lon="8.94958443546745"><ele>342.66666666666663</ele><time>2026-04-03T14:44:58Z</time></trkpt><trkpt lat="44.62534167439096" lon="8.949399942712015"><ele>348.3333333333333</ele><time>2026-04-03T14:44:59Z</time></trkpt><trkpt lat="44.62551983605908" lon="8.949136621966359"><ele>354.0</ele><time>2026-04-03T14:45:00Z</time></trkpt><trkpt lat="44.62565812938186" lon="8.948913146787962"><ele>354.0</ele><time>2026-04-03T14:45:01Z</time></trkpt><trkpt lat="44.62580034345325" lon="8.948687781256398"><ele>354.0</ele><time>2026-04-03T14:45:02Z</time></trkpt><trkpt lat="44.625942164252905" lon="8.94845329936223"><ele>354.0</ele><time>2026-04-03T14:45:03Z</time></trkpt><trkpt lat="44.62608699204145" lon="8.948219431836065"><ele>348.3333333333333</ele><time>2026-04-03T14:45:04Z</time></trkpt><trkpt lat="44.62623617811956" lon="8.947986441744186"><ele>342.66666666666663</ele><time>2026-04-03T14:45:05Z</time></trkpt><trkpt lat="44.62637907369487" lon="8.94774456341529"><ele>337.0</ele><time>2026-04-03T14:45:06Z</time></trkpt><trkpt lat="44.62652190347403" lon="8.947502836572806"><ele>337.0</ele><time>2026-04-03T14:45:07Z</time></trkpt><trkpt lat="44.62666314763152" lon="8.947254409805225"><ele>337.0</ele><time>2026-04-03T14:45:08Z</time></trkpt><trkpt lat="44.626801236948864" lon="8.94700018958649"><ele>337.0</ele><time>2026-04-03T14:45:09Z</time></trkpt><trkpt lat="44.62693303068412" lon="8.946737515456498"><ele>337.0</ele><time>2026-04-03T14:45:10Z</time></trkpt><trkpt lat="44.627062778838585" lon="8.94648289978204"><ele>354.0</ele><time>2026-04-03T14:45:11Z</time></trkpt><trkpt lat="44.62719641612153" lon="8.94622157472148"><ele>371.0</ele><time>2026-04-03T14:45:12Z</time></trkpt><trkpt lat="44.627333945249696" lon="8.94595798341698"><ele>353.5</ele><time>2026-04-03T14:45:13Z</time></trkpt><trkpt lat="44.62746273210761" lon="8.94567746765737"><ele>336.0</ele><time>2026-04-03T14:45:14Z</time></trkpt><trkpt lat="44.627567658381835" lon="8.94537988784259"><ele>336.0</ele><time>2026-04-03T14:45:15Z</time></trkpt><trkpt lat="44.627661893701735" lon="8.945070997994058"><ele>336.0</ele><time>2026-04-03T14:45:16Z</time></trkpt><trkpt lat="44.62776314670392" lon="8.94476083366947"><ele>338.0</ele><time>2026-04-03T14:45:17Z</time></trkpt><trkpt lat="44.62786149914911" lon="8.944446370681067"><ele>340.0</ele><time>2026-04-03T14:45:18Z</time></trkpt><trkpt lat="44.62797433408042" lon="8.944145187151149"><ele>340.0</ele><time>2026-04-03T14:45:19Z</time></trkpt><trkpt lat="44.62811227986644" lon="8.943869042568377"><ele>340.0</ele><time>2026-04-03T14:45:20Z</time></trkpt><trkpt lat="44.62827541514239" lon="8.943612936141378"><ele>340.0</ele><time>2026-04-03T14:45:21Z</time></trkpt><trkpt lat="44.62849001954254" lon="8.943404418687185"><ele>340.0</ele><time>2026-04-03T14:45:22Z</time></trkpt><trkpt lat="44.628695774845475" lon="8.943224688628865"><ele>336.5</ele><time>2026-04-03T14:45:23Z</time></trkpt><trkpt lat="44.628923739044026" lon="8.943073380802884"><ele>333.0</ele><time>2026-04-03T14:45:23.999Z</time></trkpt><trkpt lat="44.629159383593525" lon="8.94295394087164"><ele>333.0</ele><time>2026-04-03T14:45:24.999Z</time></trkpt><trkpt lat="44.6294033211054" lon="8.942861529611577"><ele>333.0</ele><time>2026-04-03T14:45:25.999Z</time></trkpt><trkpt lat="44.629653675207685" lon="8.942803811498516"><ele>336.5</ele><time>2026-04-03T14:45:26.999Z</time></trkpt><trkpt lat="44.62990505684992" lon="8.942781006543097"><ele>340.0</ele><time>2026-04-03T14:45:27.999Z</time></trkpt><trkpt lat="44.630159482606516" lon="8.942799706844081"><ele>334.5</ele><time>2026-04-03T14:45:28.999Z</time></trkpt><trkpt lat="44.63041325487998" lon="8.942855435705058"><ele>329.0</ele><time>2026-04-03T14:45:29.999Z</time></trkpt><trkpt lat="44.630666267348346" lon="8.942923923884257"><ele>329.0</ele><time>2026-04-03T14:45:30.999Z</time></trkpt><trkpt lat="44.63092191811931" lon="8.94298681728224"><ele>329.0</ele><time>2026-04-03T14:45:31.999Z</time></trkpt><trkpt lat="44.63117903875971" lon="8.943055305794156"><ele>320.0</ele><time>2026-04-03T14:45:32.999Z</time></trkpt><trkpt lat="44.63142707236043" lon="8.943168919315703"><ele>311.0</ele><time>2026-04-03T14:45:33.999Z</time></trkpt><trkpt lat="44.63165614062581" lon="8.943336936284052"><ele>309.5</ele><time>2026-04-03T14:45:34.999Z</time></trkpt><trkpt lat="44.63186913197306" lon="8.943549716024856"><ele>308.0</ele><time>2026-04-03T14:45:35.999Z</time></trkpt><trkpt lat="44.632067922484126" lon="8.943798080369476"><ele>308.0</ele><time>2026-04-03T14:45:36.999Z</time></trkpt><trkpt lat="44.63225025854201" lon="8.944073406370912"><ele>308.0</ele><time>2026-04-03T14:45:37.999Z</time></trkpt><trkpt lat="44.63243001023766" lon="8.944361534156467"><ele>317.5</ele><time>2026-04-03T14:45:38.999Z</time></trkpt><trkpt lat="44.63260378496567" lon="8.944653123891715"><ele>327.0</ele><time>2026-04-03T14:45:39.999Z</time></trkpt><trkpt lat="44.63278575723707" lon="8.944946795858918"><ele>322.5</ele><time>2026-04-03T14:45:40.999Z</time></trkpt><trkpt lat="44.63296850003264" lon="8.94523343665652"><ele>318.0</ele><time>2026-04-03T14:45:41.999Z</time></trkpt><trkpt lat="44.633149966624615" lon="8.945516539701988"><ele>318.0</ele><time>2026-04-03T14:45:42.999Z</time></trkpt><trkpt lat="44.63332968725076" lon="8.9458031019217"><ele>318.0</ele><time>2026-04-03T14:45:43.999Z</time></trkpt><trkpt lat="44.63350755685093" lon="8.946094232223343"><ele>311.0</ele><time>2026-04-03T14:45:44.999Z</time></trkpt><trkpt lat="44.63367341729787" lon="8.946398882305887"><ele>304.0</ele><time>2026-04-03T14:45:45.999Z</time></trkpt><trkpt lat="44.6338191148048" lon="8.946726380542827"><ele>304.0</ele><time>2026-04-03T14:45:46.999Z</time></trkpt><trkpt lat="44.633939010988534" lon="8.947077043007361"><ele>304.0</ele><time>2026-04-03T14:45:47.999Z</time></trkpt><trkpt lat="44.6340172269914" lon="8.947441629014449"><ele>306.0</ele><time>2026-04-03T14:45:48.999Z</time></trkpt><trkpt lat="44.6340773610178" lon="8.947821787098876"><ele>308.0</ele><time>2026-04-03T14:45:49.999Z</time></trkpt><trkpt lat="44.6341188806797" lon="8.948203171605273"><ele>310.0</ele><time>2026-04-03T14:45:50.999Z</time></trkpt><trkpt lat="44.6341445448482" lon="8.948586878876853"><ele>312.0</ele><time>2026-04-03T14:45:51.999Z</time></trkpt><trkpt lat="44.634171187679776" lon="8.948968174737919"><ele>318.0</ele><time>2026-04-03T14:45:52.999Z</time></trkpt><trkpt lat="44.6342077228111" lon="8.949342505057471"><ele>324.0</ele><time>2026-04-03T14:45:54Z</time></trkpt><trkpt lat="44.634271371652275" lon="8.949698039492729"><ele>324.0</ele><time>2026-04-03T14:45:55Z</time></trkpt><trkpt lat="44.634359927422324" lon="8.950029464741686"><ele>324.0</ele><time>2026-04-03T14:45:56Z</time></trkpt><trkpt lat="44.634500336863226" lon="8.950323242788658"><ele>312.0</ele><time>2026-04-03T14:45:57Z</time></trkpt><trkpt lat="44.634683137916056" lon="8.950570609954546"><ele>300.0</ele><time>2026-04-03T14:45:58Z</time></trkpt><trkpt lat="44.63489075566611" lon="8.950786070496347"><ele>301.0</ele><time>2026-04-03T14:45:59Z</time></trkpt><trkpt lat="44.635099252727585" lon="8.950997156562506"><ele>302.0</ele><time>2026-04-03T14:46:00Z</time></trkpt><trkpt lat="44.635304432851775" lon="8.951215423637027"><ele>302.0</ele><time>2026-04-03T14:46:01Z</time></trkpt><trkpt lat="44.63550432916945" lon="8.951443364214478"><ele>302.0</ele><time>2026-04-03T14:46:02Z</time></trkpt><trkpt lat="44.63570146572111" lon="8.951671518991924"><ele>321.0</ele><time>2026-04-03T14:46:03Z</time></trkpt><trkpt lat="44.635898518963955" lon="8.951898215490788"><ele>340.0</ele><time>2026-04-03T14:46:04Z</time></trkpt><trkpt lat="44.63609822676119" lon="8.952115990873466"><ele>325.5</ele><time>2026-04-03T14:46:05Z</time></trkpt><trkpt lat="44.63630730950902" lon="8.952315249891564"><ele>311.0</ele><time>2026-04-03T14:46:06Z</time></trkpt><trkpt lat="44.636528996367694" lon="8.952490581958788"><ele>314.5</ele><time>2026-04-03T14:46:07Z</time></trkpt><trkpt lat="44.636759081481785" lon="8.952634101922976"><ele>318.0</ele><time>2026-04-03T14:46:08Z</time></trkpt><trkpt lat="44.636998863083285" lon="8.952770097349172"><ele>318.0</ele><time>2026-04-03T14:46:09Z</time></trkpt><trkpt lat="44.63723640418115" lon="8.952907552122872"><ele>318.0</ele><time>2026-04-03T14:46:10Z</time></trkpt><trkpt lat="44.63747450632269" lon="8.953041151607842"><ele>318.0</ele><time>2026-04-03T14:46:11Z</time></trkpt><trkpt lat="44.637712227118854" lon="8.953176870500087"><ele>318.0</ele><time>2026-04-03T14:46:12Z</time></trkpt><trkpt lat="44.63794490660828" lon="8.953317008731311"><ele>320.0</ele><time>2026-04-03T14:46:13Z</time></trkpt><trkpt lat="44.63818426778748" lon="8.953460103969341"><ele>322.0</ele><time>2026-04-03T14:46:14Z</time></trkpt><trkpt lat="44.63841855805664" lon="8.953596910142101"><ele>313.0</ele><time>2026-04-03T14:46:15Z</time></trkpt><trkpt lat="44.638656365736956" lon="8.953733431028954"><ele>304.0</ele><time>2026-04-03T14:46:16Z</time></trkpt><trkpt lat="44.638895741676826" lon="8.953865958517435"><ele>304.0</ele><time>2026-04-03T14:46:17Z</time></trkpt><trkpt lat="44.639121118435426" lon="8.954004194800689"><ele>304.0</ele><time>2026-04-03T14:46:18Z</time></trkpt><trkpt lat="44.639334200342844" lon="8.954153584568278"><ele>305.5</ele><time>2026-04-03T14:46:19Z</time></trkpt><trkpt lat="44.63952508640107" lon="8.954328898831626"><ele>307.0</ele><time>2026-04-03T14:46:20Z</time></trkpt><trkpt lat="44.63970478339087" lon="8.954527550888596"><ele>307.0</ele><time>2026-04-03T14:46:21Z</time></trkpt><trkpt lat="44.639874253140434" lon="8.954746364072491"><ele>307.0</ele><time>2026-04-03T14:46:22Z</time></trkpt><trkpt lat="44.6400330249678" lon="8.954986592502646"><ele>305.0</ele><time>2026-04-03T14:46:23Z</time></trkpt><trkpt lat="44.64018611902691" lon="8.95524427656033"><ele>303.0</ele><time>2026-04-03T14:46:24Z</time></trkpt><trkpt lat="44.640339781416884" lon="8.955508758901335"><ele>303.0</ele><time>2026-04-03T14:46:25Z</time></trkpt><trkpt lat="44.64050780540257" lon="8.95577727721801"><ele>303.0</ele><time>2026-04-03T14:46:26Z</time></trkpt><trkpt lat="44.64067753719388" lon="8.956049051908833"><ele>306.5</ele><time>2026-04-03T14:46:27Z</time></trkpt><trkpt lat="44.64084061516734" lon="8.956329496526228"><ele>310.0</ele><time>2026-04-03T14:46:28Z</time></trkpt><trkpt lat="44.64100163631683" lon="8.956610242578547"><ele>314.5</ele><time>2026-04-03T14:46:29Z</time></trkpt><trkpt lat="44.641167261305654" lon="8.956889765668883"><ele>319.0</ele><time>2026-04-03T14:46:30Z</time></trkpt><trkpt lat="44.64134628953026" lon="8.95714917875752"><ele>319.0</ele><time>2026-04-03T14:46:31Z</time></trkpt><trkpt lat="44.64154766255101" lon="8.957380611877134"><ele>319.0</ele><time>2026-04-03T14:46:32Z</time></trkpt><trkpt lat="44.64177046830864" lon="8.95758153931228"><ele>324.0</ele><time>2026-04-03T14:46:33Z</time></trkpt><trkpt lat="44.64200336480887" lon="8.957749957707845"><ele>329.0</ele><time>2026-04-03T14:46:34Z</time></trkpt><trkpt lat="44.6422496714989" lon="8.957880436981853"><ele>329.0</ele><time>2026-04-03T14:46:35Z</time></trkpt><trkpt lat="44.64250240759128" lon="8.957995326814977"><ele>329.0</ele><time>2026-04-03T14:46:36Z</time></trkpt><trkpt lat="44.6427479707039" lon="8.958124413810742"><ele>327.0</ele><time>2026-04-03T14:46:37Z</time></trkpt><trkpt lat="44.64298856125905" lon="8.958280404461368"><ele>325.0</ele><time>2026-04-03T14:46:38Z</time></trkpt><trkpt lat="44.64322446488911" lon="8.958447997587347"><ele>325.0</ele><time>2026-04-03T14:46:39Z</time></trkpt><trkpt lat="44.64346470784623" lon="8.958609929992225"><ele>325.0</ele><time>2026-04-03T14:46:40Z</time></trkpt><trkpt lat="44.64371083309876" lon="8.958752873790864"><ele>310.0</ele><time>2026-04-03T14:46:41Z</time></trkpt><trkpt lat="44.643964174570996" lon="8.958878887330647"><ele>295.0</ele><time>2026-04-03T14:46:42Z</time></trkpt><trkpt lat="44.64422206917751" lon="8.958989857729156"><ele>293.0</ele><time>2026-04-03T14:46:43Z</time></trkpt><trkpt lat="44.644484914089645" lon="8.959090924798822"><ele>291.0</ele><time>2026-04-03T14:46:44Z</time></trkpt><trkpt lat="44.64474660188384" lon="8.959187692932336"><ele>295.0</ele><time>2026-04-03T14:46:45Z</time></trkpt><trkpt lat="44.64500858514577" lon="8.959277364648534"><ele>299.0</ele><time>2026-04-03T14:46:46Z</time></trkpt><trkpt lat="44.6452714395865" lon="8.959362162611685"><ele>301.0</ele><time>2026-04-03T14:46:47Z</time></trkpt><trkpt lat="44.645531659952" lon="8.95944835529952"><ele>303.0</ele><time>2026-04-03T14:46:48Z</time></trkpt><trkpt lat="44.645791541635575" lon="8.959524235282144"><ele>303.0</ele><time>2026-04-03T14:46:49Z</time></trkpt><trkpt lat="44.646056827461535" lon="8.95955557262885"><ele>303.0</ele><time>2026-04-03T14:46:50Z</time></trkpt><trkpt lat="44.64632263649685" lon="8.959545526406323"><ele>306.0</ele><time>2026-04-03T14:46:51Z</time></trkpt><trkpt lat="44.64658786179501" lon="8.959505746859797"><ele>309.0</ele><time>2026-04-03T14:46:52Z</time></trkpt><trkpt lat="44.64685412380658" lon="8.959465096588573"><ele>311.0</ele><time>2026-04-03T14:46:53Z</time></trkpt><trkpt lat="44.64712258417634" lon="8.959431737447394"><ele>313.0</ele><time>2026-04-03T14:46:54Z</time></trkpt><trkpt lat="44.647385602291294" lon="8.9594040933818"><ele>313.0</ele><time>2026-04-03T14:46:55Z</time></trkpt><trkpt lat="44.647653872688096" lon="8.95937651413927"><ele>313.0</ele><time>2026-04-03T14:46:56Z</time></trkpt><trkpt lat="44.647916789767656" lon="8.959346846439187"><ele>318.5</ele><time>2026-04-03T14:46:57Z</time></trkpt><trkpt lat="44.64818213314227" lon="8.959313009424882"><ele>324.0</ele><time>2026-04-03T14:46:58Z</time></trkpt><trkpt lat="44.648444935601084" lon="8.959275187288096"><ele>317.5</ele><time>2026-04-03T14:46:59Z</time></trkpt><trkpt lat="44.64870597915133" lon="8.959234285956565"><ele>311.0</ele><time>2026-04-03T14:47:00Z</time></trkpt><trkpt lat="44.64896652880579" lon="8.959194543244855"><ele>311.0</ele><time>2026-04-03T14:47:01Z</time></trkpt><trkpt lat="44.64922796241407" lon="8.95915404414425"><ele>311.0</ele><time>2026-04-03T14:47:02Z</time></trkpt><trkpt lat="44.64948642611497" lon="8.959099440272166"><ele>312.5</ele><time>2026-04-03T14:47:03Z</time></trkpt><trkpt lat="44.64974309387668" lon="8.95902454905037"><ele>314.0</ele><time>2026-04-03T14:47:04Z</time></trkpt><trkpt lat="44.64999071461203" lon="8.958907029519029"><ele>314.0</ele><time>2026-04-03T14:47:05Z</time></trkpt><trkpt lat="44.65022313428728" lon="8.958748167630029"><ele>314.0</ele><time>2026-04-03T14:47:06Z</time></trkpt><trkpt lat="44.65044246919954" lon="8.958547683667698"><ele>309.5</ele><time>2026-04-03T14:47:07Z</time></trkpt><trkpt lat="44.65064575155564" lon="8.95832459356553"><ele>305.0</ele><time>2026-04-03T14:47:08Z</time></trkpt><trkpt lat="44.650823254542864" lon="8.958061624456539"><ele>305.0</ele><time>2026-04-03T14:47:09Z</time></trkpt><trkpt lat="44.65098075710303" lon="8.957774559459091"><ele>305.0</ele><time>2026-04-03T14:47:10Z</time></trkpt><trkpt lat="44.65111812276023" lon="8.957462480407322"><ele>311.5</ele><time>2026-04-03T14:47:11Z</time></trkpt><trkpt lat="44.651250752051354" lon="8.957145144473381"><ele>318.0</ele><time>2026-04-03T14:47:12Z</time></trkpt><trkpt lat="44.65139101026626" lon="8.956833678338036"><ele>315.5</ele><time>2026-04-03T14:47:13Z</time></trkpt><trkpt lat="44.65154122424233" lon="8.95653466097225"><ele>313.0</ele><time>2026-04-03T14:47:14Z</time></trkpt><trkpt lat="44.651720298385236" lon="8.956264293872245"><ele>313.0</ele><time>2026-04-03T14:47:15Z</time></trkpt><trkpt lat="44.65191934406468" lon="8.95602840698188"><ele>313.0</ele><time>2026-04-03T14:47:16Z</time></trkpt><trkpt lat="44.65213588840352" lon="8.955810335267778"><ele>329.5</ele><time>2026-04-03T14:47:17Z</time></trkpt><trkpt lat="44.652363978898975" lon="8.955597085874597"><ele>346.0</ele><time>2026-04-03T14:47:18Z</time></trkpt><trkpt lat="44.65259572325462" lon="8.95537205779365"><ele>367.0</ele><time>2026-04-03T14:47:19Z</time></trkpt><trkpt lat="44.652828847801445" lon="8.95512829360397"><ele>388.0</ele><time>2026-04-03T14:47:20Z</time></trkpt><trkpt lat="44.65305563055619" lon="8.954891220160452"><ele>388.0</ele><time>2026-04-03T14:47:20.999Z</time></trkpt><trkpt lat="44.65328518929143" lon="8.954657398355515"><ele>388.0</ele><time>2026-04-03T14:47:21.999Z</time></trkpt><trkpt lat="44.65353100128868" lon="8.954397481343975"><ele>402.5</ele><time>2026-04-03T14:47:23.075Z</time></trkpt><trkpt lat="44.65376989421275" lon="8.954177437851873"><ele>417.0</ele><time>2026-04-03T14:47:24.066Z</time></trkpt><trkpt lat="44.65400814848379" lon="8.953954128154662"><ele>383.0</ele><time>2026-04-03T14:47:25.063Z</time></trkpt><trkpt lat="44.65573412662413" lon="8.952451812698817"><ele>291.0</ele><time>2026-04-03T14:47:29.013Z</time></trkpt><trkpt lat="44.65874549148674" lon="8.950157518343163"><ele>291.0</ele><time>2026-04-03T14:47:44.999Z</time></trkpt><trkpt lat="44.659047658628985" lon="8.950133862098605"><ele>291.0</ele><time>2026-04-03T14:47:45.999Z</time></trkpt><trkpt lat="44.65926792818937" lon="8.950158608230394"><ele>292.5</ele><time>2026-04-03T14:47:46.999Z</time></trkpt><trkpt lat="44.65953509585903" lon="8.950246331955965"><ele>294.0</ele><time>2026-04-03T14:47:47.999Z</time></trkpt><trkpt lat="44.659793717102254" lon="8.950370173325469"><ele>294.0</ele><time>2026-04-03T14:47:48.999Z</time></trkpt><trkpt lat="44.66004226671104" lon="8.950530689961845"><ele>294.0</ele><time>2026-04-03T14:47:49.999Z</time></trkpt><trkpt lat="44.660275546682826" lon="8.95071855681865"><ele>296.0</ele><time>2026-04-03T14:47:50.999Z</time></trkpt><trkpt lat="44.660509778853424" lon="8.950904003245917"><ele>298.0</ele><time>2026-04-03T14:47:51.999Z</time></trkpt><trkpt lat="44.6607577694769" lon="8.951042766764074"><ele>298.0</ele><time>2026-04-03T14:47:52.999Z</time></trkpt><trkpt lat="44.661023595642035" lon="8.951136212765283"><ele>298.0</ele><time>2026-04-03T14:47:53.999Z</time></trkpt><trkpt lat="44.66129374513829" lon="8.951177382848996"><ele>296.0</ele><time>2026-04-03T14:47:54.999Z</time></trkpt><trkpt lat="44.661558038479164" lon="8.951168704314625"><ele>294.0</ele><time>2026-04-03T14:47:55.999Z</time></trkpt><trkpt lat="44.661824485361564" lon="8.951128129681116"><ele>299.0</ele><time>2026-04-03T14:47:56.999Z</time></trkpt><trkpt lat="44.66208727765075" lon="8.951058307092303"><ele>304.0</ele><time>2026-04-03T14:47:57.999Z</time></trkpt><trkpt lat="44.66234200134899" lon="8.950944380800085"><ele>298.0</ele><time>2026-04-03T14:47:58.999Z</time></trkpt><trkpt lat="44.66258987853386" lon="8.950791299957448"><ele>292.0</ele><time>2026-04-03T14:48:00Z</time></trkpt><trkpt lat="44.662820702246954" lon="8.950602313128295"><ele>292.0</ele><time>2026-04-03T14:48:01Z</time></trkpt><trkpt lat="44.663035418607755" lon="8.950381199050401"><ele>292.0</ele><time>2026-04-03T14:48:02Z</time></trkpt><trkpt lat="44.66322802499565" lon="8.950122396221243"><ele>288.5</ele><time>2026-04-03T14:48:03Z</time></trkpt><trkpt lat="44.663397852453215" lon="8.949835389081215"><ele>285.0</ele><time>2026-04-03T14:48:04Z</time></trkpt><trkpt lat="44.663562113654564" lon="8.949537985144717"><ele>292.5</ele><time>2026-04-03T14:48:05Z</time></trkpt><trkpt lat="44.66372529956082" lon="8.949238781513365"><ele>300.0</ele><time>2026-04-03T14:48:06Z</time></trkpt><trkpt lat="44.66389469985219" lon="8.94893831311019"><ele>300.0</ele><time>2026-04-03T14:48:07Z</time></trkpt><trkpt lat="44.664070685957945" lon="8.948638254542233"><ele>300.0</ele><time>2026-04-03T14:48:08Z</time></trkpt><trkpt lat="44.66423605090049" lon="8.948338131797339"><ele>293.5</ele><time>2026-04-03T14:48:09Z</time></trkpt><trkpt lat="44.66437223126337" lon="8.948009923635551"><ele>287.0</ele><time>2026-04-03T14:48:10Z</time></trkpt><trkpt lat="44.66447651018852" lon="8.947657059973395"><ele>301.5</ele><time>2026-04-03T14:48:11Z</time></trkpt><trkpt lat="44.66454594686522" lon="8.947279991551298"><ele>316.0</ele><time>2026-04-03T14:48:12Z</time></trkpt><trkpt lat="44.66455023709102" lon="8.946888489971675"><ele>319.0</ele><time>2026-04-03T14:48:13Z</time></trkpt><trkpt lat="44.664551828473094" lon="8.946501840820906"><ele>322.0</ele><time>2026-04-03T14:48:14Z</time></trkpt><trkpt lat="44.664522555725185" lon="8.946117025721295"><ele>321.5</ele><time>2026-04-03T14:48:15Z</time></trkpt><trkpt lat="44.66447406122953" lon="8.945737686206636"><ele>321.0</ele><time>2026-04-03T14:48:16Z</time></trkpt><trkpt lat="44.66440765040731" lon="8.94535890819929"><ele>300.5</ele><time>2026-04-03T14:48:17Z</time></trkpt><trkpt lat="44.66434357650056" lon="8.944982240722227"><ele>280.0</ele><time>2026-04-03T14:48:18Z</time></trkpt><trkpt lat="44.66429095874183" lon="8.944602524139409"><ele>280.0</ele><time>2026-04-03T14:48:19Z</time></trkpt><trkpt lat="44.664257363924385" lon="8.944221143225993"><ele>280.0</ele><time>2026-04-03T14:48:20Z</time></trkpt><trkpt lat="44.66425230168011" lon="8.943834486695694"><ele>283.0</ele><time>2026-04-03T14:48:21Z</time></trkpt><trkpt lat="44.66426974657669" lon="8.94345466416277"><ele>286.0</ele><time>2026-04-03T14:48:22Z</time></trkpt><trkpt lat="44.664313387261494" lon="8.943078953497984"><ele>287.0</ele><time>2026-04-03T14:48:23Z</time></trkpt><trkpt lat="44.6643863941939" lon="8.94271371811086"><ele>288.0</ele><time>2026-04-03T14:48:24Z</time></trkpt><trkpt lat="44.66448112568217" lon="8.942360986841527"><ele>289.5</ele><time>2026-04-03T14:48:25Z</time></trkpt><trkpt lat="44.66458237775587" lon="8.942007152613236"><ele>291.0</ele><time>2026-04-03T14:48:26Z</time></trkpt><trkpt lat="44.66467918044041" lon="8.941656814858062"><ele>291.0</ele><time>2026-04-03T14:48:27Z</time></trkpt><trkpt lat="44.664775247415804" lon="8.941296820472983"><ele>291.0</ele><time>2026-04-03T14:48:28Z</time></trkpt><trkpt lat="44.66486936780834" lon="8.940941784545155"><ele>289.0</ele><time>2026-04-03T14:48:29Z</time></trkpt><trkpt lat="44.66496330004924" lon="8.940587175669743"><ele>287.0</ele><time>2026-04-03T14:48:30Z</time></trkpt><trkpt lat="44.66505547272344" lon="8.940230091981737"><ele>286.0</ele><time>2026-04-03T14:48:31Z</time></trkpt><trkpt lat="44.665145440981426" lon="8.939871563014231"><ele>285.0</ele><time>2026-04-03T14:48:32Z</time></trkpt><trkpt lat="44.665233530080165" lon="8.93950965991768"><ele>287.5</ele><time>2026-04-03T14:48:33Z</time></trkpt><trkpt lat="44.66531913692098" lon="8.939157682350272"><ele>290.0</ele><time>2026-04-03T14:48:34Z</time></trkpt><trkpt lat="44.66540292772855" lon="8.938799350355165"><ele>290.0</ele><time>2026-04-03T14:48:35Z</time></trkpt><trkpt lat="44.66547697294367" lon="8.93843873344715"><ele>290.0</ele><time>2026-04-03T14:48:36Z</time></trkpt><trkpt lat="44.66553873880588" lon="8.938074757072815"><ele>288.5</ele><time>2026-04-03T14:48:37Z</time></trkpt><trkpt lat="44.66559076276515" lon="8.937706889066664"><ele>287.0</ele><time>2026-04-03T14:48:38Z</time></trkpt><trkpt lat="44.66563011089099" lon="8.93733814417255"><ele>285.0</ele><time>2026-04-03T14:48:39Z</time></trkpt><trkpt lat="44.665664245351245" lon="8.936967159781798"><ele>283.0</ele><time>2026-04-03T14:48:40Z</time></trkpt><trkpt lat="44.66569236370351" lon="8.936598295067922"><ele>283.0</ele><time>2026-04-03T14:48:41Z</time></trkpt><trkpt lat="44.665717328828975" lon="8.936227530692099"><ele>283.0</ele><time>2026-04-03T14:48:42Z</time></trkpt><trkpt lat="44.665741531600666" lon="8.935857114573755"><ele>285.0</ele><time>2026-04-03T14:48:43Z</time></trkpt><trkpt lat="44.66576743196119" lon="8.93548654208793"><ele>287.0</ele><time>2026-04-03T14:48:44Z</time></trkpt><trkpt lat="44.66579418282797" lon="8.93511729787016"><ele>287.5</ele><time>2026-04-03T14:48:45Z</time></trkpt><trkpt lat="44.66582262125475" lon="8.934747969394028"><ele>288.0</ele><time>2026-04-03T14:48:46Z</time></trkpt><trkpt lat="44.6658492309201" lon="8.9343858034723"><ele>288.5</ele><time>2026-04-03T14:48:47Z</time></trkpt><trkpt lat="44.66587851607656" lon="8.934017669616443"><ele>289.0</ele><time>2026-04-03T14:48:48Z</time></trkpt><trkpt lat="44.665902588601476" lon="8.933657031454208"><ele>289.5</ele><time>2026-04-03T14:48:49Z</time></trkpt><trkpt lat="44.66592088907115" lon="8.933296243417471"><ele>290.0</ele><time>2026-04-03T14:48:50Z</time></trkpt><trkpt lat="44.66593445092538" lon="8.932940111449325"><ele>290.0</ele><time>2026-04-03T14:48:51Z</time></trkpt><trkpt lat="44.66593783460454" lon="8.932582756149566"><ele>290.0</ele><time>2026-04-03T14:48:52Z</time></trkpt><trkpt lat="44.66592832534484" lon="8.93222819911879"><ele>289.5</ele><time>2026-04-03T14:48:53Z</time></trkpt><trkpt lat="44.665897410942904" lon="8.93187553229062"><ele>289.0</ele><time>2026-04-03T14:48:54Z</time></trkpt><trkpt lat="44.66585121060777" lon="8.931527898253881"><ele>288.5</ele><time>2026-04-03T14:48:55Z</time></trkpt><trkpt lat="44.665792928478986" lon="8.931179444226746"><ele>288.0</ele><time>2026-04-03T14:48:56Z</time></trkpt><trkpt lat="44.665721278469874" lon="8.930836555878688"><ele>287.5</ele><time>2026-04-03T14:48:57Z</time></trkpt><trkpt lat="44.66563094999251" lon="8.930500205648324"><ele>287.0</ele><time>2026-04-03T14:48:58Z</time></trkpt><trkpt lat="44.66553683834759" lon="8.930168070933984"><ele>286.0</ele><time>2026-04-03T14:48:59Z</time></trkpt><trkpt lat="44.665440911364506" lon="8.929833760765868"><ele>285.0</ele><time>2026-04-03T14:49:00Z</time></trkpt><trkpt lat="44.665351845998615" lon="8.929500749858034"><ele>281.0</ele><time>2026-04-03T14:49:01Z</time></trkpt><trkpt lat="44.665268882372025" lon="8.929168088639887"><ele>277.0</ele><time>2026-04-03T14:49:02Z</time></trkpt><trkpt lat="44.66519969831033" lon="8.928836477735803"><ele>277.0</ele><time>2026-04-03T14:49:03Z</time></trkpt><trkpt lat="44.66514854931074" lon="8.928498042333585"><ele>277.0</ele><time>2026-04-03T14:49:04Z</time></trkpt><trkpt lat="44.66512987897857" lon="8.928155602381707"><ele>286.3333333333333</ele><time>2026-04-03T14:49:05Z</time></trkpt><trkpt lat="44.66511843690548" lon="8.92783455310802"><ele>295.6666666666667</ele><time>2026-04-03T14:49:06Z</time></trkpt><trkpt lat="44.66510839171142" lon="8.927527695685583"><ele>305.0</ele><time>2026-04-03T14:49:07Z</time></trkpt><trkpt lat="44.66508952382814" lon="8.92722206437909"><ele>316.33333333333337</ele><time>2026-04-03T14:49:08Z</time></trkpt><trkpt lat="44.66506941965655" lon="8.926914631493307"><ele>327.6666666666667</ele><time>2026-04-03T14:49:09Z</time></trkpt><trkpt lat="44.66504807967304" lon="8.926601091373776"><ele>339.0</ele><time>2026-04-03T14:49:10Z</time></trkpt><trkpt lat="44.66502901014709" lon="8.926301300163985"><ele>363.5</ele><time>2026-04-03T14:49:11Z</time></trkpt><trkpt lat="44.66500998237043" lon="8.925997691903794"><ele>388.0</ele><time>2026-04-03T14:49:12Z</time></trkpt><trkpt lat="44.66497727104324" lon="8.925300811497024"><ele>431.0</ele><time>2026-04-03T14:49:13Z</time></trkpt><trkpt lat="44.66495772301078" lon="8.92495313716122"><ele>474.0</ele><time>2026-04-03T14:49:14Z</time></trkpt><trkpt lat="44.664940305398495" lon="8.924611678760291"><ele>474.0</ele><time>2026-04-03T14:49:15Z</time></trkpt><trkpt lat="44.664920714453395" lon="8.924266187468096"><ele>474.0</ele><time>2026-04-03T14:49:16Z</time></trkpt><trkpt lat="44.664902048002695" lon="8.92392108384423"><ele>498.0</ele><time>2026-04-03T14:49:17Z</time></trkpt><trkpt lat="44.66488301618526" lon="8.923577558128759"><ele>522.0</ele><time>2026-04-03T14:49:18Z</time></trkpt><trkpt lat="44.66486484263338" lon="8.923234175754525"><ele>524.5</ele><time>2026-04-03T14:49:19Z</time></trkpt><trkpt lat="44.664845783386646" lon="8.92289549819039"><ele>527.0</ele><time>2026-04-03T14:49:20Z</time></trkpt><trkpt lat="44.66482679841812" lon="8.92255955966416"><ele>527.0</ele><time>2026-04-03T14:49:20.999Z</time></trkpt><trkpt lat="44.66480794695102" lon="8.922224178349978"><ele>527.0</ele><time>2026-04-03T14:49:21.999Z</time></trkpt><trkpt lat="44.6647904587263" lon="8.921890316375949"><ele>512.5</ele><time>2026-04-03T14:49:22.999Z</time></trkpt><trkpt lat="44.66477382602839" lon="8.921555154749575"><ele>498.0</ele><time>2026-04-03T14:49:23.999Z</time></trkpt><trkpt lat="44.66475561036492" lon="8.92122089237961"><ele>483.0</ele><time>2026-04-03T14:49:24.999Z</time></trkpt><trkpt lat="44.66473458954789" lon="8.920886480187542"><ele>468.0</ele><time>2026-04-03T14:49:25.999Z</time></trkpt><trkpt lat="44.664715685218354" lon="8.92055235182903"><ele>468.0</ele><time>2026-04-03T14:49:26.999Z</time></trkpt><trkpt lat="44.66469460400347" lon="8.92021864815986"><ele>468.0</ele><time>2026-04-03T14:49:27.999Z</time></trkpt><trkpt lat="44.66467610322481" lon="8.91988431539231"><ele>455.0</ele><time>2026-04-03T14:49:28.999Z</time></trkpt><trkpt lat="44.66466099291918" lon="8.919552149867089"><ele>442.0</ele><time>2026-04-03T14:49:29.999Z</time></trkpt><trkpt lat="44.66464317222403" lon="8.919217402753949"><ele>432.5</ele><time>2026-04-03T14:49:30.999Z</time></trkpt><trkpt lat="44.664625972454004" lon="8.91888304392678"><ele>423.0</ele><time>2026-04-03T14:49:31.999Z</time></trkpt><trkpt lat="44.66461087729893" lon="8.918550016438147"><ele>413.0</ele><time>2026-04-03T14:49:32.999Z</time></trkpt><trkpt lat="44.66459584607005" lon="8.918217322288857"><ele>403.0</ele><time>2026-04-03T14:49:33.999Z</time></trkpt><trkpt lat="44.66458041658704" lon="8.9178866845905"><ele>391.0</ele><time>2026-04-03T14:49:34.999Z</time></trkpt><trkpt lat="44.664561251220356" lon="8.91755957778356"><ele>379.0</ele><time>2026-04-03T14:49:35.999Z</time></trkpt><trkpt lat="44.664544102058755" lon="8.91722735400677"><ele>379.0</ele><time>2026-04-03T14:49:36.999Z</time></trkpt><trkpt lat="44.66452608507417" lon="8.916896318907941"><ele>379.0</ele><time>2026-04-03T14:49:37.999Z</time></trkpt><trkpt lat="44.664506505308076" lon="8.916559754542085"><ele>282.0</ele><time>2026-04-03T14:49:39.021Z</time></trkpt><trkpt lat="44.66442346206609" lon="8.912864593261565"><ele>282.0</ele><time>2026-04-03T14:49:46.999Z</time></trkpt><trkpt lat="44.664438342474035" lon="8.912492340727509"><ele>282.0</ele><time>2026-04-03T14:49:47.999Z</time></trkpt><trkpt lat="44.66444924504658" lon="8.912180198202128"><ele>282.0</ele><time>2026-04-03T14:49:48.999Z</time></trkpt><trkpt lat="44.66452824624351" lon="8.911838526714464"><ele>282.0</ele><time>2026-04-03T14:49:49.999Z</time></trkpt><trkpt lat="44.66465093839412" lon="8.911504835951533"><ele>275.5</ele><time>2026-04-03T14:49:50.999Z</time></trkpt><trkpt lat="44.66479541398445" lon="8.91118886372048"><ele>269.0</ele><time>2026-04-03T14:49:51.999Z</time></trkpt><trkpt lat="44.66497292663384" lon="8.91089992565764"><ele>267.0</ele><time>2026-04-03T14:49:52.999Z</time></trkpt><trkpt lat="44.66517457732175" lon="8.910642690499454"><ele>265.0</ele><time>2026-04-03T14:49:53.999Z</time></trkpt><trkpt lat="44.665391119132316" lon="8.91042548226006"><ele>265.0</ele><time>2026-04-03T14:49:54.999Z</time></trkpt><trkpt lat="44.665619111513976" lon="8.910215923478908"><ele>265.0</ele><time>2026-04-03T14:49:55.999Z</time></trkpt><trkpt lat="44.66584120724288" lon="8.910010105807745"><ele>265.0</ele><time>2026-04-03T14:49:56.999Z</time></trkpt><trkpt lat="44.66605938120645" lon="8.909798346278308"><ele>265.0</ele><time>2026-04-03T14:49:57.999Z</time></trkpt><trkpt lat="44.66627087751371" lon="8.909575827616274"><ele>265.0</ele><time>2026-04-03T14:49:58.999Z</time></trkpt><trkpt lat="44.66647952913818" lon="8.909350770182868"><ele>265.0</ele><time>2026-04-03T14:49:59.999Z</time></trkpt><trkpt lat="44.66669046814076" lon="8.909136250176214"><ele>264.0</ele><time>2026-04-03T14:50:00.999Z</time></trkpt><trkpt lat="44.666905754911134" lon="8.908928054656966"><ele>263.0</ele><time>2026-04-03T14:50:01.999Z</time></trkpt><trkpt lat="44.66712000561139" lon="8.908720436102074"><ele>264.0</ele><time>2026-04-03T14:50:02.999Z</time></trkpt><trkpt lat="44.66733502063039" lon="8.908515569973229"><ele>265.0</ele><time>2026-04-03T14:50:03.999Z</time></trkpt><trkpt lat="44.66754943342455" lon="8.908310085359691"><ele>265.0</ele><time>2026-04-03T14:50:05Z</time></trkpt><trkpt lat="44.66776107179974" lon="8.908101424344457"><ele>265.0</ele><time>2026-04-03T14:50:06Z</time></trkpt><trkpt lat="44.66797543566907" lon="8.907895433355481"><ele>265.5</ele><time>2026-04-03T14:50:07Z</time></trkpt><trkpt lat="44.66819236030161" lon="8.907693649668534"><ele>266.0</ele><time>2026-04-03T14:50:08Z</time></trkpt><trkpt lat="44.668419733557236" lon="8.907506406147986"><ele>266.0</ele><time>2026-04-03T14:50:09Z</time></trkpt><trkpt lat="44.66866182281467" lon="8.907348750473401"><ele>266.0</ele><time>2026-04-03T14:50:10Z</time></trkpt><trkpt lat="44.66890818166593" lon="8.907215837377581"><ele>266.0</ele><time>2026-04-03T14:50:11Z</time></trkpt><trkpt lat="44.66915948705061" lon="8.90709870501562"><ele>266.0</ele><time>2026-04-03T14:50:12Z</time></trkpt><trkpt lat="44.66940863117835" lon="8.906981531360783"><ele>265.0</ele><time>2026-04-03T14:50:13Z</time></trkpt><trkpt lat="44.669651702791576" lon="8.90685477821641"><ele>264.0</ele><time>2026-04-03T14:50:14Z</time></trkpt><trkpt lat="44.66989662518841" lon="8.906718302719089"><ele>264.0</ele><time>2026-04-03T14:50:15Z</time></trkpt><trkpt lat="44.670136937562056" lon="8.90658341794621"><ele>264.0</ele><time>2026-04-03T14:50:16Z</time></trkpt><trkpt lat="44.670381127286376" lon="8.906449951726838"><ele>265.0</ele><time>2026-04-03T14:50:17Z</time></trkpt><trkpt lat="44.67062503701771" lon="8.90631902805033"><ele>266.0</ele><time>2026-04-03T14:50:18Z</time></trkpt><trkpt lat="44.67086833157779" lon="8.90619132432345"><ele>267.0</ele><time>2026-04-03T14:50:19Z</time></trkpt><trkpt lat="44.671117922808065" lon="8.9060744122859"><ele>268.0</ele><time>2026-04-03T14:50:20Z</time></trkpt><trkpt lat="44.67137053158947" lon="8.90597684298101"><ele>265.5</ele><time>2026-04-03T14:50:21Z</time></trkpt><trkpt lat="44.671626885772184" lon="8.90589230673915"><ele>263.0</ele><time>2026-04-03T14:50:22Z</time></trkpt><trkpt lat="44.671881973485675" lon="8.905811531172459"><ele>263.0</ele><time>2026-04-03T14:50:23Z</time></trkpt><trkpt lat="44.67213752619916" lon="8.905737920903563"><ele>263.0</ele><time>2026-04-03T14:50:24Z</time></trkpt><trkpt lat="44.67239523363449" lon="8.905666585753899"><ele>263.0</ele><time>2026-04-03T14:50:25Z</time></trkpt><trkpt lat="44.672654726144586" lon="8.905598578649638"><ele>263.0</ele><time>2026-04-03T14:50:26Z</time></trkpt><trkpt lat="44.67291601852098" lon="8.905525691548487"><ele>263.0</ele><time>2026-04-03T14:50:27Z</time></trkpt><trkpt lat="44.673178043187704" lon="8.905449074896014"><ele>263.0</ele><time>2026-04-03T14:50:28Z</time></trkpt><trkpt lat="44.67344082058146" lon="8.905372229789933"><ele>263.5</ele><time>2026-04-03T14:50:29Z</time></trkpt><trkpt lat="44.67370195425159" lon="8.905295955297813"><ele>264.0</ele><time>2026-04-03T14:50:30Z</time></trkpt><trkpt lat="44.67396317989817" lon="8.905221186078249"><ele>264.0</ele><time>2026-04-03T14:50:31Z</time></trkpt><trkpt lat="44.674227367622244" lon="8.90516512044431"><ele>264.0</ele><time>2026-04-03T14:50:32Z</time></trkpt><trkpt lat="44.67449481844884" lon="8.905143573111568"><ele>264.0</ele><time>2026-04-03T14:50:33Z</time></trkpt><trkpt lat="44.67476703794389" lon="8.905160820569604"><ele>264.0</ele><time>2026-04-03T14:50:34Z</time></trkpt><trkpt lat="44.675036108737984" lon="8.90520521973313"><ele>267.0</ele><time>2026-04-03T14:50:35Z</time></trkpt><trkpt lat="44.67530604893892" lon="8.905257122830308"><ele>270.0</ele><time>2026-04-03T14:50:36Z</time></trkpt><trkpt lat="44.67557617717394" lon="8.905298233317657"><ele>270.0</ele><time>2026-04-03T14:50:37Z</time></trkpt><trkpt lat="44.67584884208919" lon="8.905318079996272"><ele>270.0</ele><time>2026-04-03T14:50:38Z</time></trkpt><trkpt lat="44.67612305646276" lon="8.905309282930775"><ele>268.5</ele><time>2026-04-03T14:50:39Z</time></trkpt><trkpt lat="44.67639637707102" lon="8.905273686979239"><ele>267.0</ele><time>2026-04-03T14:50:40Z</time></trkpt><trkpt lat="44.67666913313323" lon="8.905210057340076"><ele>268.5</ele><time>2026-04-03T14:50:41Z</time></trkpt><trkpt lat="44.676941799340874" lon="8.905125224010371"><ele>270.0</ele><time>2026-04-03T14:50:42Z</time></trkpt><trkpt lat="44.6772119041917" lon="8.905030930510183"><ele>263.0</ele><time>2026-04-03T14:50:43Z</time></trkpt><trkpt lat="44.67748010649059" lon="8.904935382189283"><ele>256.0</ele><time>2026-04-03T14:50:44Z</time></trkpt><trkpt lat="44.677751211076774" lon="8.904841753336168"><ele>259.0</ele><time>2026-04-03T14:50:45Z</time></trkpt><trkpt lat="44.67802246524938" lon="8.904750118295539"><ele>262.0</ele><time>2026-04-03T14:50:46Z</time></trkpt><trkpt lat="44.678292957535064" lon="8.904657967442427"><ele>262.0</ele><time>2026-04-03T14:50:47Z</time></trkpt><trkpt lat="44.67856158457473" lon="8.904561618228398"><ele>262.0</ele><time>2026-04-03T14:50:48Z</time></trkpt><trkpt lat="44.67883063688184" lon="8.90446768263036"><ele>266.5</ele><time>2026-04-03T14:50:49Z</time></trkpt><trkpt lat="44.679097059598746" lon="8.904373217807855"><ele>271.0</ele><time>2026-04-03T14:50:50Z</time></trkpt><trkpt lat="44.679365891507366" lon="8.904279476676464"><ele>265.5</ele><time>2026-04-03T14:50:51Z</time></trkpt><trkpt lat="44.679632785928135" lon="8.904190230962426"><ele>260.0</ele><time>2026-04-03T14:50:52Z</time></trkpt><trkpt lat="44.67990178592072" lon="8.90410243501563"><ele>260.0</ele><time>2026-04-03T14:50:53Z</time></trkpt><trkpt lat="44.68017362792908" lon="8.904027683594572"><ele>260.0</ele><time>2026-04-03T14:50:54Z</time></trkpt><trkpt lat="44.680444016339244" lon="8.903980658944363"><ele>259.0</ele><time>2026-04-03T14:50:55Z</time></trkpt><trkpt lat="44.68071509782459" lon="8.903974070884287"><ele>258.0</ele><time>2026-04-03T14:50:56Z</time></trkpt><trkpt lat="44.680986606406805" lon="8.904015604288587"><ele>252.0</ele><time>2026-04-03T14:50:57Z</time></trkpt><trkpt lat="44.6812547519188" lon="8.904092261208534"><ele>246.0</ele><time>2026-04-03T14:50:58Z</time></trkpt><trkpt lat="44.68151280750903" lon="8.90420861387426"><ele>251.5</ele><time>2026-04-03T14:50:59Z</time></trkpt><trkpt lat="44.68177302811091" lon="8.904324056811785"><ele>257.0</ele><time>2026-04-03T14:51:00Z</time></trkpt><trkpt lat="44.68203510306715" lon="8.90441708527887"><ele>261.5</ele><time>2026-04-03T14:51:01Z</time></trkpt><trkpt lat="44.68230237322134" lon="8.904465168213191"><ele>266.0</ele><time>2026-04-03T14:51:02Z</time></trkpt><trkpt lat="44.68257462313593" lon="8.904462328586735"><ele>270.5</ele><time>2026-04-03T14:51:03Z</time></trkpt><trkpt lat="44.68284649711252" lon="8.904422985000217"><ele>275.0</ele><time>2026-04-03T14:51:04Z</time></trkpt><trkpt lat="44.68311354641184" lon="8.904336238788494"><ele>269.0</ele><time>2026-04-03T14:51:05Z</time></trkpt><trkpt lat="44.68337642366669" lon="8.904217437056943"><ele>263.0</ele><time>2026-04-03T14:51:06Z</time></trkpt><trkpt lat="44.68362626409844" lon="8.904057119612288"><ele>263.0</ele><time>2026-04-03T14:51:07Z</time></trkpt><trkpt lat="44.68387261007824" lon="8.903869234393234"><ele>263.0</ele><time>2026-04-03T14:51:08Z</time></trkpt><trkpt lat="44.68410862123465" lon="8.903676169417897"><ele>263.0</ele><time>2026-04-03T14:51:09Z</time></trkpt><trkpt lat="44.684350260359054" lon="8.903484654606135"><ele>263.0</ele><time>2026-04-03T14:51:10Z</time></trkpt><trkpt lat="44.68459150773665" lon="8.903298157970434"><ele>259.5</ele><time>2026-04-03T14:51:11Z</time></trkpt><trkpt lat="44.684841428784104" lon="8.90312073709592"><ele>256.0</ele><time>2026-04-03T14:51:12Z</time></trkpt><trkpt lat="44.685093160378116" lon="8.902949852564783"><ele>262.5</ele><time>2026-04-03T14:51:13Z</time></trkpt><trkpt lat="44.68534273450499" lon="8.902777756482255"><ele>269.0</ele><time>2026-04-03T14:51:14Z</time></trkpt><trkpt lat="44.685590264819794" lon="8.902592203058145"><ele>258.0</ele><time>2026-04-03T14:51:15Z</time></trkpt><trkpt lat="44.68583820296396" lon="8.90239896651136"><ele>247.0</ele><time>2026-04-03T14:51:16Z</time></trkpt><trkpt lat="44.686078941075266" lon="8.902206514206949"><ele>254.0</ele><time>2026-04-03T14:51:17Z</time></trkpt><trkpt lat="44.686320993735514" lon="8.902014185818675"><ele>261.0</ele><time>2026-04-03T14:51:17.999Z</time></trkpt><trkpt lat="44.686569245390906" lon="8.901833620503385"><ele>255.0</ele><time>2026-04-03T14:51:18.999Z</time></trkpt><trkpt lat="44.68682417694642" lon="8.901685986729749"><ele>249.0</ele><time>2026-04-03T14:51:19.999Z</time></trkpt><trkpt lat="44.68709156947431" lon="8.901576420819156"><ele>249.0</ele><time>2026-04-03T14:51:20.999Z</time></trkpt><trkpt lat="44.68735985481256" lon="8.901494541105354"><ele>249.0</ele><time>2026-04-03T14:51:21.999Z</time></trkpt><trkpt lat="44.68763492139062" lon="8.901419178353166"><ele>247.0</ele><time>2026-04-03T14:51:22.999Z</time></trkpt><trkpt lat="44.68790243723191" lon="8.901340888257371"><ele>245.0</ele><time>2026-04-03T14:51:23.999Z</time></trkpt><trkpt lat="44.68817310094674" lon="8.90125463645342"><ele>245.0</ele><time>2026-04-03T14:51:24.999Z</time></trkpt><trkpt lat="44.688443140771874" lon="8.901163666655371"><ele>245.0</ele><time>2026-04-03T14:51:25.999Z</time></trkpt><trkpt lat="44.68871294388349" lon="8.90107372419219"><ele>243.5</ele><time>2026-04-03T14:51:26.999Z</time></trkpt><trkpt lat="44.68898547960465" lon="8.900985221438342"><ele>242.0</ele><time>2026-04-03T14:51:27.999Z</time></trkpt><trkpt lat="44.68925575500974" lon="8.900901471377068"><ele>238.5</ele><time>2026-04-03T14:51:28.999Z</time></trkpt><trkpt lat="44.68952523066394" lon="8.90081786537388"><ele>235.0</ele><time>2026-04-03T14:51:29.999Z</time></trkpt><trkpt lat="44.68979523509568" lon="8.900725094473538"><ele>235.0</ele><time>2026-04-03T14:51:30.999Z</time></trkpt><trkpt lat="44.6900607503382" lon="8.900607556991543"><ele>235.0</ele><time>2026-04-03T14:51:31.999Z</time></trkpt><trkpt lat="44.690319731129165" lon="8.90046469036887"><ele>236.0</ele><time>2026-04-03T14:51:32.999Z</time></trkpt><trkpt lat="44.690573568983254" lon="8.900296525180563"><ele>237.0</ele><time>2026-04-03T14:51:33.999Z</time></trkpt><trkpt lat="44.69081999638331" lon="8.900111373014239"><ele>232.0</ele><time>2026-04-03T14:51:34.999Z</time></trkpt><trkpt lat="44.69105820044887" lon="8.899909808221254"><ele>227.0</ele><time>2026-04-03T14:51:35.999Z</time></trkpt><trkpt lat="44.69129546317102" lon="8.89969969221998"><ele>226.0</ele><time>2026-04-03T14:51:36.999Z</time></trkpt><trkpt lat="44.69153259499763" lon="8.899486852474674"><ele>225.0</ele><time>2026-04-03T14:51:37.999Z</time></trkpt><trkpt lat="44.691766404859486" lon="8.899279498532842"><ele>223.0</ele><time>2026-04-03T14:51:38.999Z</time></trkpt><trkpt lat="44.69200268679727" lon="8.899071798496141"><ele>221.0</ele><time>2026-04-03T14:51:39.999Z</time></trkpt><trkpt lat="44.69223640288264" lon="8.898869323185608"><ele>221.0</ele><time>2026-04-03T14:51:40.999Z</time></trkpt><trkpt lat="44.692472659211624" lon="8.898670181108995"><ele>221.0</ele><time>2026-04-03T14:51:41.999Z</time></trkpt><trkpt lat="44.69270489294157" lon="8.898472062000147"><ele>222.5</ele><time>2026-04-03T14:51:42.999Z</time></trkpt><trkpt lat="44.692935807952324" lon="8.898270534225183"><ele>224.0</ele><time>2026-04-03T14:51:43.999Z</time></trkpt><trkpt lat="44.69316547789692" lon="8.898068069474407"><ele>224.0</ele><time>2026-04-03T14:51:44.999Z</time></trkpt><trkpt lat="44.69339670641899" lon="8.897869267685614"><ele>224.0</ele><time>2026-04-03T14:51:45.999Z</time></trkpt><trkpt lat="44.693626061224364" lon="8.897673832492693"><ele>231.5</ele><time>2026-04-03T14:51:46.999Z</time></trkpt><trkpt lat="44.693855573304525" lon="8.897475691986656"><ele>239.0</ele><time>2026-04-03T14:51:47.999Z</time></trkpt><trkpt lat="44.69408304820955" lon="8.897276238889003"><ele>239.0</ele><time>2026-04-03T14:51:48.999Z</time></trkpt><trkpt lat="44.69430745955603" lon="8.897078039860512"><ele>239.0</ele><time>2026-04-03T14:51:49.999Z</time></trkpt><trkpt lat="44.6945307704586" lon="8.896880317800411"><ele>236.0</ele><time>2026-04-03T14:51:50.999Z</time></trkpt><trkpt lat="44.69475349469817" lon="8.896686905041076"><ele>233.0</ele><time>2026-04-03T14:51:51.999Z</time></trkpt><trkpt lat="44.694976924447" lon="8.896494285243973"><ele>233.0</ele><time>2026-04-03T14:51:52.999Z</time></trkpt><trkpt lat="44.695199825507444" lon="8.896301296155993"><ele>233.0</ele><time>2026-04-03T14:51:53.999Z</time></trkpt><trkpt lat="44.69542158608045" lon="8.896110271197132"><ele>233.0</ele><time>2026-04-03T14:51:54.999Z</time></trkpt><trkpt lat="44.69564407408277" lon="8.895918759055418"><ele>233.0</ele><time>2026-04-03T14:51:55.999Z</time></trkpt><trkpt lat="44.69586510343093" lon="8.895724474229436"><ele>236.0</ele><time>2026-04-03T14:51:56.999Z</time></trkpt><trkpt lat="44.696088125675864" lon="8.895530508690891"><ele>239.0</ele><time>2026-04-03T14:51:57.999Z</time></trkpt><trkpt lat="44.696310446604734" lon="8.89533615002438"><ele>239.0</ele><time>2026-04-03T14:51:58.999Z</time></trkpt><trkpt lat="44.696534671162375" lon="8.89514201638866"><ele>239.0</ele><time>2026-04-03T14:51:59.999Z</time></trkpt><trkpt lat="44.69676093635018" lon="8.894953011499375"><ele>236.0</ele><time>2026-04-03T14:52:00.999Z</time></trkpt><trkpt lat="44.69699682055845" lon="8.89478032213372"><ele>233.0</ele><time>2026-04-03T14:52:01.999Z</time></trkpt><trkpt lat="44.697247305145964" lon="8.894652733368359"><ele>233.0</ele><time>2026-04-03T14:52:02.999Z</time></trkpt><trkpt lat="44.6975090529613" lon="8.89456541592563"><ele>233.0</ele><time>2026-04-03T14:52:03.999Z</time></trkpt><trkpt lat="44.69777170618084" lon="8.894497206798835"><ele>231.0</ele><time>2026-04-03T14:52:04.999Z</time></trkpt><trkpt lat="44.698033697340016" lon="8.894409127331613"><ele>229.0</ele><time>2026-04-03T14:52:05.999Z</time></trkpt><trkpt lat="44.69828815502766" lon="8.894293292822615"><ele>228.0</ele><time>2026-04-03T14:52:06.999Z</time></trkpt><trkpt lat="44.69853263826131" lon="8.894136032338455"><ele>227.0</ele><time>2026-04-03T14:52:07.999Z</time></trkpt><trkpt lat="44.69876546499566" lon="8.893944916711083"><ele>231.0</ele><time>2026-04-03T14:52:08.999Z</time></trkpt><trkpt lat="44.698978722613234" lon="8.893727531792514"><ele>235.0</ele><time>2026-04-03T14:52:09.999Z</time></trkpt><trkpt lat="44.69918734490444" lon="8.893491345466991"><ele>235.5</ele><time>2026-04-03T14:52:11Z</time></trkpt><trkpt lat="44.6993901401892" lon="8.893247510969879"><ele>236.0</ele><time>2026-04-03T14:52:12Z</time></trkpt><trkpt lat="44.69959642564757" lon="8.893010902443123"><ele>236.0</ele><time>2026-04-03T14:52:13Z</time></trkpt><trkpt lat="44.69980836405973" lon="8.892783296172357"><ele>236.0</ele><time>2026-04-03T14:52:14Z</time></trkpt><trkpt lat="44.700019580614125" lon="8.892558002483469"><ele>231.5</ele><time>2026-04-03T14:52:15Z</time></trkpt><trkpt lat="44.70022956612443" lon="8.892324868564712"><ele>227.0</ele><time>2026-04-03T14:52:16Z</time></trkpt><trkpt lat="44.70043687304994" lon="8.892092171823851"><ele>230.0</ele><time>2026-04-03T14:52:17Z</time></trkpt><trkpt lat="44.700648131541534" lon="8.891861372352375"><ele>233.0</ele><time>2026-04-03T14:52:18Z</time></trkpt><trkpt lat="44.70085776131771" lon="8.891630515502603"><ele>233.0</ele><time>2026-04-03T14:52:19Z</time></trkpt><trkpt lat="44.70106656149378" lon="8.891398310208107"><ele>233.0</ele><time>2026-04-03T14:52:20Z</time></trkpt><trkpt lat="44.701266873882545" lon="8.891152239479439"><ele>233.0</ele><time>2026-04-03T14:52:21Z</time></trkpt><trkpt lat="44.70144414843187" lon="8.890869779264337"><ele>233.0</ele><time>2026-04-03T14:52:22Z</time></trkpt><trkpt lat="44.70159046630428" lon="8.890555485699146"><ele>233.0</ele><time>2026-04-03T14:52:23Z</time></trkpt><trkpt lat="44.70172155603408" lon="8.890226690641725"><ele>233.0</ele><time>2026-04-03T14:52:24Z</time></trkpt><trkpt lat="44.7018546727694" lon="8.88989766685636"><ele>235.5</ele><time>2026-04-03T14:52:25Z</time></trkpt><trkpt lat="44.701991431861764" lon="8.889572869685153"><ele>238.0</ele><time>2026-04-03T14:52:26Z</time></trkpt><trkpt lat="44.70212858020279" lon="8.889254600269286"><ele>238.0</ele><time>2026-04-03T14:52:27Z</time></trkpt><trkpt lat="44.70226536324923" lon="8.888933442713254"><ele>238.0</ele><time>2026-04-03T14:52:28Z</time></trkpt><trkpt lat="44.70240347139238" lon="8.888610451344832"><ele>235.0</ele><time>2026-04-03T14:52:29Z</time></trkpt><trkpt lat="44.70253885174727" lon="8.888291640870719"><ele>232.0</ele><time>2026-04-03T14:52:30Z</time></trkpt><trkpt lat="44.70266920147778" lon="8.887963836927522"><ele>233.5</ele><time>2026-04-03T14:52:31Z</time></trkpt><trkpt lat="44.70277830866368" lon="8.887627316203949"><ele>235.0</ele><time>2026-04-03T14:52:32Z</time></trkpt><trkpt lat="44.70286381531453" lon="8.887275555903663"><ele>235.0</ele><time>2026-04-03T14:52:33Z</time></trkpt><trkpt lat="44.702934419890624" lon="8.886908063021771"><ele>235.0</ele><time>2026-04-03T14:52:34Z</time></trkpt><trkpt lat="44.70300507052564" lon="8.886549098209917"><ele>236.5</ele><time>2026-04-03T14:52:35Z</time></trkpt><trkpt lat="44.703080570203106" lon="8.88618499187988"><ele>238.0</ele><time>2026-04-03T14:52:36Z</time></trkpt><trkpt lat="44.70316316994605" lon="8.885823326241631"><ele>234.5</ele><time>2026-04-03T14:52:37Z</time></trkpt><trkpt lat="44.70324308260364" lon="8.885463841052378"><ele>231.0</ele><time>2026-04-03T14:52:38Z</time></trkpt><trkpt lat="44.70332205198691" lon="8.885103463016193"><ele>229.5</ele><time>2026-04-03T14:52:39Z</time></trkpt><trkpt lat="44.70341177162211" lon="8.884741843956473"><ele>228.0</ele><time>2026-04-03T14:52:40Z</time></trkpt><trkpt lat="44.70351852115889" lon="8.884391364177722"><ele>231.5</ele><time>2026-04-03T14:52:41Z</time></trkpt><trkpt lat="44.7036485057689" lon="8.884051227143763"><ele>235.0</ele><time>2026-04-03T14:52:42Z</time></trkpt><trkpt lat="44.70379182684406" lon="8.883720695486163"><ele>232.5</ele><time>2026-04-03T14:52:43Z</time></trkpt><trkpt lat="44.70394487851324" lon="8.883398956013325"><ele>230.0</ele><time>2026-04-03T14:52:44Z</time></trkpt><trkpt lat="44.70410177844628" lon="8.88307514619075"><ele>230.0</ele><time>2026-04-03T14:52:45Z</time></trkpt><trkpt lat="44.70426140078409" lon="8.882754831084206"><ele>230.0</ele><time>2026-04-03T14:52:46Z</time></trkpt><trkpt lat="44.70442177438469" lon="8.882434033997539"><ele>231.0</ele><time>2026-04-03T14:52:47Z</time></trkpt><trkpt lat="44.70459090755867" lon="8.882122292804175"><ele>232.0</ele><time>2026-04-03T14:52:48Z</time></trkpt><trkpt lat="44.70478713412256" lon="8.881844001179065"><ele>227.5</ele><time>2026-04-03T14:52:49Z</time></trkpt><trkpt lat="44.70500618178499" lon="8.88159606520127"><ele>223.0</ele><time>2026-04-03T14:52:50Z</time></trkpt><trkpt lat="44.70524009824746" lon="8.881380993180208"><ele>225.5</ele><time>2026-04-03T14:52:51Z</time></trkpt><trkpt lat="44.705484035748725" lon="8.881180931066966"><ele>228.0</ele><time>2026-04-03T14:52:52Z</time></trkpt><trkpt lat="44.70572026781201" lon="8.880965072930568"><ele>222.5</ele><time>2026-04-03T14:52:53Z</time></trkpt><trkpt lat="44.70594639968475" lon="8.8807347001922"><ele>217.0</ele><time>2026-04-03T14:52:54Z</time></trkpt><trkpt lat="44.70616436548476" lon="8.880490245739443"><ele>214.5</ele><time>2026-04-03T14:52:55Z</time></trkpt><trkpt lat="44.70637716846559" lon="8.88023501374042"><ele>212.0</ele><time>2026-04-03T14:52:56Z</time></trkpt><trkpt lat="44.706583686621435" lon="8.879971152954552"><ele>212.0</ele><time>2026-04-03T14:52:57Z</time></trkpt><trkpt lat="44.70678153045189" lon="8.879699306404055"><ele>212.0</ele><time>2026-04-03T14:52:58Z</time></trkpt><trkpt lat="44.706978306888814" lon="8.879425707330455"><ele>211.5</ele><time>2026-04-03T14:52:59Z</time></trkpt><trkpt lat="44.707171575792046" lon="8.87915473847737"><ele>211.0</ele><time>2026-04-03T14:53:00Z</time></trkpt><trkpt lat="44.707365930180025" lon="8.878886506938036"><ele>211.0</ele><time>2026-04-03T14:53:01Z</time></trkpt><trkpt lat="44.70755950759196" lon="8.878626355844485"><ele>211.0</ele><time>2026-04-03T14:53:02Z</time></trkpt><trkpt lat="44.70775158066068" lon="8.878373891081583"><ele>211.5</ele><time>2026-04-03T14:53:03Z</time></trkpt><trkpt lat="44.70794518708271" lon="8.878116281736757"><ele>212.0</ele><time>2026-04-03T14:53:04Z</time></trkpt><trkpt lat="44.70813636135726" lon="8.877859166493119"><ele>213.0</ele><time>2026-04-03T14:53:05Z</time></trkpt><trkpt lat="44.708328139906186" lon="8.877601592140481"><ele>214.0</ele><time>2026-04-03T14:53:06Z</time></trkpt><trkpt lat="44.70852078229579" lon="8.877342668366687"><ele>213.0</ele><time>2026-04-03T14:53:07Z</time></trkpt><trkpt lat="44.708710155498764" lon="8.877083332129503"><ele>212.0</ele><time>2026-04-03T14:53:08Z</time></trkpt><trkpt lat="44.70889680442015" lon="8.876814005754008"><ele>212.5</ele><time>2026-04-03T14:53:09Z</time></trkpt><trkpt lat="44.709075419183655" lon="8.876539605656255"><ele>213.0</ele><time>2026-04-03T14:53:10Z</time></trkpt><trkpt lat="44.70925500635679" lon="8.876256213757301"><ele>213.0</ele><time>2026-04-03T14:53:11Z</time></trkpt><trkpt lat="44.70943159486029" lon="8.875973642363036"><ele>213.0</ele><time>2026-04-03T14:53:11.999Z</time></trkpt><trkpt lat="44.70960952582675" lon="8.875691514344997"><ele>212.0</ele><time>2026-04-03T14:53:12.999Z</time></trkpt><trkpt lat="44.70978710736514" lon="8.875408950179622"><ele>211.0</ele><time>2026-04-03T14:53:13.999Z</time></trkpt><trkpt lat="44.709963871920706" lon="8.875127551609648"><ele>210.0</ele><time>2026-04-03T14:53:14.999Z</time></trkpt><trkpt lat="44.71014091763318" lon="8.87484458229219"><ele>209.0</ele><time>2026-04-03T14:53:15.999Z</time></trkpt><trkpt lat="44.71031618892278" lon="8.87456869070616"><ele>211.5</ele><time>2026-04-03T14:53:16.999Z</time></trkpt><trkpt lat="44.71048498598228" lon="8.874304370802262"><ele>214.0</ele><time>2026-04-03T14:53:17.999Z</time></trkpt><trkpt lat="44.710638502234644" lon="8.874050353023685"><ele>214.33333333333331</ele><time>2026-04-03T14:53:18.999Z</time></trkpt><trkpt lat="44.71076665938705" lon="8.873788195677028"><ele>214.66666666666669</ele><time>2026-04-03T14:53:19.999Z</time></trkpt><trkpt lat="44.7108570663541" lon="8.873516327439775"><ele>215.0</ele><time>2026-04-03T14:53:20.999Z</time></trkpt><trkpt lat="44.71089219250348" lon="8.873218049151806"><ele>216.0</ele><time>2026-04-03T14:53:21.999Z</time></trkpt><trkpt lat="44.71088723002028" lon="8.872903249121027"><ele>217.0</ele><time>2026-04-03T14:53:22.999Z</time></trkpt><trkpt lat="44.71085595695186" lon="8.872583257105873"><ele>219.5</ele><time>2026-04-03T14:53:23.999Z</time></trkpt><trkpt lat="44.71082119608036" lon="8.872266533002978"><ele>222.0</ele><time>2026-04-03T14:53:24.999Z</time></trkpt><trkpt lat="44.71079877773533" lon="8.87194543489649"><ele>221.5</ele><time>2026-04-03T14:53:25.999Z</time></trkpt><trkpt lat="44.71080500454981" lon="8.871620723690889"><ele>221.0</ele><time>2026-04-03T14:53:26.999Z</time></trkpt><trkpt lat="44.710836177733945" lon="8.871292231523597"><ele>221.0</ele><time>2026-04-03T14:53:27.999Z</time></trkpt><trkpt lat="44.71089069556407" lon="8.870970920019255"><ele>221.0</ele><time>2026-04-03T14:53:28.999Z</time></trkpt><trkpt lat="44.710971820703264" lon="8.870660144470678"><ele>219.5</ele><time>2026-04-03T14:53:29.999Z</time></trkpt><trkpt lat="44.71107806027645" lon="8.870354436016424"><ele>218.0</ele><time>2026-04-03T14:53:30.999Z</time></trkpt><trkpt lat="44.71119913294226" lon="8.870065636828874"><ele>218.0</ele><time>2026-04-03T14:53:31.999Z</time></trkpt><trkpt lat="44.7113358196782" lon="8.869787810120142"><ele>218.0</ele><time>2026-04-03T14:53:32.999Z</time></trkpt><trkpt lat="44.7114838874838" lon="8.869518969666617"><ele>215.5</ele><time>2026-04-03T14:53:33.999Z</time></trkpt><trkpt lat="44.71163373826605" lon="8.869250517040951"><ele>213.0</ele><time>2026-04-03T14:53:34.999Z</time></trkpt><trkpt lat="44.711780716643375" lon="8.868974597684938"><ele>215.0</ele><time>2026-04-03T14:53:35.999Z</time></trkpt><trkpt lat="44.71191791060612" lon="8.868693700001549"><ele>217.0</ele><time>2026-04-03T14:53:36.999Z</time></trkpt><trkpt lat="44.712040318644505" lon="8.86840661296594"><ele>217.0</ele><time>2026-04-03T14:53:37.999Z</time></trkpt><trkpt lat="44.71213996271411" lon="8.868109433922891"><ele>217.0</ele><time>2026-04-03T14:53:38.999Z</time></trkpt><trkpt lat="44.71221104221441" lon="8.867800406575899"><ele>215.0</ele><time>2026-04-03T14:53:39.999Z</time></trkpt><trkpt lat="44.71227049954089" lon="8.86748841361162"><ele>213.0</ele><time>2026-04-03T14:53:40.999Z</time></trkpt><trkpt lat="44.71233105460815" lon="8.86717632539652"><ele>213.0</ele><time>2026-04-03T14:53:41.999Z</time></trkpt><trkpt lat="44.71239445146982" lon="8.866867210796912"><ele>213.0</ele><time>2026-04-03T14:53:42.999Z</time></trkpt><trkpt lat="44.71245796973539" lon="8.866558890537465"><ele>212.5</ele><time>2026-04-03T14:53:43.999Z</time></trkpt><trkpt lat="44.712528663883724" lon="8.866255639121198"><ele>212.0</ele><time>2026-04-03T14:53:44.999Z</time></trkpt><trkpt lat="44.71261746863595" lon="8.865958282710709"><ele>212.5</ele><time>2026-04-03T14:53:45.999Z</time></trkpt><trkpt lat="44.712730560965994" lon="8.865671949911242"><ele>213.0</ele><time>2026-04-03T14:53:46.999Z</time></trkpt><trkpt lat="44.712860586662025" lon="8.865395400591083"><ele>214.5</ele><time>2026-04-03T14:53:47.999Z</time></trkpt><trkpt lat="44.713001296196225" lon="8.865127575165463"><ele>216.0</ele><time>2026-04-03T14:53:48.999Z</time></trkpt><trkpt lat="44.71314453247277" lon="8.864858150193854"><ele>216.0</ele><time>2026-04-03T14:53:49.999Z</time></trkpt><trkpt lat="44.71329580181551" lon="8.864599650434732"><ele>216.0</ele><time>2026-04-03T14:53:50.999Z</time></trkpt><trkpt lat="44.713461850621826" lon="8.864351879774652"><ele>215.5</ele><time>2026-04-03T14:53:51.999Z</time></trkpt><trkpt lat="44.713657286158096" lon="8.86413318463632"><ele>215.0</ele><time>2026-04-03T14:53:52.999Z</time></trkpt><trkpt lat="44.71386937935859" lon="8.863986584177573"><ele>215.0</ele><time>2026-04-03T14:53:53.999Z</time></trkpt><trkpt lat="44.71410010015597" lon="8.863874758961074"><ele>215.0</ele><time>2026-04-03T14:53:54.999Z</time></trkpt><trkpt lat="44.71434234445696" lon="8.863811814456275"><ele>215.0</ele><time>2026-04-03T14:53:55.999Z</time></trkpt><trkpt lat="44.71458493775204" lon="8.86379545367288"><ele>215.0</ele><time>2026-04-03T14:53:56.999Z</time></trkpt><trkpt lat="44.71483092718325" lon="8.863832507853349"><ele>215.0</ele><time>2026-04-03T14:53:57.999Z</time></trkpt><trkpt lat="44.71506872212866" lon="8.863891402178517"><ele>215.0</ele><time>2026-04-03T14:53:58.999Z</time></trkpt><trkpt lat="44.71530758043362" lon="8.863957439343412"><ele>213.0</ele><time>2026-04-03T14:53:59.999Z</time></trkpt><trkpt lat="44.71554512951305" lon="8.864020543626445"><ele>211.0</ele><time>2026-04-03T14:54:00.999Z</time></trkpt><trkpt lat="44.71578364347481" lon="8.86407951350628"><ele>211.0</ele><time>2026-04-03T14:54:01.999Z</time></trkpt><trkpt lat="44.71601952177522" lon="8.864136864132973"><ele>211.0</ele><time>2026-04-03T14:54:02.999Z</time></trkpt><trkpt lat="44.71625820300222" lon="8.864189662540104"><ele>211.0</ele><time>2026-04-03T14:54:03.999Z</time></trkpt><trkpt lat="44.71649739995845" lon="8.864227784429653"><ele>211.0</ele><time>2026-04-03T14:54:04.999Z</time></trkpt><trkpt lat="44.716738897087716" lon="8.864231710764512"><ele>213.5</ele><time>2026-04-03T14:54:05.999Z</time></trkpt><trkpt lat="44.71698113845877" lon="8.864193757293426"><ele>216.0</ele><time>2026-04-03T14:54:06.999Z</time></trkpt><trkpt lat="44.717226387099196" lon="8.864134799564132"><ele>216.0</ele><time>2026-04-03T14:54:07.999Z</time></trkpt><trkpt lat="44.71746737648276" lon="8.864071631904984"><ele>216.0</ele><time>2026-04-03T14:54:08.999Z</time></trkpt><trkpt lat="44.71771472076495" lon="8.86400869778972"><ele>216.0</ele><time>2026-04-03T14:54:09.999Z</time></trkpt><trkpt lat="44.71795675878031" lon="8.863951576027981"><ele>216.0</ele><time>2026-04-03T14:54:10.999Z</time></trkpt><trkpt lat="44.71820226777045" lon="8.86390753741025"><ele>216.0</ele><time>2026-04-03T14:54:11.999Z</time></trkpt><trkpt lat="44.71844960838419" lon="8.86386097297754"><ele>216.0</ele><time>2026-04-03T14:54:12.999Z</time></trkpt><trkpt lat="44.71869361559868" lon="8.863796165078474"><ele>216.5</ele><time>2026-04-03T14:54:13.999Z</time></trkpt><trkpt lat="44.71893508518402" lon="8.863730345303045"><ele>217.0</ele><time>2026-04-03T14:54:14.999Z</time></trkpt><trkpt lat="44.71917742722177" lon="8.86367535412993"><ele>218.0</ele><time>2026-04-03T14:54:16Z</time></trkpt><trkpt lat="44.71941839641582" lon="8.86362469035619"><ele>219.0</ele><time>2026-04-03T14:54:17Z</time></trkpt><trkpt lat="44.719656769852435" lon="8.863570432417381"><ele>219.0</ele><time>2026-04-03T14:54:18Z</time></trkpt><trkpt lat="44.719893341398205" lon="8.86351258078748"><ele>219.0</ele><time>2026-04-03T14:54:19Z</time></trkpt><trkpt lat="44.72012809664017" lon="8.863455515050015"><ele>218.0</ele><time>2026-04-03T14:54:20Z</time></trkpt><trkpt lat="44.720356537889266" lon="8.863400637758717"><ele>217.0</ele><time>2026-04-03T14:54:21Z</time></trkpt><trkpt lat="44.720570295594115" lon="8.863348470229818"><ele>216.0</ele><time>2026-04-03T14:54:22Z</time></trkpt><trkpt lat="44.72077208671173" lon="8.86329680013241"><ele>216.0</ele><time>2026-04-03T14:54:23Z</time></trkpt><trkpt lat="44.72096550199295" lon="8.86324833321535"><ele>216.0</ele><time>2026-04-03T14:54:24Z</time></trkpt><trkpt lat="44.721157205853366" lon="8.863203420951157"><ele>216.0</ele><time>2026-04-03T14:54:25Z</time></trkpt><trkpt lat="44.72134116406656" lon="8.863163146723604"><ele>216.33333333333331</ele><time>2026-04-03T14:54:26Z</time></trkpt><trkpt lat="44.721520486088714" lon="8.863121182376997"><ele>216.66666666666666</ele><time>2026-04-03T14:54:27Z</time></trkpt><trkpt lat="44.7217015595309" lon="8.863079095678673"><ele>217.0</ele><time>2026-04-03T14:54:28Z</time></trkpt><trkpt lat="44.7218829049161" lon="8.863027974189857"><ele>217.0</ele><time>2026-04-03T14:54:29Z</time></trkpt><trkpt lat="44.7220646524131" lon="8.86296447913041"><ele>217.0</ele><time>2026-04-03T14:54:30Z</time></trkpt><trkpt lat="44.72224177748853" lon="8.862889418491957"><ele>217.0</ele><time>2026-04-03T14:54:31Z</time></trkpt><trkpt lat="44.7224191682763" lon="8.862815067386036"><ele>217.0</ele><time>2026-04-03T14:54:32Z</time></trkpt><trkpt lat="44.72259373826601" lon="8.862742161137371"><ele>217.0</ele><time>2026-04-03T14:54:33Z</time></trkpt><trkpt lat="44.72276958672161" lon="8.862667154110538"><ele>217.0</ele><time>2026-04-03T14:54:34Z</time></trkpt><trkpt lat="44.72294305673781" lon="8.862590212079251"><ele>217.0</ele><time>2026-04-03T14:54:35Z</time></trkpt><trkpt lat="44.72310942784247" lon="8.862515976684294"><ele>217.0</ele><time>2026-04-03T14:54:36Z</time></trkpt><trkpt lat="44.72327118424127" lon="8.862444013458393"><ele>217.0</ele><time>2026-04-03T14:54:37Z</time></trkpt><trkpt lat="44.72343101362374" lon="8.862373768796097"><ele>217.0</ele><time>2026-04-03T14:54:38Z</time></trkpt><trkpt lat="44.72358845967845" lon="8.862307474533406"><ele>217.0</ele><time>2026-04-03T14:54:39Z</time></trkpt><trkpt lat="44.72374138457951" lon="8.862243068426537"><ele>217.0</ele><time>2026-04-03T14:54:40Z</time></trkpt><trkpt lat="44.723892376060284" lon="8.862173496572371"><ele>217.0</ele><time>2026-04-03T14:54:41Z</time></trkpt><trkpt lat="44.72403555955322" lon="8.862082336518023"><ele>217.0</ele><time>2026-04-03T14:54:42Z</time></trkpt><trkpt lat="44.72416424042836" lon="8.861946809997695"><ele>217.0</ele><time>2026-04-03T14:54:43Z</time></trkpt><trkpt lat="44.72427296732057" lon="8.861769838202516"><ele>213.66666666666666</ele><time>2026-04-03T14:54:44Z</time></trkpt><trkpt lat="44.72435518439509" lon="8.861564514733589"><ele>210.33333333333331</ele><time>2026-04-03T14:54:45Z</time></trkpt><trkpt lat="44.72442664352141" lon="8.861349713479653"><ele>207.0</ele><time>2026-04-03T14:54:46Z</time></trkpt><trkpt lat="44.724487539504295" lon="8.86112391952677"><ele>204.0</ele><time>2026-04-03T14:54:47Z</time></trkpt><trkpt lat="44.724555628347176" lon="8.86089923525791"><ele>201.0</ele><time>2026-04-03T14:54:48Z</time></trkpt><trkpt lat="44.72463067703698" lon="8.860678622888823"><ele>198.0</ele><time>2026-04-03T14:54:49Z</time></trkpt><trkpt lat="44.72471012446033" lon="8.860461180888336"><ele>198.0</ele><time>2026-04-03T14:54:50Z</time></trkpt><trkpt lat="44.724808803312165" lon="8.860256581679867"><ele>198.0</ele><time>2026-04-03T14:54:51Z</time></trkpt><trkpt lat="44.72492811917053" lon="8.860064930323908"><ele>198.0</ele><time>2026-04-03T14:54:52Z</time></trkpt><trkpt lat="44.725048602245664" lon="8.859879307623977"><ele>200.0</ele><time>2026-04-03T14:54:53Z</time></trkpt><trkpt lat="44.72517019263247" lon="8.859695184999456"><ele>202.0</ele><time>2026-04-03T14:54:54Z</time></trkpt><trkpt lat="44.725292577758836" lon="8.859504088474836"><ele>204.0</ele><time>2026-04-03T14:54:55Z</time></trkpt><trkpt lat="44.72541184913365" lon="8.859312874738492"><ele>203.66666666666669</ele><time>2026-04-03T14:54:56Z</time></trkpt><trkpt lat="44.725533149530904" lon="8.859119464901283"><ele>203.33333333333334</ele><time>2026-04-03T14:54:57Z</time></trkpt><trkpt lat="44.72565405854453" lon="8.858924281238645"><ele>203.0</ele><time>2026-04-03T14:54:58Z</time></trkpt><trkpt lat="44.72577536097263" lon="8.858731118908079"><ele>203.0</ele><time>2026-04-03T14:54:59Z</time></trkpt><trkpt lat="44.725902857065265" lon="8.858537563033313"><ele>203.0</ele><time>2026-04-03T14:55:00Z</time></trkpt><trkpt lat="44.726033541646714" lon="8.858351466682812"><ele>203.0</ele><time>2026-04-03T14:55:01Z</time></trkpt><trkpt lat="44.726163535170684" lon="8.858166877499801"><ele>203.0</ele><time>2026-04-03T14:55:02Z</time></trkpt><trkpt lat="44.726297331029784" lon="8.85797152863045"><ele>203.0</ele><time>2026-04-03T14:55:03Z</time></trkpt><trkpt lat="44.72643241579264" lon="8.857783588326498"><ele>203.0</ele><time>2026-04-03T14:55:04Z</time></trkpt><trkpt lat="44.726570441242934" lon="8.857608817760445"><ele>204.0</ele><time>2026-04-03T14:55:05Z</time></trkpt><trkpt lat="44.726711562997814" lon="8.857464867078308"><ele>205.0</ele><time>2026-04-03T14:55:06Z</time></trkpt><trkpt lat="44.72686157780351" lon="8.857335142287363"><ele>206.0</ele><time>2026-04-03T14:55:07Z</time></trkpt><trkpt lat="44.72702552688741" lon="8.857257154251037"><ele>206.0</ele><time>2026-04-03T14:55:08Z</time></trkpt><trkpt lat="44.727196407884286" lon="8.85721393116249"><ele>206.0</ele><time>2026-04-03T14:55:09Z</time></trkpt><trkpt lat="44.727372647400465" lon="8.85721465364884"><ele>206.0</ele><time>2026-04-03T14:55:10Z</time></trkpt><trkpt lat="44.727552459348566" lon="8.857255882702008"><ele>206.0</ele><time>2026-04-03T14:55:11Z</time></trkpt><trkpt lat="44.727723273113554" lon="8.857256085339092"><ele>206.0</ele><time>2026-04-03T14:55:12Z</time></trkpt><trkpt lat="44.72787687732496" lon="8.857178393613266"><ele>206.0</ele><time>2026-04-03T14:55:13Z</time></trkpt><trkpt lat="44.728020759793914" lon="8.857064155026947"><ele>206.25</ele><time>2026-04-03T14:55:14Z</time></trkpt><trkpt lat="44.72814575631538" lon="8.856950159737703"><ele>206.5</ele><time>2026-04-03T14:55:15Z</time></trkpt><trkpt lat="44.728264965151894" lon="8.856854075918159"><ele>206.75</ele><time>2026-04-03T14:55:16Z</time></trkpt><trkpt lat="44.72837756461455" lon="8.856767374676648"><ele>207.0</ele><time>2026-04-03T14:55:16.999Z</time></trkpt><trkpt lat="44.728485698388894" lon="8.856670302934184"><ele>205.75</ele><time>2026-04-03T14:55:17.999Z</time></trkpt><trkpt lat="44.72859115767682" lon="8.856542681756677"><ele>204.5</ele><time>2026-04-03T14:55:18.999Z</time></trkpt><trkpt lat="44.72867852136268" lon="8.85638622704263"><ele>203.25</ele><time>2026-04-03T14:55:19.999Z</time></trkpt><trkpt lat="44.728747823911206" lon="8.856212657914138"><ele>202.0</ele><time>2026-04-03T14:55:20.999Z</time></trkpt><trkpt lat="44.728795529785074" lon="8.856016118324439"><ele>202.0</ele><time>2026-04-03T14:55:21.999Z</time></trkpt><trkpt lat="44.72882339871848" lon="8.855815632450629"><ele>202.0</ele><time>2026-04-03T14:55:22.999Z</time></trkpt><trkpt lat="44.72882915512668" lon="8.855604004928617"><ele>202.0</ele><time>2026-04-03T14:55:23.999Z</time></trkpt><trkpt lat="44.728828996938944" lon="8.855394071604097"><ele>202.0</ele><time>2026-04-03T14:55:24.999Z</time></trkpt><trkpt lat="44.72882862806146" lon="8.855184757224666"><ele>203.0</ele><time>2026-04-03T14:55:25.999Z</time></trkpt><trkpt lat="44.72883372194016" lon="8.854970029457853"><ele>204.0</ele><time>2026-04-03T14:55:26.999Z</time></trkpt><trkpt lat="44.72884129801113" lon="8.854758415349565"><ele>205.0</ele><time>2026-04-03T14:55:27.999Z</time></trkpt><trkpt lat="44.728849049999404" lon="8.854545689254016"><ele>205.0</ele><time>2026-04-03T14:55:28.999Z</time></trkpt><trkpt lat="44.72885426841873" lon="8.85434495994209"><ele>205.0</ele><time>2026-04-03T14:55:29.999Z</time></trkpt><trkpt lat="44.728857239507846" lon="8.85416360963294"><ele>205.0</ele><time>2026-04-03T14:55:30.999Z</time></trkpt><trkpt lat="44.72885468887182" lon="8.853986345476644"><ele>205.0</ele><time>2026-04-03T14:55:31.999Z</time></trkpt><trkpt lat="44.72886944865617" lon="8.853827424170529"><ele>206.4</ele><time>2026-04-03T14:55:32.999Z</time></trkpt><trkpt lat="44.72890569092014" lon="8.853680997552495"><ele>207.8</ele><time>2026-04-03T14:55:33.999Z</time></trkpt><trkpt lat="44.72895388521912" lon="8.853547022617503"><ele>209.2</ele><time>2026-04-03T14:55:34.999Z</time></trkpt><trkpt lat="44.729003094524025" lon="8.853413686933791"><ele>210.6</ele><time>2026-04-03T14:55:35.999Z</time></trkpt><trkpt lat="44.72905295952476" lon="8.853281804713978"><ele>212.0</ele><time>2026-04-03T14:55:36.999Z</time></trkpt><trkpt lat="44.72910641042493" lon="8.853155075294378"><ele>212.6</ele><time>2026-04-03T14:55:37.999Z</time></trkpt><trkpt lat="44.729158678507936" lon="8.853037693645504"><ele>213.2</ele><time>2026-04-03T14:55:38.999Z</time></trkpt><trkpt lat="44.729207385344374" lon="8.852934507290179"><ele>213.8</ele><time>2026-04-03T14:55:39.999Z</time></trkpt><trkpt lat="44.729247184297364" lon="8.8528492996321"><ele>214.4</ele><time>2026-04-03T14:55:40.999Z</time></trkpt><trkpt lat="44.729313495708915" lon="8.85272429593127"><ele>215.0</ele><time>2026-04-03T14:55:42.999Z</time></trkpt><trkpt lat="44.729404261503085" lon="8.85262751726868"><ele>214.4</ele><time>2026-04-03T14:55:44.999Z</time></trkpt><trkpt lat="44.729464993728946" lon="8.852505067170652"><ele>213.8</ele><time>2026-04-03T14:55:46.999Z</time></trkpt><trkpt lat="44.72952748903952" lon="8.852381878705309"><ele>213.2</ele><time>2026-04-03T14:55:48.999Z</time></trkpt><trkpt lat="44.72960326318556" lon="8.852244735038528"><ele>212.6</ele><time>2026-04-03T14:55:50.999Z</time></trkpt><trkpt lat="44.72964848490621" lon="8.85216453184299"><ele>212.0</ele><time>2026-04-03T14:55:51.999Z</time></trkpt><trkpt lat="44.72968651087886" lon="8.852071219799782"><ele>212.00000000000003</ele><time>2026-04-03T14:55:52.999Z</time></trkpt><trkpt lat="44.72973757372344" lon="8.851983366828044"><ele>212.0</ele><time>2026-04-03T14:55:53.999Z</time></trkpt><trkpt lat="44.729798733870545" lon="8.851899949693378"><ele>212.0</ele><time>2026-04-03T14:55:54.999Z</time></trkpt><trkpt lat="44.7298522706414" lon="8.851806308983356"><ele>212.0</ele><time>2026-04-03T14:55:55.999Z</time></trkpt><trkpt lat="44.72989535502204" lon="8.851730950427882"><ele>212.00000000000003</ele><time>2026-04-03T14:55:56.999Z</time></trkpt><trkpt lat="44.72993940713809" lon="8.851654276604723"><ele>212.0</ele><time>2026-04-03T14:55:57.999Z</time></trkpt><trkpt lat="44.729982072381034" lon="8.851580283036226"><ele>212.57142857142858</ele><time>2026-04-03T14:55:58.999Z</time></trkpt><trkpt lat="44.730013621225005" lon="8.851501094302499"><ele>213.14285714285714</ele><time>2026-04-03T14:55:59.999Z</time></trkpt><trkpt lat="44.73006318471877" lon="8.851436804517075"><ele>213.71428571428572</ele><time>2026-04-03T14:56:00.999Z</time></trkpt><trkpt lat="44.73011863192568" lon="8.851375304034537"><ele>214.28571428571428</ele><time>2026-04-03T14:56:01.999Z</time></trkpt><trkpt lat="44.73017054646064" lon="8.851302404567242"><ele>214.85714285714283</ele><time>2026-04-03T14:56:02.999Z</time></trkpt><trkpt lat="44.73022304329314" lon="8.851227434277757"><ele>215.42857142857142</ele><time>2026-04-03T14:56:03.999Z</time></trkpt><trkpt lat="44.73026609232016" lon="8.851145001021308"><ele>216.0</ele><time>2026-04-03T14:56:04.999Z</time></trkpt><trkpt lat="44.730286985703145" lon="8.851035852970767"><ele>216.16666666666666</ele><time>2026-04-03T14:56:05.999Z</time></trkpt><trkpt lat="44.73027318623966" lon="8.850920215140041"><ele>216.33333333333331</ele><time>2026-04-03T14:56:06.999Z</time></trkpt><trkpt lat="44.730241217751555" lon="8.8508071976496"><ele>216.5</ele><time>2026-04-03T14:56:07.999Z</time></trkpt><trkpt lat="44.73020120523976" lon="8.850699705316984"><ele>216.66666666666666</ele><time>2026-04-03T14:56:08.999Z</time></trkpt><trkpt lat="44.73016142653908" lon="8.850591698201963"><ele>216.83333333333331</ele><time>2026-04-03T14:56:09.999Z</time></trkpt><trkpt lat="44.73013839814764" lon="8.850480275441432"><ele>217.0</ele><time>2026-04-03T14:56:10.999Z</time></trkpt><trkpt lat="44.73015010914991" lon="8.850374987877965"><ele>216.99999999999997</ele><time>2026-04-03T14:56:11.999Z</time></trkpt><trkpt lat="44.73017722547564" lon="8.850276366772858"><ele>217.0</ele><time>2026-04-03T14:56:12.999Z</time></trkpt><trkpt lat="44.730211002318626" lon="8.850164433746286"><ele>217.0</ele><time>2026-04-03T14:56:13.999Z</time></trkpt><trkpt lat="44.73024063864749" lon="8.850051870463389"><ele>217.0</ele><time>2026-04-03T14:56:14.999Z</time></trkpt><trkpt lat="44.73027269545354" lon="8.849931928578524"><ele>216.99999999999997</ele><time>2026-04-03T14:56:15.999Z</time></trkpt><trkpt lat="44.73031069138175" lon="8.849803592741635"><ele>217.0</ele><time>2026-04-03T14:56:16.999Z</time></trkpt><trkpt lat="44.730350012893595" lon="8.849665907150264"><ele>216.8</ele><time>2026-04-03T14:56:17.999Z</time></trkpt><trkpt lat="44.73039225448335" lon="8.849522735054581"><ele>216.6</ele><time>2026-04-03T14:56:18.999Z</time></trkpt><trkpt lat="44.73043043352257" lon="8.849379350961243"><ele>216.40000000000003</ele><time>2026-04-03T14:56:19.999Z</time></trkpt><trkpt lat="44.73047079407216" lon="8.849230757990645"><ele>216.20000000000002</ele><time>2026-04-03T14:56:20.999Z</time></trkpt><trkpt lat="44.73051222121171" lon="8.849079941747418"><ele>216.0</ele><time>2026-04-03T14:56:22Z</time></trkpt><trkpt lat="44.73055617257612" lon="8.848927103389116"><ele>216.5</ele><time>2026-04-03T14:56:23Z</time></trkpt><trkpt lat="44.73059952589388" lon="8.848770379788856"><ele>217.0</ele><time>2026-04-03T14:56:24Z</time></trkpt><trkpt lat="44.73063997964765" lon="8.848618196608465"><ele>217.5</ele><time>2026-04-03T14:56:25Z</time></trkpt><trkpt lat="44.730680357184546" lon="8.848467033862445"><ele>218.0</ele><time>2026-04-03T14:56:26Z</time></trkpt><trkpt lat="44.73072436672468" lon="8.848317797038272"><ele>218.25</ele><time>2026-04-03T14:56:27Z</time></trkpt><trkpt lat="44.73076953926493" lon="8.848167420331663"><ele>218.5</ele><time>2026-04-03T14:56:28Z</time></trkpt><trkpt lat="44.7308122926395" lon="8.848014131392295"><ele>218.75</ele><time>2026-04-03T14:56:29Z</time></trkpt><trkpt lat="44.73085460506929" lon="8.847855429067973"><ele>219.0</ele><time>2026-04-03T14:56:30Z</time></trkpt><trkpt lat="44.730895841368394" lon="8.847699428481134"><ele>218.0</ele><time>2026-04-03T14:56:31Z</time></trkpt><trkpt lat="44.73093857320528" lon="8.847540561293737"><ele>217.0</ele><time>2026-04-03T14:56:32Z</time></trkpt><trkpt lat="44.73098416069203" lon="8.847383838306678"><ele>216.0</ele><time>2026-04-03T14:56:33Z</time></trkpt><trkpt lat="44.73102748192175" lon="8.847225712946345"><ele>215.0</ele><time>2026-04-03T14:56:34Z</time></trkpt><trkpt lat="44.73107153248728" lon="8.847065827067443"><ele>215.0</ele><time>2026-04-03T14:56:35Z</time></trkpt><trkpt lat="44.73111377792557" lon="8.846902795161608"><ele>215.0</ele><time>2026-04-03T14:56:36Z</time></trkpt><trkpt lat="44.73115685358588" lon="8.846743478798809"><ele>215.0</ele><time>2026-04-03T14:56:37Z</time></trkpt><trkpt lat="44.731200927909924" lon="8.84658468853216"><ele>215.0</ele><time>2026-04-03T14:56:38Z</time></trkpt><trkpt lat="44.731243677068015" lon="8.846423432660655"><ele>215.5</ele><time>2026-04-03T14:56:39Z</time></trkpt><trkpt lat="44.731286778207064" lon="8.84626053597257"><ele>216.0</ele><time>2026-04-03T14:56:40Z</time></trkpt><trkpt lat="44.73132925952118" lon="8.84610249341888"><ele>216.5</ele><time>2026-04-03T14:56:41Z</time></trkpt><trkpt lat="44.73137231125758" lon="8.8459430844306"><ele>217.0</ele><time>2026-04-03T14:56:42Z</time></trkpt><trkpt lat="44.731418986852326" lon="8.845782941218772"><ele>218.5</ele><time>2026-04-03T14:56:43Z</time></trkpt><trkpt lat="44.73146228928233" lon="8.845629246945562"><ele>220.0</ele><time>2026-04-03T14:56:44Z</time></trkpt><trkpt lat="44.731500882069575" lon="8.84547642142952"><ele>221.5</ele><time>2026-04-03T14:56:45Z</time></trkpt><trkpt lat="44.731539133963565" lon="8.845320504117304"><ele>223.0</ele><time>2026-04-03T14:56:46Z</time></trkpt><trkpt lat="44.731568158995934" lon="8.845160465212464"><ele>224.75</ele><time>2026-04-03T14:56:47Z</time></trkpt><trkpt lat="44.73158561959675" lon="8.844992882251326"><ele>226.5</ele><time>2026-04-03T14:56:48Z</time></trkpt><trkpt lat="44.7315893456266" lon="8.844820490500554"><ele>228.25</ele><time>2026-04-03T14:56:49Z</time></trkpt><trkpt lat="44.73158582503449" lon="8.84464524211123"><ele>230.0</ele><time>2026-04-03T14:56:50Z</time></trkpt><trkpt lat="44.731580825652784" lon="8.844471439451342"><ele>230.0</ele><time>2026-04-03T14:56:51Z</time></trkpt><trkpt lat="44.7315721604957" lon="8.84430450787883"><ele>230.0</ele><time>2026-04-03T14:56:52Z</time></trkpt><trkpt lat="44.73156407016412" lon="8.844138892635925"><ele>230.0</ele><time>2026-04-03T14:56:53Z</time></trkpt><trkpt lat="44.73155937750913" lon="8.843977765202672"><ele>230.0</ele><time>2026-04-03T14:56:54Z</time></trkpt><trkpt lat="44.73155281808942" lon="8.843816091305223"><ele>230.8</ele><time>2026-04-03T14:56:55Z</time></trkpt><trkpt lat="44.7315463861399" lon="8.843657733675862"><ele>231.6</ele><time>2026-04-03T14:56:56Z</time></trkpt><trkpt lat="44.731541589382154" lon="8.843497480286336"><ele>232.39999999999998</ele><time>2026-04-03T14:56:57Z</time></trkpt><trkpt lat="44.7315325392662" lon="8.843340695519977"><ele>233.2</ele><time>2026-04-03T14:56:58Z</time></trkpt><trkpt lat="44.731527097089206" lon="8.843185770040844"><ele>234.0</ele><time>2026-04-03T14:56:59Z</time></trkpt><trkpt lat="44.73151737373725" lon="8.843027039180079"><ele>234.2</ele><time>2026-04-03T14:57:00Z</time></trkpt><trkpt lat="44.731507581931204" lon="8.842872198478304"><ele>234.39999999999998</ele><time>2026-04-03T14:57:01Z</time></trkpt><trkpt lat="44.731503625452326" lon="8.842717503801172"><ele>234.6</ele><time>2026-04-03T14:57:02Z</time></trkpt><trkpt lat="44.73149917835741" lon="8.842564198509738"><ele>234.8</ele><time>2026-04-03T14:57:03Z</time></trkpt><trkpt lat="44.73149448360987" lon="8.842414075310579"><ele>235.0</ele><time>2026-04-03T14:57:04Z</time></trkpt><trkpt lat="44.731489257627885" lon="8.842269541409328"><ele>235.0</ele><time>2026-04-03T14:57:05Z</time></trkpt><trkpt lat="44.73148541891281" lon="8.842126238199272"><ele>235.0</ele><time>2026-04-03T14:57:06Z</time></trkpt><trkpt lat="44.73148922445491" lon="8.841986029975475"><ele>235.0</ele><time>2026-04-03T14:57:07Z</time></trkpt><trkpt lat="44.73150235096061" lon="8.841872492434893"><ele>235.0</ele><time>2026-04-03T14:57:08Z</time></trkpt><trkpt lat="44.73153614991747" lon="8.841754360428796"><ele>235.0</ele><time>2026-04-03T14:57:09Z</time></trkpt><trkpt lat="44.731584016057845" lon="8.841640418483047"><ele>234.8</ele><time>2026-04-03T14:57:10Z</time></trkpt><trkpt lat="44.73162648723191" lon="8.841527553441216"><ele>234.6</ele><time>2026-04-03T14:57:11Z</time></trkpt><trkpt lat="44.73165168073634" lon="8.841399312439496"><ele>234.39999999999998</ele><time>2026-04-03T14:57:12Z</time></trkpt><trkpt lat="44.73163307377431" lon="8.84126649036622"><ele>234.2</ele><time>2026-04-03T14:57:12.999Z</time></trkpt><trkpt lat="44.73158352712176" lon="8.841144249169382"><ele>234.0</ele><time>2026-04-03T14:57:13.999Z</time></trkpt><trkpt lat="44.731512208843" lon="8.841023125999136"><ele>233.0</ele><time>2026-04-03T14:57:14.999Z</time></trkpt><trkpt lat="44.731453374974144" lon="8.840891732789212"><ele>232.0</ele><time>2026-04-03T14:57:15.999Z</time></trkpt><trkpt lat="44.73142696948623" lon="8.840729735601887"><ele>231.0</ele><time>2026-04-03T14:57:16.999Z</time></trkpt><trkpt lat="44.73142958836768" lon="8.840557709359741"><ele>230.0</ele><time>2026-04-03T14:57:17.999Z</time></trkpt><trkpt lat="44.73142962623971" lon="8.84038410974"><ele>230.0</ele><time>2026-04-03T14:57:18.999Z</time></trkpt><trkpt lat="44.73142765077433" lon="8.840211426649416"><ele>230.0</ele><time>2026-04-03T14:57:19.999Z</time></trkpt><trkpt lat="44.731424602193755" lon="8.840041189823983"><ele>230.0</ele><time>2026-04-03T14:57:20.999Z</time></trkpt><trkpt lat="44.731426642437945" lon="8.83987642679636"><ele>230.0</ele><time>2026-04-03T14:57:21.999Z</time></trkpt><trkpt lat="44.731438790809584" lon="8.839717130038487"><ele>230.0</ele><time>2026-04-03T14:57:22.999Z</time></trkpt><trkpt lat="44.731465861964146" lon="8.839563213868425"><ele>230.0</ele><time>2026-04-03T14:57:23.999Z</time></trkpt><trkpt lat="44.73150057054392" lon="8.839411592255264"><ele>230.0</ele><time>2026-04-03T14:57:24.999Z</time></trkpt><trkpt lat="44.73154593130705" lon="8.839262733949106"><ele>230.0</ele><time>2026-04-03T14:57:25.999Z</time></trkpt><trkpt lat="44.731595687384136" lon="8.839117162604973"><ele>230.0</ele><time>2026-04-03T14:57:26.999Z</time></trkpt><trkpt lat="44.73165631524294" lon="8.838972738990327"><ele>230.0</ele><time>2026-04-03T14:57:27.999Z</time></trkpt><trkpt lat="44.73172320956561" lon="8.83883730433585"><ele>230.0</ele><time>2026-04-03T14:57:28.999Z</time></trkpt><trkpt lat="44.7317985020408" lon="8.838709134112545"><ele>230.0</ele><time>2026-04-03T14:57:29.999Z</time></trkpt><trkpt lat="44.73187481873349" lon="8.838583094237759"><ele>229.8</ele><time>2026-04-03T14:57:30.999Z</time></trkpt><trkpt lat="44.73195377988841" lon="8.838459347964138"><ele>229.6</ele><time>2026-04-03T14:57:31.999Z</time></trkpt><trkpt lat="44.73203118094467" lon="8.838340538646044"><ele>229.39999999999998</ele><time>2026-04-03T14:57:32.999Z</time></trkpt><trkpt lat="44.7321031080846" lon="8.838225703277825"><ele>229.2</ele><time>2026-04-03T14:57:33.999Z</time></trkpt><trkpt lat="44.732170473746294" lon="8.838122644416787"><ele>229.0</ele><time>2026-04-03T14:57:34.999Z</time></trkpt><trkpt lat="44.732230855279795" lon="8.838036091001847"><ele>228.99999999999997</ele><time>2026-04-03T14:57:35.999Z</time></trkpt><trkpt lat="44.73229018276486" lon="8.837975785797898"><ele>229.0</ele><time>2026-04-03T14:57:36.999Z</time></trkpt><trkpt lat="44.73234862181604" lon="8.837914625746416"><ele>229.0</ele><time>2026-04-03T14:57:37.999Z</time></trkpt><trkpt lat="44.73241696075334" lon="8.837886767289055"><ele>229.0</ele><time>2026-04-03T14:57:38.999Z</time></trkpt><trkpt lat="44.73249814728303" lon="8.837905913927086"><ele>228.99999999999997</ele><time>2026-04-03T14:57:39.999Z</time></trkpt><trkpt lat="44.7325675464686" lon="8.837859856162671"><ele>229.0</ele><time>2026-04-03T14:57:40.999Z</time></trkpt><trkpt lat="44.732629958202864" lon="8.837794590462025"><ele>228.99999999999997</ele><time>2026-04-03T14:57:41.999Z</time></trkpt><trkpt lat="44.73268847644222" lon="8.837722176210919"><ele>229.0</ele><time>2026-04-03T14:57:42.999Z</time></trkpt><trkpt lat="44.73274935866725" lon="8.837662448983087"><ele>229.0</ele><time>2026-04-03T14:57:43.999Z</time></trkpt><trkpt lat="44.732805249041995" lon="8.837610006050653"><ele>229.0</ele><time>2026-04-03T14:57:44.999Z</time></trkpt><trkpt lat="44.73287034955139" lon="8.837625227101064"><ele>228.99999999999997</ele><time>2026-04-03T14:57:45.999Z</time></trkpt><trkpt lat="44.73298633101644" lon="8.837612864065155"><ele>229.0</ele><time>2026-04-03T14:57:47.999Z</time></trkpt><trkpt lat="44.73311515550689" lon="8.837617484646973"><ele>228.83333333333331</ele><time>2026-04-03T14:57:49.999Z</time></trkpt><trkpt lat="44.73318119945406" lon="8.83762057705054"><ele>228.66666666666666</ele><time>2026-04-03T14:57:50.999Z</time></trkpt><trkpt lat="44.733251082431394" lon="8.837624616932066"><ele>228.5</ele><time>2026-04-03T14:57:51.999Z</time></trkpt><trkpt lat="44.73332169042769" lon="8.837628698756918"><ele>228.33333333333331</ele><time>2026-04-03T14:57:52.999Z</time></trkpt><trkpt lat="44.73338981089973" lon="8.837632636735773"><ele>228.16666666666666</ele><time>2026-04-03T14:57:53.999Z</time></trkpt><trkpt lat="44.73345658826688" lon="8.837636497093944"><ele>228.0</ele><time>2026-04-03T14:57:54.999Z</time></trkpt><trkpt lat="44.7335771676277" lon="8.837642492482294"><ele>228.0</ele><time>2026-04-03T14:57:56.999Z</time></trkpt><trkpt lat="44.733687887615616" lon="8.837645765814266"><ele>228.0</ele><time>2026-04-03T14:57:58.999Z</time></trkpt><trkpt lat="44.73380405426616" lon="8.837671699486734"><ele>228.0</ele><time>2026-04-03T14:58:00.999Z</time></trkpt><trkpt lat="44.73386421037777" lon="8.837713818270085"><ele>228.0</ele><time>2026-04-03T14:58:01.999Z</time></trkpt><trkpt lat="44.73389783451818" lon="8.837823169782968"><ele>228.0</ele><time>2026-04-03T14:58:02.999Z</time></trkpt><trkpt lat="44.73392569999036" lon="8.83790429509964"><ele>228.0</ele><time>2026-04-03T14:58:03.999Z</time></trkpt><trkpt lat="44.73395915861258" lon="8.837986183988873"><ele>228.0</ele><time>2026-04-03T14:58:04.999Z</time></trkpt><trkpt lat="44.73399687453411" lon="8.838067790755847"><ele>227.99999999999997</ele><time>2026-04-03T14:58:05.999Z</time></trkpt><trkpt lat="44.734036796555976" lon="8.838149195346857"><ele>228.0</ele><time>2026-04-03T14:58:06.999Z</time></trkpt><trkpt lat="44.73407924832596" lon="8.838231384424802"><ele>228.0</ele><time>2026-04-03T14:58:07.999Z</time></trkpt><trkpt lat="44.734123314843146" lon="8.838309584835024"><ele>227.99999999999997</ele><time>2026-04-03T14:58:08.999Z</time></trkpt><trkpt lat="44.73417090845356" lon="8.83838584966361"><ele>228.0</ele><time>2026-04-03T14:58:09.999Z</time></trkpt><trkpt lat="44.734221910605115" lon="8.838458860657"><ele>228.0</ele><time>2026-04-03T14:58:10.999Z</time></trkpt><trkpt lat="44.73427088614048" lon="8.838523876839332"><ele>228.2</ele><time>2026-04-03T14:58:11.999Z</time></trkpt><trkpt lat="44.7343634761002" lon="8.838632015480679"><ele>228.4</ele><time>2026-04-03T14:58:13.999Z</time></trkpt><trkpt lat="44.73443116515763" lon="8.838729171893045"><ele>228.59999999999997</ele><time>2026-04-03T14:58:15.999Z</time></trkpt><trkpt lat="44.73449615570189" lon="8.838767180340952"><ele>228.79999999999998</ele><time>2026-04-03T14:58:17.999Z</time></trkpt><trkpt lat="44.7345782201487" lon="8.838703889871411"><ele>229.0</ele><time>2026-04-03T14:58:20.999Z</time></trkpt><trkpt lat="44.73463592642015" lon="8.83857932603998"><ele>228.99999999999997</ele><time>2026-04-03T14:58:22.999Z</time></trkpt><trkpt lat="44.73469585750373" lon="8.838476023884576"><ele>229.0</ele><time>2026-04-03T14:58:24.999Z</time></trkpt><trkpt lat="44.734724262821416" lon="8.83838238306003"><ele>229.0</ele><time>2026-04-03T14:58:26.999Z</time></trkpt><trkpt lat="44.734766618021645" lon="8.838295414291807"><ele>229.0</ele><time>2026-04-03T14:58:32Z</time></trkpt><trkpt lat="44.73466229031884" lon="8.83816683364735"><ele>228.99999999999997</ele><time>2026-04-03T15:00:47Z</time></trkpt><trkpt lat="44.73472736419433" lon="8.838143062274957"><ele>229.0</ele><time>2026-04-03T15:01:12.999Z</time></trkpt><trkpt lat="44.734791171153624" lon="8.83812296596164"><ele>229.14285714285714</ele><time>2026-04-03T15:01:18.999Z</time></trkpt><trkpt lat="44.73486171971528" lon="8.838116266327265"><ele>229.28571428571428</ele><time>2026-04-03T15:01:25.999Z</time></trkpt><trkpt lat="44.73491743665662" lon="8.838065514394705"><ele>229.42857142857142</ele><time>2026-04-03T15:01:31.999Z</time></trkpt><trkpt lat="44.7349704069776" lon="8.838014931944741"><ele>229.57142857142856</ele><time>2026-04-03T15:01:39.999Z</time></trkpt><trkpt lat="44.73502049988915" lon="8.838069204495145"><ele>229.71428571428572</ele><time>2026-04-03T15:01:46.999Z</time></trkpt><trkpt lat="44.73507329363123" lon="8.838133225396936"><ele>229.85714285714283</ele><time>2026-04-03T15:01:54.999Z</time></trkpt><trkpt lat="44.73512763317705" lon="8.838178705700885"><ele>229.99999999999997</ele><time>2026-04-03T15:02:00.999Z</time></trkpt><trkpt lat="44.73519439101288" lon="8.838198468080687"><ele>230.1428571428571</ele><time>2026-04-03T15:02:06.999Z</time></trkpt><trkpt lat="44.73525364753805" lon="8.83816137865505"><ele>230.28571428571428</ele><time>2026-04-03T15:02:13.999Z</time></trkpt><trkpt lat="44.73531890998597" lon="8.838185869766221"><ele>230.42857142857142</ele><time>2026-04-03T15:02:20.999Z</time></trkpt><trkpt lat="44.735371822457225" lon="8.838244814130167"><ele>230.57142857142856</ele><time>2026-04-03T15:02:26.999Z</time></trkpt><trkpt lat="44.73541004870917" lon="8.838325198133429"><ele>230.71428571428572</ele><time>2026-04-03T15:02:33.999Z</time></trkpt><trkpt lat="44.735461764248974" lon="8.838382431038372"><ele>230.85714285714286</ele><time>2026-04-03T15:02:44Z</time></trkpt><trkpt lat="44.73552343969148" lon="8.838361294431046"><ele>231.0</ele><time>2026-04-03T15:02:52Z</time></trkpt><trkpt lat="44.73555050810186" lon="8.838267127365127"><ele>231.0</ele><time>2026-04-03T15:03:24.999Z</time></trkpt><trkpt lat="44.73552100205597" lon="8.838188784572463"><ele>231.0</ele><time>2026-04-03T15:03:31.999Z</time></trkpt><trkpt lat="44.73557603396568" lon="8.838125142010531"><ele>231.0</ele><time>2026-04-03T15:03:45.999Z</time></trkpt><trkpt lat="44.73564287619989" lon="8.838106459291195"><ele>231.0</ele><time>2026-04-03T15:03:53.999Z</time></trkpt><trkpt lat="44.73570970513949" lon="8.838078879560435"><ele>231.0</ele><time>2026-04-03T15:03:59.999Z</time></trkpt><trkpt lat="44.735760970449114" lon="8.838133223736808"><ele>231.0</ele><time>2026-04-03T15:04:06.999Z</time></trkpt><trkpt lat="44.73592104652389" lon="8.838076575237192"><ele>231.0</ele><time>2026-04-03T15:04:17.999Z</time></trkpt><trkpt lat="44.735968205176114" lon="8.83817914309371"><ele>231.0</ele><time>2026-04-03T15:04:18.999Z</time></trkpt><trkpt lat="44.735726489667464" lon="8.837983471884538"><ele>231.0</ele><time>2026-04-03T15:04:36.154Z</time></trkpt><trkpt lat="44.735651152150155" lon="8.838071393002553"><ele>231.0</ele><time>2026-04-03T15:04:40.55Z</time></trkpt><trkpt lat="44.73553899262157" lon="8.838163853934418"><ele>231.0</ele><time>2026-04-03T15:05:40.481Z</time></trkpt><trkpt lat="44.73576228125288" lon="8.837976879987078"><ele>231.0</ele><time>2026-04-03T15:06:49.032Z</time></trkpt><trkpt lat="44.73568984129842" lon="8.838059469841383"><ele>231.0</ele><time>2026-04-03T15:06:59Z</time></trkpt><trkpt lat="44.735609194197586" lon="8.838069034742"><ele>231.0</ele><time>2026-04-03T15:07:03Z</time></trkpt><trkpt lat="44.73561235094438" lon="8.838173503793888"><ele>231.0</ele><time>2026-04-03T15:07:14Z</time></trkpt><trkpt lat="44.735548436677306" lon="8.838163058385089"><ele>231.0</ele><time>2026-04-03T15:09:53.999Z</time></trkpt><trkpt lat="44.73555312366688" lon="8.838273428799932"><ele>231.0</ele><time>2026-04-03T15:10:07.999Z</time></trkpt><trkpt lat="44.73561570686031" lon="8.83831540516996"><ele>231.0</ele><time>2026-04-03T15:10:14.999Z</time></trkpt><trkpt lat="44.735674101676004" lon="8.838369561793275"><ele>231.0</ele><time>2026-04-03T15:10:20.999Z</time></trkpt><trkpt lat="44.73570959461271" lon="8.838451161296797"><ele>230.71428571428572</ele><time>2026-04-03T15:10:26.999Z</time></trkpt><trkpt lat="44.73573729183136" lon="8.838532826990647"><ele>230.42857142857144</ele><time>2026-04-03T15:10:32.999Z</time></trkpt><trkpt lat="44.73579743523726" lon="8.838587303585356"><ele>230.14285714285714</ele><time>2026-04-03T15:10:44.999Z</time></trkpt><trkpt lat="44.73586521211826" lon="8.83862226341993"><ele>229.85714285714286</ele><time>2026-04-03T15:10:53.999Z</time></trkpt><trkpt lat="44.73592704036936" lon="8.838650866207796"><ele>229.57142857142858</ele><time>2026-04-03T15:11:01.999Z</time></trkpt><trkpt lat="44.73599250346779" lon="8.838672909539014"><ele>229.28571428571428</ele><time>2026-04-03T15:11:10Z</time></trkpt><trkpt lat="44.73604634086014" lon="8.838737406836728"><ele>229.0</ele><time>2026-04-03T15:11:23Z</time></trkpt><trkpt lat="44.736079291355836" lon="8.838836934697154"><ele>229.0</ele><time>2026-04-03T15:11:35.999Z</time></trkpt><trkpt lat="44.736082778937245" lon="8.83892772069113"><ele>229.0</ele><time>2026-04-03T15:11:38.999Z</time></trkpt><trkpt lat="44.73611389877485" lon="8.839012624782418"><ele>229.0</ele><time>2026-04-03T15:11:39.999Z</time></trkpt><trkpt lat="44.73598904382862" lon="8.838651761002039"><ele>229.0</ele><time>2026-04-03T15:12:04.318Z</time></trkpt><trkpt lat="44.735867366994405" lon="8.83853524507997"><ele>225.0</ele><time>2026-04-03T15:12:10.074Z</time></trkpt><trkpt lat="44.73621494520707" lon="8.838981874345816"><ele>227.0</ele><time>2026-04-03T15:12:14.059Z</time></trkpt><trkpt lat="44.73588026325036" lon="8.83865181034858"><ele>229.0</ele><time>2026-04-03T15:12:23.999Z</time></trkpt><trkpt lat="44.73604714939511" lon="8.838708141665906"><ele>228.2</ele><time>2026-04-03T15:12:57.018Z</time></trkpt><trkpt lat="44.73612530659292" lon="8.838752889045686"><ele>227.39999999999998</ele><time>2026-04-03T15:13:21.017Z</time></trkpt><trkpt lat="44.736168835739704" lon="8.838847577342396"><ele>226.6</ele><time>2026-04-03T15:13:43.001Z</time></trkpt><trkpt lat="44.736189039656836" lon="8.838943102160659"><ele>225.8</ele><time>2026-04-03T15:13:52Z</time></trkpt><trkpt lat="44.73625309680556" lon="8.839010149421357"><ele>225.0</ele><time>2026-04-03T15:14:01Z</time></trkpt><trkpt lat="44.73618403435875" lon="8.838710198373654"><ele>225.0</ele><time>2026-04-03T15:14:06.067Z</time></trkpt><trkpt lat="44.73593543573988" lon="8.838881984650582"><ele>225.0</ele><time>2026-04-03T15:14:09Z</time></trkpt><trkpt lat="44.73609857428735" lon="8.838913073623832"><ele>225.0</ele><time>2026-04-03T15:14:23Z</time></trkpt><trkpt lat="44.73598348969857" lon="8.838855492453966"><ele>225.0</ele><time>2026-04-03T15:14:28Z</time></trkpt><trkpt lat="44.73607827221994" lon="8.838810319018416"><ele>225.0</ele><time>2026-04-03T15:15:26.999Z</time></trkpt><trkpt lat="44.73614647802795" lon="8.838965560533392"><ele>225.0</ele><time>2026-04-03T15:15:31.999Z</time></trkpt><trkpt lat="44.73607396202139" lon="8.838937071912246"><ele>225.0</ele><time>2026-04-03T15:16:44.067Z</time></trkpt><trkpt lat="44.73597724390796" lon="8.838657356547225"><ele>226.0</ele><time>2026-04-03T15:16:50.143Z</time></trkpt><trkpt lat="44.73582132526198" lon="8.838504757527007"><ele>227.0</ele><time>2026-04-03T15:19:09.519Z</time></trkpt><trkpt lat="44.735884397102296" lon="8.838544902952162"><ele>228.0</ele><time>2026-04-03T15:20:02.48Z</time></trkpt><trkpt lat="44.736023941255894" lon="8.83857769144232"><ele>229.0</ele><time>2026-04-03T15:20:08.489Z</time></trkpt><trkpt lat="44.73590038761195" lon="8.838634092335889"><ele>228.99999999999997</ele><time>2026-04-03T15:21:50.478Z</time></trkpt><trkpt lat="44.73583348874891" lon="8.838609542825479"><ele>229.0</ele><time>2026-04-03T15:21:56.477Z</time></trkpt><trkpt lat="44.73594156593724" lon="8.838625222856717"><ele>229.0</ele><time>2026-04-03T15:22:30.996Z</time></trkpt><trkpt lat="44.73603653564118" lon="8.838637379979101"><ele>229.0</ele><time>2026-04-03T15:22:34.996Z</time></trkpt><trkpt lat="44.73604601896895" lon="8.838548080744369"><ele>228.99999999999997</ele><time>2026-04-03T15:22:38.996Z</time></trkpt><trkpt lat="44.7361284909955" lon="8.838598956190479"><ele>229.0</ele><time>2026-04-03T15:23:05Z</time></trkpt><trkpt lat="44.7360030718591" lon="8.83866478158518"><ele>228.66666666666666</ele><time>2026-04-03T15:24:10.999Z</time></trkpt><trkpt lat="44.73610842766621" lon="8.83875317566845"><ele>228.33333333333331</ele><time>2026-04-03T15:24:14.999Z</time></trkpt><trkpt lat="44.736115992275955" lon="8.838648749029431"><ele>228.0</ele><time>2026-04-03T15:24:16.999Z</time></trkpt><trkpt lat="44.736073893437975" lon="8.83856705568617"><ele>227.66666666666669</ele><time>2026-04-03T15:24:21.999Z</time></trkpt><trkpt lat="44.73610350001801" lon="8.838480072001673"><ele>227.33333333333334</ele><time>2026-04-03T15:24:27.999Z</time></trkpt><trkpt lat="44.73615883294758" lon="8.838419913798102"><ele>227.0</ele><time>2026-04-03T15:24:33.999Z</time></trkpt><trkpt lat="44.73609787705534" lon="8.838380706910321"><ele>226.71428571428572</ele><time>2026-04-03T15:25:09Z</time></trkpt><trkpt lat="44.736064497436566" lon="8.838472492316466"><ele>226.42857142857144</ele><time>2026-04-03T15:25:18Z</time></trkpt><trkpt lat="44.736047185795336" lon="8.838564955539209"><ele>226.14285714285717</ele><time>2026-04-03T15:25:26Z</time></trkpt><trkpt lat="44.73602862765223" lon="8.838661164437564"><ele>225.8571428571429</ele><time>2026-04-03T15:25:34Z</time></trkpt><trkpt lat="44.735957199540515" lon="8.838659724700825"><ele>225.57142857142858</ele><time>2026-04-03T15:25:39Z</time></trkpt><trkpt lat="44.73588554970899" lon="8.838657170290865"><ele>225.28571428571433</ele><time>2026-04-03T15:25:44Z</time></trkpt><trkpt lat="44.735821054332064" lon="8.838651218877414"><ele>225.00000000000003</ele><time>2026-04-03T15:25:49Z</time></trkpt><trkpt lat="44.7357563142394" lon="8.838647915441786"><ele>225.5714285714286</ele><time>2026-04-03T15:25:55.999Z</time></trkpt><trkpt lat="44.73569659825903" lon="8.838613895861997"><ele>226.14285714285717</ele><time>2026-04-03T15:26:00.999Z</time></trkpt><trkpt lat="44.73564077816475" lon="8.838559684236044"><ele>226.71428571428572</ele><time>2026-04-03T15:26:06.999Z</time></trkpt><trkpt lat="44.73559165145958" lon="8.838502417737688"><ele>227.2857142857143</ele><time>2026-04-03T15:26:12.999Z</time></trkpt><trkpt lat="44.735530396042215" lon="8.838457965259126"><ele>227.8571428571429</ele><time>2026-04-03T15:26:18.999Z</time></trkpt><trkpt lat="44.73546301504472" lon="8.838427230238095"><ele>228.42857142857142</ele><time>2026-04-03T15:26:25.999Z</time></trkpt><trkpt lat="44.73542042212684" lon="8.838360680244868"><ele>229.0</ele><time>2026-04-03T15:26:30.999Z</time></trkpt><trkpt lat="44.73537938003751" lon="8.838285216109039"><ele>229.14285714285714</ele><time>2026-04-03T15:26:36.999Z</time></trkpt><trkpt lat="44.73533519839532" lon="8.838210322568642"><ele>229.28571428571428</ele><time>2026-04-03T15:26:42.999Z</time></trkpt><trkpt lat="44.73528134466336" lon="8.838147732739785"><ele>229.42857142857142</ele><time>2026-04-03T15:26:50.999Z</time></trkpt><trkpt lat="44.73522799052225" lon="8.838200397367446"><ele>229.57142857142856</ele><time>2026-04-03T15:26:57.999Z</time></trkpt><trkpt lat="44.73516215585571" lon="8.838171314911708"><ele>229.71428571428572</ele><time>2026-04-03T15:27:05.999Z</time></trkpt><trkpt lat="44.73510158532804" lon="8.83813763977092"><ele>229.85714285714283</ele><time>2026-04-03T15:27:09.999Z</time></trkpt><trkpt lat="44.735040377069026" lon="8.838096896403819"><ele>229.99999999999997</ele><time>2026-04-03T15:27:14.999Z</time></trkpt><trkpt lat="44.73498455062154" lon="8.838047218839444"><ele>229.99999999999997</ele><time>2026-04-03T15:27:20.999Z</time></trkpt><trkpt lat="44.73492149898408" lon="8.838045922748048"><ele>230.0</ele><time>2026-04-03T15:27:28.999Z</time></trkpt><trkpt lat="44.734883210043776" lon="8.838126235935269"><ele>229.99999999999997</ele><time>2026-04-03T15:27:34.999Z</time></trkpt><trkpt lat="44.73481693533053" lon="8.838127821169314"><ele>229.99999999999997</ele><time>2026-04-03T15:27:39.999Z</time></trkpt><trkpt lat="44.73474751125045" lon="8.838143952184705"><ele>230.0</ele><time>2026-04-03T15:27:45.999Z</time></trkpt><trkpt lat="44.734684587207475" lon="8.838175690741984"><ele>229.99999999999997</ele><time>2026-04-03T15:27:52.999Z</time></trkpt><trkpt lat="44.73468100091651" lon="8.83827429239701"><ele>229.99999999999997</ele><time>2026-04-03T15:31:33Z</time></trkpt><trkpt lat="44.7347446662614" lon="8.838312987821864"><ele>230.00000000000003</ele><time>2026-04-03T15:31:37Z</time></trkpt><trkpt lat="44.73480498422374" lon="8.83822028403898"><ele>230.0</ele><time>2026-04-03T15:31:39Z</time></trkpt><trkpt lat="44.73484430608225" lon="8.838139231937436"><ele>230.0</ele><time>2026-04-03T15:31:41Z</time></trkpt><trkpt lat="44.73488868754059" lon="8.838032931233291"><ele>230.0</ele><time>2026-04-03T15:31:44Z</time></trkpt><trkpt lat="44.73493634370569" lon="8.837951711452263"><ele>230.00000000000003</ele><time>2026-04-03T15:31:47Z</time></trkpt><trkpt lat="44.734986027638186" lon="8.83786087255962"><ele>230.0</ele><time>2026-04-03T15:31:49Z</time></trkpt><trkpt lat="44.735045595707874" lon="8.8377435688803"><ele>230.0</ele><time>2026-04-03T15:31:51Z</time></trkpt><trkpt lat="44.7351078339937" lon="8.837604337311411"><ele>230.0</ele><time>2026-04-03T15:31:53Z</time></trkpt><trkpt lat="44.73516727073945" lon="8.837483199018179"><ele>230.0</ele><time>2026-04-03T15:31:55Z</time></trkpt><trkpt lat="44.73519316066007" lon="8.837336361394478"><ele>230.0</ele><time>2026-04-03T15:31:57Z</time></trkpt><trkpt lat="44.735131413142035" lon="8.837272709913666"><ele>230.0</ele><time>2026-04-03T15:31:58Z</time></trkpt><trkpt lat="44.735068959279936" lon="8.837177312055221"><ele>230.00000000000003</ele><time>2026-04-03T15:32:00Z</time></trkpt><trkpt lat="44.735040461736816" lon="8.837092489338179"><ele>230.0</ele><time>2026-04-03T15:32:02Z</time></trkpt><trkpt lat="44.73500153207109" lon="8.836974115103132"><ele>230.0</ele><time>2026-04-03T15:32:03.999Z</time></trkpt><trkpt lat="44.734925934093795" lon="8.836835188713724"><ele>230.0</ele><time>2026-04-03T15:32:05.999Z</time></trkpt><trkpt lat="44.734865300219504" lon="8.836796776741535"><ele>230.00000000000003</ele><time>2026-04-03T15:32:06.999Z</time></trkpt><trkpt lat="44.73479841231335" lon="8.836769944238828"><ele>230.0</ele><time>2026-04-03T15:32:07.999Z</time></trkpt><trkpt lat="44.73473792319642" lon="8.836739061688931"><ele>230.16666666666669</ele><time>2026-04-03T15:32:08.999Z</time></trkpt><trkpt lat="44.73467815189458" lon="8.836710841243264"><ele>230.33333333333334</ele><time>2026-04-03T15:32:09.999Z</time></trkpt><trkpt lat="44.73457429100196" lon="8.836694730883728"><ele>230.5</ele><time>2026-04-03T15:32:11.999Z</time></trkpt><trkpt lat="44.73446401290178" lon="8.836645880101207"><ele>230.66666666666669</ele><time>2026-04-03T15:32:13.999Z</time></trkpt><trkpt lat="44.73439515475101" lon="8.836621642631613"><ele>230.83333333333334</ele><time>2026-04-03T15:32:14.999Z</time></trkpt><trkpt lat="44.73432607133754" lon="8.836596907417722"><ele>231.0</ele><time>2026-04-03T15:32:15.999Z</time></trkpt><trkpt lat="44.73425492749939" lon="8.836571568159092"><ele>230.57142857142856</ele><time>2026-04-03T15:32:16.999Z</time></trkpt><trkpt lat="44.73417992810585" lon="8.83656836001187"><ele>230.14285714285714</ele><time>2026-04-03T15:32:17.999Z</time></trkpt><trkpt lat="44.73410555404961" lon="8.836542070070326"><ele>229.71428571428572</ele><time>2026-04-03T15:32:18.999Z</time></trkpt><trkpt lat="44.734029083247876" lon="8.836514629980575"><ele>229.28571428571428</ele><time>2026-04-03T15:32:19.999Z</time></trkpt><trkpt lat="44.733955221913526" lon="8.836487207595118"><ele>228.85714285714283</ele><time>2026-04-03T15:32:20.999Z</time></trkpt><trkpt lat="44.733888992120555" lon="8.836463320066812"><ele>228.42857142857142</ele><time>2026-04-03T15:32:21.999Z</time></trkpt><trkpt lat="44.73382374969361" lon="8.836463659001218"><ele>228.0</ele><time>2026-04-03T15:32:22.999Z</time></trkpt><trkpt lat="44.733734185049464" lon="8.836579570610201"><ele>228.0</ele><time>2026-04-03T15:32:24.999Z</time></trkpt><trkpt lat="44.73372396649952" lon="8.83675602953008"><ele>228.0</ele><time>2026-04-03T15:32:26.999Z</time></trkpt><trkpt lat="44.733721137672276" lon="8.836851263703606"><ele>228.0</ele><time>2026-04-03T15:32:27.999Z</time></trkpt><trkpt lat="44.73371745945427" lon="8.83695266175761"><ele>228.0</ele><time>2026-04-03T15:32:28.999Z</time></trkpt><trkpt lat="44.73372325725597" lon="8.837050040140337"><ele>228.0</ele><time>2026-04-03T15:32:29.999Z</time></trkpt><trkpt lat="44.7337322741039" lon="8.837149721584742"><ele>228.0</ele><time>2026-04-03T15:32:30.999Z</time></trkpt><trkpt lat="44.733743955340174" lon="8.837245542106626"><ele>228.0</ele><time>2026-04-03T15:32:31.999Z</time></trkpt><trkpt lat="44.73375391377252" lon="8.83733525904388"><ele>228.0</ele><time>2026-04-03T15:32:32.999Z</time></trkpt><trkpt lat="44.733793322337625" lon="8.837449490234551"><ele>228.0</ele><time>2026-04-03T15:32:34.999Z</time></trkpt><trkpt lat="44.73368293811974" lon="8.837512887475835"><ele>228.0</ele><time>2026-04-03T15:32:35.999Z</time></trkpt><trkpt lat="44.733584691037606" lon="8.837541626470934"><ele>228.0</ele><time>2026-04-03T15:32:37.999Z</time></trkpt><trkpt lat="44.73352114502961" lon="8.837541605618402"><ele>228.0</ele><time>2026-04-03T15:32:38.999Z</time></trkpt><trkpt lat="44.7334571289924" lon="8.837540301639507"><ele>228.0</ele><time>2026-04-03T15:32:39.999Z</time></trkpt><trkpt lat="44.733330652899035" lon="8.837530231692385"><ele>228.0</ele><time>2026-04-03T15:32:41.999Z</time></trkpt><trkpt lat="44.73326402120053" lon="8.837530508018027"><ele>228.0</ele><time>2026-04-03T15:32:42.999Z</time></trkpt><trkpt lat="44.733195403008395" lon="8.837537121577032"><ele>228.0</ele><time>2026-04-03T15:32:43.999Z</time></trkpt><trkpt lat="44.733128832148616" lon="8.837535830592936"><ele>228.0</ele><time>2026-04-03T15:32:44.999Z</time></trkpt><trkpt lat="44.73306291525481" lon="8.83753593861506"><ele>228.0</ele><time>2026-04-03T15:32:45.999Z</time></trkpt><trkpt lat="44.73294638152634" lon="8.837532983669847"><ele>228.0</ele><time>2026-04-03T15:32:47.999Z</time></trkpt><trkpt lat="44.73286714288149" lon="8.837530835656858"><ele>228.0</ele><time>2026-04-03T15:32:49.999Z</time></trkpt><trkpt lat="44.73279906879736" lon="8.837526514551072"><ele>228.0</ele><time>2026-04-03T15:32:51.999Z</time></trkpt><trkpt lat="44.73272447341654" lon="8.837458312213213"><ele>228.0</ele><time>2026-04-03T15:32:53.999Z</time></trkpt><trkpt lat="44.73267254821394" lon="8.837327493797737"><ele>228.0</ele><time>2026-04-03T15:32:55.999Z</time></trkpt><trkpt lat="44.73262579881688" lon="8.837261955055583"><ele>228.0</ele><time>2026-04-03T15:32:56.999Z</time></trkpt><trkpt lat="44.73256852430533" lon="8.837210500790587"><ele>227.83333333333334</ele><time>2026-04-03T15:32:57.999Z</time></trkpt><trkpt lat="44.73249263894473" lon="8.837209375451117"><ele>227.66666666666669</ele><time>2026-04-03T15:32:58.999Z</time></trkpt><trkpt lat="44.73242035108621" lon="8.837210345859773"><ele>227.5</ele><time>2026-04-03T15:32:59.999Z</time></trkpt><trkpt lat="44.732351400052316" lon="8.837243089199589"><ele>227.33333333333334</ele><time>2026-04-03T15:33:00.999Z</time></trkpt><trkpt lat="44.732293807900064" lon="8.837306672220073"><ele>227.16666666666669</ele><time>2026-04-03T15:33:01.999Z</time></trkpt><trkpt lat="44.73222931597137" lon="8.837328620910299"><ele>227.0</ele><time>2026-04-03T15:33:02.999Z</time></trkpt><trkpt lat="44.73223021188585" lon="8.837495026472913"><ele>227.0</ele><time>2026-04-03T15:33:03.999Z</time></trkpt><trkpt lat="44.732216093302085" lon="8.837608089121815"><ele>227.0</ele><time>2026-04-03T15:33:04.999Z</time></trkpt><trkpt lat="44.73220294334374" lon="8.837722243380611"><ele>227.0</ele><time>2026-04-03T15:33:05.999Z</time></trkpt><trkpt lat="44.732182190336076" lon="8.837843878433176"><ele>227.0</ele><time>2026-04-03T15:33:06.999Z</time></trkpt><trkpt lat="44.73214262315943" lon="8.837966693640132"><ele>227.0</ele><time>2026-04-03T15:33:07.999Z</time></trkpt><trkpt lat="44.732076823742126" lon="8.838085486058647"><ele>227.5</ele><time>2026-04-03T15:33:09Z</time></trkpt><trkpt lat="44.731997588113565" lon="8.838203134580096"><ele>228.0</ele><time>2026-04-03T15:33:10Z</time></trkpt><trkpt lat="44.73191938400123" lon="8.838328588284112"><ele>228.5</ele><time>2026-04-03T15:33:11Z</time></trkpt><trkpt lat="44.73183976362447" lon="8.838472646249617"><ele>229.0</ele><time>2026-04-03T15:33:12Z</time></trkpt><trkpt lat="44.73175679702493" lon="8.838621293487035"><ele>229.25</ele><time>2026-04-03T15:33:13Z</time></trkpt><trkpt lat="44.731670886819764" lon="8.83876701091362"><ele>229.5</ele><time>2026-04-03T15:33:14Z</time></trkpt><trkpt lat="44.73158473358795" lon="8.838921101257016"><ele>229.75</ele><time>2026-04-03T15:33:15Z</time></trkpt><trkpt lat="44.731508249736024" lon="8.839092212889287"><ele>230.0</ele><time>2026-04-03T15:33:16Z</time></trkpt><trkpt lat="44.73144785068914" lon="8.839280801561262"><ele>230.33333333333334</ele><time>2026-04-03T15:33:17Z</time></trkpt><trkpt lat="44.73140056888706" lon="8.839488131984734"><ele>230.66666666666669</ele><time>2026-04-03T15:33:18Z</time></trkpt><trkpt lat="44.731368894249094" lon="8.839704793903765"><ele>231.0</ele><time>2026-04-03T15:33:19Z</time></trkpt><trkpt lat="44.73135095196421" lon="8.839926941139716"><ele>230.75</ele><time>2026-04-03T15:33:20Z</time></trkpt><trkpt lat="44.73134748467321" lon="8.840139831967575"><ele>230.5</ele><time>2026-04-03T15:33:21Z</time></trkpt><trkpt lat="44.73135148780517" lon="8.84033997135764"><ele>230.25</ele><time>2026-04-03T15:33:22Z</time></trkpt><trkpt lat="44.73135796054626" lon="8.840525129631853"><ele>230.0</ele><time>2026-04-03T15:33:23Z</time></trkpt><trkpt lat="44.73136641844588" lon="8.840693963598518"><ele>230.0</ele><time>2026-04-03T15:33:24Z</time></trkpt><trkpt lat="44.731368053427616" lon="8.840849436749721"><ele>230.0</ele><time>2026-04-03T15:33:25Z</time></trkpt><trkpt lat="44.73134523791137" lon="8.840987590164778"><ele>230.0</ele><time>2026-04-03T15:33:26Z</time></trkpt><trkpt lat="44.731294051907014" lon="8.841103810799966"><ele>230.0</ele><time>2026-04-03T15:33:27Z</time></trkpt><trkpt lat="44.73123202567" lon="8.841197515807771"><ele>230.0</ele><time>2026-04-03T15:33:28Z</time></trkpt><trkpt lat="44.731186306092006" lon="8.84130109118013"><ele>230.8</ele><time>2026-04-03T15:33:29Z</time></trkpt><trkpt lat="44.73117609620168" lon="8.841413732956271"><ele>231.6</ele><time>2026-04-03T15:33:30Z</time></trkpt><trkpt lat="44.731189671627895" lon="8.841534129547474"><ele>232.39999999999998</ele><time>2026-04-03T15:33:31Z</time></trkpt><trkpt lat="44.731233258797666" lon="8.841647139944278"><ele>233.2</ele><time>2026-04-03T15:33:32Z</time></trkpt><trkpt lat="44.73130597125636" lon="8.84174727140661"><ele>234.0</ele><time>2026-04-03T15:33:33Z</time></trkpt><trkpt lat="44.73137552426735" lon="8.841855853396336"><ele>234.25</ele><time>2026-04-03T15:33:34Z</time></trkpt><trkpt lat="44.731415686719174" lon="8.841999471495582"><ele>234.5</ele><time>2026-04-03T15:33:35Z</time></trkpt><trkpt lat="44.73142586198396" lon="8.842167691417409"><ele>234.75</ele><time>2026-04-03T15:33:36Z</time></trkpt><trkpt lat="44.73142486388031" lon="8.84234575131255"><ele>235.0</ele><time>2026-04-03T15:33:37Z</time></trkpt><trkpt lat="44.73142563189443" lon="8.842529282778559"><ele>235.25</ele><time>2026-04-03T15:33:38Z</time></trkpt><trkpt lat="44.731431984316764" lon="8.842720761042289"><ele>235.5</ele><time>2026-04-03T15:33:39Z</time></trkpt><trkpt lat="44.73144062761603" lon="8.842925563414633"><ele>235.75</ele><time>2026-04-03T15:33:40Z</time></trkpt><trkpt lat="44.73144592559705" lon="8.843138670248537"><ele>236.0</ele><time>2026-04-03T15:33:41Z</time></trkpt><trkpt lat="44.7314525410453" lon="8.843361246036466"><ele>235.33333333333334</ele><time>2026-04-03T15:33:42Z</time></trkpt><trkpt lat="44.73146088903953" lon="8.84358810978217"><ele>234.66666666666669</ele><time>2026-04-03T15:33:43Z</time></trkpt><trkpt lat="44.73147040603697" lon="8.843817966031839"><ele>234.0</ele><time>2026-04-03T15:33:44Z</time></trkpt><trkpt lat="44.7314798715847" lon="8.844055560541024"><ele>234.0</ele><time>2026-04-03T15:33:45Z</time></trkpt><trkpt lat="44.73148978373779" lon="8.844291620752484"><ele>234.0</ele><time>2026-04-03T15:33:46Z</time></trkpt><trkpt lat="44.731499534975256" lon="8.844534545181519"><ele>234.0</ele><time>2026-04-03T15:33:47Z</time></trkpt><trkpt lat="44.73150605168839" lon="8.844777565080935"><ele>232.66666666666669</ele><time>2026-04-03T15:33:48Z</time></trkpt><trkpt lat="44.73150159120155" lon="8.845022758676583"><ele>231.33333333333334</ele><time>2026-04-03T15:33:49Z</time></trkpt><trkpt lat="44.73147537013558" lon="8.845260982690219"><ele>230.0</ele><time>2026-04-03T15:33:50Z</time></trkpt><trkpt lat="44.73142205497756" lon="8.845495710228404"><ele>227.66666666666669</ele><time>2026-04-03T15:33:51Z</time></trkpt><trkpt lat="44.731350200439614" lon="8.84572005839221"><ele>225.33333333333331</ele><time>2026-04-03T15:33:52Z</time></trkpt><trkpt lat="44.73128018218719" lon="8.845937588873342"><ele>223.0</ele><time>2026-04-03T15:33:53Z</time></trkpt><trkpt lat="44.73121937723264" lon="8.846157932115906"><ele>221.0</ele><time>2026-04-03T15:33:54Z</time></trkpt><trkpt lat="44.73116095729354" lon="8.846371441091833"><ele>219.0</ele><time>2026-04-03T15:33:55Z</time></trkpt><trkpt lat="44.73110310956976" lon="8.846583669291322"><ele>217.0</ele><time>2026-04-03T15:33:56Z</time></trkpt><trkpt lat="44.73104724843473" lon="8.846789423676391"><ele>219.0</ele><time>2026-04-03T15:33:57Z</time></trkpt><trkpt lat="44.7309931839576" lon="8.84697876312171"><ele>221.0</ele><time>2026-04-03T15:33:58Z</time></trkpt><trkpt lat="44.73094321295266" lon="8.84715933850008"><ele>223.0</ele><time>2026-04-03T15:33:59Z</time></trkpt><trkpt lat="44.7308984244647" lon="8.847317391516453"><ele>225.0</ele><time>2026-04-03T15:34:00Z</time></trkpt><trkpt lat="44.73086111133674" lon="8.847452621648824"><ele>225.0</ele><time>2026-04-03T15:34:01Z</time></trkpt><trkpt lat="44.73082890456419" lon="8.847565733658502"><ele>225.0</ele><time>2026-04-03T15:34:02Z</time></trkpt><trkpt lat="44.73079987111544" lon="8.84766633229438"><ele>225.0</ele><time>2026-04-03T15:34:02.999Z</time></trkpt><trkpt lat="44.730770401215345" lon="8.847758636226901"><ele>225.0</ele><time>2026-04-03T15:34:03.999Z</time></trkpt><trkpt lat="44.73072927122107" lon="8.847896005018118"><ele>225.0</ele><time>2026-04-03T15:34:05.999Z</time></trkpt><trkpt lat="44.73069775284058" lon="8.848004454859147"><ele>225.0</ele><time>2026-04-03T15:34:07.999Z</time></trkpt><trkpt lat="44.73066685704137" lon="8.848114035478625"><ele>223.8</ele><time>2026-04-03T15:34:09.999Z</time></trkpt><trkpt lat="44.73062674754322" lon="8.848268986333334"><ele>222.6</ele><time>2026-04-03T15:34:11.999Z</time></trkpt><trkpt lat="44.73058796167334" lon="8.848427457317028"><ele>221.39999999999998</ele><time>2026-04-03T15:34:13.999Z</time></trkpt><trkpt lat="44.73054983699116" lon="8.848565270631168"><ele>220.2</ele><time>2026-04-03T15:34:15.999Z</time></trkpt><trkpt lat="44.730515138642545" lon="8.848707198199016"><ele>219.0</ele><time>2026-04-03T15:34:17.999Z</time></trkpt><trkpt lat="44.73048203093823" lon="8.848829920577232"><ele>218.83333333333334</ele><time>2026-04-03T15:34:19.999Z</time></trkpt><trkpt lat="44.73045663012509" lon="8.848932914288897"><ele>218.66666666666669</ele><time>2026-04-03T15:34:21.999Z</time></trkpt><trkpt lat="44.730428317269656" lon="8.849022740881672"><ele>218.5</ele><time>2026-04-03T15:34:23.999Z</time></trkpt><trkpt lat="44.73039719199245" lon="8.849123436980232"><ele>218.33333333333334</ele><time>2026-04-03T15:34:25.999Z</time></trkpt><trkpt lat="44.73036737798648" lon="8.849255916205772"><ele>218.16666666666669</ele><time>2026-04-03T15:34:27.999Z</time></trkpt><trkpt lat="44.73032940992551" lon="8.849394268657134"><ele>218.0</ele><time>2026-04-03T15:34:29.999Z</time></trkpt><trkpt lat="44.73028429737126" lon="8.84955149484605"><ele>217.8</ele><time>2026-04-03T15:34:31.999Z</time></trkpt><trkpt lat="44.73024084702427" lon="8.849720487735317"><ele>217.60000000000002</ele><time>2026-04-03T15:34:33.999Z</time></trkpt><trkpt lat="44.73019770219687" lon="8.84986789836838"><ele>217.39999999999998</ele><time>2026-04-03T15:34:35.999Z</time></trkpt><trkpt lat="44.730176828139804" lon="8.849952780389792"><ele>217.2</ele><time>2026-04-03T15:34:36.999Z</time></trkpt><trkpt lat="44.73014086707009" lon="8.850099996731595"><ele>217.0</ele><time>2026-04-03T15:34:38.999Z</time></trkpt><trkpt lat="44.7301071285265" lon="8.85023819338447"><ele>216.99999999999997</ele><time>2026-04-03T15:34:40.999Z</time></trkpt><trkpt lat="44.73007097630947" lon="8.850349441111772"><ele>217.0</ele><time>2026-04-03T15:34:42.999Z</time></trkpt><trkpt lat="44.730028074389416" lon="8.85045362440402"><ele>217.0</ele><time>2026-04-03T15:34:44.999Z</time></trkpt><trkpt lat="44.72998512802408" lon="8.850560481058219"><ele>217.0</ele><time>2026-04-03T15:34:46.999Z</time></trkpt><trkpt lat="44.72995798217864" lon="8.850643122820596"><ele>216.99999999999997</ele><time>2026-04-03T15:34:48.999Z</time></trkpt><trkpt lat="44.72991127168935" lon="8.850748376835295"><ele>217.0</ele><time>2026-04-03T15:34:51.999Z</time></trkpt><trkpt lat="44.72986440618956" lon="8.85080842298344"><ele>217.0</ele><time>2026-04-03T15:34:52.999Z</time></trkpt><trkpt lat="44.72981877074527" lon="8.8508923336916"><ele>217.0</ele><time>2026-04-03T15:34:53.999Z</time></trkpt><trkpt lat="44.72979577796042" lon="8.850979008018692"><ele>217.0</ele><time>2026-04-03T15:34:54.999Z</time></trkpt><trkpt lat="44.729791842717894" lon="8.851077242294949"><ele>217.0</ele><time>2026-04-03T15:34:55.999Z</time></trkpt><trkpt lat="44.7298016424845" lon="8.851182131719458"><ele>217.0</ele><time>2026-04-03T15:34:56.999Z</time></trkpt><trkpt lat="44.729811304349525" lon="8.85129120565209"><ele>217.0</ele><time>2026-04-03T15:34:57.999Z</time></trkpt><trkpt lat="44.72986162051657" lon="8.851358731277136"><ele>217.0</ele><time>2026-04-03T15:34:58.999Z</time></trkpt><trkpt lat="44.7297976830695" lon="8.851504998142127"><ele>216.83333333333331</ele><time>2026-04-03T15:34:59.999Z</time></trkpt><trkpt lat="44.72975415031685" lon="8.851596603692684"><ele>216.66666666666666</ele><time>2026-04-03T15:35:00.999Z</time></trkpt><trkpt lat="44.72970997427364" lon="8.851683298374962"><ele>216.5</ele><time>2026-04-03T15:35:01.999Z</time></trkpt><trkpt lat="44.72966164128683" lon="8.851776793739077"><ele>216.33333333333331</ele><time>2026-04-03T15:35:02.999Z</time></trkpt><trkpt lat="44.72961130127509" lon="8.851870863789767"><ele>216.16666666666666</ele><time>2026-04-03T15:35:03.999Z</time></trkpt><trkpt lat="44.72956302084154" lon="8.851961084775924"><ele>216.0</ele><time>2026-04-03T15:35:04.999Z</time></trkpt><trkpt lat="44.7295152299647" lon="8.852050391461438"><ele>215.83333333333334</ele><time>2026-04-03T15:35:05.999Z</time></trkpt><trkpt lat="44.729468305274686" lon="8.852138959911764"><ele>215.66666666666669</ele><time>2026-04-03T15:35:06.999Z</time></trkpt><trkpt lat="44.729420642375956" lon="8.852229328694671"><ele>215.5</ele><time>2026-04-03T15:35:07.999Z</time></trkpt><trkpt lat="44.72936866662572" lon="8.852320820503017"><ele>215.33333333333334</ele><time>2026-04-03T15:35:08.999Z</time></trkpt><trkpt lat="44.7293198923066" lon="8.852419581964476"><ele>215.16666666666669</ele><time>2026-04-03T15:35:09.999Z</time></trkpt><trkpt lat="44.729260082698815" lon="8.852532509601543"><ele>215.0</ele><time>2026-04-03T15:35:10.999Z</time></trkpt><trkpt lat="44.72919329134002" lon="8.852659341317567"><ele>215.0</ele><time>2026-04-03T15:35:11.999Z</time></trkpt><trkpt lat="44.7291209259664" lon="8.852796993141242"><ele>215.0</ele><time>2026-04-03T15:35:12.999Z</time></trkpt><trkpt lat="44.7290452655766" lon="8.852940912679474"><ele>215.0</ele><time>2026-04-03T15:35:13.999Z</time></trkpt><trkpt lat="44.72896798849931" lon="8.853092318917174"><ele>215.0</ele><time>2026-04-03T15:35:14.999Z</time></trkpt><trkpt lat="44.728902867366486" lon="8.853253268390747"><ele>215.0</ele><time>2026-04-03T15:35:15.999Z</time></trkpt><trkpt lat="44.72886990201758" lon="8.853426305100399"><ele>215.0</ele><time>2026-04-03T15:35:16.999Z</time></trkpt><trkpt lat="44.72888779869572" lon="8.853591505979448"><ele>215.0</ele><time>2026-04-03T15:35:17.999Z</time></trkpt><trkpt lat="44.72882170408759" lon="8.853776440862056"><ele>215.0</ele><time>2026-04-03T15:35:18.999Z</time></trkpt><trkpt lat="44.72882096040191" lon="8.853952663842895"><ele>214.25</ele><time>2026-04-03T15:35:19.999Z</time></trkpt><trkpt lat="44.72881900142786" lon="8.854129177556706"><ele>213.5</ele><time>2026-04-03T15:35:20.999Z</time></trkpt><trkpt lat="44.728817632464065" lon="8.854292934456602"><ele>212.75</ele><time>2026-04-03T15:35:21.999Z</time></trkpt><trkpt lat="44.72881873279172" lon="8.854462007332318"><ele>212.0</ele><time>2026-04-03T15:35:22.999Z</time></trkpt><trkpt lat="44.72881108533024" lon="8.854628484667886"><ele>210.25</ele><time>2026-04-03T15:35:23.999Z</time></trkpt><trkpt lat="44.72880812429355" lon="8.854806883816343"><ele>208.5</ele><time>2026-04-03T15:35:24.999Z</time></trkpt><trkpt lat="44.72880340709173" lon="8.854984942894864"><ele>206.75</ele><time>2026-04-03T15:35:25.999Z</time></trkpt><trkpt lat="44.728798590962484" lon="8.855175748379049"><ele>205.0</ele><time>2026-04-03T15:35:26.999Z</time></trkpt><trkpt lat="44.72879445409663" lon="8.855372504961567"><ele>204.25</ele><time>2026-04-03T15:35:27.999Z</time></trkpt><trkpt lat="44.72878866126617" lon="8.855574483203844"><ele>203.5</ele><time>2026-04-03T15:35:28.999Z</time></trkpt><trkpt lat="44.728776959460724" lon="8.855780794320534"><ele>202.75</ele><time>2026-04-03T15:35:29.999Z</time></trkpt><trkpt lat="44.72875166479632" lon="8.855976011302044"><ele>202.0</ele><time>2026-04-03T15:35:31Z</time></trkpt><trkpt lat="44.7287091122508" lon="8.856158407848941"><ele>202.0</ele><time>2026-04-03T15:35:32Z</time></trkpt><trkpt lat="44.728642758655255" lon="8.856330826485014"><ele>202.0</ele><time>2026-04-03T15:35:33Z</time></trkpt><trkpt lat="44.72855861136135" lon="8.856484481941601"><ele>202.0</ele><time>2026-04-03T15:35:34Z</time></trkpt><trkpt lat="44.728459365320525" lon="8.85661820325972"><ele>202.0</ele><time>2026-04-03T15:35:35Z</time></trkpt><trkpt lat="44.72834753469757" lon="8.856729076258185"><ele>202.25</ele><time>2026-04-03T15:35:36Z</time></trkpt><trkpt lat="44.728229567986084" lon="8.856820632566963"><ele>202.5</ele><time>2026-04-03T15:35:37Z</time></trkpt><trkpt lat="44.72811655272796" lon="8.856907058271268"><ele>202.75</ele><time>2026-04-03T15:35:38Z</time></trkpt><trkpt lat="44.72800820468782" lon="8.85698811520768"><ele>203.0</ele><time>2026-04-03T15:35:39Z</time></trkpt><trkpt lat="44.72790582657939" lon="8.857065098973544"><ele>203.00000000000003</ele><time>2026-04-03T15:35:40Z</time></trkpt><trkpt lat="44.727817042508065" lon="8.85713104827538"><ele>203.0</ele><time>2026-04-03T15:35:40.999Z</time></trkpt><trkpt lat="44.72774238612203" lon="8.857174125771612"><ele>203.0</ele><time>2026-04-03T15:35:41.999Z</time></trkpt><trkpt lat="44.72767262102453" lon="8.857178575363182"><ele>203.0</ele><time>2026-04-03T15:35:42.999Z</time></trkpt><trkpt lat="44.72759739237915" lon="8.857130749726004"><ele>203.00000000000003</ele><time>2026-04-03T15:35:44.999Z</time></trkpt><trkpt lat="44.72757510273455" lon="8.856977856066264"><ele>203.0</ele><time>2026-04-03T15:35:45.999Z</time></trkpt><trkpt lat="44.727588432311805" lon="8.85688060392884"><ele>203.60000000000002</ele><time>2026-04-03T15:35:46.999Z</time></trkpt><trkpt lat="44.72762985923895" lon="8.856791571592295"><ele>204.20000000000002</ele><time>2026-04-03T15:35:47.999Z</time></trkpt><trkpt lat="44.72770395046757" lon="8.85672237785479"><ele>204.8</ele><time>2026-04-03T15:35:48.999Z</time></trkpt><trkpt lat="44.727793700774214" lon="8.856669733692641"><ele>205.4</ele><time>2026-04-03T15:35:49.999Z</time></trkpt><trkpt lat="44.72790205641016" lon="8.856622547639473"><ele>206.0</ele><time>2026-04-03T15:35:50.999Z</time></trkpt><trkpt lat="44.72800951688494" lon="8.856571671893715"><ele>206.25</ele><time>2026-04-03T15:35:51.999Z</time></trkpt><trkpt lat="44.72812470565827" lon="8.856523807390966"><ele>206.5</ele><time>2026-04-03T15:35:52.999Z</time></trkpt><trkpt lat="44.728249737260484" lon="8.856487726059159"><ele>206.75</ele><time>2026-04-03T15:35:53.999Z</time></trkpt><trkpt lat="44.72838651695839" lon="8.856459901027966"><ele>207.0</ele><time>2026-04-03T15:35:54.999Z</time></trkpt><trkpt lat="44.728534086536605" lon="8.856435009809053"><ele>205.33333333333331</ele><time>2026-04-03T15:35:55.999Z</time></trkpt><trkpt lat="44.7286921886706" lon="8.856422153389982"><ele>203.66666666666666</ele><time>2026-04-03T15:35:56.999Z</time></trkpt><trkpt lat="44.728868496945566" lon="8.856419662767621"><ele>202.0</ele><time>2026-04-03T15:35:57.999Z</time></trkpt><trkpt lat="44.72904405095753" lon="8.856436395585336"><ele>202.0</ele><time>2026-04-03T15:35:58.999Z</time></trkpt><trkpt lat="44.72921872107161" lon="8.856441456796922"><ele>202.0</ele><time>2026-04-03T15:35:59.999Z</time></trkpt><trkpt lat="44.72940628934735" lon="8.85645025350651"><ele>202.0</ele><time>2026-04-03T15:36:00.999Z</time></trkpt><trkpt lat="44.72959595192988" lon="8.856455949691796"><ele>200.33333333333331</ele><time>2026-04-03T15:36:01.999Z</time></trkpt><trkpt lat="44.72979040847443" lon="8.856452579015405"><ele>198.66666666666669</ele><time>2026-04-03T15:36:02.999Z</time></trkpt><trkpt lat="44.729989081622314" lon="8.856437897084879"><ele>197.0</ele><time>2026-04-03T15:36:03.999Z</time></trkpt><trkpt lat="44.730189417534795" lon="8.856411520445427"><ele>195.66666666666669</ele><time>2026-04-03T15:36:04.999Z</time></trkpt><trkpt lat="44.73039339241804" lon="8.856365641303935"><ele>194.33333333333331</ele><time>2026-04-03T15:36:05.999Z</time></trkpt><trkpt lat="44.73060032396038" lon="8.856302863717556"><ele>193.0</ele><time>2026-04-03T15:36:06.999Z</time></trkpt><trkpt lat="44.73080825979386" lon="8.856213775116107"><ele>193.0</ele><time>2026-04-03T15:36:07.999Z</time></trkpt><trkpt lat="44.73101871820485" lon="8.856110109190988"><ele>193.0</ele><time>2026-04-03T15:36:08.999Z</time></trkpt><trkpt lat="44.731226765265234" lon="8.855987036149404"><ele>193.0</ele><time>2026-04-03T15:36:09.999Z</time></trkpt><trkpt lat="44.731432170178884" lon="8.855845513154195"><ele>195.0</ele><time>2026-04-03T15:36:10.999Z</time></trkpt><trkpt lat="44.7316428204067" lon="8.855686713698553"><ele>197.0</ele><time>2026-04-03T15:36:11.999Z</time></trkpt><trkpt lat="44.731856080851145" lon="8.855522131397734"><ele>196.0</ele><time>2026-04-03T15:36:12.999Z</time></trkpt><trkpt lat="44.73206658682701" lon="8.855353651175815"><ele>195.0</ele><time>2026-04-03T15:36:13.999Z</time></trkpt><trkpt lat="44.73227556809869" lon="8.855180070686547"><ele>195.5</ele><time>2026-04-03T15:36:14.999Z</time></trkpt><trkpt lat="44.73248622593152" lon="8.85500360871955"><ele>196.0</ele><time>2026-04-03T15:36:15.999Z</time></trkpt><trkpt lat="44.73269827764909" lon="8.854829344440416"><ele>194.5</ele><time>2026-04-03T15:36:16.999Z</time></trkpt><trkpt lat="44.73291254487878" lon="8.854657538417975"><ele>193.0</ele><time>2026-04-03T15:36:17.999Z</time></trkpt><trkpt lat="44.73313330930702" lon="8.85448599471503"><ele>193.0</ele><time>2026-04-03T15:36:18.999Z</time></trkpt><trkpt lat="44.73336060824348" lon="8.854311961017327"><ele>193.0</ele><time>2026-04-03T15:36:19.999Z</time></trkpt><trkpt lat="44.73359478314896" lon="8.854132609033057"><ele>193.0</ele><time>2026-04-03T15:36:20.999Z</time></trkpt><trkpt lat="44.73383176493149" lon="8.853949884829726"><ele>193.0</ele><time>2026-04-03T15:36:21.999Z</time></trkpt><trkpt lat="44.73407205576942" lon="8.8537651789649"><ele>193.0</ele><time>2026-04-03T15:36:22.999Z</time></trkpt><trkpt lat="44.73431434473913" lon="8.853578480000223"><ele>193.0</ele><time>2026-04-03T15:36:23.999Z</time></trkpt><trkpt lat="44.734556705692555" lon="8.853391087749845"><ele>192.5</ele><time>2026-04-03T15:36:24.999Z</time></trkpt><trkpt lat="44.734801726636945" lon="8.853202729841101"><ele>192.0</ele><time>2026-04-03T15:36:25.999Z</time></trkpt><trkpt lat="44.73504890975247" lon="8.85301536036931"><ele>192.0</ele><time>2026-04-03T15:36:26.999Z</time></trkpt><trkpt lat="44.735295683690346" lon="8.852828098520876"><ele>192.0</ele><time>2026-04-03T15:36:27.999Z</time></trkpt><trkpt lat="44.735541643985414" lon="8.85264158755705"><ele>193.0</ele><time>2026-04-03T15:36:28.999Z</time></trkpt><trkpt lat="44.73578623203184" lon="8.852453947713498"><ele>194.0</ele><time>2026-04-03T15:36:29.999Z</time></trkpt><trkpt lat="44.7360310976367" lon="8.852264444556457"><ele>193.0</ele><time>2026-04-03T15:36:30.999Z</time></trkpt><trkpt lat="44.73627641856567" lon="8.852072348943345"><ele>192.0</ele><time>2026-04-03T15:36:31.999Z</time></trkpt><trkpt lat="44.736524447533185" lon="8.851882345561435"><ele>192.0</ele><time>2026-04-03T15:36:32.999Z</time></trkpt><trkpt lat="44.736769977541464" lon="8.851689980101872"><ele>192.0</ele><time>2026-04-03T15:36:33.999Z</time></trkpt><trkpt lat="44.737015178700865" lon="8.851493554021996"><ele>192.0</ele><time>2026-04-03T15:36:34.999Z</time></trkpt><trkpt lat="44.737259674535935" lon="8.85129576404965"><ele>192.0</ele><time>2026-04-03T15:36:35.999Z</time></trkpt><trkpt lat="44.737500277614785" lon="8.851086625956533"><ele>192.5</ele><time>2026-04-03T15:36:36.999Z</time></trkpt><trkpt lat="44.73773181092786" lon="8.850861256508615"><ele>193.0</ele><time>2026-04-03T15:36:37.999Z</time></trkpt><trkpt lat="44.73795705554166" lon="8.850624961082529"><ele>193.0</ele><time>2026-04-03T15:36:38.999Z</time></trkpt><trkpt lat="44.73817828796646" lon="8.850377215868097"><ele>193.0</ele><time>2026-04-03T15:36:39.999Z</time></trkpt><trkpt lat="44.738392018055386" lon="8.850123630191963"><ele>197.0</ele><time>2026-04-03T15:36:40.999Z</time></trkpt><trkpt lat="44.738600846268334" lon="8.849862366384835"><ele>201.0</ele><time>2026-04-03T15:36:41.999Z</time></trkpt><trkpt lat="44.73880250669408" lon="8.849595182604226"><ele>201.0</ele><time>2026-04-03T15:36:42.999Z</time></trkpt><trkpt lat="44.73900320298805" lon="8.849324404183951"><ele>201.0</ele><time>2026-04-03T15:36:43.999Z</time></trkpt><trkpt lat="44.73919837049653" lon="8.849050101914882"><ele>204.0</ele><time>2026-04-03T15:36:44.999Z</time></trkpt><trkpt lat="44.73939707385868" lon="8.848772547693674"><ele>207.0</ele><time>2026-04-03T15:36:45.999Z</time></trkpt><trkpt lat="44.739597572592125" lon="8.84849787767059"><ele>206.0</ele><time>2026-04-03T15:36:46.999Z</time></trkpt><trkpt lat="44.73979955214527" lon="8.8482226747431"><ele>205.0</ele><time>2026-04-03T15:36:47.999Z</time></trkpt><trkpt lat="44.74000010864693" lon="8.847945603152208"><ele>205.0</ele><time>2026-04-03T15:36:48.999Z</time></trkpt><trkpt lat="44.74019763871207" lon="8.847665003794448"><ele>205.0</ele><time>2026-04-03T15:36:49.999Z</time></trkpt><trkpt lat="44.74039302044759" lon="8.847380344061612"><ele>204.5</ele><time>2026-04-03T15:36:50.999Z</time></trkpt><trkpt lat="44.740587679345836" lon="8.847097088571656"><ele>204.0</ele><time>2026-04-03T15:36:51.999Z</time></trkpt><trkpt lat="44.74078442892917" lon="8.846817738210175"><ele>204.5</ele><time>2026-04-03T15:36:52.999Z</time></trkpt><trkpt lat="44.74098629739256" lon="8.846547351253589"><ele>205.0</ele><time>2026-04-03T15:36:53.999Z</time></trkpt><trkpt lat="44.74119892042801" lon="8.846291499381902"><ele>205.5</ele><time>2026-04-03T15:36:54.999Z</time></trkpt><trkpt lat="44.74141881309464" lon="8.846043471930821"><ele>206.0</ele><time>2026-04-03T15:36:55.999Z</time></trkpt><trkpt lat="44.74164054920091" lon="8.845807465194655"><ele>206.0</ele><time>2026-04-03T15:36:56.999Z</time></trkpt><trkpt lat="44.74186949917848" lon="8.845578963156672"><ele>206.0</ele><time>2026-04-03T15:36:57.999Z</time></trkpt><trkpt lat="44.74210160266394" lon="8.845353224939126"><ele>206.5</ele><time>2026-04-03T15:36:58.999Z</time></trkpt><trkpt lat="44.74234081897192" lon="8.84514290329895"><ele>207.0</ele><time>2026-04-03T15:36:59.999Z</time></trkpt><trkpt lat="44.7425853456402" lon="8.844945327069132"><ele>206.0</ele><time>2026-04-03T15:37:00.999Z</time></trkpt><trkpt lat="44.74283576750793" lon="8.844761702717705"><ele>205.0</ele><time>2026-04-03T15:37:01.999Z</time></trkpt><trkpt lat="44.74308774518388" lon="8.844590139548249"><ele>205.0</ele><time>2026-04-03T15:37:02.999Z</time></trkpt><trkpt lat="44.7433425029821" lon="8.844420474570565"><ele>205.0</ele><time>2026-04-03T15:37:03.999Z</time></trkpt><trkpt lat="44.74359832448902" lon="8.844259534561038"><ele>204.5</ele><time>2026-04-03T15:37:04.999Z</time></trkpt><trkpt lat="44.74385782471574" lon="8.844111130654486"><ele>204.0</ele><time>2026-04-03T15:37:05.999Z</time></trkpt><trkpt lat="44.74412009360924" lon="8.843978049624"><ele>204.0</ele><time>2026-04-03T15:37:06.999Z</time></trkpt><trkpt lat="44.744384223423324" lon="8.843855779699423"><ele>204.0</ele><time>2026-04-03T15:37:07.999Z</time></trkpt><trkpt lat="44.74464659352828" lon="8.843737154929798"><ele>204.0</ele><time>2026-04-03T15:37:08.999Z</time></trkpt><trkpt lat="44.74490770734029" lon="8.843615349287091"><ele>204.0</ele><time>2026-04-03T15:37:09.999Z</time></trkpt><trkpt lat="44.745168886324706" lon="8.843488964469843"><ele>203.5</ele><time>2026-04-03T15:37:10.999Z</time></trkpt><trkpt lat="44.745429036229915" lon="8.843360271660897"><ele>203.0</ele><time>2026-04-03T15:37:11.999Z</time></trkpt><trkpt lat="44.74568593297675" lon="8.843231451080191"><ele>203.0</ele><time>2026-04-03T15:37:12.999Z</time></trkpt><trkpt lat="44.74594415879867" lon="8.843103066116322"><ele>203.0</ele><time>2026-04-03T15:37:13.999Z</time></trkpt><trkpt lat="44.74620227979618" lon="8.842975306919655"><ele>202.5</ele><time>2026-04-03T15:37:14.999Z</time></trkpt><trkpt lat="44.746458043547676" lon="8.842846476935232"><ele>202.0</ele><time>2026-04-03T15:37:15.999Z</time></trkpt><trkpt lat="44.746712035054045" lon="8.84271307540802"><ele>202.5</ele><time>2026-04-03T15:37:16.999Z</time></trkpt><trkpt lat="44.74696736529687" lon="8.842582546040195"><ele>203.0</ele><time>2026-04-03T15:37:17.999Z</time></trkpt><trkpt lat="44.747219129372425" lon="8.84246236474844"><ele>203.0</ele><time>2026-04-03T15:37:18.999Z</time></trkpt><trkpt lat="44.74747027728167" lon="8.842343133871292"><ele>203.0</ele><time>2026-04-03T15:37:19.999Z</time></trkpt><trkpt lat="44.74771641332106" lon="8.84222586030942"><ele>202.5</ele><time>2026-04-03T15:37:20.999Z</time></trkpt><trkpt lat="44.74796438674072" lon="8.842105230942366"><ele>202.0</ele><time>2026-04-03T15:37:21.999Z</time></trkpt><trkpt lat="44.74821395282155" lon="8.841982548514956"><ele>202.0</ele><time>2026-04-03T15:37:22.999Z</time></trkpt><trkpt lat="44.74846215995221" lon="8.841860514475602"><ele>202.0</ele><time>2026-04-03T15:37:23.999Z</time></trkpt><trkpt lat="44.748712947597596" lon="8.841735497817131"><ele>202.5</ele><time>2026-04-03T15:37:24.999Z</time></trkpt><trkpt lat="44.74896165070934" lon="8.841609858786162"><ele>203.0</ele><time>2026-04-03T15:37:25.999Z</time></trkpt><trkpt lat="44.749211191814275" lon="8.84148332309177"><ele>201.5</ele><time>2026-04-03T15:37:26.999Z</time></trkpt><trkpt lat="44.749464572910775" lon="8.841358034855745"><ele>200.0</ele><time>2026-04-03T15:37:27.999Z</time></trkpt><trkpt lat="44.74972052617287" lon="8.841233958722949"><ele>200.0</ele><time>2026-04-03T15:37:28.999Z</time></trkpt><trkpt lat="44.74997725647712" lon="8.841110865352183"><ele>200.0</ele><time>2026-04-03T15:37:29.999Z</time></trkpt><trkpt lat="44.75023426017027" lon="8.840992352227406"><ele>200.0</ele><time>2026-04-03T15:37:30.999Z</time></trkpt><trkpt lat="44.75049577665818" lon="8.840878391010525"><ele>200.0</ele><time>2026-04-03T15:37:31.999Z</time></trkpt><trkpt lat="44.75076171905591" lon="8.840770068079847"><ele>200.0</ele><time>2026-04-03T15:37:32.999Z</time></trkpt><trkpt lat="44.751025312341895" lon="8.840666089842244"><ele>200.0</ele><time>2026-04-03T15:37:33.999Z</time></trkpt><trkpt lat="44.75129115838869" lon="8.840567267923918"><ele>200.0</ele><time>2026-04-03T15:37:34.999Z</time></trkpt><trkpt lat="44.751558642925296" lon="8.840467050472274"><ele>200.0</ele><time>2026-04-03T15:37:35.999Z</time></trkpt><trkpt lat="44.75182614475306" lon="8.840369811190806"><ele>199.5</ele><time>2026-04-03T15:37:36.999Z</time></trkpt><trkpt lat="44.75209315705996" lon="8.84027678234962"><ele>199.0</ele><time>2026-04-03T15:37:37.999Z</time></trkpt><trkpt lat="44.7523622208745" lon="8.84019001246368"><ele>198.5</ele><time>2026-04-03T15:37:38.999Z</time></trkpt><trkpt lat="44.75262792490527" lon="8.840112339960305"><ele>198.0</ele><time>2026-04-03T15:37:39.999Z</time></trkpt><trkpt lat="44.75289549610896" lon="8.84003452678569"><ele>198.0</ele><time>2026-04-03T15:37:40.999Z</time></trkpt><trkpt lat="44.75316073988725" lon="8.839960024134902"><ele>198.0</ele><time>2026-04-03T15:37:41.999Z</time></trkpt><trkpt lat="44.753426112874" lon="8.839882475750832"><ele>198.0</ele><time>2026-04-03T15:37:42.999Z</time></trkpt><trkpt lat="44.75368894896672" lon="8.839802809710354"><ele>198.0</ele><time>2026-04-03T15:37:43.999Z</time></trkpt><trkpt lat="44.753955286422965" lon="8.839716967393976"><ele>198.0</ele><time>2026-04-03T15:37:44.999Z</time></trkpt><trkpt lat="44.75421864850512" lon="8.839632472360975"><ele>198.0</ele><time>2026-04-03T15:37:45.999Z</time></trkpt><trkpt lat="44.75448424467174" lon="8.839549190579943"><ele>197.5</ele><time>2026-04-03T15:37:46.999Z</time></trkpt><trkpt lat="44.754749980225476" lon="8.83947354461544"><ele>197.0</ele><time>2026-04-03T15:37:47.999Z</time></trkpt><trkpt lat="44.75501844434929" lon="8.839395195334662"><ele>196.5</ele><time>2026-04-03T15:37:48.999Z</time></trkpt><trkpt lat="44.75528644321276" lon="8.839316346485031"><ele>196.0</ele><time>2026-04-03T15:37:49.999Z</time></trkpt><trkpt lat="44.75555530590535" lon="8.839233047896176"><ele>196.0</ele><time>2026-04-03T15:37:50.999Z</time></trkpt><trkpt lat="44.75582301477801" lon="8.839149771642338"><ele>196.0</ele><time>2026-04-03T15:37:51.999Z</time></trkpt><trkpt lat="44.756092223112404" lon="8.83906521495959"><ele>195.5</ele><time>2026-04-03T15:37:52.999Z</time></trkpt><trkpt lat="44.75636067714506" lon="8.838982351948967"><ele>195.0</ele><time>2026-04-03T15:37:53.999Z</time></trkpt><trkpt lat="44.75662929563385" lon="8.83890436312504"><ele>194.5</ele><time>2026-04-03T15:37:54.999Z</time></trkpt><trkpt lat="44.75689661655617" lon="8.838824063528365"><ele>194.0</ele><time>2026-04-03T15:37:55.999Z</time></trkpt><trkpt lat="44.75716281388763" lon="8.838745088537031"><ele>194.0</ele><time>2026-04-03T15:37:56.999Z</time></trkpt><trkpt lat="44.75742735427619" lon="8.838663942905335"><ele>194.0</ele><time>2026-04-03T15:37:57.999Z</time></trkpt><trkpt lat="44.757693507611286" lon="8.838580212510468"><ele>193.5</ele><time>2026-04-03T15:37:58.999Z</time></trkpt><trkpt lat="44.757959463834545" lon="8.838498869091737"><ele>193.0</ele><time>2026-04-03T15:37:59.999Z</time></trkpt><trkpt lat="44.75822265115531" lon="8.838423768694057"><ele>193.5</ele><time>2026-04-03T15:38:00.999Z</time></trkpt><trkpt lat="44.758488568098116" lon="8.838353448874685"><ele>194.0</ele><time>2026-04-03T15:38:01.999Z</time></trkpt><trkpt lat="44.75875327395277" lon="8.838289270875203"><ele>194.0</ele><time>2026-04-03T15:38:02.999Z</time></trkpt><trkpt lat="44.75902030184983" lon="8.838228276467591"><ele>194.0</ele><time>2026-04-03T15:38:03.999Z</time></trkpt><trkpt lat="44.759285170849886" lon="8.838171809642018"><ele>194.5</ele><time>2026-04-03T15:38:04.999Z</time></trkpt><trkpt lat="44.75955193404324" lon="8.838116852101345"><ele>195.0</ele><time>2026-04-03T15:38:05.999Z</time></trkpt><trkpt lat="44.759819524086865" lon="8.838065310826867"><ele>195.0</ele><time>2026-04-03T15:38:06.999Z</time></trkpt><trkpt lat="44.76008728225669" lon="8.838015806923423"><ele>195.0</ele><time>2026-04-03T15:38:07.999Z</time></trkpt><trkpt lat="44.76035533732254" lon="8.837970457995963"><ele>194.5</ele><time>2026-04-03T15:38:08.999Z</time></trkpt><trkpt lat="44.76062269138205" lon="8.837929772251693"><ele>194.0</ele><time>2026-04-03T15:38:09.999Z</time></trkpt><trkpt lat="44.76089125693068" lon="8.837893381881411"><ele>193.5</ele><time>2026-04-03T15:38:10.999Z</time></trkpt><trkpt lat="44.76116104689785" lon="8.837859896062678"><ele>193.0</ele><time>2026-04-03T15:38:11.999Z</time></trkpt><trkpt lat="44.761431549468874" lon="8.837825696170546"><ele>193.0</ele><time>2026-04-03T15:38:12.999Z</time></trkpt><trkpt lat="44.76170370329293" lon="8.837794089911624"><ele>193.0</ele><time>2026-04-03T15:38:13.999Z</time></trkpt><trkpt lat="44.7619749027634" lon="8.83776738357761"><ele>193.0</ele><time>2026-04-03T15:38:14.999Z</time></trkpt><trkpt lat="44.76224894743613" lon="8.837742897202112"><ele>193.0</ele><time>2026-04-03T15:38:15.999Z</time></trkpt><trkpt lat="44.76252345594477" lon="8.837720543400412"><ele>192.5</ele><time>2026-04-03T15:38:16.999Z</time></trkpt><trkpt lat="44.76279884549327" lon="8.83769762758382"><ele>192.0</ele><time>2026-04-03T15:38:17.999Z</time></trkpt><trkpt lat="44.76307720714049" lon="8.83767332184063"><ele>192.0</ele><time>2026-04-03T15:38:18.999Z</time></trkpt><trkpt lat="44.76335702223762" lon="8.837649147415815"><ele>192.0</ele><time>2026-04-03T15:38:19.999Z</time></trkpt><trkpt lat="44.76363596005431" lon="8.837624250393732"><ele>191.5</ele><time>2026-04-03T15:38:20.999Z</time></trkpt><trkpt lat="44.763915021587025" lon="8.83759946659299"><ele>191.0</ele><time>2026-04-03T15:38:21.999Z</time></trkpt><trkpt lat="44.76419581598752" lon="8.837573975342261"><ele>190.5</ele><time>2026-04-03T15:38:22.999Z</time></trkpt><trkpt lat="44.76447571761162" lon="8.837547571534113"><ele>190.0</ele><time>2026-04-03T15:38:23.999Z</time></trkpt><trkpt lat="44.764756086146996" lon="8.837520444015945"><ele>190.0</ele><time>2026-04-03T15:38:24.999Z</time></trkpt><trkpt lat="44.765036138081214" lon="8.837493029543252"><ele>190.0</ele><time>2026-04-03T15:38:25.999Z</time></trkpt><trkpt lat="44.765315422054904" lon="8.83746638385099"><ele>190.0</ele><time>2026-04-03T15:38:26.999Z</time></trkpt><trkpt lat="44.76559443195814" lon="8.837442212347613"><ele>190.0</ele><time>2026-04-03T15:38:27.999Z</time></trkpt><trkpt lat="44.765871151493364" lon="8.837417217379038"><ele>190.5</ele><time>2026-04-03T15:38:28.999Z</time></trkpt><trkpt lat="44.766148449259596" lon="8.837393529373252"><ele>191.0</ele><time>2026-04-03T15:38:29.999Z</time></trkpt><trkpt lat="44.76642574279807" lon="8.8373697470346"><ele>191.0</ele><time>2026-04-03T15:38:30.999Z</time></trkpt><trkpt lat="44.766701824244485" lon="8.837344750693338"><ele>191.0</ele><time>2026-04-03T15:38:31.999Z</time></trkpt><trkpt lat="44.76697946529956" lon="8.83731854515414"><ele>190.5</ele><time>2026-04-03T15:38:32.999Z</time></trkpt><trkpt lat="44.76725489084024" lon="8.837293905943282"><ele>190.0</ele><time>2026-04-03T15:38:33.999Z</time></trkpt><trkpt lat="44.76752854736494" lon="8.837270607412146"><ele>188.0</ele><time>2026-04-03T15:38:34.999Z</time></trkpt><trkpt lat="44.76780759346002" lon="8.837246901359366"><ele>186.0</ele><time>2026-04-03T15:38:35.999Z</time></trkpt><trkpt lat="44.76808338812006" lon="8.837223234060362"><ele>186.0</ele><time>2026-04-03T15:38:36.999Z</time></trkpt><trkpt lat="44.76835677108551" lon="8.837200365963287"><ele>186.0</ele><time>2026-04-03T15:38:37.999Z</time></trkpt><trkpt lat="44.76863397164275" lon="8.83717266438881"><ele>187.0</ele><time>2026-04-03T15:38:38.999Z</time></trkpt><trkpt lat="44.768908191734674" lon="8.83714564539516"><ele>188.0</ele><time>2026-04-03T15:38:39.999Z</time></trkpt><trkpt lat="44.76918256562832" lon="8.837117727948348"><ele>188.0</ele><time>2026-04-03T15:38:40.999Z</time></trkpt><trkpt lat="44.769458599441556" lon="8.837090332201784"><ele>188.0</ele><time>2026-04-03T15:38:41.999Z</time></trkpt><trkpt lat="44.769733595159245" lon="8.837064837810988"><ele>188.0</ele><time>2026-04-03T15:38:42.999Z</time></trkpt><trkpt lat="44.77000953576494" lon="8.837038262507189"><ele>188.0</ele><time>2026-04-03T15:38:43.999Z</time></trkpt><trkpt lat="44.7702829601654" lon="8.837014059490127"><ele>189.0</ele><time>2026-04-03T15:38:44.999Z</time></trkpt><trkpt lat="44.770557270397504" lon="8.836989973342568"><ele>190.0</ele><time>2026-04-03T15:38:45.999Z</time></trkpt><trkpt lat="44.77083167463596" lon="8.836965069348889"><ele>190.0</ele><time>2026-04-03T15:38:46.999Z</time></trkpt><trkpt lat="44.771106902681716" lon="8.836937631288192"><ele>190.0</ele><time>2026-04-03T15:38:47.999Z</time></trkpt><trkpt lat="44.77138068232005" lon="8.836911644810254"><ele>190.0</ele><time>2026-04-03T15:38:48.999Z</time></trkpt><trkpt lat="44.771655111295715" lon="8.836885036306157"><ele>190.0</ele><time>2026-04-03T15:38:49.999Z</time></trkpt><trkpt lat="44.77192858623505" lon="8.836861376002707"><ele>188.5</ele><time>2026-04-03T15:38:50.999Z</time></trkpt><trkpt lat="44.77220444350501" lon="8.8368355423609"><ele>187.0</ele><time>2026-04-03T15:38:51.999Z</time></trkpt><trkpt lat="44.772478136690715" lon="8.836809659437955"><ele>186.5</ele><time>2026-04-03T15:38:52.999Z</time></trkpt><trkpt lat="44.772751478454595" lon="8.836783295306002"><ele>186.0</ele><time>2026-04-03T15:38:53.999Z</time></trkpt><trkpt lat="44.77302523880377" lon="8.836757872869034"><ele>186.0</ele><time>2026-04-03T15:38:54.999Z</time></trkpt><trkpt lat="44.7732964528894" lon="8.836733768624567"><ele>186.0</ele><time>2026-04-03T15:38:55.999Z</time></trkpt><trkpt lat="44.77357421042547" lon="8.836709211011382"><ele>185.0</ele><time>2026-04-03T15:38:56.999Z</time></trkpt><trkpt lat="44.77384937018747" lon="8.83668695286702"><ele>184.0</ele><time>2026-04-03T15:38:57.999Z</time></trkpt><trkpt lat="44.774125572669924" lon="8.836662303334363"><ele>183.5</ele><time>2026-04-03T15:38:58.999Z</time></trkpt><trkpt lat="44.774401421187456" lon="8.836635680790582"><ele>183.0</ele><time>2026-04-03T15:38:59.999Z</time></trkpt><trkpt lat="44.77467883977257" lon="8.836609891801336"><ele>183.0</ele><time>2026-04-03T15:39:00.999Z</time></trkpt><trkpt lat="44.77495512835087" lon="8.836587918207316"><ele>183.0</ele><time>2026-04-03T15:39:01.999Z</time></trkpt><trkpt lat="44.77523478580844" lon="8.836561384125806"><ele>183.0</ele><time>2026-04-03T15:39:02.999Z</time></trkpt><trkpt lat="44.77551310715575" lon="8.836535682473672"><ele>183.0</ele><time>2026-04-03T15:39:03.999Z</time></trkpt><trkpt lat="44.77579035311871" lon="8.836508128566997"><ele>182.5</ele><time>2026-04-03T15:39:04.999Z</time></trkpt><trkpt lat="44.77606750291725" lon="8.836477698912443"><ele>182.0</ele><time>2026-04-03T15:39:05.999Z</time></trkpt><trkpt lat="44.776346279529825" lon="8.83644399386309"><ele>182.0</ele><time>2026-04-03T15:39:06.999Z</time></trkpt><trkpt lat="44.77662435907781" lon="8.836411533900188"><ele>182.0</ele><time>2026-04-03T15:39:07.999Z</time></trkpt><trkpt lat="44.776900796760074" lon="8.836380968396398"><ele>183.0</ele><time>2026-04-03T15:39:08.999Z</time></trkpt><trkpt lat="44.777182965811996" lon="8.83634967209705"><ele>184.0</ele><time>2026-04-03T15:39:09.999Z</time></trkpt><trkpt lat="44.77746570182654" lon="8.836320531027532"><ele>183.5</ele><time>2026-04-03T15:39:10.999Z</time></trkpt><trkpt lat="44.77774949089636" lon="8.836287782569489"><ele>183.0</ele><time>2026-04-03T15:39:11.999Z</time></trkpt><trkpt lat="44.77803541664351" lon="8.836257014339829"><ele>183.0</ele><time>2026-04-03T15:39:12.999Z</time></trkpt><trkpt lat="44.778321806035" lon="8.836230366589342"><ele>183.0</ele><time>2026-04-03T15:39:13.999Z</time></trkpt><trkpt lat="44.77861004752819" lon="8.836201276984914"><ele>182.0</ele><time>2026-04-03T15:39:14.999Z</time></trkpt><trkpt lat="44.77889798673248" lon="8.836172344697019"><ele>181.0</ele><time>2026-04-03T15:39:15.999Z</time></trkpt><trkpt lat="44.77918674000823" lon="8.836148551413372"><ele>182.0</ele><time>2026-04-03T15:39:16.999Z</time></trkpt><trkpt lat="44.77947815081267" lon="8.836127142588131"><ele>183.0</ele><time>2026-04-03T15:39:17.999Z</time></trkpt><trkpt lat="44.77976760948294" lon="8.836107046035153"><ele>183.0</ele><time>2026-04-03T15:39:18.999Z</time></trkpt><trkpt lat="44.7800563007722" lon="8.8360802591389"><ele>183.0</ele><time>2026-04-03T15:39:19.999Z</time></trkpt><trkpt lat="44.780339786703166" lon="8.836043558539426"><ele>182.5</ele><time>2026-04-03T15:39:20.999Z</time></trkpt><trkpt lat="44.78062330401863" lon="8.835993255426814"><ele>182.0</ele><time>2026-04-03T15:39:21.999Z</time></trkpt><trkpt lat="44.78090524131692" lon="8.835939291840678"><ele>181.5</ele><time>2026-04-03T15:39:22.999Z</time></trkpt><trkpt lat="44.78118805886477" lon="8.835884832029025"><ele>181.0</ele><time>2026-04-03T15:39:23.999Z</time></trkpt><trkpt lat="44.78147382964046" lon="8.835832226410393"><ele>181.0</ele><time>2026-04-03T15:39:24.999Z</time></trkpt><trkpt lat="44.78175736966468" lon="8.835777038263046"><ele>181.0</ele><time>2026-04-03T15:39:25.999Z</time></trkpt><trkpt lat="44.782046563099" lon="8.835715571307658"><ele>180.5</ele><time>2026-04-03T15:39:26.999Z</time></trkpt><trkpt lat="44.78233386068211" lon="8.83565206292145"><ele>180.0</ele><time>2026-04-03T15:39:27.999Z</time></trkpt><trkpt lat="44.782623820924826" lon="8.835594747241256"><ele>180.5</ele><time>2026-04-03T15:39:28.999Z</time></trkpt><trkpt lat="44.782914782377034" lon="8.835542926614822"><ele>181.0</ele><time>2026-04-03T15:39:29.999Z</time></trkpt><trkpt lat="44.78320420535784" lon="8.83549240681694"><ele>181.0</ele><time>2026-04-03T15:39:30.999Z</time></trkpt><trkpt lat="44.783493823128275" lon="8.835440569641165"><ele>181.0</ele><time>2026-04-03T15:39:31.999Z</time></trkpt><trkpt lat="44.78378159474247" lon="8.83539051866212"><ele>180.0</ele><time>2026-04-03T15:39:32.999Z</time></trkpt><trkpt lat="44.7840700464565" lon="8.835339784301638"><ele>179.0</ele><time>2026-04-03T15:39:33.999Z</time></trkpt><trkpt lat="44.78435725702199" lon="8.835294086853027"><ele>179.0</ele><time>2026-04-03T15:39:34.999Z</time></trkpt><trkpt lat="44.78464444646483" lon="8.835252708968094"><ele>179.0</ele><time>2026-04-03T15:39:35.999Z</time></trkpt><trkpt lat="44.7849306885273" lon="8.835209988384193"><ele>178.5</ele><time>2026-04-03T15:39:36.999Z</time></trkpt><trkpt lat="44.78521831009205" lon="8.835166634476147"><ele>178.0</ele><time>2026-04-03T15:39:37.999Z</time></trkpt><trkpt lat="44.7855049882925" lon="8.83511945688217"><ele>178.0</ele><time>2026-04-03T15:39:38.999Z</time></trkpt><trkpt lat="44.785791252141756" lon="8.835067393735686"><ele>178.0</ele><time>2026-04-03T15:39:39.999Z</time></trkpt><trkpt lat="44.78607715940848" lon="8.835016859492667"><ele>178.5</ele><time>2026-04-03T15:39:40.999Z</time></trkpt><trkpt lat="44.78636475723004" lon="8.834968425609608"><ele>179.0</ele><time>2026-04-03T15:39:41.999Z</time></trkpt><trkpt lat="44.78664934844736" lon="8.834920127041078"><ele>179.0</ele><time>2026-04-03T15:39:42.999Z</time></trkpt><trkpt lat="44.78693417147903" lon="8.834870219435171"><ele>179.0</ele><time>2026-04-03T15:39:43.999Z</time></trkpt><trkpt lat="44.78722084416852" lon="8.8348201893671"><ele>179.0</ele><time>2026-04-03T15:39:44.999Z</time></trkpt><trkpt lat="44.78750625226438" lon="8.834770304875986"><ele>179.0</ele><time>2026-04-03T15:39:45.999Z</time></trkpt><trkpt lat="44.78779400094799" lon="8.83472252175921"><ele>178.5</ele><time>2026-04-03T15:39:46.999Z</time></trkpt><trkpt lat="44.788078963739" lon="8.834674079997985"><ele>178.0</ele><time>2026-04-03T15:39:47.999Z</time></trkpt><trkpt lat="44.78836600459657" lon="8.834627611062812"><ele>177.5</ele><time>2026-04-03T15:39:48.999Z</time></trkpt><trkpt lat="44.788651479341354" lon="8.83458161927953"><ele>177.0</ele><time>2026-04-03T15:39:49.999Z</time></trkpt><trkpt lat="44.78893661205179" lon="8.834532972726441"><ele>177.0</ele><time>2026-04-03T15:39:50.999Z</time></trkpt><trkpt lat="44.78922140956775" lon="8.834484631702724"><ele>177.0</ele><time>2026-04-03T15:39:51.999Z</time></trkpt><trkpt lat="44.78950519500445" lon="8.834434785059337"><ele>176.5</ele><time>2026-04-03T15:39:52.999Z</time></trkpt><trkpt lat="44.78978867145552" lon="8.83438260430064"><ele>176.0</ele><time>2026-04-03T15:39:53.999Z</time></trkpt><trkpt lat="44.790072050349806" lon="8.83433078707506"><ele>175.5</ele><time>2026-04-03T15:39:54.999Z</time></trkpt><trkpt lat="44.79035517218653" lon="8.834277541644402"><ele>175.0</ele><time>2026-04-03T15:39:55.999Z</time></trkpt><trkpt lat="44.79063700513773" lon="8.83422616959585"><ele>175.0</ele><time>2026-04-03T15:39:56.999Z</time></trkpt><trkpt lat="44.79091775777531" lon="8.834172467081434"><ele>175.0</ele><time>2026-04-03T15:39:57.999Z</time></trkpt><trkpt lat="44.79119952609453" lon="8.834118575243531"><ele>174.5</ele><time>2026-04-03T15:39:58.999Z</time></trkpt><trkpt lat="44.791481065506225" lon="8.834067376640945"><ele>174.0</ele><time>2026-04-03T15:39:59.999Z</time></trkpt><trkpt lat="44.79176580606816" lon="8.834017675438709"><ele>175.0</ele><time>2026-04-03T15:40:00.999Z</time></trkpt><trkpt lat="44.79205040973177" lon="8.833968708443816"><ele>176.0</ele><time>2026-04-03T15:40:01.999Z</time></trkpt><trkpt lat="44.79233494179542" lon="8.833920290602165"><ele>176.0</ele><time>2026-04-03T15:40:02.999Z</time></trkpt><trkpt lat="44.792621993679354" lon="8.833868127073966"><ele>176.0</ele><time>2026-04-03T15:40:03.999Z</time></trkpt><trkpt lat="44.79290884379821" lon="8.833814128244388"><ele>175.0</ele><time>2026-04-03T15:40:04.999Z</time></trkpt><trkpt lat="44.79319665948444" lon="8.833760516781956"><ele>174.0</ele><time>2026-04-03T15:40:05.999Z</time></trkpt><trkpt lat="44.7934868801757" lon="8.833708130097742"><ele>174.0</ele><time>2026-04-03T15:40:06.999Z</time></trkpt><trkpt lat="44.79377745539319" lon="8.833660164205304"><ele>174.0</ele><time>2026-04-03T15:40:07.999Z</time></trkpt><trkpt lat="44.79406900960405" lon="8.833609734898157"><ele>173.5</ele><time>2026-04-03T15:40:08.999Z</time></trkpt><trkpt lat="44.794360063361246" lon="8.833558713707905"><ele>173.0</ele><time>2026-04-03T15:40:09.999Z</time></trkpt><trkpt lat="44.79465273305404" lon="8.83350708890289"><ele>173.0</ele><time>2026-04-03T15:40:10.999Z</time></trkpt><trkpt lat="44.79494517575871" lon="8.833455899366108"><ele>173.0</ele><time>2026-04-03T15:40:11.999Z</time></trkpt><trkpt lat="44.79523661720795" lon="8.833404351632431"><ele>172.5</ele><time>2026-04-03T15:40:12.999Z</time></trkpt><trkpt lat="44.79552847699871" lon="8.833352029043448"><ele>172.0</ele><time>2026-04-03T15:40:13.999Z</time></trkpt><trkpt lat="44.79582078750612" lon="8.83330068025448"><ele>171.0</ele><time>2026-04-03T15:40:14.999Z</time></trkpt><trkpt lat="44.79611147042449" lon="8.833249565293263"><ele>170.0</ele><time>2026-04-03T15:40:15.999Z</time></trkpt><trkpt lat="44.79640074695758" lon="8.833197245347067"><ele>170.0</ele><time>2026-04-03T15:40:16.999Z</time></trkpt><trkpt lat="44.79669043743976" lon="8.833143314914965"><ele>170.0</ele><time>2026-04-03T15:40:17.999Z</time></trkpt><trkpt lat="44.79698067380257" lon="8.8330893556255"><ele>171.0</ele><time>2026-04-03T15:40:18.999Z</time></trkpt><trkpt lat="44.79727184133312" lon="8.833036244155025"><ele>172.0</ele><time>2026-04-03T15:40:19.999Z</time></trkpt><trkpt lat="44.797560968250934" lon="8.832987662983975"><ele>171.5</ele><time>2026-04-03T15:40:20.999Z</time></trkpt><trkpt lat="44.7978505754549" lon="8.832941156342965"><ele>171.0</ele><time>2026-04-03T15:40:21.999Z</time></trkpt><trkpt lat="44.79814354145468" lon="8.83288840794165"><ele>171.0</ele><time>2026-04-03T15:40:22.999Z</time></trkpt><trkpt lat="44.79843169916998" lon="8.832835486783038"><ele>171.0</ele><time>2026-04-03T15:40:23.999Z</time></trkpt><trkpt lat="44.79872096897818" lon="8.832781570119382"><ele>170.5</ele><time>2026-04-03T15:40:24.999Z</time></trkpt><trkpt lat="44.79901099351523" lon="8.832730910505125"><ele>170.0</ele><time>2026-04-03T15:40:25.999Z</time></trkpt><trkpt lat="44.79929966874775" lon="8.8326791349512"><ele>169.0</ele><time>2026-04-03T15:40:26.999Z</time></trkpt><trkpt lat="44.79958564114929" lon="8.83262313651539"><ele>168.0</ele><time>2026-04-03T15:40:27.999Z</time></trkpt><trkpt lat="44.79986974947997" lon="8.832564255495175"><ele>168.0</ele><time>2026-04-03T15:40:28.999Z</time></trkpt><trkpt lat="44.80015332866625" lon="8.832498104768861"><ele>168.0</ele><time>2026-04-03T15:40:29.999Z</time></trkpt><trkpt lat="44.80043393443689" lon="8.832427000531798"><ele>169.0</ele><time>2026-04-03T15:40:30.999Z</time></trkpt><trkpt lat="44.80071389487734" lon="8.832348560818039"><ele>170.0</ele><time>2026-04-03T15:40:31.999Z</time></trkpt><trkpt lat="44.80099150951721" lon="8.832266547491276"><ele>169.0</ele><time>2026-04-03T15:40:32.999Z</time></trkpt><trkpt lat="44.80126908204537" lon="8.832184095240656"><ele>168.0</ele><time>2026-04-03T15:40:33.999Z</time></trkpt><trkpt lat="44.80154257601763" lon="8.832101884469058"><ele>168.0</ele><time>2026-04-03T15:40:34.999Z</time></trkpt><trkpt lat="44.80181513967593" lon="8.832014160025453"><ele>168.0</ele><time>2026-04-03T15:40:35.999Z</time></trkpt><trkpt lat="44.802084197557654" lon="8.831924711237015"><ele>167.5</ele><time>2026-04-03T15:40:36.999Z</time></trkpt><trkpt lat="44.8023548443008" lon="8.831839851711466"><ele>167.0</ele><time>2026-04-03T15:40:37.999Z</time></trkpt><trkpt lat="44.80262096974262" lon="8.8317556628601"><ele>168.0</ele><time>2026-04-03T15:40:38.999Z</time></trkpt><trkpt lat="44.80288510835344" lon="8.831668461858571"><ele>169.0</ele><time>2026-04-03T15:40:39.999Z</time></trkpt><trkpt lat="44.80314375540103" lon="8.831580279012371"><ele>169.0</ele><time>2026-04-03T15:40:40.999Z</time></trkpt><trkpt lat="44.80340563958274" lon="8.831494032973103"><ele>169.0</ele><time>2026-04-03T15:40:41.999Z</time></trkpt><trkpt lat="44.8036638631885" lon="8.831409527511354"><ele>168.0</ele><time>2026-04-03T15:40:42.999Z</time></trkpt><trkpt lat="44.80392129451154" lon="8.831322032066518"><ele>167.0</ele><time>2026-04-03T15:40:43.999Z</time></trkpt><trkpt lat="44.80417885652878" lon="8.831234514960325"><ele>167.0</ele><time>2026-04-03T15:40:44.999Z</time></trkpt><trkpt lat="44.80443431072648" lon="8.831150049833997"><ele>167.0</ele><time>2026-04-03T15:40:45.999Z</time></trkpt><trkpt lat="44.804689227605806" lon="8.831067609680362"><ele>167.0</ele><time>2026-04-03T15:40:46.999Z</time></trkpt><trkpt lat="44.804943012693926" lon="8.830982017816634"><ele>167.0</ele><time>2026-04-03T15:40:47.999Z</time></trkpt><trkpt lat="44.80519558335535" lon="8.830894210677052"><ele>166.0</ele><time>2026-04-03T15:40:48.999Z</time></trkpt><trkpt lat="44.805448055321186" lon="8.83080801708762"><ele>165.0</ele><time>2026-04-03T15:40:49.999Z</time></trkpt><trkpt lat="44.80570123414348" lon="8.83072742639431"><ele>165.0</ele><time>2026-04-03T15:40:50.999Z</time></trkpt><trkpt lat="44.80595710378248" lon="8.830647270987855"><ele>165.0</ele><time>2026-04-03T15:40:51.999Z</time></trkpt><trkpt lat="44.80621216707105" lon="8.830566289996655"><ele>165.0</ele><time>2026-04-03T15:40:52.999Z</time></trkpt><trkpt lat="44.806464947973865" lon="8.830488672660737"><ele>165.0</ele><time>2026-04-03T15:40:53.999Z</time></trkpt><trkpt lat="44.806726311781844" lon="8.83042018674126"><ele>165.0</ele><time>2026-04-03T15:40:54.999Z</time></trkpt><trkpt lat="44.8069876798383" lon="8.83036109122421"><ele>165.0</ele><time>2026-04-03T15:40:55.999Z</time></trkpt><trkpt lat="44.807248431003174" lon="8.830307349683737"><ele>165.0</ele><time>2026-04-03T15:40:56.999Z</time></trkpt><trkpt lat="44.807508983286674" lon="8.83024907047144"><ele>165.0</ele><time>2026-04-03T15:40:57.999Z</time></trkpt><trkpt lat="44.80776834815837" lon="8.83019017295536"><ele>164.0</ele><time>2026-04-03T15:40:58.999Z</time></trkpt><trkpt lat="44.80802742062756" lon="8.830134382802553"><ele>163.0</ele><time>2026-04-03T15:40:59.999Z</time></trkpt><trkpt lat="44.80828653306681" lon="8.830085717084303"><ele>162.0</ele><time>2026-04-03T15:41:00.999Z</time></trkpt><trkpt lat="44.808545036101165" lon="8.830043276336104"><ele>161.0</ele><time>2026-04-03T15:41:01.999Z</time></trkpt><trkpt lat="44.80880587618242" lon="8.830000012230931"><ele>161.0</ele><time>2026-04-03T15:41:02.999Z</time></trkpt><trkpt lat="44.809065567987155" lon="8.82996300928973"><ele>161.0</ele><time>2026-04-03T15:41:03.999Z</time></trkpt><trkpt lat="44.80932643763039" lon="8.829927083445625"><ele>161.5</ele><time>2026-04-03T15:41:04.999Z</time></trkpt><trkpt lat="44.80958813161534" lon="8.829891893880312"><ele>162.0</ele><time>2026-04-03T15:41:05.999Z</time></trkpt><trkpt lat="44.80984975744439" lon="8.82985986544487"><ele>162.0</ele><time>2026-04-03T15:41:06.999Z</time></trkpt><trkpt lat="44.81011169237348" lon="8.829836572600161"><ele>162.0</ele><time>2026-04-03T15:41:07.999Z</time></trkpt><trkpt lat="44.81037283945335" lon="8.82981704229658"><ele>162.0</ele><time>2026-04-03T15:41:08.999Z</time></trkpt><trkpt lat="44.81063350225208" lon="8.829793145686812"><ele>162.0</ele><time>2026-04-03T15:41:09.999Z</time></trkpt><trkpt lat="44.810891222857016" lon="8.829769022689076"><ele>162.0</ele><time>2026-04-03T15:41:10.999Z</time></trkpt><trkpt lat="44.81114360156561" lon="8.829748774311419"><ele>162.0</ele><time>2026-04-03T15:41:11.999Z</time></trkpt><trkpt lat="44.81139773133848" lon="8.829728014946928"><ele>162.0</ele><time>2026-04-03T15:41:12.999Z</time></trkpt><trkpt lat="44.81166369028425" lon="8.829702713367631"><ele>162.0</ele><time>2026-04-03T15:41:13.999Z</time></trkpt><trkpt lat="44.81193602267089" lon="8.829674074099934"><ele>161.5</ele><time>2026-04-03T15:41:14.999Z</time></trkpt><trkpt lat="44.81221145064599" lon="8.829647818294024"><ele>161.0</ele><time>2026-04-03T15:41:15.999Z</time></trkpt><trkpt lat="44.81248938233973" lon="8.829626612469042"><ele>161.0</ele><time>2026-04-03T15:41:16.999Z</time></trkpt><trkpt lat="44.812766933052586" lon="8.829604104676639"><ele>161.0</ele><time>2026-04-03T15:41:17.999Z</time></trkpt><trkpt lat="44.81304631600507" lon="8.829580282611005"><ele>161.0</ele><time>2026-04-03T15:41:18.999Z</time></trkpt><trkpt lat="44.81332476373304" lon="8.829557743872028"><ele>161.0</ele><time>2026-04-03T15:41:19.999Z</time></trkpt><trkpt lat="44.813607444958606" lon="8.82953311579984"><ele>161.0</ele><time>2026-04-03T15:41:20.999Z</time></trkpt><trkpt lat="44.813892067861225" lon="8.829505940802827"><ele>161.0</ele><time>2026-04-03T15:41:21.999Z</time></trkpt><trkpt lat="44.814178625501235" lon="8.829476389829491"><ele>160.0</ele><time>2026-04-03T15:41:22.999Z</time></trkpt><trkpt lat="44.81446236503196" lon="8.829441980259714"><ele>159.0</ele><time>2026-04-03T15:41:23.999Z</time></trkpt><trkpt lat="44.81475158644172" lon="8.829413620444077"><ele>159.0</ele><time>2026-04-03T15:41:24.999Z</time></trkpt><trkpt lat="44.81503953606268" lon="8.829388683230956"><ele>159.0</ele><time>2026-04-03T15:41:25.999Z</time></trkpt><trkpt lat="44.81532838282342" lon="8.829366209894541"><ele>159.0</ele><time>2026-04-03T15:41:26.999Z</time></trkpt><trkpt lat="44.815618018001786" lon="8.829339632521162"><ele>159.0</ele><time>2026-04-03T15:41:27.999Z</time></trkpt><trkpt lat="44.8159090787082" lon="8.82930727604643"><ele>159.0</ele><time>2026-04-03T15:41:28.999Z</time></trkpt><trkpt lat="44.81619980601249" lon="8.829274018856603"><ele>159.0</ele><time>2026-04-03T15:41:29.999Z</time></trkpt><trkpt lat="44.81649231646598" lon="8.829245496619283"><ele>159.0</ele><time>2026-04-03T15:41:31Z</time></trkpt><trkpt lat="44.816784436114695" lon="8.829223406280159"><ele>159.0</ele><time>2026-04-03T15:41:32Z</time></trkpt><trkpt lat="44.81707809736159" lon="8.829200949369136"><ele>158.5</ele><time>2026-04-03T15:41:33Z</time></trkpt><trkpt lat="44.81737015024266" lon="8.829176483215523"><ele>158.0</ele><time>2026-04-03T15:41:34Z</time></trkpt><trkpt lat="44.81766353617591" lon="8.829149426171565"><ele>157.0</ele><time>2026-04-03T15:41:35Z</time></trkpt><trkpt lat="44.81795590521684" lon="8.829117582850577"><ele>156.0</ele><time>2026-04-03T15:41:36Z</time></trkpt><trkpt lat="44.81824727396496" lon="8.829083268771294"><ele>156.5</ele><time>2026-04-03T15:41:37Z</time></trkpt><trkpt lat="44.81854002169109" lon="8.829049337665902"><ele>157.0</ele><time>2026-04-03T15:41:38Z</time></trkpt><trkpt lat="44.81883019755779" lon="8.829020918721952"><ele>157.0</ele><time>2026-04-03T15:41:39Z</time></trkpt><trkpt lat="44.81911853826332" lon="8.828999579826132"><ele>157.0</ele><time>2026-04-03T15:41:40Z</time></trkpt><trkpt lat="44.81941125861255" lon="8.828978522934557"><ele>155.5</ele><time>2026-04-03T15:41:41Z</time></trkpt><trkpt lat="44.81970027477108" lon="8.828955817340743"><ele>154.0</ele><time>2026-04-03T15:41:42Z</time></trkpt><trkpt lat="44.81999050030306" lon="8.828929749064603"><ele>154.0</ele><time>2026-04-03T15:41:43Z</time></trkpt><trkpt lat="44.82028101111391" lon="8.828903336267762"><ele>154.0</ele><time>2026-04-03T15:41:44Z</time></trkpt><trkpt lat="44.82057182372349" lon="8.828875042608988"><ele>154.0</ele><time>2026-04-03T15:41:45Z</time></trkpt><trkpt lat="44.82086042339471" lon="8.8288462843806"><ele>154.0</ele><time>2026-04-03T15:41:46Z</time></trkpt><trkpt lat="44.821150207126" lon="8.82881891183166"><ele>153.5</ele><time>2026-04-03T15:41:47Z</time></trkpt><trkpt lat="44.82144006572645" lon="8.828793602841321"><ele>153.0</ele><time>2026-04-03T15:41:48Z</time></trkpt><trkpt lat="44.82173171166411" lon="8.828769412481398"><ele>154.0</ele><time>2026-04-03T15:41:49Z</time></trkpt><trkpt lat="44.82202388862778" lon="8.828744109346111"><ele>155.0</ele><time>2026-04-03T15:41:50Z</time></trkpt><trkpt lat="44.82231533980805" lon="8.828716235891953"><ele>155.0</ele><time>2026-04-03T15:41:51Z</time></trkpt><trkpt lat="44.82260620552317" lon="8.828685412334076"><ele>155.0</ele><time>2026-04-03T15:41:52Z</time></trkpt><trkpt lat="44.822898799543324" lon="8.828654953517725"><ele>154.0</ele><time>2026-04-03T15:41:53Z</time></trkpt><trkpt lat="44.82318960139868" lon="8.828628039373802"><ele>153.0</ele><time>2026-04-03T15:41:54Z</time></trkpt><trkpt lat="44.82348232607755" lon="8.828603419805983"><ele>152.5</ele><time>2026-04-03T15:41:55Z</time></trkpt><trkpt lat="44.82377312307092" lon="8.828577105784047"><ele>152.0</ele><time>2026-04-03T15:41:56Z</time></trkpt><trkpt lat="44.82406389028049" lon="8.828548154578113"><ele>152.5</ele><time>2026-04-03T15:41:57Z</time></trkpt><trkpt lat="44.82435470046541" lon="8.828519315449752"><ele>153.0</ele><time>2026-04-03T15:41:58Z</time></trkpt><trkpt lat="44.82464548802629" lon="8.828492716456292"><ele>152.0</ele><time>2026-04-03T15:41:59Z</time></trkpt><trkpt lat="44.824938692812715" lon="8.82846570032543"><ele>151.0</ele><time>2026-04-03T15:42:00Z</time></trkpt><trkpt lat="44.82522933396423" lon="8.828436753220341"><ele>150.5</ele><time>2026-04-03T15:42:01Z</time></trkpt><trkpt lat="44.82552263276632" lon="8.828410214147103"><ele>150.0</ele><time>2026-04-03T15:42:02Z</time></trkpt><trkpt lat="44.825815827049745" lon="8.828383740820904"><ele>150.5</ele><time>2026-04-03T15:42:03Z</time></trkpt><trkpt lat="44.82610923103106" lon="8.828358635459068"><ele>151.0</ele><time>2026-04-03T15:42:04Z</time></trkpt><trkpt lat="44.826404698826515" lon="8.828333182466793"><ele>151.0</ele><time>2026-04-03T15:42:05Z</time></trkpt><trkpt lat="44.82669971016928" lon="8.828312051130007"><ele>151.0</ele><time>2026-04-03T15:42:06Z</time></trkpt><trkpt lat="44.82699490169508" lon="8.828295974163865"><ele>149.5</ele><time>2026-04-03T15:42:07Z</time></trkpt><trkpt lat="44.827291040922276" lon="8.828287724909242"><ele>148.0</ele><time>2026-04-03T15:42:08Z</time></trkpt><trkpt lat="44.827589135295135" lon="8.828284195744176"><ele>147.0</ele><time>2026-04-03T15:42:09Z</time></trkpt><trkpt lat="44.82788638907539" lon="8.828283834913767"><ele>146.0</ele><time>2026-04-03T15:42:10Z</time></trkpt><trkpt lat="44.82818533005704" lon="8.828284898429064"><ele>145.0</ele><time>2026-04-03T15:42:11Z</time></trkpt><trkpt lat="44.82848446745004" lon="8.82829200990264"><ele>144.0</ele><time>2026-04-03T15:42:12Z</time></trkpt><trkpt lat="44.82878371354346" lon="8.82830227331578"><ele>144.0</ele><time>2026-04-03T15:42:13Z</time></trkpt><trkpt lat="44.829086046287614" lon="8.828316778157005"><ele>144.0</ele><time>2026-04-03T15:42:14Z</time></trkpt><trkpt lat="44.82938706888802" lon="8.828334304288818"><ele>144.5</ele><time>2026-04-03T15:42:15Z</time></trkpt><trkpt lat="44.82968665718811" lon="8.828349019572581"><ele>145.0</ele><time>2026-04-03T15:42:16Z</time></trkpt><trkpt lat="44.82998794599961" lon="8.828366236671885"><ele>144.5</ele><time>2026-04-03T15:42:17Z</time></trkpt><trkpt lat="44.830286978717595" lon="8.828379226519909"><ele>144.0</ele><time>2026-04-03T15:42:18Z</time></trkpt><trkpt lat="44.83058559449865" lon="8.82839381086295"><ele>144.0</ele><time>2026-04-03T15:42:19Z</time></trkpt><trkpt lat="44.830887041066624" lon="8.828411085696452"><ele>144.0</ele><time>2026-04-03T15:42:20Z</time></trkpt><trkpt lat="44.83118550719022" lon="8.82842436853256"><ele>145.0</ele><time>2026-04-03T15:42:21Z</time></trkpt><trkpt lat="44.83148244529193" lon="8.828441032199281"><ele>146.0</ele><time>2026-04-03T15:42:22Z</time></trkpt><trkpt lat="44.831779538427874" lon="8.82845791722701"><ele>146.0</ele><time>2026-04-03T15:42:23Z</time></trkpt><trkpt lat="44.832075251629426" lon="8.828464910551792"><ele>146.0</ele><time>2026-04-03T15:42:24Z</time></trkpt><trkpt lat="44.832370067109814" lon="8.828468393724622"><ele>146.0</ele><time>2026-04-03T15:42:25Z</time></trkpt><trkpt lat="44.83266813531835" lon="8.828480175683717"><ele>146.0</ele><time>2026-04-03T15:42:26Z</time></trkpt><trkpt lat="44.832965377542045" lon="8.82849348899767"><ele>146.0</ele><time>2026-04-03T15:42:27Z</time></trkpt><trkpt lat="44.83326384990598" lon="8.828512142156795"><ele>146.0</ele><time>2026-04-03T15:42:28Z</time></trkpt><trkpt lat="44.83355981265483" lon="8.828531763021035"><ele>145.5</ele><time>2026-04-03T15:42:29Z</time></trkpt><trkpt lat="44.83385471879924" lon="8.828553587824315"><ele>145.0</ele><time>2026-04-03T15:42:30Z</time></trkpt><trkpt lat="44.83415167317817" lon="8.828572371811813"><ele>143.0</ele><time>2026-04-03T15:42:31Z</time></trkpt><trkpt lat="44.834448699294526" lon="8.828582903011052"><ele>141.0</ele><time>2026-04-03T15:42:32Z</time></trkpt><trkpt lat="44.83474352878445" lon="8.82859840379669"><ele>141.0</ele><time>2026-04-03T15:42:33Z</time></trkpt><trkpt lat="44.83503908146319" lon="8.828617143271785"><ele>141.0</ele><time>2026-04-03T15:42:34Z</time></trkpt><trkpt lat="44.83533466806976" lon="8.828642666554963"><ele>141.5</ele><time>2026-04-03T15:42:35Z</time></trkpt><trkpt lat="44.83562878630572" lon="8.828669394025368"><ele>142.0</ele><time>2026-04-03T15:42:36Z</time></trkpt><trkpt lat="44.83592382142513" lon="8.828692615813226"><ele>142.0</ele><time>2026-04-03T15:42:37Z</time></trkpt><trkpt lat="44.83622101397472" lon="8.828709966519458"><ele>142.0</ele><time>2026-04-03T15:42:38Z</time></trkpt><trkpt lat="44.836515427260345" lon="8.828722294277407"><ele>141.5</ele><time>2026-04-03T15:42:39Z</time></trkpt><trkpt lat="44.8368123202019" lon="8.828738963978056"><ele>141.0</ele><time>2026-04-03T15:42:40Z</time></trkpt><trkpt lat="44.83710719473041" lon="8.828759187722836"><ele>141.0</ele><time>2026-04-03T15:42:41Z</time></trkpt><trkpt lat="44.8374041270641" lon="8.828777963253819"><ele>141.0</ele><time>2026-04-03T15:42:42Z</time></trkpt><trkpt lat="44.83770066300811" lon="8.828793414782808"><ele>142.0</ele><time>2026-04-03T15:42:43Z</time></trkpt><trkpt lat="44.83799679871943" lon="8.828805035172756"><ele>143.0</ele><time>2026-04-03T15:42:44Z</time></trkpt><trkpt lat="44.83829498802309" lon="8.828816749387856"><ele>141.5</ele><time>2026-04-03T15:42:45Z</time></trkpt><trkpt lat="44.838588699507234" lon="8.828828408999096"><ele>140.0</ele><time>2026-04-03T15:42:46Z</time></trkpt><trkpt lat="44.83888528311803" lon="8.82884211020868"><ele>140.0</ele><time>2026-04-03T15:42:47Z</time></trkpt><trkpt lat="44.83918060985177" lon="8.828860443564906"><ele>140.0</ele><time>2026-04-03T15:42:48Z</time></trkpt><trkpt lat="44.839477491239904" lon="8.828878239411253"><ele>139.5</ele><time>2026-04-03T15:42:49Z</time></trkpt><trkpt lat="44.83977393496611" lon="8.82889838706518"><ele>139.0</ele><time>2026-04-03T15:42:50Z</time></trkpt><trkpt lat="44.84007087752865" lon="8.82891619151305"><ele>139.5</ele><time>2026-04-03T15:42:51Z</time></trkpt><trkpt lat="44.84036512356417" lon="8.828929292268585"><ele>140.0</ele><time>2026-04-03T15:42:52Z</time></trkpt><trkpt lat="44.84066136711243" lon="8.828944387008086"><ele>140.0</ele><time>2026-04-03T15:42:53Z</time></trkpt><trkpt lat="44.840957982514716" lon="8.828963032266733"><ele>140.0</ele><time>2026-04-03T15:42:54Z</time></trkpt><trkpt lat="44.841255329165115" lon="8.828981777534342"><ele>140.0</ele><time>2026-04-03T15:42:55Z</time></trkpt><trkpt lat="44.84155296558499" lon="8.828999843618233"><ele>140.0</ele><time>2026-04-03T15:42:56Z</time></trkpt><trkpt lat="44.841852526554916" lon="8.829013941702838"><ele>139.5</ele><time>2026-04-03T15:42:57Z</time></trkpt><trkpt lat="44.842149815586595" lon="8.829029236567168"><ele>139.0</ele><time>2026-04-03T15:42:58Z</time></trkpt><trkpt lat="44.84245212491156" lon="8.829043993283753"><ele>138.5</ele><time>2026-04-03T15:42:58.999Z</time></trkpt><trkpt lat="44.84275363920409" lon="8.82905978408401"><ele>138.0</ele><time>2026-04-03T15:42:59.999Z</time></trkpt><trkpt lat="44.84305589165895" lon="8.829076834878824"><ele>138.0</ele><time>2026-04-03T15:43:00.999Z</time></trkpt><trkpt lat="44.8433549835216" lon="8.829094024323973"><ele>138.0</ele><time>2026-04-03T15:43:01.999Z</time></trkpt><trkpt lat="44.843656922758974" lon="8.82911121612987"><ele>138.0</ele><time>2026-04-03T15:43:02.999Z</time></trkpt><trkpt lat="44.843960887842734" lon="8.829126939787013"><ele>138.0</ele><time>2026-04-03T15:43:03.999Z</time></trkpt><trkpt lat="44.84426197760702" lon="8.82914136956975"><ele>138.0</ele><time>2026-04-03T15:43:04.999Z</time></trkpt><trkpt lat="44.84456691939065" lon="8.82915799227221"><ele>138.0</ele><time>2026-04-03T15:43:05.999Z</time></trkpt><trkpt lat="44.844868051541" lon="8.82917655866471"><ele>138.0</ele><time>2026-04-03T15:43:06.999Z</time></trkpt><trkpt lat="44.84517138611291" lon="8.829197097991074"><ele>138.0</ele><time>2026-04-03T15:43:07.999Z</time></trkpt><trkpt lat="44.845474506954524" lon="8.829215783918526"><ele>138.0</ele><time>2026-04-03T15:43:08.999Z</time></trkpt><trkpt lat="44.84577774416198" lon="8.829232045159886"><ele>138.0</ele><time>2026-04-03T15:43:09.999Z</time></trkpt><trkpt lat="44.84607949274481" lon="8.829247635086793"><ele>137.0</ele><time>2026-04-03T15:43:10.999Z</time></trkpt><trkpt lat="44.84638170271967" lon="8.82926395793001"><ele>136.0</ele><time>2026-04-03T15:43:11.999Z</time></trkpt><trkpt lat="44.84668338088678" lon="8.829283755755458"><ele>136.0</ele><time>2026-04-03T15:43:12.999Z</time></trkpt><trkpt lat="44.846985515694605" lon="8.829302614581966"><ele>136.0</ele><time>2026-04-03T15:43:13.999Z</time></trkpt><trkpt lat="44.84728821761937" lon="8.82932080590632"><ele>136.0</ele><time>2026-04-03T15:43:14.999Z</time></trkpt><trkpt lat="44.84759037817164" lon="8.829336790605913"><ele>136.0</ele><time>2026-04-03T15:43:15.999Z</time></trkpt><trkpt lat="44.84789161250105" lon="8.829352926830259"><ele>136.0</ele><time>2026-04-03T15:43:16.999Z</time></trkpt><trkpt lat="44.84819286953308" lon="8.829368306698983"><ele>136.0</ele><time>2026-04-03T15:43:17.999Z</time></trkpt><trkpt lat="44.848493526139926" lon="8.829383467961264"><ele>135.5</ele><time>2026-04-03T15:43:18.999Z</time></trkpt><trkpt lat="44.84879422675449" lon="8.829400426146512"><ele>135.0</ele><time>2026-04-03T15:43:19.999Z</time></trkpt><trkpt lat="44.849092959956174" lon="8.829417607761089"><ele>135.0</ele><time>2026-04-03T15:43:20.999Z</time></trkpt><trkpt lat="44.84938897159397" lon="8.82943577425539"><ele>135.0</ele><time>2026-04-03T15:43:21.999Z</time></trkpt><trkpt lat="44.84968535821625" lon="8.829454672045891"><ele>135.0</ele><time>2026-04-03T15:43:22.999Z</time></trkpt><trkpt lat="44.84998149599117" lon="8.82947108834596"><ele>135.0</ele><time>2026-04-03T15:43:23.999Z</time></trkpt><trkpt lat="44.85027717697833" lon="8.829485479161942"><ele>135.5</ele><time>2026-04-03T15:43:24.999Z</time></trkpt><trkpt lat="44.850573027175095" lon="8.829502180498661"><ele>136.0</ele><time>2026-04-03T15:43:25.999Z</time></trkpt><trkpt lat="44.85086619604171" lon="8.829519917712373"><ele>135.0</ele><time>2026-04-03T15:43:26.999Z</time></trkpt><trkpt lat="44.85116044361358" lon="8.829535801107877"><ele>134.0</ele><time>2026-04-03T15:43:27.999Z</time></trkpt><trkpt lat="44.851452157950035" lon="8.829551613329784"><ele>134.0</ele><time>2026-04-03T15:43:28.999Z</time></trkpt><trkpt lat="44.851745044795" lon="8.829568221593993"><ele>134.0</ele><time>2026-04-03T15:43:29.999Z</time></trkpt><trkpt lat="44.852037219183046" lon="8.829584388353883"><ele>134.0</ele><time>2026-04-03T15:43:30.999Z</time></trkpt><trkpt lat="44.85233075128263" lon="8.829599208080193"><ele>134.0</ele><time>2026-04-03T15:43:31.999Z</time></trkpt><trkpt lat="44.85262201249253" lon="8.82961522005013"><ele>135.0</ele><time>2026-04-03T15:43:32.999Z</time></trkpt><trkpt lat="44.852914284208886" lon="8.829630970281372"><ele>136.0</ele><time>2026-04-03T15:43:33.999Z</time></trkpt><trkpt lat="44.8532068799762" lon="8.829646829744737"><ele>135.0</ele><time>2026-04-03T15:43:34.999Z</time></trkpt><trkpt lat="44.85349908014916" lon="8.829663222244733"><ele>134.0</ele><time>2026-04-03T15:43:35.999Z</time></trkpt><trkpt lat="44.85379055902288" lon="8.829677711668142"><ele>134.0</ele><time>2026-04-03T15:43:37Z</time></trkpt><trkpt lat="44.85408656485898" lon="8.829692014229092"><ele>134.0</ele><time>2026-04-03T15:43:38Z</time></trkpt><trkpt lat="44.854383578605606" lon="8.829705036896913"><ele>133.0</ele><time>2026-04-03T15:43:39Z</time></trkpt><trkpt lat="44.85467854500859" lon="8.829719332349423"><ele>132.0</ele><time>2026-04-03T15:43:40Z</time></trkpt><trkpt lat="44.85497390001776" lon="8.82973418156361"><ele>131.5</ele><time>2026-04-03T15:43:41Z</time></trkpt><trkpt lat="44.85526758489884" lon="8.82974882030384"><ele>131.0</ele><time>2026-04-03T15:43:42Z</time></trkpt><trkpt lat="44.85556469689712" lon="8.829762958672115"><ele>131.0</ele><time>2026-04-03T15:43:43Z</time></trkpt><trkpt lat="44.855860228461914" lon="8.829777786735656"><ele>131.0</ele><time>2026-04-03T15:43:44Z</time></trkpt><trkpt lat="44.85615489923982" lon="8.829794061019387"><ele>130.0</ele><time>2026-04-03T15:43:45Z</time></trkpt><trkpt lat="44.85645035010341" lon="8.829809451484277"><ele>129.0</ele><time>2026-04-03T15:43:46Z</time></trkpt><trkpt lat="44.85674787851791" lon="8.829825338249051"><ele>129.5</ele><time>2026-04-03T15:43:47Z</time></trkpt><trkpt lat="44.85704449602176" lon="8.829839061300145"><ele>130.0</ele><time>2026-04-03T15:43:48Z</time></trkpt><trkpt lat="44.85734068001049" lon="8.82985326131145"><ele>129.5</ele><time>2026-04-03T15:43:49Z</time></trkpt><trkpt lat="44.85763793147259" lon="8.829869343552252"><ele>129.0</ele><time>2026-04-03T15:43:50Z</time></trkpt><trkpt lat="44.8579321587124" lon="8.829886423393692"><ele>129.0</ele><time>2026-04-03T15:43:51Z</time></trkpt><trkpt lat="44.85822847741405" lon="8.829903814967274"><ele>129.0</ele><time>2026-04-03T15:43:52Z</time></trkpt><trkpt lat="44.85852292779628" lon="8.82991968708339"><ele>128.5</ele><time>2026-04-03T15:43:53Z</time></trkpt><trkpt lat="44.858818256787046" lon="8.829938299368791"><ele>128.0</ele><time>2026-04-03T15:43:54Z</time></trkpt><trkpt lat="44.85911607521495" lon="8.829954777060271"><ele>128.5</ele><time>2026-04-03T15:43:55Z</time></trkpt><trkpt lat="44.859414088657275" lon="8.82996795752423"><ele>129.0</ele><time>2026-04-03T15:43:56Z</time></trkpt><trkpt lat="44.85971256633732" lon="8.829982611619993"><ele>129.0</ele><time>2026-04-03T15:43:57Z</time></trkpt><trkpt lat="44.86001169944069" lon="8.829999191572309"><ele>129.0</ele><time>2026-04-03T15:43:58Z</time></trkpt><trkpt lat="44.86031070809575" lon="8.830017029745557"><ele>129.0</ele><time>2026-04-03T15:43:59Z</time></trkpt><trkpt lat="44.86060924434601" lon="8.830034460245285"><ele>129.0</ele><time>2026-04-03T15:44:00Z</time></trkpt><trkpt lat="44.86090615271837" lon="8.83004937865903"><ele>128.0</ele><time>2026-04-03T15:44:01Z</time></trkpt><trkpt lat="44.861204583011805" lon="8.830067150614205"><ele>127.0</ele><time>2026-04-03T15:44:02Z</time></trkpt><trkpt lat="44.861502819436026" lon="8.830084043322291"><ele>128.0</ele><time>2026-04-03T15:44:03Z</time></trkpt><trkpt lat="44.861800185910944" lon="8.83010217560033"><ele>129.0</ele><time>2026-04-03T15:44:04Z</time></trkpt><trkpt lat="44.86209869014458" lon="8.830122327730352"><ele>129.0</ele><time>2026-04-03T15:44:05Z</time></trkpt><trkpt lat="44.862395443920796" lon="8.83014092371387"><ele>129.0</ele><time>2026-04-03T15:44:06Z</time></trkpt><trkpt lat="44.86269297427453" lon="8.830156241859667"><ele>130.0</ele><time>2026-04-03T15:44:07Z</time></trkpt><trkpt lat="44.862991552039524" lon="8.830169432569214"><ele>131.0</ele><time>2026-04-03T15:44:08Z</time></trkpt><trkpt lat="44.86329267003225" lon="8.830183662545483"><ele>129.5</ele><time>2026-04-03T15:44:09Z</time></trkpt><trkpt lat="44.863591822252815" lon="8.830203387825284"><ele>128.0</ele><time>2026-04-03T15:44:10Z</time></trkpt><trkpt lat="44.86388696292693" lon="8.830229216777235"><ele>128.0</ele><time>2026-04-03T15:44:11Z</time></trkpt><trkpt lat="44.864185490604875" lon="8.830257890355174"><ele>128.0</ele><time>2026-04-03T15:44:12Z</time></trkpt><trkpt lat="44.86448220840001" lon="8.830291909850716"><ele>127.5</ele><time>2026-04-03T15:44:13Z</time></trkpt><trkpt lat="44.8647771536497" lon="8.830326055922605"><ele>127.0</ele><time>2026-04-03T15:44:14Z</time></trkpt><trkpt lat="44.86506782635374" lon="8.830365667112229"><ele>127.0</ele><time>2026-04-03T15:44:15Z</time></trkpt><trkpt lat="44.865361551907746" lon="8.830419345386714"><ele>127.0</ele><time>2026-04-03T15:44:16Z</time></trkpt><trkpt lat="44.86565021022539" lon="8.830478736987478"><ele>127.0</ele><time>2026-04-03T15:44:17Z</time></trkpt><trkpt lat="44.865939005424146" lon="8.830543008544309"><ele>127.0</ele><time>2026-04-03T15:44:18Z</time></trkpt><trkpt lat="44.86622397243295" lon="8.830612299867164"><ele>126.0</ele><time>2026-04-03T15:44:19Z</time></trkpt><trkpt lat="44.86651036079839" lon="8.830687115111035"><ele>125.0</ele><time>2026-04-03T15:44:20Z</time></trkpt><trkpt lat="44.866792214501416" lon="8.830764299943466"><ele>124.5</ele><time>2026-04-03T15:44:21Z</time></trkpt><trkpt lat="44.86707501084647" lon="8.830844318109843"><ele>124.0</ele><time>2026-04-03T15:44:22Z</time></trkpt><trkpt lat="44.867355901191104" lon="8.830926987891289"><ele>125.0</ele><time>2026-04-03T15:44:23Z</time></trkpt><trkpt lat="44.867636059516116" lon="8.831018932715143"><ele>126.0</ele><time>2026-04-03T15:44:24Z</time></trkpt><trkpt lat="44.867914187771795" lon="8.831121942173693"><ele>126.0</ele><time>2026-04-03T15:44:25Z</time></trkpt><trkpt lat="44.868191015606165" lon="8.831235913901395"><ele>126.0</ele><time>2026-04-03T15:44:26Z</time></trkpt><trkpt lat="44.868467131238056" lon="8.83135139645425"><ele>126.0</ele><time>2026-04-03T15:44:27Z</time></trkpt><trkpt lat="44.8687418188549" lon="8.831473611631093"><ele>126.0</ele><time>2026-04-03T15:44:28Z</time></trkpt><trkpt lat="44.86901577838644" lon="8.83159649282496"><ele>125.0</ele><time>2026-04-03T15:44:29Z</time></trkpt><trkpt lat="44.869287323232626" lon="8.831717492239145"><ele>124.0</ele><time>2026-04-03T15:44:30Z</time></trkpt><trkpt lat="44.869564812231516" lon="8.8318396471512"><ele>124.0</ele><time>2026-04-03T15:44:31Z</time></trkpt><trkpt lat="44.86983716046332" lon="8.831958399290913"><ele>124.0</ele><time>2026-04-03T15:44:32Z</time></trkpt><trkpt lat="44.870112239630345" lon="8.832077804230112"><ele>123.5</ele><time>2026-04-03T15:44:33Z</time></trkpt><trkpt lat="44.87038669735284" lon="8.83219787047241"><ele>123.0</ele><time>2026-04-03T15:44:34Z</time></trkpt><trkpt lat="44.87065893965987" lon="8.832317392328383"><ele>123.0</ele><time>2026-04-03T15:44:35Z</time></trkpt><trkpt lat="44.87093341823804" lon="8.832437530569168"><ele>123.0</ele><time>2026-04-03T15:44:36Z</time></trkpt><trkpt lat="44.87120715709111" lon="8.832557876748643"><ele>123.0</ele><time>2026-04-03T15:44:37Z</time></trkpt><trkpt lat="44.871479482167935" lon="8.832676507425386"><ele>123.0</ele><time>2026-04-03T15:44:38Z</time></trkpt><trkpt lat="44.87175344850771" lon="8.832794552568844"><ele>123.5</ele><time>2026-04-03T15:44:39Z</time></trkpt><trkpt lat="44.87202711144554" lon="8.832913011826044"><ele>124.0</ele><time>2026-04-03T15:44:40Z</time></trkpt><trkpt lat="44.872298863346636" lon="8.833032004262302"><ele>124.0</ele><time>2026-04-03T15:44:41Z</time></trkpt><trkpt lat="44.87257354929428" lon="8.833151442560045"><ele>124.0</ele><time>2026-04-03T15:44:42Z</time></trkpt><trkpt lat="44.87284625304027" lon="8.833267228429953"><ele>124.0</ele><time>2026-04-03T15:44:43Z</time></trkpt><trkpt lat="44.873119662786024" lon="8.8333843198248"><ele>124.0</ele><time>2026-04-03T15:44:44Z</time></trkpt><trkpt lat="44.87339447117656" lon="8.833500377999892"><ele>124.5</ele><time>2026-04-03T15:44:45Z</time></trkpt><trkpt lat="44.87366930073185" lon="8.833616237138026"><ele>125.0</ele><time>2026-04-03T15:44:46Z</time></trkpt><trkpt lat="44.87394386914224" lon="8.833733895092461"><ele>125.0</ele><time>2026-04-03T15:44:47Z</time></trkpt><trkpt lat="44.87421841614404" lon="8.833855418128964"><ele>125.0</ele><time>2026-04-03T15:44:48Z</time></trkpt><trkpt lat="44.87449368330767" lon="8.833979025797044"><ele>124.5</ele><time>2026-04-03T15:44:49Z</time></trkpt><trkpt lat="44.87476639941059" lon="8.834102602630109"><ele>124.0</ele><time>2026-04-03T15:44:50Z</time></trkpt><trkpt lat="44.875043284661956" lon="8.834224881204337"><ele>124.5</ele><time>2026-04-03T15:44:51Z</time></trkpt><trkpt lat="44.87531873712528" lon="8.834346538273005"><ele>125.0</ele><time>2026-04-03T15:44:52Z</time></trkpt><trkpt lat="44.87559477078598" lon="8.834465766771544"><ele>125.0</ele><time>2026-04-03T15:44:53Z</time></trkpt><trkpt lat="44.87587046638623" lon="8.834582027499547"><ele>125.0</ele><time>2026-04-03T15:44:54Z</time></trkpt><trkpt lat="44.87615028964357" lon="8.83469904877077"><ele>123.5</ele><time>2026-04-03T15:44:55Z</time></trkpt><trkpt lat="44.876427968592" lon="8.834816997001615"><ele>122.0</ele><time>2026-04-03T15:44:56Z</time></trkpt><trkpt lat="44.876706046125655" lon="8.834939111823507"><ele>122.5</ele><time>2026-04-03T15:44:57Z</time></trkpt><trkpt lat="44.87698411093302" lon="8.835060972214166"><ele>123.0</ele><time>2026-04-03T15:44:58Z</time></trkpt><trkpt lat="44.87726211278318" lon="8.835184142453535"><ele>123.0</ele><time>2026-04-03T15:44:59Z</time></trkpt><trkpt lat="44.87754011709433" lon="8.83531060801027"><ele>123.0</ele><time>2026-04-03T15:45:00Z</time></trkpt><trkpt lat="44.87781695906033" lon="8.83543915858523"><ele>123.0</ele><time>2026-04-03T15:45:01Z</time></trkpt><trkpt lat="44.87809437775623" lon="8.835568033211048"><ele>123.0</ele><time>2026-04-03T15:45:02Z</time></trkpt><trkpt lat="44.87836994989513" lon="8.83569814869166"><ele>123.5</ele><time>2026-04-03T15:45:03Z</time></trkpt><trkpt lat="44.87864520022089" lon="8.835828769411766"><ele>124.0</ele><time>2026-04-03T15:45:04Z</time></trkpt><trkpt lat="44.87892223474783" lon="8.835963017328684"><ele>123.5</ele><time>2026-04-03T15:45:05Z</time></trkpt><trkpt lat="44.8791982584914" lon="8.836094237952537"><ele>123.0</ele><time>2026-04-03T15:45:06Z</time></trkpt><trkpt lat="44.879474402552916" lon="8.83622716472566"><ele>123.0</ele><time>2026-04-03T15:45:07Z</time></trkpt><trkpt lat="44.87975110627559" lon="8.83635926945721"><ele>123.0</ele><time>2026-04-03T15:45:08Z</time></trkpt><trkpt lat="44.88002893598772" lon="8.836488953284583"><ele>122.0</ele><time>2026-04-03T15:45:09Z</time></trkpt><trkpt lat="44.880307226444586" lon="8.836616811159372"><ele>121.0</ele><time>2026-04-03T15:45:10Z</time></trkpt><trkpt lat="44.88058571378642" lon="8.836743011443025"><ele>120.0</ele><time>2026-04-03T15:45:11Z</time></trkpt><trkpt lat="44.88086449809842" lon="8.836870604764623"><ele>119.0</ele><time>2026-04-03T15:45:11.999Z</time></trkpt><trkpt lat="44.88114278283933" lon="8.83700021081554"><ele>118.5</ele><time>2026-04-03T15:45:12.999Z</time></trkpt><trkpt lat="44.88141953785835" lon="8.837130223012844"><ele>118.0</ele><time>2026-04-03T15:45:13.999Z</time></trkpt><trkpt lat="44.88169662912642" lon="8.837263636011349"><ele>119.0</ele><time>2026-04-03T15:45:14.999Z</time></trkpt><trkpt lat="44.88197300088674" lon="8.837400557654117"><ele>120.0</ele><time>2026-04-03T15:45:15.999Z</time></trkpt><trkpt lat="44.882249551529675" lon="8.837534954168827"><ele>120.0</ele><time>2026-04-03T15:45:16.999Z</time></trkpt><trkpt lat="44.88252624262989" lon="8.837666409592746"><ele>120.0</ele><time>2026-04-03T15:45:17.999Z</time></trkpt><trkpt lat="44.88280339098327" lon="8.837795747528288"><ele>120.0</ele><time>2026-04-03T15:45:18.999Z</time></trkpt><trkpt lat="44.88308148962017" lon="8.837925372837066"><ele>120.0</ele><time>2026-04-03T15:45:19.999Z</time></trkpt><trkpt lat="44.88335746497611" lon="8.838057199598312"><ele>118.5</ele><time>2026-04-03T15:45:20.999Z</time></trkpt><trkpt lat="44.88363370644284" lon="8.838186068402106"><ele>117.0</ele><time>2026-04-03T15:45:21.999Z</time></trkpt><trkpt lat="44.883909951318245" lon="8.838312610511672"><ele>117.0</ele><time>2026-04-03T15:45:22.999Z</time></trkpt><trkpt lat="44.884188416258205" lon="8.838442036179918"><ele>117.0</ele><time>2026-04-03T15:45:23.999Z</time></trkpt><trkpt lat="44.884464661174675" lon="8.838571753599693"><ele>118.5</ele><time>2026-04-03T15:45:24.999Z</time></trkpt><trkpt lat="44.88474226929044" lon="8.838706744692864"><ele>120.0</ele><time>2026-04-03T15:45:25.999Z</time></trkpt><trkpt lat="44.88502080845507" lon="8.83884022723716"><ele>119.5</ele><time>2026-04-03T15:45:26.999Z</time></trkpt><trkpt lat="44.88529890775084" lon="8.83897147381924"><ele>119.0</ele><time>2026-04-03T15:45:27.999Z</time></trkpt><trkpt lat="44.88557811611685" lon="8.83909997065761"><ele>119.0</ele><time>2026-04-03T15:45:28.999Z</time></trkpt><trkpt lat="44.885856972116784" lon="8.839229938685499"><ele>119.0</ele><time>2026-04-03T15:45:29.999Z</time></trkpt><trkpt lat="44.88613911062359" lon="8.839361446190393"><ele>118.0</ele><time>2026-04-03T15:45:30.999Z</time></trkpt><trkpt lat="44.886413907612045" lon="8.839485345324052"><ele>117.0</ele><time>2026-04-03T15:45:31.999Z</time></trkpt><trkpt lat="44.88669464687073" lon="8.839612746559313"><ele>117.0</ele><time>2026-04-03T15:45:32.999Z</time></trkpt><trkpt lat="44.886974292745336" lon="8.839743943619098"><ele>117.0</ele><time>2026-04-03T15:45:33.999Z</time></trkpt><trkpt lat="44.88725106438162" lon="8.839877295253096"><ele>117.0</ele><time>2026-04-03T15:45:34.999Z</time></trkpt><trkpt lat="44.88752888857982" lon="8.840010794666023"><ele>117.0</ele><time>2026-04-03T15:45:35.999Z</time></trkpt><trkpt lat="44.88780539463688" lon="8.840143386456988"><ele>117.0</ele><time>2026-04-03T15:45:36.999Z</time></trkpt><trkpt lat="44.888082425426056" lon="8.840275079166865"><ele>117.0</ele><time>2026-04-03T15:45:37.999Z</time></trkpt><trkpt lat="44.88836184240259" lon="8.840401556407711"><ele>117.0</ele><time>2026-04-03T15:45:38.999Z</time></trkpt><trkpt lat="44.888643716980916" lon="8.840523696282226"><ele>117.0</ele><time>2026-04-03T15:45:39.999Z</time></trkpt><trkpt lat="44.888925103444684" lon="8.840641370718016"><ele>117.0</ele><time>2026-04-03T15:45:40.999Z</time></trkpt><trkpt lat="44.88920862932581" lon="8.840754776252355"><ele>117.0</ele><time>2026-04-03T15:45:41.999Z</time></trkpt><trkpt lat="44.88949432153365" lon="8.84085912499498"><ele>117.5</ele><time>2026-04-03T15:45:43Z</time></trkpt><trkpt lat="44.88978084216199" lon="8.840959742590606"><ele>118.0</ele><time>2026-04-03T15:45:44Z</time></trkpt><trkpt lat="44.89006684878303" lon="8.841058885831686"><ele>117.5</ele><time>2026-04-03T15:45:45Z</time></trkpt><trkpt lat="44.890351725834456" lon="8.841156987300423"><ele>117.0</ele><time>2026-04-03T15:45:46Z</time></trkpt><trkpt lat="44.890637206460546" lon="8.841249933261334"><ele>116.0</ele><time>2026-04-03T15:45:47Z</time></trkpt><trkpt lat="44.89092537825769" lon="8.841335383489286"><ele>115.0</ele><time>2026-04-03T15:45:48Z</time></trkpt><trkpt lat="44.891210837158994" lon="8.841416175005802"><ele>115.0</ele><time>2026-04-03T15:45:49Z</time></trkpt><trkpt lat="44.89149618801817" lon="8.841491123340907"><ele>115.0</ele><time>2026-04-03T15:45:50Z</time></trkpt><trkpt lat="44.89177877108355" lon="8.841561771422915"><ele>115.5</ele><time>2026-04-03T15:45:51Z</time></trkpt><trkpt lat="44.892062258779575" lon="8.841629295398509"><ele>116.0</ele><time>2026-04-03T15:45:52Z</time></trkpt><trkpt lat="44.892342296369236" lon="8.841691647826826"><ele>116.5</ele><time>2026-04-03T15:45:53Z</time></trkpt><trkpt lat="44.89262512522965" lon="8.841748818698557"><ele>117.0</ele><time>2026-04-03T15:45:54Z</time></trkpt><trkpt lat="44.89290435276763" lon="8.84179917146245"><ele>117.5</ele><time>2026-04-03T15:45:55Z</time></trkpt><trkpt lat="44.89318519444434" lon="8.84184779890114"><ele>118.0</ele><time>2026-04-03T15:45:56Z</time></trkpt><trkpt lat="44.89346327805484" lon="8.841892918802348"><ele>118.0</ele><time>2026-04-03T15:45:57Z</time></trkpt><trkpt lat="44.89374431342681" lon="8.841934642045569"><ele>118.0</ele><time>2026-04-03T15:45:58Z</time></trkpt><trkpt lat="44.894021086989255" lon="8.841976531385903"><ele>117.0</ele><time>2026-04-03T15:45:59Z</time></trkpt><trkpt lat="44.89429607666852" lon="8.84201701143346"><ele>116.0</ele><time>2026-04-03T15:46:00Z</time></trkpt><trkpt lat="44.894571728339784" lon="8.842057564805904"><ele>116.0</ele><time>2026-04-03T15:46:01Z</time></trkpt><trkpt lat="44.894847009572885" lon="8.842098994549977"><ele>116.0</ele><time>2026-04-03T15:46:02Z</time></trkpt><trkpt lat="44.89512397043315" lon="8.842141524467673"><ele>116.5</ele><time>2026-04-03T15:46:03Z</time></trkpt><trkpt lat="44.89539542601462" lon="8.84218392344342"><ele>117.0</ele><time>2026-04-03T15:46:04Z</time></trkpt><trkpt lat="44.89567325114781" lon="8.842227251110131"><ele>115.5</ele><time>2026-04-03T15:46:05Z</time></trkpt><trkpt lat="44.89594921501806" lon="8.842272502397545"><ele>114.0</ele><time>2026-04-03T15:46:06Z</time></trkpt><trkpt lat="44.8962274042388" lon="8.842321236739432"><ele>114.0</ele><time>2026-04-03T15:46:07Z</time></trkpt><trkpt lat="44.89650654079119" lon="8.842368372004163"><ele>114.0</ele><time>2026-04-03T15:46:08Z</time></trkpt><trkpt lat="44.89678233716705" lon="8.842416094727"><ele>115.0</ele><time>2026-04-03T15:46:09Z</time></trkpt><trkpt lat="44.89706232976091" lon="8.842462624389858"><ele>116.0</ele><time>2026-04-03T15:46:10Z</time></trkpt><trkpt lat="44.89734331125225" lon="8.84251087367376"><ele>115.5</ele><time>2026-04-03T15:46:11Z</time></trkpt><trkpt lat="44.89762553321102" lon="8.842558497040294"><ele>115.0</ele><time>2026-04-03T15:46:12Z</time></trkpt><trkpt lat="44.897908471275" lon="8.842611740055903"><ele>114.0</ele><time>2026-04-03T15:46:13Z</time></trkpt><trkpt lat="44.898191450145845" lon="8.842669495132444"><ele>113.0</ele><time>2026-04-03T15:46:14Z</time></trkpt><trkpt lat="44.89847503788163" lon="8.84272670172657"><ele>112.0</ele><time>2026-04-03T15:46:15Z</time></trkpt><trkpt lat="44.898761209312674" lon="8.842781850918595"><ele>111.0</ele><time>2026-04-03T15:46:16Z</time></trkpt><trkpt lat="44.89904919008008" lon="8.842833801958248"><ele>112.0</ele><time>2026-04-03T15:46:17Z</time></trkpt><trkpt lat="44.89934099366247" lon="8.842881949999626"><ele>113.0</ele><time>2026-04-03T15:46:18Z</time></trkpt><trkpt lat="44.89963358430319" lon="8.84292633949646"><ele>113.0</ele><time>2026-04-03T15:46:19Z</time></trkpt><trkpt lat="44.899927368022794" lon="8.842967827750412"><ele>113.0</ele><time>2026-04-03T15:46:20Z</time></trkpt><trkpt lat="44.90022060568077" lon="8.843007844546527"><ele>111.5</ele><time>2026-04-03T15:46:21Z</time></trkpt><trkpt lat="44.900518015695226" lon="8.843051436093665"><ele>110.0</ele><time>2026-04-03T15:46:22Z</time></trkpt><trkpt lat="44.90081709486209" lon="8.843095349486772"><ele>110.0</ele><time>2026-04-03T15:46:23Z</time></trkpt><trkpt lat="44.90111224988727" lon="8.843131609506383"><ele>110.0</ele><time>2026-04-03T15:46:24Z</time></trkpt><trkpt lat="44.901409915972636" lon="8.843166903298137"><ele>110.0</ele><time>2026-04-03T15:46:25Z</time></trkpt><trkpt lat="44.90170812323146" lon="8.843199025970273"><ele>110.0</ele><time>2026-04-03T15:46:26Z</time></trkpt><trkpt lat="44.90200657315629" lon="8.84323035215533"><ele>109.5</ele><time>2026-04-03T15:46:27Z</time></trkpt><trkpt lat="44.90230197841214" lon="8.843262480517247"><ele>109.0</ele><time>2026-04-03T15:46:28Z</time></trkpt><trkpt lat="44.902597460301415" lon="8.843292556700325"><ele>109.0</ele><time>2026-04-03T15:46:29Z</time></trkpt><trkpt lat="44.90289162535509" lon="8.843321753913537"><ele>109.0</ele><time>2026-04-03T15:46:30Z</time></trkpt><trkpt lat="44.90318727263367" lon="8.843349166391624"><ele>110.0</ele><time>2026-04-03T15:46:31Z</time></trkpt><trkpt lat="44.90348025772753" lon="8.843377319337108"><ele>111.0</ele><time>2026-04-03T15:46:32Z</time></trkpt><trkpt lat="44.903775393672426" lon="8.843403536405367"><ele>111.0</ele><time>2026-04-03T15:46:33Z</time></trkpt><trkpt lat="44.904066573318076" lon="8.843430407518303"><ele>111.0</ele><time>2026-04-03T15:46:34Z</time></trkpt><trkpt lat="44.90436254862864" lon="8.843458291424163"><ele>110.0</ele><time>2026-04-03T15:46:35Z</time></trkpt><trkpt lat="44.904655455331415" lon="8.8434832799743"><ele>109.0</ele><time>2026-04-03T15:46:36Z</time></trkpt><trkpt lat="44.90495010715627" lon="8.843507079604551"><ele>109.0</ele><time>2026-04-03T15:46:37Z</time></trkpt><trkpt lat="44.90524493705746" lon="8.843533400159469"><ele>109.0</ele><time>2026-04-03T15:46:38Z</time></trkpt><trkpt lat="44.90553803329891" lon="8.843564427443884"><ele>109.0</ele><time>2026-04-03T15:46:39Z</time></trkpt><trkpt lat="44.905832357753205" lon="8.84359831050576"><ele>109.0</ele><time>2026-04-03T15:46:40Z</time></trkpt><trkpt lat="44.90612609187618" lon="8.843630277809247"><ele>109.0</ele><time>2026-04-03T15:46:41Z</time></trkpt><trkpt lat="44.906419498710704" lon="8.84365874016786"><ele>109.0</ele><time>2026-04-03T15:46:42Z</time></trkpt><trkpt lat="44.90671157159074" lon="8.843684313918663"><ele>109.0</ele><time>2026-04-03T15:46:43Z</time></trkpt><trkpt lat="44.90700166508621" lon="8.84371080382742"><ele>109.0</ele><time>2026-04-03T15:46:44Z</time></trkpt><trkpt lat="44.90729208748213" lon="8.84373677623874"><ele>109.0</ele><time>2026-04-03T15:46:45Z</time></trkpt><trkpt lat="44.9075819500619" lon="8.843762703967089"><ele>109.0</ele><time>2026-04-03T15:46:46Z</time></trkpt><trkpt lat="44.90787162774943" lon="8.843789300999491"><ele>109.0</ele><time>2026-04-03T15:46:47Z</time></trkpt><trkpt lat="44.908160146727106" lon="8.843815770671398"><ele>109.0</ele><time>2026-04-03T15:46:48Z</time></trkpt><trkpt lat="44.9084473329533" lon="8.843844244586963"><ele>108.5</ele><time>2026-04-03T15:46:49Z</time></trkpt><trkpt lat="44.908736137782796" lon="8.84387118201596"><ele>108.0</ele><time>2026-04-03T15:46:50Z</time></trkpt><trkpt lat="44.909022431739096" lon="8.843897488946752"><ele>108.0</ele><time>2026-04-03T15:46:51Z</time></trkpt><trkpt lat="44.909312208000244" lon="8.843927008698893"><ele>108.0</ele><time>2026-04-03T15:46:52Z</time></trkpt><trkpt lat="44.90959749888273" lon="8.843956566952992"><ele>108.0</ele><time>2026-04-03T15:46:53Z</time></trkpt><trkpt lat="44.90988384338424" lon="8.843986002036381"><ele>108.0</ele><time>2026-04-03T15:46:54Z</time></trkpt><trkpt lat="44.910170769892034" lon="8.844016146594166"><ele>107.5</ele><time>2026-04-03T15:46:55Z</time></trkpt><trkpt lat="44.910450467383015" lon="8.844049863398446"><ele>107.0</ele><time>2026-04-03T15:46:56Z</time></trkpt><trkpt lat="44.91074119635498" lon="8.844074030514621"><ele>106.0</ele><time>2026-04-03T15:46:57Z</time></trkpt><trkpt lat="44.911026653182866" lon="8.844100130483236"><ele>105.0</ele><time>2026-04-03T15:46:58Z</time></trkpt><trkpt lat="44.91131215769081" lon="8.844127010160344"><ele>105.0</ele><time>2026-04-03T15:46:59Z</time></trkpt><trkpt lat="44.9115965259983" lon="8.844152435713957"><ele>105.0</ele><time>2026-04-03T15:47:00Z</time></trkpt><trkpt lat="44.91188079993125" lon="8.844177224816152"><ele>105.0</ele><time>2026-04-03T15:47:01Z</time></trkpt><trkpt lat="44.912165632982486" lon="8.844202187296746"><ele>105.0</ele><time>2026-04-03T15:47:01.999Z</time></trkpt><trkpt lat="44.91245224353207" lon="8.844228275424282"><ele>105.5</ele><time>2026-04-03T15:47:02.999Z</time></trkpt><trkpt lat="44.91273647230058" lon="8.844253480003834"><ele>106.0</ele><time>2026-04-03T15:47:03.999Z</time></trkpt><trkpt lat="44.91302259643992" lon="8.844281477691295"><ele>104.5</ele><time>2026-04-03T15:47:04.999Z</time></trkpt><trkpt lat="44.91330752645141" lon="8.844308325999283"><ele>103.0</ele><time>2026-04-03T15:47:05.999Z</time></trkpt><trkpt lat="44.91359186488957" lon="8.844336136075876"><ele>102.5</ele><time>2026-04-03T15:47:06.999Z</time></trkpt><trkpt lat="44.913875350176035" lon="8.844362200376722"><ele>102.0</ele><time>2026-04-03T15:47:07.999Z</time></trkpt><trkpt lat="44.914157846426036" lon="8.844387006591353"><ele>102.5</ele><time>2026-04-03T15:47:08.999Z</time></trkpt><trkpt lat="44.914443219751426" lon="8.844413572263383"><ele>103.0</ele><time>2026-04-03T15:47:09.999Z</time></trkpt><trkpt lat="44.91472815292598" lon="8.844441340165824"><ele>103.0</ele><time>2026-04-03T15:47:10.999Z</time></trkpt><trkpt lat="44.915012785892245" lon="8.844469677419957"><ele>103.0</ele><time>2026-04-03T15:47:11.999Z</time></trkpt><trkpt lat="44.915296984587116" lon="8.844498199030532"><ele>104.5</ele><time>2026-04-03T15:47:12.999Z</time></trkpt><trkpt lat="44.91558063314262" lon="8.844523378930536"><ele>106.0</ele><time>2026-04-03T15:47:13.999Z</time></trkpt><trkpt lat="44.91586450305914" lon="8.84454717953743"><ele>108.0</ele><time>2026-04-03T15:47:14.999Z</time></trkpt><trkpt lat="44.91614807664955" lon="8.844567443640322"><ele>110.0</ele><time>2026-04-03T15:47:15.999Z</time></trkpt><trkpt lat="44.91643252525044" lon="8.844587660238119"><ele>110.0</ele><time>2026-04-03T15:47:16.999Z</time></trkpt><trkpt lat="44.91671927035579" lon="8.844616962364425"><ele>110.0</ele><time>2026-04-03T15:47:17.999Z</time></trkpt><trkpt lat="44.917002443809615" lon="8.844651425397807"><ele>108.0</ele><time>2026-04-03T15:47:18.999Z</time></trkpt><trkpt lat="44.917282191101016" lon="8.844684738492342"><ele>106.0</ele><time>2026-04-03T15:47:19.999Z</time></trkpt><trkpt lat="44.91757519773257" lon="8.844718470602432"><ele>105.5</ele><time>2026-04-03T15:47:20.999Z</time></trkpt><trkpt lat="44.91786255426687" lon="8.844746407350474"><ele>105.0</ele><time>2026-04-03T15:47:21.999Z</time></trkpt><trkpt lat="44.91814854598443" lon="8.84477213832902"><ele>105.5</ele><time>2026-04-03T15:47:22.999Z</time></trkpt><trkpt lat="44.91843413720847" lon="8.844793772757649"><ele>106.0</ele><time>2026-04-03T15:47:23.999Z</time></trkpt><trkpt lat="44.918718497299785" lon="8.84481453504834"><ele>106.0</ele><time>2026-04-03T15:47:24.999Z</time></trkpt><trkpt lat="44.91900247647245" lon="8.844846900845598"><ele>106.0</ele><time>2026-04-03T15:47:25.999Z</time></trkpt><trkpt lat="44.91928600920843" lon="8.844893340260247"><ele>105.5</ele><time>2026-04-03T15:47:26.999Z</time></trkpt><trkpt lat="44.919566878141154" lon="8.844950185023228"><ele>105.0</ele><time>2026-04-03T15:47:27.999Z</time></trkpt><trkpt lat="44.91984929446984" lon="8.845016570246091"><ele>106.0</ele><time>2026-04-03T15:47:28.999Z</time></trkpt><trkpt lat="44.9201301095006" lon="8.845086321612436"><ele>107.0</ele><time>2026-04-03T15:47:29.999Z</time></trkpt><trkpt lat="44.92040980850748" lon="8.845160044471873"><ele>107.0</ele><time>2026-04-03T15:47:30.999Z</time></trkpt><trkpt lat="44.92068619204308" lon="8.845238928637796"><ele>107.0</ele><time>2026-04-03T15:47:31.999Z</time></trkpt><trkpt lat="44.920967616484035" lon="8.845324261852594"><ele>107.5</ele><time>2026-04-03T15:47:32.999Z</time></trkpt><trkpt lat="44.921245920714206" lon="8.845413860427156"><ele>108.0</ele><time>2026-04-03T15:47:33.999Z</time></trkpt><trkpt lat="44.921523121732655" lon="8.845511365256414"><ele>106.5</ele><time>2026-04-03T15:47:34.999Z</time></trkpt><trkpt lat="44.92179966932666" lon="8.845613282578098"><ele>105.0</ele><time>2026-04-03T15:47:35.999Z</time></trkpt><trkpt lat="44.92207814892195" lon="8.845721041240235"><ele>105.0</ele><time>2026-04-03T15:47:36.999Z</time></trkpt><trkpt lat="44.92235454267629" lon="8.845834602517831"><ele>105.0</ele><time>2026-04-03T15:47:37.999Z</time></trkpt><trkpt lat="44.922625999341705" lon="8.84595303699716"><ele>104.0</ele><time>2026-04-03T15:47:38.999Z</time></trkpt><trkpt lat="44.92290036759941" lon="8.846078504818156"><ele>103.0</ele><time>2026-04-03T15:47:39.999Z</time></trkpt><trkpt lat="44.92317643788549" lon="8.846210143852113"><ele>103.0</ele><time>2026-04-03T15:47:40.999Z</time></trkpt><trkpt lat="44.92344564302087" lon="8.846347160402182"><ele>103.0</ele><time>2026-04-03T15:47:41.999Z</time></trkpt><trkpt lat="44.92371541619979" lon="8.846492687534656"><ele>103.0</ele><time>2026-04-03T15:47:42.999Z</time></trkpt><trkpt lat="44.923985000126336" lon="8.846647549148063"><ele>103.0</ele><time>2026-04-03T15:47:43.999Z</time></trkpt><trkpt lat="44.92425324513054" lon="8.846806300453785"><ele>102.5</ele><time>2026-04-03T15:47:44.999Z</time></trkpt><trkpt lat="44.92452003167708" lon="8.846968948731499"><ele>102.0</ele><time>2026-04-03T15:47:45.999Z</time></trkpt><trkpt lat="44.92478511014737" lon="8.847134059836097"><ele>102.0</ele><time>2026-04-03T15:47:46.999Z</time></trkpt><trkpt lat="44.92505096916946" lon="8.847297691248395"><ele>102.0</ele><time>2026-04-03T15:47:48Z</time></trkpt><trkpt lat="44.925315671307374" lon="8.847465457090163"><ele>101.0</ele><time>2026-04-03T15:47:49Z</time></trkpt><trkpt lat="44.92557962739039" lon="8.847632957018735"><ele>100.0</ele><time>2026-04-03T15:47:50Z</time></trkpt><trkpt lat="44.92584387368807" lon="8.847799273171882"><ele>100.0</ele><time>2026-04-03T15:47:51Z</time></trkpt><trkpt lat="44.92610957373526" lon="8.84796305618165"><ele>100.0</ele><time>2026-04-03T15:47:52Z</time></trkpt><trkpt lat="44.926374272974655" lon="8.84812699055727"><ele>100.0</ele><time>2026-04-03T15:47:53Z</time></trkpt><trkpt lat="44.92663891729597" lon="8.848290687940416"><ele>100.0</ele><time>2026-04-03T15:47:54Z</time></trkpt><trkpt lat="44.926903265238124" lon="8.848456988046047"><ele>100.5</ele><time>2026-04-03T15:47:55Z</time></trkpt><trkpt lat="44.927165658324746" lon="8.848621899706162"><ele>101.0</ele><time>2026-04-03T15:47:56Z</time></trkpt><trkpt lat="44.92742954330887" lon="8.84878828008992"><ele>100.0</ele><time>2026-04-03T15:47:57Z</time></trkpt><trkpt lat="44.927693680378425" lon="8.848955183865707"><ele>99.0</ele><time>2026-04-03T15:47:58Z</time></trkpt><trkpt lat="44.92795703036883" lon="8.84912285369095"><ele>99.0</ele><time>2026-04-03T15:47:59Z</time></trkpt><trkpt lat="44.92822054770404" lon="8.849290831303097"><ele>99.0</ele><time>2026-04-03T15:48:00Z</time></trkpt><trkpt lat="44.928487010439994" lon="8.8494570546597"><ele>100.0</ele><time>2026-04-03T15:48:01Z</time></trkpt><trkpt lat="44.92875035634452" lon="8.84962317262302"><ele>101.0</ele><time>2026-04-03T15:48:02Z</time></trkpt><trkpt lat="44.92901632011792" lon="8.84978870750738"><ele>101.0</ele><time>2026-04-03T15:48:03Z</time></trkpt><trkpt lat="44.92928171289168" lon="8.849951453678877"><ele>101.0</ele><time>2026-04-03T15:48:04Z</time></trkpt><trkpt lat="44.92954835696771" lon="8.850116832621962"><ele>101.5</ele><time>2026-04-03T15:48:05Z</time></trkpt><trkpt lat="44.929815708069235" lon="8.850281773707145"><ele>102.0</ele><time>2026-04-03T15:48:06Z</time></trkpt><trkpt lat="44.93008325505693" lon="8.850449717854136"><ele>100.5</ele><time>2026-04-03T15:48:07Z</time></trkpt><trkpt lat="44.93035201566907" lon="8.850619759672563"><ele>99.0</ele><time>2026-04-03T15:48:08Z</time></trkpt><trkpt lat="44.93062066628688" lon="8.85079182152902"><ele>100.0</ele><time>2026-04-03T15:48:09Z</time></trkpt><trkpt lat="44.93089128621558" lon="8.8509618021671"><ele>101.0</ele><time>2026-04-03T15:48:10Z</time></trkpt><trkpt lat="44.9311610640652" lon="8.851132390945992"><ele>101.0</ele><time>2026-04-03T15:48:11Z</time></trkpt><trkpt lat="44.93142823480568" lon="8.851300997297322"><ele>101.0</ele><time>2026-04-03T15:48:12Z</time></trkpt><trkpt lat="44.93169897152128" lon="8.851470896691504"><ele>101.0</ele><time>2026-04-03T15:48:13Z</time></trkpt><trkpt lat="44.931967981762966" lon="8.85163758609879"><ele>101.0</ele><time>2026-04-03T15:48:14Z</time></trkpt><trkpt lat="44.93223675028007" lon="8.851804371518982"><ele>101.5</ele><time>2026-04-03T15:48:15Z</time></trkpt><trkpt lat="44.93250693291923" lon="8.851972123364726"><ele>102.0</ele><time>2026-04-03T15:48:16Z</time></trkpt><trkpt lat="44.93277634891156" lon="8.85214311185615"><ele>102.0</ele><time>2026-04-03T15:48:17Z</time></trkpt><trkpt lat="44.93304501294202" lon="8.85231328728927"><ele>102.0</ele><time>2026-04-03T15:48:18Z</time></trkpt><trkpt lat="44.93331169667442" lon="8.85248323704545"><ele>101.0</ele><time>2026-04-03T15:48:19Z</time></trkpt><trkpt lat="44.933579271505906" lon="8.852652514486465"><ele>100.0</ele><time>2026-04-03T15:48:20Z</time></trkpt><trkpt lat="44.933846450773025" lon="8.852820311218354"><ele>100.0</ele><time>2026-04-03T15:48:21Z</time></trkpt><trkpt lat="44.93411354489424" lon="8.852984867503583"><ele>100.0</ele><time>2026-04-03T15:48:22Z</time></trkpt><trkpt lat="44.93438178492397" lon="8.853149188100241"><ele>100.0</ele><time>2026-04-03T15:48:23Z</time></trkpt><trkpt lat="44.934651079473966" lon="8.853312720888034"><ele>100.0</ele><time>2026-04-03T15:48:24Z</time></trkpt><trkpt lat="44.93491784711076" lon="8.853475876614734"><ele>98.0</ele><time>2026-04-03T15:48:25Z</time></trkpt><trkpt lat="44.935184230526644" lon="8.853646119789806"><ele>96.0</ele><time>2026-04-03T15:48:26Z</time></trkpt><trkpt lat="44.935449947224576" lon="8.853817851786449"><ele>96.0</ele><time>2026-04-03T15:48:27Z</time></trkpt><trkpt lat="44.935715038072644" lon="8.853991059149243"><ele>96.0</ele><time>2026-04-03T15:48:28Z</time></trkpt><trkpt lat="44.93598278242478" lon="8.854164134677802"><ele>96.5</ele><time>2026-04-03T15:48:29Z</time></trkpt><trkpt lat="44.936249324693776" lon="8.854334833809007"><ele>97.0</ele><time>2026-04-03T15:48:30Z</time></trkpt><trkpt lat="44.936516638781356" lon="8.854506566381525"><ele>97.0</ele><time>2026-04-03T15:48:31Z</time></trkpt><trkpt lat="44.93678497147694" lon="8.854676382019884"><ele>97.0</ele><time>2026-04-03T15:48:32Z</time></trkpt><trkpt lat="44.93705520316548" lon="8.854843953860039"><ele>97.0</ele><time>2026-04-03T15:48:33Z</time></trkpt><trkpt lat="44.93732609350985" lon="8.855012439327105"><ele>97.0</ele><time>2026-04-03T15:48:34Z</time></trkpt><trkpt lat="44.937597178069126" lon="8.855180739054912"><ele>95.5</ele><time>2026-04-03T15:48:35Z</time></trkpt><trkpt lat="44.93786976004126" lon="8.855349716967742"><ele>94.0</ele><time>2026-04-03T15:48:36Z</time></trkpt><trkpt lat="44.93814136699636" lon="8.855521396283894"><ele>95.0</ele><time>2026-04-03T15:48:37Z</time></trkpt><trkpt lat="44.93841264236613" lon="8.855693064479572"><ele>96.0</ele><time>2026-04-03T15:48:38Z</time></trkpt><trkpt lat="44.938686504685805" lon="8.855870155277207"><ele>95.5</ele><time>2026-04-03T15:48:39Z</time></trkpt><trkpt lat="44.93895767417905" lon="8.85604255835971"><ele>95.0</ele><time>2026-04-03T15:48:40Z</time></trkpt><trkpt lat="44.939230664949726" lon="8.856214094359487"><ele>95.0</ele><time>2026-04-03T15:48:41Z</time></trkpt><trkpt lat="44.93950334471668" lon="8.856384209957968"><ele>95.0</ele><time>2026-04-03T15:48:42Z</time></trkpt><trkpt lat="44.93977579840608" lon="8.856554605411102"><ele>95.0</ele><time>2026-04-03T15:48:43Z</time></trkpt><trkpt lat="44.94004965548541" lon="8.856724562910147"><ele>95.0</ele><time>2026-04-03T15:48:44Z</time></trkpt><trkpt lat="44.94032427945055" lon="8.856894890113256"><ele>94.5</ele><time>2026-04-03T15:48:45Z</time></trkpt><trkpt lat="44.94059675187003" lon="8.857066447358124"><ele>94.0</ele><time>2026-04-03T15:48:46Z</time></trkpt><trkpt lat="44.940871418403226" lon="8.857239889381109"><ele>94.0</ele><time>2026-04-03T15:48:47Z</time></trkpt><trkpt lat="44.94114449233594" lon="8.857412076687591"><ele>94.0</ele><time>2026-04-03T15:48:47.999Z</time></trkpt><trkpt lat="44.94141871552998" lon="8.857585678484186"><ele>94.5</ele><time>2026-04-03T15:48:48.999Z</time></trkpt><trkpt lat="44.94169248007246" lon="8.857758773796627"><ele>95.0</ele><time>2026-04-03T15:48:49.999Z</time></trkpt><trkpt lat="44.94196294650066" lon="8.857928404786838"><ele>95.0</ele><time>2026-04-03T15:48:50.999Z</time></trkpt><trkpt lat="44.94223625830354" lon="8.85810042436887"><ele>95.0</ele><time>2026-04-03T15:48:51.999Z</time></trkpt><trkpt lat="44.94250873175495" lon="8.858271867572189"><ele>95.5</ele><time>2026-04-03T15:48:52.999Z</time></trkpt><trkpt lat="44.94278255352996" lon="8.858445421306461"><ele>96.0</ele><time>2026-04-03T15:48:53.999Z</time></trkpt><trkpt lat="44.9430571440232" lon="8.858619805358938"><ele>96.0</ele><time>2026-04-03T15:48:54.999Z</time></trkpt><trkpt lat="44.943329775174846" lon="8.858792428658624"><ele>96.0</ele><time>2026-04-03T15:48:55.999Z</time></trkpt><trkpt lat="44.9436025471197" lon="8.858966492173936"><ele>96.0</ele><time>2026-04-03T15:48:56.999Z</time></trkpt><trkpt lat="44.94387646589018" lon="8.859139414331857"><ele>96.0</ele><time>2026-04-03T15:48:57.999Z</time></trkpt><trkpt lat="44.944147808101924" lon="8.859311862345283"><ele>94.5</ele><time>2026-04-03T15:48:58.999Z</time></trkpt><trkpt lat="44.944423034763496" lon="8.859482631999153"><ele>93.0</ele><time>2026-04-03T15:48:59.999Z</time></trkpt><trkpt lat="44.94469651093276" lon="8.85965339330524"><ele>93.0</ele><time>2026-04-03T15:49:00.999Z</time></trkpt><trkpt lat="44.94497036255783" lon="8.859825845414253"><ele>93.0</ele><time>2026-04-03T15:49:01.999Z</time></trkpt><trkpt lat="44.945245333192894" lon="8.85999676433635"><ele>93.5</ele><time>2026-04-03T15:49:02.999Z</time></trkpt><trkpt lat="44.94552089011621" lon="8.860167416243444"><ele>94.0</ele><time>2026-04-03T15:49:03.999Z</time></trkpt><trkpt lat="44.945794220990955" lon="8.860337378745166"><ele>93.5</ele><time>2026-04-03T15:49:04.999Z</time></trkpt><trkpt lat="44.94606629712954" lon="8.86050923871649"><ele>93.0</ele><time>2026-04-03T15:49:05.999Z</time></trkpt><trkpt lat="44.94634014121128" lon="8.86068284552003"><ele>93.0</ele><time>2026-04-03T15:49:06.999Z</time></trkpt><trkpt lat="44.946612232788226" lon="8.86085605231831"><ele>93.0</ele><time>2026-04-03T15:49:07.999Z</time></trkpt><trkpt lat="44.9468858006255" lon="8.861029569336678"><ele>92.5</ele><time>2026-04-03T15:49:08.999Z</time></trkpt><trkpt lat="44.94715979470466" lon="8.861203039060591"><ele>92.0</ele><time>2026-04-03T15:49:09.999Z</time></trkpt><trkpt lat="44.947435247468235" lon="8.861375896433625"><ele>91.5</ele><time>2026-04-03T15:49:10.999Z</time></trkpt><trkpt lat="44.94771018632373" lon="8.861546477484682"><ele>91.0</ele><time>2026-04-03T15:49:11.999Z</time></trkpt><trkpt lat="44.94798380102567" lon="8.861723628007304"><ele>91.0</ele><time>2026-04-03T15:49:12.999Z</time></trkpt><trkpt lat="44.94825312806163" lon="8.86191852456135"><ele>91.0</ele><time>2026-04-03T15:49:13.999Z</time></trkpt><trkpt lat="44.94851489402159" lon="8.86212777420281"><ele>91.0</ele><time>2026-04-03T15:49:14.999Z</time></trkpt><trkpt lat="44.94877164827424" lon="8.862351564647513"><ele>91.0</ele><time>2026-04-03T15:49:15.999Z</time></trkpt><trkpt lat="44.94902443176035" lon="8.862580784946825"><ele>90.5</ele><time>2026-04-03T15:49:16.999Z</time></trkpt><trkpt lat="44.94927016402124" lon="8.86282122371357"><ele>90.0</ele><time>2026-04-03T15:49:17.999Z</time></trkpt><trkpt lat="44.94951159027793" lon="8.863069047792342"><ele>90.0</ele><time>2026-04-03T15:49:18.999Z</time></trkpt><trkpt lat="44.94974677385441" lon="8.863328376751001"><ele>90.0</ele><time>2026-04-03T15:49:19.999Z</time></trkpt><trkpt lat="44.94997341514278" lon="8.863598052958846"><ele>90.5</ele><time>2026-04-03T15:49:20.999Z</time></trkpt><trkpt lat="44.95019239469164" lon="8.863879775421397"><ele>91.0</ele><time>2026-04-03T15:49:21.999Z</time></trkpt><trkpt lat="44.95040308628795" lon="8.86417406610249"><ele>91.5</ele><time>2026-04-03T15:49:22.999Z</time></trkpt><trkpt lat="44.95060795741126" lon="8.864476418610224"><ele>92.0</ele><time>2026-04-03T15:49:23.999Z</time></trkpt><trkpt lat="44.95080599607448" lon="8.864783495118347"><ele>92.0</ele><time>2026-04-03T15:49:24.999Z</time></trkpt><trkpt lat="44.950997792199836" lon="8.865099286506762"><ele>92.0</ele><time>2026-04-03T15:49:25.999Z</time></trkpt><trkpt lat="44.95118239106759" lon="8.865426247964976"><ele>93.5</ele><time>2026-04-03T15:49:26.999Z</time></trkpt><trkpt lat="44.95135745503188" lon="8.865762682827107"><ele>95.0</ele><time>2026-04-03T15:49:27.999Z</time></trkpt><trkpt lat="44.95152611773955" lon="8.866107849805969"><ele>95.0</ele><time>2026-04-03T15:49:28.999Z</time></trkpt><trkpt lat="44.95168643813508" lon="8.866460218504766"><ele>95.0</ele><time>2026-04-03T15:49:29.999Z</time></trkpt><trkpt lat="44.95183597477575" lon="8.866822962729646"><ele>94.0</ele><time>2026-04-03T15:49:30.999Z</time></trkpt><trkpt lat="44.95197970779341" lon="8.86719266596097"><ele>93.0</ele><time>2026-04-03T15:49:31.999Z</time></trkpt><trkpt lat="44.952119841149724" lon="8.867565381698745"><ele>92.0</ele><time>2026-04-03T15:49:32.999Z</time></trkpt><trkpt lat="44.95226143021299" lon="8.86793868741926"><ele>91.0</ele><time>2026-04-03T15:49:33.999Z</time></trkpt><trkpt lat="44.95240407600178" lon="8.868306892869967"><ele>89.5</ele><time>2026-04-03T15:49:34.999Z</time></trkpt><trkpt lat="44.95254588702967" lon="8.868672396980699"><ele>88.0</ele><time>2026-04-03T15:49:35.999Z</time></trkpt><trkpt lat="44.952692452150295" lon="8.869044425613488"><ele>89.0</ele><time>2026-04-03T15:49:36.999Z</time></trkpt><trkpt lat="44.95283821889455" lon="8.869415128821982"><ele>90.0</ele><time>2026-04-03T15:49:37.999Z</time></trkpt><trkpt lat="44.952980440471784" lon="8.869785533601242"><ele>90.0</ele><time>2026-04-03T15:49:38.999Z</time></trkpt><trkpt lat="44.953123677032146" lon="8.870156096472144"><ele>90.0</ele><time>2026-04-03T15:49:39.999Z</time></trkpt><trkpt lat="44.9532709871107" lon="8.870529330469353"><ele>90.0</ele><time>2026-04-03T15:49:40.999Z</time></trkpt><trkpt lat="44.95341498759241" lon="8.870899410361291"><ele>90.0</ele><time>2026-04-03T15:49:41.999Z</time></trkpt><trkpt lat="44.953557785972784" lon="8.871267506502873"><ele>90.0</ele><time>2026-04-03T15:49:42.999Z</time></trkpt><trkpt lat="44.9537032478098" lon="8.871631294949568"><ele>90.0</ele><time>2026-04-03T15:49:43.999Z</time></trkpt><trkpt lat="44.95385593528824" lon="8.871984514558925"><ele>90.0</ele><time>2026-04-03T15:49:44.999Z</time></trkpt><trkpt lat="44.9540162081346" lon="8.872336572554314"><ele>90.0</ele><time>2026-04-03T15:49:45.999Z</time></trkpt><trkpt lat="44.95418351931783" lon="8.872678952654137"><ele>89.5</ele><time>2026-04-03T15:49:46.999Z</time></trkpt><trkpt lat="44.95436007061442" lon="8.873006372799345"><ele>89.0</ele><time>2026-04-03T15:49:47.999Z</time></trkpt><trkpt lat="44.95454630906125" lon="8.873321827773887"><ele>89.5</ele><time>2026-04-03T15:49:48.999Z</time></trkpt><trkpt lat="44.95473913777155" lon="8.873630541451933"><ele>90.0</ele><time>2026-04-03T15:49:49.999Z</time></trkpt><trkpt lat="44.954939411749855" lon="8.873932007319963"><ele>90.0</ele><time>2026-04-03T15:49:50.999Z</time></trkpt><trkpt lat="44.95514713197411" lon="8.874223297106044"><ele>90.0</ele><time>2026-04-03T15:49:51.999Z</time></trkpt><trkpt lat="44.95536141994322" lon="8.874511480201681"><ele>90.0</ele><time>2026-04-03T15:49:52.999Z</time></trkpt><trkpt lat="44.955582081947" lon="8.874790331046372"><ele>90.0</ele><time>2026-04-03T15:49:54Z</time></trkpt><trkpt lat="44.95580583416238" lon="8.875061198339624"><ele>90.0</ele><time>2026-04-03T15:49:55Z</time></trkpt><trkpt lat="44.9560340172976" lon="8.87532334906337"><ele>90.0</ele><time>2026-04-03T15:49:56Z</time></trkpt><trkpt lat="44.95626916279208" lon="8.875575539770416"><ele>90.0</ele><time>2026-04-03T15:49:57Z</time></trkpt><trkpt lat="44.95650675643385" lon="8.875818209588468"><ele>90.0</ele><time>2026-04-03T15:49:58Z</time></trkpt><trkpt lat="44.95674449582632" lon="8.876062553273533"><ele>89.5</ele><time>2026-04-03T15:49:59Z</time></trkpt><trkpt lat="44.95697920354126" lon="8.876312087564903"><ele>89.0</ele><time>2026-04-03T15:50:00Z</time></trkpt><trkpt lat="44.95721403953942" lon="8.876565056165362"><ele>89.5</ele><time>2026-04-03T15:50:01Z</time></trkpt><trkpt lat="44.95744902137656" lon="8.876817722662437"><ele>90.0</ele><time>2026-04-03T15:50:02Z</time></trkpt><trkpt lat="44.957683335746985" lon="8.877070268592192"><ele>90.0</ele><time>2026-04-03T15:50:03Z</time></trkpt><trkpt lat="44.95791934055808" lon="8.877321763733578"><ele>90.0</ele><time>2026-04-03T15:50:04Z</time></trkpt><trkpt lat="44.958158022447506" lon="8.877572365757418"><ele>90.0</ele><time>2026-04-03T15:50:05Z</time></trkpt><trkpt lat="44.95839547648853" lon="8.877819532998641"><ele>90.0</ele><time>2026-04-03T15:50:06Z</time></trkpt><trkpt lat="44.9586335940815" lon="8.878070582959337"><ele>90.0</ele><time>2026-04-03T15:50:07Z</time></trkpt><trkpt lat="44.95887043665935" lon="8.8783225004208"><ele>90.0</ele><time>2026-04-03T15:50:08Z</time></trkpt><trkpt lat="44.959107765681104" lon="8.878577233018088"><ele>88.5</ele><time>2026-04-03T15:50:09Z</time></trkpt><trkpt lat="44.95934414115925" lon="8.878830908688563"><ele>87.0</ele><time>2026-04-03T15:50:10Z</time></trkpt><trkpt lat="44.959580765288614" lon="8.879083782880032"><ele>88.0</ele><time>2026-04-03T15:50:11Z</time></trkpt><trkpt lat="44.959820328833345" lon="8.879338306064279"><ele>89.0</ele><time>2026-04-03T15:50:12Z</time></trkpt><trkpt lat="44.96005749254801" lon="8.879588166231386"><ele>89.0</ele><time>2026-04-03T15:50:13Z</time></trkpt><trkpt lat="44.96029632052544" lon="8.87984225768535"><ele>89.0</ele><time>2026-04-03T15:50:14Z</time></trkpt><trkpt lat="44.960533035902415" lon="8.880093643684445"><ele>89.0</ele><time>2026-04-03T15:50:15Z</time></trkpt><trkpt lat="44.9607698091868" lon="8.88034965802233"><ele>89.0</ele><time>2026-04-03T15:50:16Z</time></trkpt><trkpt lat="44.96100646917689" lon="8.88060351781551"><ele>88.5</ele><time>2026-04-03T15:50:17Z</time></trkpt><trkpt lat="44.9612415047848" lon="8.880855004583557"><ele>88.0</ele><time>2026-04-03T15:50:18Z</time></trkpt><trkpt lat="44.9614780491596" lon="8.881107825944296"><ele>89.5</ele><time>2026-04-03T15:50:19Z</time></trkpt><trkpt lat="44.961715000983965" lon="8.88135890259998"><ele>91.0</ele><time>2026-04-03T15:50:20Z</time></trkpt><trkpt lat="44.961950751595566" lon="8.881608531910738"><ele>90.5</ele><time>2026-04-03T15:50:21Z</time></trkpt><trkpt lat="44.962187581866175" lon="8.881865013309929"><ele>90.0</ele><time>2026-04-03T15:50:22Z</time></trkpt><trkpt lat="44.962422127023856" lon="8.882110270940927"><ele>90.0</ele><time>2026-04-03T15:50:23Z</time></trkpt><trkpt lat="44.96265940723069" lon="8.882359139200924"><ele>90.0</ele><time>2026-04-03T15:50:24Z</time></trkpt><trkpt lat="44.96289715776789" lon="8.882612609998482"><ele>90.0</ele><time>2026-04-03T15:50:25Z</time></trkpt><trkpt lat="44.9631331356214" lon="8.8828639678978"><ele>90.0</ele><time>2026-04-03T15:50:26Z</time></trkpt><trkpt lat="44.96336960015667" lon="8.883116640676239"><ele>88.0</ele><time>2026-04-03T15:50:27Z</time></trkpt><trkpt lat="44.96360686578552" lon="8.88336798979079"><ele>86.0</ele><time>2026-04-03T15:50:28Z</time></trkpt><trkpt lat="44.963843287912646" lon="8.883616872855217"><ele>86.0</ele><time>2026-04-03T15:50:29Z</time></trkpt><trkpt lat="44.96407990244316" lon="8.883869083326273"><ele>86.0</ele><time>2026-04-03T15:50:30Z</time></trkpt><trkpt lat="44.96431600936714" lon="8.884124656233878"><ele>86.5</ele><time>2026-04-03T15:50:31Z</time></trkpt><trkpt lat="44.9645486804486" lon="8.884382244432176"><ele>87.0</ele><time>2026-04-03T15:50:32Z</time></trkpt><trkpt lat="44.96478297201882" lon="8.884644604868257"><ele>87.0</ele><time>2026-04-03T15:50:33Z</time></trkpt><trkpt lat="44.96501621031345" lon="8.884896647381819"><ele>87.0</ele><time>2026-04-03T15:50:34Z</time></trkpt><trkpt lat="44.965252615779534" lon="8.885149606237905"><ele>87.0</ele><time>2026-04-03T15:50:35Z</time></trkpt><trkpt lat="44.96548973561375" lon="8.885400823168851"><ele>87.0</ele><time>2026-04-03T15:50:36Z</time></trkpt><trkpt lat="44.96572452651134" lon="8.885650750439284"><ele>86.0</ele><time>2026-04-03T15:50:37Z</time></trkpt><trkpt lat="44.965959166068735" lon="8.885902840897161"><ele>85.0</ele><time>2026-04-03T15:50:38Z</time></trkpt><trkpt lat="44.966194384552956" lon="8.886154429112022"><ele>87.0</ele><time>2026-04-03T15:50:38.999Z</time></trkpt><trkpt lat="44.966427504772625" lon="8.886406259840575"><ele>89.0</ele><time>2026-04-03T15:50:39.999Z</time></trkpt><trkpt lat="44.96666168286393" lon="8.886657705604787"><ele>89.5</ele><time>2026-04-03T15:50:40.999Z</time></trkpt><trkpt lat="44.966895784480315" lon="8.88690947574611"><ele>90.0</ele><time>2026-04-03T15:50:41.999Z</time></trkpt><trkpt lat="44.967129434649095" lon="8.887161138953642"><ele>90.0</ele><time>2026-04-03T15:50:42.999Z</time></trkpt><trkpt lat="44.96736444784112" lon="8.887409895823708"><ele>90.0</ele><time>2026-04-03T15:50:43.999Z</time></trkpt><trkpt lat="44.96759894115436" lon="8.887656124973217"><ele>89.0</ele><time>2026-04-03T15:50:44.999Z</time></trkpt><trkpt lat="44.96783417929539" lon="8.88790229657752"><ele>88.0</ele><time>2026-04-03T15:50:45.999Z</time></trkpt><trkpt lat="44.96806889203626" lon="8.888147671024027"><ele>88.0</ele><time>2026-04-03T15:50:46.999Z</time></trkpt><trkpt lat="44.96830377490516" lon="8.888394329585418"><ele>88.0</ele><time>2026-04-03T15:50:47.999Z</time></trkpt><trkpt lat="44.96853644640877" lon="8.888641312937882"><ele>88.5</ele><time>2026-04-03T15:50:48.999Z</time></trkpt><trkpt lat="44.96877123832584" lon="8.888886942093393"><ele>89.0</ele><time>2026-04-03T15:50:49.999Z</time></trkpt><trkpt lat="44.96900712623367" lon="8.889132689127948"><ele>88.0</ele><time>2026-04-03T15:50:50.999Z</time></trkpt><trkpt lat="44.969240577958054" lon="8.88938320571267"><ele>87.0</ele><time>2026-04-03T15:50:51.999Z</time></trkpt><trkpt lat="44.96947318901281" lon="8.889635747214193"><ele>87.0</ele><time>2026-04-03T15:50:52.999Z</time></trkpt><trkpt lat="44.96970681014847" lon="8.889888148460216"><ele>87.0</ele><time>2026-04-03T15:50:53.999Z</time></trkpt><trkpt lat="44.969942286842624" lon="8.89013925611294"><ele>86.5</ele><time>2026-04-03T15:50:54.999Z</time></trkpt><trkpt lat="44.97017794157157" lon="8.890387937823862"><ele>86.0</ele><time>2026-04-03T15:50:55.999Z</time></trkpt><trkpt lat="44.97041394862964" lon="8.890636907818232"><ele>86.0</ele><time>2026-04-03T15:50:56.999Z</time></trkpt><trkpt lat="44.9706482175126" lon="8.890886739160031"><ele>86.0</ele><time>2026-04-03T15:50:57.999Z</time></trkpt><trkpt lat="44.97088283717783" lon="8.891137497581498"><ele>84.0</ele><time>2026-04-03T15:50:58.999Z</time></trkpt><trkpt lat="44.971117398367284" lon="8.891388064501244"><ele>82.0</ele><time>2026-04-03T15:50:59.999Z</time></trkpt><trkpt lat="44.9713521421091" lon="8.89163781568539"><ele>83.0</ele><time>2026-04-03T15:51:00.999Z</time></trkpt><trkpt lat="44.97158731005497" lon="8.891887289685483"><ele>84.0</ele><time>2026-04-03T15:51:01.999Z</time></trkpt><trkpt lat="44.971824553689295" lon="8.892138954821421"><ele>84.0</ele><time>2026-04-03T15:51:02.999Z</time></trkpt><trkpt lat="44.972059754570445" lon="8.892390647198553"><ele>84.0</ele><time>2026-04-03T15:51:03.999Z</time></trkpt><trkpt lat="44.972296569846755" lon="8.89264358676767"><ele>84.5</ele><time>2026-04-03T15:51:04.999Z</time></trkpt><trkpt lat="44.972533756048485" lon="8.892896607402747"><ele>85.0</ele><time>2026-04-03T15:51:05.999Z</time></trkpt><trkpt lat="44.972771455332804" lon="8.893149898652789"><ele>85.0</ele><time>2026-04-03T15:51:06.999Z</time></trkpt><trkpt lat="44.97300936620823" lon="8.893404440459465"><ele>85.0</ele><time>2026-04-03T15:51:07.999Z</time></trkpt><trkpt lat="44.97324612740645" lon="8.893656809340424"><ele>84.5</ele><time>2026-04-03T15:51:08.999Z</time></trkpt><trkpt lat="44.97348550119699" lon="8.893910698311295"><ele>84.0</ele><time>2026-04-03T15:51:09.999Z</time></trkpt><trkpt lat="44.97372348676956" lon="8.894162589399677"><ele>83.0</ele><time>2026-04-03T15:51:10.999Z</time></trkpt><trkpt lat="44.97396198390267" lon="8.894414573396842"><ele>82.0</ele><time>2026-04-03T15:51:11.999Z</time></trkpt><trkpt lat="44.97420200177639" lon="8.894666211235"><ele>82.0</ele><time>2026-04-03T15:51:12.999Z</time></trkpt><trkpt lat="44.97444141839186" lon="8.894919253224913"><ele>82.0</ele><time>2026-04-03T15:51:13.999Z</time></trkpt><trkpt lat="44.974679646559935" lon="8.895175646732651"><ele>82.0</ele><time>2026-04-03T15:51:14.999Z</time></trkpt><trkpt lat="44.97491815235303" lon="8.895433200724966"><ele>82.0</ele><time>2026-04-03T15:51:15.999Z</time></trkpt><trkpt lat="44.97515675879258" lon="8.895688823429564"><ele>82.0</ele><time>2026-04-03T15:51:16.999Z</time></trkpt><trkpt lat="44.975397047233265" lon="8.895941228842883"><ele>82.0</ele><time>2026-04-03T15:51:17.999Z</time></trkpt><trkpt lat="44.97563899220436" lon="8.896188936106165"><ele>82.5</ele><time>2026-04-03T15:51:18.999Z</time></trkpt><trkpt lat="44.9758836206275" lon="8.89643012945052"><ele>83.0</ele><time>2026-04-03T15:51:19.999Z</time></trkpt><trkpt lat="44.97613525693118" lon="8.896663144868587"><ele>83.5</ele><time>2026-04-03T15:51:20.999Z</time></trkpt><trkpt lat="44.976390772742455" lon="8.896883581068346"><ele>84.0</ele><time>2026-04-03T15:51:21.999Z</time></trkpt><trkpt lat="44.97665288528258" lon="8.897087340777139"><ele>84.5</ele><time>2026-04-03T15:51:22.999Z</time></trkpt><trkpt lat="44.9769220714056" lon="8.897284162898023"><ele>85.0</ele><time>2026-04-03T15:51:23.999Z</time></trkpt><trkpt lat="44.97719126744078" lon="8.897472421817113"><ele>85.0</ele><time>2026-04-03T15:51:24.999Z</time></trkpt><trkpt lat="44.977462124799445" lon="8.897660457050401"><ele>85.0</ele><time>2026-04-03T15:51:25.999Z</time></trkpt><trkpt lat="44.97773358292325" lon="8.897852066165534"><ele>85.0</ele><time>2026-04-03T15:51:26.999Z</time></trkpt><trkpt lat="44.977999457553345" lon="8.898038943385615"><ele>85.0</ele><time>2026-04-03T15:51:27.999Z</time></trkpt><trkpt lat="44.97826862406176" lon="8.898231077464226"><ele>84.5</ele><time>2026-04-03T15:51:28.999Z</time></trkpt><trkpt lat="44.97853475387588" lon="8.898420695459489"><ele>84.0</ele><time>2026-04-03T15:51:29.999Z</time></trkpt><trkpt lat="44.97880217690565" lon="8.898610946835973"><ele>84.0</ele><time>2026-04-03T15:51:30.999Z</time></trkpt><trkpt lat="44.97907042886002" lon="8.898802959817825"><ele>84.0</ele><time>2026-04-03T15:51:31.999Z</time></trkpt><trkpt lat="44.97933872872357" lon="8.89899365239355"><ele>83.5</ele><time>2026-04-03T15:51:32.999Z</time></trkpt><trkpt lat="44.979609349760246" lon="8.899182587530287"><ele>83.0</ele><time>2026-04-03T15:51:33.999Z</time></trkpt><trkpt lat="44.97987597650533" lon="8.899367860355143"><ele>83.0</ele><time>2026-04-03T15:51:34.999Z</time></trkpt><trkpt lat="44.98014505554088" lon="8.899545093735101"><ele>83.0</ele><time>2026-04-03T15:51:35.999Z</time></trkpt><trkpt lat="44.98041382210423" lon="8.899725260513165"><ele>83.0</ele><time>2026-04-03T15:51:36.999Z</time></trkpt><trkpt lat="44.98067876554293" lon="8.899913288557377"><ele>83.0</ele><time>2026-04-03T15:51:37.999Z</time></trkpt><trkpt lat="44.980942242087785" lon="8.900102586830906"><ele>82.5</ele><time>2026-04-03T15:51:38.999Z</time></trkpt><trkpt lat="44.98120785330522" lon="8.90029122865069"><ele>82.0</ele><time>2026-04-03T15:51:39.999Z</time></trkpt><trkpt lat="44.981472994850854" lon="8.900479659467127"><ele>82.0</ele><time>2026-04-03T15:51:40.999Z</time></trkpt><trkpt lat="44.981736546046115" lon="8.900667514214994"><ele>82.0</ele><time>2026-04-03T15:51:41.999Z</time></trkpt><trkpt lat="44.9819989744773" lon="8.900854431378528"><ele>82.5</ele><time>2026-04-03T15:51:42.999Z</time></trkpt><trkpt lat="44.982259838863634" lon="8.901039225575316"><ele>83.0</ele><time>2026-04-03T15:51:43.999Z</time></trkpt><trkpt lat="44.98252074040374" lon="8.90122330906014"><ele>83.0</ele><time>2026-04-03T15:51:44.999Z</time></trkpt><trkpt lat="44.982780467462824" lon="8.901407763162878"><ele>83.0</ele><time>2026-04-03T15:51:45.999Z</time></trkpt><trkpt lat="44.98304035426476" lon="8.9015972346982"><ele>83.0</ele><time>2026-04-03T15:51:46.999Z</time></trkpt><trkpt lat="44.98329636945453" lon="8.901788130071633"><ele>83.0</ele><time>2026-04-03T15:51:47.999Z</time></trkpt><trkpt lat="44.983550432127885" lon="8.901984177651801"><ele>82.5</ele><time>2026-04-03T15:51:48.999Z</time></trkpt><trkpt lat="44.98380534661193" lon="8.902182033938415"><ele>82.0</ele><time>2026-04-03T15:51:49.999Z</time></trkpt><trkpt lat="44.984058898489764" lon="8.90237870229487"><ele>81.5</ele><time>2026-04-03T15:51:50.999Z</time></trkpt><trkpt lat="44.984315272496026" lon="8.90256802934875"><ele>81.0</ele><time>2026-04-03T15:51:51.999Z</time></trkpt><trkpt lat="44.98457508977762" lon="8.902752492329306"><ele>81.0</ele><time>2026-04-03T15:51:52.999Z</time></trkpt><trkpt lat="44.984832563016056" lon="8.902935847184127"><ele>81.0</ele><time>2026-04-03T15:51:53.999Z</time></trkpt><trkpt lat="44.98509124546239" lon="8.90311917000514"><ele>81.0</ele><time>2026-04-03T15:51:54.999Z</time></trkpt><trkpt lat="44.98535015575647" lon="8.903301729384282"><ele>81.0</ele><time>2026-04-03T15:51:55.999Z</time></trkpt><trkpt lat="44.98560855627007" lon="8.903484982492161"><ele>80.0</ele><time>2026-04-03T15:51:56.999Z</time></trkpt><trkpt lat="44.98586643844107" lon="8.903667615008057"><ele>79.0</ele><time>2026-04-03T15:51:57.999Z</time></trkpt><trkpt lat="44.98612438323124" lon="8.903851061351881"><ele>79.0</ele><time>2026-04-03T15:51:58.999Z</time></trkpt><trkpt lat="44.98638343085482" lon="8.904034998149394"><ele>79.0</ele><time>2026-04-03T15:52:00Z</time></trkpt><trkpt lat="44.98664110894921" lon="8.904218959136246"><ele>79.5</ele><time>2026-04-03T15:52:01Z</time></trkpt><trkpt lat="44.98689915524862" lon="8.90440470022801"><ele>80.0</ele><time>2026-04-03T15:52:02Z</time></trkpt><trkpt lat="44.98715728919945" lon="8.90459060899623"><ele>80.0</ele><time>2026-04-03T15:52:03Z</time></trkpt><trkpt lat="44.987415640111635" lon="8.904776871679308"><ele>80.0</ele><time>2026-04-03T15:52:04Z</time></trkpt><trkpt lat="44.9876764381087" lon="8.90496243857633"><ele>80.5</ele><time>2026-04-03T15:52:05Z</time></trkpt><trkpt lat="44.98793369239563" lon="8.905146940336328"><ele>81.0</ele><time>2026-04-03T15:52:06Z</time></trkpt><trkpt lat="44.9881949707367" lon="8.905330670968457"><ele>81.5</ele><time>2026-04-03T15:52:07Z</time></trkpt><trkpt lat="44.98845008920657" lon="8.9055166740449"><ele>82.0</ele><time>2026-04-03T15:52:08Z</time></trkpt><trkpt lat="44.98871078784093" lon="8.905699766480277"><ele>82.0</ele><time>2026-04-03T15:52:09Z</time></trkpt><trkpt lat="44.988968084820456" lon="8.905885550420765"><ele>82.0</ele><time>2026-04-03T15:52:10Z</time></trkpt><trkpt lat="44.989226908305206" lon="8.90606824797759"><ele>82.0</ele><time>2026-04-03T15:52:11Z</time></trkpt><trkpt lat="44.98948414228503" lon="8.906253670272601"><ele>82.0</ele><time>2026-04-03T15:52:12Z</time></trkpt><trkpt lat="44.98974164434105" lon="8.906439396340046"><ele>82.0</ele><time>2026-04-03T15:52:13Z</time></trkpt><trkpt lat="44.98999891061152" lon="8.906623962353999"><ele>82.0</ele><time>2026-04-03T15:52:14Z</time></trkpt><trkpt lat="44.99025100275225" lon="8.90680819355627"><ele>82.0</ele><time>2026-04-03T15:52:15.001Z</time></trkpt><trkpt lat="44.99050536500829" lon="8.906990769280092"><ele>82.0</ele><time>2026-04-03T15:52:16.001Z</time></trkpt><trkpt lat="44.990758162693325" lon="8.907172158663336"><ele>82.5</ele><time>2026-04-03T15:52:17.001Z</time></trkpt><trkpt lat="44.99100714307448" lon="8.907353779618482"><ele>83.0</ele><time>2026-04-03T15:52:18.001Z</time></trkpt><trkpt lat="44.99125881237641" lon="8.907532129174076"><ele>82.5</ele><time>2026-04-03T15:52:19.001Z</time></trkpt><trkpt lat="44.99150857679519" lon="8.907711056408951"><ele>82.0</ele><time>2026-04-03T15:52:20.001Z</time></trkpt><trkpt lat="44.99175770601782" lon="8.907886947691557"><ele>81.0</ele><time>2026-04-03T15:52:21.001Z</time></trkpt><trkpt lat="44.99200347928586" lon="8.908064274695791"><ele>80.0</ele><time>2026-04-03T15:52:22.001Z</time></trkpt><trkpt lat="44.992252270270505" lon="8.908238481912042"><ele>79.5</ele><time>2026-04-03T15:52:23.001Z</time></trkpt><trkpt lat="44.992498553157155" lon="8.908414826186137"><ele>79.0</ele><time>2026-04-03T15:52:24.001Z</time></trkpt><trkpt lat="44.99274479733065" lon="8.908589548541311"><ele>79.0</ele><time>2026-04-03T15:52:25.001Z</time></trkpt><trkpt lat="44.99299074921935" lon="8.908768998777436"><ele>79.0</ele><time>2026-04-03T15:52:26.001Z</time></trkpt><trkpt lat="44.99323487273665" lon="8.908949347294717"><ele>79.0</ele><time>2026-04-03T15:52:27.001Z</time></trkpt><trkpt lat="44.99348297148663" lon="8.909129827221124"><ele>79.0</ele><time>2026-04-03T15:52:28.001Z</time></trkpt><trkpt lat="44.99372965089059" lon="8.909307523908083"><ele>79.5</ele><time>2026-04-03T15:52:29.001Z</time></trkpt><trkpt lat="44.99398128543678" lon="8.90948525298157"><ele>80.0</ele><time>2026-04-03T15:52:30.001Z</time></trkpt><trkpt lat="44.99423101484874" lon="8.909660385539802"><ele>79.0</ele><time>2026-04-03T15:52:31Z</time></trkpt><trkpt lat="44.994481331428695" lon="8.909837651416616"><ele>78.0</ele><time>2026-04-03T15:52:32Z</time></trkpt><trkpt lat="44.994730226890695" lon="8.910014569017868"><ele>78.0</ele><time>2026-04-03T15:52:33Z</time></trkpt><trkpt lat="44.99498072614942" lon="8.910193907589695"><ele>78.0</ele><time>2026-04-03T15:52:34Z</time></trkpt><trkpt lat="44.995230495023385" lon="8.910373690304974"><ele>78.0</ele><time>2026-04-03T15:52:35Z</time></trkpt><trkpt lat="44.995479093866656" lon="8.910554696856812"><ele>78.0</ele><time>2026-04-03T15:52:36Z</time></trkpt><trkpt lat="44.99572796436633" lon="8.910731134498823"><ele>78.5</ele><time>2026-04-03T15:52:37Z</time></trkpt><trkpt lat="44.9959795370278" lon="8.910907716796634"><ele>79.0</ele><time>2026-04-03T15:52:38Z</time></trkpt><trkpt lat="44.99623081162278" lon="8.911084915632554"><ele>79.0</ele><time>2026-04-03T15:52:39Z</time></trkpt><trkpt lat="44.99647942534369" lon="8.911263256895579"><ele>79.0</ele><time>2026-04-03T15:52:40Z</time></trkpt><trkpt lat="44.99673093471257" lon="8.91144317985498"><ele>79.0</ele><time>2026-04-03T15:52:41Z</time></trkpt><trkpt lat="44.99698161404499" lon="8.911622776683338"><ele>79.0</ele><time>2026-04-03T15:52:42Z</time></trkpt><trkpt lat="44.99722850354033" lon="8.911800030459116"><ele>79.0</ele><time>2026-04-03T15:52:43Z</time></trkpt><trkpt lat="44.99747424748173" lon="8.911976575868868"><ele>79.0</ele><time>2026-04-03T15:52:44Z</time></trkpt><trkpt lat="44.99771786736042" lon="8.912152942487849"><ele>79.0</ele><time>2026-04-03T15:52:45Z</time></trkpt><trkpt lat="44.99796223157358" lon="8.912329612696281"><ele>79.0</ele><time>2026-04-03T15:52:46Z</time></trkpt><trkpt lat="44.99820525089157" lon="8.912502266710225"><ele>79.5</ele><time>2026-04-03T15:52:47Z</time></trkpt><trkpt lat="44.998449242746254" lon="8.912675692462935"><ele>80.0</ele><time>2026-04-03T15:52:48Z</time></trkpt><trkpt lat="44.99869032547511" lon="8.91284798543167"><ele>80.0</ele><time>2026-04-03T15:52:49Z</time></trkpt><trkpt lat="44.99893594233397" lon="8.91302306020905"><ele>80.0</ele><time>2026-04-03T15:52:50Z</time></trkpt><trkpt lat="44.999182421753446" lon="8.91319992259388"><ele>80.0</ele><time>2026-04-03T15:52:51Z</time></trkpt><trkpt lat="44.99942810388894" lon="8.913377447573408"><ele>80.0</ele><time>2026-04-03T15:52:52Z</time></trkpt><trkpt lat="44.99967536009286" lon="8.913557036868214"><ele>79.5</ele><time>2026-04-03T15:52:53Z</time></trkpt><trkpt lat="44.99992350582763" lon="8.913737683882365"><ele>79.0</ele><time>2026-04-03T15:52:54Z</time></trkpt><trkpt lat="45.00017139392991" lon="8.913915750457479"><ele>79.0</ele><time>2026-04-03T15:52:55Z</time></trkpt><trkpt lat="45.00042359222438" lon="8.914094736833617"><ele>79.0</ele><time>2026-04-03T15:52:56Z</time></trkpt><trkpt lat="45.00067384335161" lon="8.914272173850968"><ele>77.5</ele><time>2026-04-03T15:52:57Z</time></trkpt><trkpt lat="45.000927352092845" lon="8.914452018683974"><ele>76.0</ele><time>2026-04-03T15:52:58Z</time></trkpt><trkpt lat="45.0011769311004" lon="8.914632598698965"><ele>76.0</ele><time>2026-04-03T15:52:59Z</time></trkpt><trkpt lat="45.001429718510046" lon="8.914818314051775"><ele>76.0</ele><time>2026-04-03T15:53:00Z</time></trkpt><trkpt lat="45.00168078405539" lon="8.914998695922293"><ele>76.0</ele><time>2026-04-03T15:53:01Z</time></trkpt><trkpt lat="45.00193324437074" lon="8.915179882372282"><ele>76.0</ele><time>2026-04-03T15:53:02Z</time></trkpt><trkpt lat="45.00218893611999" lon="8.9153625545246"><ele>76.0</ele><time>2026-04-03T15:53:03Z</time></trkpt><trkpt lat="45.002442624084374" lon="8.915545170299561"><ele>76.0</ele><time>2026-04-03T15:53:04Z</time></trkpt><trkpt lat="45.002697924423835" lon="8.915731466386395"><ele>76.5</ele><time>2026-04-03T15:53:05Z</time></trkpt><trkpt lat="45.002952824987275" lon="8.915917112665074"><ele>77.0</ele><time>2026-04-03T15:53:06Z</time></trkpt><trkpt lat="45.00320936222441" lon="8.916100950208937"><ele>78.0</ele><time>2026-04-03T15:53:07Z</time></trkpt><trkpt lat="45.003467948173736" lon="8.916286551606467"><ele>79.0</ele><time>2026-04-03T15:53:08Z</time></trkpt><trkpt lat="45.00372852711671" lon="8.916471650785498"><ele>79.0</ele><time>2026-04-03T15:53:09Z</time></trkpt><trkpt lat="45.003988222882754" lon="8.916653702756664"><ele>79.0</ele><time>2026-04-03T15:53:10Z</time></trkpt><trkpt lat="45.00424752745671" lon="8.916838864668296"><ele>77.5</ele><time>2026-04-03T15:53:11Z</time></trkpt><trkpt lat="45.004506758753514" lon="8.917025198961047"><ele>76.0</ele><time>2026-04-03T15:53:12Z</time></trkpt><trkpt lat="45.004765678734174" lon="8.917211390406784"><ele>76.0</ele><time>2026-04-03T15:53:13Z</time></trkpt><trkpt lat="45.00502215365578" lon="8.917397679397151"><ele>76.0</ele><time>2026-04-03T15:53:14Z</time></trkpt><trkpt lat="45.005280581922584" lon="8.917581550715456"><ele>76.5</ele><time>2026-04-03T15:53:15Z</time></trkpt><trkpt lat="45.00553779450776" lon="8.917765058374258"><ele>77.0</ele><time>2026-04-03T15:53:16Z</time></trkpt><trkpt lat="45.00579588523607" lon="8.917952023112543"><ele>78.0</ele><time>2026-04-03T15:53:17Z</time></trkpt><trkpt lat="45.006055736649174" lon="8.918138894340082"><ele>79.0</ele><time>2026-04-03T15:53:18Z</time></trkpt><trkpt lat="45.00631861994698" lon="8.918326090983555"><ele>79.0</ele><time>2026-04-03T15:53:19Z</time></trkpt><trkpt lat="45.00658192547452" lon="8.918512365949681"><ele>79.0</ele><time>2026-04-03T15:53:20Z</time></trkpt><trkpt lat="45.00684582681506" lon="8.918701728708905"><ele>78.0</ele><time>2026-04-03T15:53:21Z</time></trkpt><trkpt lat="45.00710927377192" lon="8.918890802146409"><ele>77.0</ele><time>2026-04-03T15:53:22Z</time></trkpt><trkpt lat="45.007374571460694" lon="8.919081932576974"><ele>76.5</ele><time>2026-04-03T15:53:23Z</time></trkpt><trkpt lat="45.007641405223566" lon="8.919273199100742"><ele>76.0</ele><time>2026-04-03T15:53:24Z</time></trkpt><trkpt lat="45.00790919062297" lon="8.919464448229078"><ele>76.0</ele><time>2026-04-03T15:53:25Z</time></trkpt><trkpt lat="45.00817826998887" lon="8.919656083880673"><ele>76.0</ele><time>2026-04-03T15:53:26Z</time></trkpt><trkpt lat="45.008448912319494" lon="8.919850022301658"><ele>76.5</ele><time>2026-04-03T15:53:27Z</time></trkpt><trkpt lat="45.0087202293754" lon="8.920045132565841"><ele>77.0</ele><time>2026-04-03T15:53:28Z</time></trkpt><trkpt lat="45.00899295205981" lon="8.920241611686762"><ele>77.5</ele><time>2026-04-03T15:53:29Z</time></trkpt><trkpt lat="45.009267295648186" lon="8.920441495552808"><ele>78.0</ele><time>2026-04-03T15:53:30Z</time></trkpt><trkpt lat="45.00954421933271" lon="8.920638853145816"><ele>78.0</ele><time>2026-04-03T15:53:31Z</time></trkpt><trkpt lat="45.00982051631097" lon="8.920837905119981"><ele>78.0</ele><time>2026-04-03T15:53:32Z</time></trkpt><trkpt lat="45.01009873369247" lon="8.921035419106897"><ele>78.0</ele><time>2026-04-03T15:53:33Z</time></trkpt><trkpt lat="45.0103776501442" lon="8.921235545055053"><ele>78.0</ele><time>2026-04-03T15:53:34Z</time></trkpt><trkpt lat="45.01065515420774" lon="8.921434502693257"><ele>78.5</ele><time>2026-04-03T15:53:35Z</time></trkpt><trkpt lat="45.01093503423401" lon="8.921634153701802"><ele>79.0</ele><time>2026-04-03T15:53:36Z</time></trkpt><trkpt lat="45.0112144934078" lon="8.921831958083677"><ele>78.0</ele><time>2026-04-03T15:53:37Z</time></trkpt><trkpt lat="45.0114924880911" lon="8.922032224962177"><ele>77.0</ele><time>2026-04-03T15:53:38Z</time></trkpt><trkpt lat="45.01177247855283" lon="8.922231209722979"><ele>78.0</ele><time>2026-04-03T15:53:39Z</time></trkpt><trkpt lat="45.01205013354833" lon="8.922432637268606"><ele>79.0</ele><time>2026-04-03T15:53:40Z</time></trkpt><trkpt lat="45.01232698659474" lon="8.922634206774047"><ele>77.5</ele><time>2026-04-03T15:53:41Z</time></trkpt><trkpt lat="45.012604516623966" lon="8.922835195519522"><ele>76.0</ele><time>2026-04-03T15:53:42Z</time></trkpt><trkpt lat="45.01288196282209" lon="8.923035347804959"><ele>76.0</ele><time>2026-04-03T15:53:43Z</time></trkpt><trkpt lat="45.01316010743079" lon="8.923232072087808"><ele>76.0</ele><time>2026-04-03T15:53:44Z</time></trkpt><trkpt lat="45.01343629349243" lon="8.923428511911478"><ele>76.5</ele><time>2026-04-03T15:53:45Z</time></trkpt><trkpt lat="45.0137115117695" lon="8.923625506046124"><ele>77.0</ele><time>2026-04-03T15:53:46Z</time></trkpt><trkpt lat="45.01398713919375" lon="8.923820980475876"><ele>77.5</ele><time>2026-04-03T15:53:47Z</time></trkpt><trkpt lat="45.0142623283845" lon="8.924016614321765"><ele>78.0</ele><time>2026-04-03T15:53:48Z</time></trkpt><trkpt lat="45.01453707131142" lon="8.924212477293631"><ele>78.5</ele><time>2026-04-03T15:53:49Z</time></trkpt><trkpt lat="45.01481345509729" lon="8.924409018810017"><ele>79.0</ele><time>2026-04-03T15:53:50Z</time></trkpt><trkpt lat="45.015090214396025" lon="8.924601238059845"><ele>78.0</ele><time>2026-04-03T15:53:51Z</time></trkpt><trkpt lat="45.01536943437197" lon="8.92478944081311"><ele>77.0</ele><time>2026-04-03T15:53:52Z</time></trkpt><trkpt lat="45.015645970592416" lon="8.924980201122823"><ele>77.5</ele><time>2026-04-03T15:53:53Z</time></trkpt><trkpt lat="45.015924465838346" lon="8.925172394594272"><ele>78.0</ele><time>2026-04-03T15:53:54Z</time></trkpt><trkpt lat="45.016200061486096" lon="8.925367539405624"><ele>78.0</ele><time>2026-04-03T15:53:55Z</time></trkpt><trkpt lat="45.01647362636954" lon="8.925566099379228"><ele>78.0</ele><time>2026-04-03T15:53:56Z</time></trkpt><trkpt lat="45.01675108751124" lon="8.92576338218207"><ele>78.5</ele><time>2026-04-03T15:53:57Z</time></trkpt><trkpt lat="45.017027530673175" lon="8.925963080204928"><ele>79.0</ele><time>2026-04-03T15:53:58Z</time></trkpt><trkpt lat="45.01730435332915" lon="8.926159396067987"><ele>78.5</ele><time>2026-04-03T15:53:59Z</time></trkpt><trkpt lat="45.017580081612024" lon="8.926356125529137"><ele>78.0</ele><time>2026-04-03T15:54:00Z</time></trkpt><trkpt lat="45.0178584069447" lon="8.926551661721275"><ele>77.5</ele><time>2026-04-03T15:54:01Z</time></trkpt><trkpt lat="45.01813497307607" lon="8.926746301156733"><ele>77.0</ele><time>2026-04-03T15:54:02Z</time></trkpt><trkpt lat="45.01840985282112" lon="8.926943327675225"><ele>78.5</ele><time>2026-04-03T15:54:03Z</time></trkpt><trkpt lat="45.018687391395375" lon="8.927140811798633"><ele>80.0</ele><time>2026-04-03T15:54:04Z</time></trkpt><trkpt lat="45.01896446380179" lon="8.92733605901495"><ele>79.5</ele><time>2026-04-03T15:54:05.001Z</time></trkpt><trkpt lat="45.0192388896904" lon="8.927531458323903"><ele>79.0</ele><time>2026-04-03T15:54:06.001Z</time></trkpt><trkpt lat="45.01951543741752" lon="8.927727091475749"><ele>80.0</ele><time>2026-04-03T15:54:07.001Z</time></trkpt><trkpt lat="45.01979088817115" lon="8.927922224769652"><ele>81.0</ele><time>2026-04-03T15:54:08.001Z</time></trkpt><trkpt lat="45.020064564676915" lon="8.92811876964958"><ele>81.0</ele><time>2026-04-03T15:54:09.001Z</time></trkpt><trkpt lat="45.020340296394835" lon="8.928312292931688"><ele>81.0</ele><time>2026-04-03T15:54:10.001Z</time></trkpt><trkpt lat="45.02061505854734" lon="8.928501942279476"><ele>80.0</ele><time>2026-04-03T15:54:11.001Z</time></trkpt><trkpt lat="45.020891690837416" lon="8.928691530804382"><ele>79.0</ele><time>2026-04-03T15:54:12.001Z</time></trkpt><trkpt lat="45.021168116274644" lon="8.928883041936281"><ele>79.0</ele><time>2026-04-03T15:54:13.001Z</time></trkpt><trkpt lat="45.02144220705015" lon="8.929075273981878"><ele>79.0</ele><time>2026-04-03T15:54:14.001Z</time></trkpt><trkpt lat="45.02171463243925" lon="8.929272889487276"><ele>79.5</ele><time>2026-04-03T15:54:15.001Z</time></trkpt><trkpt lat="45.021984647296065" lon="8.929476085352748"><ele>80.0</ele><time>2026-04-03T15:54:16.001Z</time></trkpt><trkpt lat="45.0222541486158" lon="8.92967940117148"><ele>79.5</ele><time>2026-04-03T15:54:17.001Z</time></trkpt><trkpt lat="45.02252464822648" lon="8.929879355915249"><ele>79.0</ele><time>2026-04-03T15:54:18.001Z</time></trkpt><trkpt lat="45.02279825579278" lon="8.930076233004272"><ele>79.0</ele><time>2026-04-03T15:54:19.001Z</time></trkpt><trkpt lat="45.02307235351115" lon="8.930269609641735"><ele>79.0</ele><time>2026-04-03T15:54:20.001Z</time></trkpt><trkpt lat="45.02334648812958" lon="8.930457007571539"><ele>78.0</ele><time>2026-04-03T15:54:21.001Z</time></trkpt><trkpt lat="45.02362199651633" lon="8.930644360639404"><ele>77.0</ele><time>2026-04-03T15:54:22.001Z</time></trkpt><trkpt lat="45.023894985029436" lon="8.930833172427645"><ele>78.0</ele><time>2026-04-03T15:54:23.001Z</time></trkpt><trkpt lat="45.024167233036614" lon="8.931022297220336"><ele>79.0</ele><time>2026-04-03T15:54:24Z</time></trkpt><trkpt lat="45.02443876110425" lon="8.931211453568078"><ele>79.0</ele><time>2026-04-03T15:54:25Z</time></trkpt><trkpt lat="45.02470795745958" lon="8.93140090983727"><ele>79.0</ele><time>2026-04-03T15:54:26Z</time></trkpt><trkpt lat="45.02497874626567" lon="8.931590958010364"><ele>78.5</ele><time>2026-04-03T15:54:27Z</time></trkpt><trkpt lat="45.025247578511895" lon="8.93178223700901"><ele>78.0</ele><time>2026-04-03T15:54:28Z</time></trkpt><trkpt lat="45.02551758357606" lon="8.931971514326872"><ele>78.0</ele><time>2026-04-03T15:54:29Z</time></trkpt><trkpt lat="45.02578609637285" lon="8.932158236797296"><ele>78.0</ele><time>2026-04-03T15:54:30Z</time></trkpt><trkpt lat="45.02605718100178" lon="8.932344344410701"><ele>77.0</ele><time>2026-04-03T15:54:31Z</time></trkpt><trkpt lat="45.026327079208365" lon="8.9325294897474"><ele>76.0</ele><time>2026-04-03T15:54:32Z</time></trkpt><trkpt lat="45.02659696834593" lon="8.932716958409225"><ele>75.5</ele><time>2026-04-03T15:54:33Z</time></trkpt><trkpt lat="45.02686836895355" lon="8.932905696138915"><ele>75.0</ele><time>2026-04-03T15:54:34Z</time></trkpt><trkpt lat="45.027140934757774" lon="8.933091511132533"><ele>75.0</ele><time>2026-04-03T15:54:35Z</time></trkpt><trkpt lat="45.027414780645834" lon="8.933274304893775"><ele>75.0</ele><time>2026-04-03T15:54:36Z</time></trkpt><trkpt lat="45.02768842960647" lon="8.93345586212928"><ele>77.5</ele><time>2026-04-03T15:54:37Z</time></trkpt><trkpt lat="45.027963661141094" lon="8.933637012295366"><ele>80.0</ele><time>2026-04-03T15:54:38Z</time></trkpt><trkpt lat="45.028235585113855" lon="8.933819329602414"><ele>78.5</ele><time>2026-04-03T15:54:39Z</time></trkpt><trkpt lat="45.02850769904085" lon="8.93400728371347"><ele>77.0</ele><time>2026-04-03T15:54:40Z</time></trkpt><trkpt lat="45.02877672293142" lon="8.934196735052842"><ele>77.0</ele><time>2026-04-03T15:54:41Z</time></trkpt><trkpt lat="45.02904737130739" lon="8.934386253786807"><ele>77.0</ele><time>2026-04-03T15:54:42Z</time></trkpt><trkpt lat="45.02931568884963" lon="8.934576508597429"><ele>77.5</ele><time>2026-04-03T15:54:43Z</time></trkpt><trkpt lat="45.02958429970894" lon="8.934764693736234"><ele>78.0</ele><time>2026-04-03T15:54:44Z</time></trkpt><trkpt lat="45.02985554166239" lon="8.934950554363024"><ele>77.5</ele><time>2026-04-03T15:54:45Z</time></trkpt><trkpt lat="45.03012417974484" lon="8.935134425265955"><ele>77.0</ele><time>2026-04-03T15:54:46Z</time></trkpt><trkpt lat="45.03039499391444" lon="8.935316323839794"><ele>77.0</ele><time>2026-04-03T15:54:47Z</time></trkpt><trkpt lat="45.030664813090844" lon="8.935501732679619"><ele>77.0</ele><time>2026-04-03T15:54:48Z</time></trkpt><trkpt lat="45.030930442801115" lon="8.935691857931605"><ele>77.0</ele><time>2026-04-03T15:54:49Z</time></trkpt><trkpt lat="45.031194240900234" lon="8.935887191581736"><ele>77.0</ele><time>2026-04-03T15:54:50Z</time></trkpt><trkpt lat="45.03145649445971" lon="8.936086469270792"><ele>76.0</ele><time>2026-04-03T15:54:51Z</time></trkpt><trkpt lat="45.031719318923265" lon="8.936287055409192"><ele>75.0</ele><time>2026-04-03T15:54:52Z</time></trkpt><trkpt lat="45.031981521769225" lon="8.936483176408926"><ele>75.0</ele><time>2026-04-03T15:54:53Z</time></trkpt><trkpt lat="45.032245955463665" lon="8.936674830951445"><ele>75.0</ele><time>2026-04-03T15:54:54Z</time></trkpt><trkpt lat="45.032512874518716" lon="8.93686118860483"><ele>74.0</ele><time>2026-04-03T15:54:55Z</time></trkpt><trkpt lat="45.03277706455988" lon="8.93704216087324"><ele>73.0</ele><time>2026-04-03T15:54:56Z</time></trkpt><trkpt lat="45.033042857685956" lon="8.937224701329631"><ele>74.0</ele><time>2026-04-03T15:54:57Z</time></trkpt><trkpt lat="45.033306467135056" lon="8.937407548498047"><ele>75.0</ele><time>2026-04-03T15:54:58Z</time></trkpt><trkpt lat="45.03356860714903" lon="8.937590661845746"><ele>75.0</ele><time>2026-04-03T15:54:59Z</time></trkpt><trkpt lat="45.033831090238166" lon="8.937773595783232"><ele>75.0</ele><time>2026-04-03T15:55:00Z</time></trkpt><trkpt lat="45.03409318723725" lon="8.937956804484713"><ele>75.5</ele><time>2026-04-03T15:55:01Z</time></trkpt><trkpt lat="45.034355809380486" lon="8.938140083060247"><ele>76.0</ele><time>2026-04-03T15:55:02Z</time></trkpt><trkpt lat="45.034618170293804" lon="8.938323491709395"><ele>75.5</ele><time>2026-04-03T15:55:03Z</time></trkpt><trkpt lat="45.03488250502866" lon="8.938509990889878"><ele>75.0</ele><time>2026-04-03T15:55:04Z</time></trkpt><trkpt lat="45.03514516573128" lon="8.938691960324212"><ele>74.0</ele><time>2026-04-03T15:55:05Z</time></trkpt><trkpt lat="45.03540898447748" lon="8.938878171833412"><ele>73.0</ele><time>2026-04-03T15:55:06Z</time></trkpt><trkpt lat="45.035671845640685" lon="8.9390650978124"><ele>72.5</ele><time>2026-04-03T15:55:07Z</time></trkpt><trkpt lat="45.03593598128226" lon="8.939250647299083"><ele>72.0</ele><time>2026-04-03T15:55:08Z</time></trkpt><trkpt lat="45.03619892024295" lon="8.939434092686872"><ele>72.0</ele><time>2026-04-03T15:55:09Z</time></trkpt><trkpt lat="45.036463642128034" lon="8.939617745670663"><ele>72.0</ele><time>2026-04-03T15:55:10Z</time></trkpt><trkpt lat="45.036728836349205" lon="8.939801473257491"><ele>72.0</ele><time>2026-04-03T15:55:11Z</time></trkpt><trkpt lat="45.036996194109" lon="8.939986187834355"><ele>72.0</ele><time>2026-04-03T15:55:12Z</time></trkpt><trkpt lat="45.037262563053" lon="8.940170112224399"><ele>73.0</ele><time>2026-04-03T15:55:13Z</time></trkpt><trkpt lat="45.037530033918976" lon="8.940356078015578"><ele>74.0</ele><time>2026-04-03T15:55:14Z</time></trkpt><trkpt lat="45.03779924423023" lon="8.940541040464025"><ele>74.0</ele><time>2026-04-03T15:55:15Z</time></trkpt><trkpt lat="45.038066808712315" lon="8.940726498690898"><ele>74.0</ele><time>2026-04-03T15:55:16Z</time></trkpt><trkpt lat="45.03833494532074" lon="8.940914914401947"><ele>75.0</ele><time>2026-04-03T15:55:17Z</time></trkpt><trkpt lat="45.038600052825075" lon="8.941106376189856"><ele>76.0</ele><time>2026-04-03T15:55:18Z</time></trkpt><trkpt lat="45.03886673889068" lon="8.941296009880656"><ele>76.0</ele><time>2026-04-03T15:55:19Z</time></trkpt><trkpt lat="45.03913274330119" lon="8.941485742324614"><ele>76.0</ele><time>2026-04-03T15:55:20Z</time></trkpt><trkpt lat="45.03940083580385" lon="8.94167542266853"><ele>75.5</ele><time>2026-04-03T15:55:21Z</time></trkpt><trkpt lat="45.03967064696352" lon="8.941864072118063"><ele>75.0</ele><time>2026-04-03T15:55:22Z</time></trkpt><trkpt lat="45.03993871538074" lon="8.94205126476112"><ele>75.0</ele><time>2026-04-03T15:55:23Z</time></trkpt><trkpt lat="45.04020770243818" lon="8.942236114817385"><ele>75.0</ele><time>2026-04-03T15:55:24Z</time></trkpt><trkpt lat="45.04047686394872" lon="8.942423363592773"><ele>75.0</ele><time>2026-04-03T15:55:25Z</time></trkpt><trkpt lat="45.04074393494281" lon="8.942611780553332"><ele>75.0</ele><time>2026-04-03T15:55:26Z</time></trkpt><trkpt lat="45.04101212100932" lon="8.94280682167011"><ele>73.5</ele><time>2026-04-03T15:55:27Z</time></trkpt><trkpt lat="45.041281093937805" lon="8.943004181994946"><ele>72.0</ele><time>2026-04-03T15:55:28Z</time></trkpt><trkpt lat="45.04155030666038" lon="8.943200612381082"><ele>72.0</ele><time>2026-04-03T15:55:29Z</time></trkpt><trkpt lat="45.041818448189396" lon="8.9433955981262"><ele>72.0</ele><time>2026-04-03T15:55:30Z</time></trkpt><trkpt lat="45.042091215296956" lon="8.943587806776327"><ele>72.0</ele><time>2026-04-03T15:55:31Z</time></trkpt><trkpt lat="45.0423618464436" lon="8.943781653148681"><ele>72.0</ele><time>2026-04-03T15:55:32Z</time></trkpt><trkpt lat="45.04263510704499" lon="8.943973353605546"><ele>72.0</ele><time>2026-04-03T15:55:33Z</time></trkpt><trkpt lat="45.04290898937155" lon="8.94416679492244"><ele>72.0</ele><time>2026-04-03T15:55:34Z</time></trkpt><trkpt lat="45.0431810819887" lon="8.944360390947775"><ele>71.5</ele><time>2026-04-03T15:55:35Z</time></trkpt><trkpt lat="45.04345240460631" lon="8.944556430036636"><ele>71.0</ele><time>2026-04-03T15:55:36Z</time></trkpt><trkpt lat="45.04372627605499" lon="8.944752239272734"><ele>71.0</ele><time>2026-04-03T15:55:37Z</time></trkpt><trkpt lat="45.04399937559166" lon="8.944948835827063"><ele>71.0</ele><time>2026-04-03T15:55:38Z</time></trkpt><trkpt lat="45.04427320109378" lon="8.945146201877288"><ele>71.5</ele><time>2026-04-03T15:55:39Z</time></trkpt><trkpt lat="45.04454528200649" lon="8.945342376535017"><ele>72.0</ele><time>2026-04-03T15:55:40Z</time></trkpt><trkpt lat="45.04481817751133" lon="8.945538423304509"><ele>73.5</ele><time>2026-04-03T15:55:41Z</time></trkpt><trkpt lat="45.04509112192073" lon="8.945732671374836"><ele>75.0</ele><time>2026-04-03T15:55:42Z</time></trkpt><trkpt lat="45.045365009932624" lon="8.945925859155642"><ele>75.0</ele><time>2026-04-03T15:55:43Z</time></trkpt><trkpt lat="45.045640786938606" lon="8.946119131350281"><ele>75.0</ele><time>2026-04-03T15:55:44Z</time></trkpt><trkpt lat="45.04591214751941" lon="8.946314228716655"><ele>75.5</ele><time>2026-04-03T15:55:45Z</time></trkpt><trkpt lat="45.04618848647419" lon="8.946519560537507"><ele>76.0</ele><time>2026-04-03T15:55:46Z</time></trkpt><trkpt lat="45.0464585278363" lon="8.946709977093686"><ele>75.0</ele><time>2026-04-03T15:55:47Z</time></trkpt><trkpt lat="45.04672951493407" lon="8.946907035768998"><ele>74.0</ele><time>2026-04-03T15:55:48Z</time></trkpt><trkpt lat="45.04700395871599" lon="8.94710411368827"><ele>74.0</ele><time>2026-04-03T15:55:49Z</time></trkpt><trkpt lat="45.047275492069986" lon="8.947296819385087"><ele>74.0</ele><time>2026-04-03T15:55:50Z</time></trkpt><trkpt lat="45.047551256429614" lon="8.947491294059471"><ele>73.5</ele><time>2026-04-03T15:55:51Z</time></trkpt><trkpt lat="45.04782529416255" lon="8.947685366754346"><ele>73.0</ele><time>2026-04-03T15:55:52Z</time></trkpt><trkpt lat="45.04809991162482" lon="8.94787747349886"><ele>73.0</ele><time>2026-04-03T15:55:53Z</time></trkpt><trkpt lat="45.048375284946154" lon="8.948073548428898"><ele>73.0</ele><time>2026-04-03T15:55:54Z</time></trkpt><trkpt lat="45.04864639339813" lon="8.948267855522662"><ele>72.5</ele><time>2026-04-03T15:55:55Z</time></trkpt><trkpt lat="45.04892117385057" lon="8.948463959349763"><ele>72.0</ele><time>2026-04-03T15:55:56Z</time></trkpt><trkpt lat="45.049195404547355" lon="8.948655928038754"><ele>72.0</ele><time>2026-04-03T15:55:57Z</time></trkpt><trkpt lat="45.049470020116686" lon="8.948850752011571"><ele>72.0</ele><time>2026-04-03T15:55:58Z</time></trkpt><trkpt lat="45.04974827387236" lon="8.949047351516183"><ele>71.5</ele><time>2026-04-03T15:55:58.999Z</time></trkpt><trkpt lat="45.05002271334807" lon="8.94923289813376"><ele>71.0</ele><time>2026-04-03T15:55:59.999Z</time></trkpt><trkpt lat="45.0502955664868" lon="8.949416727612862"><ele>71.0</ele><time>2026-04-03T15:56:00.999Z</time></trkpt><trkpt lat="45.05057235300389" lon="8.949606993044519"><ele>71.0</ele><time>2026-04-03T15:56:01.999Z</time></trkpt><trkpt lat="45.05084681952969" lon="8.949794988118171"><ele>71.0</ele><time>2026-04-03T15:56:02.999Z</time></trkpt><trkpt lat="45.051118702643656" lon="8.949987406911962"><ele>71.0</ele><time>2026-04-03T15:56:03.999Z</time></trkpt><trkpt lat="45.05139062107534" lon="8.950182817458"><ele>72.0</ele><time>2026-04-03T15:56:04.999Z</time></trkpt><trkpt lat="45.051660938870604" lon="8.950378828117513"><ele>73.0</ele><time>2026-04-03T15:56:05.999Z</time></trkpt><trkpt lat="45.051929651827514" lon="8.950572282675063"><ele>73.0</ele><time>2026-04-03T15:56:06.999Z</time></trkpt><trkpt lat="45.052194502177976" lon="8.950761271245803"><ele>73.0</ele><time>2026-04-03T15:56:07.999Z</time></trkpt><trkpt lat="45.05245938365962" lon="8.95095159897714"><ele>74.0</ele><time>2026-04-03T15:56:08.999Z</time></trkpt><trkpt lat="45.05272225433647" lon="8.951146272613459"><ele>75.0</ele><time>2026-04-03T15:56:09.999Z</time></trkpt><trkpt lat="45.05298481951441" lon="8.951346759442467"><ele>75.0</ele><time>2026-04-03T15:56:11Z</time></trkpt><trkpt lat="45.053244624941925" lon="8.95154399574651"><ele>75.0</ele><time>2026-04-03T15:56:12Z</time></trkpt><trkpt lat="45.0535065005906" lon="8.951738185074563"><ele>72.5</ele><time>2026-04-03T15:56:13Z</time></trkpt><trkpt lat="45.05376767044756" lon="8.95192996530127"><ele>70.0</ele><time>2026-04-03T15:56:14Z</time></trkpt><trkpt lat="45.05402853603346" lon="8.952116464440618"><ele>71.0</ele><time>2026-04-03T15:56:15Z</time></trkpt><trkpt lat="45.054292829857495" lon="8.952304744113265"><ele>72.0</ele><time>2026-04-03T15:56:16Z</time></trkpt><trkpt lat="45.054554642079644" lon="8.952491062079952"><ele>71.0</ele><time>2026-04-03T15:56:17Z</time></trkpt><trkpt lat="45.054815869527715" lon="8.952676434973252"><ele>70.0</ele><time>2026-04-03T15:56:18Z</time></trkpt><trkpt lat="45.05507677345178" lon="8.952862533329814"><ele>69.5</ele><time>2026-04-03T15:56:19Z</time></trkpt><trkpt lat="45.05533855930731" lon="8.953051795524868"><ele>69.0</ele><time>2026-04-03T15:56:20Z</time></trkpt><trkpt lat="45.05559648834766" lon="8.95323843904694"><ele>68.0</ele><time>2026-04-03T15:56:21Z</time></trkpt><trkpt lat="45.055853890996794" lon="8.953435740848768"><ele>67.0</ele><time>2026-04-03T15:56:22Z</time></trkpt><trkpt lat="45.05610456722786" lon="8.953639750037615"><ele>67.0</ele><time>2026-04-03T15:56:23Z</time></trkpt><trkpt lat="45.0563502756208" lon="8.953857855174169"><ele>67.0</ele><time>2026-04-03T15:56:24Z</time></trkpt><trkpt lat="45.05658770144608" lon="8.954090076078096"><ele>68.5</ele><time>2026-04-03T15:56:25Z</time></trkpt><trkpt lat="45.056816753793676" lon="8.954332808148905"><ele>70.0</ele><time>2026-04-03T15:56:26Z</time></trkpt><trkpt lat="45.05704580125601" lon="8.954579082157752"><ele>70.0</ele><time>2026-04-03T15:56:27Z</time></trkpt><trkpt lat="45.05727361354204" lon="8.954821104564106"><ele>70.0</ele><time>2026-04-03T15:56:28Z</time></trkpt><trkpt lat="45.05750176373417" lon="8.95506259129406"><ele>69.5</ele><time>2026-04-03T15:56:29Z</time></trkpt><trkpt lat="45.05772852506454" lon="8.95530288995142"><ele>69.0</ele><time>2026-04-03T15:56:30Z</time></trkpt><trkpt lat="45.057954611127506" lon="8.955544058815493"><ele>69.0</ele><time>2026-04-03T15:56:31Z</time></trkpt><trkpt lat="45.05818078013043" lon="8.955785699751258"><ele>69.0</ele><time>2026-04-03T15:56:32Z</time></trkpt><trkpt lat="45.05840376268969" lon="8.9560269470808"><ele>69.0</ele><time>2026-04-03T15:56:33Z</time></trkpt><trkpt lat="45.05862656556286" lon="8.956272801440006"><ele>69.0</ele><time>2026-04-03T15:56:34Z</time></trkpt><trkpt lat="45.05884590571496" lon="8.956522075797194"><ele>69.0</ele><time>2026-04-03T15:56:35Z</time></trkpt><trkpt lat="45.059061991232014" lon="8.956772590448198"><ele>69.0</ele><time>2026-04-03T15:56:36Z</time></trkpt><trkpt lat="45.05927967206973" lon="8.957022536763711"><ele>69.0</ele><time>2026-04-03T15:56:37Z</time></trkpt><trkpt lat="45.05950141670249" lon="8.957266437273073"><ele>69.0</ele><time>2026-04-03T15:56:38Z</time></trkpt><trkpt lat="45.05972127284654" lon="8.957508446781148"><ele>68.5</ele><time>2026-04-03T15:56:39Z</time></trkpt><trkpt lat="45.05994479668946" lon="8.957749614569424"><ele>68.0</ele><time>2026-04-03T15:56:40Z</time></trkpt><trkpt lat="45.06016811282154" lon="8.957994549712831"><ele>68.0</ele><time>2026-04-03T15:56:41Z</time></trkpt><trkpt lat="45.060390040362755" lon="8.958237382784388"><ele>68.0</ele><time>2026-04-03T15:56:42Z</time></trkpt><trkpt lat="45.060613944259636" lon="8.95848292428914"><ele>69.0</ele><time>2026-04-03T15:56:43Z</time></trkpt><trkpt lat="45.06083588610792" lon="8.958728748680496"><ele>70.0</ele><time>2026-04-03T15:56:44Z</time></trkpt><trkpt lat="45.061061978690304" lon="8.958977472420255"><ele>69.5</ele><time>2026-04-03T15:56:45Z</time></trkpt><trkpt lat="45.06128661879785" lon="8.959223521226617"><ele>69.0</ele><time>2026-04-03T15:56:46Z</time></trkpt><trkpt lat="45.06151339046453" lon="8.95947166856441"><ele>69.5</ele><time>2026-04-03T15:56:47Z</time></trkpt><trkpt lat="45.061740918119746" lon="8.959719507399942"><ele>70.0</ele><time>2026-04-03T15:56:48Z</time></trkpt><trkpt lat="45.06196742055241" lon="8.959965554409496"><ele>69.5</ele><time>2026-04-03T15:56:49Z</time></trkpt><trkpt lat="45.06219628558926" lon="8.960218587439226"><ele>69.0</ele><time>2026-04-03T15:56:50Z</time></trkpt><trkpt lat="45.06242507741817" lon="8.960471177909037"><ele>68.5</ele><time>2026-04-03T15:56:51Z</time></trkpt><trkpt lat="45.06265426811008" lon="8.960725349411733"><ele>68.0</ele><time>2026-04-03T15:56:52Z</time></trkpt><trkpt lat="45.062885631781896" lon="8.960978258355468"><ele>68.0</ele><time>2026-04-03T15:56:53Z</time></trkpt><trkpt lat="45.06311882511502" lon="8.961233743788936"><ele>68.0</ele><time>2026-04-03T15:56:54Z</time></trkpt><trkpt lat="45.06335423381235" lon="8.961491535249744"><ele>68.0</ele><time>2026-04-03T15:56:55Z</time></trkpt><trkpt lat="45.063589351863605" lon="8.961747268713378"><ele>68.0</ele><time>2026-04-03T15:56:56Z</time></trkpt><trkpt lat="45.06382571724586" lon="8.962003011297105"><ele>68.0</ele><time>2026-04-03T15:56:57Z</time></trkpt><trkpt lat="45.06406347426981" lon="8.962259079376055"><ele>68.0</ele><time>2026-04-03T15:56:58Z</time></trkpt><trkpt lat="45.06430018655503" lon="8.962520439504061"><ele>68.5</ele><time>2026-04-03T15:56:59Z</time></trkpt><trkpt lat="45.06453604215721" lon="8.96278127024167"><ele>69.0</ele><time>2026-04-03T15:57:00Z</time></trkpt><trkpt lat="45.06477272885713" lon="8.963041908363667"><ele>69.0</ele><time>2026-04-03T15:57:01Z</time></trkpt><trkpt lat="45.06501165921697" lon="8.96330383510713"><ele>69.0</ele><time>2026-04-03T15:57:02Z</time></trkpt><trkpt lat="45.065248015287324" lon="8.963563093641447"><ele>69.0</ele><time>2026-04-03T15:57:03Z</time></trkpt><trkpt lat="45.06548705826421" lon="8.96382480144639"><ele>69.0</ele><time>2026-04-03T15:57:04Z</time></trkpt><trkpt lat="45.06572559898244" lon="8.964086111912676"><ele>69.5</ele><time>2026-04-03T15:57:05Z</time></trkpt><trkpt lat="45.06596344232315" lon="8.964344870802009"><ele>70.0</ele><time>2026-04-03T15:57:06Z</time></trkpt><trkpt lat="45.06620342617341" lon="8.964603857064116"><ele>70.0</ele><time>2026-04-03T15:57:07Z</time></trkpt><trkpt lat="45.066442349509" lon="8.964862317193141"><ele>70.0</ele><time>2026-04-03T15:57:08Z</time></trkpt><trkpt lat="45.06668238350044" lon="8.965121729281293"><ele>69.5</ele><time>2026-04-03T15:57:09Z</time></trkpt><trkpt lat="45.066921970323484" lon="8.965381952923762"><ele>69.0</ele><time>2026-04-03T15:57:10Z</time></trkpt><trkpt lat="45.06716155229059" lon="8.965642170222143"><ele>69.0</ele><time>2026-04-03T15:57:11Z</time></trkpt><trkpt lat="45.06739921435127" lon="8.965901954568482"><ele>69.0</ele><time>2026-04-03T15:57:12Z</time></trkpt><trkpt lat="45.06763925356585" lon="8.966166976125518"><ele>69.0</ele><time>2026-04-03T15:57:13Z</time></trkpt><trkpt lat="45.06787916850925" lon="8.96642911099294"><ele>69.0</ele><time>2026-04-03T15:57:14Z</time></trkpt><trkpt lat="45.06812127111566" lon="8.966691473109076"><ele>68.0</ele><time>2026-04-03T15:57:15Z</time></trkpt><trkpt lat="45.068361603386315" lon="8.966954757742482"><ele>67.0</ele><time>2026-04-03T15:57:16Z</time></trkpt><trkpt lat="45.06860337860272" lon="8.96722168477997"><ele>67.0</ele><time>2026-04-03T15:57:17Z</time></trkpt><trkpt lat="45.068844516720716" lon="8.967487914796807"><ele>67.0</ele><time>2026-04-03T15:57:18Z</time></trkpt><trkpt lat="45.06908710005205" lon="8.967750977005966"><ele>68.0</ele><time>2026-04-03T15:57:19Z</time></trkpt><trkpt lat="45.06933126472908" lon="8.968014943727443"><ele>69.0</ele><time>2026-04-03T15:57:20Z</time></trkpt><trkpt lat="45.0695719662001" lon="8.968277076474797"><ele>69.0</ele><time>2026-04-03T15:57:21Z</time></trkpt><trkpt lat="45.06981235382428" lon="8.968540999119524"><ele>69.0</ele><time>2026-04-03T15:57:22Z</time></trkpt><trkpt lat="45.07005321133831" lon="8.968808063134105"><ele>69.0</ele><time>2026-04-03T15:57:23Z</time></trkpt><trkpt lat="45.07029355317629" lon="8.969074418417115"><ele>69.0</ele><time>2026-04-03T15:57:24Z</time></trkpt><trkpt lat="45.07053569307129" lon="8.969342515218269"><ele>69.0</ele><time>2026-04-03T15:57:25Z</time></trkpt><trkpt lat="45.07077801350469" lon="8.969609130657162"><ele>69.0</ele><time>2026-04-03T15:57:26Z</time></trkpt><trkpt lat="45.07102318547161" lon="8.969875414151165"><ele>68.0</ele><time>2026-04-03T15:57:27Z</time></trkpt><trkpt lat="45.07126800814967" lon="8.970140055331758"><ele>67.0</ele><time>2026-04-03T15:57:28Z</time></trkpt><trkpt lat="45.07151505895742" lon="8.970405887595712"><ele>67.5</ele><time>2026-04-03T15:57:29Z</time></trkpt><trkpt lat="45.07176250145848" lon="8.97067379480952"><ele>68.0</ele><time>2026-04-03T15:57:30Z</time></trkpt><trkpt lat="45.072009092845065" lon="8.970942488126347"><ele>69.0</ele><time>2026-04-03T15:57:31Z</time></trkpt><trkpt lat="45.07225541668421" lon="8.971212858015424"><ele>70.0</ele><time>2026-04-03T15:57:32Z</time></trkpt><trkpt lat="45.07250189190252" lon="8.971484492865635"><ele>69.5</ele><time>2026-04-03T15:57:33Z</time></trkpt><trkpt lat="45.07275003166076" lon="8.971755267261967"><ele>69.0</ele><time>2026-04-03T15:57:34Z</time></trkpt><trkpt lat="45.072999975703226" lon="8.972022125991927"><ele>69.0</ele><time>2026-04-03T15:57:35Z</time></trkpt><trkpt lat="45.07325605913698" lon="8.972278024981946"><ele>69.0</ele><time>2026-04-03T15:57:36Z</time></trkpt><trkpt lat="45.07352047155689" lon="8.972519224109085"><ele>68.5</ele><time>2026-04-03T15:57:37Z</time></trkpt><trkpt lat="45.07379170873784" lon="8.972741669627725"><ele>68.0</ele><time>2026-04-03T15:57:38Z</time></trkpt><trkpt lat="45.07407381530471" lon="8.972947474413628"><ele>67.5</ele><time>2026-04-03T15:57:39Z</time></trkpt><trkpt lat="45.07435917208135" lon="8.973128550168246"><ele>67.0</ele><time>2026-04-03T15:57:40Z</time></trkpt><trkpt lat="45.0746510587013" lon="8.973288934963335"><ele>67.0</ele><time>2026-04-03T15:57:41Z</time></trkpt><trkpt lat="45.07494930702938" lon="8.973431285960753"><ele>67.0</ele><time>2026-04-03T15:57:42Z</time></trkpt><trkpt lat="45.075247561552814" lon="8.973559566810248"><ele>67.0</ele><time>2026-04-03T15:57:43Z</time></trkpt><trkpt lat="45.075547123954706" lon="8.973678911955629"><ele>67.0</ele><time>2026-04-03T15:57:44Z</time></trkpt><trkpt lat="45.07584693158245" lon="8.973785456900464"><ele>67.5</ele><time>2026-04-03T15:57:45Z</time></trkpt><trkpt lat="45.07614930370945" lon="8.973872692405745"><ele>68.0</ele><time>2026-04-03T15:57:46Z</time></trkpt><trkpt lat="45.076453964903806" lon="8.973933708601583"><ele>68.5</ele><time>2026-04-03T15:57:47Z</time></trkpt><trkpt lat="45.07675645539238" lon="8.973977123371439"><ele>69.0</ele><time>2026-04-03T15:57:48Z</time></trkpt><trkpt lat="45.07706197063874" lon="8.974012926905415"><ele>69.0</ele><time>2026-04-03T15:57:49Z</time></trkpt><trkpt lat="45.07736204468485" lon="8.974034778392648"><ele>69.0</ele><time>2026-04-03T15:57:50Z</time></trkpt><trkpt lat="45.07766567574358" lon="8.974041738026083"><ele>69.0</ele><time>2026-04-03T15:57:51Z</time></trkpt><trkpt lat="45.07796895196374" lon="8.974030344317447"><ele>69.0</ele><time>2026-04-03T15:57:52Z</time></trkpt><trkpt lat="45.07826904760855" lon="8.97400405296629"><ele>69.5</ele><time>2026-04-03T15:57:53Z</time></trkpt><trkpt lat="45.07856740795455" lon="8.973962427830308"><ele>70.0</ele><time>2026-04-03T15:57:54Z</time></trkpt><trkpt lat="45.07886192453924" lon="8.973906373377316"><ele>70.0</ele><time>2026-04-03T15:57:54.999Z</time></trkpt><trkpt lat="45.07915588714772" lon="8.973835225962109"><ele>70.0</ele><time>2026-04-03T15:57:55.999Z</time></trkpt><trkpt lat="45.079445788193055" lon="8.973752354591769"><ele>70.0</ele><time>2026-04-03T15:57:56.999Z</time></trkpt><trkpt lat="45.07973410041447" lon="8.973658836439522"><ele>70.0</ele><time>2026-04-03T15:57:57.999Z</time></trkpt><trkpt lat="45.08001773046686" lon="8.973557620517866"><ele>70.0</ele><time>2026-04-03T15:57:58.999Z</time></trkpt><trkpt lat="45.08029988647592" lon="8.973454226914118"><ele>70.0</ele><time>2026-04-03T15:57:59.999Z</time></trkpt><trkpt lat="45.08057926544626" lon="8.973346892690317"><ele>67.5</ele><time>2026-04-03T15:58:00.999Z</time></trkpt><trkpt lat="45.080860006121455" lon="8.973234297809684"><ele>65.0</ele><time>2026-04-03T15:58:01.999Z</time></trkpt><trkpt lat="45.08113674458967" lon="8.973118287638739"><ele>65.0</ele><time>2026-04-03T15:58:02.999Z</time></trkpt><trkpt lat="45.08141326770873" lon="8.973000576580942"><ele>65.0</ele><time>2026-04-03T15:58:03.999Z</time></trkpt><trkpt lat="45.08169161471358" lon="8.972882685790221"><ele>64.0</ele><time>2026-04-03T15:58:04.999Z</time></trkpt><trkpt lat="45.08196898912438" lon="8.972764624228894"><ele>63.0</ele><time>2026-04-03T15:58:05.999Z</time></trkpt><trkpt lat="45.08224984526279" lon="8.972647773530934"><ele>63.0</ele><time>2026-04-03T15:58:06.999Z</time></trkpt><trkpt lat="45.08252934551427" lon="8.972534724308082"><ele>63.0</ele><time>2026-04-03T15:58:07.999Z</time></trkpt><trkpt lat="45.08281175573569" lon="8.972417685991921"><ele>63.0</ele><time>2026-04-03T15:58:08.999Z</time></trkpt><trkpt lat="45.083092715499546" lon="8.972299212076557"><ele>63.0</ele><time>2026-04-03T15:58:09.999Z</time></trkpt><trkpt lat="45.083374005678" lon="8.972180658855725"><ele>62.5</ele><time>2026-04-03T15:58:10.999Z</time></trkpt><trkpt lat="45.08365681959812" lon="8.972064607148845"><ele>62.0</ele><time>2026-04-03T15:58:11.999Z</time></trkpt><trkpt lat="45.083939408444884" lon="8.971947552996648"><ele>61.5</ele><time>2026-04-03T15:58:12.999Z</time></trkpt><trkpt lat="45.08422152625331" lon="8.971828165762734"><ele>61.0</ele><time>2026-04-03T15:58:13.999Z</time></trkpt><trkpt lat="45.084503246934524" lon="8.971708124143957"><ele>62.5</ele><time>2026-04-03T15:58:14.999Z</time></trkpt><trkpt lat="45.08478621193209" lon="8.971590306815866"><ele>64.0</ele><time>2026-04-03T15:58:15.999Z</time></trkpt><trkpt lat="45.08507064858895" lon="8.971474089635226"><ele>65.5</ele><time>2026-04-03T15:58:17Z</time></trkpt><trkpt lat="45.08535772628729" lon="8.971363491054182"><ele>67.0</ele><time>2026-04-03T15:58:18Z</time></trkpt><trkpt lat="45.08564647955437" lon="8.971254594772562"><ele>65.5</ele><time>2026-04-03T15:58:19Z</time></trkpt><trkpt lat="45.08593496262137" lon="8.9711464774945"><ele>64.0</ele><time>2026-04-03T15:58:20Z</time></trkpt><trkpt lat="45.0862219641324" lon="8.971034333825312"><ele>64.0</ele><time>2026-04-03T15:58:21Z</time></trkpt><trkpt lat="45.08650852919609" lon="8.970916589566928"><ele>64.0</ele><time>2026-04-03T15:58:22Z</time></trkpt><trkpt lat="45.086792179648164" lon="8.970796628683436"><ele>66.0</ele><time>2026-04-03T15:58:23Z</time></trkpt><trkpt lat="45.08707609880139" lon="8.970677687098648"><ele>68.0</ele><time>2026-04-03T15:58:24Z</time></trkpt><trkpt lat="45.08735510873847" lon="8.970562022127524"><ele>67.5</ele><time>2026-04-03T15:58:25Z</time></trkpt><trkpt lat="45.08763669988919" lon="8.970445039967025"><ele>67.0</ele><time>2026-04-03T15:58:26Z</time></trkpt><trkpt lat="45.08791987323578" lon="8.970328374054647"><ele>67.0</ele><time>2026-04-03T15:58:27Z</time></trkpt><trkpt lat="45.08820382630331" lon="8.970213130242424"><ele>67.0</ele><time>2026-04-03T15:58:28Z</time></trkpt><trkpt lat="45.08848976073943" lon="8.9700966385278"><ele>69.0</ele><time>2026-04-03T15:58:29Z</time></trkpt><trkpt lat="45.08877598529912" lon="8.96998051050091"><ele>71.0</ele><time>2026-04-03T15:58:30Z</time></trkpt><trkpt lat="45.089062202935764" lon="8.969861695323349"><ele>69.5</ele><time>2026-04-03T15:58:31Z</time></trkpt><trkpt lat="45.08934958389031" lon="8.969740876946112"><ele>68.0</ele><time>2026-04-03T15:58:32Z</time></trkpt><trkpt lat="45.08963414380368" lon="8.969623593147048"><ele>68.0</ele><time>2026-04-03T15:58:33Z</time></trkpt><trkpt lat="45.089921309663254" lon="8.969507305899455"><ele>68.0</ele><time>2026-04-03T15:58:34Z</time></trkpt><trkpt lat="45.09020737160038" lon="8.969394915080189"><ele>68.0</ele><time>2026-04-03T15:58:35Z</time></trkpt><trkpt lat="45.09049507136866" lon="8.969288071938228"><ele>68.0</ele><time>2026-04-03T15:58:36Z</time></trkpt><trkpt lat="45.09078447499459" lon="8.96918813676592"><ele>68.0</ele><time>2026-04-03T15:58:37Z</time></trkpt><trkpt lat="45.09107445975083" lon="8.969094122715715"><ele>68.0</ele><time>2026-04-03T15:58:38Z</time></trkpt><trkpt lat="45.09136519285708" lon="8.969006793923858"><ele>68.5</ele><time>2026-04-03T15:58:39Z</time></trkpt><trkpt lat="45.091658127042095" lon="8.968928117166122"><ele>69.0</ele><time>2026-04-03T15:58:40Z</time></trkpt><trkpt lat="45.091950607097" lon="8.96886536734186"><ele>69.0</ele><time>2026-04-03T15:58:41Z</time></trkpt><trkpt lat="45.09224401189572" lon="8.96881552755677"><ele>69.0</ele><time>2026-04-03T15:58:42Z</time></trkpt><trkpt lat="45.092536880037585" lon="8.968771670063427"><ele>68.5</ele><time>2026-04-03T15:58:43Z</time></trkpt><trkpt lat="45.09283069095587" lon="8.968735154205254"><ele>68.0</ele><time>2026-04-03T15:58:44Z</time></trkpt><trkpt lat="45.0931206900133" lon="8.96870840897568"><ele>67.0</ele><time>2026-04-03T15:58:45Z</time></trkpt><trkpt lat="45.093413364378144" lon="8.968689278779877"><ele>66.0</ele><time>2026-04-03T15:58:46Z</time></trkpt><trkpt lat="45.09370768302528" lon="8.968681445404313"><ele>66.0</ele><time>2026-04-03T15:58:47Z</time></trkpt><trkpt lat="45.094000930023114" lon="8.968684310839077"><ele>66.0</ele><time>2026-04-03T15:58:48Z</time></trkpt><trkpt lat="45.094293690868696" lon="8.968695713158418"><ele>66.0</ele><time>2026-04-03T15:58:49Z</time></trkpt><trkpt lat="45.094587683745594" lon="8.968713461710147"><ele>66.0</ele><time>2026-04-03T15:58:50Z</time></trkpt><trkpt lat="45.094881867407736" lon="8.968739246133664"><ele>66.5</ele><time>2026-04-03T15:58:51Z</time></trkpt><trkpt lat="45.095174971898345" lon="8.968770324871862"><ele>67.0</ele><time>2026-04-03T15:58:52Z</time></trkpt><trkpt lat="45.09546804439101" lon="8.96880819843423"><ele>66.5</ele><time>2026-04-03T15:58:53Z</time></trkpt><trkpt lat="45.09576115228429" lon="8.968853411087533"><ele>66.0</ele><time>2026-04-03T15:58:54Z</time></trkpt><trkpt lat="45.09605191743512" lon="8.96891000738479"><ele>66.0</ele><time>2026-04-03T15:58:55Z</time></trkpt><trkpt lat="45.09634280192109" lon="8.968980506215916"><ele>66.0</ele><time>2026-04-03T15:58:56Z</time></trkpt><trkpt lat="45.09663242412131" lon="8.969057115007164"><ele>66.5</ele><time>2026-04-03T15:58:57Z</time></trkpt><trkpt lat="45.09692197250724" lon="8.969148661169914"><ele>67.0</ele><time>2026-04-03T15:58:58Z</time></trkpt><trkpt lat="45.09720555760161" lon="8.969247572006322"><ele>66.5</ele><time>2026-04-03T15:58:59Z</time></trkpt><trkpt lat="45.09748908230419" lon="8.969351019123936"><ele>66.0</ele><time>2026-04-03T15:59:00Z</time></trkpt><trkpt lat="45.097771416924566" lon="8.969461838040537"><ele>66.0</ele><time>2026-04-03T15:59:01Z</time></trkpt><trkpt lat="45.09805028156521" lon="8.969578633101452"><ele>66.0</ele><time>2026-04-03T15:59:02Z</time></trkpt><trkpt lat="45.098326016654696" lon="8.969702952264795"><ele>66.0</ele><time>2026-04-03T15:59:03Z</time></trkpt><trkpt lat="45.0986049710263" lon="8.969831923886236"><ele>66.0</ele><time>2026-04-03T15:59:04Z</time></trkpt><trkpt lat="45.09888347604224" lon="8.969957407077839"><ele>65.5</ele><time>2026-04-03T15:59:05Z</time></trkpt><trkpt lat="45.09916253937444" lon="8.970082198184578"><ele>65.0</ele><time>2026-04-03T15:59:06Z</time></trkpt><trkpt lat="45.09944221592557" lon="8.970207142066538"><ele>65.0</ele><time>2026-04-03T15:59:07Z</time></trkpt><trkpt lat="45.09972165645828" lon="8.970332371183087"><ele>65.0</ele><time>2026-04-03T15:59:08Z</time></trkpt><trkpt lat="45.10000340878146" lon="8.970457458470321"><ele>65.5</ele><time>2026-04-03T15:59:09Z</time></trkpt><trkpt lat="45.10028392256106" lon="8.97058103735773"><ele>66.0</ele><time>2026-04-03T15:59:10Z</time></trkpt><trkpt lat="45.10056704988691" lon="8.97070361541452"><ele>66.0</ele><time>2026-04-03T15:59:11Z</time></trkpt><trkpt lat="45.10085039932831" lon="8.970826707947277"><ele>66.0</ele><time>2026-04-03T15:59:12Z</time></trkpt><trkpt lat="45.10113394193182" lon="8.970951805508948"><ele>66.0</ele><time>2026-04-03T15:59:13Z</time></trkpt><trkpt lat="45.101419307574965" lon="8.971078550470788"><ele>66.0</ele><time>2026-04-03T15:59:14Z</time></trkpt><trkpt lat="45.101702631398055" lon="8.971205766869286"><ele>66.0</ele><time>2026-04-03T15:59:15Z</time></trkpt><trkpt lat="45.10198917792961" lon="8.971331511618883"><ele>66.0</ele><time>2026-04-03T15:59:16Z</time></trkpt><trkpt lat="45.102275193345136" lon="8.971454107216436"><ele>66.0</ele><time>2026-04-03T15:59:17Z</time></trkpt><trkpt lat="45.102562988234254" lon="8.971576642715245"><ele>66.0</ele><time>2026-04-03T15:59:18Z</time></trkpt><trkpt lat="45.10285045211625" lon="8.971700833992355"><ele>66.5</ele><time>2026-04-03T15:59:19Z</time></trkpt><trkpt lat="45.10313817675717" lon="8.971824583332854"><ele>67.0</ele><time>2026-04-03T15:59:20Z</time></trkpt><trkpt lat="45.103427095883404" lon="8.971950176749157"><ele>67.5</ele><time>2026-04-03T15:59:21Z</time></trkpt><trkpt lat="45.1037163905742" lon="8.97207667619818"><ele>68.0</ele><time>2026-04-03T15:59:22Z</time></trkpt><trkpt lat="45.10400361712815" lon="8.972203029580317"><ele>66.5</ele><time>2026-04-03T15:59:23Z</time></trkpt><trkpt lat="45.104294619335384" lon="8.972327976541875"><ele>65.0</ele><time>2026-04-03T15:59:24Z</time></trkpt><trkpt lat="45.10458313793537" lon="8.972452359075636"><ele>65.5</ele><time>2026-04-03T15:59:25Z</time></trkpt><trkpt lat="45.10487160824894" lon="8.972575722032408"><ele>66.0</ele><time>2026-04-03T15:59:26Z</time></trkpt><trkpt lat="45.105160656606095" lon="8.972701916659025"><ele>66.0</ele><time>2026-04-03T15:59:27Z</time></trkpt><trkpt lat="45.10544982963095" lon="8.97282959457323"><ele>66.0</ele><time>2026-04-03T15:59:28Z</time></trkpt><trkpt lat="45.105738140639055" lon="8.972957216417726"><ele>65.5</ele><time>2026-04-03T15:59:29Z</time></trkpt><trkpt lat="45.10602924838471" lon="8.973084469902053"><ele>65.0</ele><time>2026-04-03T15:59:30Z</time></trkpt><trkpt lat="45.10632020057991" lon="8.973213865693001"><ele>65.0</ele><time>2026-04-03T15:59:31Z</time></trkpt><trkpt lat="45.10661206234858" lon="8.973342832903729"><ele>65.0</ele><time>2026-04-03T15:59:32Z</time></trkpt><trkpt lat="45.106902831552325" lon="8.9734717751883"><ele>65.0</ele><time>2026-04-03T15:59:33Z</time></trkpt><trkpt lat="45.10719589734322" lon="8.973600691652802"><ele>65.0</ele><time>2026-04-03T15:59:34Z</time></trkpt><trkpt lat="45.107489629261394" lon="8.973729223357243"><ele>65.0</ele><time>2026-04-03T15:59:35Z</time></trkpt><trkpt lat="45.10778370316592" lon="8.973858722755327"><ele>65.0</ele><time>2026-04-03T15:59:36Z</time></trkpt><trkpt lat="45.10807540205728" lon="8.973990719467357"><ele>65.0</ele><time>2026-04-03T15:59:37Z</time></trkpt><trkpt lat="45.1083687126438" lon="8.974121557680903"><ele>65.0</ele><time>2026-04-03T15:59:38Z</time></trkpt><trkpt lat="45.10866210111263" lon="8.974251417063899"><ele>65.0</ele><time>2026-04-03T15:59:39Z</time></trkpt><trkpt lat="45.10895619282921" lon="8.974379512580649"><ele>65.0</ele><time>2026-04-03T15:59:40Z</time></trkpt><trkpt lat="45.10924683468532" lon="8.974505410277711"><ele>65.5</ele><time>2026-04-03T15:59:41Z</time></trkpt><trkpt lat="45.10953759546086" lon="8.974630963222905"><ele>66.0</ele><time>2026-04-03T15:59:42Z</time></trkpt><trkpt lat="45.10982821749147" lon="8.974757002725427"><ele>67.0</ele><time>2026-04-03T15:59:43Z</time></trkpt><trkpt lat="45.11011861200885" lon="8.974883346374172"><ele>68.0</ele><time>2026-04-03T15:59:44Z</time></trkpt><trkpt lat="45.110407995682465" lon="8.975007909272668"><ele>69.0</ele><time>2026-04-03T15:59:45Z</time></trkpt><trkpt lat="45.110696860923085" lon="8.97513181995919"><ele>70.0</ele><time>2026-04-03T15:59:46Z</time></trkpt><trkpt lat="45.11098561997353" lon="8.97525415778906"><ele>71.0</ele><time>2026-04-03T15:59:47Z</time></trkpt><trkpt lat="45.11127519068035" lon="8.975368557999442"><ele>72.0</ele><time>2026-04-03T15:59:48Z</time></trkpt><trkpt lat="45.11156681639183" lon="8.975474141601323"><ele>70.5</ele><time>2026-04-03T15:59:49Z</time></trkpt><trkpt lat="45.11186002300875" lon="8.975568278561491"><ele>69.0</ele><time>2026-04-03T15:59:50Z</time></trkpt><trkpt lat="45.11215317748611" lon="8.975654255119274"><ele>68.5</ele><time>2026-04-03T15:59:51Z</time></trkpt><trkpt lat="45.112446214473124" lon="8.975727602185973"><ele>68.0</ele><time>2026-04-03T15:59:52Z</time></trkpt><trkpt lat="45.112739464008165" lon="8.975797131960352"><ele>67.5</ele><time>2026-04-03T15:59:52.999Z</time></trkpt><trkpt lat="45.11303519113652" lon="8.975858433128456"><ele>67.0</ele><time>2026-04-03T15:59:53.999Z</time></trkpt><trkpt lat="45.1133291892087" lon="8.975917564270398"><ele>67.0</ele><time>2026-04-03T15:59:54.999Z</time></trkpt><trkpt lat="45.11362053537558" lon="8.975974755520223"><ele>67.0</ele><time>2026-04-03T15:59:55.999Z</time></trkpt><trkpt lat="45.11391175742973" lon="8.9760298512784"><ele>69.0</ele><time>2026-04-03T15:59:56.999Z</time></trkpt><trkpt lat="45.11420158520939" lon="8.97608474426696"><ele>71.0</ele><time>2026-04-03T15:59:57.999Z</time></trkpt><trkpt lat="45.114491924383564" lon="8.97613921270686"><ele>71.0</ele><time>2026-04-03T15:59:58.999Z</time></trkpt><trkpt lat="45.11478124674805" lon="8.976195002692197"><ele>71.0</ele><time>2026-04-03T15:59:59.999Z</time></trkpt><trkpt lat="45.11507198615008" lon="8.97624924950836"><ele>73.5</ele><time>2026-04-03T16:00:00.999Z</time></trkpt><trkpt lat="45.1153628597785" lon="8.97630375097431"><ele>76.0</ele><time>2026-04-03T16:00:01.999Z</time></trkpt><trkpt lat="45.11565418647648" lon="8.976356731388664"><ele>76.5</ele><time>2026-04-03T16:00:02.999Z</time></trkpt><trkpt lat="45.115944616570175" lon="8.976409875388562"><ele>77.0</ele><time>2026-04-03T16:00:03.999Z</time></trkpt><trkpt lat="45.11623633071303" lon="8.976463013721943"><ele>77.0</ele><time>2026-04-03T16:00:04.999Z</time></trkpt><trkpt lat="45.11652924880434" lon="8.976516830897195"><ele>77.0</ele><time>2026-04-03T16:00:05.999Z</time></trkpt><trkpt lat="45.11682147948368" lon="8.97657194662006"><ele>76.5</ele><time>2026-04-03T16:00:06.999Z</time></trkpt><trkpt lat="45.11710973416555" lon="8.976628721769194"><ele>76.0</ele><time>2026-04-03T16:00:07.999Z</time></trkpt><trkpt lat="45.1174008458216" lon="8.976683298317734"><ele>77.5</ele><time>2026-04-03T16:00:08.999Z</time></trkpt><trkpt lat="45.11769208161614" lon="8.976736756261456"><ele>79.0</ele><time>2026-04-03T16:00:09.999Z</time></trkpt><trkpt lat="45.1179836703945" lon="8.976786447662686"><ele>79.0</ele><time>2026-04-03T16:00:10.999Z</time></trkpt><trkpt lat="45.118279318331574" lon="8.976840498290077"><ele>79.0</ele><time>2026-04-03T16:00:11.999Z</time></trkpt><trkpt lat="45.11857196358482" lon="8.976891826660093"><ele>79.0</ele><time>2026-04-03T16:00:12.999Z</time></trkpt><trkpt lat="45.11886715510908" lon="8.97694304052753"><ele>79.0</ele><time>2026-04-03T16:00:13.999Z</time></trkpt><trkpt lat="45.119161444306314" lon="8.976997496715494"><ele>77.0</ele><time>2026-04-03T16:00:14.999Z</time></trkpt><trkpt lat="45.11945822373585" lon="8.97705210807139"><ele>75.0</ele><time>2026-04-03T16:00:15.999Z</time></trkpt><trkpt lat="45.119755621572324" lon="8.977109060676012"><ele>73.5</ele><time>2026-04-03T16:00:16.999Z</time></trkpt><trkpt lat="45.120052628246846" lon="8.977164747447938"><ele>72.0</ele><time>2026-04-03T16:00:17.999Z</time></trkpt><trkpt lat="45.12034968997925" lon="8.977221687444752"><ele>72.0</ele><time>2026-04-03T16:00:18.999Z</time></trkpt><trkpt lat="45.120648510689726" lon="8.97727779268016"><ele>72.0</ele><time>2026-04-03T16:00:19.999Z</time></trkpt><trkpt lat="45.12094537998704" lon="8.97733293527583"><ele>71.5</ele><time>2026-04-03T16:00:20.999Z</time></trkpt><trkpt lat="45.12124628746325" lon="8.977390066464867"><ele>71.0</ele><time>2026-04-03T16:00:21.999Z</time></trkpt><trkpt lat="45.12155040260377" lon="8.977448876212478"><ele>70.5</ele><time>2026-04-03T16:00:23Z</time></trkpt><trkpt lat="45.12185266237721" lon="8.977506182907337"><ele>70.0</ele><time>2026-04-03T16:00:24Z</time></trkpt><trkpt lat="45.12215858488332" lon="8.977561738214817"><ele>70.5</ele><time>2026-04-03T16:00:25Z</time></trkpt><trkpt lat="45.122461558472985" lon="8.977616476128068"><ele>71.0</ele><time>2026-04-03T16:00:26Z</time></trkpt><trkpt lat="45.122767183889806" lon="8.977670697470685"><ele>71.0</ele><time>2026-04-03T16:00:27Z</time></trkpt><trkpt lat="45.123072022632094" lon="8.977724910677404"><ele>71.0</ele><time>2026-04-03T16:00:28Z</time></trkpt><trkpt lat="45.12337943507917" lon="8.9777797628523"><ele>73.0</ele><time>2026-04-03T16:00:29Z</time></trkpt><trkpt lat="45.12368665020302" lon="8.977836384274868"><ele>75.0</ele><time>2026-04-03T16:00:30Z</time></trkpt><trkpt lat="45.12399390528199" lon="8.977894555765122"><ele>76.5</ele><time>2026-04-03T16:00:31Z</time></trkpt><trkpt lat="45.124300500106145" lon="8.977954729793032"><ele>78.0</ele><time>2026-04-03T16:00:32Z</time></trkpt><trkpt lat="45.12460704762225" lon="8.978013896380292"><ele>78.0</ele><time>2026-04-03T16:00:33Z</time></trkpt><trkpt lat="45.124914244129315" lon="8.97807373746789"><ele>78.0</ele><time>2026-04-03T16:00:34Z</time></trkpt><trkpt lat="45.1252191474946" lon="8.978136152639566"><ele>78.0</ele><time>2026-04-03T16:00:35Z</time></trkpt><trkpt lat="45.12552376016423" lon="8.978204247836251"><ele>78.0</ele><time>2026-04-03T16:00:36Z</time></trkpt><trkpt lat="45.1258255878419" lon="8.978286773499592"><ele>79.0</ele><time>2026-04-03T16:00:37Z</time></trkpt><trkpt lat="45.12612128501701" lon="8.978388416773479"><ele>80.0</ele><time>2026-04-03T16:00:38Z</time></trkpt><trkpt lat="45.12641652741443" lon="8.978502266028926"><ele>79.5</ele><time>2026-04-03T16:00:39Z</time></trkpt><trkpt lat="45.12671162754055" lon="8.97861272787207"><ele>79.0</ele><time>2026-04-03T16:00:40Z</time></trkpt><trkpt lat="45.12700278395056" lon="8.978736387519358"><ele>79.0</ele><time>2026-04-03T16:00:41Z</time></trkpt><trkpt lat="45.12728897295064" lon="8.978868181664701"><ele>79.0</ele><time>2026-04-03T16:00:42Z</time></trkpt><trkpt lat="45.12757692147977" lon="8.979014096558474"><ele>79.5</ele><time>2026-04-03T16:00:43Z</time></trkpt><trkpt lat="45.127858809363595" lon="8.979164138999652"><ele>80.0</ele><time>2026-04-03T16:00:44Z</time></trkpt><trkpt lat="45.128140610151966" lon="8.979321395971944"><ele>79.5</ele><time>2026-04-03T16:00:45Z</time></trkpt><trkpt lat="45.12841873190178" lon="8.979485472605338"><ele>79.0</ele><time>2026-04-03T16:00:46Z</time></trkpt><trkpt lat="45.128697082597576" lon="8.979653292543098"><ele>79.0</ele><time>2026-04-03T16:00:47Z</time></trkpt><trkpt lat="45.128974608106326" lon="8.979823340814518"><ele>79.0</ele><time>2026-04-03T16:00:48Z</time></trkpt><trkpt lat="45.12925089084986" lon="8.979994716219696"><ele>79.5</ele><time>2026-04-03T16:00:49Z</time></trkpt><trkpt lat="45.129528926768366" lon="8.980166154086705"><ele>80.0</ele><time>2026-04-03T16:00:50Z</time></trkpt><trkpt lat="45.12980380355573" lon="8.980335221909055"><ele>80.0</ele><time>2026-04-03T16:00:51Z</time></trkpt><trkpt lat="45.13007861543746" lon="8.980505708759543"><ele>80.0</ele><time>2026-04-03T16:00:52Z</time></trkpt><trkpt lat="45.13035324791198" lon="8.980675590746396"><ele>80.0</ele><time>2026-04-03T16:00:53Z</time></trkpt><trkpt lat="45.13062761946835" lon="8.980845805509045"><ele>80.0</ele><time>2026-04-03T16:00:54Z</time></trkpt><trkpt lat="45.13090224420568" lon="8.98101511957847"><ele>82.0</ele><time>2026-04-03T16:00:55Z</time></trkpt><trkpt lat="45.131176731251934" lon="8.981186426250657"><ele>84.0</ele><time>2026-04-03T16:00:56Z</time></trkpt><trkpt lat="45.13145093761249" lon="8.981361012004612"><ele>83.5</ele><time>2026-04-03T16:00:57Z</time></trkpt><trkpt lat="45.13172555274176" lon="8.981531795454606"><ele>83.0</ele><time>2026-04-03T16:00:58Z</time></trkpt><trkpt lat="45.132000320062744" lon="8.981699448709247"><ele>83.0</ele><time>2026-04-03T16:00:59Z</time></trkpt><trkpt lat="45.13227441035787" lon="8.981868424571426"><ele>83.0</ele><time>2026-04-03T16:01:00Z</time></trkpt><trkpt lat="45.13254810933585" lon="8.982034180791066"><ele>82.5</ele><time>2026-04-03T16:01:01Z</time></trkpt><trkpt lat="45.13281969861419" lon="8.982201582263556"><ele>82.0</ele><time>2026-04-03T16:01:02Z</time></trkpt><trkpt lat="45.13309430363601" lon="8.982367869050368"><ele>81.0</ele><time>2026-04-03T16:01:03Z</time></trkpt><trkpt lat="45.13336639390545" lon="8.982535613437555"><ele>80.0</ele><time>2026-04-03T16:01:04Z</time></trkpt><trkpt lat="45.133637640773166" lon="8.982705258863124"><ele>80.0</ele><time>2026-04-03T16:01:05Z</time></trkpt><trkpt lat="45.133910081687205" lon="8.982878628863517"><ele>80.0</ele><time>2026-04-03T16:01:06Z</time></trkpt><trkpt lat="45.13418318554694" lon="8.98304951888706"><ele>80.5</ele><time>2026-04-03T16:01:07Z</time></trkpt><trkpt lat="45.13445474331878" lon="8.98321677936883"><ele>81.0</ele><time>2026-04-03T16:01:08Z</time></trkpt><trkpt lat="45.13472840465018" lon="8.983384701355568"><ele>82.0</ele><time>2026-04-03T16:01:09Z</time></trkpt><trkpt lat="45.13500181881195" lon="8.983552195458564"><ele>83.0</ele><time>2026-04-03T16:01:10Z</time></trkpt><trkpt lat="45.13527491919456" lon="8.983720099260504"><ele>83.0</ele><time>2026-04-03T16:01:11Z</time></trkpt><trkpt lat="45.1355464626934" lon="8.983885989800797"><ele>83.0</ele><time>2026-04-03T16:01:12Z</time></trkpt><trkpt lat="45.13581879249345" lon="8.984053529604237"><ele>82.5</ele><time>2026-04-03T16:01:13Z</time></trkpt><trkpt lat="45.13608832252832" lon="8.984222682247868"><ele>82.0</ele><time>2026-04-03T16:01:14Z</time></trkpt><trkpt lat="45.13636078080341" lon="8.984392295713258"><ele>82.0</ele><time>2026-04-03T16:01:15Z</time></trkpt><trkpt lat="45.13663328341131" lon="8.984560918227956"><ele>82.0</ele><time>2026-04-03T16:01:16Z</time></trkpt><trkpt lat="45.136904940353986" lon="8.984728824979591"><ele>82.0</ele><time>2026-04-03T16:01:17Z</time></trkpt><trkpt lat="45.1371759897425" lon="8.984900295196494"><ele>82.0</ele><time>2026-04-03T16:01:18Z</time></trkpt><trkpt lat="45.13744548760823" lon="8.985065686471684"><ele>83.0</ele><time>2026-04-03T16:01:19Z</time></trkpt><trkpt lat="45.13771506114718" lon="8.985230796076987"><ele>84.0</ele><time>2026-04-03T16:01:20Z</time></trkpt><trkpt lat="45.13798481018834" lon="8.985397152245666"><ele>83.5</ele><time>2026-04-03T16:01:21Z</time></trkpt><trkpt lat="45.138257021612546" lon="8.98555861778183"><ele>83.0</ele><time>2026-04-03T16:01:22Z</time></trkpt><trkpt lat="45.138526290969544" lon="8.985725126655293"><ele>83.0</ele><time>2026-04-03T16:01:23Z</time></trkpt><trkpt lat="45.138796679280155" lon="8.98589066954409"><ele>83.0</ele><time>2026-04-03T16:01:24Z</time></trkpt><trkpt lat="45.139067667169556" lon="8.986056115755433"><ele>83.0</ele><time>2026-04-03T16:01:25Z</time></trkpt><trkpt lat="45.13933679818694" lon="8.98621978557282"><ele>83.0</ele><time>2026-04-03T16:01:26Z</time></trkpt><trkpt lat="45.13960776018679" lon="8.986388759843933"><ele>83.0</ele><time>2026-04-03T16:01:27Z</time></trkpt><trkpt lat="45.13987905968378" lon="8.986555967132466"><ele>83.0</ele><time>2026-04-03T16:01:28Z</time></trkpt><trkpt lat="45.140150680345684" lon="8.986722778789023"><ele>83.0</ele><time>2026-04-03T16:01:29Z</time></trkpt><trkpt lat="45.140423271913285" lon="8.986892289590568"><ele>83.0</ele><time>2026-04-03T16:01:30Z</time></trkpt><trkpt lat="45.140695239658776" lon="8.987059974679397"><ele>83.0</ele><time>2026-04-03T16:01:31Z</time></trkpt><trkpt lat="45.140967839329896" lon="8.98722499240622"><ele>83.0</ele><time>2026-04-03T16:01:32Z</time></trkpt><trkpt lat="45.14124290403025" lon="8.987391927538752"><ele>82.5</ele><time>2026-04-03T16:01:33Z</time></trkpt><trkpt lat="45.14151586814702" lon="8.98755904446887"><ele>82.0</ele><time>2026-04-03T16:01:34Z</time></trkpt><trkpt lat="45.141788566768334" lon="8.98772818610663"><ele>83.0</ele><time>2026-04-03T16:01:35Z</time></trkpt><trkpt lat="45.14206250494518" lon="8.98790028482599"><ele>84.0</ele><time>2026-04-03T16:01:36Z</time></trkpt><trkpt lat="45.14233557494644" lon="8.98806858169823"><ele>84.5</ele><time>2026-04-03T16:01:37Z</time></trkpt><trkpt lat="45.142608484030355" lon="8.98824051576044"><ele>85.0</ele><time>2026-04-03T16:01:38Z</time></trkpt><trkpt lat="45.14288168157137" lon="8.988407849833822"><ele>85.0</ele><time>2026-04-03T16:01:39Z</time></trkpt><trkpt lat="45.14315649873909" lon="8.98857647835216"><ele>85.0</ele><time>2026-04-03T16:01:40Z</time></trkpt><trkpt lat="45.14343060230497" lon="8.988743801650557"><ele>84.5</ele><time>2026-04-03T16:01:41Z</time></trkpt><trkpt lat="45.14370292542095" lon="8.988912447492426"><ele>84.0</ele><time>2026-04-03T16:01:42Z</time></trkpt><trkpt lat="45.143973043310105" lon="8.989079142754443"><ele>82.5</ele><time>2026-04-03T16:01:43Z</time></trkpt><trkpt lat="45.144242852766936" lon="8.989247398945782"><ele>81.0</ele><time>2026-04-03T16:01:44Z</time></trkpt><trkpt lat="45.144511559718765" lon="8.989414595741653"><ele>81.0</ele><time>2026-04-03T16:01:45Z</time></trkpt><trkpt lat="45.14478133197796" lon="8.98958326262783"><ele>81.0</ele><time>2026-04-03T16:01:46Z</time></trkpt><trkpt lat="45.14505084897404" lon="8.989751793459973"><ele>81.5</ele><time>2026-04-03T16:01:47Z</time></trkpt><trkpt lat="45.14532170063269" lon="8.98991954196038"><ele>82.0</ele><time>2026-04-03T16:01:48Z</time></trkpt><trkpt lat="45.14559142828897" lon="8.990086497946944"><ele>83.5</ele><time>2026-04-03T16:01:49Z</time></trkpt><trkpt lat="45.14586240398582" lon="8.99025907594123"><ele>85.0</ele><time>2026-04-03T16:01:50Z</time></trkpt><trkpt lat="45.146131879200766" lon="8.990425510817348"><ele>85.0</ele><time>2026-04-03T16:01:51Z</time></trkpt><trkpt lat="45.14640024032752" lon="8.990595216625952"><ele>85.0</ele><time>2026-04-03T16:01:52Z</time></trkpt><trkpt lat="45.146671790544076" lon="8.990763643342989"><ele>86.5</ele><time>2026-04-03T16:01:52.999Z</time></trkpt><trkpt lat="45.14694379800713" lon="8.990927302376887"><ele>88.0</ele><time>2026-04-03T16:01:53.999Z</time></trkpt><trkpt lat="45.147216857737725" lon="8.991093632459487"><ele>88.5</ele><time>2026-04-03T16:01:54.999Z</time></trkpt><trkpt lat="45.14748964071085" lon="8.991258700963979"><ele>89.0</ele><time>2026-04-03T16:01:55.999Z</time></trkpt><trkpt lat="45.14776145690099" lon="8.991423931499012"><ele>89.0</ele><time>2026-04-03T16:01:56.999Z</time></trkpt><trkpt lat="45.14803394560913" lon="8.991592923250794"><ele>89.0</ele><time>2026-04-03T16:01:57.999Z</time></trkpt><trkpt lat="45.14830227027335" lon="8.991761535446091"><ele>88.0</ele><time>2026-04-03T16:01:58.999Z</time></trkpt><trkpt lat="45.14857286715918" lon="8.991924799018296"><ele>87.0</ele><time>2026-04-03T16:01:59.999Z</time></trkpt><trkpt lat="45.14884352883754" lon="8.992091381400895"><ele>87.0</ele><time>2026-04-03T16:02:00.999Z</time></trkpt><trkpt lat="45.14911408077781" lon="8.99225977645888"><ele>87.0</ele><time>2026-04-03T16:02:01.999Z</time></trkpt><trkpt lat="45.14938442769404" lon="8.992426752366994"><ele>87.0</ele><time>2026-04-03T16:02:02.999Z</time></trkpt><trkpt lat="45.149655325256184" lon="8.992589265709162"><ele>87.0</ele><time>2026-04-03T16:02:03.999Z</time></trkpt><trkpt lat="45.149927360301184" lon="8.992748487196556"><ele>87.0</ele><time>2026-04-03T16:02:04.999Z</time></trkpt><trkpt lat="45.150203640340095" lon="8.992901231363557"><ele>87.0</ele><time>2026-04-03T16:02:05.999Z</time></trkpt><trkpt lat="45.15048134517746" lon="8.993044768287005"><ele>86.5</ele><time>2026-04-03T16:02:06.999Z</time></trkpt><trkpt lat="45.150761541720485" lon="8.993185002511616"><ele>86.0</ele><time>2026-04-03T16:02:07.999Z</time></trkpt><trkpt lat="45.15104345526805" lon="8.99332508955065"><ele>85.5</ele><time>2026-04-03T16:02:08.999Z</time></trkpt><trkpt lat="45.151325806481644" lon="8.993463562439073"><ele>85.0</ele><time>2026-04-03T16:02:09.999Z</time></trkpt><trkpt lat="45.151608297197214" lon="8.993598549668372"><ele>84.0</ele><time>2026-04-03T16:02:10.999Z</time></trkpt><trkpt lat="45.151892847412334" lon="8.993736068248163"><ele>83.0</ele><time>2026-04-03T16:02:11.999Z</time></trkpt><trkpt lat="45.15217507945635" lon="8.993871454479248"><ele>83.5</ele><time>2026-04-03T16:02:12.999Z</time></trkpt><trkpt lat="45.152458675772706" lon="8.99400835398582"><ele>84.0</ele><time>2026-04-03T16:02:13.999Z</time></trkpt><trkpt lat="45.15274136676548" lon="8.994145147581259"><ele>84.0</ele><time>2026-04-03T16:02:14.999Z</time></trkpt><trkpt lat="45.15302319537753" lon="8.994283622191098"><ele>84.0</ele><time>2026-04-03T16:02:15.999Z</time></trkpt><trkpt lat="45.15330505564753" lon="8.99442003761498"><ele>84.0</ele><time>2026-04-03T16:02:16.999Z</time></trkpt><trkpt lat="45.15358832712811" lon="8.994554725761983"><ele>84.0</ele><time>2026-04-03T16:02:17.999Z</time></trkpt><trkpt lat="45.15387173584849" lon="8.994686066903604"><ele>84.5</ele><time>2026-04-03T16:02:18.999Z</time></trkpt><trkpt lat="45.15415512121281" lon="8.994822140909397"><ele>85.0</ele><time>2026-04-03T16:02:19.999Z</time></trkpt><trkpt lat="45.154437954233074" lon="8.994958727640265"><ele>85.0</ele><time>2026-04-03T16:02:20.999Z</time></trkpt><trkpt lat="45.15472237074993" lon="8.995097454351232"><ele>85.0</ele><time>2026-04-03T16:02:21.999Z</time></trkpt><trkpt lat="45.15500641297403" lon="8.995235608619328"><ele>84.5</ele><time>2026-04-03T16:02:22.999Z</time></trkpt><trkpt lat="45.15529315208353" lon="8.995373862548547"><ele>84.0</ele><time>2026-04-03T16:02:23.999Z</time></trkpt><trkpt lat="45.15557741921566" lon="8.995513678110052"><ele>85.5</ele><time>2026-04-03T16:02:24.999Z</time></trkpt><trkpt lat="45.15586343256528" lon="8.995651501713764"><ele>87.0</ele><time>2026-04-03T16:02:25.999Z</time></trkpt><trkpt lat="45.15615037112845" lon="8.995792380799934"><ele>86.5</ele><time>2026-04-03T16:02:26.999Z</time></trkpt><trkpt lat="45.15643772311361" lon="8.995931145315632"><ele>86.0</ele><time>2026-04-03T16:02:27.999Z</time></trkpt><trkpt lat="45.15672610796714" lon="8.996069015324409"><ele>87.5</ele><time>2026-04-03T16:02:29Z</time></trkpt><trkpt lat="45.157012225084415" lon="8.996205211947162"><ele>89.0</ele><time>2026-04-03T16:02:30Z</time></trkpt><trkpt lat="45.15729824873368" lon="8.996341720334655"><ele>88.5</ele><time>2026-04-03T16:02:31Z</time></trkpt><trkpt lat="45.15758512247541" lon="8.996478816564817"><ele>88.0</ele><time>2026-04-03T16:02:32Z</time></trkpt><trkpt lat="45.15786593728768" lon="8.996612520503646"><ele>87.5</ele><time>2026-04-03T16:02:33Z</time></trkpt><trkpt lat="45.15815202383033" lon="8.996750697535761"><ele>87.0</ele><time>2026-04-03T16:02:34Z</time></trkpt><trkpt lat="45.15843560333062" lon="8.99688995477023"><ele>87.0</ele><time>2026-04-03T16:02:35Z</time></trkpt><trkpt lat="45.15871930881673" lon="8.997032161904734"><ele>87.0</ele><time>2026-04-03T16:02:36Z</time></trkpt><trkpt lat="45.159002856369916" lon="8.997174461822716"><ele>86.5</ele><time>2026-04-03T16:02:37Z</time></trkpt><trkpt lat="45.15928857865472" lon="8.99731640645275"><ele>86.0</ele><time>2026-04-03T16:02:38Z</time></trkpt><trkpt lat="45.159572397672704" lon="8.997454835965248"><ele>86.5</ele><time>2026-04-03T16:02:39Z</time></trkpt><trkpt lat="45.1598574522997" lon="8.997591106159945"><ele>87.0</ele><time>2026-04-03T16:02:40Z</time></trkpt><trkpt lat="45.16014108638003" lon="8.997727929297353"><ele>87.0</ele><time>2026-04-03T16:02:41Z</time></trkpt><trkpt lat="45.160425473374666" lon="8.997861778796084"><ele>87.0</ele><time>2026-04-03T16:02:42Z</time></trkpt><trkpt lat="45.160708619866035" lon="8.997994996267979"><ele>87.0</ele><time>2026-04-03T16:02:43Z</time></trkpt><trkpt lat="45.1609915891692" lon="8.998126878123097"><ele>87.0</ele><time>2026-04-03T16:02:44Z</time></trkpt><trkpt lat="45.16127339288981" lon="8.998259439383574"><ele>86.5</ele><time>2026-04-03T16:02:45Z</time></trkpt><trkpt lat="45.16155330573772" lon="8.99839361907365"><ele>86.0</ele><time>2026-04-03T16:02:46Z</time></trkpt><trkpt lat="45.161829839561406" lon="8.998529787966957"><ele>86.0</ele><time>2026-04-03T16:02:47Z</time></trkpt><trkpt lat="45.16210691749109" lon="8.998667943903943"><ele>86.0</ele><time>2026-04-03T16:02:48Z</time></trkpt><trkpt lat="45.16238422193175" lon="8.998804083848704"><ele>85.5</ele><time>2026-04-03T16:02:49Z</time></trkpt><trkpt lat="45.16266090965208" lon="8.998937545941484"><ele>85.0</ele><time>2026-04-03T16:02:50Z</time></trkpt><trkpt lat="45.162936344944804" lon="8.999070747546577"><ele>84.5</ele><time>2026-04-03T16:02:51Z</time></trkpt><trkpt lat="45.16321111508556" lon="8.999201528803303"><ele>84.0</ele><time>2026-04-03T16:02:52Z</time></trkpt><trkpt lat="45.163485212541204" lon="8.999334346839111"><ele>84.0</ele><time>2026-04-03T16:02:53Z</time></trkpt><trkpt lat="45.16375584830163" lon="8.999468647922104"><ele>84.0</ele><time>2026-04-03T16:02:54Z</time></trkpt><trkpt lat="45.164028381603735" lon="8.999602421308285"><ele>85.0</ele><time>2026-04-03T16:02:55Z</time></trkpt><trkpt lat="45.16430117971441" lon="8.999736636374443"><ele>86.0</ele><time>2026-04-03T16:02:56Z</time></trkpt><trkpt lat="45.16457285209682" lon="8.999866727597505"><ele>86.0</ele><time>2026-04-03T16:02:57Z</time></trkpt><trkpt lat="45.16484436845628" lon="8.99999701523919"><ele>86.0</ele><time>2026-04-03T16:02:58Z</time></trkpt><trkpt lat="45.165114679845104" lon="9.000126273654741"><ele>86.5</ele><time>2026-04-03T16:02:59Z</time></trkpt><trkpt lat="45.16538635516" lon="9.000253440264904"><ele>87.0</ele><time>2026-04-03T16:03:00Z</time></trkpt><trkpt lat="45.16565463923841" lon="9.00037979481593"><ele>86.5</ele><time>2026-04-03T16:03:01Z</time></trkpt><trkpt lat="45.16592093334208" lon="9.000508547088453"><ele>86.0</ele><time>2026-04-03T16:03:02Z</time></trkpt><trkpt lat="45.16618740267064" lon="9.000638625785244"><ele>86.0</ele><time>2026-04-03T16:03:03Z</time></trkpt><trkpt lat="45.16645148373894" lon="9.000766340629472"><ele>86.0</ele><time>2026-04-03T16:03:04Z</time></trkpt><trkpt lat="45.166718231558924" lon="9.000895211972322"><ele>86.0</ele><time>2026-04-03T16:03:05Z</time></trkpt><trkpt lat="45.16698059673069" lon="9.001022660428637"><ele>86.0</ele><time>2026-04-03T16:03:06Z</time></trkpt><trkpt lat="45.1672457697519" lon="9.001151367801873"><ele>85.5</ele><time>2026-04-03T16:03:07Z</time></trkpt><trkpt lat="45.167509288853765" lon="9.001279666795766"><ele>85.0</ele><time>2026-04-03T16:03:08Z</time></trkpt><trkpt lat="45.167773955508004" lon="9.001406900382323"><ele>85.0</ele><time>2026-04-03T16:03:09Z</time></trkpt><trkpt lat="45.16803973163356" lon="9.001536518249347"><ele>85.0</ele><time>2026-04-03T16:03:10Z</time></trkpt><trkpt lat="45.168304622120615" lon="9.001665423731124"><ele>85.5</ele><time>2026-04-03T16:03:11Z</time></trkpt><trkpt lat="45.16857006428058" lon="9.001794469595346"><ele>86.0</ele><time>2026-04-03T16:03:12Z</time></trkpt><trkpt lat="45.16883701571527" lon="9.001924270842677"><ele>85.5</ele><time>2026-04-03T16:03:13Z</time></trkpt><trkpt lat="45.16910332980847" lon="9.002052079753751"><ele>85.0</ele><time>2026-04-03T16:03:14Z</time></trkpt><trkpt lat="45.16937093438736" lon="9.002179648435497"><ele>85.0</ele><time>2026-04-03T16:03:15Z</time></trkpt><trkpt lat="45.169639526903325" lon="9.002307855308803"><ele>85.0</ele><time>2026-04-03T16:03:16Z</time></trkpt><trkpt lat="45.169908561698506" lon="9.002434430433912"><ele>85.0</ele><time>2026-04-03T16:03:17Z</time></trkpt><trkpt lat="45.170177481483236" lon="9.002559945566714"><ele>85.0</ele><time>2026-04-03T16:03:18Z</time></trkpt><trkpt lat="45.17044901988483" lon="9.002690796780639"><ele>85.5</ele><time>2026-04-03T16:03:19Z</time></trkpt><trkpt lat="45.17071967910914" lon="9.002821719533298"><ele>86.0</ele><time>2026-04-03T16:03:20Z</time></trkpt><trkpt lat="45.17099113415403" lon="9.00295454672057"><ele>86.0</ele><time>2026-04-03T16:03:21Z</time></trkpt><trkpt lat="45.17126358056987" lon="9.003087875681572"><ele>86.0</ele><time>2026-04-03T16:03:22Z</time></trkpt><trkpt lat="45.17153613558398" lon="9.003218758042417"><ele>86.5</ele><time>2026-04-03T16:03:23Z</time></trkpt><trkpt lat="45.17180962871324" lon="9.0033501085232"><ele>87.0</ele><time>2026-04-03T16:03:24Z</time></trkpt><trkpt lat="45.17208158369607" lon="9.003482092853499"><ele>87.0</ele><time>2026-04-03T16:03:25Z</time></trkpt><trkpt lat="45.17235444376644" lon="9.003615711691195"><ele>87.0</ele><time>2026-04-03T16:03:26Z</time></trkpt><trkpt lat="45.17262568247474" lon="9.003749838232645"><ele>86.5</ele><time>2026-04-03T16:03:27Z</time></trkpt><trkpt lat="45.17289860456229" lon="9.003881624670393"><ele>86.0</ele><time>2026-04-03T16:03:28Z</time></trkpt><trkpt lat="45.17317121982423" lon="9.004014397748753"><ele>86.0</ele><time>2026-04-03T16:03:29Z</time></trkpt><trkpt lat="45.17344238196345" lon="9.004144671460429"><ele>86.0</ele><time>2026-04-03T16:03:30Z</time></trkpt><trkpt lat="45.173714971855546" lon="9.004274812257483"><ele>86.0</ele><time>2026-04-03T16:03:31Z</time></trkpt><trkpt lat="45.17398503113052" lon="9.004405470561942"><ele>86.0</ele><time>2026-04-03T16:03:32Z</time></trkpt><trkpt lat="45.17425524159584" lon="9.004534932619007"><ele>86.5</ele><time>2026-04-03T16:03:33Z</time></trkpt><trkpt lat="45.17452500051277" lon="9.00466600145071"><ele>87.0</ele><time>2026-04-03T16:03:34Z</time></trkpt><trkpt lat="45.174792762447396" lon="9.004795708465895"><ele>87.0</ele><time>2026-04-03T16:03:35Z</time></trkpt><trkpt lat="45.175064914329326" lon="9.004922900458835"><ele>87.0</ele><time>2026-04-03T16:03:36Z</time></trkpt><trkpt lat="45.17533226043499" lon="9.005051234671102"><ele>86.5</ele><time>2026-04-03T16:03:37Z</time></trkpt><trkpt lat="45.17560079502419" lon="9.005181757232254"><ele>86.0</ele><time>2026-04-03T16:03:38Z</time></trkpt><trkpt lat="45.17586862508371" lon="9.005311926327874"><ele>85.5</ele><time>2026-04-03T16:03:39Z</time></trkpt><trkpt lat="45.1761359188011" lon="9.005440871723865"><ele>85.0</ele><time>2026-04-03T16:03:40Z</time></trkpt><trkpt lat="45.17640555310688" lon="9.005572110287366"><ele>85.0</ele><time>2026-04-03T16:03:41Z</time></trkpt><trkpt lat="45.17667246218681" lon="9.005711298291315"><ele>85.0</ele><time>2026-04-03T16:03:42Z</time></trkpt><trkpt lat="45.17693856422191" lon="9.005860652169869"><ele>85.0</ele><time>2026-04-03T16:03:43Z</time></trkpt><trkpt lat="45.17719867557042" lon="9.00601743470069"><ele>85.0</ele><time>2026-04-03T16:03:44Z</time></trkpt><trkpt lat="45.17746377597532" lon="9.006173676279376"><ele>82.5</ele><time>2026-04-03T16:03:45Z</time></trkpt><trkpt lat="45.1777270699461" lon="9.00633133916986"><ele>80.0</ele><time>2026-04-03T16:03:46Z</time></trkpt><trkpt lat="45.17799234180183" lon="9.006488573523244"><ele>77.5</ele><time>2026-04-03T16:03:47Z</time></trkpt><trkpt lat="45.17825468617479" lon="9.006644419512014"><ele>75.0</ele><time>2026-04-03T16:03:48Z</time></trkpt><trkpt lat="45.178516381893125" lon="9.00680333469261"><ele>75.0</ele><time>2026-04-03T16:03:49Z</time></trkpt><trkpt lat="45.178779669185516" lon="9.006961039538398"><ele>75.0</ele><time>2026-04-03T16:03:50Z</time></trkpt><trkpt lat="45.179041812277205" lon="9.007114741138844"><ele>73.5</ele><time>2026-04-03T16:03:51Z</time></trkpt><trkpt lat="45.179305406679234" lon="9.007269173652281"><ele>72.0</ele><time>2026-04-03T16:03:52Z</time></trkpt><trkpt lat="45.17956905656365" lon="9.007424699371002"><ele>71.5</ele><time>2026-04-03T16:03:53Z</time></trkpt><trkpt lat="45.179829542297554" lon="9.007581280021126"><ele>71.0</ele><time>2026-04-03T16:03:54Z</time></trkpt><trkpt lat="45.180092103889116" lon="9.007737890791923"><ele>69.0</ele><time>2026-04-03T16:03:55Z</time></trkpt><trkpt lat="45.18035255629591" lon="9.007893252359654"><ele>67.0</ele><time>2026-04-03T16:03:55.999Z</time></trkpt><trkpt lat="45.18061192212746" lon="9.008048311435205"><ele>67.0</ele><time>2026-04-03T16:03:56.999Z</time></trkpt><trkpt lat="45.18087144023528" lon="9.008205419465659"><ele>67.0</ele><time>2026-04-03T16:03:57.999Z</time></trkpt><trkpt lat="45.18112981277012" lon="9.008360162801381"><ele>67.0</ele><time>2026-04-03T16:03:58.999Z</time></trkpt><trkpt lat="45.18138911681523" lon="9.008513824841778"><ele>67.0</ele><time>2026-04-03T16:03:59.999Z</time></trkpt><trkpt lat="45.18164749797379" lon="9.008663322932662"><ele>67.5</ele><time>2026-04-03T16:04:00.999Z</time></trkpt><trkpt lat="45.18190849482415" lon="9.008809745344935"><ele>68.0</ele><time>2026-04-03T16:04:01.999Z</time></trkpt><trkpt lat="45.18216648485846" lon="9.008961299126211"><ele>67.0</ele><time>2026-04-03T16:04:02.999Z</time></trkpt><trkpt lat="45.18242445579312" lon="9.009115434705588"><ele>66.0</ele><time>2026-04-03T16:04:03.999Z</time></trkpt><trkpt lat="45.1826797749035" lon="9.009270031262142"><ele>66.0</ele><time>2026-04-03T16:04:04.999Z</time></trkpt><trkpt lat="45.182938047830525" lon="9.009424471998752"><ele>66.0</ele><time>2026-04-03T16:04:05.999Z</time></trkpt><trkpt lat="45.18319475790627" lon="9.009577021380238"><ele>65.5</ele><time>2026-04-03T16:04:06.999Z</time></trkpt><trkpt lat="45.183450680982084" lon="9.00972568895712"><ele>65.0</ele><time>2026-04-03T16:04:07.999Z</time></trkpt><trkpt lat="45.18371013488423" lon="9.009870462655261"><ele>64.5</ele><time>2026-04-03T16:04:08.999Z</time></trkpt><trkpt lat="45.1839679604935" lon="9.010011964123883"><ele>64.0</ele><time>2026-04-03T16:04:09.999Z</time></trkpt><trkpt lat="45.18422422221224" lon="9.010154787111126"><ele>63.5</ele><time>2026-04-03T16:04:10.999Z</time></trkpt><trkpt lat="45.18448238704677" lon="9.010301168126468"><ele>63.0</ele><time>2026-04-03T16:04:11.999Z</time></trkpt><trkpt lat="45.18474130473625" lon="9.010453192876783"><ele>63.5</ele><time>2026-04-03T16:04:12.999Z</time></trkpt><trkpt lat="45.185001761546516" lon="9.010608795995411"><ele>64.0</ele><time>2026-04-03T16:04:13.999Z</time></trkpt><trkpt lat="45.18526037457513" lon="9.010768352326485"><ele>64.0</ele><time>2026-04-03T16:04:14.999Z</time></trkpt><trkpt lat="45.185520072638916" lon="9.01093126804391"><ele>64.0</ele><time>2026-04-03T16:04:15.999Z</time></trkpt><trkpt lat="45.18577980938534" lon="9.011097352416726"><ele>64.0</ele><time>2026-04-03T16:04:16.999Z</time></trkpt><trkpt lat="45.186038181260336" lon="9.011262466051226"><ele>64.0</ele><time>2026-04-03T16:04:17.999Z</time></trkpt><trkpt lat="45.186299788830404" lon="9.011427577591169"><ele>65.0</ele><time>2026-04-03T16:04:18.999Z</time></trkpt><trkpt lat="45.18656030785723" lon="9.011588495676738"><ele>66.0</ele><time>2026-04-03T16:04:19.999Z</time></trkpt><trkpt lat="45.18682468864309" lon="9.011747650308418"><ele>66.0</ele><time>2026-04-03T16:04:20.999Z</time></trkpt><trkpt lat="45.187087570568146" lon="9.011903305974421"><ele>66.0</ele><time>2026-04-03T16:04:21.999Z</time></trkpt><trkpt lat="45.187350798079684" lon="9.012058472952369"><ele>66.0</ele><time>2026-04-03T16:04:22.999Z</time></trkpt><trkpt lat="45.1876155072295" lon="9.012214969430122"><ele>66.0</ele><time>2026-04-03T16:04:23.999Z</time></trkpt><trkpt lat="45.18787686331863" lon="9.012368726449964"><ele>66.5</ele><time>2026-04-03T16:04:24.999Z</time></trkpt><trkpt lat="45.188140654433425" lon="9.012523804088628"><ele>67.0</ele><time>2026-04-03T16:04:25.999Z</time></trkpt><trkpt lat="45.18840368268533" lon="9.012680018175347"><ele>67.0</ele><time>2026-04-03T16:04:26.999Z</time></trkpt><trkpt lat="45.1886683556091" lon="9.012835988895665"><ele>67.0</ele><time>2026-04-03T16:04:27.999Z</time></trkpt><trkpt lat="45.188931810167766" lon="9.012993733610609"><ele>66.0</ele><time>2026-04-03T16:04:28.999Z</time></trkpt><trkpt lat="45.189196774829526" lon="9.013152090125773"><ele>65.0</ele><time>2026-04-03T16:04:29.999Z</time></trkpt><trkpt lat="45.18945997255392" lon="9.013311220592648"><ele>65.0</ele><time>2026-04-03T16:04:30.999Z</time></trkpt><trkpt lat="45.18972422601635" lon="9.01347187531476"><ele>65.0</ele><time>2026-04-03T16:04:31.999Z</time></trkpt><trkpt lat="45.18998771706797" lon="9.013631920206782"><ele>65.0</ele><time>2026-04-03T16:04:32.999Z</time></trkpt><trkpt lat="45.19025415003857" lon="9.013793911327568"><ele>65.0</ele><time>2026-04-03T16:04:33.999Z</time></trkpt><trkpt lat="45.190521269703275" lon="9.013954289771094"><ele>65.0</ele><time>2026-04-03T16:04:35Z</time></trkpt><trkpt lat="45.19078727247808" lon="9.014110604150298"><ele>65.0</ele><time>2026-04-03T16:04:36Z</time></trkpt><trkpt lat="45.19105493263732" lon="9.014266909768883"><ele>65.0</ele><time>2026-04-03T16:04:37Z</time></trkpt><trkpt lat="45.19132074816741" lon="9.01442398799677"><ele>65.0</ele><time>2026-04-03T16:04:38Z</time></trkpt><trkpt lat="45.1915876367377" lon="9.014581046944494"><ele>65.0</ele><time>2026-04-03T16:04:39Z</time></trkpt><trkpt lat="45.1918536625359" lon="9.014740046246017"><ele>65.0</ele><time>2026-04-03T16:04:40Z</time></trkpt><trkpt lat="45.19212138395812" lon="9.014901116719287"><ele>65.5</ele><time>2026-04-03T16:04:41Z</time></trkpt><trkpt lat="45.192386834355844" lon="9.01506174036076"><ele>66.0</ele><time>2026-04-03T16:04:42Z</time></trkpt><trkpt lat="45.19265307189801" lon="9.015220801495794"><ele>66.0</ele><time>2026-04-03T16:04:43Z</time></trkpt><trkpt lat="45.19291950638975" lon="9.015380670793812"><ele>66.0</ele><time>2026-04-03T16:04:44Z</time></trkpt><trkpt lat="45.193184198714206" lon="9.01554019734142"><ele>65.5</ele><time>2026-04-03T16:04:45Z</time></trkpt><trkpt lat="45.19345128377547" lon="9.015696915004135"><ele>65.0</ele><time>2026-04-03T16:04:46Z</time></trkpt><trkpt lat="45.19371604852849" lon="9.015853777610515"><ele>65.0</ele><time>2026-04-03T16:04:47Z</time></trkpt><trkpt lat="45.19398365331369" lon="9.016010213602197"><ele>65.0</ele><time>2026-04-03T16:04:48Z</time></trkpt><trkpt lat="45.194251995950225" lon="9.016166175676233"><ele>65.0</ele><time>2026-04-03T16:04:49Z</time></trkpt><trkpt lat="45.194519057105545" lon="9.016323851834857"><ele>65.0</ele><time>2026-04-03T16:04:50Z</time></trkpt><trkpt lat="45.19478734625499" lon="9.016483129599884"><ele>65.0</ele><time>2026-04-03T16:04:51Z</time></trkpt><trkpt lat="45.195055808736555" lon="9.01664462739689"><ele>65.0</ele><time>2026-04-03T16:04:52Z</time></trkpt><trkpt lat="45.195323935517784" lon="9.016807565212655"><ele>65.0</ele><time>2026-04-03T16:04:53Z</time></trkpt><trkpt lat="45.19559195695528" lon="9.01697031446997"><ele>65.0</ele><time>2026-04-03T16:04:54Z</time></trkpt><trkpt lat="45.19586377067658" lon="9.017130816945064"><ele>65.0</ele><time>2026-04-03T16:04:55Z</time></trkpt><trkpt lat="45.19613419955847" lon="9.017291106635044"><ele>65.0</ele><time>2026-04-03T16:04:56Z</time></trkpt><trkpt lat="45.19640592683504" lon="9.017451843540742"><ele>65.0</ele><time>2026-04-03T16:04:57Z</time></trkpt><trkpt lat="45.19667683811278" lon="9.017610467987911"><ele>65.0</ele><time>2026-04-03T16:04:58Z</time></trkpt><trkpt lat="45.196949908357745" lon="9.017758716206586"><ele>65.0</ele><time>2026-04-03T16:04:59Z</time></trkpt><trkpt lat="45.19722481085474" lon="9.017894264836205"><ele>65.0</ele><time>2026-04-03T16:05:00Z</time></trkpt><trkpt lat="45.197503590928704" lon="9.018017690335844"><ele>64.5</ele><time>2026-04-03T16:05:01Z</time></trkpt><trkpt lat="45.197784293897726" lon="9.01812306029085"><ele>64.0</ele><time>2026-04-03T16:05:02Z</time></trkpt><trkpt lat="45.19806622075868" lon="9.018219133734027"><ele>64.0</ele><time>2026-04-03T16:05:03Z</time></trkpt><trkpt lat="45.198348743762466" lon="9.018298444295773"><ele>64.0</ele><time>2026-04-03T16:05:04Z</time></trkpt><trkpt lat="45.1986330782239" lon="9.018366635778447"><ele>63.5</ele><time>2026-04-03T16:05:05Z</time></trkpt><trkpt lat="45.1989170157429" lon="9.018419819650358"><ele>63.0</ele><time>2026-04-03T16:05:06Z</time></trkpt><trkpt lat="45.19920269167096" lon="9.018459059861103"><ele>65.0</ele><time>2026-04-03T16:05:07Z</time></trkpt><trkpt lat="45.19948988824915" lon="9.018486161854845"><ele>67.0</ele><time>2026-04-03T16:05:08Z</time></trkpt><trkpt lat="45.199777712344705" lon="9.018501695510905"><ele>67.0</ele><time>2026-04-03T16:05:09Z</time></trkpt><trkpt lat="45.20006310184466" lon="9.018506568455512"><ele>67.0</ele><time>2026-04-03T16:05:10Z</time></trkpt><trkpt lat="45.20034849079747" lon="9.018498183972564"><ele>67.0</ele><time>2026-04-03T16:05:11Z</time></trkpt><trkpt lat="45.20063498669044" lon="9.018477165392689"><ele>67.0</ele><time>2026-04-03T16:05:12Z</time></trkpt><trkpt lat="45.200916327882084" lon="9.01844678885075"><ele>65.5</ele><time>2026-04-03T16:05:13Z</time></trkpt><trkpt lat="45.201194569656785" lon="9.01840507931565"><ele>64.0</ele><time>2026-04-03T16:05:14Z</time></trkpt><trkpt lat="45.201468947800464" lon="9.01835007262698"><ele>64.0</ele><time>2026-04-03T16:05:15Z</time></trkpt><trkpt lat="45.20174081915623" lon="9.01828829698089"><ele>64.0</ele><time>2026-04-03T16:05:16Z</time></trkpt><trkpt lat="45.202005742966364" lon="9.01822690627739"><ele>64.0</ele><time>2026-04-03T16:05:17Z</time></trkpt><trkpt lat="45.20226747436588" lon="9.01817009912666"><ele>64.0</ele><time>2026-04-03T16:05:18Z</time></trkpt><trkpt lat="45.20252896877135" lon="9.018110421851205"><ele>65.0</ele><time>2026-04-03T16:05:19Z</time></trkpt><trkpt lat="45.20279105744121" lon="9.01805199460025"><ele>66.0</ele><time>2026-04-03T16:05:20Z</time></trkpt><trkpt lat="45.20305338835298" lon="9.017994645747597"><ele>66.5</ele><time>2026-04-03T16:05:21Z</time></trkpt><trkpt lat="45.203315940922984" lon="9.017936361405447"><ele>67.0</ele><time>2026-04-03T16:05:22Z</time></trkpt><trkpt lat="45.20357807025621" lon="9.017876404004719"><ele>67.0</ele><time>2026-04-03T16:05:23Z</time></trkpt><trkpt lat="45.203841252975245" lon="9.01781686473451"><ele>67.0</ele><time>2026-04-03T16:05:24Z</time></trkpt><trkpt lat="45.20410599771687" lon="9.017757518275364"><ele>67.5</ele><time>2026-04-03T16:05:25Z</time></trkpt><trkpt lat="45.20437221008703" lon="9.017699435216986"><ele>68.0</ele><time>2026-04-03T16:05:26Z</time></trkpt><trkpt lat="45.2046384415307" lon="9.017645064971346"><ele>68.5</ele><time>2026-04-03T16:05:27Z</time></trkpt><trkpt lat="45.204906179577556" lon="9.01758754769082"><ele>69.0</ele><time>2026-04-03T16:05:28Z</time></trkpt><trkpt lat="45.205173501534155" lon="9.017528965483672"><ele>68.0</ele><time>2026-04-03T16:05:29Z</time></trkpt><trkpt lat="45.205438094233706" lon="9.0174731439983"><ele>67.0</ele><time>2026-04-03T16:05:30Z</time></trkpt><trkpt lat="45.20570364408573" lon="9.017418632401245"><ele>66.5</ele><time>2026-04-03T16:05:31Z</time></trkpt><trkpt lat="45.20596979068679" lon="9.017367222600472"><ele>66.0</ele><time>2026-04-03T16:05:32Z</time></trkpt><trkpt lat="45.20623538699157" lon="9.017315540133252"><ele>66.0</ele><time>2026-04-03T16:05:33Z</time></trkpt><trkpt lat="45.2064995606911" lon="9.01725979744723"><ele>66.0</ele><time>2026-04-03T16:05:34Z</time></trkpt><trkpt lat="45.20677006480914" lon="9.017203038073559"><ele>66.0</ele><time>2026-04-03T16:05:35Z</time></trkpt><trkpt lat="45.20703903036965" lon="9.017146179937301"><ele>66.0</ele><time>2026-04-03T16:05:36Z</time></trkpt><trkpt lat="45.20731049844789" lon="9.017093331003316"><ele>66.0</ele><time>2026-04-03T16:05:37Z</time></trkpt><trkpt lat="45.207584330464634" lon="9.01703949961103"><ele>66.0</ele><time>2026-04-03T16:05:38Z</time></trkpt><trkpt lat="45.207856397910305" lon="9.016983787537185"><ele>66.0</ele><time>2026-04-03T16:05:39Z</time></trkpt><trkpt lat="45.20812861996772" lon="9.016928043577813"><ele>66.0</ele><time>2026-04-03T16:05:40Z</time></trkpt><trkpt lat="45.208402019950334" lon="9.016870336479593"><ele>66.5</ele><time>2026-04-03T16:05:41Z</time></trkpt><trkpt lat="45.20867668522591" lon="9.016813125771135"><ele>67.0</ele><time>2026-04-03T16:05:42Z</time></trkpt><trkpt lat="45.208955261161094" lon="9.016762363913307"><ele>66.5</ele><time>2026-04-03T16:05:43Z</time></trkpt><trkpt lat="45.20923313723013" lon="9.016722060930276"><ele>66.0</ele><time>2026-04-03T16:05:44Z</time></trkpt><trkpt lat="45.209517923843855" lon="9.016697956346093"><ele>66.0</ele><time>2026-04-03T16:05:45Z</time></trkpt><trkpt lat="45.209799975840404" lon="9.016681527336418"><ele>66.0</ele><time>2026-04-03T16:05:46Z</time></trkpt><trkpt lat="45.21008340600803" lon="9.016681571087847"><ele>66.0</ele><time>2026-04-03T16:05:47Z</time></trkpt><trkpt lat="45.21036543393914" lon="9.016688566841017"><ele>66.0</ele><time>2026-04-03T16:05:48Z</time></trkpt><trkpt lat="45.21064556275828" lon="9.01670572865994"><ele>65.0</ele><time>2026-04-03T16:05:49Z</time></trkpt><trkpt lat="45.21092753438157" lon="9.016734932567179"><ele>64.0</ele><time>2026-04-03T16:05:50Z</time></trkpt><trkpt lat="45.21120841407759" lon="9.016775894696337"><ele>64.0</ele><time>2026-04-03T16:05:51Z</time></trkpt><trkpt lat="45.21148721681463" lon="9.016826879613815"><ele>64.0</ele><time>2026-04-03T16:05:52Z</time></trkpt><trkpt lat="45.21176660736905" lon="9.016884302376702"><ele>63.5</ele><time>2026-04-03T16:05:53Z</time></trkpt><trkpt lat="45.21204268199328" lon="9.016947131740114"><ele>63.0</ele><time>2026-04-03T16:05:54Z</time></trkpt><trkpt lat="45.212318944727734" lon="9.017008637714781"><ele>63.5</ele><time>2026-04-03T16:05:55Z</time></trkpt><trkpt lat="45.21259477602002" lon="9.017072299931232"><ele>64.0</ele><time>2026-04-03T16:05:56Z</time></trkpt><trkpt lat="45.21286814945998" lon="9.017134828527604"><ele>64.0</ele><time>2026-04-03T16:05:56.999Z</time></trkpt><trkpt lat="45.21314458691222" lon="9.017196309989776"><ele>64.0</ele><time>2026-04-03T16:05:57.999Z</time></trkpt><trkpt lat="45.21341955136431" lon="9.017253873570313"><ele>64.0</ele><time>2026-04-03T16:05:58.999Z</time></trkpt><trkpt lat="45.21369489131922" lon="9.017312012475678"><ele>64.0</ele><time>2026-04-03T16:05:59.999Z</time></trkpt><trkpt lat="45.21396832453365" lon="9.017369896104073"><ele>64.0</ele><time>2026-04-03T16:06:00.999Z</time></trkpt><trkpt lat="45.21424509884421" lon="9.0174296865015"><ele>64.0</ele><time>2026-04-03T16:06:01.999Z</time></trkpt><trkpt lat="45.21452204278888" lon="9.017491400261328"><ele>64.5</ele><time>2026-04-03T16:06:02.999Z</time></trkpt><trkpt lat="45.2147985165313" lon="9.01755364602811"><ele>65.0</ele><time>2026-04-03T16:06:03.999Z</time></trkpt><trkpt lat="45.215073957254354" lon="9.017615835941635"><ele>64.0</ele><time>2026-04-03T16:06:04.999Z</time></trkpt><trkpt lat="45.21535161212057" lon="9.017676556118879"><ele>63.0</ele><time>2026-04-03T16:06:05.999Z</time></trkpt><trkpt lat="45.21562877747513" lon="9.017735181111451"><ele>63.0</ele><time>2026-04-03T16:06:06.999Z</time></trkpt><trkpt lat="45.21590876327662" lon="9.017797032022894"><ele>63.0</ele><time>2026-04-03T16:06:07.999Z</time></trkpt><trkpt lat="45.21618783729667" lon="9.017864857874844"><ele>63.0</ele><time>2026-04-03T16:06:08.999Z</time></trkpt><trkpt lat="45.21646535959479" lon="9.017944362318593"><ele>63.0</ele><time>2026-04-03T16:06:09.999Z</time></trkpt><trkpt lat="45.216740866703056" lon="9.018039760709947"><ele>64.5</ele><time>2026-04-03T16:06:10.999Z</time></trkpt><trkpt lat="45.217015680799214" lon="9.018151256408798"><ele>66.0</ele><time>2026-04-03T16:06:11.999Z</time></trkpt><trkpt lat="45.21728603450322" lon="9.018272198175326"><ele>65.5</ele><time>2026-04-03T16:06:12.999Z</time></trkpt><trkpt lat="45.21755711504546" lon="9.018402375083511"><ele>65.0</ele><time>2026-04-03T16:06:13.999Z</time></trkpt><trkpt lat="45.217822589847906" lon="9.018538242490985"><ele>65.0</ele><time>2026-04-03T16:06:14.999Z</time></trkpt><trkpt lat="45.21808742444546" lon="9.018681942330243"><ele>65.0</ele><time>2026-04-03T16:06:15.999Z</time></trkpt><trkpt lat="45.218350116969546" lon="9.018835498904131"><ele>64.5</ele><time>2026-04-03T16:06:16.999Z</time></trkpt><trkpt lat="45.21861032230478" lon="9.019000728780162"><ele>64.0</ele><time>2026-04-03T16:06:17.999Z</time></trkpt><trkpt lat="45.21886615341501" lon="9.019175897024128"><ele>64.0</ele><time>2026-04-03T16:06:18.999Z</time></trkpt><trkpt lat="45.21911786697957" lon="9.019356990464818"><ele>64.0</ele><time>2026-04-03T16:06:19.999Z</time></trkpt><trkpt lat="45.219365662686364" lon="9.019547836700657"><ele>64.0</ele><time>2026-04-03T16:06:20.999Z</time></trkpt><trkpt lat="45.21960956423725" lon="9.019749672622778"><ele>64.0</ele><time>2026-04-03T16:06:21.999Z</time></trkpt><trkpt lat="45.219850189399054" lon="9.01995948615707"><ele>64.5</ele><time>2026-04-03T16:06:22.999Z</time></trkpt><trkpt lat="45.22008696591553" lon="9.020171997322668"><ele>65.0</ele><time>2026-04-03T16:06:23.999Z</time></trkpt><trkpt lat="45.22032664401047" lon="9.02038588541548"><ele>65.0</ele><time>2026-04-03T16:06:24.999Z</time></trkpt><trkpt lat="45.220563788442405" lon="9.020598444211325"><ele>65.0</ele><time>2026-04-03T16:06:25.999Z</time></trkpt><trkpt lat="45.220803972058505" lon="9.02080956187688"><ele>64.0</ele><time>2026-04-03T16:06:26.999Z</time></trkpt><trkpt lat="45.22104497109438" lon="9.021012697379975"><ele>63.0</ele><time>2026-04-03T16:06:27.999Z</time></trkpt><trkpt lat="45.221287118887915" lon="9.021214560330638"><ele>63.5</ele><time>2026-04-03T16:06:28.999Z</time></trkpt><trkpt lat="45.22153184045207" lon="9.021418734158601"><ele>64.0</ele><time>2026-04-03T16:06:29.999Z</time></trkpt><trkpt lat="45.22176859510642" lon="9.021623420492874"><ele>65.0</ele><time>2026-04-03T16:06:30.999Z</time></trkpt><trkpt lat="45.22200904366308" lon="9.021835461253602"><ele>66.0</ele><time>2026-04-03T16:06:31.999Z</time></trkpt><trkpt lat="45.22224316150944" lon="9.022047251481428"><ele>63.5</ele><time>2026-04-03T16:06:32.999Z</time></trkpt><trkpt lat="45.22247974259523" lon="9.022260954073099"><ele>61.0</ele><time>2026-04-03T16:06:33.999Z</time></trkpt><trkpt lat="45.222712870876194" lon="9.022471621529029"><ele>61.5</ele><time>2026-04-03T16:06:34.999Z</time></trkpt><trkpt lat="45.222951764530606" lon="9.022682461271172"><ele>62.0</ele><time>2026-04-03T16:06:35.999Z</time></trkpt><trkpt lat="45.22318680231064" lon="9.022890011315967"><ele>63.0</ele><time>2026-04-03T16:06:36.999Z</time></trkpt><trkpt lat="45.22342581350718" lon="9.023096293260163"><ele>64.0</ele><time>2026-04-03T16:06:37.999Z</time></trkpt><trkpt lat="45.22366391184" lon="9.023301892775963"><ele>64.0</ele><time>2026-04-03T16:06:38.999Z</time></trkpt><trkpt lat="45.22390332303727" lon="9.023506269300697"><ele>64.0</ele><time>2026-04-03T16:06:39.999Z</time></trkpt><trkpt lat="45.22413989953988" lon="9.023712109885938"><ele>63.5</ele><time>2026-04-03T16:06:41Z</time></trkpt><trkpt lat="45.22437862904173" lon="9.023919712162511"><ele>63.0</ele><time>2026-04-03T16:06:42Z</time></trkpt><trkpt lat="45.224615452891" lon="9.024127000135103"><ele>62.0</ele><time>2026-04-03T16:06:43Z</time></trkpt><trkpt lat="45.22485271993998" lon="9.024332930989093"><ele>61.0</ele><time>2026-04-03T16:06:44Z</time></trkpt><trkpt lat="45.22508579008808" lon="9.024538682799632"><ele>61.0</ele><time>2026-04-03T16:06:45Z</time></trkpt><trkpt lat="45.22532030641846" lon="9.024742381978903"><ele>61.0</ele><time>2026-04-03T16:06:46Z</time></trkpt><trkpt lat="45.22555485695273" lon="9.024944436929857"><ele>61.5</ele><time>2026-04-03T16:06:47Z</time></trkpt><trkpt lat="45.22578759461926" lon="9.025144595596753"><ele>62.0</ele><time>2026-04-03T16:06:48Z</time></trkpt><trkpt lat="45.226021175786144" lon="9.025344466443823"><ele>62.0</ele><time>2026-04-03T16:06:49Z</time></trkpt><trkpt lat="45.22625140223426" lon="9.025545150386456"><ele>62.0</ele><time>2026-04-03T16:06:50Z</time></trkpt><trkpt lat="45.22648257626304" lon="9.02574462603352"><ele>63.5</ele><time>2026-04-03T16:06:51Z</time></trkpt><trkpt lat="45.22671184041358" lon="9.025943204491968"><ele>65.0</ele><time>2026-04-03T16:06:52Z</time></trkpt><trkpt lat="45.22694195209032" lon="9.02614343370311"><ele>65.0</ele><time>2026-04-03T16:06:53Z</time></trkpt><trkpt lat="45.22716973931559" lon="9.026344904551163"><ele>65.0</ele><time>2026-04-03T16:06:54Z</time></trkpt><trkpt lat="45.227397616856244" lon="9.026547925422115"><ele>65.5</ele><time>2026-04-03T16:06:55Z</time></trkpt><trkpt lat="45.227624359858666" lon="9.026750943650601"><ele>66.0</ele><time>2026-04-03T16:06:56Z</time></trkpt><trkpt lat="45.22785180254024" lon="9.026951308690206"><ele>66.0</ele><time>2026-04-03T16:06:57Z</time></trkpt><trkpt lat="45.22808280508674" lon="9.027146560182603"><ele>66.0</ele><time>2026-04-03T16:06:58Z</time></trkpt><trkpt lat="45.228314185203644" lon="9.027340554700869"><ele>67.0</ele><time>2026-04-03T16:06:59Z</time></trkpt><trkpt lat="45.228545549673626" lon="9.027537893350022"><ele>68.0</ele><time>2026-04-03T16:07:00Z</time></trkpt><trkpt lat="45.22877667175192" lon="9.027738084436796"><ele>67.5</ele><time>2026-04-03T16:07:01Z</time></trkpt><trkpt lat="45.229008504674546" lon="9.027940698328745"><ele>67.0</ele><time>2026-04-03T16:07:02Z</time></trkpt><trkpt lat="45.229240899736695" lon="9.028145222063502"><ele>66.5</ele><time>2026-04-03T16:07:03Z</time></trkpt><trkpt lat="45.22947174555128" lon="9.028348990459362"><ele>66.0</ele><time>2026-04-03T16:07:04Z</time></trkpt><trkpt lat="45.22970703270493" lon="9.02855182053231"><ele>65.0</ele><time>2026-04-03T16:07:05Z</time></trkpt><trkpt lat="45.22994356846973" lon="9.028752858289502"><ele>64.0</ele><time>2026-04-03T16:07:06Z</time></trkpt><trkpt lat="45.230179861624826" lon="9.028953330693392"><ele>64.0</ele><time>2026-04-03T16:07:07Z</time></trkpt><trkpt lat="45.2304152167368" lon="9.029157867844201"><ele>64.0</ele><time>2026-04-03T16:07:08Z</time></trkpt><trkpt lat="45.23065071578862" lon="9.029365766826764"><ele>64.0</ele><time>2026-04-03T16:07:09Z</time></trkpt><trkpt lat="45.23088945534621" lon="9.029571410584834"><ele>64.0</ele><time>2026-04-03T16:07:10Z</time></trkpt><trkpt lat="45.231127062270495" lon="9.029780530511848"><ele>64.0</ele><time>2026-04-03T16:07:11Z</time></trkpt><trkpt lat="45.23136062241065" lon="9.029986871674772"><ele>64.0</ele><time>2026-04-03T16:07:12Z</time></trkpt><trkpt lat="45.23159636006896" lon="9.030197978932579"><ele>64.0</ele><time>2026-04-03T16:07:13Z</time></trkpt><trkpt lat="45.231833673709055" lon="9.030408638511393"><ele>64.0</ele><time>2026-04-03T16:07:14Z</time></trkpt><trkpt lat="45.232071760168054" lon="9.030619518489404"><ele>64.5</ele><time>2026-04-03T16:07:15Z</time></trkpt><trkpt lat="45.23230922895096" lon="9.030828065197062"><ele>65.0</ele><time>2026-04-03T16:07:16Z</time></trkpt><trkpt lat="45.23254874500417" lon="9.031038223019536"><ele>65.0</ele><time>2026-04-03T16:07:17Z</time></trkpt><trkpt lat="45.23278765547211" lon="9.03124906624709"><ele>65.0</ele><time>2026-04-03T16:07:18Z</time></trkpt><trkpt lat="45.2330268306258" lon="9.031460155802533"><ele>65.0</ele><time>2026-04-03T16:07:19Z</time></trkpt><trkpt lat="45.23326817704188" lon="9.03167083701413"><ele>65.0</ele><time>2026-04-03T16:07:20Z</time></trkpt><trkpt lat="45.233508853135156" lon="9.031878778142692"><ele>65.0</ele><time>2026-04-03T16:07:21Z</time></trkpt><trkpt lat="45.23374922149309" lon="9.03208745709337"><ele>65.0</ele><time>2026-04-03T16:07:22Z</time></trkpt><trkpt lat="45.23399000149998" lon="9.032296837946621"><ele>66.0</ele><time>2026-04-03T16:07:23Z</time></trkpt><trkpt lat="45.234229712047494" lon="9.032506321120554"><ele>67.0</ele><time>2026-04-03T16:07:24Z</time></trkpt><trkpt lat="45.2344695115022" lon="9.032715386255859"><ele>67.0</ele><time>2026-04-03T16:07:25Z</time></trkpt><trkpt lat="45.23471133314927" lon="9.03292953538515"><ele>67.0</ele><time>2026-04-03T16:07:26Z</time></trkpt><trkpt lat="45.23495260224535" lon="9.033141414088735"><ele>66.5</ele><time>2026-04-03T16:07:27Z</time></trkpt><trkpt lat="45.2351943687869" lon="9.03335599944204"><ele>66.0</ele><time>2026-04-03T16:07:28Z</time></trkpt><trkpt lat="45.23543681551837" lon="9.033569273698221"><ele>65.5</ele><time>2026-04-03T16:07:29Z</time></trkpt><trkpt lat="45.235679766696116" lon="9.033779940532172"><ele>65.0</ele><time>2026-04-03T16:07:30Z</time></trkpt><trkpt lat="45.23592157297548" lon="9.033989262669397"><ele>66.0</ele><time>2026-04-03T16:07:31Z</time></trkpt><trkpt lat="45.23616398521413" lon="9.034198136574187"><ele>67.0</ele><time>2026-04-03T16:07:32Z</time></trkpt><trkpt lat="45.23640646202787" lon="9.03440831698104"><ele>68.0</ele><time>2026-04-03T16:07:33Z</time></trkpt><trkpt lat="45.23664800494765" lon="9.034619114209551"><ele>69.0</ele><time>2026-04-03T16:07:34Z</time></trkpt><trkpt lat="45.23688993108347" lon="9.034829157771235"><ele>69.0</ele><time>2026-04-03T16:07:35Z</time></trkpt><trkpt lat="45.237130850172576" lon="9.03503896890915"><ele>69.0</ele><time>2026-04-03T16:07:36Z</time></trkpt><trkpt lat="45.237370876231076" lon="9.035250129026728"><ele>69.0</ele><time>2026-04-03T16:07:37Z</time></trkpt><trkpt lat="45.23761350269233" lon="9.035461476018122"><ele>69.0</ele><time>2026-04-03T16:07:38Z</time></trkpt><trkpt lat="45.237856857346024" lon="9.03566752198303"><ele>68.5</ele><time>2026-04-03T16:07:39Z</time></trkpt><trkpt lat="45.238102540920714" lon="9.03587522199139"><ele>68.0</ele><time>2026-04-03T16:07:40Z</time></trkpt><trkpt lat="45.238347935193865" lon="9.03607570582142"><ele>70.0</ele><time>2026-04-03T16:07:41Z</time></trkpt><trkpt lat="45.238591385225384" lon="9.036278338088827"><ele>72.0</ele><time>2026-04-03T16:07:42Z</time></trkpt><trkpt lat="45.23883248473516" lon="9.0364820956918"><ele>75.5</ele><time>2026-04-03T16:07:43Z</time></trkpt><trkpt lat="45.23907250907255" lon="9.036689491396507"><ele>79.0</ele><time>2026-04-03T16:07:44Z</time></trkpt><trkpt lat="45.23931119128144" lon="9.036893622027828"><ele>79.0</ele><time>2026-04-03T16:07:45Z</time></trkpt><trkpt lat="45.23954919233568" lon="9.037094713682114"><ele>79.0</ele><time>2026-04-03T16:07:46Z</time></trkpt><trkpt lat="45.23978681514998" lon="9.037297538658539"><ele>80.0</ele><time>2026-04-03T16:07:47Z</time></trkpt><trkpt lat="45.24002039306576" lon="9.037499765679572"><ele>81.0</ele><time>2026-04-03T16:07:48Z</time></trkpt><trkpt lat="45.24025388686227" lon="9.037702934877819"><ele>81.0</ele><time>2026-04-03T16:07:49Z</time></trkpt><trkpt lat="45.240482630984204" lon="9.037906801404235"><ele>81.0</ele><time>2026-04-03T16:07:50Z</time></trkpt><trkpt lat="45.24071164329509" lon="9.038109866065497"><ele>82.5</ele><time>2026-04-03T16:07:51Z</time></trkpt><trkpt lat="45.24093997386605" lon="9.03830976859735"><ele>84.0</ele><time>2026-04-03T16:07:52Z</time></trkpt><trkpt lat="45.24116746749873" lon="9.038508867257086"><ele>84.0</ele><time>2026-04-03T16:07:53Z</time></trkpt><trkpt lat="45.24139360022706" lon="9.038704843779835"><ele>84.0</ele><time>2026-04-03T16:07:54Z</time></trkpt><trkpt lat="45.2416205745763" lon="9.03890335062952"><ele>84.5</ele><time>2026-04-03T16:07:55Z</time></trkpt><trkpt lat="45.241852435755604" lon="9.03910490265368"><ele>85.0</ele><time>2026-04-03T16:07:56Z</time></trkpt><trkpt lat="45.24208464012563" lon="9.039311911883159"><ele>84.5</ele><time>2026-04-03T16:07:57Z</time></trkpt><trkpt lat="45.242319617460176" lon="9.039519946006052"><ele>84.0</ele><time>2026-04-03T16:07:58Z</time></trkpt><trkpt lat="45.24255922728532" lon="9.039728298342148"><ele>84.0</ele><time>2026-04-03T16:07:59Z</time></trkpt><trkpt lat="45.24279792294201" lon="9.039934854467642"><ele>84.0</ele><time>2026-04-03T16:07:59.999Z</time></trkpt><trkpt lat="45.24303814659219" lon="9.040143887502994"><ele>85.5</ele><time>2026-04-03T16:08:00.999Z</time></trkpt><trkpt lat="45.24327967357059" lon="9.04035383738559"><ele>87.0</ele><time>2026-04-03T16:08:01.999Z</time></trkpt><trkpt lat="45.243521925250896" lon="9.040563687981614"><ele>87.0</ele><time>2026-04-03T16:08:02.999Z</time></trkpt><trkpt lat="45.24376439222363" lon="9.040772811839355"><ele>87.0</ele><time>2026-04-03T16:08:03.999Z</time></trkpt><trkpt lat="45.24400697143004" lon="9.04097876460879"><ele>88.0</ele><time>2026-04-03T16:08:04.999Z</time></trkpt><trkpt lat="45.24425277520694" lon="9.041177746640518"><ele>89.0</ele><time>2026-04-03T16:08:05.999Z</time></trkpt><trkpt lat="45.24450284330538" lon="9.041365499382625"><ele>89.0</ele><time>2026-04-03T16:08:06.999Z</time></trkpt><trkpt lat="45.24475677608836" lon="9.041538361714501"><ele>89.0</ele><time>2026-04-03T16:08:07.999Z</time></trkpt><trkpt lat="45.24501222133871" lon="9.0417018844627"><ele>90.0</ele><time>2026-04-03T16:08:08.999Z</time></trkpt><trkpt lat="45.24526943353758" lon="9.041862340452779"><ele>91.0</ele><time>2026-04-03T16:08:09.999Z</time></trkpt><trkpt lat="45.245525679388216" lon="9.042022434577035"><ele>91.0</ele><time>2026-04-03T16:08:10.999Z</time></trkpt><trkpt lat="45.245780529931416" lon="9.042183832035036"><ele>91.0</ele><time>2026-04-03T16:08:11.999Z</time></trkpt><trkpt lat="45.24603344663671" lon="9.042347265582874"><ele>90.5</ele><time>2026-04-03T16:08:12.999Z</time></trkpt><trkpt lat="45.24628370064676" lon="9.04251273434288"><ele>90.0</ele><time>2026-04-03T16:08:13.999Z</time></trkpt><trkpt lat="45.24653588836483" lon="9.042677977882404"><ele>89.5</ele><time>2026-04-03T16:08:14.999Z</time></trkpt><trkpt lat="45.246785590707965" lon="9.042842964979705"><ele>89.0</ele><time>2026-04-03T16:08:15.999Z</time></trkpt><trkpt lat="45.24703563950584" lon="9.043006441389835"><ele>89.0</ele><time>2026-04-03T16:08:16.999Z</time></trkpt><trkpt lat="45.24728584299986" lon="9.04316659595018"><ele>89.0</ele><time>2026-04-03T16:08:17.999Z</time></trkpt><trkpt lat="45.24753652197212" lon="9.043325132808675"><ele>89.0</ele><time>2026-04-03T16:08:18.999Z</time></trkpt><trkpt lat="45.247786878243495" lon="9.043482988490759"><ele>89.0</ele><time>2026-04-03T16:08:19.999Z</time></trkpt><trkpt lat="45.248035728267226" lon="9.04363624550957"><ele>90.5</ele><time>2026-04-03T16:08:20.999Z</time></trkpt><trkpt lat="45.24828298009795" lon="9.04379087702196"><ele>92.0</ele><time>2026-04-03T16:08:21.999Z</time></trkpt><trkpt lat="45.24852770702465" lon="9.04394898555119"><ele>92.0</ele><time>2026-04-03T16:08:22.999Z</time></trkpt><trkpt lat="45.24876826936321" lon="9.04410857900217"><ele>92.0</ele><time>2026-04-03T16:08:23.999Z</time></trkpt><trkpt lat="45.24901086719848" lon="9.044269290787595"><ele>92.5</ele><time>2026-04-03T16:08:24.999Z</time></trkpt><trkpt lat="45.2492526250446" lon="9.04442614019678"><ele>93.0</ele><time>2026-04-03T16:08:25.999Z</time></trkpt><trkpt lat="45.2494921517326" lon="9.044579359246361"><ele>93.0</ele><time>2026-04-03T16:08:26.999Z</time></trkpt><trkpt lat="45.24973544372189" lon="9.044732737463006"><ele>93.0</ele><time>2026-04-03T16:08:27.999Z</time></trkpt><trkpt lat="45.2499783724923" lon="9.044886911906383"><ele>91.5</ele><time>2026-04-03T16:08:28.999Z</time></trkpt><trkpt lat="45.25022076848503" lon="9.045040607162573"><ele>90.0</ele><time>2026-04-03T16:08:29.999Z</time></trkpt><trkpt lat="45.250463294700104" lon="9.045192789665975"><ele>91.0</ele><time>2026-04-03T16:08:30.999Z</time></trkpt><trkpt lat="45.25070725234956" lon="9.045345906182666"><ele>92.0</ele><time>2026-04-03T16:08:31.999Z</time></trkpt><trkpt lat="45.25095084834111" lon="9.04549930919302"><ele>92.0</ele><time>2026-04-03T16:08:32.999Z</time></trkpt><trkpt lat="45.251193783741826" lon="9.045653422413219"><ele>92.0</ele><time>2026-04-03T16:08:33.999Z</time></trkpt><trkpt lat="45.25143862833347" lon="9.045812346316874"><ele>92.0</ele><time>2026-04-03T16:08:34.999Z</time></trkpt><trkpt lat="45.25168110824013" lon="9.045969134776971"><ele>92.0</ele><time>2026-04-03T16:08:35.999Z</time></trkpt><trkpt lat="45.25192383449257" lon="9.046124942683088"><ele>92.0</ele><time>2026-04-03T16:08:36.999Z</time></trkpt><trkpt lat="45.25216891988744" lon="9.046279256592127"><ele>92.0</ele><time>2026-04-03T16:08:37.999Z</time></trkpt><trkpt lat="45.25241146763877" lon="9.046437775322667"><ele>92.0</ele><time>2026-04-03T16:08:38.999Z</time></trkpt><trkpt lat="45.252654461563544" lon="9.046596711095875"><ele>92.0</ele><time>2026-04-03T16:08:39.999Z</time></trkpt><trkpt lat="45.252899356331845" lon="9.046756896103616"><ele>92.0</ele><time>2026-04-03T16:08:40.999Z</time></trkpt><trkpt lat="45.253143966277555" lon="9.046917434978301"><ele>92.0</ele><time>2026-04-03T16:08:41.999Z</time></trkpt><trkpt lat="45.253388314137595" lon="9.04707845324663"><ele>92.0</ele><time>2026-04-03T16:08:42.999Z</time></trkpt><trkpt lat="45.253631887426046" lon="9.04724099306096"><ele>92.0</ele><time>2026-04-03T16:08:43.999Z</time></trkpt><trkpt lat="45.25387774991805" lon="9.047403696704947"><ele>92.0</ele><time>2026-04-03T16:08:44.999Z</time></trkpt><trkpt lat="45.254120611779264" lon="9.0475661143557"><ele>92.0</ele><time>2026-04-03T16:08:45.999Z</time></trkpt><trkpt lat="45.25436632974177" lon="9.04772820252398"><ele>92.0</ele><time>2026-04-03T16:08:47Z</time></trkpt><trkpt lat="45.25461109380173" lon="9.047891180918132"><ele>92.0</ele><time>2026-04-03T16:08:48Z</time></trkpt><trkpt lat="45.25485656616612" lon="9.048055269139672"><ele>92.5</ele><time>2026-04-03T16:08:49Z</time></trkpt><trkpt lat="45.25510386056655" lon="9.048218570629437"><ele>93.0</ele><time>2026-04-03T16:08:50Z</time></trkpt><trkpt lat="45.255350392096894" lon="9.048379289096172"><ele>93.5</ele><time>2026-04-03T16:08:51Z</time></trkpt><trkpt lat="45.25559735955777" lon="9.04853871198698"><ele>94.0</ele><time>2026-04-03T16:08:52Z</time></trkpt><trkpt lat="45.255844363546316" lon="9.04869567089405"><ele>92.5</ele><time>2026-04-03T16:08:53Z</time></trkpt><trkpt lat="45.25609256325854" lon="9.048851312503256"><ele>91.0</ele><time>2026-04-03T16:08:54Z</time></trkpt><trkpt lat="45.25634103782189" lon="9.049006055902398"><ele>91.5</ele><time>2026-04-03T16:08:55Z</time></trkpt><trkpt lat="45.256586408267516" lon="9.049159465923074"><ele>92.0</ele><time>2026-04-03T16:08:56Z</time></trkpt><trkpt lat="45.256830877808554" lon="9.049315819148058"><ele>92.0</ele><time>2026-04-03T16:08:57Z</time></trkpt><trkpt lat="45.25707829327433" lon="9.04947283641292"><ele>92.0</ele><time>2026-04-03T16:08:58Z</time></trkpt><trkpt lat="45.257324551166" lon="9.049629457908148"><ele>91.5</ele><time>2026-04-03T16:08:59Z</time></trkpt><trkpt lat="45.257571409910874" lon="9.049786380165406"><ele>91.0</ele><time>2026-04-03T16:09:00Z</time></trkpt><trkpt lat="45.25781839960986" lon="9.049943454682582"><ele>91.0</ele><time>2026-04-03T16:09:01Z</time></trkpt><trkpt lat="45.258064733294646" lon="9.050103055551073"><ele>91.0</ele><time>2026-04-03T16:09:02Z</time></trkpt><trkpt lat="45.258312852231825" lon="9.050261707178384"><ele>91.0</ele><time>2026-04-03T16:09:03Z</time></trkpt><trkpt lat="45.258562223674815" lon="9.050418947022713"><ele>91.0</ele><time>2026-04-03T16:09:04Z</time></trkpt><trkpt lat="45.25881050507288" lon="9.050573567433604"><ele>92.0</ele><time>2026-04-03T16:09:05Z</time></trkpt><trkpt lat="45.259058773345004" lon="9.050728851818663"><ele>93.0</ele><time>2026-04-03T16:09:06Z</time></trkpt><trkpt lat="45.25930822652728" lon="9.050880482082857"><ele>93.0</ele><time>2026-04-03T16:09:07Z</time></trkpt><trkpt lat="45.25955972763629" lon="9.051034761036657"><ele>93.0</ele><time>2026-04-03T16:09:08Z</time></trkpt><trkpt lat="45.259808431113996" lon="9.051187654689812"><ele>92.5</ele><time>2026-04-03T16:09:09Z</time></trkpt><trkpt lat="45.26005514341828" lon="9.05134178774018"><ele>92.0</ele><time>2026-04-03T16:09:10Z</time></trkpt><trkpt lat="45.26029931219334" lon="9.05149989851"><ele>92.0</ele><time>2026-04-03T16:09:11Z</time></trkpt><trkpt lat="45.26054314680816" lon="9.051660562738515"><ele>92.0</ele><time>2026-04-03T16:09:12Z</time></trkpt><trkpt lat="45.260784371340435" lon="9.051826595722853"><ele>92.0</ele><time>2026-04-03T16:09:13Z</time></trkpt><trkpt lat="45.26102680723673" lon="9.051992984888898"><ele>92.0</ele><time>2026-04-03T16:09:14Z</time></trkpt><trkpt lat="45.26127221341902" lon="9.052157601977736"><ele>92.0</ele><time>2026-04-03T16:09:15Z</time></trkpt><trkpt lat="45.261516531616834" lon="9.05231799936393"><ele>92.0</ele><time>2026-04-03T16:09:16Z</time></trkpt><trkpt lat="45.261761710528816" lon="9.052477383616498"><ele>91.5</ele><time>2026-04-03T16:09:17Z</time></trkpt><trkpt lat="45.26200861677789" lon="9.052637045705772"><ele>91.0</ele><time>2026-04-03T16:09:18Z</time></trkpt><trkpt lat="45.26225529390918" lon="9.052793630681995"><ele>90.5</ele><time>2026-04-03T16:09:19Z</time></trkpt><trkpt lat="45.26250160512875" lon="9.052947560479195"><ele>90.0</ele><time>2026-04-03T16:09:20Z</time></trkpt><trkpt lat="45.262749280997326" lon="9.053099831798193"><ele>90.0</ele><time>2026-04-03T16:09:21Z</time></trkpt><trkpt lat="45.26299640934682" lon="9.053248740481045"><ele>90.0</ele><time>2026-04-03T16:09:22Z</time></trkpt><trkpt lat="45.26324692675387" lon="9.053390535114303"><ele>90.5</ele><time>2026-04-03T16:09:23Z</time></trkpt><trkpt lat="45.26349806616869" lon="9.053521579367267"><ele>91.0</ele><time>2026-04-03T16:09:24Z</time></trkpt><trkpt lat="45.26375150007046" lon="9.053642004301803"><ele>91.5</ele><time>2026-04-03T16:09:25Z</time></trkpt><trkpt lat="45.26400827218938" lon="9.053752582876786"><ele>92.0</ele><time>2026-04-03T16:09:26Z</time></trkpt><trkpt lat="45.26426723071731" lon="9.05385643702023"><ele>92.0</ele><time>2026-04-03T16:09:27Z</time></trkpt><trkpt lat="45.26452639304078" lon="9.053954148459772"><ele>92.0</ele><time>2026-04-03T16:09:28Z</time></trkpt><trkpt lat="45.26478649780949" lon="9.054048938865353"><ele>92.0</ele><time>2026-04-03T16:09:29Z</time></trkpt><trkpt lat="45.265047008373244" lon="9.054142231077595"><ele>92.0</ele><time>2026-04-03T16:09:30Z</time></trkpt><trkpt lat="45.26530557161089" lon="9.054236535922122"><ele>92.0</ele><time>2026-04-03T16:09:31Z</time></trkpt><trkpt lat="45.26556548341614" lon="9.0543312004697"><ele>92.0</ele><time>2026-04-03T16:09:32Z</time></trkpt><trkpt lat="45.26582261227192" lon="9.054425910960326"><ele>91.5</ele><time>2026-04-03T16:09:33Z</time></trkpt><trkpt lat="45.26608170969514" lon="9.054523255057394"><ele>91.0</ele><time>2026-04-03T16:09:34Z</time></trkpt><trkpt lat="45.26633767960948" lon="9.054620114760144"><ele>91.0</ele><time>2026-04-03T16:09:35Z</time></trkpt><trkpt lat="45.266593182947844" lon="9.054714662253204"><ele>91.0</ele><time>2026-04-03T16:09:36Z</time></trkpt><trkpt lat="45.26684942162922" lon="9.054808432741375"><ele>91.0</ele><time>2026-04-03T16:09:37Z</time></trkpt><trkpt lat="45.26710433412467" lon="9.05490101987364"><ele>91.0</ele><time>2026-04-03T16:09:38Z</time></trkpt><trkpt lat="45.26735953424667" lon="9.054994038728953"><ele>91.0</ele><time>2026-04-03T16:09:39Z</time></trkpt><trkpt lat="45.26761310565549" lon="9.055087139692924"><ele>91.0</ele><time>2026-04-03T16:09:40Z</time></trkpt><trkpt lat="45.267866073303544" lon="9.055180083934701"><ele>91.0</ele><time>2026-04-03T16:09:41Z</time></trkpt><trkpt lat="45.26811891735506" lon="9.055271148011458"><ele>91.0</ele><time>2026-04-03T16:09:42Z</time></trkpt><trkpt lat="45.268372920249305" lon="9.055363141612371"><ele>91.0</ele><time>2026-04-03T16:09:43Z</time></trkpt><trkpt lat="45.26862588093342" lon="9.055456443618432"><ele>91.0</ele><time>2026-04-03T16:09:44Z</time></trkpt><trkpt lat="45.26888028550234" lon="9.055550953640441"><ele>91.0</ele><time>2026-04-03T16:09:45Z</time></trkpt><trkpt lat="45.269134847551726" lon="9.055646570408157"><ele>91.0</ele><time>2026-04-03T16:09:46Z</time></trkpt><trkpt lat="45.269389094602154" lon="9.055739043522836"><ele>91.0</ele><time>2026-04-03T16:09:47Z</time></trkpt><trkpt lat="45.26964350844573" lon="9.055830652983467"><ele>91.0</ele><time>2026-04-03T16:09:48Z</time></trkpt><trkpt lat="45.26989818468491" lon="9.05592337387512"><ele>92.0</ele><time>2026-04-03T16:09:49Z</time></trkpt><trkpt lat="45.27015353766839" lon="9.056016607472129"><ele>93.0</ele><time>2026-04-03T16:09:50Z</time></trkpt><trkpt lat="45.2704081869626" lon="9.056110148785384"><ele>93.0</ele><time>2026-04-03T16:09:51Z</time></trkpt><trkpt lat="45.27066298848311" lon="9.056203381407078"><ele>93.0</ele><time>2026-04-03T16:09:52Z</time></trkpt><trkpt lat="45.270916806796954" lon="9.056296219911907"><ele>93.0</ele><time>2026-04-03T16:09:53Z</time></trkpt><trkpt lat="45.271172010425204" lon="9.0563909909583"><ele>93.0</ele><time>2026-04-03T16:09:54Z</time></trkpt><trkpt lat="45.2714278358653" lon="9.056485450853211"><ele>93.0</ele><time>2026-04-03T16:09:54.999Z</time></trkpt><trkpt lat="45.2716858014885" lon="9.05658018495607"><ele>93.0</ele><time>2026-04-03T16:09:55.999Z</time></trkpt><trkpt lat="45.27194359458759" lon="9.05667589208914"><ele>93.0</ele><time>2026-04-03T16:09:56.999Z</time></trkpt><trkpt lat="45.27220177984561" lon="9.056771632759986"><ele>93.0</ele><time>2026-04-03T16:09:57.999Z</time></trkpt><trkpt lat="45.27246268422244" lon="9.056866511174468"><ele>93.5</ele><time>2026-04-03T16:09:58.999Z</time></trkpt><trkpt lat="45.27272284732958" lon="9.056961860898294"><ele>94.0</ele><time>2026-04-03T16:09:59.999Z</time></trkpt><trkpt lat="45.272983676618026" lon="9.057057192433255"><ele>93.5</ele><time>2026-04-03T16:10:00.999Z</time></trkpt><trkpt lat="45.27324450882781" lon="9.057151857683113"><ele>93.0</ele><time>2026-04-03T16:10:01.999Z</time></trkpt><trkpt lat="45.27350838356644" lon="9.057248583037811"><ele>93.0</ele><time>2026-04-03T16:10:02.999Z</time></trkpt><trkpt lat="45.27376948200548" lon="9.05734660886403"><ele>93.0</ele><time>2026-04-03T16:10:03.999Z</time></trkpt><trkpt lat="45.27403197609523" lon="9.057444353665126"><ele>93.0</ele><time>2026-04-03T16:10:04.999Z</time></trkpt><trkpt lat="45.274297744375694" lon="9.057542020941117"><ele>93.0</ele><time>2026-04-03T16:10:05.999Z</time></trkpt><trkpt lat="45.27456380619037" lon="9.057638562257857"><ele>92.5</ele><time>2026-04-03T16:10:06.999Z</time></trkpt><trkpt lat="45.274828002290725" lon="9.057734681427846"><ele>92.0</ele><time>2026-04-03T16:10:07.999Z</time></trkpt><trkpt lat="45.27509456253535" lon="9.05783205933484"><ele>92.0</ele><time>2026-04-03T16:10:08.999Z</time></trkpt><trkpt lat="45.275362458991665" lon="9.057932323017415"><ele>92.0</ele><time>2026-04-03T16:10:09.999Z</time></trkpt><trkpt lat="45.275632232309654" lon="9.058033717962276"><ele>92.5</ele><time>2026-04-03T16:10:10.999Z</time></trkpt><trkpt lat="45.27590147447853" lon="9.05813523588562"><ele>93.0</ele><time>2026-04-03T16:10:11.999Z</time></trkpt><trkpt lat="45.27617134244833" lon="9.058238369854891"><ele>93.0</ele><time>2026-04-03T16:10:12.999Z</time></trkpt><trkpt lat="45.27644203340163" lon="9.058338842785862"><ele>93.0</ele><time>2026-04-03T16:10:13.999Z</time></trkpt><trkpt lat="45.27671624529982" lon="9.05843699856365"><ele>93.0</ele><time>2026-04-03T16:10:14.999Z</time></trkpt><trkpt lat="45.27699089091735" lon="9.058528258620607"><ele>93.0</ele><time>2026-04-03T16:10:15.999Z</time></trkpt><trkpt lat="45.27726675446336" lon="9.058620586701615"><ele>93.0</ele><time>2026-04-03T16:10:16.999Z</time></trkpt><trkpt lat="45.277541638324166" lon="9.058712608492412"><ele>93.0</ele><time>2026-04-03T16:10:17.999Z</time></trkpt><trkpt lat="45.27781817094693" lon="9.058809332056162"><ele>93.0</ele><time>2026-04-03T16:10:18.999Z</time></trkpt><trkpt lat="45.27809362612527" lon="9.058901531955657"><ele>93.0</ele><time>2026-04-03T16:10:19.999Z</time></trkpt><trkpt lat="45.27836839827368" lon="9.058997036331954"><ele>92.5</ele><time>2026-04-03T16:10:20.999Z</time></trkpt><trkpt lat="45.27864185052931" lon="9.059096493816902"><ele>92.0</ele><time>2026-04-03T16:10:21.999Z</time></trkpt><trkpt lat="45.278915375852215" lon="9.059199168023126"><ele>93.0</ele><time>2026-04-03T16:10:22.999Z</time></trkpt><trkpt lat="45.27919092366712" lon="9.059301475930871"><ele>94.0</ele><time>2026-04-03T16:10:23.999Z</time></trkpt><trkpt lat="45.279466835099285" lon="9.059404789010781"><ele>94.0</ele><time>2026-04-03T16:10:24.999Z</time></trkpt><trkpt lat="45.27974675283794" lon="9.059509351032615"><ele>94.0</ele><time>2026-04-03T16:10:25.999Z</time></trkpt><trkpt lat="45.28002643686922" lon="9.05961235380064"><ele>94.0</ele><time>2026-04-03T16:10:26.999Z</time></trkpt><trkpt lat="45.28030718943816" lon="9.059715252151197"><ele>94.0</ele><time>2026-04-03T16:10:27.999Z</time></trkpt><trkpt lat="45.280587774622475" lon="9.059819282729643"><ele>94.0</ele><time>2026-04-03T16:10:28.999Z</time></trkpt><trkpt lat="45.2808670913455" lon="9.059929992845657"><ele>94.0</ele><time>2026-04-03T16:10:29.999Z</time></trkpt><trkpt lat="45.28114349097305" lon="9.06004546833405"><ele>94.0</ele><time>2026-04-03T16:10:30.999Z</time></trkpt><trkpt lat="45.281421952449875" lon="9.060161061392972"><ele>94.0</ele><time>2026-04-03T16:10:31.999Z</time></trkpt><trkpt lat="45.28170017507653" lon="9.060270380391016"><ele>94.5</ele><time>2026-04-03T16:10:32.999Z</time></trkpt><trkpt lat="45.28198096753134" lon="9.060372016409968"><ele>95.0</ele><time>2026-04-03T16:10:33.999Z</time></trkpt><trkpt lat="45.28226191517922" lon="9.060473798172527"><ele>95.0</ele><time>2026-04-03T16:10:34.999Z</time></trkpt><trkpt lat="45.2825447006441" lon="9.060575715617386"><ele>95.0</ele><time>2026-04-03T16:10:35.999Z</time></trkpt><trkpt lat="45.282824691799505" lon="9.060674025346362"><ele>94.5</ele><time>2026-04-03T16:10:36.999Z</time></trkpt><trkpt lat="45.283109872003706" lon="9.060771883253688"><ele>94.0</ele><time>2026-04-03T16:10:37.999Z</time></trkpt><trkpt lat="45.28339113036774" lon="9.060869192350244"><ele>94.0</ele><time>2026-04-03T16:10:38.999Z</time></trkpt><trkpt lat="45.283674061706606" lon="9.0609679729649"><ele>94.0</ele><time>2026-04-03T16:10:39.999Z</time></trkpt><trkpt lat="45.28395682963753" lon="9.061064230426911"><ele>93.5</ele><time>2026-04-03T16:10:40.999Z</time></trkpt><trkpt lat="45.28423695203768" lon="9.061161736525445"><ele>93.0</ele><time>2026-04-03T16:10:41.999Z</time></trkpt><trkpt lat="45.28451652528328" lon="9.061264123560427"><ele>93.0</ele><time>2026-04-03T16:10:42.999Z</time></trkpt><trkpt lat="45.28479526675477" lon="9.061367166446944"><ele>93.0</ele><time>2026-04-03T16:10:43.999Z</time></trkpt><trkpt lat="45.28507367993281" lon="9.061463295913839"><ele>93.0</ele><time>2026-04-03T16:10:44.999Z</time></trkpt><trkpt lat="45.28535186794695" lon="9.061558761866657"><ele>93.0</ele><time>2026-04-03T16:10:45.999Z</time></trkpt><trkpt lat="45.285624896473955" lon="9.061667783190748"><ele>93.5</ele><time>2026-04-03T16:10:46.999Z</time></trkpt><trkpt lat="45.285896961602674" lon="9.061784299280719"><ele>94.0</ele><time>2026-04-03T16:10:47.999Z</time></trkpt><trkpt lat="45.28617077829407" lon="9.061900484035068"><ele>94.0</ele><time>2026-04-03T16:10:48.999Z</time></trkpt><trkpt lat="45.28644543417884" lon="9.06200840665927"><ele>94.0</ele><time>2026-04-03T16:10:49.999Z</time></trkpt><trkpt lat="45.28672094856909" lon="9.062112386980282"><ele>94.0</ele><time>2026-04-03T16:10:50.999Z</time></trkpt><trkpt lat="45.28699769459002" lon="9.062214268537474"><ele>94.0</ele><time>2026-04-03T16:10:51.999Z</time></trkpt><trkpt lat="45.28727595904994" lon="9.062314886255319"><ele>94.5</ele><time>2026-04-03T16:10:53Z</time></trkpt><trkpt lat="45.28755142678656" lon="9.062416390128286"><ele>95.0</ele><time>2026-04-03T16:10:54Z</time></trkpt><trkpt lat="45.2878287376455" lon="9.062518252982036"><ele>95.0</ele><time>2026-04-03T16:10:55Z</time></trkpt><trkpt lat="45.28810405316623" lon="9.062622128304497"><ele>95.0</ele><time>2026-04-03T16:10:56Z</time></trkpt><trkpt lat="45.28838157933003" lon="9.062724955125098"><ele>95.0</ele><time>2026-04-03T16:10:57Z</time></trkpt><trkpt lat="45.28865748454485" lon="9.062826573158963"><ele>95.0</ele><time>2026-04-03T16:10:58Z</time></trkpt><trkpt lat="45.28893473672553" lon="9.06292761368729"><ele>94.5</ele><time>2026-04-03T16:10:59Z</time></trkpt><trkpt lat="45.2892108469825" lon="9.063028219090846"><ele>94.0</ele><time>2026-04-03T16:11:00Z</time></trkpt><trkpt lat="45.289487254545264" lon="9.063131543815892"><ele>94.0</ele><time>2026-04-03T16:11:01Z</time></trkpt><trkpt lat="45.28976292124884" lon="9.063234378920745"><ele>94.0</ele><time>2026-04-03T16:11:02Z</time></trkpt><trkpt lat="45.290041315690765" lon="9.06333584440784"><ele>94.0</ele><time>2026-04-03T16:11:03Z</time></trkpt><trkpt lat="45.290319011297896" lon="9.063437691431567"><ele>94.0</ele><time>2026-04-03T16:11:04Z</time></trkpt><trkpt lat="45.290597794387146" lon="9.063538912223375"><ele>95.0</ele><time>2026-04-03T16:11:05Z</time></trkpt><trkpt lat="45.29087617369911" lon="9.063641884407106"><ele>96.0</ele><time>2026-04-03T16:11:06Z</time></trkpt><trkpt lat="45.29115444009453" lon="9.063743992660001"><ele>96.0</ele><time>2026-04-03T16:11:07Z</time></trkpt><trkpt lat="45.291435212780954" lon="9.063844039762422"><ele>96.0</ele><time>2026-04-03T16:11:08Z</time></trkpt><trkpt lat="45.29171638532923" lon="9.063945428496691"><ele>96.0</ele><time>2026-04-03T16:11:09Z</time></trkpt><trkpt lat="45.29199568798472" lon="9.06404776972997"><ele>96.0</ele><time>2026-04-03T16:11:10Z</time></trkpt><trkpt lat="45.29227191101999" lon="9.064151538008318"><ele>96.0</ele><time>2026-04-03T16:11:11Z</time></trkpt><trkpt lat="45.29254963917396" lon="9.06426037074748"><ele>96.0</ele><time>2026-04-03T16:11:12Z</time></trkpt><trkpt lat="45.292823734639725" lon="9.064381721651445"><ele>94.5</ele><time>2026-04-03T16:11:13Z</time></trkpt><trkpt lat="45.293095082402594" lon="9.064516257721843"><ele>93.0</ele><time>2026-04-03T16:11:14Z</time></trkpt><trkpt lat="45.293360569392235" lon="9.06466329569702"><ele>93.0</ele><time>2026-04-03T16:11:15Z</time></trkpt><trkpt lat="45.29362163967823" lon="9.064825198574727"><ele>93.0</ele><time>2026-04-03T16:11:16Z</time></trkpt><trkpt lat="45.293881258887104" lon="9.064992700901565"><ele>94.0</ele><time>2026-04-03T16:11:17Z</time></trkpt><trkpt lat="45.29413918838037" lon="9.065164527953902"><ele>95.0</ele><time>2026-04-03T16:11:18Z</time></trkpt><trkpt lat="45.29439582587068" lon="9.065339461028692"><ele>95.0</ele><time>2026-04-03T16:11:19Z</time></trkpt><trkpt lat="45.294652600822815" lon="9.065511081100585"><ele>95.0</ele><time>2026-04-03T16:11:20Z</time></trkpt><trkpt lat="45.294911804643725" lon="9.065686645342154"><ele>95.0</ele><time>2026-04-03T16:11:21Z</time></trkpt><trkpt lat="45.29516810306866" lon="9.065858790459654"><ele>95.0</ele><time>2026-04-03T16:11:22Z</time></trkpt><trkpt lat="45.29542564053455" lon="9.066032044685688"><ele>94.5</ele><time>2026-04-03T16:11:23Z</time></trkpt><trkpt lat="45.295684112836376" lon="9.06620540623854"><ele>94.0</ele><time>2026-04-03T16:11:24Z</time></trkpt><trkpt lat="45.295942593493216" lon="9.06637924952764"><ele>94.0</ele><time>2026-04-03T16:11:25Z</time></trkpt><trkpt lat="45.296199659130885" lon="9.066550501308642"><ele>94.0</ele><time>2026-04-03T16:11:26Z</time></trkpt><trkpt lat="45.29645814829372" lon="9.066723008412493"><ele>94.0</ele><time>2026-04-03T16:11:27Z</time></trkpt><trkpt lat="45.29671642963658" lon="9.06689840510668"><ele>94.0</ele><time>2026-04-03T16:11:28Z</time></trkpt><trkpt lat="45.29697432902153" lon="9.067075306561064"><ele>94.0</ele><time>2026-04-03T16:11:29Z</time></trkpt><trkpt lat="45.29723135462115" lon="9.067249699401389"><ele>94.0</ele><time>2026-04-03T16:11:30Z</time></trkpt><trkpt lat="45.29748945333851" lon="9.067424664244394"><ele>94.0</ele><time>2026-04-03T16:11:31Z</time></trkpt><trkpt lat="45.29774927939557" lon="9.067602290816135"><ele>94.0</ele><time>2026-04-03T16:11:32Z</time></trkpt><trkpt lat="45.29800958107526" lon="9.06777517707184"><ele>93.5</ele><time>2026-04-03T16:11:33Z</time></trkpt><trkpt lat="45.2982713362563" lon="9.067947268612356"><ele>93.0</ele><time>2026-04-03T16:11:34Z</time></trkpt><trkpt lat="45.29853294319752" lon="9.068118855753763"><ele>93.5</ele><time>2026-04-03T16:11:35Z</time></trkpt><trkpt lat="45.298794544388706" lon="9.068292689053306"><ele>94.0</ele><time>2026-04-03T16:11:36Z</time></trkpt><trkpt lat="45.299054684949525" lon="9.068466725285173"><ele>94.5</ele><time>2026-04-03T16:11:37Z</time></trkpt><trkpt lat="45.299311904386045" lon="9.068641910184482"><ele>95.0</ele><time>2026-04-03T16:11:38Z</time></trkpt><trkpt lat="45.29957232207407" lon="9.068818901727948"><ele>95.5</ele><time>2026-04-03T16:11:39Z</time></trkpt><trkpt lat="45.29983135339051" lon="9.068994364601402"><ele>96.0</ele><time>2026-04-03T16:11:40Z</time></trkpt><trkpt lat="45.30009086582684" lon="9.069169133079926"><ele>96.0</ele><time>2026-04-03T16:11:41Z</time></trkpt><trkpt lat="45.30034962803229" lon="9.069345004577947"><ele>96.0</ele><time>2026-04-03T16:11:42Z</time></trkpt><trkpt lat="45.30060708303829" lon="9.069518554021121"><ele>96.0</ele><time>2026-04-03T16:11:43Z</time></trkpt><trkpt lat="45.30086614156712" lon="9.069692347491252"><ele>96.0</ele><time>2026-04-03T16:11:44Z</time></trkpt><trkpt lat="45.30112498814624" lon="9.06986532879976"><ele>96.0</ele><time>2026-04-03T16:11:45Z</time></trkpt><trkpt lat="45.301379804893116" lon="9.070035973177836"><ele>96.0</ele><time>2026-04-03T16:11:46Z</time></trkpt><trkpt lat="45.301639411475165" lon="9.070209810001343"><ele>96.0</ele><time>2026-04-03T16:11:47Z</time></trkpt><trkpt lat="45.30189783758399" lon="9.070380174760441"><ele>96.0</ele><time>2026-04-03T16:11:48Z</time></trkpt><trkpt lat="45.302157411045144" lon="9.070550188900073"><ele>96.0</ele><time>2026-04-03T16:11:49Z</time></trkpt><trkpt lat="45.30241483402422" lon="9.070722181733364"><ele>96.0</ele><time>2026-04-03T16:11:50Z</time></trkpt><trkpt lat="45.30267291437022" lon="9.070893625006628"><ele>95.5</ele><time>2026-04-03T16:11:51Z</time></trkpt><trkpt lat="45.30292928295466" lon="9.07106792678574"><ele>95.0</ele><time>2026-04-03T16:11:52Z</time></trkpt><trkpt lat="45.3031859862238" lon="9.071238113789653"><ele>95.0</ele><time>2026-04-03T16:11:53Z</time></trkpt><trkpt lat="45.303443647618884" lon="9.071404884438007"><ele>95.0</ele><time>2026-04-03T16:11:53.999Z</time></trkpt><trkpt lat="45.30369983352796" lon="9.071571017494184"><ele>95.5</ele><time>2026-04-03T16:11:54.999Z</time></trkpt><trkpt lat="45.303956212811414" lon="9.071732074538527"><ele>96.0</ele><time>2026-04-03T16:11:55.999Z</time></trkpt><trkpt lat="45.30421158830935" lon="9.071896452972323"><ele>96.0</ele><time>2026-04-03T16:11:56.999Z</time></trkpt><trkpt lat="45.30446214674921" lon="9.072070750908177"><ele>96.0</ele><time>2026-04-03T16:11:57.999Z</time></trkpt><trkpt lat="45.30470828215722" lon="9.07225228482854"><ele>96.0</ele><time>2026-04-03T16:11:58.999Z</time></trkpt><trkpt lat="45.304960131645096" lon="9.072434382174816"><ele>96.0</ele><time>2026-04-03T16:11:59.999Z</time></trkpt><trkpt lat="45.305214219952504" lon="9.072609825061164"><ele>96.0</ele><time>2026-04-03T16:12:00.999Z</time></trkpt><trkpt lat="45.30546702381763" lon="9.072779183436742"><ele>96.0</ele><time>2026-04-03T16:12:01.999Z</time></trkpt><trkpt lat="45.305723889901756" lon="9.072952304059438"><ele>96.0</ele><time>2026-04-03T16:12:02.999Z</time></trkpt><trkpt lat="45.30597925747437" lon="9.073123642699612"><ele>96.0</ele><time>2026-04-03T16:12:03.999Z</time></trkpt><trkpt lat="45.30623351705367" lon="9.073295807335851"><ele>96.0</ele><time>2026-04-03T16:12:04.999Z</time></trkpt><trkpt lat="45.306491329541885" lon="9.073469167450693"><ele>96.0</ele><time>2026-04-03T16:12:05.999Z</time></trkpt><trkpt lat="45.30674623697424" lon="9.073640482818604"><ele>96.0</ele><time>2026-04-03T16:12:06.999Z</time></trkpt><trkpt lat="45.30700206478149" lon="9.073812224448945"><ele>96.0</ele><time>2026-04-03T16:12:07.999Z</time></trkpt><trkpt lat="45.307258204237925" lon="9.073983312630544"><ele>95.5</ele><time>2026-04-03T16:12:08.999Z</time></trkpt><trkpt lat="45.307514110334054" lon="9.074157531513672"><ele>95.0</ele><time>2026-04-03T16:12:09.999Z</time></trkpt><trkpt lat="45.30776693638744" lon="9.07433111699615"><ele>95.0</ele><time>2026-04-03T16:12:10.999Z</time></trkpt><trkpt lat="45.308019970172886" lon="9.074504084571034"><ele>95.0</ele><time>2026-04-03T16:12:11.999Z</time></trkpt><trkpt lat="45.308273954161535" lon="9.074676972639141"><ele>95.5</ele><time>2026-04-03T16:12:12.999Z</time></trkpt><trkpt lat="45.30852739072937" lon="9.074852192338865"><ele>96.0</ele><time>2026-04-03T16:12:13.999Z</time></trkpt><trkpt lat="45.30877919274097" lon="9.075031523400598"><ele>94.5</ele><time>2026-04-03T16:12:14.999Z</time></trkpt><trkpt lat="45.309027892646796" lon="9.075222074237503"><ele>93.0</ele><time>2026-04-03T16:12:15.999Z</time></trkpt><trkpt lat="45.30927143239557" lon="9.075423541507472"><ele>93.0</ele><time>2026-04-03T16:12:16.999Z</time></trkpt><trkpt lat="45.30951054930594" lon="9.075634304439985"><ele>93.0</ele><time>2026-04-03T16:12:17.999Z</time></trkpt><trkpt lat="45.30974767557034" lon="9.075853137253933"><ele>94.5</ele><time>2026-04-03T16:12:18.999Z</time></trkpt><trkpt lat="45.309982647123555" lon="9.076078143112138"><ele>96.0</ele><time>2026-04-03T16:12:19.999Z</time></trkpt><trkpt lat="45.31021629756794" lon="9.076305681875416"><ele>96.0</ele><time>2026-04-03T16:12:20.999Z</time></trkpt><trkpt lat="45.310449596204236" lon="9.076533832979848"><ele>96.0</ele><time>2026-04-03T16:12:21.999Z</time></trkpt><trkpt lat="45.31068570544173" lon="9.076759511660061"><ele>95.5</ele><time>2026-04-03T16:12:22.999Z</time></trkpt><trkpt lat="45.3109217998689" lon="9.076981901189468"><ele>95.0</ele><time>2026-04-03T16:12:23.999Z</time></trkpt><trkpt lat="45.31115785616028" lon="9.0772098369191"><ele>95.0</ele><time>2026-04-03T16:12:24.999Z</time></trkpt><trkpt lat="45.31139359379493" lon="9.077435394100323"><ele>95.0</ele><time>2026-04-03T16:12:25.999Z</time></trkpt><trkpt lat="45.31163284660324" lon="9.07766266035913"><ele>95.5</ele><time>2026-04-03T16:12:26.999Z</time></trkpt><trkpt lat="45.31187155121313" lon="9.077888729062039"><ele>96.0</ele><time>2026-04-03T16:12:27.999Z</time></trkpt><trkpt lat="45.3121092029862" lon="9.078113681255608"><ele>95.5</ele><time>2026-04-03T16:12:28.999Z</time></trkpt><trkpt lat="45.31234791297928" lon="9.078342373830592"><ele>95.0</ele><time>2026-04-03T16:12:29.999Z</time></trkpt><trkpt lat="45.31258662345385" lon="9.078570180315994"><ele>95.0</ele><time>2026-04-03T16:12:30.999Z</time></trkpt><trkpt lat="45.31282403753243" lon="9.07879903658201"><ele>95.0</ele><time>2026-04-03T16:12:31.999Z</time></trkpt><trkpt lat="45.3130618047865" lon="9.079028724176961"><ele>95.5</ele><time>2026-04-03T16:12:32.999Z</time></trkpt><trkpt lat="45.31329825590739" lon="9.079257419155757"><ele>96.0</ele><time>2026-04-03T16:12:33.999Z</time></trkpt><trkpt lat="45.313537347596125" lon="9.079487039497154"><ele>96.0</ele><time>2026-04-03T16:12:34.999Z</time></trkpt><trkpt lat="45.31377415831564" lon="9.079708458612616"><ele>96.0</ele><time>2026-04-03T16:12:35.999Z</time></trkpt><trkpt lat="45.31401348495476" lon="9.079934032146953"><ele>97.0</ele><time>2026-04-03T16:12:36.999Z</time></trkpt><trkpt lat="45.31425262053131" lon="9.08016078476738"><ele>98.0</ele><time>2026-04-03T16:12:37.999Z</time></trkpt><trkpt lat="45.31449140905233" lon="9.080387201412915"><ele>98.0</ele><time>2026-04-03T16:12:38.999Z</time></trkpt><trkpt lat="45.314729770507114" lon="9.080611088687345"><ele>98.0</ele><time>2026-04-03T16:12:39.999Z</time></trkpt><trkpt lat="45.3149697152504" lon="9.080837879262445"><ele>96.5</ele><time>2026-04-03T16:12:40.999Z</time></trkpt><trkpt lat="45.31520748918788" lon="9.08106367712278"><ele>95.0</ele><time>2026-04-03T16:12:41.999Z</time></trkpt><trkpt lat="45.31544483929434" lon="9.081288878758276"><ele>95.5</ele><time>2026-04-03T16:12:42.999Z</time></trkpt><trkpt lat="45.31568073076835" lon="9.08151477376981"><ele>96.0</ele><time>2026-04-03T16:12:43.999Z</time></trkpt><trkpt lat="45.31591628890508" lon="9.081739825374974"><ele>96.0</ele><time>2026-04-03T16:12:44.999Z</time></trkpt><trkpt lat="45.316150462726135" lon="9.08196441413342"><ele>96.0</ele><time>2026-04-03T16:12:45.999Z</time></trkpt><trkpt lat="45.31638541297858" lon="9.08218989663578"><ele>96.0</ele><time>2026-04-03T16:12:46.999Z</time></trkpt><trkpt lat="45.316619532937565" lon="9.082416024332398"><ele>96.0</ele><time>2026-04-03T16:12:47.999Z</time></trkpt><trkpt lat="45.31685216059508" lon="9.082640747063683"><ele>95.5</ele><time>2026-04-03T16:12:48.999Z</time></trkpt><trkpt lat="45.31708463345816" lon="9.082864847836554"><ele>95.0</ele><time>2026-04-03T16:12:49.999Z</time></trkpt><trkpt lat="45.317320164519174" lon="9.08308929188249"><ele>96.0</ele><time>2026-04-03T16:12:50.999Z</time></trkpt><trkpt lat="45.31755457655732" lon="9.08331247545098"><ele>97.0</ele><time>2026-04-03T16:12:51.999Z</time></trkpt><trkpt lat="45.31779214722678" lon="9.083533829990245"><ele>97.0</ele><time>2026-04-03T16:12:52.999Z</time></trkpt><trkpt lat="45.31802992488154" lon="9.083754326764355"><ele>97.0</ele><time>2026-04-03T16:12:53.999Z</time></trkpt><trkpt lat="45.31826784154696" lon="9.083980067187273"><ele>97.0</ele><time>2026-04-03T16:12:54.999Z</time></trkpt><trkpt lat="45.31850184385295" lon="9.084205145756403"><ele>97.0</ele><time>2026-04-03T16:12:55.999Z</time></trkpt><trkpt lat="45.31873912145127" lon="9.084433742821533"><ele>96.5</ele><time>2026-04-03T16:12:56.999Z</time></trkpt><trkpt lat="45.31897660765446" lon="9.084659914915557"><ele>96.0</ele><time>2026-04-03T16:12:57.999Z</time></trkpt><trkpt lat="45.31921193052628" lon="9.084887669396851"><ele>95.5</ele><time>2026-04-03T16:12:59Z</time></trkpt><trkpt lat="45.31944710888585" lon="9.085115518320935"><ele>95.0</ele><time>2026-04-03T16:13:00Z</time></trkpt><trkpt lat="45.319681065567025" lon="9.085341837090422"><ele>96.0</ele><time>2026-04-03T16:13:01Z</time></trkpt><trkpt lat="45.3199157611393" lon="9.085567194313006"><ele>97.0</ele><time>2026-04-03T16:13:02Z</time></trkpt><trkpt lat="45.32015126180001" lon="9.085792524381656"><ele>97.0</ele><time>2026-04-03T16:13:03Z</time></trkpt><trkpt lat="45.32038419830022" lon="9.08601499852494"><ele>97.0</ele><time>2026-04-03T16:13:04Z</time></trkpt><trkpt lat="45.32061884358763" lon="9.086239886387828"><ele>96.5</ele><time>2026-04-03T16:13:05Z</time></trkpt><trkpt lat="45.320853853794205" lon="9.086460986164344"><ele>96.0</ele><time>2026-04-03T16:13:06Z</time></trkpt><trkpt lat="45.32108964475518" lon="9.086679440182666"><ele>96.0</ele><time>2026-04-03T16:13:07Z</time></trkpt><trkpt lat="45.3213259806574" lon="9.086891323586652"><ele>96.0</ele><time>2026-04-03T16:13:08Z</time></trkpt><trkpt lat="45.32156817591749" lon="9.087095019975925"><ele>96.5</ele><time>2026-04-03T16:13:09Z</time></trkpt><trkpt lat="45.32181320077946" lon="9.087285176130177"><ele>97.0</ele><time>2026-04-03T16:13:10Z</time></trkpt><trkpt lat="45.32206312463901" lon="9.087468024931516"><ele>97.5</ele><time>2026-04-03T16:13:11Z</time></trkpt><trkpt lat="45.322316251462574" lon="9.087641890189792"><ele>98.0</ele><time>2026-04-03T16:13:12Z</time></trkpt><trkpt lat="45.32257099147742" lon="9.087805280727853"><ele>98.0</ele><time>2026-04-03T16:13:13Z</time></trkpt><trkpt lat="45.32282974473871" lon="9.087960860670488"><ele>98.0</ele><time>2026-04-03T16:13:14Z</time></trkpt><trkpt lat="45.32308843366163" lon="9.088109774578289"><ele>98.0</ele><time>2026-04-03T16:13:15Z</time></trkpt><trkpt lat="45.32334899189957" lon="9.088258550005087"><ele>98.0</ele><time>2026-04-03T16:13:16Z</time></trkpt><trkpt lat="45.3236101911977" lon="9.088408180375877"><ele>97.5</ele><time>2026-04-03T16:13:17Z</time></trkpt><trkpt lat="45.32387068908781" lon="9.08855836956408"><ele>97.0</ele><time>2026-04-03T16:13:18Z</time></trkpt><trkpt lat="45.32413051885956" lon="9.088710697733616"><ele>98.0</ele><time>2026-04-03T16:13:19Z</time></trkpt><trkpt lat="45.324390241304755" lon="9.088862015525523"><ele>99.0</ele><time>2026-04-03T16:13:20Z</time></trkpt><trkpt lat="45.324651960198395" lon="9.089011074565597"><ele>99.0</ele><time>2026-04-03T16:13:21Z</time></trkpt><trkpt lat="45.324914464511664" lon="9.089159058436445"><ele>99.0</ele><time>2026-04-03T16:13:22Z</time></trkpt><trkpt lat="45.3251747576042" lon="9.089305704703905"><ele>99.0</ele><time>2026-04-03T16:13:23Z</time></trkpt><trkpt lat="45.32543541480606" lon="9.08945224160631"><ele>99.0</ele><time>2026-04-03T16:13:24Z</time></trkpt><trkpt lat="45.325698546309226" lon="9.089600841968517"><ele>98.5</ele><time>2026-04-03T16:13:25Z</time></trkpt><trkpt lat="45.32595970964021" lon="9.089750301634556"><ele>98.0</ele><time>2026-04-03T16:13:26Z</time></trkpt><trkpt lat="45.32622215086977" lon="9.089901719229987"><ele>99.0</ele><time>2026-04-03T16:13:27Z</time></trkpt><trkpt lat="45.32648464369035" lon="9.090053159551726"><ele>100.0</ele><time>2026-04-03T16:13:28Z</time></trkpt><trkpt lat="45.326744392309024" lon="9.090202758555362"><ele>100.0</ele><time>2026-04-03T16:13:29Z</time></trkpt><trkpt lat="45.32700731249002" lon="9.090347650281863"><ele>100.0</ele><time>2026-04-03T16:13:30Z</time></trkpt><trkpt lat="45.32726822130999" lon="9.090494569230144"><ele>100.5</ele><time>2026-04-03T16:13:31Z</time></trkpt><trkpt lat="45.32752721633325" lon="9.090642596213282"><ele>101.0</ele><time>2026-04-03T16:13:32Z</time></trkpt><trkpt lat="45.32778699157311" lon="9.090796134285716"><ele>100.5</ele><time>2026-04-03T16:13:33Z</time></trkpt><trkpt lat="45.328042894046185" lon="9.090950525138469"><ele>100.0</ele><time>2026-04-03T16:13:34Z</time></trkpt><trkpt lat="45.328301556928345" lon="9.091105195907708"><ele>100.0</ele><time>2026-04-03T16:13:35Z</time></trkpt><trkpt lat="45.3285604357405" lon="9.091257934376197"><ele>100.0</ele><time>2026-04-03T16:13:36Z</time></trkpt><trkpt lat="45.328817162040416" lon="9.091403568930065"><ele>99.5</ele><time>2026-04-03T16:13:37Z</time></trkpt><trkpt lat="45.32907854965528" lon="9.091546889082876"><ele>99.0</ele><time>2026-04-03T16:13:38Z</time></trkpt><trkpt lat="45.32934119896615" lon="9.091691913286057"><ele>99.0</ele><time>2026-04-03T16:13:39Z</time></trkpt><trkpt lat="45.329599973369724" lon="9.091840624435529"><ele>99.0</ele><time>2026-04-03T16:13:40Z</time></trkpt><trkpt lat="45.3298602047107" lon="9.091989950690072"><ele>99.5</ele><time>2026-04-03T16:13:41Z</time></trkpt><trkpt lat="45.330121478202365" lon="9.092139443058302"><ele>100.0</ele><time>2026-04-03T16:13:42Z</time></trkpt><trkpt lat="45.330381192799344" lon="9.092288413683502"><ele>100.0</ele><time>2026-04-03T16:13:43Z</time></trkpt><trkpt lat="45.330642677547004" lon="9.09243750372387"><ele>100.0</ele><time>2026-04-03T16:13:44Z</time></trkpt><trkpt lat="45.330904149100206" lon="9.092584433334194"><ele>100.0</ele><time>2026-04-03T16:13:45Z</time></trkpt><trkpt lat="45.33116536859479" lon="9.092731369779205"><ele>100.0</ele><time>2026-04-03T16:13:46Z</time></trkpt><trkpt lat="45.33142707490855" lon="9.092876816558285"><ele>101.0</ele><time>2026-04-03T16:13:47Z</time></trkpt><trkpt lat="45.3316880825831" lon="9.093023615655843"><ele>102.0</ele><time>2026-04-03T16:13:48Z</time></trkpt><trkpt lat="45.33194936050321" lon="9.09317291431154"><ele>100.5</ele><time>2026-04-03T16:13:49Z</time></trkpt><trkpt lat="45.332209161344615" lon="9.093325573573706"><ele>99.0</ele><time>2026-04-03T16:13:50Z</time></trkpt><trkpt lat="45.33246711355427" lon="9.093475626881148"><ele>99.0</ele><time>2026-04-03T16:13:51Z</time></trkpt><trkpt lat="45.33272546161784" lon="9.09361772134359"><ele>99.0</ele><time>2026-04-03T16:13:52Z</time></trkpt><trkpt lat="45.33297347517249" lon="9.0937553033423"><ele>98.0</ele><time>2026-04-03T16:13:53Z</time></trkpt><trkpt lat="45.333206593775415" lon="9.093885601994169"><ele>97.0</ele><time>2026-04-03T16:13:54Z</time></trkpt><trkpt lat="45.333432080243185" lon="9.094006573999623"><ele>97.5</ele><time>2026-04-03T16:13:55Z</time></trkpt><trkpt lat="45.33366841086125" lon="9.094124195343305"><ele>98.0</ele><time>2026-04-03T16:13:56Z</time></trkpt><trkpt lat="45.333908785875174" lon="9.094251565920505"><ele>99.0</ele><time>2026-04-03T16:13:57Z</time></trkpt><trkpt lat="45.33414957416463" lon="9.094386411286308"><ele>100.0</ele><time>2026-04-03T16:13:57.999Z</time></trkpt><trkpt lat="45.33439151570128" lon="9.094524515022636"><ele>100.0</ele><time>2026-04-03T16:13:58.999Z</time></trkpt><trkpt lat="45.33463556919669" lon="9.094661500470659"><ele>100.0</ele><time>2026-04-03T16:13:59.999Z</time></trkpt><trkpt lat="45.3348791768388" lon="9.094801188453317"><ele>100.0</ele><time>2026-04-03T16:14:00.999Z</time></trkpt><trkpt lat="45.33512182291613" lon="9.09494473401371"><ele>100.0</ele><time>2026-04-03T16:14:01.999Z</time></trkpt><trkpt lat="45.335366682286114" lon="9.09509035546076"><ele>100.0</ele><time>2026-04-03T16:14:02.999Z</time></trkpt><trkpt lat="45.3356114746862" lon="9.095242052877182"><ele>100.0</ele><time>2026-04-03T16:14:03.999Z</time></trkpt><trkpt lat="45.33585462648527" lon="9.095404075338791"><ele>100.0</ele><time>2026-04-03T16:14:04.999Z</time></trkpt><trkpt lat="45.336096836919225" lon="9.095574189558231"><ele>100.0</ele><time>2026-04-03T16:14:05.999Z</time></trkpt><trkpt lat="45.33633969003441" lon="9.095747482867305"><ele>100.5</ele><time>2026-04-03T16:14:06.999Z</time></trkpt><trkpt lat="45.33658167553777" lon="9.09592641537494"><ele>101.0</ele><time>2026-04-03T16:14:07.999Z</time></trkpt><trkpt lat="45.33682160589841" lon="9.096113317551143"><ele>101.0</ele><time>2026-04-03T16:14:08.999Z</time></trkpt><trkpt lat="45.3370587059921" lon="9.096304558636232"><ele>101.0</ele><time>2026-04-03T16:14:09.999Z</time></trkpt><trkpt lat="45.33729214976025" lon="9.09650055534151"><ele>100.0</ele><time>2026-04-03T16:14:10.999Z</time></trkpt><trkpt lat="45.337525759878865" lon="9.09670066790829"><ele>99.0</ele><time>2026-04-03T16:14:11.999Z</time></trkpt><trkpt lat="45.33775724207504" lon="9.096899628622246"><ele>99.0</ele><time>2026-04-03T16:14:12.999Z</time></trkpt><trkpt lat="45.33798918178109" lon="9.09710180415876"><ele>99.0</ele><time>2026-04-03T16:14:13.999Z</time></trkpt><trkpt lat="45.33821899332446" lon="9.097302585021641"><ele>99.0</ele><time>2026-04-03T16:14:14.999Z</time></trkpt><trkpt lat="45.33844660679654" lon="9.097507222772027"><ele>99.0</ele><time>2026-04-03T16:14:15.999Z</time></trkpt><trkpt lat="45.33867331686623" lon="9.097715640791861"><ele>98.5</ele><time>2026-04-03T16:14:16.999Z</time></trkpt><trkpt lat="45.33890018630924" lon="9.09792793572659"><ele>98.0</ele><time>2026-04-03T16:14:17.999Z</time></trkpt><trkpt lat="45.33912451504441" lon="9.098145388895016"><ele>97.5</ele><time>2026-04-03T16:14:18.999Z</time></trkpt><trkpt lat="45.3393486688882" lon="9.098358044751318"><ele>97.0</ele><time>2026-04-03T16:14:19.999Z</time></trkpt><trkpt lat="45.33957632644197" lon="9.098569011953124"><ele>98.0</ele><time>2026-04-03T16:14:20.999Z</time></trkpt><trkpt lat="45.33980108288587" lon="9.098779983018746"><ele>99.0</ele><time>2026-04-03T16:14:21.999Z</time></trkpt><trkpt lat="45.34002699339239" lon="9.098994838216404"><ele>98.0</ele><time>2026-04-03T16:14:22.999Z</time></trkpt><trkpt lat="45.34025426481094" lon="9.09920900683729"><ele>97.0</ele><time>2026-04-03T16:14:23.999Z</time></trkpt><trkpt lat="45.34048208402907" lon="9.09942344571128"><ele>98.5</ele><time>2026-04-03T16:14:24.999Z</time></trkpt><trkpt lat="45.34071026486614" lon="9.099637841541904"><ele>100.0</ele><time>2026-04-03T16:14:25.999Z</time></trkpt><trkpt lat="45.34093693342826" lon="9.099850949677517"><ele>100.0</ele><time>2026-04-03T16:14:26.999Z</time></trkpt><trkpt lat="45.34116573361697" lon="9.10006573173551"><ele>100.0</ele><time>2026-04-03T16:14:27.999Z</time></trkpt><trkpt lat="45.34139636965213" lon="9.1002787896692"><ele>100.0</ele><time>2026-04-03T16:14:28.999Z</time></trkpt><trkpt lat="45.34162450434713" lon="9.100497218215585"><ele>100.0</ele><time>2026-04-03T16:14:29.999Z</time></trkpt><trkpt lat="45.34185384556784" lon="9.100717227243786"><ele>99.5</ele><time>2026-04-03T16:14:30.999Z</time></trkpt><trkpt lat="45.34208465561731" lon="9.10093701812408"><ele>99.0</ele><time>2026-04-03T16:14:31.999Z</time></trkpt><trkpt lat="45.34231455546115" lon="9.101160590085312"><ele>98.5</ele><time>2026-04-03T16:14:32.999Z</time></trkpt><trkpt lat="45.34254424032854" lon="9.10138567922018"><ele>98.0</ele><time>2026-04-03T16:14:33.999Z</time></trkpt><trkpt lat="45.34277523313219" lon="9.101611850343504"><ele>98.0</ele><time>2026-04-03T16:14:34.999Z</time></trkpt><trkpt lat="45.343009982132024" lon="9.10183590444366"><ele>98.0</ele><time>2026-04-03T16:14:35.999Z</time></trkpt><trkpt lat="45.343244984137506" lon="9.102057674659235"><ele>97.5</ele><time>2026-04-03T16:14:36.999Z</time></trkpt><trkpt lat="45.34348240215962" lon="9.102282155289384"><ele>97.0</ele><time>2026-04-03T16:14:37.999Z</time></trkpt><trkpt lat="45.343718599194375" lon="9.102506166749974"><ele>97.5</ele><time>2026-04-03T16:14:38.999Z</time></trkpt><trkpt lat="45.343957698887785" lon="9.102726032828972"><ele>98.0</ele><time>2026-04-03T16:14:39.999Z</time></trkpt><trkpt lat="45.34419728230906" lon="9.102943367558439"><ele>98.0</ele><time>2026-04-03T16:14:40.999Z</time></trkpt><trkpt lat="45.34444107049008" lon="9.10316314768642"><ele>98.0</ele><time>2026-04-03T16:14:41.999Z</time></trkpt><trkpt lat="45.3446853927722" lon="9.103381733998484"><ele>98.0</ele><time>2026-04-03T16:14:42.999Z</time></trkpt><trkpt lat="45.34492846843063" lon="9.103598223072492"><ele>98.0</ele><time>2026-04-03T16:14:43.999Z</time></trkpt><trkpt lat="45.34517121210848" lon="9.103817404735707"><ele>98.0</ele><time>2026-04-03T16:14:44.999Z</time></trkpt><trkpt lat="45.34541394608195" lon="9.1040386461206"><ele>98.0</ele><time>2026-04-03T16:14:45.999Z</time></trkpt><trkpt lat="45.34565648570733" lon="9.104259284393319"><ele>97.5</ele><time>2026-04-03T16:14:46.999Z</time></trkpt><trkpt lat="45.345898774373865" lon="9.1044799465697"><ele>97.0</ele><time>2026-04-03T16:14:47.999Z</time></trkpt><trkpt lat="45.34613945753056" lon="9.104699203015377"><ele>96.5</ele><time>2026-04-03T16:14:48.999Z</time></trkpt><trkpt lat="45.346382413137185" lon="9.104917041933417"><ele>96.0</ele><time>2026-04-03T16:14:49.999Z</time></trkpt><trkpt lat="45.34662592732112" lon="9.10513383727122"><ele>96.0</ele><time>2026-04-03T16:14:50.999Z</time></trkpt><trkpt lat="45.34687166485775" lon="9.105347837803428"><ele>96.0</ele><time>2026-04-03T16:14:51.999Z</time></trkpt><trkpt lat="45.347117066469764" lon="9.105555158363003"><ele>97.0</ele><time>2026-04-03T16:14:52.999Z</time></trkpt><trkpt lat="45.347362310832544" lon="9.105762999042001"><ele>98.0</ele><time>2026-04-03T16:14:53.999Z</time></trkpt><trkpt lat="45.347606314991516" lon="9.105970268184896"><ele>98.0</ele><time>2026-04-03T16:14:54.999Z</time></trkpt><trkpt lat="45.34784995849529" lon="9.106176246981327"><ele>98.0</ele><time>2026-04-03T16:14:55.999Z</time></trkpt><trkpt lat="45.34809347283491" lon="9.1063796222954"><ele>98.0</ele><time>2026-04-03T16:14:56.999Z</time></trkpt><trkpt lat="45.34833580398595" lon="9.106585522901677"><ele>98.0</ele><time>2026-04-03T16:14:57.999Z</time></trkpt><trkpt lat="45.34857810813478" lon="9.10679047109469"><ele>98.0</ele><time>2026-04-03T16:14:58.999Z</time></trkpt><trkpt lat="45.348818678762406" lon="9.106995643117099"><ele>98.0</ele><time>2026-04-03T16:14:59.999Z</time></trkpt><trkpt lat="45.34906011191279" lon="9.107197158870818"><ele>98.5</ele><time>2026-04-03T16:15:00.999Z</time></trkpt><trkpt lat="45.349301391359866" lon="9.107399335835437"><ele>99.0</ele><time>2026-04-03T16:15:01.999Z</time></trkpt><trkpt lat="45.34954346495005" lon="9.107604340925619"><ele>98.0</ele><time>2026-04-03T16:15:02.999Z</time></trkpt><trkpt lat="45.349784408156545" lon="9.107808971628854"><ele>97.0</ele><time>2026-04-03T16:15:03.999Z</time></trkpt><trkpt lat="45.35002528427895" lon="9.108011973348452"><ele>97.0</ele><time>2026-04-03T16:15:05Z</time></trkpt><trkpt lat="45.350266203487074" lon="9.108214386755511"><ele>97.0</ele><time>2026-04-03T16:15:06Z</time></trkpt><trkpt lat="45.350506375804784" lon="9.108418086683889"><ele>97.0</ele><time>2026-04-03T16:15:07Z</time></trkpt><trkpt lat="45.350744779995885" lon="9.108622391366257"><ele>97.0</ele><time>2026-04-03T16:15:08Z</time></trkpt><trkpt lat="45.35098175449048" lon="9.10882484961233"><ele>97.0</ele><time>2026-04-03T16:15:09Z</time></trkpt><trkpt lat="45.351218977509745" lon="9.109026362273516"><ele>97.0</ele><time>2026-04-03T16:15:10Z</time></trkpt><trkpt lat="45.35145671169453" lon="9.109228108216447"><ele>98.0</ele><time>2026-04-03T16:15:11Z</time></trkpt><trkpt lat="45.35169401601134" lon="9.109430238029073"><ele>99.0</ele><time>2026-04-03T16:15:12Z</time></trkpt><trkpt lat="45.35193206026131" lon="9.109632054049001"><ele>99.0</ele><time>2026-04-03T16:15:13Z</time></trkpt><trkpt lat="45.35217112343861" lon="9.10983398559607"><ele>99.0</ele><time>2026-04-03T16:15:14Z</time></trkpt><trkpt lat="45.352407892318006" lon="9.110033322391725"><ele>99.0</ele><time>2026-04-03T16:15:15Z</time></trkpt><trkpt lat="45.35264692732044" lon="9.110234768094921"><ele>99.0</ele><time>2026-04-03T16:15:16Z</time></trkpt><trkpt lat="45.352884501184626" lon="9.110437311534215"><ele>99.0</ele><time>2026-04-03T16:15:17Z</time></trkpt><trkpt lat="45.353123438115155" lon="9.110642400159719"><ele>99.0</ele><time>2026-04-03T16:15:18Z</time></trkpt><trkpt lat="45.35335949843129" lon="9.110846697980461"><ele>99.5</ele><time>2026-04-03T16:15:18.999Z</time></trkpt><trkpt lat="45.353598254878285" lon="9.111051444409691"><ele>100.0</ele><time>2026-04-03T16:15:19.999Z</time></trkpt><trkpt lat="45.35383538053166" lon="9.111252519229579"><ele>100.0</ele><time>2026-04-03T16:15:21Z</time></trkpt><trkpt lat="45.35407700986521" lon="9.111455698060793"><ele>100.0</ele><time>2026-04-03T16:15:22Z</time></trkpt><trkpt lat="45.354318593466196" lon="9.111659858087844"><ele>100.0</ele><time>2026-04-03T16:15:23Z</time></trkpt><trkpt lat="45.354560089683375" lon="9.11186283403858"><ele>100.0</ele><time>2026-04-03T16:15:24Z</time></trkpt><trkpt lat="45.354807022840895" lon="9.112067118340532"><ele>99.5</ele><time>2026-04-03T16:15:25Z</time></trkpt><trkpt lat="45.35505605828486" lon="9.112273788589278"><ele>99.0</ele><time>2026-04-03T16:15:26Z</time></trkpt><trkpt lat="45.355304062086724" lon="9.112480247509813"><ele>100.0</ele><time>2026-04-03T16:15:27Z</time></trkpt><trkpt lat="45.35555330999515" lon="9.112690849438543"><ele>101.0</ele><time>2026-04-03T16:15:28Z</time></trkpt><trkpt lat="45.35580174428368" lon="9.11290159728682"><ele>101.0</ele><time>2026-04-03T16:15:29Z</time></trkpt><trkpt lat="45.35605193964031" lon="9.113114298664742"><ele>101.0</ele><time>2026-04-03T16:15:30Z</time></trkpt><trkpt lat="45.35630505584643" lon="9.11332838108018"><ele>100.5</ele><time>2026-04-03T16:15:31Z</time></trkpt><trkpt lat="45.35655940273667" lon="9.113543057222573"><ele>100.0</ele><time>2026-04-03T16:15:32Z</time></trkpt><trkpt lat="45.35681285330997" lon="9.1137580050099"><ele>100.0</ele><time>2026-04-03T16:15:33Z</time></trkpt><trkpt lat="45.35706736463948" lon="9.113972468888058"><ele>100.0</ele><time>2026-04-03T16:15:34Z</time></trkpt><trkpt lat="45.357322105273326" lon="9.114191104446263"><ele>100.5</ele><time>2026-04-03T16:15:35Z</time></trkpt><trkpt lat="45.35757672618414" lon="9.114410855765987"><ele>101.0</ele><time>2026-04-03T16:15:36Z</time></trkpt><trkpt lat="45.35783402445124" lon="9.114630157525145"><ele>101.0</ele><time>2026-04-03T16:15:37Z</time></trkpt><trkpt lat="45.358089668426764" lon="9.114845402467122"><ele>101.0</ele><time>2026-04-03T16:15:38Z</time></trkpt><trkpt lat="45.358348034459" lon="9.115061335007777"><ele>101.5</ele><time>2026-04-03T16:15:38.999Z</time></trkpt><trkpt lat="45.358604307983384" lon="9.115277484614026"><ele>102.0</ele><time>2026-04-03T16:15:39.999Z</time></trkpt><trkpt lat="45.358858583302855" lon="9.11549336148818"><ele>102.0</ele><time>2026-04-03T16:15:40.999Z</time></trkpt><trkpt lat="45.35911244246522" lon="9.115709177585655"><ele>102.0</ele><time>2026-04-03T16:15:41.999Z</time></trkpt><trkpt lat="45.359365831240346" lon="9.115922248140073"><ele>102.0</ele><time>2026-04-03T16:15:42.999Z</time></trkpt><trkpt lat="45.359617283046994" lon="9.116133824945464"><ele>102.0</ele><time>2026-04-03T16:15:43.999Z</time></trkpt><trkpt lat="45.359868291653136" lon="9.116345156100628"><ele>100.0</ele><time>2026-04-03T16:15:44.999Z</time></trkpt><trkpt lat="45.360119083318985" lon="9.11655729967752"><ele>98.0</ele><time>2026-04-03T16:15:45.999Z</time></trkpt><trkpt lat="45.36036913178204" lon="9.11677001417144"><ele>98.5</ele><time>2026-04-03T16:15:46.999Z</time></trkpt><trkpt lat="45.36061675889153" lon="9.116985785218565"><ele>99.0</ele><time>2026-04-03T16:15:47.999Z</time></trkpt><trkpt lat="45.36086476208182" lon="9.11720051015299"><ele>99.5</ele><time>2026-04-03T16:15:48.999Z</time></trkpt><trkpt lat="45.36111242813173" lon="9.11741923661068"><ele>100.0</ele><time>2026-04-03T16:15:49.999Z</time></trkpt><trkpt lat="45.36135493040973" lon="9.117641344849236"><ele>100.0</ele><time>2026-04-03T16:15:50.999Z</time></trkpt><trkpt lat="45.361594303251785" lon="9.117870120661507"><ele>100.0</ele><time>2026-04-03T16:15:51.999Z</time></trkpt><trkpt lat="45.361833006180944" lon="9.118102235002999"><ele>100.5</ele><time>2026-04-03T16:15:52.999Z</time></trkpt><trkpt lat="45.36207046434432" lon="9.118335267434725"><ele>101.0</ele><time>2026-04-03T16:15:53.999Z</time></trkpt><trkpt lat="45.36230916259406" lon="9.118563275015273"><ele>102.0</ele><time>2026-04-03T16:15:54.999Z</time></trkpt><trkpt lat="45.36254846151069" lon="9.118790019781631"><ele>103.0</ele><time>2026-04-03T16:15:55.999Z</time></trkpt><trkpt lat="45.36278955794947" lon="9.119013453519768"><ele>102.5</ele><time>2026-04-03T16:15:56.999Z</time></trkpt><trkpt lat="45.36303095672891" lon="9.119238895489255"><ele>102.0</ele><time>2026-04-03T16:15:57.999Z</time></trkpt><trkpt lat="45.36327097386611" lon="9.119468576587606"><ele>102.0</ele><time>2026-04-03T16:15:58.999Z</time></trkpt><trkpt lat="45.36351311989412" lon="9.119700097987046"><ele>102.0</ele><time>2026-04-03T16:15:59.999Z</time></trkpt><trkpt lat="45.36375320346311" lon="9.119928200878709"><ele>101.0</ele><time>2026-04-03T16:16:00.999Z</time></trkpt><trkpt lat="45.36399538862596" lon="9.1201569626746"><ele>100.0</ele><time>2026-04-03T16:16:01.999Z</time></trkpt><trkpt lat="45.36423825532308" lon="9.120384481872076"><ele>100.0</ele><time>2026-04-03T16:16:02.999Z</time></trkpt><trkpt lat="45.36447890504912" lon="9.120612035584676"><ele>100.0</ele><time>2026-04-03T16:16:03.999Z</time></trkpt><trkpt lat="45.36471911526372" lon="9.120840072378133"><ele>100.0</ele><time>2026-04-03T16:16:04.999Z</time></trkpt><trkpt lat="45.3649622054698" lon="9.12106931353485"><ele>100.0</ele><time>2026-04-03T16:16:05.999Z</time></trkpt><trkpt lat="45.36520456333086" lon="9.121299215833425"><ele>100.0</ele><time>2026-04-03T16:16:06.999Z</time></trkpt><trkpt lat="45.365447074777464" lon="9.121528971972468"><ele>100.0</ele><time>2026-04-03T16:16:07.999Z</time></trkpt><trkpt lat="45.36568775612287" lon="9.121759791395093"><ele>101.0</ele><time>2026-04-03T16:16:08.999Z</time></trkpt><trkpt lat="45.36592943342317" lon="9.121992070548885"><ele>102.0</ele><time>2026-04-03T16:16:09.999Z</time></trkpt><trkpt lat="45.36617269128896" lon="9.122223522811007"><ele>102.0</ele><time>2026-04-03T16:16:10.999Z</time></trkpt><trkpt lat="45.36641727653334" lon="9.122454714945249"><ele>102.0</ele><time>2026-04-03T16:16:11.999Z</time></trkpt><trkpt lat="45.3666612641253" lon="9.122682730881094"><ele>102.0</ele><time>2026-04-03T16:16:12.999Z</time></trkpt><trkpt lat="45.36690341018171" lon="9.122910831604381"><ele>102.0</ele><time>2026-04-03T16:16:13.999Z</time></trkpt><trkpt lat="45.367144242502796" lon="9.123136728247431"><ele>101.5</ele><time>2026-04-03T16:16:14.999Z</time></trkpt><trkpt lat="45.367383255278185" lon="9.123364851936694"><ele>101.0</ele><time>2026-04-03T16:16:15.999Z</time></trkpt><trkpt lat="45.367623262414554" lon="9.123591949676255"><ele>101.0</ele><time>2026-04-03T16:16:16.999Z</time></trkpt><trkpt lat="45.36786402132573" lon="9.123819532100478"><ele>101.0</ele><time>2026-04-03T16:16:17.999Z</time></trkpt><trkpt lat="45.36810794935472" lon="9.12404808089618"><ele>102.0</ele><time>2026-04-03T16:16:18.999Z</time></trkpt><trkpt lat="45.36834967305306" lon="9.124277694692177"><ele>103.0</ele><time>2026-04-03T16:16:19.999Z</time></trkpt><trkpt lat="45.36859127599637" lon="9.12450434407639"><ele>103.0</ele><time>2026-04-03T16:16:20.999Z</time></trkpt><trkpt lat="45.36883362251007" lon="9.124733956790188"><ele>103.0</ele><time>2026-04-03T16:16:21.999Z</time></trkpt><trkpt lat="45.36907438805262" lon="9.124966130561166"><ele>102.0</ele><time>2026-04-03T16:16:22.999Z</time></trkpt><trkpt lat="45.369313634587044" lon="9.12519818068126"><ele>101.0</ele><time>2026-04-03T16:16:23.999Z</time></trkpt><trkpt lat="45.36955542213578" lon="9.12542670062597"><ele>100.5</ele><time>2026-04-03T16:16:24.999Z</time></trkpt><trkpt lat="45.36980004298305" lon="9.125654083738803"><ele>100.0</ele><time>2026-04-03T16:16:25.999Z</time></trkpt><trkpt lat="45.37004460471132" lon="9.125881381097514"><ele>99.0</ele><time>2026-04-03T16:16:26.999Z</time></trkpt><trkpt lat="45.37028894639067" lon="9.126109748454354"><ele>98.0</ele><time>2026-04-03T16:16:27.999Z</time></trkpt><trkpt lat="45.37053421183936" lon="9.126338240464312"><ele>99.0</ele><time>2026-04-03T16:16:28.999Z</time></trkpt><trkpt lat="45.37077603688378" lon="9.12656933512478"><ele>100.0</ele><time>2026-04-03T16:16:29.999Z</time></trkpt><trkpt lat="45.37102013910265" lon="9.126801042157883"><ele>100.0</ele><time>2026-04-03T16:16:30.999Z</time></trkpt><trkpt lat="45.37126159056079" lon="9.127033027205371"><ele>100.0</ele><time>2026-04-03T16:16:31.999Z</time></trkpt><trkpt lat="45.37150503399286" lon="9.127264230754394"><ele>100.5</ele><time>2026-04-03T16:16:32.999Z</time></trkpt><trkpt lat="45.37174598421163" lon="9.127490391734193"><ele>101.0</ele><time>2026-04-03T16:16:33.999Z</time></trkpt><trkpt lat="45.37198942907984" lon="9.127718235115157"><ele>101.0</ele><time>2026-04-03T16:16:34.999Z</time></trkpt><trkpt lat="45.37223196286504" lon="9.127945533456627"><ele>101.0</ele><time>2026-04-03T16:16:35.999Z</time></trkpt><trkpt lat="45.372474415778775" lon="9.128173036831594"><ele>100.5</ele><time>2026-04-03T16:16:36.999Z</time></trkpt><trkpt lat="45.372716708351376" lon="9.128401540271657"><ele>100.0</ele><time>2026-04-03T16:16:37.999Z</time></trkpt><trkpt lat="45.372962130758" lon="9.12862397817803"><ele>99.5</ele><time>2026-04-03T16:16:38.999Z</time></trkpt><trkpt lat="45.373206056161024" lon="9.128839728294194"><ele>99.0</ele><time>2026-04-03T16:16:39.999Z</time></trkpt><trkpt lat="45.373452076852594" lon="9.12905947309471"><ele>101.0</ele><time>2026-04-03T16:16:40.999Z</time></trkpt><trkpt lat="45.37369443789869" lon="9.129277177420663"><ele>103.0</ele><time>2026-04-03T16:16:41.999Z</time></trkpt><trkpt lat="45.373936926239026" lon="9.129491869096785"><ele>103.0</ele><time>2026-04-03T16:16:42.999Z</time></trkpt><trkpt lat="45.37418248363797" lon="9.129699452475153"><ele>103.0</ele><time>2026-04-03T16:16:43.999Z</time></trkpt><trkpt lat="45.37442885728798" lon="9.129901178618503"><ele>102.5</ele><time>2026-04-03T16:16:44.999Z</time></trkpt><trkpt lat="45.37467959652387" lon="9.13009725189327"><ele>102.0</ele><time>2026-04-03T16:16:45.999Z</time></trkpt><trkpt lat="45.374927911509474" lon="9.130287633834627"><ele>101.5</ele><time>2026-04-03T16:16:46.999Z</time></trkpt><trkpt lat="45.375178936507986" lon="9.13047064412374"><ele>101.0</ele><time>2026-04-03T16:16:47.999Z</time></trkpt><trkpt lat="45.37543228821161" lon="9.130649194336732"><ele>101.0</ele><time>2026-04-03T16:16:48.999Z</time></trkpt><trkpt lat="45.37568778702977" lon="9.13082269470987"><ele>101.0</ele><time>2026-04-03T16:16:49.999Z</time></trkpt><trkpt lat="45.375944166242085" lon="9.130991006827431"><ele>101.0</ele><time>2026-04-03T16:16:50.999Z</time></trkpt><trkpt lat="45.376201637366705" lon="9.131154030523957"><ele>101.0</ele><time>2026-04-03T16:16:51.999Z</time></trkpt><trkpt lat="45.376460204053615" lon="9.131311721328414"><ele>101.0</ele><time>2026-04-03T16:16:52.999Z</time></trkpt><trkpt lat="45.37671844798085" lon="9.131462643296654"><ele>101.0</ele><time>2026-04-03T16:16:53.999Z</time></trkpt><trkpt lat="45.37697599370446" lon="9.131612498396096"><ele>100.5</ele><time>2026-04-03T16:16:54.999Z</time></trkpt><trkpt lat="45.37723265345904" lon="9.131766383089644"><ele>100.0</ele><time>2026-04-03T16:16:55.999Z</time></trkpt><trkpt lat="45.37748794747251" lon="9.131920561960095"><ele>100.0</ele><time>2026-04-03T16:16:56.999Z</time></trkpt><trkpt lat="45.37774542943637" lon="9.132073575901547"><ele>100.0</ele><time>2026-04-03T16:16:57.999Z</time></trkpt><trkpt lat="45.37800129047367" lon="9.132226041953"><ele>101.5</ele><time>2026-04-03T16:16:58.999Z</time></trkpt><trkpt lat="45.37825808455368" lon="9.132376920264406"><ele>103.0</ele><time>2026-04-03T16:16:59.999Z</time></trkpt><trkpt lat="45.378515548893745" lon="9.132526887322163"><ele>103.0</ele><time>2026-04-03T16:17:00.999Z</time></trkpt><trkpt lat="45.37877116399468" lon="9.13267660461268"><ele>103.0</ele><time>2026-04-03T16:17:01.999Z</time></trkpt><trkpt lat="45.37902673829893" lon="9.132827188124432"><ele>102.0</ele><time>2026-04-03T16:17:02.999Z</time></trkpt><trkpt lat="45.37928326183924" lon="9.132980434598071"><ele>101.0</ele><time>2026-04-03T16:17:03.999Z</time></trkpt><trkpt lat="45.3795381543498" lon="9.133136461599893"><ele>101.5</ele><time>2026-04-03T16:17:04.999Z</time></trkpt><trkpt lat="45.37979162460458" lon="9.133296212234004"><ele>102.0</ele><time>2026-04-03T16:17:05.999Z</time></trkpt><trkpt lat="45.38004748792167" lon="9.133457496006233"><ele>102.0</ele><time>2026-04-03T16:17:06.999Z</time></trkpt><trkpt lat="45.38030156515956" lon="9.133617188706866"><ele>102.0</ele><time>2026-04-03T16:17:07.999Z</time></trkpt><trkpt lat="45.38055730069687" lon="9.133771298336443"><ele>102.0</ele><time>2026-04-03T16:17:08.999Z</time></trkpt><trkpt lat="45.38081349214809" lon="9.133922630134942"><ele>102.0</ele><time>2026-04-03T16:17:09.999Z</time></trkpt><trkpt lat="45.38107069198867" lon="9.13407318524346"><ele>101.5</ele><time>2026-04-03T16:17:11Z</time></trkpt><trkpt lat="45.381328851708574" lon="9.134224129602305"><ele>101.0</ele><time>2026-04-03T16:17:12Z</time></trkpt><trkpt lat="45.381585791818665" lon="9.134375283741594"><ele>102.0</ele><time>2026-04-03T16:17:13Z</time></trkpt><trkpt lat="45.38184201220256" lon="9.134526966368023"><ele>103.0</ele><time>2026-04-03T16:17:14Z</time></trkpt><trkpt lat="45.38209793780041" lon="9.134679981367462"><ele>102.0</ele><time>2026-04-03T16:17:15Z</time></trkpt><trkpt lat="45.38235287198863" lon="9.13483421219727"><ele>101.0</ele><time>2026-04-03T16:17:16Z</time></trkpt><trkpt lat="45.38260733759215" lon="9.134986578377882"><ele>101.0</ele><time>2026-04-03T16:17:17Z</time></trkpt><trkpt lat="45.38286279288173" lon="9.135139383772081"><ele>101.0</ele><time>2026-04-03T16:17:18Z</time></trkpt><trkpt lat="45.383117648254085" lon="9.13529094138942"><ele>101.0</ele><time>2026-04-03T16:17:19Z</time></trkpt><trkpt lat="45.38337330671431" lon="9.135440097873367"><ele>101.0</ele><time>2026-04-03T16:17:20Z</time></trkpt><trkpt lat="45.38362733644211" lon="9.135588536976282"><ele>100.5</ele><time>2026-04-03T16:17:21Z</time></trkpt><trkpt lat="45.38388017727679" lon="9.135737668529487"><ele>100.0</ele><time>2026-04-03T16:17:22Z</time></trkpt><trkpt lat="45.3841314760536" lon="9.135885719286671"><ele>100.0</ele><time>2026-04-03T16:17:23Z</time></trkpt><trkpt lat="45.38438175673835" lon="9.136031575343852"><ele>100.0</ele><time>2026-04-03T16:17:24Z</time></trkpt><trkpt lat="45.38463095371929" lon="9.13618004914631"><ele>99.5</ele><time>2026-04-03T16:17:25Z</time></trkpt><trkpt lat="45.384876132881956" lon="9.13632965346729"><ele>99.0</ele><time>2026-04-03T16:17:26Z</time></trkpt><trkpt lat="45.38511332724424" lon="9.136478523296812"><ele>99.5</ele><time>2026-04-03T16:17:27Z</time></trkpt><trkpt lat="45.38533073924249" lon="9.136624769465643"><ele>100.0</ele><time>2026-04-03T16:17:28Z</time></trkpt><trkpt lat="45.385552423642245" lon="9.136745019723415"><ele>100.5</ele><time>2026-04-03T16:17:29Z</time></trkpt><trkpt lat="45.385772784804885" lon="9.136875308172248"><ele>101.0</ele><time>2026-04-03T16:17:30Z</time></trkpt><trkpt lat="45.38599188677167" lon="9.137006368894474"><ele>101.0</ele><time>2026-04-03T16:17:31Z</time></trkpt><trkpt lat="45.386203452358544" lon="9.137138065639814"><ele>101.0</ele><time>2026-04-03T16:17:32Z</time></trkpt><trkpt lat="45.386411856554645" lon="9.137280408781587"><ele>101.33333333333333</ele><time>2026-04-03T16:17:33Z</time></trkpt><trkpt lat="45.3866090419719" lon="9.137420372533894"><ele>101.66666666666666</ele><time>2026-04-03T16:17:34Z</time></trkpt><trkpt lat="45.386792660644986" lon="9.137547682681566"><ele>102.0</ele><time>2026-04-03T16:17:35Z</time></trkpt><trkpt lat="45.38697945548337" lon="9.137688942540501"><ele>102.0</ele><time>2026-04-03T16:17:36Z</time></trkpt><trkpt lat="45.38714825447561" lon="9.137825864339248"><ele>102.0</ele><time>2026-04-03T16:17:37Z</time></trkpt><trkpt lat="45.3873075390914" lon="9.137953272526918"><ele>102.0</ele><time>2026-04-03T16:17:38Z</time></trkpt><trkpt lat="45.38746157256116" lon="9.138076188135079"><ele>102.0</ele><time>2026-04-03T16:17:39Z</time></trkpt><trkpt lat="45.38760910313373" lon="9.138191707402765"><ele>102.0</ele><time>2026-04-03T16:17:40Z</time></trkpt><trkpt lat="45.38774963951532" lon="9.138300335444718"><ele>102.0</ele><time>2026-04-03T16:17:41Z</time></trkpt><trkpt lat="45.38788461496921" lon="9.138401217909696"><ele>101.66666666666666</ele><time>2026-04-03T16:17:42Z</time></trkpt><trkpt lat="45.38802156914806" lon="9.138502509239814"><ele>101.33333333333333</ele><time>2026-04-03T16:17:43Z</time></trkpt><trkpt lat="45.388162286396195" lon="9.138604605109458"><ele>101.0</ele><time>2026-04-03T16:17:44Z</time></trkpt><trkpt lat="45.38819885896188" lon="9.138995023716609"><ele>101.5</ele><time>2026-04-03T16:17:45Z</time></trkpt><trkpt lat="45.388332717468636" lon="9.139092838380723"><ele>102.0</ele><time>2026-04-03T16:17:46Z</time></trkpt><trkpt lat="45.38845930780811" lon="9.13917991310129"><ele>102.5</ele><time>2026-04-03T16:17:47Z</time></trkpt><trkpt lat="45.38857874203187" lon="9.139256598535743"><ele>103.0</ele><time>2026-04-03T16:17:48Z</time></trkpt><trkpt lat="45.38862968767776" lon="9.139509397328565"><ele>103.0</ele><time>2026-04-03T16:17:49Z</time></trkpt><trkpt lat="45.38872794018404" lon="9.139563137702954"><ele>103.0</ele><time>2026-04-03T16:17:50Z</time></trkpt><trkpt lat="45.38879608979802" lon="9.139599747004356"><ele>103.0</ele><time>2026-04-03T16:17:51Z</time></trkpt><trkpt lat="45.3889131848639" lon="9.13966519986733"><ele>103.0</ele><time>2026-04-03T16:17:53Z</time></trkpt><trkpt lat="45.38899118247004" lon="9.139706602435465"><ele>103.0</ele><time>2026-04-03T16:17:54Z</time></trkpt><trkpt lat="45.389071466313766" lon="9.1397445010376"><ele>102.83333333333334</ele><time>2026-04-03T16:17:55Z</time></trkpt><trkpt lat="45.38915639373712" lon="9.13977919230397"><ele>102.66666666666667</ele><time>2026-04-03T16:17:56Z</time></trkpt><trkpt lat="45.38924406836298" lon="9.13981130127634"><ele>102.5</ele><time>2026-04-03T16:17:57Z</time></trkpt><trkpt lat="45.38933646520905" lon="9.139842864006106"><ele>102.33333333333334</ele><time>2026-04-03T16:17:58Z</time></trkpt><trkpt lat="45.38942640766943" lon="9.139871079770039"><ele>102.16666666666667</ele><time>2026-04-03T16:17:59Z</time></trkpt><trkpt lat="45.38950708040743" lon="9.139894563297679"><ele>102.0</ele><time>2026-04-03T16:18:00Z</time></trkpt><trkpt lat="45.38958150317224" lon="9.139910176552748"><ele>101.85714285714286</ele><time>2026-04-03T16:18:01Z</time></trkpt><trkpt lat="45.38964834458935" lon="9.13991941968532"><ele>101.71428571428572</ele><time>2026-04-03T16:18:01.999Z</time></trkpt><trkpt lat="45.389712264629125" lon="9.139910792349728"><ele>101.57142857142857</ele><time>2026-04-03T16:18:02.999Z</time></trkpt><trkpt lat="45.38982010313395" lon="9.139871977702644"><ele>101.42857142857143</ele><time>2026-04-03T16:18:04.999Z</time></trkpt><trkpt lat="45.38988976859443" lon="9.139878482135336"><ele>101.28571428571428</ele><time>2026-04-03T16:18:05.999Z</time></trkpt><trkpt lat="45.38995327481969" lon="9.139889274370557"><ele>101.14285714285714</ele><time>2026-04-03T16:18:06.999Z</time></trkpt><trkpt lat="45.39001634131142" lon="9.13988486085616"><ele>101.0</ele><time>2026-04-03T16:18:07.999Z</time></trkpt><trkpt lat="45.39013579019882" lon="9.13986452273508"><ele>101.75</ele><time>2026-04-03T16:18:09.999Z</time></trkpt><trkpt lat="45.390163179325064" lon="9.139699296432953"><ele>102.5</ele><time>2026-04-03T16:18:11.999Z</time></trkpt><trkpt lat="45.39021905936937" lon="9.139837244371343"><ele>103.25</ele><time>2026-04-03T16:18:13.999Z</time></trkpt><trkpt lat="45.39016595067666" lon="9.139697113758551"><ele>104.0</ele><time>2026-04-03T16:18:19.999Z</time></trkpt><trkpt lat="45.39026864075485" lon="9.139600658528733"><ele>104.0</ele><time>2026-04-03T16:19:19Z</time></trkpt><trkpt lat="45.39040998667129" lon="9.139595247123934"><ele>104.0</ele><time>2026-04-03T16:19:20Z</time></trkpt><trkpt lat="45.390544140266734" lon="9.13962802653049"><ele>104.0</ele><time>2026-04-03T16:19:22Z</time></trkpt><trkpt lat="45.39062206279742" lon="9.139648788077048"><ele>104.0</ele><time>2026-04-03T16:19:23Z</time></trkpt><trkpt lat="45.390709688969444" lon="9.139675590296486"><ele>104.0</ele><time>2026-04-03T16:19:24Z</time></trkpt><trkpt lat="45.39080290640514" lon="9.139705725782495"><ele>103.75</ele><time>2026-04-03T16:19:25Z</time></trkpt><trkpt lat="45.390902744502306" lon="9.139761360214964"><ele>103.5</ele><time>2026-04-03T16:19:26Z</time></trkpt><trkpt lat="45.39100879462979" lon="9.13979132768019"><ele>103.25</ele><time>2026-04-03T16:19:27Z</time></trkpt><trkpt lat="45.391122425745856" lon="9.139828584677012"><ele>103.0</ele><time>2026-04-03T16:19:28Z</time></trkpt><trkpt lat="45.39124332115908" lon="9.13987264947926"><ele>103.0</ele><time>2026-04-03T16:19:29Z</time></trkpt><trkpt lat="45.391374270509125" lon="9.139924602503335"><ele>103.0</ele><time>2026-04-03T16:19:30Z</time></trkpt><trkpt lat="45.39151614278812" lon="9.139958061280296"><ele>103.0</ele><time>2026-04-03T16:19:31Z</time></trkpt><trkpt lat="45.39165760430081" lon="9.140006675896243"><ele>103.0</ele><time>2026-04-03T16:19:32Z</time></trkpt><trkpt lat="45.39180336754211" lon="9.14005665819159"><ele>103.0</ele><time>2026-04-03T16:19:33Z</time></trkpt><trkpt lat="45.3919548932916" lon="9.140109754765023"><ele>103.0</ele><time>2026-04-03T16:19:34Z</time></trkpt><trkpt lat="45.392092649951515" lon="9.140239243024554"><ele>103.0</ele><time>2026-04-03T16:19:35Z</time></trkpt><trkpt lat="45.392242552025415" lon="9.140308159462661"><ele>103.0</ele><time>2026-04-03T16:19:36Z</time></trkpt><trkpt lat="45.39239070569067" lon="9.140380610417443"><ele>103.0</ele><time>2026-04-03T16:19:37Z</time></trkpt><trkpt lat="45.39253748820425" lon="9.14045729679461"><ele>103.0</ele><time>2026-04-03T16:19:38Z</time></trkpt><trkpt lat="45.392677803073916" lon="9.140546396850986"><ele>103.0</ele><time>2026-04-03T16:19:39Z</time></trkpt><trkpt lat="45.39281514844721" lon="9.140656498464484"><ele>103.0</ele><time>2026-04-03T16:19:40Z</time></trkpt><trkpt lat="45.39294562721831" lon="9.140781235858759"><ele>103.0</ele><time>2026-04-03T16:19:41Z</time></trkpt><trkpt lat="45.393070927161936" lon="9.140919589237432"><ele>103.33333333333334</ele><time>2026-04-03T16:19:42Z</time></trkpt><trkpt lat="45.39319076515031" lon="9.141070679082445"><ele>103.66666666666666</ele><time>2026-04-03T16:19:43Z</time></trkpt><trkpt lat="45.393303688476536" lon="9.141234003469647"><ele>104.0</ele><time>2026-04-03T16:19:44Z</time></trkpt><trkpt lat="45.393405382065225" lon="9.141407458422814"><ele>105.33333333333333</ele><time>2026-04-03T16:19:45Z</time></trkpt><trkpt lat="45.393499273071974" lon="9.141592704049405"><ele>106.66666666666666</ele><time>2026-04-03T16:19:46Z</time></trkpt><trkpt lat="45.39358834935797" lon="9.141782784124885"><ele>108.0</ele><time>2026-04-03T16:19:47Z</time></trkpt><trkpt lat="45.393663869811576" lon="9.141981053208186"><ele>108.0</ele><time>2026-04-03T16:19:48Z</time></trkpt><trkpt lat="45.3937305376346" lon="9.142188004803883"><ele>108.0</ele><time>2026-04-03T16:19:49Z</time></trkpt><trkpt lat="45.393789780518794" lon="9.142397438871601"><ele>108.0</ele><time>2026-04-03T16:19:50Z</time></trkpt><trkpt lat="45.39384836161044" lon="9.14260455635867"><ele>108.0</ele><time>2026-04-03T16:19:51Z</time></trkpt><trkpt lat="45.39390550348533" lon="9.142804578345189"><ele>108.0</ele><time>2026-04-03T16:19:52Z</time></trkpt><trkpt lat="45.393961736803995" lon="9.143002199923492"><ele>108.0</ele><time>2026-04-03T16:19:53Z</time></trkpt><trkpt lat="45.39401589798133" lon="9.143197734411642"><ele>108.0</ele><time>2026-04-03T16:19:54Z</time></trkpt><trkpt lat="45.394057816718764" lon="9.143377458509203"><ele>107.80000000000001</ele><time>2026-04-03T16:19:55Z</time></trkpt><trkpt lat="45.394085291529144" lon="9.143541442492355"><ele>107.60000000000001</ele><time>2026-04-03T16:19:56Z</time></trkpt><trkpt lat="45.39410758054536" lon="9.143694905732739"><ele>107.39999999999999</ele><time>2026-04-03T16:19:57Z</time></trkpt><trkpt lat="45.394124106719225" lon="9.143839679657756"><ele>107.19999999999999</ele><time>2026-04-03T16:19:58Z</time></trkpt><trkpt lat="45.3941253261962" lon="9.14398009148668"><ele>107.0</ele><time>2026-04-03T16:19:59Z</time></trkpt><trkpt lat="45.394119633493744" lon="9.144091283835941"><ele>106.99999999999999</ele><time>2026-04-03T16:19:59.999Z</time></trkpt><trkpt lat="45.394112451583084" lon="9.144193732227267"><ele>107.0</ele><time>2026-04-03T16:20:01.999Z</time></trkpt><trkpt lat="45.39410443145683" lon="9.144311426689276"><ele>107.0</ele><time>2026-04-03T16:20:05.999Z</time></trkpt><trkpt lat="45.39409790084091" lon="9.14443612056904"><ele>107.0</ele><time>2026-04-03T16:20:07.999Z</time></trkpt><trkpt lat="45.39405912046445" lon="9.14459009067791"><ele>106.99999999999999</ele><time>2026-04-03T16:20:09.999Z</time></trkpt><trkpt lat="45.394025085751345" lon="9.144702930440193"><ele>107.0</ele><time>2026-04-03T16:20:10.999Z</time></trkpt><trkpt lat="45.39398648324749" lon="9.144827473524705"><ele>106.5</ele><time>2026-04-03T16:20:11.999Z</time></trkpt><trkpt lat="45.39394208818231" lon="9.144961234516687"><ele>106.0</ele><time>2026-04-03T16:20:12.999Z</time></trkpt><trkpt lat="45.39389079861864" lon="9.145114448645444"><ele>105.5</ele><time>2026-04-03T16:20:13.999Z</time></trkpt><trkpt lat="45.39383275579996" lon="9.145288069624833"><ele>105.0</ele><time>2026-04-03T16:20:14.999Z</time></trkpt><trkpt lat="45.393774812352966" lon="9.145469400641025"><ele>105.0</ele><time>2026-04-03T16:20:15.999Z</time></trkpt><trkpt lat="45.3937138835011" lon="9.14566435982193"><ele>105.0</ele><time>2026-04-03T16:20:16.999Z</time></trkpt><trkpt lat="45.39364882224757" lon="9.145873852792686"><ele>105.0</ele><time>2026-04-03T16:20:17.999Z</time></trkpt><trkpt lat="45.39358038881149" lon="9.146093548390391"><ele>105.0</ele><time>2026-04-03T16:20:18.999Z</time></trkpt><trkpt lat="45.393503361562466" lon="9.146323668744795"><ele>105.0</ele><time>2026-04-03T16:20:19.999Z</time></trkpt><trkpt lat="45.39341821628836" lon="9.1465494924907"><ele>105.0</ele><time>2026-04-03T16:20:20.999Z</time></trkpt><trkpt lat="45.39333376081791" lon="9.146778909527548"><ele>105.66666666666666</ele><time>2026-04-03T16:20:21.999Z</time></trkpt><trkpt lat="45.39325628807233" lon="9.147018139272284"><ele>106.33333333333333</ele><time>2026-04-03T16:20:22.999Z</time></trkpt><trkpt lat="45.39317859531432" lon="9.147272784067972"><ele>107.0</ele><time>2026-04-03T16:20:23.999Z</time></trkpt><trkpt lat="45.393097279025845" lon="9.14753014777955"><ele>107.0</ele><time>2026-04-03T16:20:24.999Z</time></trkpt><trkpt lat="45.39300706560648" lon="9.147795473599688"><ele>107.0</ele><time>2026-04-03T16:20:25.999Z</time></trkpt><trkpt lat="45.39291734450527" lon="9.148060945158049"><ele>107.0</ele><time>2026-04-03T16:20:26.999Z</time></trkpt><trkpt lat="45.39282762529847" lon="9.148327210438014"><ele>106.66666666666666</ele><time>2026-04-03T16:20:27.999Z</time></trkpt><trkpt lat="45.392737565887806" lon="9.14859633187423"><ele>106.33333333333334</ele><time>2026-04-03T16:20:28.999Z</time></trkpt><trkpt lat="45.392644429990455" lon="9.148867782076042"><ele>106.0</ele><time>2026-04-03T16:20:29.999Z</time></trkpt><trkpt lat="45.392545708780894" lon="9.149142609049427"><ele>106.0</ele><time>2026-04-03T16:20:30.999Z</time></trkpt><trkpt lat="45.39244706725534" lon="9.149418947955368"><ele>106.0</ele><time>2026-04-03T16:20:31.999Z</time></trkpt><trkpt lat="45.39234718910535" lon="9.149699396020315"><ele>106.0</ele><time>2026-04-03T16:20:32.999Z</time></trkpt><trkpt lat="45.39224505019576" lon="9.149986195743253"><ele>106.5</ele><time>2026-04-03T16:20:33.999Z</time></trkpt><trkpt lat="45.39214323226572" lon="9.15027304360944"><ele>107.0</ele><time>2026-04-03T16:20:34.999Z</time></trkpt><trkpt lat="45.39203955868817" lon="9.150562148159837"><ele>107.5</ele><time>2026-04-03T16:20:35.999Z</time></trkpt><trkpt lat="45.39193507816908" lon="9.150854273251587"><ele>108.0</ele><time>2026-04-03T16:20:36.999Z</time></trkpt><trkpt lat="45.391829714058765" lon="9.151147454000679"><ele>108.0</ele><time>2026-04-03T16:20:37.999Z</time></trkpt><trkpt lat="45.39172408186825" lon="9.151444801788225"><ele>108.0</ele><time>2026-04-03T16:20:38.999Z</time></trkpt><trkpt lat="45.39161730539816" lon="9.15174322677625"><ele>106.5</ele><time>2026-04-03T16:20:39.999Z</time></trkpt><trkpt lat="45.39151158891614" lon="9.152041685940635"><ele>105.0</ele><time>2026-04-03T16:20:40.999Z</time></trkpt><trkpt lat="45.39140526512394" lon="9.152343142807993"><ele>104.5</ele><time>2026-04-03T16:20:41.999Z</time></trkpt><trkpt lat="45.391298854409264" lon="9.152645798898929"><ele>104.0</ele><time>2026-04-03T16:20:42.999Z</time></trkpt><trkpt lat="45.39118923640539" lon="9.152952315684011"><ele>104.5</ele><time>2026-04-03T16:20:43.999Z</time></trkpt><trkpt lat="45.39107972778097" lon="9.15326075421983"><ele>105.0</ele><time>2026-04-03T16:20:44.999Z</time></trkpt><trkpt lat="45.390972758701984" lon="9.153569785188255"><ele>105.0</ele><time>2026-04-03T16:20:45.999Z</time></trkpt><trkpt lat="45.390863548530454" lon="9.153881941859286"><ele>105.0</ele><time>2026-04-03T16:20:46.999Z</time></trkpt><trkpt lat="45.39075401061899" lon="9.154192117379244"><ele>106.5</ele><time>2026-04-03T16:20:47.999Z</time></trkpt><trkpt lat="45.390644519335325" lon="9.154500702957979"><ele>108.0</ele><time>2026-04-03T16:20:48.999Z</time></trkpt><trkpt lat="45.39053484121623" lon="9.154808344176889"><ele>106.5</ele><time>2026-04-03T16:20:49.999Z</time></trkpt><trkpt lat="45.39042558952165" lon="9.155111642320836"><ele>105.0</ele><time>2026-04-03T16:20:50.999Z</time></trkpt><trkpt lat="45.39031676033622" lon="9.15541960217309"><ele>104.5</ele><time>2026-04-03T16:20:51.999Z</time></trkpt><trkpt lat="45.39020989232006" lon="9.155726781197838"><ele>104.0</ele><time>2026-04-03T16:20:52.999Z</time></trkpt><trkpt lat="45.390102576216414" lon="9.15603282905821"><ele>104.0</ele><time>2026-04-03T16:20:53.999Z</time></trkpt><trkpt lat="45.38999600712721" lon="9.156336640231318"><ele>104.0</ele><time>2026-04-03T16:20:54.999Z</time></trkpt><trkpt lat="45.38988937785029" lon="9.156637006717958"><ele>103.5</ele><time>2026-04-03T16:20:55.999Z</time></trkpt><trkpt lat="45.38978215776682" lon="9.156937315476146"><ele>103.0</ele><time>2026-04-03T16:20:56.999Z</time></trkpt><trkpt lat="45.38967631672235" lon="9.15723699434625"><ele>104.0</ele><time>2026-04-03T16:20:57.999Z</time></trkpt><trkpt lat="45.38957193180562" lon="9.15753717461341"><ele>105.0</ele><time>2026-04-03T16:20:58.999Z</time></trkpt><trkpt lat="45.38946799529691" lon="9.157828436464172"><ele>105.0</ele><time>2026-04-03T16:20:59.999Z</time></trkpt><trkpt lat="45.38936525308" lon="9.158123029217213"><ele>105.0</ele><time>2026-04-03T16:21:00.999Z</time></trkpt><trkpt lat="45.38926288061791" lon="9.158418376404281"><ele>104.5</ele><time>2026-04-03T16:21:01.999Z</time></trkpt><trkpt lat="45.389157205893376" lon="9.15871393103853"><ele>104.0</ele><time>2026-04-03T16:21:02.999Z</time></trkpt><trkpt lat="45.38905112060629" lon="9.159005408728925"><ele>103.0</ele><time>2026-04-03T16:21:03.999Z</time></trkpt><trkpt lat="45.38894773728331" lon="9.15930214763264"><ele>102.0</ele><time>2026-04-03T16:21:04.999Z</time></trkpt><trkpt lat="45.38884560393647" lon="9.15959514094026"><ele>102.0</ele><time>2026-04-03T16:21:05.999Z</time></trkpt><trkpt lat="45.388741656400306" lon="9.159890777975361"><ele>102.0</ele><time>2026-04-03T16:21:06.999Z</time></trkpt><trkpt lat="45.38863815697914" lon="9.160184355499192"><ele>102.0</ele><time>2026-04-03T16:21:07.999Z</time></trkpt><trkpt lat="45.388532475611854" lon="9.160481604777514"><ele>102.0</ele><time>2026-04-03T16:21:08.999Z</time></trkpt><trkpt lat="45.38842913939762" lon="9.160774626307983"><ele>101.5</ele><time>2026-04-03T16:21:09.999Z</time></trkpt><trkpt lat="45.388322951628744" lon="9.161074298994183"><ele>101.0</ele><time>2026-04-03T16:21:10.999Z</time></trkpt><trkpt lat="45.38821674978085" lon="9.161376456514773"><ele>101.0</ele><time>2026-04-03T16:21:11.999Z</time></trkpt><trkpt lat="45.38810836432323" lon="9.16167746715108"><ele>101.0</ele><time>2026-04-03T16:21:12.999Z</time></trkpt><trkpt lat="45.38800088477973" lon="9.16198095209513"><ele>101.5</ele><time>2026-04-03T16:21:13.999Z</time></trkpt><trkpt lat="45.38789344805259" lon="9.16228298936095"><ele>102.0</ele><time>2026-04-03T16:21:14.999Z</time></trkpt><trkpt lat="45.38778657840901" lon="9.162591997835221"><ele>102.0</ele><time>2026-04-03T16:21:15.999Z</time></trkpt><trkpt lat="45.387676876152526" lon="9.162901099194395"><ele>102.0</ele><time>2026-04-03T16:21:16.999Z</time></trkpt><trkpt lat="45.38756687501094" lon="9.163211453538379"><ele>101.5</ele><time>2026-04-03T16:21:17.999Z</time></trkpt><trkpt lat="45.38745854346441" lon="9.163519253763083"><ele>101.0</ele><time>2026-04-03T16:21:18.999Z</time></trkpt><trkpt lat="45.38734934425533" lon="9.163828182116921"><ele>101.5</ele><time>2026-04-03T16:21:19.999Z</time></trkpt><trkpt lat="45.3872405825941" lon="9.164136348824886"><ele>102.0</ele><time>2026-04-03T16:21:20.999Z</time></trkpt><trkpt lat="45.38713322288889" lon="9.164443943869081"><ele>101.5</ele><time>2026-04-03T16:21:21.999Z</time></trkpt><trkpt lat="45.38702694704927" lon="9.164753018246872"><ele>101.0</ele><time>2026-04-03T16:21:23Z</time></trkpt><trkpt lat="45.386922481037956" lon="9.165059347827517"><ele>101.0</ele><time>2026-04-03T16:21:24Z</time></trkpt><trkpt lat="45.38682179135938" lon="9.165375731712764"><ele>101.0</ele><time>2026-04-03T16:21:25Z</time></trkpt><trkpt lat="45.386728491500136" lon="9.165693270224322"><ele>100.0</ele><time>2026-04-03T16:21:26Z</time></trkpt><trkpt lat="45.38663999780481" lon="9.166014106005324"><ele>99.0</ele><time>2026-04-03T16:21:27Z</time></trkpt><trkpt lat="45.38655641282308" lon="9.166336691647725"><ele>98.5</ele><time>2026-04-03T16:21:28Z</time></trkpt><trkpt lat="45.3864780946812" lon="9.166666179235673"><ele>98.0</ele><time>2026-04-03T16:21:29Z</time></trkpt><trkpt lat="45.38640669380577" lon="9.166994212822326"><ele>99.0</ele><time>2026-04-03T16:21:30Z</time></trkpt><trkpt lat="45.38634236741014" lon="9.167325036081756"><ele>100.0</ele><time>2026-04-03T16:21:31Z</time></trkpt><trkpt lat="45.38628622049505" lon="9.167660703079054"><ele>100.5</ele><time>2026-04-03T16:21:32Z</time></trkpt><trkpt lat="45.38623705853758" lon="9.167991110136008"><ele>101.0</ele><time>2026-04-03T16:21:33Z</time></trkpt><trkpt lat="45.386193963331536" lon="9.168323403909058"><ele>101.0</ele><time>2026-04-03T16:21:34Z</time></trkpt><trkpt lat="45.3861586657669" lon="9.168658929915923"><ele>101.0</ele><time>2026-04-03T16:21:35Z</time></trkpt><trkpt lat="45.38612896507357" lon="9.168994140957095"><ele>102.5</ele><time>2026-04-03T16:21:36Z</time></trkpt><trkpt lat="45.386107763624" lon="9.169329153822996"><ele>104.0</ele><time>2026-04-03T16:21:37Z</time></trkpt><trkpt lat="45.38609061574849" lon="9.169668955376507"><ele>105.0</ele><time>2026-04-03T16:21:38Z</time></trkpt><trkpt lat="45.38608126672538" lon="9.170011190083933"><ele>106.0</ele><time>2026-04-03T16:21:39Z</time></trkpt><trkpt lat="45.3860794831325" lon="9.170350758805922"><ele>105.0</ele><time>2026-04-03T16:21:40Z</time></trkpt><trkpt lat="45.38608169952223" lon="9.17069683897365"><ele>104.0</ele><time>2026-04-03T16:21:41Z</time></trkpt><trkpt lat="45.38608776880087" lon="9.17104175304887"><ele>104.0</ele><time>2026-04-03T16:21:42Z</time></trkpt><trkpt lat="45.386102151727144" lon="9.171388371013101"><ele>104.0</ele><time>2026-04-03T16:21:43Z</time></trkpt><trkpt lat="45.38612350341946" lon="9.17173300504285"><ele>102.5</ele><time>2026-04-03T16:21:44Z</time></trkpt><trkpt lat="45.38615030406055" lon="9.172073236263882"><ele>101.0</ele><time>2026-04-03T16:21:45Z</time></trkpt><trkpt lat="45.38618370528025" lon="9.172404478251083"><ele>100.5</ele><time>2026-04-03T16:21:46Z</time></trkpt><trkpt lat="45.38622305682332" lon="9.172737191374493"><ele>100.0</ele><time>2026-04-03T16:21:47Z</time></trkpt><trkpt lat="45.38626851631378" lon="9.173065987551341"><ele>100.5</ele><time>2026-04-03T16:21:48Z</time></trkpt><trkpt lat="45.38632024069279" lon="9.173394186012793"><ele>101.0</ele><time>2026-04-03T16:21:49Z</time></trkpt><trkpt lat="45.38637675441509" lon="9.173722171341254"><ele>101.0</ele><time>2026-04-03T16:21:50Z</time></trkpt><trkpt lat="45.38643825950752" lon="9.174048135967519"><ele>101.0</ele><time>2026-04-03T16:21:51Z</time></trkpt><trkpt lat="45.386505548029625" lon="9.17437746115261"><ele>101.0</ele><time>2026-04-03T16:21:52Z</time></trkpt><trkpt lat="45.386576823921054" lon="9.174699007991437"><ele>101.0</ele><time>2026-04-03T16:21:53Z</time></trkpt><trkpt lat="45.38665539727311" lon="9.175020136027507"><ele>100.5</ele><time>2026-04-03T16:21:54Z</time></trkpt><trkpt lat="45.38674184464786" lon="9.17533368318916"><ele>100.0</ele><time>2026-04-03T16:21:55Z</time></trkpt><trkpt lat="45.38683602047956" lon="9.175645411039154"><ele>100.5</ele><time>2026-04-03T16:21:56Z</time></trkpt><trkpt lat="45.38693662930957" lon="9.175955912217892"><ele>101.0</ele><time>2026-04-03T16:21:57Z</time></trkpt><trkpt lat="45.38704124013049" lon="9.176265037613838"><ele>102.0</ele><time>2026-04-03T16:21:58Z</time></trkpt><trkpt lat="45.38715130102059" lon="9.176569065092341"><ele>103.0</ele><time>2026-04-03T16:21:59Z</time></trkpt><trkpt lat="45.38726366241106" lon="9.176870528879698"><ele>103.0</ele><time>2026-04-03T16:21:59.999Z</time></trkpt><trkpt lat="45.387379412387446" lon="9.177168986495756"><ele>103.0</ele><time>2026-04-03T16:22:00.999Z</time></trkpt><trkpt lat="45.38750010838848" lon="9.17746672982296"><ele>103.0</ele><time>2026-04-03T16:22:01.999Z</time></trkpt><trkpt lat="45.38761758075764" lon="9.177761034305824"><ele>103.0</ele><time>2026-04-03T16:22:02.999Z</time></trkpt><trkpt lat="45.3877361396811" lon="9.178057918335165"><ele>102.0</ele><time>2026-04-03T16:22:03.999Z</time></trkpt><trkpt lat="45.38785398628926" lon="9.178353439661935"><ele>101.0</ele><time>2026-04-03T16:22:04.999Z</time></trkpt><trkpt lat="45.38796601291865" lon="9.178650053110404"><ele>101.5</ele><time>2026-04-03T16:22:05.999Z</time></trkpt><trkpt lat="45.38807689734466" lon="9.178950014120227"><ele>102.0</ele><time>2026-04-03T16:22:06.999Z</time></trkpt><trkpt lat="45.38818556641792" lon="9.179251786173056"><ele>102.0</ele><time>2026-04-03T16:22:07.999Z</time></trkpt><trkpt lat="45.388294333333334" lon="9.179557885343888"><ele>102.0</ele><time>2026-04-03T16:22:08.999Z</time></trkpt><trkpt lat="45.38840075263508" lon="9.179864597820627"><ele>101.5</ele><time>2026-04-03T16:22:09.999Z</time></trkpt><trkpt lat="45.38850787799604" lon="9.180175168394848"><ele>101.0</ele><time>2026-04-03T16:22:10.999Z</time></trkpt><trkpt lat="45.388615652769325" lon="9.180486099896521"><ele>100.5</ele><time>2026-04-03T16:22:11.999Z</time></trkpt><trkpt lat="45.388721547229345" lon="9.180801617455954"><ele>100.0</ele><time>2026-04-03T16:22:12.999Z</time></trkpt><trkpt lat="45.38882620849311" lon="9.181115953510876"><ele>101.5</ele><time>2026-04-03T16:22:13.999Z</time></trkpt><trkpt lat="45.38892782678236" lon="9.181435090355304"><ele>103.0</ele><time>2026-04-03T16:22:14.999Z</time></trkpt><trkpt lat="45.38902587721089" lon="9.181755481311516"><ele>103.0</ele><time>2026-04-03T16:22:15.999Z</time></trkpt><trkpt lat="45.38912242260139" lon="9.182073491181374"><ele>103.0</ele><time>2026-04-03T16:22:16.999Z</time></trkpt><trkpt lat="45.38921674564993" lon="9.182397338768205"><ele>103.0</ele><time>2026-04-03T16:22:17.999Z</time></trkpt><trkpt lat="45.3893104772751" lon="9.182714734186918"><ele>103.0</ele><time>2026-04-03T16:22:18.999Z</time></trkpt><trkpt lat="45.38939987589033" lon="9.183033668963917"><ele>102.5</ele><time>2026-04-03T16:22:19.999Z</time></trkpt><trkpt lat="45.389487650151786" lon="9.183354530962387"><ele>102.0</ele><time>2026-04-03T16:22:20.999Z</time></trkpt><trkpt lat="45.38957443307926" lon="9.183676943140263"><ele>102.0</ele><time>2026-04-03T16:22:21.999Z</time></trkpt><trkpt lat="45.38965925784483" lon="9.184000422590932"><ele>102.0</ele><time>2026-04-03T16:22:22.999Z</time></trkpt><trkpt lat="45.389742277331706" lon="9.184324056712716"><ele>101.5</ele><time>2026-04-03T16:22:23.999Z</time></trkpt><trkpt lat="45.389825636760534" lon="9.184651788309656"><ele>101.0</ele><time>2026-04-03T16:22:24.999Z</time></trkpt><trkpt lat="45.3899077163922" lon="9.184978341508732"><ele>100.5</ele><time>2026-04-03T16:22:25.999Z</time></trkpt><trkpt lat="45.38998618217328" lon="9.185310831051988"><ele>100.0</ele><time>2026-04-03T16:22:26.999Z</time></trkpt><trkpt lat="45.39006117161517" lon="9.185646818488944"><ele>100.5</ele><time>2026-04-03T16:22:27.999Z</time></trkpt><trkpt lat="45.390132931285855" lon="9.18598113346777"><ele>101.0</ele><time>2026-04-03T16:22:28.999Z</time></trkpt><trkpt lat="45.39020325876647" lon="9.186313941543519"><ele>100.0</ele><time>2026-04-03T16:22:29.999Z</time></trkpt><trkpt lat="45.39027506055881" lon="9.186646804801093"><ele>99.0</ele><time>2026-04-03T16:22:30.999Z</time></trkpt><trkpt lat="45.390345125792955" lon="9.186981101465314"><ele>99.0</ele><time>2026-04-03T16:22:31.999Z</time></trkpt><trkpt lat="45.390414090470415" lon="9.187315829047925"><ele>99.0</ele><time>2026-04-03T16:22:32.999Z</time></trkpt><trkpt lat="45.39047996172524" lon="9.187648684029597"><ele>100.0</ele><time>2026-04-03T16:22:33.999Z</time></trkpt><trkpt lat="45.39054263844753" lon="9.187981755917482"><ele>101.0</ele><time>2026-04-03T16:22:34.999Z</time></trkpt><trkpt lat="45.39059984060271" lon="9.18831369397614"><ele>102.0</ele><time>2026-04-03T16:22:35.999Z</time></trkpt><trkpt lat="45.39065485443755" lon="9.18865019842386"><ele>103.0</ele><time>2026-04-03T16:22:36.999Z</time></trkpt><trkpt lat="45.39070809985953" lon="9.188987220731123"><ele>103.0</ele><time>2026-04-03T16:22:37.999Z</time></trkpt><trkpt lat="45.3907585808049" lon="9.189322355242863"><ele>103.0</ele><time>2026-04-03T16:22:38.999Z</time></trkpt><trkpt lat="45.39080964739371" lon="9.1896577022256"><ele>101.5</ele><time>2026-04-03T16:22:39.999Z</time></trkpt><trkpt lat="45.39085935847771" lon="9.189991355639442"><ele>100.0</ele><time>2026-04-03T16:22:40.999Z</time></trkpt><trkpt lat="45.39090585118894" lon="9.190326292034941"><ele>100.0</ele><time>2026-04-03T16:22:41.999Z</time></trkpt><trkpt lat="45.39094956063017" lon="9.190660932292584"><ele>100.0</ele><time>2026-04-03T16:22:42.999Z</time></trkpt><trkpt lat="45.39099172982059" lon="9.19099655457778"><ele>100.0</ele><time>2026-04-03T16:22:43.999Z</time></trkpt><trkpt lat="45.391032638485456" lon="9.191331171525198"><ele>100.0</ele><time>2026-04-03T16:22:44.999Z</time></trkpt><trkpt lat="45.39107178014002" lon="9.191667575118366"><ele>100.0</ele><time>2026-04-03T16:22:45.999Z</time></trkpt><trkpt lat="45.39110843186167" lon="9.192004582167979"><ele>100.0</ele><time>2026-04-03T16:22:46.999Z</time></trkpt><trkpt lat="45.39114379928828" lon="9.192344525787801"><ele>100.0</ele><time>2026-04-03T16:22:47.999Z</time></trkpt><trkpt lat="45.39117721920057" lon="9.192684004062713"><ele>100.0</ele><time>2026-04-03T16:22:48.999Z</time></trkpt><trkpt lat="45.391210390800424" lon="9.193024751442838"><ele>99.5</ele><time>2026-04-03T16:22:49.999Z</time></trkpt><trkpt lat="45.3912412306242" lon="9.19336474694065"><ele>99.0</ele><time>2026-04-03T16:22:50.999Z</time></trkpt><trkpt lat="45.39127025392306" lon="9.193708573711449"><ele>99.5</ele><time>2026-04-03T16:22:51.999Z</time></trkpt><trkpt lat="45.3912956433602" lon="9.194048996380177"><ele>100.0</ele><time>2026-04-03T16:22:52.999Z</time></trkpt><trkpt lat="45.39131820731063" lon="9.194393261191685"><ele>100.0</ele><time>2026-04-03T16:22:53.999Z</time></trkpt><trkpt lat="45.39134048272263" lon="9.194736086810227"><ele>100.0</ele><time>2026-04-03T16:22:54.999Z</time></trkpt><trkpt lat="45.391361057842715" lon="9.195077382389602"><ele>100.0</ele><time>2026-04-03T16:22:55.999Z</time></trkpt><trkpt lat="45.39138011878587" lon="9.195420399120492"><ele>100.0</ele><time>2026-04-03T16:22:56.999Z</time></trkpt><trkpt lat="45.39139600202631" lon="9.195761113445496"><ele>100.0</ele><time>2026-04-03T16:22:57.999Z</time></trkpt><trkpt lat="45.39140773942772" lon="9.19610006226121"><ele>100.0</ele><time>2026-04-03T16:22:58.999Z</time></trkpt><trkpt lat="45.39141948415132" lon="9.196440819591656"><ele>100.0</ele><time>2026-04-03T16:22:59.999Z</time></trkpt><trkpt lat="45.391430088346546" lon="9.196776389057161"><ele>100.0</ele><time>2026-04-03T16:23:00.999Z</time></trkpt><trkpt lat="45.39143927971119" lon="9.197113311379175"><ele>101.5</ele><time>2026-04-03T16:23:01.999Z</time></trkpt><trkpt lat="45.391444712838414" lon="9.19744914804964"><ele>103.0</ele><time>2026-04-03T16:23:02.999Z</time></trkpt><trkpt lat="45.39144704307164" lon="9.197780936690563"><ele>103.0</ele><time>2026-04-03T16:23:03.999Z</time></trkpt><trkpt lat="45.39144964888518" lon="9.198117270550984"><ele>103.0</ele><time>2026-04-03T16:23:04.999Z</time></trkpt><trkpt lat="45.39145257031859" lon="9.198453520988343"><ele>104.0</ele><time>2026-04-03T16:23:05.999Z</time></trkpt><trkpt lat="45.3914530001034" lon="9.198786868491062"><ele>105.0</ele><time>2026-04-03T16:23:06.999Z</time></trkpt><trkpt lat="45.391448665047754" lon="9.199124007997517"><ele>103.0</ele><time>2026-04-03T16:23:07.999Z</time></trkpt><trkpt lat="45.391443001200074" lon="9.199462523983215"><ele>101.0</ele><time>2026-04-03T16:23:08.999Z</time></trkpt><trkpt lat="45.391435902540756" lon="9.19980404383096"><ele>101.0</ele><time>2026-04-03T16:23:09.999Z</time></trkpt><trkpt lat="45.39142873798593" lon="9.200143733578054"><ele>101.0</ele><time>2026-04-03T16:23:10.999Z</time></trkpt><trkpt lat="45.391419564945586" lon="9.200485282527728"><ele>102.5</ele><time>2026-04-03T16:23:11.999Z</time></trkpt><trkpt lat="45.391410791732184" lon="9.200826587948036"><ele>104.0</ele><time>2026-04-03T16:23:12.999Z</time></trkpt><trkpt lat="45.391400359615155" lon="9.201170787678583"><ele>103.0</ele><time>2026-04-03T16:23:13.999Z</time></trkpt><trkpt lat="45.391388800598534" lon="9.20151346252924"><ele>102.0</ele><time>2026-04-03T16:23:14.999Z</time></trkpt><trkpt lat="45.391377720991144" lon="9.201856139078245"><ele>102.0</ele><time>2026-04-03T16:23:15.999Z</time></trkpt><trkpt lat="45.3913669588439" lon="9.202201989033258"><ele>102.0</ele><time>2026-04-03T16:23:16.999Z</time></trkpt><trkpt lat="45.391353751546106" lon="9.202542910943512"><ele>100.5</ele><time>2026-04-03T16:23:17.999Z</time></trkpt><trkpt lat="45.39133727646636" lon="9.202884068622515"><ele>99.0</ele><time>2026-04-03T16:23:18.999Z</time></trkpt><trkpt lat="45.39131730312233" lon="9.203225260827566"><ele>99.0</ele><time>2026-04-03T16:23:19.999Z</time></trkpt><trkpt lat="45.391296187359785" lon="9.203563365389572"><ele>99.0</ele><time>2026-04-03T16:23:20.999Z</time></trkpt><trkpt lat="45.391275039369724" lon="9.203897883765473"><ele>100.5</ele><time>2026-04-03T16:23:21.999Z</time></trkpt><trkpt lat="45.39125212564009" lon="9.204231901018995"><ele>102.0</ele><time>2026-04-03T16:23:22.999Z</time></trkpt><trkpt lat="45.39122756438717" lon="9.204563482614637"><ele>101.5</ele><time>2026-04-03T16:23:23.999Z</time></trkpt><trkpt lat="45.39120181476924" lon="9.204893610470762"><ele>101.0</ele><time>2026-04-03T16:23:24.999Z</time></trkpt><trkpt lat="45.39117434342332" lon="9.205220057952243"><ele>101.0</ele><time>2026-04-03T16:23:25.999Z</time></trkpt><trkpt lat="45.3911437343243" lon="9.205548942952955"><ele>101.0</ele><time>2026-04-03T16:23:26.999Z</time></trkpt><trkpt lat="45.39110770087745" lon="9.20587627068931"><ele>102.0</ele><time>2026-04-03T16:23:27.999Z</time></trkpt><trkpt lat="45.39106920022601" lon="9.206203470511879"><ele>103.0</ele><time>2026-04-03T16:23:29Z</time></trkpt><trkpt lat="45.39103265486654" lon="9.2065311839767"><ele>103.0</ele><time>2026-04-03T16:23:30Z</time></trkpt><trkpt lat="45.39099860074149" lon="9.206857904901783"><ele>103.0</ele><time>2026-04-03T16:23:31Z</time></trkpt><trkpt lat="45.39096631689625" lon="9.207182824714026"><ele>101.0</ele><time>2026-04-03T16:23:32Z</time></trkpt><trkpt lat="45.39093229205168" lon="9.207506222141596"><ele>99.0</ele><time>2026-04-03T16:23:33Z</time></trkpt><trkpt lat="45.39089601337273" lon="9.207830756455373"><ele>99.0</ele><time>2026-04-03T16:23:34Z</time></trkpt><trkpt lat="45.39085953587466" lon="9.208152746224242"><ele>99.0</ele><time>2026-04-03T16:23:35Z</time></trkpt><trkpt lat="45.390820738574476" lon="9.208478131293155"><ele>99.5</ele><time>2026-04-03T16:23:36Z</time></trkpt><trkpt lat="45.39077952538716" lon="9.208800374772705"><ele>100.0</ele><time>2026-04-03T16:23:37Z</time></trkpt><trkpt lat="45.390737745802824" lon="9.209122564295829"><ele>102.0</ele><time>2026-04-03T16:23:38Z</time></trkpt><trkpt lat="45.39069567074074" lon="9.209445674530686"><ele>104.0</ele><time>2026-04-03T16:23:39Z</time></trkpt><trkpt lat="45.39065153942536" lon="9.20976888329249"><ele>104.5</ele><time>2026-04-03T16:23:40Z</time></trkpt><trkpt lat="45.39060659912894" lon="9.21009042023825"><ele>105.0</ele><time>2026-04-03T16:23:41Z</time></trkpt><trkpt lat="45.39056153305749" lon="9.210415919651584"><ele>104.5</ele><time>2026-04-03T16:23:42Z</time></trkpt><trkpt lat="45.39051619268279" lon="9.210743896462075"><ele>104.0</ele><time>2026-04-03T16:23:43Z</time></trkpt><trkpt lat="45.39046834821015" lon="9.211070568432445"><ele>104.0</ele><time>2026-04-03T16:23:44Z</time></trkpt><trkpt lat="45.39041763452857" lon="9.211398227799224"><ele>104.0</ele><time>2026-04-03T16:23:45Z</time></trkpt><trkpt lat="45.39036581042188" lon="9.211728864672438"><ele>104.0</ele><time>2026-04-03T16:23:46Z</time></trkpt><trkpt lat="45.39031295686498" lon="9.21205854387262"><ele>104.0</ele><time>2026-04-03T16:23:47Z</time></trkpt><trkpt lat="45.390256765386546" lon="9.212391064032802"><ele>104.5</ele><time>2026-04-03T16:23:48Z</time></trkpt><trkpt lat="45.39019908909501" lon="9.212722992346311"><ele>105.0</ele><time>2026-04-03T16:23:49Z</time></trkpt><trkpt lat="45.39013860229038" lon="9.213055354257353"><ele>105.0</ele><time>2026-04-03T16:23:50Z</time></trkpt><trkpt lat="45.39007825565878" lon="9.21338979612477"><ele>105.0</ele><time>2026-04-03T16:23:51Z</time></trkpt><trkpt lat="45.39001900417152" lon="9.213725404978566"><ele>105.5</ele><time>2026-04-03T16:23:52Z</time></trkpt><trkpt lat="45.38995821944324" lon="9.214062681569224"><ele>106.0</ele><time>2026-04-03T16:23:53Z</time></trkpt><trkpt lat="45.389895098463356" lon="9.214399113718809"><ele>106.0</ele><time>2026-04-03T16:23:53.999Z</time></trkpt><trkpt lat="45.38983020081096" lon="9.214736365903795"><ele>106.0</ele><time>2026-04-03T16:23:54.999Z</time></trkpt><trkpt lat="45.389763894136294" lon="9.215071806244898"><ele>104.5</ele><time>2026-04-03T16:23:55.999Z</time></trkpt><trkpt lat="45.38969670277707" lon="9.21540119896944"><ele>103.0</ele><time>2026-04-03T16:23:56.999Z</time></trkpt><trkpt lat="45.38962644847" lon="9.215735339993081"><ele>101.0</ele><time>2026-04-03T16:23:57.999Z</time></trkpt><trkpt lat="45.389556051358085" lon="9.216067305055812"><ele>99.0</ele><time>2026-04-03T16:23:58.999Z</time></trkpt><trkpt lat="45.38948372113829" lon="9.216400384354829"><ele>99.0</ele><time>2026-04-03T16:23:59.999Z</time></trkpt><trkpt lat="45.389409696859815" lon="9.216736272603782"><ele>99.0</ele><time>2026-04-03T16:24:00.999Z</time></trkpt><trkpt lat="45.389335729271" lon="9.21706516906894"><ele>100.5</ele><time>2026-04-03T16:24:01.999Z</time></trkpt><trkpt lat="45.38925855321533" lon="9.217398193954569"><ele>102.0</ele><time>2026-04-03T16:24:02.999Z</time></trkpt><trkpt lat="45.389179639052415" lon="9.217727273334088"><ele>102.0</ele><time>2026-04-03T16:24:03.999Z</time></trkpt><trkpt lat="45.38909910184538" lon="9.21805644069992"><ele>102.0</ele><time>2026-04-03T16:24:04.999Z</time></trkpt><trkpt lat="45.389018670153305" lon="9.21838275870117"><ele>102.0</ele><time>2026-04-03T16:24:05.999Z</time></trkpt><trkpt lat="45.38893677141476" lon="9.218709981006894"><ele>102.0</ele><time>2026-04-03T16:24:06.999Z</time></trkpt><trkpt lat="45.388857005191674" lon="9.219034410215974"><ele>101.5</ele><time>2026-04-03T16:24:07.999Z</time></trkpt><trkpt lat="45.38877788153088" lon="9.219360006308529"><ele>101.0</ele><time>2026-04-03T16:24:08.999Z</time></trkpt><trkpt lat="45.388699709534556" lon="9.21968696051281"><ele>100.5</ele><time>2026-04-03T16:24:09.999Z</time></trkpt><trkpt lat="45.38862280849646" lon="9.220012309997221"><ele>100.0</ele><time>2026-04-03T16:24:10.999Z</time></trkpt><trkpt lat="45.388544155003935" lon="9.220337881943319"><ele>100.5</ele><time>2026-04-03T16:24:11.999Z</time></trkpt><trkpt lat="45.38846495333091" lon="9.220664550074554"><ele>101.0</ele><time>2026-04-03T16:24:12.999Z</time></trkpt><trkpt lat="45.38838216897913" lon="9.220990511344425"><ele>101.0</ele><time>2026-04-03T16:24:13.999Z</time></trkpt><trkpt lat="45.38830039345649" lon="9.221315470046648"><ele>101.0</ele><time>2026-04-03T16:24:14.999Z</time></trkpt><trkpt lat="45.38821842301171" lon="9.221641930910458"><ele>100.5</ele><time>2026-04-03T16:24:15.999Z</time></trkpt><trkpt lat="45.38814117961649" lon="9.221968520900562"><ele>100.0</ele><time>2026-04-03T16:24:16.999Z</time></trkpt><trkpt lat="45.388066423212024" lon="9.222298877941657"><ele>100.0</ele><time>2026-04-03T16:24:17.999Z</time></trkpt><trkpt lat="45.38799366025882" lon="9.222630610881899"><ele>100.0</ele><time>2026-04-03T16:24:18.999Z</time></trkpt><trkpt lat="45.38791900444583" lon="9.222959547588232"><ele>99.5</ele><time>2026-04-03T16:24:19.999Z</time></trkpt><trkpt lat="45.38784157610678" lon="9.223291306677865"><ele>99.0</ele><time>2026-04-03T16:24:20.999Z</time></trkpt><trkpt lat="45.38776211068342" lon="9.223619892658656"><ele>99.0</ele><time>2026-04-03T16:24:21.999Z</time></trkpt><trkpt lat="45.38768163303385" lon="9.223946574173231"><ele>99.0</ele><time>2026-04-03T16:24:22.999Z</time></trkpt><trkpt lat="45.387600577343115" lon="9.224275074220701"><ele>99.0</ele><time>2026-04-03T16:24:23.999Z</time></trkpt><trkpt lat="45.38752022590436" lon="9.224602815159741"><ele>99.0</ele><time>2026-04-03T16:24:24.999Z</time></trkpt><trkpt lat="45.38744030112882" lon="9.224930225718"><ele>100.5</ele><time>2026-04-03T16:24:25.999Z</time></trkpt><trkpt lat="45.38736046332856" lon="9.22525510985347"><ele>102.0</ele><time>2026-04-03T16:24:26.999Z</time></trkpt><trkpt lat="45.38727866767478" lon="9.22558099608531"><ele>101.5</ele><time>2026-04-03T16:24:27.999Z</time></trkpt><trkpt lat="45.38719536814906" lon="9.22590460709257"><ele>101.0</ele><time>2026-04-03T16:24:28.999Z</time></trkpt><trkpt lat="45.387109788191985" lon="9.226223734481703"><ele>100.0</ele><time>2026-04-03T16:24:29.999Z</time></trkpt><trkpt lat="45.38702175249302" lon="9.226543020260774"><ele>99.0</ele><time>2026-04-03T16:24:30.999Z</time></trkpt><trkpt lat="45.38693287556061" lon="9.22686496013277"><ele>99.0</ele><time>2026-04-03T16:24:31.999Z</time></trkpt><trkpt lat="45.38684856112378" lon="9.227184166513535"><ele>99.0</ele><time>2026-04-03T16:24:32.999Z</time></trkpt><trkpt lat="45.38676555768353" lon="9.227505569524737"><ele>99.0</ele><time>2026-04-03T16:24:33.999Z</time></trkpt><trkpt lat="45.38668415254024" lon="9.227828410163257"><ele>99.0</ele><time>2026-04-03T16:24:34.999Z</time></trkpt><trkpt lat="45.386604983174024" lon="9.228149161551727"><ele>100.0</ele><time>2026-04-03T16:24:35.999Z</time></trkpt><trkpt lat="45.38652692380707" lon="9.22846875820711"><ele>101.0</ele><time>2026-04-03T16:24:36.999Z</time></trkpt><trkpt lat="45.38645054083018" lon="9.228788654588433"><ele>100.5</ele><time>2026-04-03T16:24:37.999Z</time></trkpt><trkpt lat="45.386373297856096" lon="9.229109344176644"><ele>100.0</ele><time>2026-04-03T16:24:38.999Z</time></trkpt><trkpt lat="45.38629411522532" lon="9.229432421064743"><ele>100.0</ele><time>2026-04-03T16:24:39.999Z</time></trkpt><trkpt lat="45.3862154340041" lon="9.229755841474235"><ele>100.0</ele><time>2026-04-03T16:24:40.999Z</time></trkpt><trkpt lat="45.38613492345179" lon="9.23008072522384"><ele>101.0</ele><time>2026-04-03T16:24:41.999Z</time></trkpt><trkpt lat="45.38605341159247" lon="9.230410173658575"><ele>102.0</ele><time>2026-04-03T16:24:42.999Z</time></trkpt><trkpt lat="45.385973091680064" lon="9.230739567943433"><ele>103.5</ele><time>2026-04-03T16:24:43.999Z</time></trkpt><trkpt lat="45.3858931581887" lon="9.231073872167627"><ele>105.0</ele><time>2026-04-03T16:24:44.999Z</time></trkpt><trkpt lat="45.385814097923834" lon="9.231410238808925"><ele>104.0</ele><time>2026-04-03T16:24:45.999Z</time></trkpt><trkpt lat="45.38573506456708" lon="9.231749930243915"><ele>103.0</ele><time>2026-04-03T16:24:46.999Z</time></trkpt><trkpt lat="45.38565518819717" lon="9.232092877359422"><ele>102.5</ele><time>2026-04-03T16:24:47.999Z</time></trkpt><trkpt lat="45.38557670168454" lon="9.232429772929494"><ele>102.0</ele><time>2026-04-03T16:24:48.999Z</time></trkpt><trkpt lat="45.38549411315004" lon="9.232773400966526"><ele>102.0</ele><time>2026-04-03T16:24:49.999Z</time></trkpt><trkpt lat="45.385410965226455" lon="9.233112894283458"><ele>102.0</ele><time>2026-04-03T16:24:50.999Z</time></trkpt><trkpt lat="45.3853263491029" lon="9.23345205112818"><ele>102.0</ele><time>2026-04-03T16:24:51.999Z</time></trkpt><trkpt lat="45.38524334923343" lon="9.23379239225329"><ele>102.0</ele><time>2026-04-03T16:24:52.999Z</time></trkpt><trkpt lat="45.38515936412362" lon="9.234133801653213"><ele>101.0</ele><time>2026-04-03T16:24:53.999Z</time></trkpt><trkpt lat="45.385074095155176" lon="9.23447608070714"><ele>100.0</ele><time>2026-04-03T16:24:54.999Z</time></trkpt><trkpt lat="45.384988460710325" lon="9.234820887859676"><ele>100.0</ele><time>2026-04-03T16:24:55.999Z</time></trkpt><trkpt lat="45.384901949040554" lon="9.235164079461608"><ele>100.0</ele><time>2026-04-03T16:24:56.999Z</time></trkpt><trkpt lat="45.384815400109574" lon="9.235508589062619"><ele>100.5</ele><time>2026-04-03T16:24:57.999Z</time></trkpt><trkpt lat="45.38473064311899" lon="9.235853445188976"><ele>101.0</ele><time>2026-04-03T16:24:58.999Z</time></trkpt><trkpt lat="45.38464569135723" lon="9.236194269070795"><ele>100.0</ele><time>2026-04-03T16:24:59.999Z</time></trkpt><trkpt lat="45.38456167320519" lon="9.236533888038112"><ele>99.0</ele><time>2026-04-03T16:25:00.999Z</time></trkpt><trkpt lat="45.384476295556794" lon="9.236873973630038"><ele>99.0</ele><time>2026-04-03T16:25:01.999Z</time></trkpt><trkpt lat="45.384394070586495" lon="9.237218740797832"><ele>99.0</ele><time>2026-04-03T16:25:02.999Z</time></trkpt><trkpt lat="45.38431906347819" lon="9.23756488764368"><ele>99.0</ele><time>2026-04-03T16:25:03.999Z</time></trkpt><trkpt lat="45.38424817612392" lon="9.237914299192273"><ele>99.0</ele><time>2026-04-03T16:25:04.999Z</time></trkpt><trkpt lat="45.38418083499168" lon="9.238260659364855"><ele>99.5</ele><time>2026-04-03T16:25:05.999Z</time></trkpt><trkpt lat="45.384115369379934" lon="9.238605827550758"><ele>100.0</ele><time>2026-04-03T16:25:06.999Z</time></trkpt><trkpt lat="45.3840525694667" lon="9.23895117410242"><ele>100.0</ele><time>2026-04-03T16:25:07.999Z</time></trkpt><trkpt lat="45.383991121563476" lon="9.239295836767013"><ele>100.0</ele><time>2026-04-03T16:25:08.999Z</time></trkpt><trkpt lat="45.38393088189411" lon="9.23964191445089"><ele>100.0</ele><time>2026-04-03T16:25:09.999Z</time></trkpt><trkpt lat="45.38387354801745" lon="9.239988150473144"><ele>100.0</ele><time>2026-04-03T16:25:10.999Z</time></trkpt><trkpt lat="45.38381903564575" lon="9.240337122226334"><ele>100.5</ele><time>2026-04-03T16:25:11.999Z</time></trkpt><trkpt lat="45.38376672318558" lon="9.240685031007132"><ele>101.0</ele><time>2026-04-03T16:25:12.999Z</time></trkpt><trkpt lat="45.38371694290784" lon="9.241033219943294"><ele>101.0</ele><time>2026-04-03T16:25:13.999Z</time></trkpt><trkpt lat="45.38366769762728" lon="9.241387063275917"><ele>101.0</ele><time>2026-04-03T16:25:14.999Z</time></trkpt><trkpt lat="45.383618394250625" lon="9.241737645265518"><ele>99.5</ele><time>2026-04-03T16:25:15.999Z</time></trkpt><trkpt lat="45.383567515235264" lon="9.242091349634833"><ele>98.0</ele><time>2026-04-03T16:25:16.999Z</time></trkpt><trkpt lat="45.38351767645021" lon="9.242445583568838"><ele>98.0</ele><time>2026-04-03T16:25:17.999Z</time></trkpt><trkpt lat="45.38346940688299" lon="9.242799673834943"><ele>98.0</ele><time>2026-04-03T16:25:18.999Z</time></trkpt><trkpt lat="45.383427112181664" lon="9.243151222732049"><ele>98.0</ele><time>2026-04-03T16:25:19.999Z</time></trkpt><trkpt lat="45.38339042072309" lon="9.243506236162037"><ele>98.0</ele><time>2026-04-03T16:25:20.999Z</time></trkpt><trkpt lat="45.38335712970334" lon="9.243857335249876"><ele>98.0</ele><time>2026-04-03T16:25:21.999Z</time></trkpt><trkpt lat="45.383326814623516" lon="9.244209808341791"><ele>98.0</ele><time>2026-04-03T16:25:22.999Z</time></trkpt><trkpt lat="45.38330009725505" lon="9.244561751209972"><ele>99.0</ele><time>2026-04-03T16:25:23.999Z</time></trkpt><trkpt lat="45.38327579132232" lon="9.244913988492875"><ele>100.0</ele><time>2026-04-03T16:25:24.999Z</time></trkpt><trkpt lat="45.38325245038858" lon="9.245268163945093"><ele>100.0</ele><time>2026-04-03T16:25:25.999Z</time></trkpt><trkpt lat="45.383229599127624" lon="9.245617961962838"><ele>100.0</ele><time>2026-04-03T16:25:26.999Z</time></trkpt><trkpt lat="45.38320767653411" lon="9.24596935989319"><ele>99.0</ele><time>2026-04-03T16:25:27.999Z</time></trkpt><trkpt lat="45.383186562231494" lon="9.246321419889936"><ele>98.0</ele><time>2026-04-03T16:25:28.999Z</time></trkpt><trkpt lat="45.38316519556809" lon="9.24667489725858"><ele>98.0</ele><time>2026-04-03T16:25:29.999Z</time></trkpt><trkpt lat="45.3831438341601" lon="9.24702961264485"><ele>98.0</ele><time>2026-04-03T16:25:30.999Z</time></trkpt><trkpt lat="45.383122680370846" lon="9.247385461612032"><ele>98.5</ele><time>2026-04-03T16:25:31.998Z</time></trkpt><trkpt lat="45.38310294873119" lon="9.24773927306905"><ele>99.0</ele><time>2026-04-03T16:25:32.998Z</time></trkpt><trkpt lat="45.38308261410094" lon="9.24809304247968"><ele>98.5</ele><time>2026-04-03T16:25:33.998Z</time></trkpt><trkpt lat="45.38306210018454" lon="9.248444189860555"><ele>98.0</ele><time>2026-04-03T16:25:35Z</time></trkpt><trkpt lat="45.38304241833015" lon="9.248798808126743"><ele>98.0</ele><time>2026-04-03T16:25:36Z</time></trkpt><trkpt lat="45.38302131672658" lon="9.249150557037312"><ele>98.0</ele><time>2026-04-03T16:25:36.999Z</time></trkpt><trkpt lat="45.38299895724934" lon="9.24950142590925"><ele>98.0</ele><time>2026-04-03T16:25:38Z</time></trkpt><trkpt lat="45.38297631090615" lon="9.249854981058137"><ele>98.0</ele><time>2026-04-03T16:25:39Z</time></trkpt><trkpt lat="45.38295340179681" lon="9.250206847742916"><ele>98.0</ele><time>2026-04-03T16:25:39.999Z</time></trkpt><trkpt lat="45.382931221589295" lon="9.250558427330816"><ele>98.0</ele><time>2026-04-03T16:25:41Z</time></trkpt><trkpt lat="45.382908669009616" lon="9.250912001353537"><ele>99.0</ele><time>2026-04-03T16:25:42Z</time></trkpt><trkpt lat="45.38288736624739" lon="9.25126751239756"><ele>100.0</ele><time>2026-04-03T16:25:43Z</time></trkpt><trkpt lat="45.38286622840052" lon="9.25162122104024"><ele>100.0</ele><time>2026-04-03T16:25:43.999Z</time></trkpt><trkpt lat="45.38284627758514" lon="9.251973528486564"><ele>100.0</ele><time>2026-04-03T16:25:45Z</time></trkpt><trkpt lat="45.38282525768483" lon="9.252328605405394"><ele>100.0</ele><time>2026-04-03T16:25:46Z</time></trkpt><trkpt lat="45.382804641607684" lon="9.252682479523887"><ele>100.0</ele><time>2026-04-03T16:25:47Z</time></trkpt><trkpt lat="45.38278386264935" lon="9.253035172642994"><ele>99.0</ele><time>2026-04-03T16:25:48Z</time></trkpt><trkpt lat="45.38276296435996" lon="9.253384842715619"><ele>98.0</ele><time>2026-04-03T16:25:49Z</time></trkpt><trkpt lat="45.38274229485578" lon="9.253739688488793"><ele>98.0</ele><time>2026-04-03T16:25:50Z</time></trkpt><trkpt lat="45.38272109200223" lon="9.254089634099982"><ele>98.0</ele><time>2026-04-03T16:25:51Z</time></trkpt><trkpt lat="45.382701684942084" lon="9.254442697675188"><ele>98.0</ele><time>2026-04-03T16:25:51.999Z</time></trkpt><trkpt lat="45.382683315478715" lon="9.254791996057577"><ele>98.0</ele><time>2026-04-03T16:25:52.999Z</time></trkpt><trkpt lat="45.38266427713591" lon="9.255143567266417"><ele>98.0</ele><time>2026-04-03T16:25:53.999Z</time></trkpt><trkpt lat="45.3826446041116" lon="9.255494516254565"><ele>98.0</ele><time>2026-04-03T16:25:54.999Z</time></trkpt><trkpt lat="45.382624470802476" lon="9.255847633971003"><ele>97.5</ele><time>2026-04-03T16:25:55.999Z</time></trkpt><trkpt lat="45.38260318145315" lon="9.25620248800075"><ele>97.0</ele><time>2026-04-03T16:25:56.999Z</time></trkpt><trkpt lat="45.3825803035454" lon="9.25655632751815"><ele>97.0</ele><time>2026-04-03T16:25:57.999Z</time></trkpt><trkpt lat="45.38255795034047" lon="9.256911223159168"><ele>97.0</ele><time>2026-04-03T16:25:58.999Z</time></trkpt><trkpt lat="45.38253764127885" lon="9.257264697433671"><ele>97.5</ele><time>2026-04-03T16:25:59.999Z</time></trkpt><trkpt lat="45.38251725225265" lon="9.257624020726162"><ele>98.0</ele><time>2026-04-03T16:26:00.999Z</time></trkpt><trkpt lat="45.38249589168322" lon="9.257983730357479"><ele>98.5</ele><time>2026-04-03T16:26:01.999Z</time></trkpt><trkpt lat="45.38247270172744" lon="9.258345056038998"><ele>99.0</ele><time>2026-04-03T16:26:02.999Z</time></trkpt><trkpt lat="45.3824505968543" lon="9.258705925615184"><ele>98.5</ele><time>2026-04-03T16:26:03.999Z</time></trkpt><trkpt lat="45.382429122363476" lon="9.259067169284613"><ele>98.0</ele><time>2026-04-03T16:26:04.999Z</time></trkpt><trkpt lat="45.38240858002006" lon="9.259394817035322"><ele>98.0</ele><time>2026-04-03T16:26:05.999Z</time></trkpt><trkpt lat="45.382390155601136" lon="9.259687397768406"><ele>98.0</ele><time>2026-04-03T16:26:06.999Z</time></trkpt><trkpt lat="45.38237230133015" lon="9.259977042917933"><ele>98.0</ele><time>2026-04-03T16:26:07.999Z</time></trkpt><trkpt lat="45.3823565864339" lon="9.260267809708555"><ele>97.66666666666666</ele><time>2026-04-03T16:26:08.999Z</time></trkpt><trkpt lat="45.38234047198046" lon="9.26054940607243"><ele>97.33333333333334</ele><time>2026-04-03T16:26:09.999Z</time></trkpt><trkpt lat="45.38231677226731" lon="9.260818743190233"><ele>97.0</ele><time>2026-04-03T16:26:10.999Z</time></trkpt><trkpt lat="45.38228643091182" lon="9.261079404407399"><ele>97.0</ele><time>2026-04-03T16:26:11.999Z</time></trkpt><trkpt lat="45.382247065352566" lon="9.261340637785214"><ele>97.0</ele><time>2026-04-03T16:26:12.999Z</time></trkpt><trkpt lat="45.38219933646235" lon="9.261605144259171"><ele>97.0</ele><time>2026-04-03T16:26:13.999Z</time></trkpt><trkpt lat="45.38213859688447" lon="9.261869371245776"><ele>97.0</ele><time>2026-04-03T16:26:14.999Z</time></trkpt><trkpt lat="45.38206322442008" lon="9.262131699161404"><ele>97.0</ele><time>2026-04-03T16:26:15.999Z</time></trkpt><trkpt lat="45.38197854071614" lon="9.262391582958392"><ele>97.0</ele><time>2026-04-03T16:26:16.999Z</time></trkpt><trkpt lat="45.38188957202955" lon="9.262657912310422"><ele>97.0</ele><time>2026-04-03T16:26:17.999Z</time></trkpt><trkpt lat="45.38180398867071" lon="9.262924265695"><ele>97.0</ele><time>2026-04-03T16:26:18.999Z</time></trkpt><trkpt lat="45.38172895554918" lon="9.263197537501625"><ele>97.0</ele><time>2026-04-03T16:26:19.999Z</time></trkpt><trkpt lat="45.381670878876" lon="9.263483669971338"><ele>97.33333333333334</ele><time>2026-04-03T16:26:20.999Z</time></trkpt><trkpt lat="45.38164050751542" lon="9.26377052742145"><ele>97.66666666666666</ele><time>2026-04-03T16:26:21.999Z</time></trkpt><trkpt lat="45.381649067081035" lon="9.26405698957433"><ele>98.0</ele><time>2026-04-03T16:26:22.999Z</time></trkpt><trkpt lat="45.38169725595655" lon="9.2643356348301"><ele>98.0</ele><time>2026-04-03T16:26:23.999Z</time></trkpt><trkpt lat="45.38179091747396" lon="9.264596208360505"><ele>98.0</ele><time>2026-04-03T16:26:24.999Z</time></trkpt><trkpt lat="45.38189396515534" lon="9.264841163026524"><ele>98.0</ele><time>2026-04-03T16:26:25.999Z</time></trkpt><trkpt lat="45.38201620300592" lon="9.26507094844663"><ele>98.66666666666666</ele><time>2026-04-03T16:26:26.999Z</time></trkpt><trkpt lat="45.38215065017446" lon="9.265288099925936"><ele>99.33333333333334</ele><time>2026-04-03T16:26:27.999Z</time></trkpt><trkpt lat="45.382290312266626" lon="9.265507963620523"><ele>100.0</ele><time>2026-04-03T16:26:28.999Z</time></trkpt><trkpt lat="45.38243301784314" lon="9.265732681583858"><ele>101.33333333333334</ele><time>2026-04-03T16:26:29.999Z</time></trkpt><trkpt lat="45.38257730252573" lon="9.265959994827753"><ele>102.66666666666666</ele><time>2026-04-03T16:26:30.999Z</time></trkpt><trkpt lat="45.38272270432037" lon="9.266190761711114"><ele>104.0</ele><time>2026-04-03T16:26:31.999Z</time></trkpt><trkpt lat="45.382871153937025" lon="9.266423175138046"><ele>103.0</ele><time>2026-04-03T16:26:32.999Z</time></trkpt><trkpt lat="45.38302154363544" lon="9.266657829228166"><ele>102.0</ele><time>2026-04-03T16:26:33.999Z</time></trkpt><trkpt lat="45.38317465592009" lon="9.266894272875112"><ele>101.0</ele><time>2026-04-03T16:26:34.999Z</time></trkpt><trkpt lat="45.38332098807146" lon="9.2671268304208"><ele>100.5</ele><time>2026-04-03T16:26:35.999Z</time></trkpt><trkpt lat="45.383472519284176" lon="9.267363709259348"><ele>100.0</ele><time>2026-04-03T16:26:36.999Z</time></trkpt><trkpt lat="45.38362206286123" lon="9.267602153686227"><ele>100.0</ele><time>2026-04-03T16:26:37.999Z</time></trkpt><trkpt lat="45.383770264648334" lon="9.267839587488792"><ele>100.0</ele><time>2026-04-03T16:26:38.999Z</time></trkpt><trkpt lat="45.38391972745489" lon="9.268079903288182"><ele>100.0</ele><time>2026-04-03T16:26:39.999Z</time></trkpt><trkpt lat="45.38406773530039" lon="9.268317981320733"><ele>99.33333333333334</ele><time>2026-04-03T16:26:40.999Z</time></trkpt><trkpt lat="45.3842157365442" lon="9.268553174166176"><ele>98.66666666666666</ele><time>2026-04-03T16:26:41.999Z</time></trkpt><trkpt lat="45.38436084873654" lon="9.268784276051951"><ele>98.0</ele><time>2026-04-03T16:26:42.999Z</time></trkpt><trkpt lat="45.384503529330814" lon="9.269005913210908"><ele>98.0</ele><time>2026-04-03T16:26:43.999Z</time></trkpt><trkpt lat="45.38465163159244" lon="9.269199137086563"><ele>98.0</ele><time>2026-04-03T16:26:44.999Z</time></trkpt><trkpt lat="45.38481773569492" lon="9.269336489603928"><ele>98.0</ele><time>2026-04-03T16:26:45.999Z</time></trkpt><trkpt lat="45.38500288309937" lon="9.269418632935606"><ele>98.33333333333333</ele><time>2026-04-03T16:26:46.999Z</time></trkpt><trkpt lat="45.38518976914601" lon="9.269435711293104"><ele>98.66666666666666</ele><time>2026-04-03T16:26:47.999Z</time></trkpt><trkpt lat="45.38537244390593" lon="9.269392337218116"><ele>99.0</ele><time>2026-04-03T16:26:48.999Z</time></trkpt><trkpt lat="45.385550528587466" lon="9.26930975540072"><ele>99.0</ele><time>2026-04-03T16:26:49.999Z</time></trkpt><trkpt lat="45.385710896689226" lon="9.269185434341342"><ele>99.0</ele><time>2026-04-03T16:26:50.999Z</time></trkpt><trkpt lat="45.385837915966995" lon="9.268998230847627"><ele>99.0</ele><time>2026-04-03T16:26:51.999Z</time></trkpt><trkpt lat="45.385940513818205" lon="9.268785175905066"><ele>98.66666666666666</ele><time>2026-04-03T16:26:52.999Z</time></trkpt><trkpt lat="45.38602307763647" lon="9.268558244861353"><ele>98.33333333333333</ele><time>2026-04-03T16:26:53.999Z</time></trkpt><trkpt lat="45.38609770971762" lon="9.268322949636605"><ele>98.0</ele><time>2026-04-03T16:26:54.999Z</time></trkpt><trkpt lat="45.38617452150506" lon="9.268086760141923"><ele>98.0</ele><time>2026-04-03T16:26:55.999Z</time></trkpt><trkpt lat="45.38626164347681" lon="9.267847607562878"><ele>98.0</ele><time>2026-04-03T16:26:56.999Z</time></trkpt><trkpt lat="45.38635270763596" lon="9.267607922273674"><ele>98.0</ele><time>2026-04-03T16:26:57.999Z</time></trkpt><trkpt lat="45.386444854201926" lon="9.26736244382918"><ele>98.33333333333333</ele><time>2026-04-03T16:26:58.999Z</time></trkpt><trkpt lat="45.386536173637914" lon="9.267115150664532"><ele>98.66666666666666</ele><time>2026-04-03T16:26:59.999Z</time></trkpt><trkpt lat="45.386626833463765" lon="9.266869836692914"><ele>99.0</ele><time>2026-04-03T16:27:00.999Z</time></trkpt><trkpt lat="45.38671657961152" lon="9.266626468427237"><ele>98.33333333333334</ele><time>2026-04-03T16:27:01.999Z</time></trkpt><trkpt lat="45.38680424840337" lon="9.266387658326186"><ele>97.66666666666667</ele><time>2026-04-03T16:27:02.999Z</time></trkpt><trkpt lat="45.386899276008805" lon="9.266163930615384"><ele>97.0</ele><time>2026-04-03T16:27:03.999Z</time></trkpt><trkpt lat="45.38700029483187" lon="9.265952341412275"><ele>97.0</ele><time>2026-04-03T16:27:04.999Z</time></trkpt><trkpt lat="45.38712208369273" lon="9.26577267537588"><ele>97.0</ele><time>2026-04-03T16:27:05.999Z</time></trkpt><trkpt lat="45.387253025336115" lon="9.2656056286312"><ele>97.0</ele><time>2026-04-03T16:27:06.999Z</time></trkpt><trkpt lat="45.38738570226855" lon="9.265441791260928"><ele>97.33333333333334</ele><time>2026-04-03T16:27:07.999Z</time></trkpt><trkpt lat="45.387518672282226" lon="9.265275775758889"><ele>97.66666666666666</ele><time>2026-04-03T16:27:08.999Z</time></trkpt><trkpt lat="45.387651061632674" lon="9.265108040301117"><ele>98.0</ele><time>2026-04-03T16:27:09.999Z</time></trkpt><trkpt lat="45.38778533753164" lon="9.26494088634547"><ele>98.33333333333333</ele><time>2026-04-03T16:27:10.999Z</time></trkpt><trkpt lat="45.387923981935494" lon="9.264770087473439"><ele>98.66666666666666</ele><time>2026-04-03T16:27:11.999Z</time></trkpt><trkpt lat="45.38806178541841" lon="9.26459725784128"><ele>99.0</ele><time>2026-04-03T16:27:12.999Z</time></trkpt><trkpt lat="45.388204235430955" lon="9.26442055538025"><ele>98.66666666666666</ele><time>2026-04-03T16:27:13.999Z</time></trkpt><trkpt lat="45.38834821140029" lon="9.264252950520934"><ele>98.33333333333333</ele><time>2026-04-03T16:27:14.999Z</time></trkpt><trkpt lat="45.38849590818687" lon="9.264082059703899"><ele>98.0</ele><time>2026-04-03T16:27:15.999Z</time></trkpt><trkpt lat="45.38864455836552" lon="9.263905374976101"><ele>98.0</ele><time>2026-04-03T16:27:16.999Z</time></trkpt><trkpt lat="45.3887952914818" lon="9.263729051800924"><ele>98.0</ele><time>2026-04-03T16:27:17.999Z</time></trkpt><trkpt lat="45.3889509339227" lon="9.263553223351462"><ele>98.0</ele><time>2026-04-03T16:27:18.999Z</time></trkpt><trkpt lat="45.389108304596164" lon="9.263377630681363"><ele>97.66666666666666</ele><time>2026-04-03T16:27:19.999Z</time></trkpt><trkpt lat="45.38926716746898" lon="9.263213344205006"><ele>97.33333333333334</ele><time>2026-04-03T16:27:20.999Z</time></trkpt><trkpt lat="45.38942824024855" lon="9.26306551966425"><ele>97.0</ele><time>2026-04-03T16:27:21.999Z</time></trkpt><trkpt lat="45.38958848393514" lon="9.26292174985435"><ele>96.66666666666667</ele><time>2026-04-03T16:27:22.999Z</time></trkpt><trkpt lat="45.3897466145252" lon="9.2627767840398"><ele>96.33333333333334</ele><time>2026-04-03T16:27:23.999Z</time></trkpt><trkpt lat="45.38990474514738" lon="9.262637559161659"><ele>96.0</ele><time>2026-04-03T16:27:24.999Z</time></trkpt><trkpt lat="45.39006632246414" lon="9.262503075730187"><ele>96.0</ele><time>2026-04-03T16:27:25.999Z</time></trkpt><trkpt lat="45.39022944657074" lon="9.262373113713984"><ele>96.0</ele><time>2026-04-03T16:27:26.999Z</time></trkpt><trkpt lat="45.39039362267978" lon="9.262244013843166"><ele>96.0</ele><time>2026-04-03T16:27:27.999Z</time></trkpt><trkpt lat="45.390563809025195" lon="9.262109342083512"><ele>97.0</ele><time>2026-04-03T16:27:28.999Z</time></trkpt><trkpt lat="45.390741661819085" lon="9.261972956560188"><ele>98.0</ele><time>2026-04-03T16:27:29.999Z</time></trkpt><trkpt lat="45.39092856807693" lon="9.26183862451392"><ele>99.0</ele><time>2026-04-03T16:27:30.999Z</time></trkpt><trkpt lat="45.391126607226546" lon="9.261710104074446"><ele>99.0</ele><time>2026-04-03T16:27:31.999Z</time></trkpt><trkpt lat="45.391329755330645" lon="9.261586523712658"><ele>99.0</ele><time>2026-04-03T16:27:32.999Z</time></trkpt><trkpt lat="45.39153302144401" lon="9.26147014001668"><ele>99.0</ele><time>2026-04-03T16:27:33.999Z</time></trkpt><trkpt lat="45.39173430002396" lon="9.261361359838393"><ele>98.66666666666666</ele><time>2026-04-03T16:27:34.998Z</time></trkpt><trkpt lat="45.39193567359484" lon="9.261257180826133"><ele>98.33333333333333</ele><time>2026-04-03T16:27:35.998Z</time></trkpt><trkpt lat="45.39213878108455" lon="9.26115858984825"><ele>98.0</ele><time>2026-04-03T16:27:36.998Z</time></trkpt><trkpt lat="45.39234560272853" lon="9.26106903797236"><ele>99.0</ele><time>2026-04-03T16:27:37.998Z</time></trkpt><trkpt lat="45.392553787798334" lon="9.260985271975425"><ele>100.0</ele><time>2026-04-03T16:27:38.998Z</time></trkpt><trkpt lat="45.39276091550101" lon="9.260904146258241"><ele>101.0</ele><time>2026-04-03T16:27:39.998Z</time></trkpt><trkpt lat="45.39296732694554" lon="9.260833849183298"><ele>101.0</ele><time>2026-04-03T16:27:41Z</time></trkpt><trkpt lat="45.39317306675062" lon="9.260770712844428"><ele>101.0</ele><time>2026-04-03T16:27:42Z</time></trkpt><trkpt lat="45.39337877325799" lon="9.260713337762"><ele>101.0</ele><time>2026-04-03T16:27:43Z</time></trkpt><trkpt lat="45.39358503564577" lon="9.260659985280022"><ele>101.0</ele><time>2026-04-03T16:27:44Z</time></trkpt><trkpt lat="45.393791565826454" lon="9.260612968314607"><ele>101.0</ele><time>2026-04-03T16:27:45Z</time></trkpt><trkpt lat="45.39399848591311" lon="9.260570638688455"><ele>101.0</ele><time>2026-04-03T16:27:46Z</time></trkpt><trkpt lat="45.394203167671456" lon="9.260533079378817"><ele>101.33333333333333</ele><time>2026-04-03T16:27:47Z</time></trkpt><trkpt lat="45.39440365537723" lon="9.260501353801196"><ele>101.66666666666666</ele><time>2026-04-03T16:27:48Z</time></trkpt><trkpt lat="45.394603790047206" lon="9.260476465564258"><ele>102.0</ele><time>2026-04-03T16:27:49Z</time></trkpt><trkpt lat="45.39480346192649" lon="9.260459549819036"><ele>101.33333333333334</ele><time>2026-04-03T16:27:50Z</time></trkpt><trkpt lat="45.39500549637977" lon="9.260448272748997"><ele>100.66666666666667</ele><time>2026-04-03T16:27:51Z</time></trkpt><trkpt lat="45.39520904250453" lon="9.26044343120656"><ele>100.0</ele><time>2026-04-03T16:27:52Z</time></trkpt><trkpt lat="45.39541132594629" lon="9.260443699495639"><ele>100.0</ele><time>2026-04-03T16:27:53Z</time></trkpt><trkpt lat="45.39561171931713" lon="9.260447134275708"><ele>100.0</ele><time>2026-04-03T16:27:54Z</time></trkpt><trkpt lat="45.395813890477775" lon="9.260454593828287"><ele>100.0</ele><time>2026-04-03T16:27:55Z</time></trkpt><trkpt lat="45.396016854325886" lon="9.260468414813406"><ele>100.0</ele><time>2026-04-03T16:27:56Z</time></trkpt><trkpt lat="45.39622051454223" lon="9.260488013505157"><ele>100.0</ele><time>2026-04-03T16:27:57Z</time></trkpt><trkpt lat="45.396424605383885" lon="9.260509961259107"><ele>100.0</ele><time>2026-04-03T16:27:58Z</time></trkpt><trkpt lat="45.39662759878518" lon="9.260532965331853"><ele>100.0</ele><time>2026-04-03T16:27:59Z</time></trkpt><trkpt lat="45.39683327252116" lon="9.26055499437275"><ele>100.0</ele><time>2026-04-03T16:27:59.999Z</time></trkpt><trkpt lat="45.39704115678751" lon="9.26057691795758"><ele>100.0</ele><time>2026-04-03T16:28:00.999Z</time></trkpt><trkpt lat="45.39724867067424" lon="9.26060090208094"><ele>100.0</ele><time>2026-04-03T16:28:01.999Z</time></trkpt><trkpt lat="45.39745751972906" lon="9.260625561558225"><ele>100.0</ele><time>2026-04-03T16:28:02.999Z</time></trkpt><trkpt lat="45.39766555791917" lon="9.260649209321812"><ele>100.0</ele><time>2026-04-03T16:28:03.999Z</time></trkpt><trkpt lat="45.397873911974905" lon="9.260668948858545"><ele>100.33333333333334</ele><time>2026-04-03T16:28:04.999Z</time></trkpt><trkpt lat="45.398084045519944" lon="9.260689307642352"><ele>100.66666666666666</ele><time>2026-04-03T16:28:05.999Z</time></trkpt><trkpt lat="45.39829573300755" lon="9.26071061673205"><ele>101.0</ele><time>2026-04-03T16:28:06.999Z</time></trkpt><trkpt lat="45.398509920075234" lon="9.260735825934542"><ele>101.0</ele><time>2026-04-03T16:28:07.999Z</time></trkpt><trkpt lat="45.398725629975836" lon="9.260759444919296"><ele>101.0</ele><time>2026-04-03T16:28:08.999Z</time></trkpt><trkpt lat="45.398942607295105" lon="9.260785416605215"><ele>101.0</ele><time>2026-04-03T16:28:09.999Z</time></trkpt><trkpt lat="45.3991608993079" lon="9.260810070114614"><ele>101.0</ele><time>2026-04-03T16:28:10.999Z</time></trkpt><trkpt lat="45.39938095446697" lon="9.260833396807001"><ele>101.0</ele><time>2026-04-03T16:28:11.999Z</time></trkpt><trkpt lat="45.3996037576617" lon="9.260857709645709"><ele>101.0</ele><time>2026-04-03T16:28:12.999Z</time></trkpt><trkpt lat="45.399829244527524" lon="9.26088467797144"><ele>100.0</ele><time>2026-04-03T16:28:13.999Z</time></trkpt><trkpt lat="45.400052367372105" lon="9.260910714898062"><ele>99.0</ele><time>2026-04-03T16:28:14.999Z</time></trkpt><trkpt lat="45.40027509070398" lon="9.260936048267897"><ele>98.0</ele><time>2026-04-03T16:28:15.999Z</time></trkpt><trkpt lat="45.40051598066632" lon="9.260960824444243"><ele>98.0</ele><time>2026-04-03T16:28:16.999Z</time></trkpt><trkpt lat="45.400744253132544" lon="9.260984157756848"><ele>98.0</ele><time>2026-04-03T16:28:17.999Z</time></trkpt><trkpt lat="45.40097123773334" lon="9.26100696178582"><ele>98.0</ele><time>2026-04-03T16:28:18.999Z</time></trkpt><trkpt lat="45.401201428451074" lon="9.261033485399564"><ele>98.0</ele><time>2026-04-03T16:28:19.999Z</time></trkpt><trkpt lat="45.401433757586844" lon="9.26105617573107"><ele>98.5</ele><time>2026-04-03T16:28:20.999Z</time></trkpt><trkpt lat="45.40166809696196" lon="9.261079592012287"><ele>99.0</ele><time>2026-04-03T16:28:21.999Z</time></trkpt><trkpt lat="45.401899900914735" lon="9.26110571377143"><ele>99.0</ele><time>2026-04-03T16:28:22.999Z</time></trkpt><trkpt lat="45.40213171491427" lon="9.261140773115386"><ele>99.0</ele><time>2026-04-03T16:28:23.999Z</time></trkpt><trkpt lat="45.40236128826756" lon="9.26116657149252"><ele>99.0</ele><time>2026-04-03T16:28:24.999Z</time></trkpt><trkpt lat="45.40259562324582" lon="9.261189846201747"><ele>99.0</ele><time>2026-04-03T16:28:25.999Z</time></trkpt><trkpt lat="45.40282652359146" lon="9.261216062004328"><ele>99.5</ele><time>2026-04-03T16:28:26.999Z</time></trkpt><trkpt lat="45.40306287545507" lon="9.261239877573985"><ele>100.0</ele><time>2026-04-03T16:28:27.999Z</time></trkpt><trkpt lat="45.4032968936657" lon="9.2612688565536"><ele>100.0</ele><time>2026-04-03T16:28:28.999Z</time></trkpt><trkpt lat="45.40353396459674" lon="9.26129270967095"><ele>100.0</ele><time>2026-04-03T16:28:29.999Z</time></trkpt><trkpt lat="45.4037690558559" lon="9.26131882356465"><ele>99.5</ele><time>2026-04-03T16:28:30.999Z</time></trkpt><trkpt lat="45.404007062774234" lon="9.261342644748714"><ele>99.0</ele><time>2026-04-03T16:28:31.999Z</time></trkpt><trkpt lat="45.40424684218409" lon="9.261367042354031"><ele>99.0</ele><time>2026-04-03T16:28:32.999Z</time></trkpt><trkpt lat="45.40448481367475" lon="9.261394698195993"><ele>99.0</ele><time>2026-04-03T16:28:33.999Z</time></trkpt><trkpt lat="45.40472086194129" lon="9.261427816187906"><ele>99.0</ele><time>2026-04-03T16:28:34.999Z</time></trkpt><trkpt lat="45.404953475898964" lon="9.26145074234861"><ele>99.0</ele><time>2026-04-03T16:28:35.999Z</time></trkpt><trkpt lat="45.405185835588355" lon="9.261476694152773"><ele>99.0</ele><time>2026-04-03T16:28:36.999Z</time></trkpt><trkpt lat="45.405413750812905" lon="9.26150260858509"><ele>99.0</ele><time>2026-04-03T16:28:37.999Z</time></trkpt><trkpt lat="45.405645856893294" lon="9.261522485853963"><ele>99.0</ele><time>2026-04-03T16:28:38.999Z</time></trkpt><trkpt lat="45.405883118754076" lon="9.2615184887886"><ele>99.0</ele><time>2026-04-03T16:28:39.999Z</time></trkpt><trkpt lat="45.4061178720634" lon="9.261504084253843"><ele>99.0</ele><time>2026-04-03T16:28:40.999Z</time></trkpt><trkpt lat="45.406351871348264" lon="9.261481751023833"><ele>99.0</ele><time>2026-04-03T16:28:41.999Z</time></trkpt><trkpt lat="45.406584757302966" lon="9.26143861587313"><ele>99.0</ele><time>2026-04-03T16:28:42.999Z</time></trkpt><trkpt lat="45.40681607392994" lon="9.26136976532815"><ele>99.0</ele><time>2026-04-03T16:28:43.999Z</time></trkpt><trkpt lat="45.40704284418733" lon="9.261290926567742"><ele>98.5</ele><time>2026-04-03T16:28:44.999Z</time></trkpt><trkpt lat="45.40726564751068" lon="9.261199814281072"><ele>98.0</ele><time>2026-04-03T16:28:45.999Z</time></trkpt><trkpt lat="45.40747968957109" lon="9.261085595157743"><ele>98.0</ele><time>2026-04-03T16:28:46.999Z</time></trkpt><trkpt lat="45.40769915193912" lon="9.260949953943198"><ele>98.0</ele><time>2026-04-03T16:28:47.999Z</time></trkpt><trkpt lat="45.40790804513935" lon="9.260805077598581"><ele>98.0</ele><time>2026-04-03T16:28:48.999Z</time></trkpt><trkpt lat="45.40811200171668" lon="9.260646760684349"><ele>98.0</ele><time>2026-04-03T16:28:49.999Z</time></trkpt><trkpt lat="45.40830786936646" lon="9.260481445087615"><ele>98.0</ele><time>2026-04-03T16:28:50.999Z</time></trkpt><trkpt lat="45.408498715476426" lon="9.260301293306567"><ele>98.0</ele><time>2026-04-03T16:28:51.999Z</time></trkpt><trkpt lat="45.40868290441349" lon="9.260109630084303"><ele>98.0</ele><time>2026-04-03T16:28:52.999Z</time></trkpt><trkpt lat="45.40886033596292" lon="9.25990096354448"><ele>98.0</ele><time>2026-04-03T16:28:53.999Z</time></trkpt><trkpt lat="45.40903438308483" lon="9.259689507255462"><ele>98.0</ele><time>2026-04-03T16:28:54.999Z</time></trkpt><trkpt lat="45.40920462941752" lon="9.259474120434648"><ele>98.0</ele><time>2026-04-03T16:28:55.999Z</time></trkpt><trkpt lat="45.409376191770384" lon="9.259257164921372"><ele>98.0</ele><time>2026-04-03T16:28:56.999Z</time></trkpt><trkpt lat="45.40954823941508" lon="9.259038157087442"><ele>98.0</ele><time>2026-04-03T16:28:57.999Z</time></trkpt><trkpt lat="45.40972088872989" lon="9.25882152131092"><ele>100.0</ele><time>2026-04-03T16:28:58.999Z</time></trkpt><trkpt lat="45.409893781361625" lon="9.258603941164091"><ele>102.0</ele><time>2026-04-03T16:28:59.999Z</time></trkpt><trkpt lat="45.41006894011727" lon="9.258388955549709"><ele>102.0</ele><time>2026-04-03T16:29:00.999Z</time></trkpt><trkpt lat="45.41024388623488" lon="9.258169576009905"><ele>102.0</ele><time>2026-04-03T16:29:01.999Z</time></trkpt><trkpt lat="45.4104181082752" lon="9.25795197292527"><ele>102.0</ele><time>2026-04-03T16:29:02.999Z</time></trkpt><trkpt lat="45.41059298130088" lon="9.257741539507155"><ele>102.0</ele><time>2026-04-03T16:29:03.999Z</time></trkpt><trkpt lat="45.41076644651307" lon="9.257534007724281"><ele>102.0</ele><time>2026-04-03T16:29:04.999Z</time></trkpt><trkpt lat="45.41094194461323" lon="9.257320752138861"><ele>102.0</ele><time>2026-04-03T16:29:05.999Z</time></trkpt><trkpt lat="45.41111474585996" lon="9.257106981531976"><ele>101.5</ele><time>2026-04-03T16:29:06.999Z</time></trkpt><trkpt lat="45.41128891182918" lon="9.256890940282629"><ele>101.0</ele><time>2026-04-03T16:29:07.999Z</time></trkpt><trkpt lat="45.41146408260048" lon="9.256671524422242"><ele>100.5</ele><time>2026-04-03T16:29:08.999Z</time></trkpt><trkpt lat="45.41163937493822" lon="9.256449937542639"><ele>100.0</ele><time>2026-04-03T16:29:09.999Z</time></trkpt><trkpt lat="45.41181493081538" lon="9.256230491553962"><ele>100.0</ele><time>2026-04-03T16:29:10.999Z</time></trkpt><trkpt lat="45.411994332767286" lon="9.256006409082342"><ele>100.0</ele><time>2026-04-03T16:29:11.999Z</time></trkpt><trkpt lat="45.412174315290635" lon="9.255781946852549"><ele>100.0</ele><time>2026-04-03T16:29:12.999Z</time></trkpt><trkpt lat="45.412354115089414" lon="9.255559040892251"><ele>100.0</ele><time>2026-04-03T16:29:13.999Z</time></trkpt><trkpt lat="45.41253295811192" lon="9.255334665959838"><ele>100.0</ele><time>2026-04-03T16:29:14.999Z</time></trkpt><trkpt lat="45.4127104570588" lon="9.25510835946905"><ele>100.0</ele><time>2026-04-03T16:29:15.999Z</time></trkpt><trkpt lat="45.41288931854609" lon="9.254878069037906"><ele>100.5</ele><time>2026-04-03T16:29:16.999Z</time></trkpt><trkpt lat="45.41306627378738" lon="9.254647565735983"><ele>101.0</ele><time>2026-04-03T16:29:17.999Z</time></trkpt><trkpt lat="45.41324324756395" lon="9.254412670417919"><ele>101.0</ele><time>2026-04-03T16:29:18.999Z</time></trkpt><trkpt lat="45.41342192780403" lon="9.254170685799432"><ele>101.0</ele><time>2026-04-03T16:29:19.999Z</time></trkpt><trkpt lat="45.413598855831715" lon="9.253932220719843"><ele>102.0</ele><time>2026-04-03T16:29:20.999Z</time></trkpt><trkpt lat="45.413777284840776" lon="9.253691354577455"><ele>103.0</ele><time>2026-04-03T16:29:21.999Z</time></trkpt><trkpt lat="45.413954148991465" lon="9.253449655279907"><ele>103.0</ele><time>2026-04-03T16:29:22.999Z</time></trkpt><trkpt lat="45.41412949503595" lon="9.25320402594491"><ele>103.0</ele><time>2026-04-03T16:29:23.999Z</time></trkpt><trkpt lat="45.41430255065226" lon="9.252961512533844"><ele>104.5</ele><time>2026-04-03T16:29:24.999Z</time></trkpt><trkpt lat="45.41447642748218" lon="9.252715720735955"><ele>106.0</ele><time>2026-04-03T16:29:25.999Z</time></trkpt><trkpt lat="45.41464903763786" lon="9.252469550075865"><ele>102.5</ele><time>2026-04-03T16:29:26.999Z</time></trkpt><trkpt lat="45.41482154872825" lon="9.252222979735807"><ele>99.0</ele><time>2026-04-03T16:29:27.999Z</time></trkpt><trkpt lat="45.41499393140037" lon="9.251970978467407"><ele>99.0</ele><time>2026-04-03T16:29:28.999Z</time></trkpt><trkpt lat="45.415161100205815" lon="9.251718357249587"><ele>99.0</ele><time>2026-04-03T16:29:29.999Z</time></trkpt><trkpt lat="45.415330619447836" lon="9.251468126059995"><ele>99.5</ele><time>2026-04-03T16:29:30.999Z</time></trkpt><trkpt lat="45.41549896473457" lon="9.251216431447183"><ele>100.0</ele><time>2026-04-03T16:29:31.999Z</time></trkpt><trkpt lat="45.41566865228244" lon="9.250960867455492"><ele>100.0</ele><time>2026-04-03T16:29:32.999Z</time></trkpt><trkpt lat="45.41583630527404" lon="9.250708259364991"><ele>100.0</ele><time>2026-04-03T16:29:33.999Z</time></trkpt><trkpt lat="45.41600496179348" lon="9.250454533930892"><ele>100.0</ele><time>2026-04-03T16:29:34.999Z</time></trkpt><trkpt lat="45.41617409384022" lon="9.250200925249258"><ele>100.0</ele><time>2026-04-03T16:29:35.999Z</time></trkpt><trkpt lat="45.41634093388634" lon="9.249948732169598"><ele>101.0</ele><time>2026-04-03T16:29:36.999Z</time></trkpt><trkpt lat="45.416509263051296" lon="9.249693635048622"><ele>102.0</ele><time>2026-04-03T16:29:37.999Z</time></trkpt><trkpt lat="45.416677111379116" lon="9.249437506029567"><ele>102.0</ele><time>2026-04-03T16:29:38.999Z</time></trkpt><trkpt lat="45.416845606273284" lon="9.249183329214588"><ele>102.0</ele><time>2026-04-03T16:29:39.999Z</time></trkpt><trkpt lat="45.41701439083533" lon="9.24893080771673"><ele>100.0</ele><time>2026-04-03T16:29:40.999Z</time></trkpt><trkpt lat="45.417184229193126" lon="9.248676017024746"><ele>98.0</ele><time>2026-04-03T16:29:41.998Z</time></trkpt><trkpt lat="45.417356246808154" lon="9.248423878299041"><ele>98.0</ele><time>2026-04-03T16:29:42.998Z</time></trkpt><trkpt lat="45.4175332461991" lon="9.248181002852002"><ele>98.0</ele><time>2026-04-03T16:29:43.998Z</time></trkpt><trkpt lat="45.41771812057838" lon="9.247948855674656"><ele>99.0</ele><time>2026-04-03T16:29:44.998Z</time></trkpt><trkpt lat="45.41790792062455" lon="9.247727215636543"><ele>100.0</ele><time>2026-04-03T16:29:45.998Z</time></trkpt><trkpt lat="45.41810529493587" lon="9.247515463508876"><ele>100.5</ele><time>2026-04-03T16:29:47Z</time></trkpt><trkpt lat="45.41830932570531" lon="9.24732055178382"><ele>101.0</ele><time>2026-04-03T16:29:48Z</time></trkpt><trkpt lat="45.41852220612878" lon="9.247136767393172"><ele>101.0</ele><time>2026-04-03T16:29:49Z</time></trkpt><trkpt lat="45.41873967209829" lon="9.246971667066628"><ele>101.0</ele><time>2026-04-03T16:29:50Z</time></trkpt><trkpt lat="45.41896317249434" lon="9.246821883965412"><ele>103.0</ele><time>2026-04-03T16:29:51Z</time></trkpt><trkpt lat="45.41918953055877" lon="9.246683590686217"><ele>105.0</ele><time>2026-04-03T16:29:52Z</time></trkpt><trkpt lat="45.41942012987329" lon="9.24656663153584"><ele>105.0</ele><time>2026-04-03T16:29:53Z</time></trkpt><trkpt lat="45.4196507275738" lon="9.246458141717804"><ele>105.0</ele><time>2026-04-03T16:29:54Z</time></trkpt><trkpt lat="45.419886587092115" lon="9.246362804620123"><ele>105.0</ele><time>2026-04-03T16:29:55Z</time></trkpt><trkpt lat="45.42012261482684" lon="9.24628424652365"><ele>105.0</ele><time>2026-04-03T16:29:56Z</time></trkpt><trkpt lat="45.420355638495565" lon="9.246217699644012"><ele>106.0</ele><time>2026-04-03T16:29:57Z</time></trkpt><trkpt lat="45.42059408050838" lon="9.246168643827458"><ele>107.0</ele><time>2026-04-03T16:29:58Z</time></trkpt><trkpt lat="45.42083317996367" lon="9.246134755075918"><ele>107.0</ele><time>2026-04-03T16:29:59Z</time></trkpt><trkpt lat="45.42107201916576" lon="9.246105810826425"><ele>107.0</ele><time>2026-04-03T16:30:00Z</time></trkpt><trkpt lat="45.421310662902876" lon="9.246078608705492"><ele>107.0</ele><time>2026-04-03T16:30:01Z</time></trkpt><trkpt lat="45.42154949172224" lon="9.2460469694531"><ele>107.0</ele><time>2026-04-03T16:30:02Z</time></trkpt><trkpt lat="45.42178502663697" lon="9.246012681659241"><ele>107.0</ele><time>2026-04-03T16:30:03Z</time></trkpt><trkpt lat="45.42202132176428" lon="9.245975159624194"><ele>107.0</ele><time>2026-04-03T16:30:04Z</time></trkpt><trkpt lat="45.42225894040158" lon="9.245937505243134"><ele>106.0</ele><time>2026-04-03T16:30:05Z</time></trkpt><trkpt lat="45.4224975478839" lon="9.24590265359832"><ele>105.0</ele><time>2026-04-03T16:30:05.999Z</time></trkpt><trkpt lat="45.422738073392274" lon="9.245871280084438"><ele>105.0</ele><time>2026-04-03T16:30:06.999Z</time></trkpt><trkpt lat="45.422978486682936" lon="9.245841943766488"><ele>105.0</ele><time>2026-04-03T16:30:07.999Z</time></trkpt><trkpt lat="45.4232182325033" lon="9.245808567860209"><ele>104.0</ele><time>2026-04-03T16:30:08.999Z</time></trkpt><trkpt lat="45.423457723859386" lon="9.245775542616247"><ele>103.0</ele><time>2026-04-03T16:30:09.999Z</time></trkpt><trkpt lat="45.423696757518805" lon="9.245737051486211"><ele>102.5</ele><time>2026-04-03T16:30:10.999Z</time></trkpt><trkpt lat="45.42393790982333" lon="9.245696857598249"><ele>102.0</ele><time>2026-04-03T16:30:11.999Z</time></trkpt><trkpt lat="45.424184181193226" lon="9.245656029342257"><ele>103.0</ele><time>2026-04-03T16:30:12.999Z</time></trkpt><trkpt lat="45.42442699125138" lon="9.245619051311142"><ele>104.0</ele><time>2026-04-03T16:30:13.999Z</time></trkpt><trkpt lat="45.42467322463774" lon="9.245589714726608"><ele>104.0</ele><time>2026-04-03T16:30:14.999Z</time></trkpt><trkpt lat="45.42492306341219" lon="9.245572431005542"><ele>104.0</ele><time>2026-04-03T16:30:15.999Z</time></trkpt><trkpt lat="45.42517364130276" lon="9.245565340972165"><ele>104.0</ele><time>2026-04-03T16:30:16.999Z</time></trkpt><trkpt lat="45.42542629594244" lon="9.245572832446873"><ele>104.0</ele><time>2026-04-03T16:30:17.999Z</time></trkpt><trkpt lat="45.42567990965658" lon="9.245597662016362"><ele>104.0</ele><time>2026-04-03T16:30:18.999Z</time></trkpt><trkpt lat="45.42593208781429" lon="9.245645720289952"><ele>104.0</ele><time>2026-04-03T16:30:19.999Z</time></trkpt><trkpt lat="45.42618227526814" lon="9.245717419654408"><ele>102.5</ele><time>2026-04-03T16:30:20.999Z</time></trkpt><trkpt lat="45.426427865800946" lon="9.24581012996534"><ele>101.0</ele><time>2026-04-03T16:30:21.999Z</time></trkpt><trkpt lat="45.426670702300235" lon="9.245919677688965"><ele>101.0</ele><time>2026-04-03T16:30:22.999Z</time></trkpt><trkpt lat="45.42690950786507" lon="9.246046679420992"><ele>101.0</ele><time>2026-04-03T16:30:23.999Z</time></trkpt><trkpt lat="45.4271449663845" lon="9.246191898003202"><ele>102.5</ele><time>2026-04-03T16:30:24.999Z</time></trkpt><trkpt lat="45.42737362634814" lon="9.24635757036173"><ele>104.0</ele><time>2026-04-03T16:30:25.999Z</time></trkpt><trkpt lat="45.42759866212413" lon="9.24654073150622"><ele>105.0</ele><time>2026-04-03T16:30:26.999Z</time></trkpt><trkpt lat="45.427813230237014" lon="9.246738611686718"><ele>106.0</ele><time>2026-04-03T16:30:27.999Z</time></trkpt><trkpt lat="45.42802070183893" lon="9.246957248934827"><ele>108.5</ele><time>2026-04-03T16:30:28.999Z</time></trkpt><trkpt lat="45.428217259211394" lon="9.247194914299056"><ele>111.0</ele><time>2026-04-03T16:30:29.999Z</time></trkpt><trkpt lat="45.42840247701277" lon="9.247446183447327"><ele>111.0</ele><time>2026-04-03T16:30:30.999Z</time></trkpt><trkpt lat="45.42857969853166" lon="9.24770973322276"><ele>111.0</ele><time>2026-04-03T16:30:31.999Z</time></trkpt><trkpt lat="45.428749601451436" lon="9.247978028448289"><ele>110.5</ele><time>2026-04-03T16:30:32.999Z</time></trkpt><trkpt lat="45.428918178453756" lon="9.248247170690549"><ele>110.0</ele><time>2026-04-03T16:30:33.999Z</time></trkpt><trkpt lat="45.42908622423568" lon="9.248518192228671"><ele>110.0</ele><time>2026-04-03T16:30:34.999Z</time></trkpt><trkpt lat="45.42925108759398" lon="9.248791928913375"><ele>110.0</ele><time>2026-04-03T16:30:35.999Z</time></trkpt><trkpt lat="45.42941639846875" lon="9.249066574715952"><ele>109.0</ele><time>2026-04-03T16:30:36.999Z</time></trkpt><trkpt lat="45.42958278779809" lon="9.249340772359849"><ele>108.0</ele><time>2026-04-03T16:30:37.999Z</time></trkpt><trkpt lat="45.42975069509808" lon="9.249615795388426"><ele>107.5</ele><time>2026-04-03T16:30:38.999Z</time></trkpt><trkpt lat="45.42992068227347" lon="9.249890654956658"><ele>107.0</ele><time>2026-04-03T16:30:39.999Z</time></trkpt><trkpt lat="45.43009140808399" lon="9.250164726302462"><ele>107.0</ele><time>2026-04-03T16:30:40.999Z</time></trkpt><trkpt lat="45.43026357505695" lon="9.25044449839507"><ele>107.0</ele><time>2026-04-03T16:30:41.999Z</time></trkpt><trkpt lat="45.43043518884803" lon="9.250726377406268"><ele>106.5</ele><time>2026-04-03T16:30:42.999Z</time></trkpt><trkpt lat="45.4306080904862" lon="9.251008796544657"><ele>106.0</ele><time>2026-04-03T16:30:43.999Z</time></trkpt><trkpt lat="45.4307843111641" lon="9.25129047287385"><ele>106.0</ele><time>2026-04-03T16:30:44.999Z</time></trkpt><trkpt lat="45.43096515684524" lon="9.251563478004496"><ele>106.0</ele><time>2026-04-03T16:30:45.999Z</time></trkpt><trkpt lat="45.43115056337072" lon="9.251832364330333"><ele>105.5</ele><time>2026-04-03T16:30:46.999Z</time></trkpt><trkpt lat="45.431338527429716" lon="9.252097320195494"><ele>105.0</ele><time>2026-04-03T16:30:47.999Z</time></trkpt><trkpt lat="45.431529734231674" lon="9.252357265600468"><ele>104.5</ele><time>2026-04-03T16:30:48.999Z</time></trkpt><trkpt lat="45.43172613261477" lon="9.252602765796878"><ele>104.0</ele><time>2026-04-03T16:30:49.999Z</time></trkpt><trkpt lat="45.43192560521794" lon="9.25283695591117"><ele>104.0</ele><time>2026-04-03T16:30:51Z</time></trkpt><trkpt lat="45.432128045831774" lon="9.253062900016754"><ele>104.0</ele><time>2026-04-03T16:30:52Z</time></trkpt><trkpt lat="45.43233328832442" lon="9.2532843380638"><ele>103.0</ele><time>2026-04-03T16:30:53Z</time></trkpt><trkpt lat="45.43254094767856" lon="9.253499750629487"><ele>102.0</ele><time>2026-04-03T16:30:54Z</time></trkpt><trkpt lat="45.43275314618784" lon="9.253710693723258"><ele>102.0</ele><time>2026-04-03T16:30:55Z</time></trkpt><trkpt lat="45.432968980398314" lon="9.253916654294615"><ele>102.0</ele><time>2026-04-03T16:30:56Z</time></trkpt><trkpt lat="45.433186623434544" lon="9.254116180240315"><ele>104.5</ele><time>2026-04-03T16:30:57Z</time></trkpt><trkpt lat="45.43340870406782" lon="9.254311425855258"><ele>107.0</ele><time>2026-04-03T16:30:58Z</time></trkpt><trkpt lat="45.43363122887725" lon="9.254498531826371"><ele>107.0</ele><time>2026-04-03T16:30:59Z</time></trkpt><trkpt lat="45.43385739788462" lon="9.254678056892047"><ele>107.0</ele><time>2026-04-03T16:31:00Z</time></trkpt><trkpt lat="45.4340864421056" lon="9.254847387851656"><ele>107.0</ele><time>2026-04-03T16:31:01Z</time></trkpt><trkpt lat="45.43431729971287" lon="9.255010024041455"><ele>107.0</ele><time>2026-04-03T16:31:02Z</time></trkpt><trkpt lat="45.43455020439662" lon="9.255164936546366"><ele>106.5</ele><time>2026-04-03T16:31:03Z</time></trkpt><trkpt lat="45.43478576405869" lon="9.25531519367224"><ele>106.0</ele><time>2026-04-03T16:31:04Z</time></trkpt><trkpt lat="45.43502306111896" lon="9.255460162621034"><ele>106.0</ele><time>2026-04-03T16:31:05Z</time></trkpt><trkpt lat="45.43526372883385" lon="9.255597036177345"><ele>106.0</ele><time>2026-04-03T16:31:06Z</time></trkpt><trkpt lat="45.43550934949939" lon="9.255723020240685"><ele>107.0</ele><time>2026-04-03T16:31:07Z</time></trkpt><trkpt lat="45.43575938066165" lon="9.255846649013485"><ele>108.0</ele><time>2026-04-03T16:31:08Z</time></trkpt><trkpt lat="45.436004593421025" lon="9.255946591347419"><ele>108.0</ele><time>2026-04-03T16:31:09Z</time></trkpt><trkpt lat="45.436250795567815" lon="9.25604232847626"><ele>108.0</ele><time>2026-04-03T16:31:10Z</time></trkpt><trkpt lat="45.43650048851182" lon="9.256137137286071"><ele>107.0</ele><time>2026-04-03T16:31:11Z</time></trkpt><trkpt lat="45.43674832533767" lon="9.256227068197722"><ele>106.0</ele><time>2026-04-03T16:31:12Z</time></trkpt><trkpt lat="45.4369970612416" lon="9.256311026219024"><ele>107.0</ele><time>2026-04-03T16:31:13Z</time></trkpt><trkpt lat="45.43724724830204" lon="9.256392888134076"><ele>108.0</ele><time>2026-04-03T16:31:14Z</time></trkpt><trkpt lat="45.437497277790705" lon="9.256469962650575"><ele>106.0</ele><time>2026-04-03T16:31:15Z</time></trkpt><trkpt lat="45.43774183704673" lon="9.256544153705677"><ele>104.0</ele><time>2026-04-03T16:31:16Z</time></trkpt><trkpt lat="45.43798079186539" lon="9.256609555279265"><ele>104.0</ele><time>2026-04-03T16:31:17Z</time></trkpt><trkpt lat="45.43821059915932" lon="9.25667143006765"><ele>104.0</ele><time>2026-04-03T16:31:18Z</time></trkpt><trkpt lat="45.4384379002572" lon="9.2567302042024"><ele>104.0</ele><time>2026-04-03T16:31:19Z</time></trkpt><trkpt lat="45.43866460515619" lon="9.256789692025938"><ele>104.0</ele><time>2026-04-03T16:31:20Z</time></trkpt><trkpt lat="45.43888704063939" lon="9.25685334302298"><ele>104.0</ele><time>2026-04-03T16:31:21Z</time></trkpt><trkpt lat="45.43911043312846" lon="9.2569192676484"><ele>104.0</ele><time>2026-04-03T16:31:22Z</time></trkpt><trkpt lat="45.439333025119716" lon="9.256985557635971"><ele>104.0</ele><time>2026-04-03T16:31:23Z</time></trkpt><trkpt lat="45.43955822675933" lon="9.257049077523355"><ele>104.0</ele><time>2026-04-03T16:31:24Z</time></trkpt><trkpt lat="45.43978146984794" lon="9.257110000860377"><ele>104.5</ele><time>2026-04-03T16:31:25Z</time></trkpt><trkpt lat="45.44000721493996" lon="9.25717159901832"><ele>105.0</ele><time>2026-04-03T16:31:26Z</time></trkpt><trkpt lat="45.44023470753874" lon="9.257233882148578"><ele>104.0</ele><time>2026-04-03T16:31:27Z</time></trkpt><trkpt lat="45.44045779713714" lon="9.257298991933089"><ele>103.0</ele><time>2026-04-03T16:31:28Z</time></trkpt><trkpt lat="45.440683868376816" lon="9.257363305306441"><ele>103.0</ele><time>2026-04-03T16:31:29Z</time></trkpt><trkpt lat="45.44091148091108" lon="9.257428873131497"><ele>103.0</ele><time>2026-04-03T16:31:30Z</time></trkpt><trkpt lat="45.441139984951405" lon="9.257496055020322"><ele>100.5</ele><time>2026-04-03T16:31:31Z</time></trkpt><trkpt lat="45.44136855963996" lon="9.257562297418902"><ele>98.0</ele><time>2026-04-03T16:31:32Z</time></trkpt><trkpt lat="45.44159613409205" lon="9.25762986158351"><ele>98.0</ele><time>2026-04-03T16:31:33Z</time></trkpt><trkpt lat="45.4418251714929" lon="9.25769569255548"><ele>98.0</ele><time>2026-04-03T16:31:34Z</time></trkpt><trkpt lat="45.442054576138865" lon="9.257761081323064"><ele>101.0</ele><time>2026-04-03T16:31:35Z</time></trkpt><trkpt lat="45.442285981557454" lon="9.257825126215419"><ele>104.0</ele><time>2026-04-03T16:31:36Z</time></trkpt><trkpt lat="45.44251329569844" lon="9.257887294931662"><ele>104.0</ele><time>2026-04-03T16:31:37Z</time></trkpt><trkpt lat="45.44274194385849" lon="9.257951487300387"><ele>104.0</ele><time>2026-04-03T16:31:38Z</time></trkpt><trkpt lat="45.442969825609005" lon="9.258016523897162"><ele>102.5</ele><time>2026-04-03T16:31:39Z</time></trkpt><trkpt lat="45.443194758227705" lon="9.258081599767875"><ele>101.0</ele><time>2026-04-03T16:31:40Z</time></trkpt><trkpt lat="45.443420901753484" lon="9.258144963465032"><ele>101.0</ele><time>2026-04-03T16:31:41Z</time></trkpt><trkpt lat="45.44364670527737" lon="9.258210078853155"><ele>101.0</ele><time>2026-04-03T16:31:42Z</time></trkpt><trkpt lat="45.44387410439708" lon="9.258275761751097"><ele>96.5</ele><time>2026-04-03T16:31:43Z</time></trkpt><trkpt lat="45.44410172645429" lon="9.258342872884608"><ele>92.0</ele><time>2026-04-03T16:31:43.999Z</time></trkpt><trkpt lat="45.44433103681682" lon="9.258409393841179"><ele>92.0</ele><time>2026-04-03T16:31:44.999Z</time></trkpt><trkpt lat="45.4445598166953" lon="9.258473870291581"><ele>92.0</ele><time>2026-04-03T16:31:45.999Z</time></trkpt><trkpt lat="45.444791298176035" lon="9.2585412850125"><ele>91.5</ele><time>2026-04-03T16:31:46.999Z</time></trkpt><trkpt lat="45.44502452956401" lon="9.258609295806753"><ele>91.0</ele><time>2026-04-03T16:31:47.999Z</time></trkpt><trkpt lat="45.445257898437475" lon="9.258676486490646"><ele>96.0</ele><time>2026-04-03T16:31:48.999Z</time></trkpt><trkpt lat="45.445492461148575" lon="9.25874232439541"><ele>101.0</ele><time>2026-04-03T16:31:49.999Z</time></trkpt><trkpt lat="45.4457272527862" lon="9.258811338292395"><ele>101.0</ele><time>2026-04-03T16:31:50.999Z</time></trkpt><trkpt lat="45.44596223554237" lon="9.258880520909694"><ele>101.0</ele><time>2026-04-03T16:31:51.999Z</time></trkpt><trkpt lat="45.4461977586312" lon="9.25894585267061"><ele>103.5</ele><time>2026-04-03T16:31:53.001Z</time></trkpt><trkpt lat="45.44643674425585" lon="9.259004856138498"><ele>106.0</ele><time>2026-04-03T16:31:54.001Z</time></trkpt><trkpt lat="45.44667435134876" lon="9.259053422471483"><ele>106.0</ele><time>2026-04-03T16:31:55.001Z</time></trkpt><trkpt lat="45.44691295895306" lon="9.259090939775097"><ele>106.0</ele><time>2026-04-03T16:31:56.001Z</time></trkpt><trkpt lat="45.44715370024849" lon="9.25911629376734"><ele>107.0</ele><time>2026-04-03T16:31:57.001Z</time></trkpt><trkpt lat="45.44739316719537" lon="9.25912821891721"><ele>108.0</ele><time>2026-04-03T16:31:58.001Z</time></trkpt><trkpt lat="45.44763442647483" lon="9.25913021390072"><ele>108.0</ele><time>2026-04-03T16:31:59.001Z</time></trkpt><trkpt lat="45.44787454625859" lon="9.259123057791241"><ele>108.0</ele><time>2026-04-03T16:32:00.001Z</time></trkpt><trkpt lat="45.448114010094294" lon="9.259103040316383"><ele>106.5</ele><time>2026-04-03T16:32:01.001Z</time></trkpt><trkpt lat="45.448352675500594" lon="9.25906749765077"><ele>105.0</ele><time>2026-04-03T16:32:02.001Z</time></trkpt><trkpt lat="45.448589017688704" lon="9.259018014906065"><ele>105.5</ele><time>2026-04-03T16:32:03.001Z</time></trkpt><trkpt lat="45.44882537864752" lon="9.258952688785484"><ele>106.0</ele><time>2026-04-03T16:32:04.001Z</time></trkpt><trkpt lat="45.4490591105026" lon="9.258874866227375"><ele>107.5</ele><time>2026-04-03T16:32:05.001Z</time></trkpt><trkpt lat="45.449291737718376" lon="9.258786245035243"><ele>109.0</ele><time>2026-04-03T16:32:06.001Z</time></trkpt><trkpt lat="45.44951696673955" lon="9.258690414261979"><ele>110.5</ele><time>2026-04-03T16:32:07.001Z</time></trkpt><trkpt lat="45.449745060641575" lon="9.258581658238723"><ele>112.0</ele><time>2026-04-03T16:32:08.001Z</time></trkpt><trkpt lat="45.44996697443098" lon="9.258460097991772"><ele>112.0</ele><time>2026-04-03T16:32:09.001Z</time></trkpt><trkpt lat="45.450187591030534" lon="9.258320755453214"><ele>112.0</ele><time>2026-04-03T16:32:10.001Z</time></trkpt><trkpt lat="45.45040384410145" lon="9.258172287632481"><ele>112.0</ele><time>2026-04-03T16:32:11Z</time></trkpt><trkpt lat="45.45061707529391" lon="9.25801821464438"><ele>112.0</ele><time>2026-04-03T16:32:12Z</time></trkpt><trkpt lat="45.45083038996377" lon="9.257864293003903"><ele>112.0</ele><time>2026-04-03T16:32:13Z</time></trkpt><trkpt lat="45.45103692236793" lon="9.257698703199294"><ele>112.0</ele><time>2026-04-03T16:32:14Z</time></trkpt><trkpt lat="45.451240608636134" lon="9.25752373867074"><ele>111.5</ele><time>2026-04-03T16:32:15Z</time></trkpt><trkpt lat="45.45144135300612" lon="9.257351695856448"><ele>111.0</ele><time>2026-04-03T16:32:16Z</time></trkpt><trkpt lat="45.45164290211211" lon="9.257180970809946"><ele>111.0</ele><time>2026-04-03T16:32:17Z</time></trkpt><trkpt lat="45.451843576230424" lon="9.257011361215252"><ele>111.0</ele><time>2026-04-03T16:32:18Z</time></trkpt><trkpt lat="45.4520447802971" lon="9.256842175059138"><ele>112.5</ele><time>2026-04-03T16:32:19Z</time></trkpt><trkpt lat="45.45225072716357" lon="9.25667134859779"><ele>114.0</ele><time>2026-04-03T16:32:20Z</time></trkpt><trkpt lat="45.45245453108647" lon="9.256499601422817"><ele>112.0</ele><time>2026-04-03T16:32:21Z</time></trkpt><trkpt lat="45.452659351463524" lon="9.256325871187121"><ele>110.0</ele><time>2026-04-03T16:32:22Z</time></trkpt><trkpt lat="45.452865916065356" lon="9.256152228472843"><ele>110.5</ele><time>2026-04-03T16:32:23Z</time></trkpt><trkpt lat="45.45307518837932" lon="9.25597707904143"><ele>111.0</ele><time>2026-04-03T16:32:24Z</time></trkpt><trkpt lat="45.45328289675672" lon="9.255800661861523"><ele>111.0</ele><time>2026-04-03T16:32:25Z</time></trkpt><trkpt lat="45.453494541173015" lon="9.255621294169915"><ele>111.0</ele><time>2026-04-03T16:32:26Z</time></trkpt><trkpt lat="45.45370628522281" lon="9.255440375488856"><ele>111.0</ele><time>2026-04-03T16:32:27Z</time></trkpt><trkpt lat="45.45392142979135" lon="9.255261120568717"><ele>111.0</ele><time>2026-04-03T16:32:28Z</time></trkpt><trkpt lat="45.454135712345185" lon="9.255083991076617"><ele>111.0</ele><time>2026-04-03T16:32:29Z</time></trkpt><trkpt lat="45.45434821238844" lon="9.254912169421715"><ele>111.0</ele><time>2026-04-03T16:32:30Z</time></trkpt><trkpt lat="45.45455987677262" lon="9.25473915494457"><ele>113.0</ele><time>2026-04-03T16:32:31Z</time></trkpt><trkpt lat="45.45476938731188" lon="9.254566435595857"><ele>115.0</ele><time>2026-04-03T16:32:32Z</time></trkpt><trkpt lat="45.45497798102347" lon="9.254391444896422"><ele>115.0</ele><time>2026-04-03T16:32:33Z</time></trkpt><trkpt lat="45.45518556364102" lon="9.254216572991966"><ele>115.0</ele><time>2026-04-03T16:32:34Z</time></trkpt><trkpt lat="45.455393838242536" lon="9.25404149887411"><ele>113.0</ele><time>2026-04-03T16:32:35Z</time></trkpt><trkpt lat="45.45560205615096" lon="9.253868290350766"><ele>111.0</ele><time>2026-04-03T16:32:36Z</time></trkpt><trkpt lat="45.45581273719638" lon="9.253694238799099"><ele>111.0</ele><time>2026-04-03T16:32:37Z</time></trkpt><trkpt lat="45.45602689836653" lon="9.253521860890869"><ele>111.0</ele><time>2026-04-03T16:32:38Z</time></trkpt><trkpt lat="45.45624146798954" lon="9.25335824387311"><ele>111.5</ele><time>2026-04-03T16:32:39Z</time></trkpt><trkpt lat="45.45645843269758" lon="9.253195745871746"><ele>112.0</ele><time>2026-04-03T16:32:40Z</time></trkpt><trkpt lat="45.45667514497273" lon="9.253035244897232"><ele>112.0</ele><time>2026-04-03T16:32:41Z</time></trkpt><trkpt lat="45.45689541508638" lon="9.252874079064219"><ele>112.0</ele><time>2026-04-03T16:32:42Z</time></trkpt><trkpt lat="45.45711026219767" lon="9.252716955061977"><ele>112.5</ele><time>2026-04-03T16:32:43Z</time></trkpt><trkpt lat="45.45733111535674" lon="9.252569733983547"><ele>113.0</ele><time>2026-04-03T16:32:44Z</time></trkpt><trkpt lat="45.45755507820862" lon="9.25243436264448"><ele>113.0</ele><time>2026-04-03T16:32:45Z</time></trkpt><trkpt lat="45.45778058383974" lon="9.25230878177037"><ele>113.0</ele><time>2026-04-03T16:32:46Z</time></trkpt><trkpt lat="45.45800743952118" lon="9.252189148459895"><ele>113.5</ele><time>2026-04-03T16:32:47Z</time></trkpt><trkpt lat="45.45823892275659" lon="9.252075281771939"><ele>114.0</ele><time>2026-04-03T16:32:48Z</time></trkpt><trkpt lat="45.45846704435048" lon="9.251972107109456"><ele>114.0</ele><time>2026-04-03T16:32:49Z</time></trkpt><trkpt lat="45.45869987642783" lon="9.25187846679963"><ele>114.0</ele><time>2026-04-03T16:32:50Z</time></trkpt><trkpt lat="45.45893140850091" lon="9.2517948537495"><ele>113.5</ele><time>2026-04-03T16:32:51Z</time></trkpt><trkpt lat="45.45916644320318" lon="9.251720581323937"><ele>113.0</ele><time>2026-04-03T16:32:52Z</time></trkpt><trkpt lat="45.459399797511765" lon="9.251652918217241"><ele>114.5</ele><time>2026-04-03T16:32:53Z</time></trkpt><trkpt lat="45.45963849709559" lon="9.251593634876551"><ele>116.0</ele><time>2026-04-03T16:32:54Z</time></trkpt><trkpt lat="45.45987341327009" lon="9.251540367697828"><ele>116.0</ele><time>2026-04-03T16:32:55Z</time></trkpt><trkpt lat="45.46010854894911" lon="9.251496617481601"><ele>116.0</ele><time>2026-04-03T16:32:56Z</time></trkpt><trkpt lat="45.460344077845505" lon="9.251453829131156"><ele>116.5</ele><time>2026-04-03T16:32:57Z</time></trkpt><trkpt lat="45.46057955232581" lon="9.251419688510127"><ele>117.0</ele><time>2026-04-03T16:32:58Z</time></trkpt><trkpt lat="45.46081655263749" lon="9.251400298523807"><ele>117.0</ele><time>2026-04-03T16:32:59Z</time></trkpt><trkpt lat="45.46105685546726" lon="9.251399183400457"><ele>117.0</ele><time>2026-04-03T16:33:00Z</time></trkpt><trkpt lat="45.46129880494639" lon="9.251408215471475"><ele>116.5</ele><time>2026-04-03T16:33:01Z</time></trkpt><trkpt lat="45.46154009595484" lon="9.251426987127237"><ele>116.0</ele><time>2026-04-03T16:33:02Z</time></trkpt><trkpt lat="45.46178138117755" lon="9.251451865414289"><ele>115.5</ele><time>2026-04-03T16:33:03Z</time></trkpt><trkpt lat="45.46202411068076" lon="9.251485158358117"><ele>115.0</ele><time>2026-04-03T16:33:04Z</time></trkpt><trkpt lat="45.46226736611957" lon="9.251524837402744"><ele>113.0</ele><time>2026-04-03T16:33:05Z</time></trkpt><trkpt lat="45.462508503133485" lon="9.251569945335406"><ele>111.0</ele><time>2026-04-03T16:33:06Z</time></trkpt><trkpt lat="45.462752756191385" lon="9.251627344577681"><ele>109.5</ele><time>2026-04-03T16:33:07Z</time></trkpt><trkpt lat="45.46299422006376" lon="9.251693117509317"><ele>108.0</ele><time>2026-04-03T16:33:08Z</time></trkpt><trkpt lat="45.46323546448463" lon="9.251763364576924"><ele>108.0</ele><time>2026-04-03T16:33:09Z</time></trkpt><trkpt lat="45.46347803502271" lon="9.251831781163656"><ele>108.0</ele><time>2026-04-03T16:33:10Z</time></trkpt><trkpt lat="45.46372031572377" lon="9.251901389606607"><ele>108.5</ele><time>2026-04-03T16:33:11Z</time></trkpt><trkpt lat="45.46396491530572" lon="9.251971062729313"><ele>109.0</ele><time>2026-04-03T16:33:12Z</time></trkpt><trkpt lat="45.46420797960654" lon="9.252038685076796"><ele>109.0</ele><time>2026-04-03T16:33:13Z</time></trkpt><trkpt lat="45.46445148655107" lon="9.252107630255502"><ele>109.0</ele><time>2026-04-03T16:33:14Z</time></trkpt><trkpt lat="45.464699256778665" lon="9.25217081243047"><ele>111.0</ele><time>2026-04-03T16:33:15Z</time></trkpt><trkpt lat="45.464948644173646" lon="9.252224986709768"><ele>113.0</ele><time>2026-04-03T16:33:16Z</time></trkpt><trkpt lat="45.46519702931487" lon="9.252265964606256"><ele>113.5</ele><time>2026-04-03T16:33:17Z</time></trkpt><trkpt lat="45.46544545485291" lon="9.25229545901365"><ele>114.0</ele><time>2026-04-03T16:33:18Z</time></trkpt><trkpt lat="45.46569210625251" lon="9.252317462544534"><ele>114.0</ele><time>2026-04-03T16:33:19Z</time></trkpt><trkpt lat="45.465939596806884" lon="9.252330714228176"><ele>114.0</ele><time>2026-04-03T16:33:20Z</time></trkpt><trkpt lat="45.466186285801065" lon="9.252332944036949"><ele>113.0</ele><time>2026-04-03T16:33:21Z</time></trkpt><trkpt lat="45.466430995417525" lon="9.252327535136613"><ele>112.0</ele><time>2026-04-03T16:33:22Z</time></trkpt><trkpt lat="45.46667670407032" lon="9.252317469024092"><ele>112.0</ele><time>2026-04-03T16:33:23Z</time></trkpt><trkpt lat="45.466920757993364" lon="9.252308054866266"><ele>112.0</ele><time>2026-04-03T16:33:24Z</time></trkpt><trkpt lat="45.4671663968342" lon="9.252297278524418"><ele>113.5</ele><time>2026-04-03T16:33:25Z</time></trkpt><trkpt lat="45.46741208201338" lon="9.252286510345307"><ele>115.0</ele><time>2026-04-03T16:33:26Z</time></trkpt><trkpt lat="45.467657617355194" lon="9.252278187665524"><ele>115.0</ele><time>2026-04-03T16:33:27Z</time></trkpt><trkpt lat="45.46790060149908" lon="9.252270714228713"><ele>115.0</ele><time>2026-04-03T16:33:28Z</time></trkpt><trkpt lat="45.46814300112557" lon="9.25226472082131"><ele>115.0</ele><time>2026-04-03T16:33:29Z</time></trkpt><trkpt lat="45.46838377332252" lon="9.252258130192041"><ele>115.0</ele><time>2026-04-03T16:33:30Z</time></trkpt><trkpt lat="45.4686217082512" lon="9.252252126385942"><ele>113.5</ele><time>2026-04-03T16:33:31Z</time></trkpt><trkpt lat="45.46885462034681" lon="9.25225097116609"><ele>112.0</ele><time>2026-04-03T16:33:32Z</time></trkpt><trkpt lat="45.469084994612146" lon="9.252257982551573"><ele>112.0</ele><time>2026-04-03T16:33:33Z</time></trkpt><trkpt lat="45.469316502238016" lon="9.252273527819138"><ele>112.0</ele><time>2026-04-03T16:33:34Z</time></trkpt><trkpt lat="45.469546409452676" lon="9.252284844064699"><ele>114.0</ele><time>2026-04-03T16:33:35Z</time></trkpt><trkpt lat="45.46977825944203" lon="9.252292495471291"><ele>116.0</ele><time>2026-04-03T16:33:36Z</time></trkpt><trkpt lat="45.47000681510544" lon="9.252305334725984"><ele>116.0</ele><time>2026-04-03T16:33:37Z</time></trkpt><trkpt lat="45.470230140023475" lon="9.252323200596766"><ele>116.0</ele><time>2026-04-03T16:33:38Z</time></trkpt><trkpt lat="45.470447459967275" lon="9.252344940819107"><ele>116.0</ele><time>2026-04-03T16:33:39Z</time></trkpt><trkpt lat="45.47065434605964" lon="9.252370425872025"><ele>116.0</ele><time>2026-04-03T16:33:40Z</time></trkpt><trkpt lat="45.47085960135071" lon="9.252399862996278"><ele>116.0</ele><time>2026-04-03T16:33:41Z</time></trkpt><trkpt lat="45.47106529944579" lon="9.252433396183745"><ele>116.0</ele><time>2026-04-03T16:33:42Z</time></trkpt><trkpt lat="45.471271206100155" lon="9.252467925102819"><ele>116.33333333333333</ele><time>2026-04-03T16:33:43Z</time></trkpt><trkpt lat="45.4714695193726" lon="9.252504514761984"><ele>116.66666666666666</ele><time>2026-04-03T16:33:44Z</time></trkpt><trkpt lat="45.471664320840986" lon="9.252543128610052"><ele>117.0</ele><time>2026-04-03T16:33:45Z</time></trkpt><trkpt lat="45.47185675961592" lon="9.252584945130764"><ele>117.0</ele><time>2026-04-03T16:33:46Z</time></trkpt><trkpt lat="45.47205351425762" lon="9.25262642184759"><ele>117.0</ele><time>2026-04-03T16:33:46.999Z</time></trkpt><trkpt lat="45.47225395950996" lon="9.252664976992333"><ele>117.0</ele><time>2026-04-03T16:33:47.999Z</time></trkpt><trkpt lat="45.47246124728898" lon="9.252709004102504"><ele>117.66666666666666</ele><time>2026-04-03T16:33:48.999Z</time></trkpt><trkpt lat="45.47267088688377" lon="9.252761948674706"><ele>118.33333333333333</ele><time>2026-04-03T16:33:49.999Z</time></trkpt><trkpt lat="45.47288805023205" lon="9.252823893105768"><ele>119.0</ele><time>2026-04-03T16:33:50.999Z</time></trkpt><trkpt lat="45.473107065290485" lon="9.252893421262126"><ele>119.0</ele><time>2026-04-03T16:33:51.999Z</time></trkpt><trkpt lat="45.473329414013875" lon="9.252969147333108"><ele>119.0</ele><time>2026-04-03T16:33:52.999Z</time></trkpt><trkpt lat="45.47355431634393" lon="9.253045521697105"><ele>119.5</ele><time>2026-04-03T16:33:53.999Z</time></trkpt><trkpt lat="45.473783673902986" lon="9.253120062276881"><ele>120.0</ele><time>2026-04-03T16:33:54.999Z</time></trkpt><trkpt lat="45.47401995904656" lon="9.253189329540003"><ele>120.0</ele><time>2026-04-03T16:33:55.999Z</time></trkpt><trkpt lat="45.474258602709995" lon="9.253257403584868"><ele>120.0</ele><time>2026-04-03T16:33:56.999Z</time></trkpt><trkpt lat="45.47450081210946" lon="9.253326482737885"><ele>120.0</ele><time>2026-04-03T16:33:57.999Z</time></trkpt><trkpt lat="45.47474590694327" lon="9.25340338737761"><ele>120.0</ele><time>2026-04-03T16:33:59.001Z</time></trkpt><trkpt lat="45.47498955870025" lon="9.253486710570181"><ele>120.0</ele><time>2026-04-03T16:34:00.001Z</time></trkpt><trkpt lat="45.475235580333205" lon="9.253568278670867"><ele>120.0</ele><time>2026-04-03T16:34:01.001Z</time></trkpt><trkpt lat="45.475480960876105" lon="9.253635724792954"><ele>118.5</ele><time>2026-04-03T16:34:02.001Z</time></trkpt><trkpt lat="45.47572700589508" lon="9.253688260472963"><ele>117.0</ele><time>2026-04-03T16:34:03.001Z</time></trkpt><trkpt lat="45.47597607383219" lon="9.253725293961013"><ele>117.0</ele><time>2026-04-03T16:34:04.001Z</time></trkpt><trkpt lat="45.47622122499029" lon="9.253745064460405"><ele>117.0</ele><time>2026-04-03T16:34:05.001Z</time></trkpt><trkpt lat="45.4764668159324" lon="9.253746272399775"><ele>117.0</ele><time>2026-04-03T16:34:06.001Z</time></trkpt><trkpt lat="45.47671251824099" lon="9.253730192996054"><ele>117.0</ele><time>2026-04-03T16:34:07.001Z</time></trkpt><trkpt lat="45.47696352936463" lon="9.253701567992865"><ele>115.5</ele><time>2026-04-03T16:34:08.001Z</time></trkpt><trkpt lat="45.47721044335553" lon="9.253657624744202"><ele>114.0</ele><time>2026-04-03T16:34:09.001Z</time></trkpt><trkpt lat="45.477461620737" lon="9.253594145861312"><ele>114.0</ele><time>2026-04-03T16:34:10.001Z</time></trkpt><trkpt lat="45.47771308217655" lon="9.253510609848055"><ele>114.0</ele><time>2026-04-03T16:34:11.001Z</time></trkpt><trkpt lat="45.477962886531934" lon="9.253411843311444"><ele>115.5</ele><time>2026-04-03T16:34:12.001Z</time></trkpt><trkpt lat="45.47821193001927" lon="9.253303306418431"><ele>117.0</ele><time>2026-04-03T16:34:13.001Z</time></trkpt><trkpt lat="45.47846405551" lon="9.253188988247855"><ele>116.5</ele><time>2026-04-03T16:34:14Z</time></trkpt><trkpt lat="45.478715025091496" lon="9.253077936759286"><ele>116.0</ele><time>2026-04-03T16:34:15Z</time></trkpt><trkpt lat="45.4789604650893" lon="9.252975657637556"><ele>117.5</ele><time>2026-04-03T16:34:16Z</time></trkpt><trkpt lat="45.47920009958545" lon="9.252877495591875"><ele>119.0</ele><time>2026-04-03T16:34:17Z</time></trkpt><trkpt lat="45.479432113597085" lon="9.252781844318838"><ele>118.0</ele><time>2026-04-03T16:34:18Z</time></trkpt><trkpt lat="45.47965947960473" lon="9.252683640314324"><ele>117.0</ele><time>2026-04-03T16:34:19Z</time></trkpt><trkpt lat="45.479882428921144" lon="9.25258284732257"><ele>117.0</ele><time>2026-04-03T16:34:20Z</time></trkpt><trkpt lat="45.480100869202374" lon="9.252483734053774"><ele>117.0</ele><time>2026-04-03T16:34:21Z</time></trkpt><trkpt lat="45.48031995204359" lon="9.252386668258273"><ele>117.0</ele><time>2026-04-03T16:34:22Z</time></trkpt><trkpt lat="45.480535468547416" lon="9.252293522105106"><ele>117.0</ele><time>2026-04-03T16:34:23Z</time></trkpt><trkpt lat="45.48075026004853" lon="9.252196190984401"><ele>118.33333333333334</ele><time>2026-04-03T16:34:24Z</time></trkpt><trkpt lat="45.48096465301611" lon="9.25209764194333"><ele>119.66666666666667</ele><time>2026-04-03T16:34:25Z</time></trkpt><trkpt lat="45.48117500714339" lon="9.252000835347651"><ele>121.0</ele><time>2026-04-03T16:34:26Z</time></trkpt><trkpt lat="45.48138113148886" lon="9.251905772833702"><ele>121.0</ele><time>2026-04-03T16:34:27Z</time></trkpt><trkpt lat="45.481587744348616" lon="9.251810810576409"><ele>121.0</ele><time>2026-04-03T16:34:28Z</time></trkpt><trkpt lat="45.48179146749018" lon="9.251717747182346"><ele>121.0</ele><time>2026-04-03T16:34:29Z</time></trkpt><trkpt lat="45.481992002908854" lon="9.251632103059428"><ele>120.66666666666667</ele><time>2026-04-03T16:34:30Z</time></trkpt><trkpt lat="45.48219366266696" lon="9.251549726581574"><ele>120.33333333333334</ele><time>2026-04-03T16:34:31Z</time></trkpt><trkpt lat="45.4824020471032" lon="9.251469325666182"><ele>120.0</ele><time>2026-04-03T16:34:32Z</time></trkpt><trkpt lat="45.48261444824043" lon="9.251395329465609"><ele>120.0</ele><time>2026-04-03T16:34:33Z</time></trkpt><trkpt lat="45.48283166605686" lon="9.251335652974694"><ele>120.0</ele><time>2026-04-03T16:34:34Z</time></trkpt><trkpt lat="45.48304977431519" lon="9.251289753184702"><ele>120.0</ele><time>2026-04-03T16:34:35Z</time></trkpt><trkpt lat="45.48326852793321" lon="9.251247704470584"><ele>119.0</ele><time>2026-04-03T16:34:36Z</time></trkpt><trkpt lat="45.48349326478428" lon="9.251200037750293"><ele>118.0</ele><time>2026-04-03T16:34:37Z</time></trkpt><trkpt lat="45.483722762621206" lon="9.251167128687486"><ele>119.0</ele><time>2026-04-03T16:34:38Z</time></trkpt><trkpt lat="45.48396252289736" lon="9.251153730841096"><ele>120.0</ele><time>2026-04-03T16:34:39Z</time></trkpt><trkpt lat="45.484208244130585" lon="9.251155585017509"><ele>120.0</ele><time>2026-04-03T16:34:40Z</time></trkpt><trkpt lat="45.48445227124894" lon="9.251166730243332"><ele>120.0</ele><time>2026-04-03T16:34:41Z</time></trkpt><trkpt lat="45.484696966537875" lon="9.25118592582543"><ele>119.0</ele><time>2026-04-03T16:34:42Z</time></trkpt><trkpt lat="45.48494523542302" lon="9.25121210366568"><ele>118.0</ele><time>2026-04-03T16:34:43Z</time></trkpt><trkpt lat="45.48519761379998" lon="9.25124019088615"><ele>118.0</ele><time>2026-04-03T16:34:44Z</time></trkpt><trkpt lat="45.48544831191247" lon="9.251273509563038"><ele>118.0</ele><time>2026-04-03T16:34:45Z</time></trkpt><trkpt lat="45.485699887526366" lon="9.25131264425757"><ele>118.0</ele><time>2026-04-03T16:34:46Z</time></trkpt><trkpt lat="45.485949493443144" lon="9.251355205405607"><ele>118.0</ele><time>2026-04-03T16:34:47Z</time></trkpt><trkpt lat="45.486201441638855" lon="9.251397034148322"><ele>118.5</ele><time>2026-04-03T16:34:48Z</time></trkpt><trkpt lat="45.48645211542962" lon="9.251435345859601"><ele>119.0</ele><time>2026-04-03T16:34:49Z</time></trkpt><trkpt lat="45.486704809366735" lon="9.25147391093485"><ele>119.0</ele><time>2026-04-03T16:34:50Z</time></trkpt><trkpt lat="45.486957005225186" lon="9.251513280770432"><ele>119.0</ele><time>2026-04-03T16:34:51Z</time></trkpt><trkpt lat="45.48720848189269" lon="9.251553031827449"><ele>118.5</ele><time>2026-04-03T16:34:52Z</time></trkpt><trkpt lat="45.48746127593672" lon="9.251590847035871"><ele>118.0</ele><time>2026-04-03T16:34:53Z</time></trkpt><trkpt lat="45.48771240686309" lon="9.251626296833303"><ele>118.5</ele><time>2026-04-03T16:34:54Z</time></trkpt><trkpt lat="45.48796357781455" lon="9.251662981873654"><ele>119.0</ele><time>2026-04-03T16:34:55Z</time></trkpt><trkpt lat="45.48821440241286" lon="9.251700478928196"><ele>119.0</ele><time>2026-04-03T16:34:56Z</time></trkpt><trkpt lat="45.48846520688966" lon="9.251739005958663"><ele>119.0</ele><time>2026-04-03T16:34:57Z</time></trkpt><trkpt lat="45.48871383368118" lon="9.25177876580513"><ele>120.0</ele><time>2026-04-03T16:34:58Z</time></trkpt><trkpt lat="45.488962253061466" lon="9.251817608659907"><ele>121.0</ele><time>2026-04-03T16:34:59Z</time></trkpt><trkpt lat="45.489210583779254" lon="9.251854993575847"><ele>121.0</ele><time>2026-04-03T16:35:00Z</time></trkpt><trkpt lat="45.48945878540887" lon="9.25189364065938"><ele>121.0</ele><time>2026-04-03T16:35:01Z</time></trkpt><trkpt lat="45.489708779535356" lon="9.251932970547124"><ele>121.0</ele><time>2026-04-03T16:35:02Z</time></trkpt><trkpt lat="45.489954458187455" lon="9.251971658885251"><ele>121.0</ele><time>2026-04-03T16:35:03Z</time></trkpt><trkpt lat="45.49020284830751" lon="9.252015428902245"><ele>123.5</ele><time>2026-04-03T16:35:04Z</time></trkpt><trkpt lat="45.490446932680804" lon="9.252066917866358"><ele>126.0</ele><time>2026-04-03T16:35:05Z</time></trkpt><trkpt lat="45.490688225099966" lon="9.252130986312023"><ele>126.0</ele><time>2026-04-03T16:35:06Z</time></trkpt><trkpt lat="45.4909273791728" lon="9.252200913915779"><ele>126.0</ele><time>2026-04-03T16:35:07Z</time></trkpt><trkpt lat="45.49116447243962" lon="9.252280153905792"><ele>125.5</ele><time>2026-04-03T16:35:08Z</time></trkpt><trkpt lat="45.49140005727432" lon="9.252371754362859"><ele>125.0</ele><time>2026-04-03T16:35:09Z</time></trkpt><trkpt lat="45.49163357988916" lon="9.252470301689646"><ele>125.0</ele><time>2026-04-03T16:35:10Z</time></trkpt><trkpt lat="45.49186463983274" lon="9.25257970306351"><ele>125.0</ele><time>2026-04-03T16:35:11Z</time></trkpt><trkpt lat="45.49209302186972" lon="9.252697152819165"><ele>123.0</ele><time>2026-04-03T16:35:12Z</time></trkpt><trkpt lat="45.49232130894317" lon="9.252821052591301"><ele>121.0</ele><time>2026-04-03T16:35:13Z</time></trkpt><trkpt lat="45.49254922168915" lon="9.252951865133886"><ele>121.0</ele><time>2026-04-03T16:35:14Z</time></trkpt><trkpt lat="45.49277261515919" lon="9.253092337634142"><ele>121.0</ele><time>2026-04-03T16:35:15Z</time></trkpt><trkpt lat="45.49299329367689" lon="9.253241425133377"><ele>121.0</ele><time>2026-04-03T16:35:16Z</time></trkpt><trkpt lat="45.49321471188741" lon="9.25339537619773"><ele>121.0</ele><time>2026-04-03T16:35:17Z</time></trkpt><trkpt lat="45.49343705133338" lon="9.253549595191798"><ele>121.0</ele><time>2026-04-03T16:35:18Z</time></trkpt><trkpt lat="45.49366109264007" lon="9.25370090086073"><ele>121.0</ele><time>2026-04-03T16:35:19Z</time></trkpt><trkpt lat="45.49388453641965" lon="9.253851768004779"><ele>120.5</ele><time>2026-04-03T16:35:20Z</time></trkpt><trkpt lat="45.494107274666774" lon="9.254006715967805"><ele>120.0</ele><time>2026-04-03T16:35:21Z</time></trkpt><trkpt lat="45.494324254512115" lon="9.254165899117105"><ele>120.0</ele><time>2026-04-03T16:35:22Z</time></trkpt><trkpt lat="45.494543107036584" lon="9.254330412689553"><ele>120.0</ele><time>2026-04-03T16:35:23Z</time></trkpt><trkpt lat="45.49476241034489" lon="9.254488733480077"><ele>120.0</ele><time>2026-04-03T16:35:24Z</time></trkpt><trkpt lat="45.494979353922105" lon="9.25464865393331"><ele>120.0</ele><time>2026-04-03T16:35:25Z</time></trkpt><trkpt lat="45.49519599899761" lon="9.254808018531461"><ele>120.5</ele><time>2026-04-03T16:35:26Z</time></trkpt><trkpt lat="45.49540840120957" lon="9.254948852353609"><ele>121.0</ele><time>2026-04-03T16:35:27Z</time></trkpt><trkpt lat="45.49561885560203" lon="9.255070089024764"><ele>122.0</ele><time>2026-04-03T16:35:28Z</time></trkpt><trkpt lat="45.49583008900683" lon="9.25517785537995"><ele>123.0</ele><time>2026-04-03T16:35:29Z</time></trkpt><trkpt lat="45.49604466605662" lon="9.255279251992725"><ele>121.0</ele><time>2026-04-03T16:35:30Z</time></trkpt><trkpt lat="45.49626403115591" lon="9.255367935178846"><ele>119.0</ele><time>2026-04-03T16:35:31Z</time></trkpt><trkpt lat="45.49648177054816" lon="9.255437412000278"><ele>119.0</ele><time>2026-04-03T16:35:32Z</time></trkpt><trkpt lat="45.49669538865045" lon="9.255484048548785"><ele>119.0</ele><time>2026-04-03T16:35:33Z</time></trkpt><trkpt lat="45.49691718047605" lon="9.255519807114933"><ele>119.0</ele><time>2026-04-03T16:35:34Z</time></trkpt><trkpt lat="45.49714089461989" lon="9.255551699470324"><ele>121.5</ele><time>2026-04-03T16:35:35Z</time></trkpt><trkpt lat="45.49736899836255" lon="9.255575330811165"><ele>124.0</ele><time>2026-04-03T16:35:36Z</time></trkpt><trkpt lat="45.49760150602918" lon="9.255600955817583"><ele>123.0</ele><time>2026-04-03T16:35:37Z</time></trkpt><trkpt lat="45.497836017026515" lon="9.255627154858182"><ele>122.0</ele><time>2026-04-03T16:35:38Z</time></trkpt><trkpt lat="45.49807144129012" lon="9.255656393417015"><ele>122.0</ele><time>2026-04-03T16:35:39Z</time></trkpt><trkpt lat="45.498308206241774" lon="9.255684836204843"><ele>122.0</ele><time>2026-04-03T16:35:40Z</time></trkpt><trkpt lat="45.49854681594915" lon="9.255715396416187"><ele>124.0</ele><time>2026-04-03T16:35:41Z</time></trkpt><trkpt lat="45.49878361723632" lon="9.255744015413283"><ele>126.0</ele><time>2026-04-03T16:35:42Z</time></trkpt><trkpt lat="45.49902186036979" lon="9.25577106582959"><ele>126.0</ele><time>2026-04-03T16:35:43Z</time></trkpt><trkpt lat="45.49925850633391" lon="9.255797681211291"><ele>126.0</ele><time>2026-04-03T16:35:44Z</time></trkpt><trkpt lat="45.499495213946844" lon="9.255824239319189"><ele>125.0</ele><time>2026-04-03T16:35:45Z</time></trkpt><trkpt lat="45.49973126161961" lon="9.25584942647325"><ele>124.0</ele><time>2026-04-03T16:35:46Z</time></trkpt><trkpt lat="45.49996625455735" lon="9.25587586278582"><ele>124.0</ele><time>2026-04-03T16:35:46.999Z</time></trkpt><trkpt lat="45.50019934657115" lon="9.255911401040589"><ele>124.0</ele><time>2026-04-03T16:35:47.999Z</time></trkpt><trkpt lat="45.500432442048954" lon="9.255964545514402"><ele>122.5</ele><time>2026-04-03T16:35:48.999Z</time></trkpt><trkpt lat="45.500661996117955" lon="9.25602944921053"><ele>121.0</ele><time>2026-04-03T16:35:49.999Z</time></trkpt><trkpt lat="45.50088885901263" lon="9.256107435527001"><ele>121.0</ele><time>2026-04-03T16:35:50.999Z</time></trkpt><trkpt lat="45.501112616124736" lon="9.256204089386411"><ele>121.0</ele><time>2026-04-03T16:35:51.999Z</time></trkpt><trkpt lat="45.50133264301635" lon="9.256319160899263"><ele>121.5</ele><time>2026-04-03T16:35:52.999Z</time></trkpt><trkpt lat="45.50154714768407" lon="9.256448270257684"><ele>122.0</ele><time>2026-04-03T16:35:53.999Z</time></trkpt><trkpt lat="45.50176004582686" lon="9.256589397239027"><ele>121.0</ele><time>2026-04-03T16:35:54.999Z</time></trkpt><trkpt lat="45.50196890687918" lon="9.256740639234716"><ele>120.0</ele><time>2026-04-03T16:35:55.999Z</time></trkpt><trkpt lat="45.502178636009546" lon="9.256898583314733"><ele>120.0</ele><time>2026-04-03T16:35:56.999Z</time></trkpt><trkpt lat="45.50238744704276" lon="9.257061020549633"><ele>120.0</ele><time>2026-04-03T16:35:57.999Z</time></trkpt><trkpt lat="45.502596310226586" lon="9.257221056300537"><ele>120.0</ele><time>2026-04-03T16:35:58.999Z</time></trkpt><trkpt lat="45.50280761800172" lon="9.257380187612508"><ele>120.0</ele><time>2026-04-03T16:35:59.999Z</time></trkpt><trkpt lat="45.5030196808425" lon="9.257540778806137"><ele>120.0</ele><time>2026-04-03T16:36:00.999Z</time></trkpt><trkpt lat="45.503233075786326" lon="9.257705446110238"><ele>120.0</ele><time>2026-04-03T16:36:01.999Z</time></trkpt><trkpt lat="45.503445499487704" lon="9.257872143559725"><ele>120.0</ele><time>2026-04-03T16:36:02.999Z</time></trkpt><trkpt lat="45.50366007399012" lon="9.25803988649068"><ele>120.0</ele><time>2026-04-03T16:36:03.999Z</time></trkpt><trkpt lat="45.50387561093068" lon="9.258207800011625"><ele>121.5</ele><time>2026-04-03T16:36:05Z</time></trkpt><trkpt lat="45.504093100725804" lon="9.258377049272834"><ele>123.0</ele><time>2026-04-03T16:36:06Z</time></trkpt><trkpt lat="45.50430994120343" lon="9.258546501618289"><ele>123.0</ele><time>2026-04-03T16:36:07Z</time></trkpt><trkpt lat="45.50452702892864" lon="9.258714948058696"><ele>123.0</ele><time>2026-04-03T16:36:08Z</time></trkpt><trkpt lat="45.50474525225921" lon="9.258884227580733"><ele>124.5</ele><time>2026-04-03T16:36:09Z</time></trkpt><trkpt lat="45.504963447384746" lon="9.2590538440623"><ele>126.0</ele><time>2026-04-03T16:36:10Z</time></trkpt><trkpt lat="45.50518229217058" lon="9.259222680610657"><ele>126.0</ele><time>2026-04-03T16:36:11Z</time></trkpt><trkpt lat="45.5054031900165" lon="9.259390945286599"><ele>126.0</ele><time>2026-04-03T16:36:12Z</time></trkpt><trkpt lat="45.505623143298166" lon="9.259559012642608"><ele>124.5</ele><time>2026-04-03T16:36:13Z</time></trkpt><trkpt lat="45.505843949305614" lon="9.259728689758667"><ele>123.0</ele><time>2026-04-03T16:36:14Z</time></trkpt><trkpt lat="45.506064617254516" lon="9.259899006304144"><ele>123.0</ele><time>2026-04-03T16:36:15Z</time></trkpt><trkpt lat="45.506286013718366" lon="9.260069769045353"><ele>123.0</ele><time>2026-04-03T16:36:16Z</time></trkpt><trkpt lat="45.50650808543827" lon="9.260240550405552"><ele>123.0</ele><time>2026-04-03T16:36:17Z</time></trkpt><trkpt lat="45.50672789582317" lon="9.260412864998976"><ele>123.0</ele><time>2026-04-03T16:36:18Z</time></trkpt><trkpt lat="45.50694708387493" lon="9.26058307783845"><ele>123.5</ele><time>2026-04-03T16:36:19Z</time></trkpt><trkpt lat="45.507166053230435" lon="9.260753423104928"><ele>124.0</ele><time>2026-04-03T16:36:20Z</time></trkpt><trkpt lat="45.5073843752121" lon="9.260922182598039"><ele>124.0</ele><time>2026-04-03T16:36:21Z</time></trkpt><trkpt lat="45.507600570373484" lon="9.261091882085214"><ele>124.0</ele><time>2026-04-03T16:36:22Z</time></trkpt><trkpt lat="45.50781436354552" lon="9.261259674802046"><ele>123.5</ele><time>2026-04-03T16:36:23Z</time></trkpt><trkpt lat="45.50803037046026" lon="9.261419162417889"><ele>123.0</ele><time>2026-04-03T16:36:24Z</time></trkpt><trkpt lat="45.50825153984793" lon="9.261566284720152"><ele>124.0</ele><time>2026-04-03T16:36:25Z</time></trkpt><trkpt lat="45.508476989907464" lon="9.261696492711767"><ele>125.0</ele><time>2026-04-03T16:36:26Z</time></trkpt><trkpt lat="45.50870723074341" lon="9.261805550761393"><ele>124.5</ele><time>2026-04-03T16:36:27Z</time></trkpt><trkpt lat="45.508942972290406" lon="9.261892898950476"><ele>124.0</ele><time>2026-04-03T16:36:28Z</time></trkpt><trkpt lat="45.509181027747466" lon="9.26195715355391"><ele>124.0</ele><time>2026-04-03T16:36:29Z</time></trkpt><trkpt lat="45.50942256933154" lon="9.261997514693"><ele>124.0</ele><time>2026-04-03T16:36:30Z</time></trkpt><trkpt lat="45.50966397894901" lon="9.262015282222197"><ele>124.5</ele><time>2026-04-03T16:36:31Z</time></trkpt><trkpt lat="45.509906814073055" lon="9.262006670091308"><ele>125.0</ele><time>2026-04-03T16:36:32Z</time></trkpt><trkpt lat="45.51014851567337" lon="9.26197779168478"><ele>125.0</ele><time>2026-04-03T16:36:33Z</time></trkpt><trkpt lat="45.51038803729587" lon="9.261932606032921"><ele>125.0</ele><time>2026-04-03T16:36:34Z</time></trkpt><trkpt lat="45.510624779373124" lon="9.261872434305852"><ele>125.0</ele><time>2026-04-03T16:36:35Z</time></trkpt><trkpt lat="45.51086037991437" lon="9.261804460626026"><ele>125.0</ele><time>2026-04-03T16:36:36Z</time></trkpt><trkpt lat="45.51109564778682" lon="9.261741879573131"><ele>126.5</ele><time>2026-04-03T16:36:37Z</time></trkpt><trkpt lat="45.511332071868814" lon="9.261691947859052"><ele>128.0</ele><time>2026-04-03T16:36:38Z</time></trkpt><trkpt lat="45.51156892862751" lon="9.261662266419206"><ele>128.0</ele><time>2026-04-03T16:36:39Z</time></trkpt><trkpt lat="45.51180560659343" lon="9.261665372424753"><ele>128.0</ele><time>2026-04-03T16:36:40Z</time></trkpt><trkpt lat="45.51203454185267" lon="9.261702052849861"><ele>127.5</ele><time>2026-04-03T16:36:41Z</time></trkpt><trkpt lat="45.5122608011096" lon="9.261759156214625"><ele>127.0</ele><time>2026-04-03T16:36:42Z</time></trkpt><trkpt lat="45.51248253066847" lon="9.261836013393914"><ele>127.0</ele><time>2026-04-03T16:36:43Z</time></trkpt><trkpt lat="45.51270111517657" lon="9.26192095467121"><ele>127.0</ele><time>2026-04-03T16:36:44Z</time></trkpt><trkpt lat="45.5129174278897" lon="9.26200657457567"><ele>128.0</ele><time>2026-04-03T16:36:45Z</time></trkpt><trkpt lat="45.513131485513185" lon="9.262086376679175"><ele>129.0</ele><time>2026-04-03T16:36:46Z</time></trkpt><trkpt lat="45.51335181878756" lon="9.262151499364773"><ele>130.0</ele><time>2026-04-03T16:36:47Z</time></trkpt><trkpt lat="45.513573949533004" lon="9.262189136380323"><ele>130.5</ele><time>2026-04-03T16:36:48Z</time></trkpt><trkpt lat="45.513798748089485" lon="9.262198389610592"><ele>131.0</ele><time>2026-04-03T16:36:49Z</time></trkpt><trkpt lat="45.514024238403955" lon="9.262188936690649"><ele>131.0</ele><time>2026-04-03T16:36:50Z</time></trkpt><trkpt lat="45.514248591315614" lon="9.262178653724474"><ele>131.0</ele><time>2026-04-03T16:36:51Z</time></trkpt><trkpt lat="45.51447563304407" lon="9.262168447727346"><ele>130.0</ele><time>2026-04-03T16:36:52Z</time></trkpt><trkpt lat="45.51470683069151" lon="9.262154435985977"><ele>129.0</ele><time>2026-04-03T16:36:53Z</time></trkpt><trkpt lat="45.51494018922415" lon="9.26213803945599"><ele>129.0</ele><time>2026-04-03T16:36:54Z</time></trkpt><trkpt lat="45.51517450882269" lon="9.262120004062568"><ele>129.0</ele><time>2026-04-03T16:36:55Z</time></trkpt><trkpt lat="45.51540946087011" lon="9.262094487366353"><ele>128.5</ele><time>2026-04-03T16:36:56Z</time></trkpt><trkpt lat="45.51564380663195" lon="9.262061479639144"><ele>128.0</ele><time>2026-04-03T16:36:57Z</time></trkpt><trkpt lat="45.515879648704775" lon="9.26202488394409"><ele>128.0</ele><time>2026-04-03T16:36:58Z</time></trkpt><trkpt lat="45.51611737256823" lon="9.261987620688478"><ele>128.0</ele><time>2026-04-03T16:36:59Z</time></trkpt><trkpt lat="45.51635558920305" lon="9.261952924342745"><ele>126.5</ele><time>2026-04-03T16:37:00Z</time></trkpt><trkpt lat="45.5165933916415" lon="9.26191419364212"><ele>125.0</ele><time>2026-04-03T16:37:01Z</time></trkpt><trkpt lat="45.51683285003545" lon="9.26187257878331"><ele>124.0</ele><time>2026-04-03T16:37:02Z</time></trkpt><trkpt lat="45.51707169214434" lon="9.261829735705453"><ele>123.0</ele><time>2026-04-03T16:37:03Z</time></trkpt><trkpt lat="45.51731105718181" lon="9.261790067184231"><ele>123.0</ele><time>2026-04-03T16:37:04Z</time></trkpt><trkpt lat="45.51754943961477" lon="9.261752809549032"><ele>123.0</ele><time>2026-04-03T16:37:05Z</time></trkpt><trkpt lat="45.51778915394409" lon="9.26171361159766"><ele>124.0</ele><time>2026-04-03T16:37:06Z</time></trkpt><trkpt lat="45.51802669170457" lon="9.261676009827768"><ele>125.0</ele><time>2026-04-03T16:37:07Z</time></trkpt><trkpt lat="45.51826356137309" lon="9.261637850713624"><ele>125.0</ele><time>2026-04-03T16:37:08Z</time></trkpt><trkpt lat="45.518500013640505" lon="9.26160188082296"><ele>125.0</ele><time>2026-04-03T16:37:09Z</time></trkpt><trkpt lat="45.518736138792804" lon="9.261566060014912"><ele>127.0</ele><time>2026-04-03T16:37:10Z</time></trkpt><trkpt lat="45.51897401441149" lon="9.261528851461918"><ele>129.0</ele><time>2026-04-03T16:37:11Z</time></trkpt><trkpt lat="45.519209453063006" lon="9.2614905522084"><ele>129.0</ele><time>2026-04-03T16:37:12Z</time></trkpt><trkpt lat="45.51944410921478" lon="9.261452151926404"><ele>129.0</ele><time>2026-04-03T16:37:13Z</time></trkpt><trkpt lat="45.519678766544764" lon="9.261411720857973"><ele>129.5</ele><time>2026-04-03T16:37:14Z</time></trkpt><trkpt lat="45.519914900160565" lon="9.261367518427445"><ele>130.0</ele><time>2026-04-03T16:37:15Z</time></trkpt><trkpt lat="45.52014822685889" lon="9.26132324137775"><ele>130.0</ele><time>2026-04-03T16:37:16Z</time></trkpt><trkpt lat="45.52038378265044" lon="9.261270789350716"><ele>130.0</ele><time>2026-04-03T16:37:17Z</time></trkpt><trkpt lat="45.52061807619606" lon="9.261209206783887"><ele>129.5</ele><time>2026-04-03T16:37:18Z</time></trkpt><trkpt lat="45.52085192767484" lon="9.261142667103943"><ele>129.0</ele><time>2026-04-03T16:37:19Z</time></trkpt><trkpt lat="45.52108356524529" lon="9.261076122574915"><ele>130.0</ele><time>2026-04-03T16:37:20Z</time></trkpt><trkpt lat="45.521314830711404" lon="9.26100853522095"><ele>131.0</ele><time>2026-04-03T16:37:21Z</time></trkpt><trkpt lat="45.521546828759746" lon="9.2609399811245"><ele>131.0</ele><time>2026-04-03T16:37:22Z</time></trkpt><trkpt lat="45.52177857908446" lon="9.260870176523953"><ele>131.0</ele><time>2026-04-03T16:37:23Z</time></trkpt><trkpt lat="45.52201100613051" lon="9.260800437337625"><ele>129.5</ele><time>2026-04-03T16:37:24Z</time></trkpt><trkpt lat="45.522241767280015" lon="9.260732161653031"><ele>128.0</ele><time>2026-04-03T16:37:25Z</time></trkpt><trkpt lat="45.52247755480249" lon="9.260670071776216"><ele>128.0</ele><time>2026-04-03T16:37:26Z</time></trkpt><trkpt lat="45.522714318177314" lon="9.260625204822551"><ele>128.0</ele><time>2026-04-03T16:37:27Z</time></trkpt><trkpt lat="45.522954801729135" lon="9.260602071011187"><ele>129.0</ele><time>2026-04-03T16:37:28Z</time></trkpt><trkpt lat="45.52319695250501" lon="9.26060437338164"><ele>130.0</ele><time>2026-04-03T16:37:29Z</time></trkpt><trkpt lat="45.52343734743265" lon="9.26062716978487"><ele>130.0</ele><time>2026-04-03T16:37:30Z</time></trkpt><trkpt lat="45.52367629182399" lon="9.260666636323428"><ele>130.0</ele><time>2026-04-03T16:37:31Z</time></trkpt><trkpt lat="45.52391003354261" lon="9.260733527246355"><ele>131.0</ele><time>2026-04-03T16:37:32Z</time></trkpt><trkpt lat="45.52414014702875" lon="9.260826277342254"><ele>132.0</ele><time>2026-04-03T16:37:33Z</time></trkpt><trkpt lat="45.52436336482193" lon="9.26094361840491"><ele>130.5</ele><time>2026-04-03T16:37:34Z</time></trkpt><trkpt lat="45.52457828656844" lon="9.261098261193368"><ele>129.0</ele><time>2026-04-03T16:37:35Z</time></trkpt><trkpt lat="45.52478470765798" lon="9.261272053955746"><ele>130.0</ele><time>2026-04-03T16:37:36Z</time></trkpt><trkpt lat="45.52498087391957" lon="9.26145936400892"><ele>131.0</ele><time>2026-04-03T16:37:37Z</time></trkpt><trkpt lat="45.5251701782653" lon="9.261673040400733"><ele>131.0</ele><time>2026-04-03T16:37:38Z</time></trkpt><trkpt lat="45.52534558076832" lon="9.261907568373397"><ele>131.0</ele><time>2026-04-03T16:37:39Z</time></trkpt><trkpt lat="45.52550438034221" lon="9.262164469170335"><ele>132.0</ele><time>2026-04-03T16:37:40Z</time></trkpt><trkpt lat="45.525649627610264" lon="9.262437428419119"><ele>133.0</ele><time>2026-04-03T16:37:41Z</time></trkpt><trkpt lat="45.5257828927903" lon="9.262721642852322"><ele>133.0</ele><time>2026-04-03T16:37:42Z</time></trkpt><trkpt lat="45.525906461510864" lon="9.263012152752887"><ele>133.0</ele><time>2026-04-03T16:37:43Z</time></trkpt><trkpt lat="45.52602117921856" lon="9.263309960336649"><ele>134.0</ele><time>2026-04-03T16:37:44Z</time></trkpt><trkpt lat="45.52613528430311" lon="9.263607762706362"><ele>135.0</ele><time>2026-04-03T16:37:45Z</time></trkpt><trkpt lat="45.52624947738503" lon="9.263907780620071"><ele>136.0</ele><time>2026-04-03T16:37:46Z</time></trkpt><trkpt lat="45.52637746032341" lon="9.264202100642274"><ele>137.0</ele><time>2026-04-03T16:37:46.999Z</time></trkpt><trkpt lat="45.52651720545855" lon="9.264473928371185"><ele>137.0</ele><time>2026-04-03T16:37:47.999Z</time></trkpt><trkpt lat="45.52666436042271" lon="9.26474085358135"><ele>137.0</ele><time>2026-04-03T16:37:48.999Z</time></trkpt><trkpt lat="45.52682043228668" lon="9.265002318539358"><ele>137.0</ele><time>2026-04-03T16:37:49.999Z</time></trkpt><trkpt lat="45.52698905270032" lon="9.265244289446143"><ele>137.0</ele><time>2026-04-03T16:37:50.999Z</time></trkpt><trkpt lat="45.527169236828975" lon="9.265465219922902"><ele>137.5</ele><time>2026-04-03T16:37:51.999Z</time></trkpt><trkpt lat="45.527359253186845" lon="9.26567226576466"><ele>138.0</ele><time>2026-04-03T16:37:52.999Z</time></trkpt><trkpt lat="45.52755517911217" lon="9.26586630510568"><ele>138.0</ele><time>2026-04-03T16:37:53.999Z</time></trkpt><trkpt lat="45.527756898079396" lon="9.266044738869663"><ele>138.0</ele><time>2026-04-03T16:37:54.999Z</time></trkpt><trkpt lat="45.52796489000225" lon="9.266213231361997"><ele>138.5</ele><time>2026-04-03T16:37:55.999Z</time></trkpt><trkpt lat="45.52817476668216" lon="9.266382619608352"><ele>139.0</ele><time>2026-04-03T16:37:56.999Z</time></trkpt><trkpt lat="45.528385109834474" lon="9.266549772912652"><ele>137.5</ele><time>2026-04-03T16:37:57.999Z</time></trkpt><trkpt lat="45.52860016156489" lon="9.266715186846042"><ele>136.0</ele><time>2026-04-03T16:37:58.999Z</time></trkpt><trkpt lat="45.52881918613782" lon="9.266876582763768"><ele>135.0</ele><time>2026-04-03T16:37:59.999Z</time></trkpt><trkpt lat="45.5290359207555" lon="9.267042424475727"><ele>134.0</ele><time>2026-04-03T16:38:00.999Z</time></trkpt><trkpt lat="45.52924717685568" lon="9.267226727858974"><ele>134.0</ele><time>2026-04-03T16:38:01.999Z</time></trkpt><trkpt lat="45.529447019683396" lon="9.267435571288466"><ele>134.0</ele><time>2026-04-03T16:38:02.999Z</time></trkpt><trkpt lat="45.529640919417446" lon="9.267664195909711"><ele>134.0</ele><time>2026-04-03T16:38:03.999Z</time></trkpt><trkpt lat="45.529823462488835" lon="9.267908017799181"><ele>134.0</ele><time>2026-04-03T16:38:04.999Z</time></trkpt><trkpt lat="45.529997581748134" lon="9.268168467880006"><ele>135.0</ele><time>2026-04-03T16:38:05.999Z</time></trkpt><trkpt lat="45.53016069292961" lon="9.268439370641246"><ele>136.0</ele><time>2026-04-03T16:38:06.999Z</time></trkpt><trkpt lat="45.53031588354976" lon="9.268721217897424"><ele>136.5</ele><time>2026-04-03T16:38:07.999Z</time></trkpt><trkpt lat="45.53045964408835" lon="9.269016677318334"><ele>137.0</ele><time>2026-04-03T16:38:08.999Z</time></trkpt><trkpt lat="45.53059890625675" lon="9.269313634642115"><ele>137.0</ele><time>2026-04-03T16:38:09.999Z</time></trkpt><trkpt lat="45.53073619883019" lon="9.269610807395427"><ele>137.0</ele><time>2026-04-03T16:38:11Z</time></trkpt><trkpt lat="45.53087355185464" lon="9.269907305091008"><ele>136.5</ele><time>2026-04-03T16:38:12Z</time></trkpt><trkpt lat="45.531009407261415" lon="9.270201458974547"><ele>136.0</ele><time>2026-04-03T16:38:13Z</time></trkpt><trkpt lat="45.53114576809189" lon="9.270495465541503"><ele>135.5</ele><time>2026-04-03T16:38:14Z</time></trkpt><trkpt lat="45.53128211305519" lon="9.270782341071058"><ele>135.0</ele><time>2026-04-03T16:38:15Z</time></trkpt><trkpt lat="45.531422389730544" lon="9.271070805292815"><ele>135.0</ele><time>2026-04-03T16:38:16Z</time></trkpt><trkpt lat="45.53156238077152" lon="9.271360946660891"><ele>135.0</ele><time>2026-04-03T16:38:17Z</time></trkpt><trkpt lat="45.5316969515838" lon="9.271646515806015"><ele>134.0</ele><time>2026-04-03T16:38:18Z</time></trkpt><trkpt lat="45.53183107885044" lon="9.271932230018031"><ele>133.0</ele><time>2026-04-03T16:38:19Z</time></trkpt><trkpt lat="45.531966363093574" lon="9.27221758321215"><ele>134.0</ele><time>2026-04-03T16:38:20Z</time></trkpt><trkpt lat="45.532103181949346" lon="9.272501568079168"><ele>135.0</ele><time>2026-04-03T16:38:21Z</time></trkpt><trkpt lat="45.532239286610285" lon="9.272779597178467"><ele>135.0</ele><time>2026-04-03T16:38:22Z</time></trkpt><trkpt lat="45.53237518544762" lon="9.273059812124034"><ele>135.0</ele><time>2026-04-03T16:38:23Z</time></trkpt><trkpt lat="45.53251058682356" lon="9.273338832026129"><ele>135.5</ele><time>2026-04-03T16:38:24Z</time></trkpt><trkpt lat="45.53264654360423" lon="9.27361813077963"><ele>136.0</ele><time>2026-04-03T16:38:25Z</time></trkpt><trkpt lat="45.532780774578264" lon="9.273897914314796"><ele>136.5</ele><time>2026-04-03T16:38:26Z</time></trkpt><trkpt lat="45.53291242911447" lon="9.274176817344731"><ele>137.0</ele><time>2026-04-03T16:38:27Z</time></trkpt><trkpt lat="45.533044445049725" lon="9.274458721655018"><ele>137.0</ele><time>2026-04-03T16:38:28Z</time></trkpt><trkpt lat="45.5331750943972" lon="9.274740747528806"><ele>137.0</ele><time>2026-04-03T16:38:29Z</time></trkpt><trkpt lat="45.53330357766877" lon="9.275023208327175"><ele>136.5</ele><time>2026-04-03T16:38:30Z</time></trkpt><trkpt lat="45.53343176227766" lon="9.275305332061903"><ele>136.0</ele><time>2026-04-03T16:38:31Z</time></trkpt><trkpt lat="45.53356048116665" lon="9.275585625878689"><ele>136.0</ele><time>2026-04-03T16:38:32Z</time></trkpt><trkpt lat="45.53369074927422" lon="9.275867363947267"><ele>136.0</ele><time>2026-04-03T16:38:33Z</time></trkpt><trkpt lat="45.53382107957626" lon="9.276152342826157"><ele>135.5</ele><time>2026-04-03T16:38:34Z</time></trkpt><trkpt lat="45.53395087690012" lon="9.276438007341811"><ele>135.0</ele><time>2026-04-03T16:38:35Z</time></trkpt><trkpt lat="45.534082557260405" lon="9.276722207621656"><ele>135.0</ele><time>2026-04-03T16:38:36Z</time></trkpt><trkpt lat="45.534214568355054" lon="9.277010548434461"><ele>135.0</ele><time>2026-04-03T16:38:37Z</time></trkpt><trkpt lat="45.53434693436254" lon="9.277294295865005"><ele>136.0</ele><time>2026-04-03T16:38:38Z</time></trkpt><trkpt lat="45.534479704545674" lon="9.277578085087947"><ele>137.0</ele><time>2026-04-03T16:38:39Z</time></trkpt><trkpt lat="45.53461307122865" lon="9.277861986939989"><ele>137.0</ele><time>2026-04-03T16:38:40Z</time></trkpt><trkpt lat="45.534748542656835" lon="9.278145155210776"><ele>137.0</ele><time>2026-04-03T16:38:41Z</time></trkpt><trkpt lat="45.53488515814926" lon="9.278428792966219"><ele>137.0</ele><time>2026-04-03T16:38:41.999Z</time></trkpt><trkpt lat="45.53502202290929" lon="9.278711553036825"><ele>137.0</ele><time>2026-04-03T16:38:42.999Z</time></trkpt><trkpt lat="45.53516198450741" lon="9.278994510913495"><ele>137.5</ele><time>2026-04-03T16:38:43.999Z</time></trkpt><trkpt lat="45.53529896201116" lon="9.279277577650307"><ele>138.0</ele><time>2026-04-03T16:38:44.999Z</time></trkpt><trkpt lat="45.53543419502865" lon="9.279561720887946"><ele>137.5</ele><time>2026-04-03T16:38:45.999Z</time></trkpt><trkpt lat="45.53557187572273" lon="9.279846517790583"><ele>137.0</ele><time>2026-04-03T16:38:46.999Z</time></trkpt><trkpt lat="45.53571135203553" lon="9.280129845341959"><ele>137.0</ele><time>2026-04-03T16:38:47.999Z</time></trkpt><trkpt lat="45.53585219696494" lon="9.280415081505723"><ele>137.0</ele><time>2026-04-03T16:38:48.999Z</time></trkpt><trkpt lat="45.53599316632225" lon="9.280696195758033"><ele>137.5</ele><time>2026-04-03T16:38:49.999Z</time></trkpt><trkpt lat="45.536132803755486" lon="9.280977226297777"><ele>138.0</ele><time>2026-04-03T16:38:50.999Z</time></trkpt><trkpt lat="45.53627470902918" lon="9.281258373785823"><ele>138.0</ele><time>2026-04-03T16:38:51.999Z</time></trkpt><trkpt lat="45.536418279586414" lon="9.281538617157588"><ele>138.0</ele><time>2026-04-03T16:38:52.999Z</time></trkpt><trkpt lat="45.536563358011264" lon="9.28181503060832"><ele>138.0</ele><time>2026-04-03T16:38:53.999Z</time></trkpt><trkpt lat="45.536709978105485" lon="9.282090803192284"><ele>138.0</ele><time>2026-04-03T16:38:54.999Z</time></trkpt><trkpt lat="45.53685858480649" lon="9.28236628090768"><ele>138.5</ele><time>2026-04-03T16:38:55.999Z</time></trkpt><trkpt lat="45.53700696232164" lon="9.282644499865185"><ele>139.0</ele><time>2026-04-03T16:38:56.999Z</time></trkpt><trkpt lat="45.53715596461906" lon="9.28292177478274"><ele>139.0</ele><time>2026-04-03T16:38:57.999Z</time></trkpt><trkpt lat="45.53730437897398" lon="9.283201240254431"><ele>139.0</ele><time>2026-04-03T16:38:58.999Z</time></trkpt><trkpt lat="45.5374483123359" lon="9.28348342161396"><ele>139.0</ele><time>2026-04-03T16:38:59.999Z</time></trkpt><trkpt lat="45.53758400337808" lon="9.28377313861822"><ele>139.0</ele><time>2026-04-03T16:39:00.999Z</time></trkpt><trkpt lat="45.53769423449718" lon="9.284078559509409"><ele>141.0</ele><time>2026-04-03T16:39:01.999Z</time></trkpt><trkpt lat="45.537782884102" lon="9.284402011464946"><ele>143.0</ele><time>2026-04-03T16:39:02.999Z</time></trkpt><trkpt lat="45.537849421835766" lon="9.284736143981485"><ele>139.5</ele><time>2026-04-03T16:39:03.999Z</time></trkpt><trkpt lat="45.537895037256405" lon="9.285079022779748"><ele>136.0</ele><time>2026-04-03T16:39:04.999Z</time></trkpt><trkpt lat="45.537919578081144" lon="9.285427889599804"><ele>136.5</ele><time>2026-04-03T16:39:05.999Z</time></trkpt><trkpt lat="45.53792171635441" lon="9.285776384769292"><ele>137.0</ele><time>2026-04-03T16:39:06.999Z</time></trkpt><trkpt lat="45.537895654821114" lon="9.286124917125159"><ele>138.0</ele><time>2026-04-03T16:39:07.999Z</time></trkpt><trkpt lat="45.53784591931244" lon="9.286472645477387"><ele>139.0</ele><time>2026-04-03T16:39:08.999Z</time></trkpt><trkpt lat="45.537780569697496" lon="9.286809356537999"><ele>139.0</ele><time>2026-04-03T16:39:09.999Z</time></trkpt><trkpt lat="45.53769101677053" lon="9.287138160448198"><ele>139.0</ele><time>2026-04-03T16:39:10.999Z</time></trkpt><trkpt lat="45.53758083282175" lon="9.287460033804006"><ele>137.5</ele><time>2026-04-03T16:39:11.999Z</time></trkpt><trkpt lat="45.53746247003504" lon="9.287777188183489"><ele>136.0</ele><time>2026-04-03T16:39:12.999Z</time></trkpt><trkpt lat="45.53734123457508" lon="9.288087228562677"><ele>135.5</ele><time>2026-04-03T16:39:13.999Z</time></trkpt><trkpt lat="45.537218258989036" lon="9.288396841240404"><ele>135.0</ele><time>2026-04-03T16:39:14.999Z</time></trkpt><trkpt lat="45.53709941796974" lon="9.288715401996136"><ele>133.5</ele><time>2026-04-03T16:39:15.999Z</time></trkpt><trkpt lat="45.53699539943923" lon="9.28903738864596"><ele>132.0</ele><time>2026-04-03T16:39:16.999Z</time></trkpt><trkpt lat="45.53691138729949" lon="9.289370928362361"><ele>132.0</ele><time>2026-04-03T16:39:17.999Z</time></trkpt><trkpt lat="45.53684934787435" lon="9.289711178674313"><ele>132.0</ele><time>2026-04-03T16:39:18.999Z</time></trkpt><trkpt lat="45.53680378144998" lon="9.290063104172548"><ele>133.5</ele><time>2026-04-03T16:39:19.999Z</time></trkpt><trkpt lat="45.536770253678036" lon="9.290420354360663"><ele>135.0</ele><time>2026-04-03T16:39:20.999Z</time></trkpt><trkpt lat="45.53674779295617" lon="9.290780088928303"><ele>135.0</ele><time>2026-04-03T16:39:21.999Z</time></trkpt><trkpt lat="45.53674443981074" lon="9.291139068764995"><ele>135.0</ele><time>2026-04-03T16:39:22.999Z</time></trkpt><trkpt lat="45.536757760997276" lon="9.291497948053825"><ele>133.5</ele><time>2026-04-03T16:39:23.999Z</time></trkpt><trkpt lat="45.53678511041796" lon="9.291857342339334"><ele>132.0</ele><time>2026-04-03T16:39:24.999Z</time></trkpt><trkpt lat="45.53682250195461" lon="9.292212326617022"><ele>133.5</ele><time>2026-04-03T16:39:25.999Z</time></trkpt><trkpt lat="45.53686453530549" lon="9.292572088611413"><ele>135.0</ele><time>2026-04-03T16:39:26.999Z</time></trkpt><trkpt lat="45.53690408551506" lon="9.292928686430674"><ele>135.0</ele><time>2026-04-03T16:39:27.999Z</time></trkpt><trkpt lat="45.536941369028696" lon="9.293288827281112"><ele>135.0</ele><time>2026-04-03T16:39:28.999Z</time></trkpt><trkpt lat="45.53697845191454" lon="9.293645270216462"><ele>135.5</ele><time>2026-04-03T16:39:29.999Z</time></trkpt><trkpt lat="45.53701706297189" lon="9.293999896015697"><ele>136.0</ele><time>2026-04-03T16:39:30.999Z</time></trkpt><trkpt lat="45.537058237019586" lon="9.29435704273117"><ele>138.0</ele><time>2026-04-03T16:39:31.999Z</time></trkpt><trkpt lat="45.537096931185985" lon="9.294713930061151"><ele>140.0</ele><time>2026-04-03T16:39:32.999Z</time></trkpt><trkpt lat="45.53713523603554" lon="9.295072437881153"><ele>140.0</ele><time>2026-04-03T16:39:33.999Z</time></trkpt><trkpt lat="45.53717597132728" lon="9.295432080645647"><ele>140.0</ele><time>2026-04-03T16:39:34.999Z</time></trkpt><trkpt lat="45.53721647838221" lon="9.295791862306805"><ele>137.0</ele><time>2026-04-03T16:39:35.999Z</time></trkpt><trkpt lat="45.53725662165624" lon="9.296151231246652"><ele>134.0</ele><time>2026-04-03T16:39:36.999Z</time></trkpt><trkpt lat="45.537294386316105" lon="9.29651247376815"><ele>133.5</ele><time>2026-04-03T16:39:37.999Z</time></trkpt><trkpt lat="45.537333361506974" lon="9.29687393264962"><ele>133.0</ele><time>2026-04-03T16:39:38.998Z</time></trkpt><trkpt lat="45.53737208714109" lon="9.297234340106264"><ele>132.0</ele><time>2026-04-03T16:39:39.998Z</time></trkpt><trkpt lat="45.53741006336167" lon="9.2975955012135"><ele>131.0</ele><time>2026-04-03T16:39:40.998Z</time></trkpt><trkpt lat="45.537448162890726" lon="9.297958911002036"><ele>132.5</ele><time>2026-04-03T16:39:41.998Z</time></trkpt><trkpt lat="45.53748630364031" lon="9.298321950951285"><ele>134.0</ele><time>2026-04-03T16:39:42.998Z</time></trkpt><trkpt lat="45.53752594382596" lon="9.298686061516083"><ele>133.0</ele><time>2026-04-03T16:39:43.998Z</time></trkpt><trkpt lat="45.537566039696635" lon="9.299049464011103"><ele>132.0</ele><time>2026-04-03T16:39:44.998Z</time></trkpt><trkpt lat="45.53760590063958" lon="9.29940954574292"><ele>132.0</ele><time>2026-04-03T16:39:45.998Z</time></trkpt><trkpt lat="45.537644992327486" lon="9.299768839871295"><ele>132.0</ele><time>2026-04-03T16:39:46.998Z</time></trkpt><trkpt lat="45.537681491474316" lon="9.300128153653477"><ele>132.0</ele><time>2026-04-03T16:39:47.998Z</time></trkpt><trkpt lat="45.53771940687732" lon="9.300487479790426"><ele>132.0</ele><time>2026-04-03T16:39:48.998Z</time></trkpt><trkpt lat="45.53775661116079" lon="9.300845805253822"><ele>132.5</ele><time>2026-04-03T16:39:49.998Z</time></trkpt><trkpt lat="45.53779440596105" lon="9.301202571799303"><ele>133.0</ele><time>2026-04-03T16:39:50.998Z</time></trkpt><trkpt lat="45.537831158702" lon="9.301557386705563"><ele>133.0</ele><time>2026-04-03T16:39:51.998Z</time></trkpt><trkpt lat="45.53786856355319" lon="9.301911841886431"><ele>133.0</ele><time>2026-04-03T16:39:52.998Z</time></trkpt><trkpt lat="45.537907093811484" lon="9.302265674924945"><ele>134.5</ele><time>2026-04-03T16:39:53.998Z</time></trkpt><trkpt lat="45.53794423136126" lon="9.302617161032908"><ele>136.0</ele><time>2026-04-03T16:39:54.998Z</time></trkpt><trkpt lat="45.537980201456605" lon="9.302965666899341"><ele>134.5</ele><time>2026-04-03T16:39:55.998Z</time></trkpt><trkpt lat="45.538018251537515" lon="9.303315491445517"><ele>133.0</ele><time>2026-04-03T16:39:56.998Z</time></trkpt><trkpt lat="45.53805527297133" lon="9.303664101314283"><ele>133.5</ele><time>2026-04-03T16:39:57.998Z</time></trkpt><trkpt lat="45.538093562248285" lon="9.304013285024665"><ele>134.0</ele><time>2026-04-03T16:39:58.998Z</time></trkpt><trkpt lat="45.53813323942157" lon="9.304357859748372"><ele>134.0</ele><time>2026-04-03T16:39:59.998Z</time></trkpt><trkpt lat="45.53817257987351" lon="9.304704080153826"><ele>134.0</ele><time>2026-04-03T16:40:00.998Z</time></trkpt><trkpt lat="45.53821096243407" lon="9.305052406147997"><ele>134.5</ele><time>2026-04-03T16:40:01.998Z</time></trkpt><trkpt lat="45.53824843972304" lon="9.305398143968702"><ele>135.0</ele><time>2026-04-03T16:40:02.998Z</time></trkpt><trkpt lat="45.538285200363056" lon="9.30574782352547"><ele>134.0</ele><time>2026-04-03T16:40:03.998Z</time></trkpt><trkpt lat="45.538322480318435" lon="9.306099615628042"><ele>133.0</ele><time>2026-04-03T16:40:04.998Z</time></trkpt><trkpt lat="45.538359551951665" lon="9.306452465947046"><ele>133.0</ele><time>2026-04-03T16:40:05.998Z</time></trkpt><trkpt lat="45.53839827816726" lon="9.306802742778379"><ele>133.0</ele><time>2026-04-03T16:40:06.998Z</time></trkpt><trkpt lat="45.53843689736945" lon="9.307155181384386"><ele>135.0</ele><time>2026-04-03T16:40:07.998Z</time></trkpt><trkpt lat="45.538475152070426" lon="9.307509627608127"><ele>137.0</ele><time>2026-04-03T16:40:08.998Z</time></trkpt><trkpt lat="45.538512870746075" lon="9.307863123884724"><ele>137.5</ele><time>2026-04-03T16:40:09.998Z</time></trkpt><trkpt lat="45.5385503014536" lon="9.308217439331592"><ele>138.0</ele><time>2026-04-03T16:40:10.998Z</time></trkpt><trkpt lat="45.538588303643195" lon="9.308572421234734"><ele>137.0</ele><time>2026-04-03T16:40:11.998Z</time></trkpt><trkpt lat="45.53862648712646" lon="9.308928877366954"><ele>136.0</ele><time>2026-04-03T16:40:12.998Z</time></trkpt><trkpt lat="45.53866481143414" lon="9.30928678653137"><ele>136.0</ele><time>2026-04-03T16:40:13.998Z</time></trkpt><trkpt lat="45.5387034088906" lon="9.309639639834302"><ele>136.0</ele><time>2026-04-03T16:40:14.998Z</time></trkpt><trkpt lat="45.5387454231458" lon="9.310000283723905"><ele>136.5</ele><time>2026-04-03T16:40:15.998Z</time></trkpt><trkpt lat="45.538793068797744" lon="9.31035934410043"><ele>137.0</ele><time>2026-04-03T16:40:16.999Z</time></trkpt><trkpt lat="45.53884200350541" lon="9.310714980572222"><ele>136.0</ele><time>2026-04-03T16:40:17.999Z</time></trkpt><trkpt lat="45.53889364074002" lon="9.31107677345841"><ele>135.0</ele><time>2026-04-03T16:40:18.999Z</time></trkpt><trkpt lat="45.53894174327539" lon="9.31143738244869"><ele>134.5</ele><time>2026-04-03T16:40:19.999Z</time></trkpt><trkpt lat="45.53899443769381" lon="9.311797515728717"><ele>134.0</ele><time>2026-04-03T16:40:20.999Z</time></trkpt><trkpt lat="45.53905740755746" lon="9.312151856642961"><ele>134.5</ele><time>2026-04-03T16:40:22Z</time></trkpt><trkpt lat="45.53913564830782" lon="9.312501576282315"><ele>135.0</ele><time>2026-04-03T16:40:23Z</time></trkpt><trkpt lat="45.539228029483446" lon="9.31284492111178"><ele>136.0</ele><time>2026-04-03T16:40:24Z</time></trkpt><trkpt lat="45.539336806621684" lon="9.31318011046799"><ele>137.0</ele><time>2026-04-03T16:40:25Z</time></trkpt><trkpt lat="45.5394584701005" lon="9.313505033282745"><ele>136.5</ele><time>2026-04-03T16:40:26Z</time></trkpt><trkpt lat="45.5395912926037" lon="9.313820660861573"><ele>136.0</ele><time>2026-04-03T16:40:27Z</time></trkpt><trkpt lat="45.539732746491175" lon="9.314121732653618"><ele>135.5</ele><time>2026-04-03T16:40:28Z</time></trkpt><trkpt lat="45.53988602661402" lon="9.314412992319031"><ele>135.0</ele><time>2026-04-03T16:40:29Z</time></trkpt><trkpt lat="45.540048283951506" lon="9.314687062786039"><ele>135.5</ele><time>2026-04-03T16:40:30Z</time></trkpt><trkpt lat="45.540219171045486" lon="9.314947664303736"><ele>136.0</ele><time>2026-04-03T16:40:31Z</time></trkpt><trkpt lat="45.54040229184378" lon="9.315194073200466"><ele>136.0</ele><time>2026-04-03T16:40:32Z</time></trkpt><trkpt lat="45.54059309918622" lon="9.315427955460285"><ele>136.0</ele><time>2026-04-03T16:40:33Z</time></trkpt><trkpt lat="45.540792914081116" lon="9.315647658069164"><ele>136.0</ele><time>2026-04-03T16:40:34Z</time></trkpt><trkpt lat="45.54100173563899" lon="9.315851550679962"><ele>136.0</ele><time>2026-04-03T16:40:35Z</time></trkpt><trkpt lat="45.541216612405286" lon="9.316043123025437"><ele>136.5</ele><time>2026-04-03T16:40:36Z</time></trkpt><trkpt lat="45.541434011078366" lon="9.31622198745266"><ele>137.0</ele><time>2026-04-03T16:40:37Z</time></trkpt><trkpt lat="45.54165465364905" lon="9.31639299860252"><ele>138.0</ele><time>2026-04-03T16:40:38Z</time></trkpt><trkpt lat="45.5418782066507" lon="9.316556410275393"><ele>139.0</ele><time>2026-04-03T16:40:39Z</time></trkpt><trkpt lat="45.54210445910353" lon="9.316716270603926"><ele>139.5</ele><time>2026-04-03T16:40:40Z</time></trkpt><trkpt lat="45.54233233136385" lon="9.316870191819586"><ele>140.0</ele><time>2026-04-03T16:40:41Z</time></trkpt><trkpt lat="45.54256222847765" lon="9.317021093365065"><ele>140.0</ele><time>2026-04-03T16:40:42Z</time></trkpt><trkpt lat="45.54279434663721" lon="9.317172920718747"><ele>140.0</ele><time>2026-04-03T16:40:43Z</time></trkpt><trkpt lat="45.54302585210713" lon="9.317329275851181"><ele>140.0</ele><time>2026-04-03T16:40:44Z</time></trkpt><trkpt lat="45.543253508875615" lon="9.317498961118897"><ele>140.0</ele><time>2026-04-03T16:40:45Z</time></trkpt><trkpt lat="45.54347738263422" lon="9.317685003428585"><ele>140.0</ele><time>2026-04-03T16:40:46Z</time></trkpt><trkpt lat="45.543693731632686" lon="9.317887142367736"><ele>140.0</ele><time>2026-04-03T16:40:47Z</time></trkpt><trkpt lat="45.54390251296855" lon="9.318109353415199"><ele>140.0</ele><time>2026-04-03T16:40:48Z</time></trkpt><trkpt lat="45.54410225182428" lon="9.318348763627839"><ele>140.0</ele><time>2026-04-03T16:40:49Z</time></trkpt><trkpt lat="45.54429038881644" lon="9.318607203978953"><ele>140.0</ele><time>2026-04-03T16:40:50Z</time></trkpt><trkpt lat="45.544466842682716" lon="9.318884178570984"><ele>140.0</ele><time>2026-04-03T16:40:51Z</time></trkpt><trkpt lat="45.544631689777496" lon="9.319172339981277"><ele>140.5</ele><time>2026-04-03T16:40:52Z</time></trkpt><trkpt lat="45.544787227523635" lon="9.31947451621403"><ele>141.0</ele><time>2026-04-03T16:40:53Z</time></trkpt><trkpt lat="45.5449242176218" lon="9.319788325482696"><ele>141.5</ele><time>2026-04-03T16:40:54Z</time></trkpt><trkpt lat="45.54505933047475" lon="9.320114620788202"><ele>142.0</ele><time>2026-04-03T16:40:55Z</time></trkpt><trkpt lat="45.545182113578335" lon="9.320442167912985"><ele>141.0</ele><time>2026-04-03T16:40:56Z</time></trkpt><trkpt lat="45.545304505350295" lon="9.320771875454376"><ele>140.0</ele><time>2026-04-03T16:40:57Z</time></trkpt><trkpt lat="45.54542980293482" lon="9.321100604607022"><ele>140.5</ele><time>2026-04-03T16:40:58Z</time></trkpt><trkpt lat="45.54555718454952" lon="9.321423618726616"><ele>141.0</ele><time>2026-04-03T16:40:59Z</time></trkpt><trkpt lat="45.545692047226936" lon="9.321742693475988"><ele>141.0</ele><time>2026-04-03T16:41:00Z</time></trkpt><trkpt lat="45.54583332969539" lon="9.32204935485268"><ele>141.0</ele><time>2026-04-03T16:41:01Z</time></trkpt><trkpt lat="45.5459791324641" lon="9.322349208658942"><ele>141.0</ele><time>2026-04-03T16:41:02Z</time></trkpt><trkpt lat="45.54612883164265" lon="9.322643659795759"><ele>141.0</ele><time>2026-04-03T16:41:03Z</time></trkpt><trkpt lat="45.546279585497054" lon="9.32293064113899"><ele>141.5</ele><time>2026-04-03T16:41:04Z</time></trkpt><trkpt lat="45.54643721352288" lon="9.323213054490676"><ele>142.0</ele><time>2026-04-03T16:41:05Z</time></trkpt><trkpt lat="45.546602447204975" lon="9.323488249558135"><ele>142.0</ele><time>2026-04-03T16:41:06Z</time></trkpt><trkpt lat="45.546771753813694" lon="9.323752392475061"><ele>142.0</ele><time>2026-04-03T16:41:07Z</time></trkpt><trkpt lat="45.54694553727811" lon="9.32400839842061"><ele>142.5</ele><time>2026-04-03T16:41:08Z</time></trkpt><trkpt lat="45.547122927893525" lon="9.324252573819004"><ele>143.0</ele><time>2026-04-03T16:41:09Z</time></trkpt><trkpt lat="45.547305016132086" lon="9.324484303198506"><ele>143.0</ele><time>2026-04-03T16:41:10Z</time></trkpt><trkpt lat="45.547492087747166" lon="9.324705579591775"><ele>143.0</ele><time>2026-04-03T16:41:11Z</time></trkpt><trkpt lat="45.547681439331456" lon="9.324918018392923"><ele>143.5</ele><time>2026-04-03T16:41:12Z</time></trkpt><trkpt lat="45.547875866398805" lon="9.325128073622288"><ele>144.0</ele><time>2026-04-03T16:41:13Z</time></trkpt><trkpt lat="45.54806967015726" lon="9.325326215850295"><ele>144.5</ele><time>2026-04-03T16:41:14Z</time></trkpt><trkpt lat="45.54827400333239" lon="9.325520876598796"><ele>145.0</ele><time>2026-04-03T16:41:15Z</time></trkpt><trkpt lat="45.54848375451953" lon="9.325708852099808"><ele>144.0</ele><time>2026-04-03T16:41:16Z</time></trkpt><trkpt lat="45.548693135270305" lon="9.325888291761585"><ele>143.0</ele><time>2026-04-03T16:41:17Z</time></trkpt><trkpt lat="45.548906693684124" lon="9.326059800102486"><ele>142.0</ele><time>2026-04-03T16:41:18Z</time></trkpt><trkpt lat="45.54912692809803" lon="9.32622078154783"><ele>141.0</ele><time>2026-04-03T16:41:19Z</time></trkpt><trkpt lat="45.54935014468824" lon="9.326368136782882"><ele>142.5</ele><time>2026-04-03T16:41:20Z</time></trkpt><trkpt lat="45.54957664497588" lon="9.326506187299971"><ele>144.0</ele><time>2026-04-03T16:41:21Z</time></trkpt><trkpt lat="45.54980554674411" lon="9.32663949554209"><ele>144.0</ele><time>2026-04-03T16:41:22Z</time></trkpt><trkpt lat="45.55003406851337" lon="9.3267756656008"><ele>144.0</ele><time>2026-04-03T16:41:23Z</time></trkpt><trkpt lat="45.55026206991583" lon="9.32691452305967"><ele>143.0</ele><time>2026-04-03T16:41:24Z</time></trkpt><trkpt lat="45.55048964957483" lon="9.32705313239667"><ele>142.0</ele><time>2026-04-03T16:41:25Z</time></trkpt><trkpt lat="45.55071841796582" lon="9.327187281395071"><ele>143.0</ele><time>2026-04-03T16:41:26Z</time></trkpt><trkpt lat="45.55095029834503" lon="9.327318259452229"><ele>144.0</ele><time>2026-04-03T16:41:27Z</time></trkpt><trkpt lat="45.551180311210295" lon="9.327451195863196"><ele>144.0</ele><time>2026-04-03T16:41:28Z</time></trkpt><trkpt lat="45.55141154368843" lon="9.327583597609378"><ele>144.0</ele><time>2026-04-03T16:41:29Z</time></trkpt><trkpt lat="45.551642847209436" lon="9.327716458819356"><ele>144.0</ele><time>2026-04-03T16:41:30Z</time></trkpt><trkpt lat="45.55187459726693" lon="9.327851015000546"><ele>144.0</ele><time>2026-04-03T16:41:31Z</time></trkpt><trkpt lat="45.55210521492206" lon="9.327985646505946"><ele>144.5</ele><time>2026-04-03T16:41:32Z</time></trkpt><trkpt lat="45.552337688023655" lon="9.328121345612928"><ele>145.0</ele><time>2026-04-03T16:41:33Z</time></trkpt><trkpt lat="45.55256847240425" lon="9.32825853692163"><ele>145.0</ele><time>2026-04-03T16:41:34Z</time></trkpt><trkpt lat="45.5528009168509" lon="9.32839528342912"><ele>145.0</ele><time>2026-04-03T16:41:35Z</time></trkpt><trkpt lat="45.55303264248156" lon="9.328529716192868"><ele>144.0</ele><time>2026-04-03T16:41:36Z</time></trkpt><trkpt lat="45.55326672135973" lon="9.328662489769117"><ele>143.0</ele><time>2026-04-03T16:41:37Z</time></trkpt><trkpt lat="45.5534989965888" lon="9.328794835704246"><ele>145.0</ele><time>2026-04-03T16:41:38Z</time></trkpt><trkpt lat="45.553729814792106" lon="9.328926478644304"><ele>147.0</ele><time>2026-04-03T16:41:39Z</time></trkpt><trkpt lat="45.55396316897501" lon="9.329055409082052"><ele>147.0</ele><time>2026-04-03T16:41:40Z</time></trkpt><trkpt lat="45.554196876871224" lon="9.329179810403854"><ele>147.0</ele><time>2026-04-03T16:41:41Z</time></trkpt><trkpt lat="45.5544305082328" lon="9.329305890369456"><ele>148.0</ele><time>2026-04-03T16:41:42Z</time></trkpt><trkpt lat="45.5546599880571" lon="9.329433968892658"><ele>149.0</ele><time>2026-04-03T16:41:43Z</time></trkpt><trkpt lat="45.55488868932369" lon="9.329565983319801"><ele>149.0</ele><time>2026-04-03T16:41:43.999Z</time></trkpt><trkpt lat="45.555115310643494" lon="9.329702660644022"><ele>149.0</ele><time>2026-04-03T16:41:44.999Z</time></trkpt><trkpt lat="45.55534287192258" lon="9.329836783675875"><ele>148.0</ele><time>2026-04-03T16:41:45.999Z</time></trkpt><trkpt lat="45.55557004512164" lon="9.329970493457974"><ele>147.0</ele><time>2026-04-03T16:41:46.999Z</time></trkpt><trkpt lat="45.55579582222864" lon="9.330101109734526"><ele>147.0</ele><time>2026-04-03T16:41:47.999Z</time></trkpt><trkpt lat="45.55602487873985" lon="9.330232187057181"><ele>147.0</ele><time>2026-04-03T16:41:48.999Z</time></trkpt><trkpt lat="45.55624981556553" lon="9.330362605694702"><ele>148.5</ele><time>2026-04-03T16:41:49.999Z</time></trkpt><trkpt lat="45.55647592904039" lon="9.330494852489881"><ele>150.0</ele><time>2026-04-03T16:41:50.999Z</time></trkpt><trkpt lat="45.55670376314426" lon="9.330629210469667"><ele>150.0</ele><time>2026-04-03T16:41:51.999Z</time></trkpt><trkpt lat="45.556928860934896" lon="9.330761209032657"><ele>150.0</ele><time>2026-04-03T16:41:52.999Z</time></trkpt><trkpt lat="45.557155971740734" lon="9.330892601129495"><ele>151.0</ele><time>2026-04-03T16:41:53.999Z</time></trkpt><trkpt lat="45.557382509129006" lon="9.3310220999145"><ele>152.0</ele><time>2026-04-03T16:41:54.999Z</time></trkpt><trkpt lat="45.5576111995408" lon="9.331154396337512"><ele>152.0</ele><time>2026-04-03T16:41:55.999Z</time></trkpt><trkpt lat="45.55783713226699" lon="9.331285829758617"><ele>152.0</ele><time>2026-04-03T16:41:56.999Z</time></trkpt><trkpt lat="45.55806218649295" lon="9.331419848388222"><ele>151.5</ele><time>2026-04-03T16:41:57.999Z</time></trkpt><trkpt lat="45.558288854251046" lon="9.331553565994849"><ele>151.0</ele><time>2026-04-03T16:41:58.999Z</time></trkpt><trkpt lat="45.55851181555899" lon="9.331684363623225"><ele>150.0</ele><time>2026-04-03T16:41:59.999Z</time></trkpt><trkpt lat="45.55873643981913" lon="9.33181770638993"><ele>149.0</ele><time>2026-04-03T16:42:00.999Z</time></trkpt><trkpt lat="45.558960269746734" lon="9.331950459991694"><ele>149.0</ele><time>2026-04-03T16:42:01.999Z</time></trkpt><trkpt lat="45.55918446746065" lon="9.332076546756596"><ele>149.0</ele><time>2026-04-03T16:42:02.999Z</time></trkpt><trkpt lat="45.559404480785126" lon="9.33220212643729"><ele>149.66666666666666</ele><time>2026-04-03T16:42:03.999Z</time></trkpt><trkpt lat="45.559606860830016" lon="9.332329165322239"><ele>150.33333333333334</ele><time>2026-04-03T16:42:04.999Z</time></trkpt><trkpt lat="45.55979333142616" lon="9.332454800656324"><ele>151.0</ele><time>2026-04-03T16:42:05.999Z</time></trkpt><trkpt lat="45.55997024630343" lon="9.33258029055662"><ele>151.0</ele><time>2026-04-03T16:42:06.999Z</time></trkpt><trkpt lat="45.56013859849561" lon="9.332699788455349"><ele>151.0</ele><time>2026-04-03T16:42:07.999Z</time></trkpt><trkpt lat="45.56029920716983" lon="9.332815343274099"><ele>151.0</ele><time>2026-04-03T16:42:08.999Z</time></trkpt><trkpt lat="45.560449497003766" lon="9.33292456042153"><ele>151.0</ele><time>2026-04-03T16:42:09.999Z</time></trkpt><trkpt lat="45.560590879152365" lon="9.333026102496799"><ele>151.0</ele><time>2026-04-03T16:42:10.999Z</time></trkpt><trkpt lat="45.56072395349978" lon="9.333121681934685"><ele>151.0</ele><time>2026-04-03T16:42:11.999Z</time></trkpt><trkpt lat="45.560836114919965" lon="9.333232068477292"><ele>151.0</ele><time>2026-04-03T16:42:12.999Z</time></trkpt><trkpt lat="45.56095057046556" lon="9.333292868529783"><ele>151.16666666666669</ele><time>2026-04-03T16:42:13.999Z</time></trkpt><trkpt lat="45.56104763354037" lon="9.33336343556259"><ele>151.33333333333334</ele><time>2026-04-03T16:42:14.999Z</time></trkpt><trkpt lat="45.56113583689139" lon="9.333422731372275"><ele>151.5</ele><time>2026-04-03T16:42:15.999Z</time></trkpt><trkpt lat="45.56120786219249" lon="9.333492662941367"><ele>151.66666666666666</ele><time>2026-04-03T16:42:16.999Z</time></trkpt><trkpt lat="45.56127799020195" lon="9.333531845887865"><ele>151.83333333333331</ele><time>2026-04-03T16:42:17.999Z</time></trkpt><trkpt lat="45.56135668260897" lon="9.333548017541698"><ele>152.0</ele><time>2026-04-03T16:42:18.999Z</time></trkpt><trkpt lat="45.561453251895074" lon="9.33361182963463"><ele>153.33333333333331</ele><time>2026-04-03T16:42:19.999Z</time></trkpt><trkpt lat="45.56159914520874" lon="9.33367794823049"><ele>154.66666666666666</ele><time>2026-04-03T16:42:20.999Z</time></trkpt><trkpt lat="45.561777282260884" lon="9.333751561417678"><ele>156.0</ele><time>2026-04-03T16:42:21.999Z</time></trkpt><trkpt lat="45.56195005820385" lon="9.333820616652956"><ele>155.33333333333334</ele><time>2026-04-03T16:42:23Z</time></trkpt><trkpt lat="45.56212477272104" lon="9.33389736540886"><ele>154.66666666666669</ele><time>2026-04-03T16:42:24Z</time></trkpt><trkpt lat="45.56230618609123" lon="9.333984704617704"><ele>154.0</ele><time>2026-04-03T16:42:25Z</time></trkpt><trkpt lat="45.56248340839798" lon="9.334083319514832"><ele>154.0</ele><time>2026-04-03T16:42:26Z</time></trkpt><trkpt lat="45.562661940929615" lon="9.334200741401038"><ele>154.0</ele><time>2026-04-03T16:42:27Z</time></trkpt><trkpt lat="45.56283924536476" lon="9.334333157422318"><ele>154.0</ele><time>2026-04-03T16:42:28Z</time></trkpt><trkpt lat="45.56301775717137" lon="9.334481490862736"><ele>154.0</ele><time>2026-04-03T16:42:29Z</time></trkpt><trkpt lat="45.563198707488915" lon="9.334646275169417"><ele>154.0</ele><time>2026-04-03T16:42:30Z</time></trkpt><trkpt lat="45.56337975026008" lon="9.334822016740873"><ele>154.0</ele><time>2026-04-03T16:42:31Z</time></trkpt><trkpt lat="45.56356516849873" lon="9.33500254683339"><ele>155.0</ele><time>2026-04-03T16:42:32Z</time></trkpt><trkpt lat="45.56376176781274" lon="9.335178534234727"><ele>156.0</ele><time>2026-04-03T16:42:33Z</time></trkpt><trkpt lat="45.563965148231894" lon="9.335342583303865"><ele>156.0</ele><time>2026-04-03T16:42:34Z</time></trkpt><trkpt lat="45.56417814462907" lon="9.335486576936303"><ele>156.0</ele><time>2026-04-03T16:42:35Z</time></trkpt><trkpt lat="45.56440125881965" lon="9.33561172819245"><ele>155.0</ele><time>2026-04-03T16:42:36Z</time></trkpt><trkpt lat="45.56463062726471" lon="9.335716416746491"><ele>154.0</ele><time>2026-04-03T16:42:37Z</time></trkpt><trkpt lat="45.56487009643834" lon="9.335802790731806"><ele>154.0</ele><time>2026-04-03T16:42:38Z</time></trkpt><trkpt lat="45.56510705612572" lon="9.33587164686477"><ele>154.0</ele><time>2026-04-03T16:42:39Z</time></trkpt><trkpt lat="45.56534955012979" lon="9.335938184748295"><ele>156.5</ele><time>2026-04-03T16:42:40Z</time></trkpt><trkpt lat="45.56558913443102" lon="9.336017298430882"><ele>159.0</ele><time>2026-04-03T16:42:41Z</time></trkpt><trkpt lat="45.56582935884828" lon="9.336112723403911"><ele>159.0</ele><time>2026-04-03T16:42:42Z</time></trkpt><trkpt lat="45.566072000908164" lon="9.336219564822526"><ele>159.0</ele><time>2026-04-03T16:42:43Z</time></trkpt><trkpt lat="45.56630871732476" lon="9.336323140237093"><ele>158.5</ele><time>2026-04-03T16:42:44Z</time></trkpt><trkpt lat="45.56655157745538" lon="9.336432392704888"><ele>158.0</ele><time>2026-04-03T16:42:45Z</time></trkpt><trkpt lat="45.56679526391817" lon="9.336542291702594"><ele>157.5</ele><time>2026-04-03T16:42:46Z</time></trkpt><trkpt lat="45.56704279847099" lon="9.336654637820713"><ele>157.0</ele><time>2026-04-03T16:42:47Z</time></trkpt><trkpt lat="45.56729469413442" lon="9.336763783352241"><ele>157.0</ele><time>2026-04-03T16:42:48Z</time></trkpt><trkpt lat="45.567549152460614" lon="9.336875114487203"><ele>157.0</ele><time>2026-04-03T16:42:49Z</time></trkpt><trkpt lat="45.56780024110007" lon="9.336991869091381"><ele>157.0</ele><time>2026-04-03T16:42:50Z</time></trkpt><trkpt lat="45.56805250112143" lon="9.337114057402111"><ele>157.0</ele><time>2026-04-03T16:42:51Z</time></trkpt><trkpt lat="45.56830277464976" lon="9.33724480724099"><ele>157.5</ele><time>2026-04-03T16:42:52Z</time></trkpt><trkpt lat="45.56855332382605" lon="9.337381606231093"><ele>158.0</ele><time>2026-04-03T16:42:53Z</time></trkpt><trkpt lat="45.568801080379146" lon="9.337521261376851"><ele>158.0</ele><time>2026-04-03T16:42:54Z</time></trkpt><trkpt lat="45.569049341389025" lon="9.337662762631888"><ele>158.0</ele><time>2026-04-03T16:42:55Z</time></trkpt><trkpt lat="45.569299179490564" lon="9.337805941902268"><ele>158.0</ele><time>2026-04-03T16:42:56Z</time></trkpt><trkpt lat="45.56954926257963" lon="9.337954744774484"><ele>158.0</ele><time>2026-04-03T16:42:57Z</time></trkpt><trkpt lat="45.56979572334315" lon="9.338104932156826"><ele>156.5</ele><time>2026-04-03T16:42:58Z</time></trkpt><trkpt lat="45.5700440493986" lon="9.338262152381128"><ele>155.0</ele><time>2026-04-03T16:42:59Z</time></trkpt><trkpt lat="45.57029089252533" lon="9.338419390920741"><ele>155.5</ele><time>2026-04-03T16:43:00Z</time></trkpt><trkpt lat="45.57053627310297" lon="9.338575237966745"><ele>156.0</ele><time>2026-04-03T16:43:01Z</time></trkpt><trkpt lat="45.57077937557445" lon="9.338725871501108"><ele>156.0</ele><time>2026-04-03T16:43:02Z</time></trkpt><trkpt lat="45.57102515431555" lon="9.33887794452397"><ele>156.0</ele><time>2026-04-03T16:43:03Z</time></trkpt><trkpt lat="45.57126853862272" lon="9.339028240327453"><ele>157.0</ele><time>2026-04-03T16:43:04Z</time></trkpt><trkpt lat="45.57151123804514" lon="9.33918304824178"><ele>158.0</ele><time>2026-04-03T16:43:05Z</time></trkpt><trkpt lat="45.57175405968105" lon="9.33933657544396"><ele>158.0</ele><time>2026-04-03T16:43:06Z</time></trkpt><trkpt lat="45.57199566456343" lon="9.339489287282978"><ele>158.0</ele><time>2026-04-03T16:43:07Z</time></trkpt><trkpt lat="45.57223729930139" lon="9.339640127361625"><ele>159.5</ele><time>2026-04-03T16:43:08Z</time></trkpt><trkpt lat="45.57247910531966" lon="9.339791195410202"><ele>161.0</ele><time>2026-04-03T16:43:09Z</time></trkpt><trkpt lat="45.57271797388969" lon="9.339941347425864"><ele>161.5</ele><time>2026-04-03T16:43:10Z</time></trkpt><trkpt lat="45.57296102446079" lon="9.340092414863506"><ele>162.0</ele><time>2026-04-03T16:43:11Z</time></trkpt><trkpt lat="45.57320494974206" lon="9.340240725601607"><ele>162.0</ele><time>2026-04-03T16:43:12Z</time></trkpt><trkpt lat="45.57345095256553" lon="9.34038774412293"><ele>162.0</ele><time>2026-04-03T16:43:13Z</time></trkpt><trkpt lat="45.5736956325835" lon="9.340530926720842"><ele>161.0</ele><time>2026-04-03T16:43:14Z</time></trkpt><trkpt lat="45.57394306691894" lon="9.340673563970881"><ele>160.0</ele><time>2026-04-03T16:43:15Z</time></trkpt><trkpt lat="45.57419173101816" lon="9.340811827079342"><ele>160.0</ele><time>2026-04-03T16:43:16Z</time></trkpt><trkpt lat="45.57443929555504" lon="9.34094672938997"><ele>160.0</ele><time>2026-04-03T16:43:17Z</time></trkpt><trkpt lat="45.574687806775074" lon="9.341080893664293"><ele>160.0</ele><time>2026-04-03T16:43:18Z</time></trkpt><trkpt lat="45.574941464954065" lon="9.341214655405265"><ele>160.0</ele><time>2026-04-03T16:43:19Z</time></trkpt><trkpt lat="45.57519141250402" lon="9.341342706134819"><ele>161.0</ele><time>2026-04-03T16:43:20Z</time></trkpt><trkpt lat="45.575447859511286" lon="9.341461244344753"><ele>162.0</ele><time>2026-04-03T16:43:21Z</time></trkpt><trkpt lat="45.57570331145165" lon="9.34156786571555"><ele>162.0</ele><time>2026-04-03T16:43:22Z</time></trkpt><trkpt lat="45.575961984623724" lon="9.341677540779925"><ele>162.0</ele><time>2026-04-03T16:43:23Z</time></trkpt><trkpt lat="45.576215351843196" lon="9.34179204521028"><ele>163.0</ele><time>2026-04-03T16:43:24Z</time></trkpt><trkpt lat="45.57646773526035" lon="9.341909194967045"><ele>164.0</ele><time>2026-04-03T16:43:25Z</time></trkpt><trkpt lat="45.57672405879591" lon="9.34202343451167"><ele>164.0</ele><time>2026-04-03T16:43:26Z</time></trkpt><trkpt lat="45.576981811669576" lon="9.342133897252921"><ele>164.0</ele><time>2026-04-03T16:43:27Z</time></trkpt><trkpt lat="45.577243128167" lon="9.342244879278859"><ele>164.0</ele><time>2026-04-03T16:43:28Z</time></trkpt><trkpt lat="45.57749501450791" lon="9.342351983094417"><ele>164.0</ele><time>2026-04-03T16:43:29Z</time></trkpt><trkpt lat="45.57774928786685" lon="9.342462338099118"><ele>163.5</ele><time>2026-04-03T16:43:30Z</time></trkpt><trkpt lat="45.57800481740524" lon="9.342576517974798"><ele>163.0</ele><time>2026-04-03T16:43:31Z</time></trkpt><trkpt lat="45.578262789152994" lon="9.342692187448462"><ele>163.0</ele><time>2026-04-03T16:43:32Z</time></trkpt><trkpt lat="45.57851660150488" lon="9.342806671902752"><ele>163.0</ele><time>2026-04-03T16:43:33Z</time></trkpt><trkpt lat="45.578769354656664" lon="9.342922243754996"><ele>162.5</ele><time>2026-04-03T16:43:34Z</time></trkpt><trkpt lat="45.57902255141564" lon="9.343037043963378"><ele>162.0</ele><time>2026-04-03T16:43:35Z</time></trkpt><trkpt lat="45.579277153732065" lon="9.343155281059985"><ele>164.0</ele><time>2026-04-03T16:43:36Z</time></trkpt><trkpt lat="45.57952968215297" lon="9.343276075643306"><ele>166.0</ele><time>2026-04-03T16:43:37Z</time></trkpt><trkpt lat="45.57978211971975" lon="9.343405306838267"><ele>166.0</ele><time>2026-04-03T16:43:38Z</time></trkpt><trkpt lat="45.58002709579308" lon="9.343542045774027"><ele>166.0</ele><time>2026-04-03T16:43:39Z</time></trkpt><trkpt lat="45.580270925528694" lon="9.343686571978507"><ele>165.5</ele><time>2026-04-03T16:43:40Z</time></trkpt><trkpt lat="45.58051304045013" lon="9.343841716575064"><ele>165.0</ele><time>2026-04-03T16:43:41Z</time></trkpt><trkpt lat="45.58075141274171" lon="9.344001783716786"><ele>165.0</ele><time>2026-04-03T16:43:42Z</time></trkpt><trkpt lat="45.58099002740648" lon="9.344169216405168"><ele>165.0</ele><time>2026-04-03T16:43:42.999Z</time></trkpt><trkpt lat="45.58122455358603" lon="9.344341949651913"><ele>164.5</ele><time>2026-04-03T16:43:43.999Z</time></trkpt><trkpt lat="45.58145725584369" lon="9.344521904149348"><ele>164.0</ele><time>2026-04-03T16:43:44.999Z</time></trkpt><trkpt lat="45.581688741216986" lon="9.344706226111064"><ele>164.0</ele><time>2026-04-03T16:43:45.999Z</time></trkpt><trkpt lat="45.58191870993486" lon="9.3448953771049"><ele>164.0</ele><time>2026-04-03T16:43:46.999Z</time></trkpt><trkpt lat="45.582146866112" lon="9.345091837034216"><ele>164.0</ele><time>2026-04-03T16:43:47.999Z</time></trkpt><trkpt lat="45.58237119558457" lon="9.345297645559652"><ele>164.0</ele><time>2026-04-03T16:43:48.999Z</time></trkpt><trkpt lat="45.582592390772795" lon="9.345513335365453"><ele>164.0</ele><time>2026-04-03T16:43:49.999Z</time></trkpt><trkpt lat="45.58280881952714" lon="9.345735054488074"><ele>164.0</ele><time>2026-04-03T16:43:50.999Z</time></trkpt><trkpt lat="45.58302589376857" lon="9.345962579122581"><ele>165.0</ele><time>2026-04-03T16:43:51.999Z</time></trkpt><trkpt lat="45.583245515775964" lon="9.346198736901417"><ele>166.0</ele><time>2026-04-03T16:43:52.999Z</time></trkpt><trkpt lat="45.58345919108167" lon="9.346443056603693"><ele>166.0</ele><time>2026-04-03T16:43:53.999Z</time></trkpt><trkpt lat="45.58367336817006" lon="9.346696445280562"><ele>166.0</ele><time>2026-04-03T16:43:54.999Z</time></trkpt><trkpt lat="45.58388197635514" lon="9.346956314870804"><ele>166.5</ele><time>2026-04-03T16:43:55.999Z</time></trkpt><trkpt lat="45.58409030835201" lon="9.347224030009368"><ele>167.0</ele><time>2026-04-03T16:43:56.999Z</time></trkpt><trkpt lat="45.584296737043225" lon="9.347494240364961"><ele>167.0</ele><time>2026-04-03T16:43:57.999Z</time></trkpt><trkpt lat="45.584502432524516" lon="9.347771936525035"><ele>167.0</ele><time>2026-04-03T16:43:58.999Z</time></trkpt><trkpt lat="45.58470630894851" lon="9.348047284538046"><ele>167.5</ele><time>2026-04-03T16:43:59.999Z</time></trkpt><trkpt lat="45.58490933251374" lon="9.348322160191037"><ele>168.0</ele><time>2026-04-03T16:44:00.999Z</time></trkpt><trkpt lat="45.585114335776716" lon="9.348595473649526"><ele>168.0</ele><time>2026-04-03T16:44:01.999Z</time></trkpt><trkpt lat="45.58532214528616" lon="9.348869757791297"><ele>168.0</ele><time>2026-04-03T16:44:02.999Z</time></trkpt><trkpt lat="45.58552567179534" lon="9.349138693053753"><ele>168.5</ele><time>2026-04-03T16:44:03.999Z</time></trkpt><trkpt lat="45.58573133774701" lon="9.349413457902497"><ele>169.0</ele><time>2026-04-03T16:44:04.999Z</time></trkpt><trkpt lat="45.58593345457283" lon="9.34968594797014"><ele>169.5</ele><time>2026-04-03T16:44:05.999Z</time></trkpt><trkpt lat="45.586136085072816" lon="9.349959353602543"><ele>170.0</ele><time>2026-04-03T16:44:06.999Z</time></trkpt><trkpt lat="45.58633878668552" lon="9.350231667810412"><ele>169.0</ele><time>2026-04-03T16:44:07.999Z</time></trkpt><trkpt lat="45.5865396807605" lon="9.350501103068405"><ele>168.0</ele><time>2026-04-03T16:44:08.999Z</time></trkpt><trkpt lat="45.58674222111477" lon="9.35077206451693"><ele>168.0</ele><time>2026-04-03T16:44:09.999Z</time></trkpt><trkpt lat="45.58694572609059" lon="9.351043246251653"><ele>168.0</ele><time>2026-04-03T16:44:10.999Z</time></trkpt><trkpt lat="45.587145851007314" lon="9.351309215958219"><ele>169.0</ele><time>2026-04-03T16:44:11.999Z</time></trkpt><trkpt lat="45.5873481271315" lon="9.351574841878037"><ele>170.0</ele><time>2026-04-03T16:44:12.999Z</time></trkpt><trkpt lat="45.58754959719255" lon="9.351839531042263"><ele>170.0</ele><time>2026-04-03T16:44:13.999Z</time></trkpt><trkpt lat="45.58775238898754" lon="9.352106893178838"><ele>170.0</ele><time>2026-04-03T16:44:14.999Z</time></trkpt><trkpt lat="45.58795281511047" lon="9.352369113495522"><ele>171.0</ele><time>2026-04-03T16:44:15.999Z</time></trkpt><trkpt lat="45.58815506153408" lon="9.352636642065173"><ele>172.0</ele><time>2026-04-03T16:44:16.999Z</time></trkpt><trkpt lat="45.58835203612286" lon="9.35290278019821"><ele>171.5</ele><time>2026-04-03T16:44:17.999Z</time></trkpt><trkpt lat="45.58855004166334" lon="9.35317320362246"><ele>171.0</ele><time>2026-04-03T16:44:18.999Z</time></trkpt><trkpt lat="45.588749264180024" lon="9.35344477842871"><ele>172.0</ele><time>2026-04-03T16:44:19.999Z</time></trkpt><trkpt lat="45.58894873627941" lon="9.353711238047117"><ele>173.0</ele><time>2026-04-03T16:44:20.999Z</time></trkpt><trkpt lat="45.58914754453213" lon="9.353975033528252"><ele>173.0</ele><time>2026-04-03T16:44:21.999Z</time></trkpt><trkpt lat="45.589345959271675" lon="9.354238820621465"><ele>173.0</ele><time>2026-04-03T16:44:22.999Z</time></trkpt><trkpt lat="45.58954474128277" lon="9.354503563101847"><ele>172.0</ele><time>2026-04-03T16:44:23.999Z</time></trkpt><trkpt lat="45.589741770477524" lon="9.35476820402325"><ele>171.0</ele><time>2026-04-03T16:44:24.999Z</time></trkpt><trkpt lat="45.58993777070023" lon="9.35503252087242"><ele>171.0</ele><time>2026-04-03T16:44:25.999Z</time></trkpt><trkpt lat="45.59013447329911" lon="9.35529719697343"><ele>171.0</ele><time>2026-04-03T16:44:26.999Z</time></trkpt><trkpt lat="45.59033122151546" lon="9.355559090387326"><ele>171.5</ele><time>2026-04-03T16:44:28Z</time></trkpt><trkpt lat="45.590527415707705" lon="9.355821601640725"><ele>172.0</ele><time>2026-04-03T16:44:29Z</time></trkpt><trkpt lat="45.59072278329773" lon="9.356079311813273"><ele>172.0</ele><time>2026-04-03T16:44:30Z</time></trkpt><trkpt lat="45.59092265449335" lon="9.356339631275205"><ele>172.0</ele><time>2026-04-03T16:44:31Z</time></trkpt><trkpt lat="45.59111785846292" lon="9.35659723570469"><ele>173.0</ele><time>2026-04-03T16:44:32Z</time></trkpt><trkpt lat="45.591310072021706" lon="9.356856184852113"><ele>174.0</ele><time>2026-04-03T16:44:33Z</time></trkpt><trkpt lat="45.59150053581712" lon="9.357117663234026"><ele>175.0</ele><time>2026-04-03T16:44:34Z</time></trkpt><trkpt lat="45.59169124730029" lon="9.357377602877273"><ele>176.0</ele><time>2026-04-03T16:44:35Z</time></trkpt><trkpt lat="45.59188533216015" lon="9.3576381933245"><ele>175.5</ele><time>2026-04-03T16:44:36Z</time></trkpt><trkpt lat="45.592079416417434" lon="9.35789754532176"><ele>175.0</ele><time>2026-04-03T16:44:37Z</time></trkpt><trkpt lat="45.59227534558837" lon="9.358158752829564"><ele>175.0</ele><time>2026-04-03T16:44:38Z</time></trkpt><trkpt lat="45.5924715341025" lon="9.35841823119291"><ele>175.0</ele><time>2026-04-03T16:44:39Z</time></trkpt><trkpt lat="45.592668736880775" lon="9.358679172298197"><ele>174.5</ele><time>2026-04-03T16:44:40Z</time></trkpt><trkpt lat="45.592867027660574" lon="9.35894183134812"><ele>174.0</ele><time>2026-04-03T16:44:41Z</time></trkpt><trkpt lat="45.59306414361258" lon="9.359208649744678"><ele>174.0</ele><time>2026-04-03T16:44:42Z</time></trkpt><trkpt lat="45.59326040511586" lon="9.35946883495239"><ele>174.0</ele><time>2026-04-03T16:44:43Z</time></trkpt><trkpt lat="45.593460893735816" lon="9.359729200327365"><ele>174.5</ele><time>2026-04-03T16:44:44Z</time></trkpt><trkpt lat="45.593665363800454" lon="9.359982460745893"><ele>175.0</ele><time>2026-04-03T16:44:45Z</time></trkpt><trkpt lat="45.59387415374533" lon="9.360227598552887"><ele>175.0</ele><time>2026-04-03T16:44:46Z</time></trkpt><trkpt lat="45.59408583472759" lon="9.36046329439662"><ele>175.0</ele><time>2026-04-03T16:44:47Z</time></trkpt><trkpt lat="45.594304767841635" lon="9.360690885624363"><ele>175.5</ele><time>2026-04-03T16:44:48Z</time></trkpt><trkpt lat="45.59452773238448" lon="9.360900463979393"><ele>176.0</ele><time>2026-04-03T16:44:49Z</time></trkpt><trkpt lat="45.59475529851284" lon="9.361099430046227"><ele>176.0</ele><time>2026-04-03T16:44:50Z</time></trkpt><trkpt lat="45.59498500254451" lon="9.361289978688916"><ele>176.0</ele><time>2026-04-03T16:44:51Z</time></trkpt><trkpt lat="45.59521397614585" lon="9.361471475534024"><ele>177.5</ele><time>2026-04-03T16:44:52Z</time></trkpt><trkpt lat="45.595441751692505" lon="9.361638590098854"><ele>179.0</ele><time>2026-04-03T16:44:53Z</time></trkpt><trkpt lat="45.59566738263731" lon="9.361790206616629"><ele>179.0</ele><time>2026-04-03T16:44:54Z</time></trkpt><trkpt lat="45.59588987768787" lon="9.361924518263773"><ele>179.0</ele><time>2026-04-03T16:44:55Z</time></trkpt><trkpt lat="45.59611449749409" lon="9.362045097712883"><ele>179.5</ele><time>2026-04-03T16:44:56Z</time></trkpt><trkpt lat="45.59634540394943" lon="9.362156365794226"><ele>180.0</ele><time>2026-04-03T16:44:57Z</time></trkpt><trkpt lat="45.59658033406475" lon="9.362258939832392"><ele>180.0</ele><time>2026-04-03T16:44:58Z</time></trkpt><trkpt lat="45.596816912650525" lon="9.36235578729876"><ele>180.0</ele><time>2026-04-03T16:44:59Z</time></trkpt><trkpt lat="45.59705955664206" lon="9.362451174537398"><ele>181.0</ele><time>2026-04-03T16:45:00Z</time></trkpt><trkpt lat="45.59729782332236" lon="9.36255267772614"><ele>182.0</ele><time>2026-04-03T16:45:01Z</time></trkpt><trkpt lat="45.59753810727083" lon="9.362661168606863"><ele>182.0</ele><time>2026-04-03T16:45:02Z</time></trkpt><trkpt lat="45.59777545435869" lon="9.362764573924938"><ele>182.0</ele><time>2026-04-03T16:45:03Z</time></trkpt><trkpt lat="45.598016075823146" lon="9.362864057132708"><ele>182.0</ele><time>2026-04-03T16:45:04Z</time></trkpt><trkpt lat="45.59825872702873" lon="9.36296638598857"><ele>182.0</ele><time>2026-04-03T16:45:05Z</time></trkpt><trkpt lat="45.59849983449727" lon="9.36307182592993"><ele>183.5</ele><time>2026-04-03T16:45:06Z</time></trkpt><trkpt lat="45.59873964575551" lon="9.363178893865555"><ele>185.0</ele><time>2026-04-03T16:45:07Z</time></trkpt><trkpt lat="45.59898049386148" lon="9.363280667050919"><ele>185.0</ele><time>2026-04-03T16:45:08Z</time></trkpt><trkpt lat="45.59922033534808" lon="9.363384922694328"><ele>185.0</ele><time>2026-04-03T16:45:09Z</time></trkpt><trkpt lat="45.59945763446683" lon="9.363485425213518"><ele>185.0</ele><time>2026-04-03T16:45:10Z</time></trkpt><trkpt lat="45.59969599519945" lon="9.363575216449311"><ele>185.0</ele><time>2026-04-03T16:45:11Z</time></trkpt><trkpt lat="45.599935801690215" lon="9.363643895903548"><ele>185.0</ele><time>2026-04-03T16:45:12Z</time></trkpt><trkpt lat="45.60017759012051" lon="9.36369399062634"><ele>185.0</ele><time>2026-04-03T16:45:13Z</time></trkpt><trkpt lat="45.60041995992945" lon="9.363731280679456"><ele>183.5</ele><time>2026-04-03T16:45:14Z</time></trkpt><trkpt lat="45.600660317455564" lon="9.363757686678117"><ele>182.0</ele><time>2026-04-03T16:45:15Z</time></trkpt><trkpt lat="45.60089906159979" lon="9.363774820921188"><ele>182.0</ele><time>2026-04-03T16:45:16Z</time></trkpt><trkpt lat="45.601130252549666" lon="9.363778900001748"><ele>182.0</ele><time>2026-04-03T16:45:17Z</time></trkpt><trkpt lat="45.601359703271356" lon="9.36376808771086"><ele>180.0</ele><time>2026-04-03T16:45:18Z</time></trkpt><trkpt lat="45.60158739118232" lon="9.363744985743217"><ele>178.0</ele><time>2026-04-03T16:45:19Z</time></trkpt><trkpt lat="45.60181788033807" lon="9.363711665215773"><ele>178.5</ele><time>2026-04-03T16:45:20Z</time></trkpt><trkpt lat="45.60204642715404" lon="9.363667070420078"><ele>179.0</ele><time>2026-04-03T16:45:21Z</time></trkpt><trkpt lat="45.60227801856044" lon="9.363605971730168"><ele>179.0</ele><time>2026-04-03T16:45:22Z</time></trkpt><trkpt lat="45.60250596126319" lon="9.363531855503355"><ele>179.0</ele><time>2026-04-03T16:45:23Z</time></trkpt><trkpt lat="45.602735835400125" lon="9.363447119584496"><ele>179.5</ele><time>2026-04-03T16:45:24Z</time></trkpt><trkpt lat="45.602964597733354" lon="9.363355854284766"><ele>180.0</ele><time>2026-04-03T16:45:25Z</time></trkpt><trkpt lat="45.603192029736405" lon="9.363260883496634"><ele>180.0</ele><time>2026-04-03T16:45:26Z</time></trkpt><trkpt lat="45.60341908595431" lon="9.36316361617485"><ele>180.0</ele><time>2026-04-03T16:45:27Z</time></trkpt><trkpt lat="45.60364801262415" lon="9.363066096950584"><ele>179.5</ele><time>2026-04-03T16:45:28Z</time></trkpt><trkpt lat="45.60387637107665" lon="9.362977339169378"><ele>179.0</ele><time>2026-04-03T16:45:29Z</time></trkpt><trkpt lat="45.604101576485775" lon="9.362886245623525"><ele>179.0</ele><time>2026-04-03T16:45:30Z</time></trkpt><trkpt lat="45.60432564860091" lon="9.362796449744858"><ele>179.0</ele><time>2026-04-03T16:45:31Z</time></trkpt><trkpt lat="45.6045476736665" lon="9.362700028981726"><ele>181.0</ele><time>2026-04-03T16:45:32Z</time></trkpt><trkpt lat="45.60476697240375" lon="9.36260410008198"><ele>183.0</ele><time>2026-04-03T16:45:33Z</time></trkpt><trkpt lat="45.6049832708968" lon="9.36251128165686"><ele>183.0</ele><time>2026-04-03T16:45:34Z</time></trkpt><trkpt lat="45.60520456002856" lon="9.362421469133196"><ele>183.0</ele><time>2026-04-03T16:45:35Z</time></trkpt><trkpt lat="45.60542384967058" lon="9.362332665803844"><ele>184.5</ele><time>2026-04-03T16:45:36Z</time></trkpt><trkpt lat="45.60564272240319" lon="9.362240372354464"><ele>186.0</ele><time>2026-04-03T16:45:37Z</time></trkpt><trkpt lat="45.60585826467893" lon="9.362148941933203"><ele>186.5</ele><time>2026-04-03T16:45:38Z</time></trkpt><trkpt lat="45.60607885296865" lon="9.362059310343607"><ele>187.0</ele><time>2026-04-03T16:45:39Z</time></trkpt><trkpt lat="45.60630122498647" lon="9.361973979283832"><ele>184.5</ele><time>2026-04-03T16:45:39.999Z</time></trkpt><trkpt lat="45.60652538719313" lon="9.361880304141403"><ele>182.0</ele><time>2026-04-03T16:45:40.999Z</time></trkpt><trkpt lat="45.60674466440177" lon="9.361793252493932"><ele>182.0</ele><time>2026-04-03T16:45:41.999Z</time></trkpt><trkpt lat="45.606971598496735" lon="9.361700369627943"><ele>182.0</ele><time>2026-04-03T16:45:42.999Z</time></trkpt><trkpt lat="45.60719670025398" lon="9.361608585480232"><ele>184.0</ele><time>2026-04-03T16:45:43.999Z</time></trkpt><trkpt lat="45.60765088704169" lon="9.361421446720117"><ele>184.5</ele><time>2026-04-03T16:45:45.999Z</time></trkpt><trkpt lat="45.60787858635397" lon="9.361329917586826"><ele>185.0</ele><time>2026-04-03T16:45:46.999Z</time></trkpt><trkpt lat="45.608108605870605" lon="9.3612370210187"><ele>185.0</ele><time>2026-04-03T16:45:47.999Z</time></trkpt><trkpt lat="45.60834085132215" lon="9.361140331856253"><ele>185.0</ele><time>2026-04-03T16:45:48.999Z</time></trkpt><trkpt lat="45.60857220824922" lon="9.361042905591436"><ele>185.0</ele><time>2026-04-03T16:45:49.999Z</time></trkpt><trkpt lat="45.60880553858222" lon="9.360945050735715"><ele>185.0</ele><time>2026-04-03T16:45:50.999Z</time></trkpt><trkpt lat="45.60903413306032" lon="9.36085448506859"><ele>185.0</ele><time>2026-04-03T16:45:51.999Z</time></trkpt><trkpt lat="45.60927399088951" lon="9.360757290562587"><ele>185.0</ele><time>2026-04-03T16:45:52.999Z</time></trkpt><trkpt lat="45.609510387666084" lon="9.360653099689443"><ele>186.0</ele><time>2026-04-03T16:45:53.999Z</time></trkpt><trkpt lat="45.609744231994604" lon="9.36055371804784"><ele>187.0</ele><time>2026-04-03T16:45:54.999Z</time></trkpt><trkpt lat="45.60997661060412" lon="9.360456706702823"><ele>186.5</ele><time>2026-04-03T16:45:55.999Z</time></trkpt><trkpt lat="45.6102100022506" lon="9.360364637640847"><ele>186.0</ele><time>2026-04-03T16:45:56.999Z</time></trkpt><trkpt lat="45.610440503568846" lon="9.36027538201234"><ele>186.0</ele><time>2026-04-03T16:45:57.999Z</time></trkpt><trkpt lat="45.610666802278516" lon="9.360186760139898"><ele>186.0</ele><time>2026-04-03T16:45:58.999Z</time></trkpt><trkpt lat="45.61088953841816" lon="9.360097362175411"><ele>186.0</ele><time>2026-04-03T16:45:59.999Z</time></trkpt><trkpt lat="45.611105725908125" lon="9.360009350765942"><ele>186.0</ele><time>2026-04-03T16:46:00.999Z</time></trkpt><trkpt lat="45.611316164542856" lon="9.359923244292775"><ele>186.0</ele><time>2026-04-03T16:46:01.999Z</time></trkpt><trkpt lat="45.61151542230301" lon="9.359841689470697"><ele>186.66666666666666</ele><time>2026-04-03T16:46:02.999Z</time></trkpt><trkpt lat="45.611707148666554" lon="9.359763784085201"><ele>187.33333333333331</ele><time>2026-04-03T16:46:03.999Z</time></trkpt><trkpt lat="45.61188444681186" lon="9.359673924010714"><ele>188.0</ele><time>2026-04-03T16:46:04.999Z</time></trkpt><trkpt lat="45.61205406164879" lon="9.359575169832988"><ele>188.0</ele><time>2026-04-03T16:46:05.999Z</time></trkpt><trkpt lat="45.61221698591921" lon="9.359468325450385"><ele>188.0</ele><time>2026-04-03T16:46:06.999Z</time></trkpt><trkpt lat="45.6124162579689" lon="9.359430815177207"><ele>188.0</ele><time>2026-04-03T16:46:07.999Z</time></trkpt><trkpt lat="45.61262398887408" lon="9.359389243213379"><ele>188.0</ele><time>2026-04-03T16:46:08.999Z</time></trkpt><trkpt lat="45.61280541606092" lon="9.35932343218869"><ele>188.0</ele><time>2026-04-03T16:46:09.999Z</time></trkpt><trkpt lat="45.612979475130516" lon="9.359271237207288"><ele>188.0</ele><time>2026-04-03T16:46:10.999Z</time></trkpt><trkpt lat="45.61316024976865" lon="9.359220694041774"><ele>188.33333333333331</ele><time>2026-04-03T16:46:11.999Z</time></trkpt><trkpt lat="45.613357703696586" lon="9.359197351907227"><ele>188.66666666666666</ele><time>2026-04-03T16:46:12.999Z</time></trkpt><trkpt lat="45.61354639893584" lon="9.359186042563678"><ele>189.0</ele><time>2026-04-03T16:46:13.999Z</time></trkpt><trkpt lat="45.61373459575541" lon="9.35918290406932"><ele>189.33333333333334</ele><time>2026-04-03T16:46:14.999Z</time></trkpt><trkpt lat="45.613927103988615" lon="9.359181705856948"><ele>189.66666666666669</ele><time>2026-04-03T16:46:15.999Z</time></trkpt><trkpt lat="45.61409989647029" lon="9.359193678940247"><ele>190.0</ele><time>2026-04-03T16:46:16.999Z</time></trkpt><trkpt lat="45.61428538116644" lon="9.359229555343905"><ele>190.0</ele><time>2026-04-03T16:46:17.999Z</time></trkpt><trkpt lat="45.61450181561721" lon="9.359284521126172"><ele>190.0</ele><time>2026-04-03T16:46:18.999Z</time></trkpt><trkpt lat="45.61470106582664" lon="9.359337983272006"><ele>190.0</ele><time>2026-04-03T16:46:19.999Z</time></trkpt><trkpt lat="45.61489161299052" lon="9.359393898480104"><ele>190.0</ele><time>2026-04-03T16:46:20.999Z</time></trkpt><trkpt lat="45.615081172193825" lon="9.359455248164428"><ele>190.0</ele><time>2026-04-03T16:46:21.999Z</time></trkpt><trkpt lat="45.61526606052323" lon="9.359519214403338"><ele>190.0</ele><time>2026-04-03T16:46:22.999Z</time></trkpt><trkpt lat="45.615452687718104" lon="9.359601129956873"><ele>190.0</ele><time>2026-04-03T16:46:23.999Z</time></trkpt><trkpt lat="45.61564421767764" lon="9.359651179846457"><ele>190.0</ele><time>2026-04-03T16:46:24.999Z</time></trkpt><trkpt lat="45.61583784408775" lon="9.359689159668402"><ele>190.0</ele><time>2026-04-03T16:46:25.999Z</time></trkpt><trkpt lat="45.61604281555344" lon="9.359731228969919"><ele>190.66666666666669</ele><time>2026-04-03T16:46:26.999Z</time></trkpt><trkpt lat="45.61625007439087" lon="9.35976913800695"><ele>191.33333333333334</ele><time>2026-04-03T16:46:27.999Z</time></trkpt><trkpt lat="45.61647575795968" lon="9.359815433945052"><ele>192.0</ele><time>2026-04-03T16:46:29.055Z</time></trkpt><trkpt lat="45.61667148477616" lon="9.35985695772063"><ele>192.0</ele><time>2026-04-03T16:46:30.049Z</time></trkpt><trkpt lat="45.61868768415947" lon="9.360161118937325"><ele>191.0</ele><time>2026-04-03T16:46:33.944Z</time></trkpt><trkpt lat="45.6196669141992" lon="9.360360963123764"><ele>191.0</ele><time>2026-04-03T16:46:41.999Z</time></trkpt><trkpt lat="45.61991124091017" lon="9.360406663703689"><ele>191.0</ele><time>2026-04-03T16:46:42.999Z</time></trkpt><trkpt lat="45.6201583456371" lon="9.360538679652434"><ele>190.5</ele><time>2026-04-03T16:46:43.999Z</time></trkpt><trkpt lat="45.62043569520555" lon="9.360600692633986"><ele>190.0</ele><time>2026-04-03T16:46:44.999Z</time></trkpt><trkpt lat="45.6207118521233" lon="9.360634433282714"><ele>190.0</ele><time>2026-04-03T16:46:45.999Z</time></trkpt><trkpt lat="45.620961171322605" lon="9.36067837002942"><ele>190.0</ele><time>2026-04-03T16:46:47Z</time></trkpt><trkpt lat="45.62120874146701" lon="9.360720154710647"><ele>192.0</ele><time>2026-04-03T16:46:48Z</time></trkpt><trkpt lat="45.621449084744896" lon="9.360763477369252"><ele>194.0</ele><time>2026-04-03T16:46:49Z</time></trkpt><trkpt lat="45.621690017390875" lon="9.360806586819237"><ele>194.0</ele><time>2026-04-03T16:46:50Z</time></trkpt><trkpt lat="45.62192330977003" lon="9.360852596692272"><ele>194.0</ele><time>2026-04-03T16:46:51Z</time></trkpt><trkpt lat="45.622153294529724" lon="9.36089492557343"><ele>195.0</ele><time>2026-04-03T16:46:52Z</time></trkpt><trkpt lat="45.62238691623672" lon="9.360932812646128"><ele>196.0</ele><time>2026-04-03T16:46:53Z</time></trkpt><trkpt lat="45.62262076363311" lon="9.360968180090799"><ele>197.5</ele><time>2026-04-03T16:46:54Z</time></trkpt><trkpt lat="45.62285669072167" lon="9.3610117809551"><ele>199.0</ele><time>2026-04-03T16:46:55Z</time></trkpt><trkpt lat="45.62309274874572" lon="9.361060847846085"><ele>199.0</ele><time>2026-04-03T16:46:56Z</time></trkpt><trkpt lat="45.62332863496349" lon="9.361112388542686"><ele>199.0</ele><time>2026-04-03T16:46:57Z</time></trkpt><trkpt lat="45.6235636501023" lon="9.361168714237651"><ele>199.0</ele><time>2026-04-03T16:46:58Z</time></trkpt><trkpt lat="45.623795183200286" lon="9.361223115593562"><ele>199.0</ele><time>2026-04-03T16:46:59Z</time></trkpt><trkpt lat="45.624028413541794" lon="9.361272906396218"><ele>199.0</ele><time>2026-04-03T16:47:00Z</time></trkpt><trkpt lat="45.624265906895005" lon="9.361317433145318"><ele>199.0</ele><time>2026-04-03T16:47:01Z</time></trkpt><trkpt lat="45.62449616065897" lon="9.36136781328218"><ele>200.5</ele><time>2026-04-03T16:47:02Z</time></trkpt><trkpt lat="45.624731922376554" lon="9.361415304021495"><ele>202.0</ele><time>2026-04-03T16:47:03Z</time></trkpt><trkpt lat="45.62496612559207" lon="9.361464504294336"><ele>202.0</ele><time>2026-04-03T16:47:04Z</time></trkpt><trkpt lat="45.62520293743252" lon="9.361511596180502"><ele>202.0</ele><time>2026-04-03T16:47:05Z</time></trkpt><trkpt lat="45.6254370848267" lon="9.361559529731602"><ele>202.5</ele><time>2026-04-03T16:47:06Z</time></trkpt><trkpt lat="45.625671124884214" lon="9.361606018818415"><ele>203.0</ele><time>2026-04-03T16:47:07Z</time></trkpt><trkpt lat="45.6259045617653" lon="9.361653105902825"><ele>203.0</ele><time>2026-04-03T16:47:08Z</time></trkpt><trkpt lat="45.62613889575757" lon="9.361699125737667"><ele>203.0</ele><time>2026-04-03T16:47:09Z</time></trkpt><trkpt lat="45.62637340459037" lon="9.361743263975702"><ele>203.0</ele><time>2026-04-03T16:47:10Z</time></trkpt><trkpt lat="45.62660753133064" lon="9.361788485692886"><ele>203.0</ele><time>2026-04-03T16:47:11Z</time></trkpt><trkpt lat="45.62684175951277" lon="9.36183571786444"><ele>204.5</ele><time>2026-04-03T16:47:12Z</time></trkpt><trkpt lat="45.6270787326944" lon="9.361883869593756"><ele>206.0</ele><time>2026-04-03T16:47:13Z</time></trkpt><trkpt lat="45.62731175884551" lon="9.36192464738814"><ele>206.0</ele><time>2026-04-03T16:47:14Z</time></trkpt><trkpt lat="45.62754793353377" lon="9.361961760682144"><ele>206.0</ele><time>2026-04-03T16:47:15Z</time></trkpt><trkpt lat="45.62778428709788" lon="9.36199706108059"><ele>207.0</ele><time>2026-04-03T16:47:16Z</time></trkpt><trkpt lat="45.62802035049575" lon="9.36203786491886"><ele>208.0</ele><time>2026-04-03T16:47:17Z</time></trkpt><trkpt lat="45.62825681447424" lon="9.362085012124863"><ele>208.0</ele><time>2026-04-03T16:47:18Z</time></trkpt><trkpt lat="45.628492437957235" lon="9.362134336468305"><ele>208.0</ele><time>2026-04-03T16:47:19Z</time></trkpt><trkpt lat="45.6287297641037" lon="9.362181882055781"><ele>207.5</ele><time>2026-04-03T16:47:20Z</time></trkpt><trkpt lat="45.62896716884704" lon="9.362227352669212"><ele>207.0</ele><time>2026-04-03T16:47:21Z</time></trkpt><trkpt lat="45.62920359077305" lon="9.362273500668502"><ele>207.0</ele><time>2026-04-03T16:47:22Z</time></trkpt><trkpt lat="45.62944224847306" lon="9.362321999223617"><ele>207.0</ele><time>2026-04-03T16:47:23Z</time></trkpt><trkpt lat="45.62967667908857" lon="9.362368356050322"><ele>206.5</ele><time>2026-04-03T16:47:24Z</time></trkpt><trkpt lat="45.62991127209438" lon="9.362415076426508"><ele>206.0</ele><time>2026-04-03T16:47:25Z</time></trkpt><trkpt lat="45.63014567836716" lon="9.362461151288198"><ele>207.5</ele><time>2026-04-03T16:47:26Z</time></trkpt><trkpt lat="45.63037672807603" lon="9.362506245018436"><ele>209.0</ele><time>2026-04-03T16:47:27Z</time></trkpt><trkpt lat="45.63060881444171" lon="9.36255149727617"><ele>209.0</ele><time>2026-04-03T16:47:28Z</time></trkpt><trkpt lat="45.6308404848242" lon="9.362596108678332"><ele>209.0</ele><time>2026-04-03T16:47:29Z</time></trkpt><trkpt lat="45.631072404524936" lon="9.362641765601111"><ele>209.0</ele><time>2026-04-03T16:47:30Z</time></trkpt><trkpt lat="45.63130525579669" lon="9.362687973870797"><ele>209.0</ele><time>2026-04-03T16:47:31Z</time></trkpt><trkpt lat="45.63153456810408" lon="9.362738206198282"><ele>209.0</ele><time>2026-04-03T16:47:32Z</time></trkpt><trkpt lat="45.63177346333352" lon="9.362783803680887"><ele>209.0</ele><time>2026-04-03T16:47:33Z</time></trkpt><trkpt lat="45.63200668005336" lon="9.36282983750349"><ele>209.5</ele><time>2026-04-03T16:47:34Z</time></trkpt><trkpt lat="45.632243268505725" lon="9.362876042285983"><ele>210.0</ele><time>2026-04-03T16:47:35Z</time></trkpt><trkpt lat="45.63248077467853" lon="9.3629249052167"><ele>210.0</ele><time>2026-04-03T16:47:36Z</time></trkpt><trkpt lat="45.63272050351279" lon="9.362973583470163"><ele>210.0</ele><time>2026-04-03T16:47:37Z</time></trkpt><trkpt lat="45.63295759744852" lon="9.363023320669054"><ele>211.0</ele><time>2026-04-03T16:47:38Z</time></trkpt><trkpt lat="45.63319435877731" lon="9.363067817498681"><ele>212.0</ele><time>2026-04-03T16:47:39Z</time></trkpt><trkpt lat="45.63343132892566" lon="9.363111830487794"><ele>211.5</ele><time>2026-04-03T16:47:40Z</time></trkpt><trkpt lat="45.633669997718094" lon="9.363157463049898"><ele>211.0</ele><time>2026-04-03T16:47:41Z</time></trkpt><trkpt lat="45.63390736461559" lon="9.363205373449066"><ele>211.0</ele><time>2026-04-03T16:47:42Z</time></trkpt><trkpt lat="45.63414282556957" lon="9.363253860530824"><ele>211.0</ele><time>2026-04-03T16:47:43Z</time></trkpt><trkpt lat="45.634380065018945" lon="9.363300821973288"><ele>211.0</ele><time>2026-04-03T16:47:44Z</time></trkpt><trkpt lat="45.634615129111474" lon="9.3633460484858"><ele>211.0</ele><time>2026-04-03T16:47:45Z</time></trkpt><trkpt lat="45.6348510802903" lon="9.363391640398044"><ele>211.0</ele><time>2026-04-03T16:47:46Z</time></trkpt><trkpt lat="45.63508793946153" lon="9.363437448025792"><ele>211.0</ele><time>2026-04-03T16:47:47Z</time></trkpt><trkpt lat="45.63532750952865" lon="9.36348519710182"><ele>211.0</ele><time>2026-04-03T16:47:48Z</time></trkpt><trkpt lat="45.63556484362208" lon="9.363532789026543"><ele>211.0</ele><time>2026-04-03T16:47:49Z</time></trkpt><trkpt lat="45.63580290894938" lon="9.363580805172324"><ele>211.0</ele><time>2026-04-03T16:47:50Z</time></trkpt><trkpt lat="45.63604142632614" lon="9.363628965312286"><ele>211.0</ele><time>2026-04-03T16:47:51Z</time></trkpt><trkpt lat="45.636279795849894" lon="9.363676919022947"><ele>211.0</ele><time>2026-04-03T16:47:51.999Z</time></trkpt><trkpt lat="45.636517566481885" lon="9.363726157728886"><ele>211.0</ele><time>2026-04-03T16:47:52.999Z</time></trkpt><trkpt lat="45.63675557896813" lon="9.363779298613396"><ele>211.5</ele><time>2026-04-03T16:47:53.999Z</time></trkpt><trkpt lat="45.63699185119139" lon="9.363834776329513"><ele>212.0</ele><time>2026-04-03T16:47:54.999Z</time></trkpt><trkpt lat="45.63722950751403" lon="9.363895597152716"><ele>212.0</ele><time>2026-04-03T16:47:55.999Z</time></trkpt><trkpt lat="45.6374664853312" lon="9.363958596255715"><ele>212.0</ele><time>2026-04-03T16:47:56.999Z</time></trkpt><trkpt lat="45.63770486722214" lon="9.364022879486875"><ele>212.0</ele><time>2026-04-03T16:47:57.999Z</time></trkpt><trkpt lat="45.637944527627624" lon="9.364089218550273"><ele>212.0</ele><time>2026-04-03T16:47:58.999Z</time></trkpt><trkpt lat="45.638186300130094" lon="9.364159423628637"><ele>212.0</ele><time>2026-04-03T16:47:59.999Z</time></trkpt><trkpt lat="45.63842801497904" lon="9.364232525290713"><ele>212.0</ele><time>2026-04-03T16:48:00.999Z</time></trkpt><trkpt lat="45.63866948471645" lon="9.364307884010264"><ele>211.5</ele><time>2026-04-03T16:48:01.999Z</time></trkpt><trkpt lat="45.63891263565916" lon="9.364383921204674"><ele>211.0</ele><time>2026-04-03T16:48:02.999Z</time></trkpt><trkpt lat="45.639153760413556" lon="9.364463855207024"><ele>211.0</ele><time>2026-04-03T16:48:03.999Z</time></trkpt><trkpt lat="45.63939450781159" lon="9.364544437641857"><ele>211.0</ele><time>2026-04-03T16:48:04.999Z</time></trkpt><trkpt lat="45.63963538547603" lon="9.364630290434057"><ele>211.0</ele><time>2026-04-03T16:48:05.999Z</time></trkpt><trkpt lat="45.63987708922253" lon="9.364716209011517"><ele>211.0</ele><time>2026-04-03T16:48:06.999Z</time></trkpt><trkpt lat="45.64012068328059" lon="9.364810043448935"><ele>211.5</ele><time>2026-04-03T16:48:07.999Z</time></trkpt><trkpt lat="45.64036705178311" lon="9.364891794545356"><ele>212.0</ele><time>2026-04-03T16:48:08.999Z</time></trkpt><trkpt lat="45.64060875842243" lon="9.364980236909528"><ele>212.0</ele><time>2026-04-03T16:48:09.999Z</time></trkpt><trkpt lat="45.64085544127533" lon="9.365070482829871"><ele>212.0</ele><time>2026-04-03T16:48:10.999Z</time></trkpt><trkpt lat="45.64110302287888" lon="9.365158949364801"><ele>213.5</ele><time>2026-04-03T16:48:11.999Z</time></trkpt><trkpt lat="45.64134898960121" lon="9.365246482850067"><ele>215.0</ele><time>2026-04-03T16:48:12.999Z</time></trkpt><trkpt lat="45.641601219102114" lon="9.365326984969803"><ele>215.0</ele><time>2026-04-03T16:48:13.999Z</time></trkpt><trkpt lat="45.64184854075113" lon="9.365414872366646"><ele>215.0</ele><time>2026-04-03T16:48:14.999Z</time></trkpt><trkpt lat="45.64209920451421" lon="9.365503223658957"><ele>215.5</ele><time>2026-04-03T16:48:15.999Z</time></trkpt><trkpt lat="45.64234428797747" lon="9.36558511291241"><ele>216.0</ele><time>2026-04-03T16:48:16.999Z</time></trkpt><trkpt lat="45.6425879261152" lon="9.36567779741036"><ele>216.0</ele><time>2026-04-03T16:48:17.999Z</time></trkpt><trkpt lat="45.64283713793361" lon="9.3657601762243"><ele>216.0</ele><time>2026-04-03T16:48:18.999Z</time></trkpt><trkpt lat="45.6430752142032" lon="9.36584613990266"><ele>216.0</ele><time>2026-04-03T16:48:19.999Z</time></trkpt><trkpt lat="45.64331731997845" lon="9.365928436886987"><ele>216.0</ele><time>2026-04-03T16:48:20.999Z</time></trkpt><trkpt lat="45.64355559094669" lon="9.366005773220015"><ele>217.5</ele><time>2026-04-03T16:48:21.999Z</time></trkpt><trkpt lat="45.64379786991288" lon="9.366081587787995"><ele>219.0</ele><time>2026-04-03T16:48:22.999Z</time></trkpt><trkpt lat="45.64403726175555" lon="9.366164144446003"><ele>219.0</ele><time>2026-04-03T16:48:23.999Z</time></trkpt><trkpt lat="45.644277758712995" lon="9.366247968617705"><ele>219.0</ele><time>2026-04-03T16:48:24.999Z</time></trkpt><trkpt lat="45.64451243077883" lon="9.366330565905743"><ele>216.5</ele><time>2026-04-03T16:48:25.999Z</time></trkpt><trkpt lat="45.64474208166944" lon="9.366410451218089"><ele>214.0</ele><time>2026-04-03T16:48:26.999Z</time></trkpt><trkpt lat="45.64496278148583" lon="9.366488963905784"><ele>214.0</ele><time>2026-04-03T16:48:27.999Z</time></trkpt><trkpt lat="45.64517939228321" lon="9.366564344544432"><ele>214.0</ele><time>2026-04-03T16:48:28.999Z</time></trkpt><trkpt lat="45.645377360228856" lon="9.366633558197487"><ele>214.0</ele><time>2026-04-03T16:48:29.999Z</time></trkpt><trkpt lat="45.64558058135459" lon="9.36669966349665"><ele>214.33333333333331</ele><time>2026-04-03T16:48:30.999Z</time></trkpt><trkpt lat="45.64578149977843" lon="9.36676950776673"><ele>214.66666666666669</ele><time>2026-04-03T16:48:31.999Z</time></trkpt><trkpt lat="45.64598293798084" lon="9.366846683698965"><ele>215.0</ele><time>2026-04-03T16:48:32.999Z</time></trkpt><trkpt lat="45.64618426533093" lon="9.36691584787208"><ele>216.66666666666669</ele><time>2026-04-03T16:48:33.999Z</time></trkpt><trkpt lat="45.64638664135933" lon="9.366989915597296"><ele>218.33333333333331</ele><time>2026-04-03T16:48:34.999Z</time></trkpt><trkpt lat="45.646580370053655" lon="9.3670643523644"><ele>220.0</ele><time>2026-04-03T16:48:35.999Z</time></trkpt><trkpt lat="45.64676544356436" lon="9.367127139594519"><ele>220.0</ele><time>2026-04-03T16:48:36.999Z</time></trkpt><trkpt lat="45.64694878221125" lon="9.367190637877084"><ele>220.0</ele><time>2026-04-03T16:48:37.999Z</time></trkpt><trkpt lat="45.647133938902215" lon="9.367260019230036"><ele>220.0</ele><time>2026-04-03T16:48:38.999Z</time></trkpt><trkpt lat="45.64731683751644" lon="9.367326684522103"><ele>219.66666666666666</ele><time>2026-04-03T16:48:39.999Z</time></trkpt><trkpt lat="45.64749272339525" lon="9.367389513461672"><ele>219.33333333333331</ele><time>2026-04-03T16:48:40.999Z</time></trkpt><trkpt lat="45.647659533283026" lon="9.367451217355478"><ele>219.0</ele><time>2026-04-03T16:48:41.999Z</time></trkpt><trkpt lat="45.647827156455506" lon="9.36751342069969"><ele>218.66666666666669</ele><time>2026-04-03T16:48:42.999Z</time></trkpt><trkpt lat="45.64799485340208" lon="9.367574703008925"><ele>218.33333333333334</ele><time>2026-04-03T16:48:43.999Z</time></trkpt><trkpt lat="45.64816474663381" lon="9.367633734706132"><ele>218.0</ele><time>2026-04-03T16:48:44.999Z</time></trkpt><trkpt lat="45.64833812010325" lon="9.367697184849808"><ele>218.0</ele><time>2026-04-03T16:48:45.999Z</time></trkpt><trkpt lat="45.648517204667385" lon="9.367758932591578"><ele>218.0</ele><time>2026-04-03T16:48:46.999Z</time></trkpt><trkpt lat="45.6486966037171" lon="9.367824659827697"><ele>218.0</ele><time>2026-04-03T16:48:47.999Z</time></trkpt><trkpt lat="45.648882495498405" lon="9.36789132488304"><ele>217.66666666666669</ele><time>2026-04-03T16:48:48.999Z</time></trkpt><trkpt lat="45.6490757887479" lon="9.36795994216367"><ele>217.33333333333331</ele><time>2026-04-03T16:48:49.999Z</time></trkpt><trkpt lat="45.649269694524264" lon="9.368026524324625"><ele>217.0</ele><time>2026-04-03T16:48:50.999Z</time></trkpt><trkpt lat="45.649465455180895" lon="9.368096292187193"><ele>217.0</ele><time>2026-04-03T16:48:52Z</time></trkpt><trkpt lat="45.64966118391357" lon="9.368163762795305"><ele>217.0</ele><time>2026-04-03T16:48:53Z</time></trkpt><trkpt lat="45.64985000258568" lon="9.368231341196054"><ele>217.0</ele><time>2026-04-03T16:48:54Z</time></trkpt><trkpt lat="45.650040702106885" lon="9.368306653856248"><ele>217.0</ele><time>2026-04-03T16:48:55Z</time></trkpt><trkpt lat="45.65024232683653" lon="9.368380944318378"><ele>217.0</ele><time>2026-04-03T16:48:56Z</time></trkpt><trkpt lat="45.650442834203915" lon="9.368444980875266"><ele>217.0</ele><time>2026-04-03T16:48:57Z</time></trkpt><trkpt lat="45.65064574558929" lon="9.368514272186735"><ele>218.0</ele><time>2026-04-03T16:48:58Z</time></trkpt><trkpt lat="45.650847312349306" lon="9.368589863613584"><ele>219.0</ele><time>2026-04-03T16:48:59Z</time></trkpt><trkpt lat="45.65106546899368" lon="9.368664390554148"><ele>220.0</ele><time>2026-04-03T16:49:00Z</time></trkpt><trkpt lat="45.65129195781801" lon="9.368735500027318"><ele>220.0</ele><time>2026-04-03T16:49:01Z</time></trkpt><trkpt lat="45.65151190573833" lon="9.36881093099074"><ele>220.0</ele><time>2026-04-03T16:49:02Z</time></trkpt><trkpt lat="45.65173066412213" lon="9.36889830221727"><ele>220.0</ele><time>2026-04-03T16:49:03Z</time></trkpt><trkpt lat="45.65195143951739" lon="9.368983943747756"><ele>220.0</ele><time>2026-04-03T16:49:04Z</time></trkpt><trkpt lat="45.6521738159106" lon="9.36907255917208"><ele>220.0</ele><time>2026-04-03T16:49:05Z</time></trkpt><trkpt lat="45.6523927001541" lon="9.3691689493673"><ele>220.0</ele><time>2026-04-03T16:49:06Z</time></trkpt><trkpt lat="45.65260475619176" lon="9.369275334875642"><ele>219.33333333333331</ele><time>2026-04-03T16:49:07Z</time></trkpt><trkpt lat="45.6528138826694" lon="9.369373526541086"><ele>218.66666666666669</ele><time>2026-04-03T16:49:08Z</time></trkpt><trkpt lat="45.65301972401458" lon="9.369471215356459"><ele>218.0</ele><time>2026-04-03T16:49:09Z</time></trkpt><trkpt lat="45.653220405396354" lon="9.369563188299296"><ele>218.0</ele><time>2026-04-03T16:49:10Z</time></trkpt><trkpt lat="45.65341734444601" lon="9.369658131115703"><ele>218.0</ele><time>2026-04-03T16:49:11Z</time></trkpt><trkpt lat="45.653609397069225" lon="9.369752557709244"><ele>218.0</ele><time>2026-04-03T16:49:12Z</time></trkpt><trkpt lat="45.65379767582907" lon="9.369841053554367"><ele>218.66666666666669</ele><time>2026-04-03T16:49:13Z</time></trkpt><trkpt lat="45.653986558177614" lon="9.36993627800821"><ele>219.33333333333331</ele><time>2026-04-03T16:49:14Z</time></trkpt><trkpt lat="45.65416557996249" lon="9.370042112314186"><ele>220.0</ele><time>2026-04-03T16:49:15Z</time></trkpt><trkpt lat="45.6543390489872" lon="9.370175491154507"><ele>222.33333333333331</ele><time>2026-04-03T16:49:16Z</time></trkpt><trkpt lat="45.65449673064254" lon="9.37034679224821"><ele>224.66666666666669</ele><time>2026-04-03T16:49:17Z</time></trkpt><trkpt lat="45.65463120134356" lon="9.370561595011631"><ele>227.0</ele><time>2026-04-03T16:49:18Z</time></trkpt><trkpt lat="45.65473218695792" lon="9.370803512280606"><ele>227.0</ele><time>2026-04-03T16:49:19Z</time></trkpt><trkpt lat="45.654814294682836" lon="9.37105542261259"><ele>227.0</ele><time>2026-04-03T16:49:20Z</time></trkpt><trkpt lat="45.65489940897113" lon="9.371306431245596"><ele>227.0</ele><time>2026-04-03T16:49:21Z</time></trkpt><trkpt lat="45.65498606879086" lon="9.371548409642749"><ele>225.66666666666669</ele><time>2026-04-03T16:49:22Z</time></trkpt><trkpt lat="45.65507483946149" lon="9.371781825267687"><ele>224.33333333333331</ele><time>2026-04-03T16:49:23Z</time></trkpt><trkpt lat="45.655163568731794" lon="9.372017800183299"><ele>223.0</ele><time>2026-04-03T16:49:24Z</time></trkpt><trkpt lat="45.655245998402116" lon="9.372248819821019"><ele>225.66666666666666</ele><time>2026-04-03T16:49:25Z</time></trkpt><trkpt lat="45.655327935936945" lon="9.372478157716706"><ele>228.33333333333331</ele><time>2026-04-03T16:49:26Z</time></trkpt><trkpt lat="45.65541578479351" lon="9.372709640243936"><ele>231.0</ele><time>2026-04-03T16:49:27Z</time></trkpt><trkpt lat="45.65550028448368" lon="9.372941689608275"><ele>229.66666666666669</ele><time>2026-04-03T16:49:28Z</time></trkpt><trkpt lat="45.655579169109934" lon="9.37316855771319"><ele>228.33333333333334</ele><time>2026-04-03T16:49:29Z</time></trkpt><trkpt lat="45.65565906267" lon="9.373387197609471"><ele>227.0</ele><time>2026-04-03T16:49:30Z</time></trkpt><trkpt lat="45.655742460795985" lon="9.373601473238745"><ele>227.0</ele><time>2026-04-03T16:49:31Z</time></trkpt><trkpt lat="45.65582333544836" lon="9.373816546401981"><ele>227.0</ele><time>2026-04-03T16:49:32Z</time></trkpt><trkpt lat="45.65589887834564" lon="9.374027557026547"><ele>227.0</ele><time>2026-04-03T16:49:33Z</time></trkpt><trkpt lat="45.65597627084911" lon="9.374229641122872"><ele>226.0</ele><time>2026-04-03T16:49:34Z</time></trkpt><trkpt lat="45.65605472855932" lon="9.374433050126635"><ele>225.0</ele><time>2026-04-03T16:49:35Z</time></trkpt><trkpt lat="45.656133877991984" lon="9.37463048746148"><ele>224.0</ele><time>2026-04-03T16:49:36Z</time></trkpt><trkpt lat="45.65621174377318" lon="9.374832084956157"><ele>224.5</ele><time>2026-04-03T16:49:37Z</time></trkpt><trkpt lat="45.65628819915144" lon="9.375023482241659"><ele>225.0</ele><time>2026-04-03T16:49:38Z</time></trkpt><trkpt lat="45.65636654814857" lon="9.375206150029307"><ele>225.5</ele><time>2026-04-03T16:49:39Z</time></trkpt><trkpt lat="45.65644437219525" lon="9.375375074706964"><ele>226.0</ele><time>2026-04-03T16:49:40Z</time></trkpt><trkpt lat="45.65651708404554" lon="9.3755215422234"><ele>226.0</ele><time>2026-04-03T16:49:41Z</time></trkpt><trkpt lat="45.656583463034444" lon="9.375645501633947"><ele>226.00000000000003</ele><time>2026-04-03T16:49:42Z</time></trkpt><trkpt lat="45.656646321786496" lon="9.375759807330272"><ele>226.00000000000003</ele><time>2026-04-03T16:49:43Z</time></trkpt><trkpt lat="45.656710151107454" lon="9.375873653772912"><ele>226.0</ele><time>2026-04-03T16:49:44Z</time></trkpt><trkpt lat="45.65676716169394" lon="9.375991076309337"><ele>226.0</ele><time>2026-04-03T16:49:44.999Z</time></trkpt><trkpt lat="45.65682425777918" lon="9.376115319433534"><ele>226.0</ele><time>2026-04-03T16:49:45.999Z</time></trkpt><trkpt lat="45.65687787040734" lon="9.376240411912411"><ele>226.00000000000003</ele><time>2026-04-03T16:49:46.999Z</time></trkpt><trkpt lat="45.65692912680336" lon="9.376372241185305"><ele>226.00000000000003</ele><time>2026-04-03T16:49:47.999Z</time></trkpt><trkpt lat="45.65697844055931" lon="9.376499251645248"><ele>226.0</ele><time>2026-04-03T16:49:48.999Z</time></trkpt><trkpt lat="45.657033692053346" lon="9.376618245987261"><ele>226.0</ele><time>2026-04-03T16:49:49.999Z</time></trkpt><trkpt lat="45.657089853342065" lon="9.376734377848248"><ele>226.0</ele><time>2026-04-03T16:49:50.999Z</time></trkpt><trkpt lat="45.657144920801684" lon="9.376830767639673"><ele>226.00000000000003</ele><time>2026-04-03T16:49:51.999Z</time></trkpt><trkpt lat="45.6571993676849" lon="9.376913996510767"><ele>226.00000000000003</ele><time>2026-04-03T16:49:52.999Z</time></trkpt><trkpt lat="45.657263038596824" lon="9.377003497139697"><ele>226.0</ele><time>2026-04-03T16:49:53.999Z</time></trkpt><trkpt lat="45.65733980391714" lon="9.377095375772317"><ele>226.0</ele><time>2026-04-03T16:49:54.999Z</time></trkpt><trkpt lat="45.65743318488905" lon="9.377187596567323"><ele>226.25</ele><time>2026-04-03T16:49:55.999Z</time></trkpt><trkpt lat="45.65753409649551" lon="9.377284881571498"><ele>226.5</ele><time>2026-04-03T16:49:56.999Z</time></trkpt><trkpt lat="45.657641092637334" lon="9.37739562447736"><ele>226.75</ele><time>2026-04-03T16:49:57.999Z</time></trkpt><trkpt lat="45.65775098023365" lon="9.377518672570027"><ele>227.0</ele><time>2026-04-03T16:49:58.999Z</time></trkpt><trkpt lat="45.65786139211148" lon="9.377657708024433"><ele>228.66666666666669</ele><time>2026-04-03T16:49:59.999Z</time></trkpt><trkpt lat="45.65797264855469" lon="9.377817083651834"><ele>230.33333333333331</ele><time>2026-04-03T16:50:00.999Z</time></trkpt><trkpt lat="45.65808880524992" lon="9.377987332813607"><ele>232.0</ele><time>2026-04-03T16:50:01.999Z</time></trkpt><trkpt lat="45.65820473803505" lon="9.37815663942806"><ele>232.0</ele><time>2026-04-03T16:50:02.999Z</time></trkpt><trkpt lat="45.658321319835565" lon="9.378337455000832"><ele>232.0</ele><time>2026-04-03T16:50:03.999Z</time></trkpt><trkpt lat="45.65843883883202" lon="9.37851222835191"><ele>232.0</ele><time>2026-04-03T16:50:04.999Z</time></trkpt><trkpt lat="45.65854399909177" lon="9.378673665035619"><ele>233.0</ele><time>2026-04-03T16:50:05.999Z</time></trkpt><trkpt lat="45.65865950115151" lon="9.378845576793925"><ele>234.0</ele><time>2026-04-03T16:50:06.999Z</time></trkpt><trkpt lat="45.658764193734044" lon="9.379007575873333"><ele>235.0</ele><time>2026-04-03T16:50:07.999Z</time></trkpt><trkpt lat="45.65887429499636" lon="9.379172887527947"><ele>235.0</ele><time>2026-04-03T16:50:08.999Z</time></trkpt><trkpt lat="45.65897858290817" lon="9.379331201233617"><ele>235.0</ele><time>2026-04-03T16:50:09.999Z</time></trkpt><trkpt lat="45.65908832622913" lon="9.379490696370826"><ele>235.0</ele><time>2026-04-03T16:50:10.999Z</time></trkpt><trkpt lat="45.65919720403693" lon="9.379652450714664"><ele>233.66666666666666</ele><time>2026-04-03T16:50:11.999Z</time></trkpt><trkpt lat="45.659309830662494" lon="9.379819635444722"><ele>232.33333333333331</ele><time>2026-04-03T16:50:12.999Z</time></trkpt><trkpt lat="45.65942284785081" lon="9.379976177951695"><ele>231.0</ele><time>2026-04-03T16:50:13.999Z</time></trkpt><trkpt lat="45.65954553306836" lon="9.380143792343357"><ele>231.66666666666669</ele><time>2026-04-03T16:50:14.999Z</time></trkpt><trkpt lat="45.65967995072588" lon="9.380335684703441"><ele>232.33333333333334</ele><time>2026-04-03T16:50:15.999Z</time></trkpt><trkpt lat="45.659805453900425" lon="9.380514229502074"><ele>233.0</ele><time>2026-04-03T16:50:16.999Z</time></trkpt><trkpt lat="45.65992159771502" lon="9.380692998465994"><ele>233.0</ele><time>2026-04-03T16:50:17.999Z</time></trkpt><trkpt lat="45.660037304552816" lon="9.380859080281763"><ele>233.0</ele><time>2026-04-03T16:50:18.999Z</time></trkpt><trkpt lat="45.660146188659425" lon="9.381013096804995"><ele>233.0</ele><time>2026-04-03T16:50:19.999Z</time></trkpt><trkpt lat="45.66026231405289" lon="9.381163288649697"><ele>234.0</ele><time>2026-04-03T16:50:20.999Z</time></trkpt><trkpt lat="45.66037939078594" lon="9.381315019605266"><ele>235.0</ele><time>2026-04-03T16:50:21.999Z</time></trkpt><trkpt lat="45.660494698233045" lon="9.381465752675842"><ele>236.0</ele><time>2026-04-03T16:50:22.999Z</time></trkpt><trkpt lat="45.66060892155636" lon="9.381607548421862"><ele>236.0</ele><time>2026-04-03T16:50:23.999Z</time></trkpt><trkpt lat="45.660724282966754" lon="9.381748317573761"><ele>236.0</ele><time>2026-04-03T16:50:24.999Z</time></trkpt><trkpt lat="45.660834592287706" lon="9.381884080466756"><ele>236.0</ele><time>2026-04-03T16:50:25.999Z</time></trkpt><trkpt lat="45.66094558953715" lon="9.382018882538354"><ele>236.0</ele><time>2026-04-03T16:50:26.999Z</time></trkpt><trkpt lat="45.661059336724584" lon="9.382154470397664"><ele>233.66666666666669</ele><time>2026-04-03T16:50:27.999Z</time></trkpt><trkpt lat="45.66117567091248" lon="9.382283458549646"><ele>231.33333333333331</ele><time>2026-04-03T16:50:28.999Z</time></trkpt><trkpt lat="45.661295540945986" lon="9.3824154282684"><ele>229.0</ele><time>2026-04-03T16:50:29.999Z</time></trkpt><trkpt lat="45.66142131798236" lon="9.382551614433575"><ele>229.0</ele><time>2026-04-03T16:50:30.999Z</time></trkpt><trkpt lat="45.66154331112129" lon="9.382684340569101"><ele>229.0</ele><time>2026-04-03T16:50:31.999Z</time></trkpt><trkpt lat="45.661668657590354" lon="9.382819601626597"><ele>229.0</ele><time>2026-04-03T16:50:32.999Z</time></trkpt><trkpt lat="45.66179130171869" lon="9.382945831594748"><ele>229.0</ele><time>2026-04-03T16:50:33.999Z</time></trkpt><trkpt lat="45.661909324333564" lon="9.383066471796614"><ele>229.0</ele><time>2026-04-03T16:50:34.999Z</time></trkpt><trkpt lat="45.66202287912435" lon="9.383189364756356"><ele>229.0</ele><time>2026-04-03T16:50:35.999Z</time></trkpt><trkpt lat="45.66213344130968" lon="9.383303534070937"><ele>229.0</ele><time>2026-04-03T16:50:36.999Z</time></trkpt><trkpt lat="45.66224842387064" lon="9.383417587542754"><ele>229.0</ele><time>2026-04-03T16:50:37.999Z</time></trkpt><trkpt lat="45.66236423439066" lon="9.383529739563885"><ele>229.0</ele><time>2026-04-03T16:50:38.999Z</time></trkpt><trkpt lat="45.66247755343393" lon="9.383636443080285"><ele>229.0</ele><time>2026-04-03T16:50:39.999Z</time></trkpt><trkpt lat="45.662588476337575" lon="9.383741695968565"><ele>229.0</ele><time>2026-04-03T16:50:40.999Z</time></trkpt><trkpt lat="45.6626970838726" lon="9.383844669072499"><ele>229.5</ele><time>2026-04-03T16:50:41.999Z</time></trkpt><trkpt lat="45.66281314256308" lon="9.383948847462406"><ele>230.0</ele><time>2026-04-03T16:50:42.999Z</time></trkpt><trkpt lat="45.662932935224745" lon="9.384055282537927"><ele>230.5</ele><time>2026-04-03T16:50:43.999Z</time></trkpt><trkpt lat="45.66305485275389" lon="9.384159211619911"><ele>231.0</ele><time>2026-04-03T16:50:44.999Z</time></trkpt><trkpt lat="45.663174445173325" lon="9.384260550335455"><ele>231.0</ele><time>2026-04-03T16:50:45.999Z</time></trkpt><trkpt lat="45.66329163344446" lon="9.38436340742605"><ele>231.0</ele><time>2026-04-03T16:50:46.999Z</time></trkpt><trkpt lat="45.66340174842168" lon="9.384459384599383"><ele>231.0</ele><time>2026-04-03T16:50:47.999Z</time></trkpt><trkpt lat="45.6635097489463" lon="9.384549768490915"><ele>231.0</ele><time>2026-04-03T16:50:48.999Z</time></trkpt><trkpt lat="45.663613122024046" lon="9.384636368240933"><ele>230.75</ele><time>2026-04-03T16:50:49.999Z</time></trkpt><trkpt lat="45.66371682529267" lon="9.38472029486896"><ele>230.5</ele><time>2026-04-03T16:50:50.999Z</time></trkpt><trkpt lat="45.66382607117976" lon="9.384804683865672"><ele>230.25</ele><time>2026-04-03T16:50:51.999Z</time></trkpt><trkpt lat="45.663939778544275" lon="9.384893848769705"><ele>230.0</ele><time>2026-04-03T16:50:52.999Z</time></trkpt><trkpt lat="45.664062251348305" lon="9.384994582526014"><ele>230.0</ele><time>2026-04-03T16:50:53.999Z</time></trkpt><trkpt lat="45.66419237121349" lon="9.385102394031662"><ele>230.0</ele><time>2026-04-03T16:50:54.999Z</time></trkpt><trkpt lat="45.66432551968204" lon="9.38521417413311"><ele>230.0</ele><time>2026-04-03T16:50:55.999Z</time></trkpt><trkpt lat="45.66446228388213" lon="9.385328744632671"><ele>230.33333333333334</ele><time>2026-04-03T16:50:56.999Z</time></trkpt><trkpt lat="45.66460311720403" lon="9.385443800814887"><ele>230.66666666666669</ele><time>2026-04-03T16:50:58Z</time></trkpt><trkpt lat="45.66474267703638" lon="9.385558981817843"><ele>231.0</ele><time>2026-04-03T16:50:59Z</time></trkpt><trkpt lat="45.66488073470729" lon="9.385673770112207"><ele>231.0</ele><time>2026-04-03T16:51:00Z</time></trkpt><trkpt lat="45.66501475868098" lon="9.385785081368043"><ele>231.0</ele><time>2026-04-03T16:51:01Z</time></trkpt><trkpt lat="45.665146859140286" lon="9.38589454216502"><ele>231.0</ele><time>2026-04-03T16:51:02Z</time></trkpt><trkpt lat="45.6652783306676" lon="9.386002530412414"><ele>231.75</ele><time>2026-04-03T16:51:03Z</time></trkpt><trkpt lat="45.66541007333867" lon="9.38610879804433"><ele>232.5</ele><time>2026-04-03T16:51:04Z</time></trkpt><trkpt lat="45.665539940768255" lon="9.386213468939083"><ele>233.25</ele><time>2026-04-03T16:51:05Z</time></trkpt><trkpt lat="45.66566835912908" lon="9.386316744541878"><ele>234.0</ele><time>2026-04-03T16:51:06Z</time></trkpt><trkpt lat="45.6658042094267" lon="9.386429169675399"><ele>233.33333333333331</ele><time>2026-04-03T16:51:07Z</time></trkpt><trkpt lat="45.66594093124841" lon="9.386536983800589"><ele>232.66666666666666</ele><time>2026-04-03T16:51:08Z</time></trkpt><trkpt lat="45.66608315262663" lon="9.38664736402982"><ele>232.0</ele><time>2026-04-03T16:51:09Z</time></trkpt><trkpt lat="45.66623187215333" lon="9.386763148579528"><ele>232.0</ele><time>2026-04-03T16:51:10Z</time></trkpt><trkpt lat="45.66639311483103" lon="9.386884955791517"><ele>232.0</ele><time>2026-04-03T16:51:11Z</time></trkpt><trkpt lat="45.66655440315558" lon="9.387016575743527"><ele>232.0</ele><time>2026-04-03T16:51:12Z</time></trkpt><trkpt lat="45.66671720080924" lon="9.38716010845277"><ele>232.66666666666666</ele><time>2026-04-03T16:51:13Z</time></trkpt><trkpt lat="45.666881690934964" lon="9.387301402628628"><ele>233.33333333333331</ele><time>2026-04-03T16:51:14Z</time></trkpt><trkpt lat="45.667048849375526" lon="9.387445827759423"><ele>234.0</ele><time>2026-04-03T16:51:15Z</time></trkpt><trkpt lat="45.66721612438538" lon="9.387587813909361"><ele>234.0</ele><time>2026-04-03T16:51:16Z</time></trkpt><trkpt lat="45.66738303009092" lon="9.387722845122733"><ele>234.0</ele><time>2026-04-03T16:51:17Z</time></trkpt><trkpt lat="45.66754904009439" lon="9.387856399744122"><ele>234.0</ele><time>2026-04-03T16:51:18Z</time></trkpt><trkpt lat="45.66771533612395" lon="9.387988182866579"><ele>234.66666666666669</ele><time>2026-04-03T16:51:19Z</time></trkpt><trkpt lat="45.66788227583946" lon="9.388112743840567"><ele>235.33333333333334</ele><time>2026-04-03T16:51:20Z</time></trkpt><trkpt lat="45.66804758583142" lon="9.388232302103612"><ele>236.0</ele><time>2026-04-03T16:51:21Z</time></trkpt><trkpt lat="45.668207262804486" lon="9.38835067226076"><ele>236.0</ele><time>2026-04-03T16:51:22Z</time></trkpt><trkpt lat="45.66836202142264" lon="9.388468203371579"><ele>236.0</ele><time>2026-04-03T16:51:23Z</time></trkpt><trkpt lat="45.668515781853145" lon="9.388585769065266"><ele>236.0</ele><time>2026-04-03T16:51:24Z</time></trkpt><trkpt lat="45.66866415380771" lon="9.38870285778792"><ele>235.66666666666669</ele><time>2026-04-03T16:51:25Z</time></trkpt><trkpt lat="45.668809057580624" lon="9.388820817662337"><ele>235.33333333333331</ele><time>2026-04-03T16:51:26Z</time></trkpt><trkpt lat="45.668948527012" lon="9.388939004344492"><ele>235.0</ele><time>2026-04-03T16:51:27Z</time></trkpt><trkpt lat="45.66908628883632" lon="9.389055233457817"><ele>236.0</ele><time>2026-04-03T16:51:28Z</time></trkpt><trkpt lat="45.66922270381072" lon="9.389170331760042"><ele>237.0</ele><time>2026-04-03T16:51:29Z</time></trkpt><trkpt lat="45.669363045059725" lon="9.389279765256333"><ele>238.0</ele><time>2026-04-03T16:51:30Z</time></trkpt><trkpt lat="45.66950475415678" lon="9.389379700114453"><ele>238.33333333333331</ele><time>2026-04-03T16:51:31Z</time></trkpt><trkpt lat="45.66965112838104" lon="9.389476171140418"><ele>238.66666666666669</ele><time>2026-04-03T16:51:32Z</time></trkpt><trkpt lat="45.6697944876403" lon="9.389571780615944"><ele>239.0</ele><time>2026-04-03T16:51:33Z</time></trkpt><trkpt lat="45.66993227829352" lon="9.389660464906063"><ele>239.25</ele><time>2026-04-03T16:51:34Z</time></trkpt><trkpt lat="45.67006751409026" lon="9.38974802610636"><ele>239.5</ele><time>2026-04-03T16:51:35Z</time></trkpt><trkpt lat="45.67020017693494" lon="9.389832965734145"><ele>239.75</ele><time>2026-04-03T16:51:36Z</time></trkpt><trkpt lat="45.67032570872689" lon="9.389914122747104"><ele>240.0</ele><time>2026-04-03T16:51:37Z</time></trkpt><trkpt lat="45.67044773846261" lon="9.38999575320006"><ele>240.0</ele><time>2026-04-03T16:51:38Z</time></trkpt><trkpt lat="45.670560523337464" lon="9.39007059355742"><ele>240.0</ele><time>2026-04-03T16:51:39Z</time></trkpt><trkpt lat="45.67067274337944" lon="9.390150844175563"><ele>240.0</ele><time>2026-04-03T16:51:40Z</time></trkpt><trkpt lat="45.67078831509467" lon="9.390234602829752"><ele>240.0</ele><time>2026-04-03T16:51:41Z</time></trkpt><trkpt lat="45.67090641617586" lon="9.390313850414907"><ele>240.0</ele><time>2026-04-03T16:51:42Z</time></trkpt><trkpt lat="45.67102560209194" lon="9.390391256895146"><ele>240.0</ele><time>2026-04-03T16:51:43Z</time></trkpt><trkpt lat="45.671136559243074" lon="9.39046961338526"><ele>240.0</ele><time>2026-04-03T16:51:44Z</time></trkpt><trkpt lat="45.67124055809627" lon="9.390544810778533"><ele>240.0</ele><time>2026-04-03T16:51:45Z</time></trkpt><trkpt lat="45.671338009802156" lon="9.390627171693971"><ele>240.2</ele><time>2026-04-03T16:51:46Z</time></trkpt><trkpt lat="45.67143318433262" lon="9.390711872969707"><ele>240.4</ele><time>2026-04-03T16:51:47Z</time></trkpt><trkpt lat="45.671523625741585" lon="9.390803502266905"><ele>240.60000000000002</ele><time>2026-04-03T16:51:47.999Z</time></trkpt><trkpt lat="45.67160743524481" lon="9.390900821145935"><ele>240.8</ele><time>2026-04-03T16:51:48.999Z</time></trkpt><trkpt lat="45.671689533945255" lon="9.390999994341517"><ele>241.0</ele><time>2026-04-03T16:51:49.999Z</time></trkpt><trkpt lat="45.67177232297287" lon="9.391095071153435"><ele>241.0</ele><time>2026-04-03T16:51:50.999Z</time></trkpt><trkpt lat="45.671857665495345" lon="9.391194582093233"><ele>241.0</ele><time>2026-04-03T16:51:51.999Z</time></trkpt><trkpt lat="45.671947410309464" lon="9.391295337695135"><ele>241.0</ele><time>2026-04-03T16:51:52.999Z</time></trkpt><trkpt lat="45.67204354219127" lon="9.391403934696188"><ele>241.0</ele><time>2026-04-03T16:51:53.999Z</time></trkpt><trkpt lat="45.67214294335017" lon="9.391526937195934"><ele>241.0</ele><time>2026-04-03T16:51:54.999Z</time></trkpt><trkpt lat="45.672249787736625" lon="9.391658287864393"><ele>241.0</ele><time>2026-04-03T16:51:55.999Z</time></trkpt><trkpt lat="45.67235809056065" lon="9.391793693557345"><ele>241.0</ele><time>2026-04-03T16:51:56.999Z</time></trkpt><trkpt lat="45.6724708592646" lon="9.391936475174772"><ele>241.0</ele><time>2026-04-03T16:51:57.999Z</time></trkpt><trkpt lat="45.67259011668076" lon="9.392085919052388"><ele>241.66666666666666</ele><time>2026-04-03T16:51:58.999Z</time></trkpt><trkpt lat="45.672712366595285" lon="9.392240675126502"><ele>242.33333333333331</ele><time>2026-04-03T16:51:59.999Z</time></trkpt><trkpt lat="45.67283382484601" lon="9.392396491039882"><ele>243.0</ele><time>2026-04-03T16:52:00.999Z</time></trkpt><trkpt lat="45.672953041146755" lon="9.39255705542585"><ele>243.33333333333331</ele><time>2026-04-03T16:52:01.999Z</time></trkpt><trkpt lat="45.673065646523426" lon="9.392721052971115"><ele>243.66666666666666</ele><time>2026-04-03T16:52:02.999Z</time></trkpt><trkpt lat="45.6731805113757" lon="9.392892765608156"><ele>244.0</ele><time>2026-04-03T16:52:03.999Z</time></trkpt><trkpt lat="45.673292417956645" lon="9.393063358582511"><ele>244.33333333333331</ele><time>2026-04-03T16:52:04.999Z</time></trkpt><trkpt lat="45.67340554741106" lon="9.393240072893917"><ele>244.66666666666669</ele><time>2026-04-03T16:52:05.999Z</time></trkpt><trkpt lat="45.67351783616886" lon="9.393413677877378"><ele>245.0</ele><time>2026-04-03T16:52:06.999Z</time></trkpt><trkpt lat="45.67363177837075" lon="9.393587084530347"><ele>245.0</ele><time>2026-04-03T16:52:07.999Z</time></trkpt><trkpt lat="45.67374642652372" lon="9.393757870856117"><ele>245.0</ele><time>2026-04-03T16:52:08.999Z</time></trkpt><trkpt lat="45.673864528201385" lon="9.393921823673699"><ele>245.0</ele><time>2026-04-03T16:52:09.999Z</time></trkpt><trkpt lat="45.67398521937433" lon="9.394081912433544"><ele>245.0</ele><time>2026-04-03T16:52:10.999Z</time></trkpt><trkpt lat="45.674107795927924" lon="9.394233280491775"><ele>245.0</ele><time>2026-04-03T16:52:11.999Z</time></trkpt><trkpt lat="45.67423468701957" lon="9.394382334983058"><ele>245.0</ele><time>2026-04-03T16:52:12.999Z</time></trkpt><trkpt lat="45.67436085364671" lon="9.394521952369628"><ele>244.66666666666669</ele><time>2026-04-03T16:52:13.999Z</time></trkpt><trkpt lat="45.674487773023614" lon="9.39465242835249"><ele>244.33333333333331</ele><time>2026-04-03T16:52:14.999Z</time></trkpt><trkpt lat="45.674615111564776" lon="9.39477469284926"><ele>244.0</ele><time>2026-04-03T16:52:15.999Z</time></trkpt><trkpt lat="45.67474253262355" lon="9.394891515654033"><ele>244.0</ele><time>2026-04-03T16:52:16.999Z</time></trkpt><trkpt lat="45.67486862476229" lon="9.395001603046083"><ele>244.0</ele><time>2026-04-03T16:52:17.999Z</time></trkpt><trkpt lat="45.67499563006011" lon="9.395108205888254"><ele>244.0</ele><time>2026-04-03T16:52:18.999Z</time></trkpt><trkpt lat="45.675125619588506" lon="9.395210800600866"><ele>244.0</ele><time>2026-04-03T16:52:19.999Z</time></trkpt><trkpt lat="45.67525531218746" lon="9.395304675820922"><ele>244.75</ele><time>2026-04-03T16:52:20.999Z</time></trkpt><trkpt lat="45.67539057951352" lon="9.39539543127849"><ele>245.5</ele><time>2026-04-03T16:52:21.999Z</time></trkpt><trkpt lat="45.67552683060161" lon="9.39548168790995"><ele>246.25</ele><time>2026-04-03T16:52:22.999Z</time></trkpt><trkpt lat="45.67566406477176" lon="9.395560873066117"><ele>247.0</ele><time>2026-04-03T16:52:23.999Z</time></trkpt><trkpt lat="45.67580307514024" lon="9.39563504083871"><ele>247.0</ele><time>2026-04-03T16:52:24.999Z</time></trkpt><trkpt lat="45.67594295451321" lon="9.39570090233263"><ele>247.0</ele><time>2026-04-03T16:52:25.999Z</time></trkpt><trkpt lat="45.67608143617864" lon="9.395758054454575"><ele>247.0</ele><time>2026-04-03T16:52:26.999Z</time></trkpt><trkpt lat="45.676222008879996" lon="9.395812204705761"><ele>247.0</ele><time>2026-04-03T16:52:27.999Z</time></trkpt><trkpt lat="45.67636077452805" lon="9.395864984201136"><ele>247.5</ele><time>2026-04-03T16:52:28.999Z</time></trkpt><trkpt lat="45.67649607333761" lon="9.39591240000621"><ele>248.0</ele><time>2026-04-03T16:52:29.999Z</time></trkpt><trkpt lat="45.67662794233503" lon="9.395956784881294"><ele>248.5</ele><time>2026-04-03T16:52:30.999Z</time></trkpt><trkpt lat="45.67675255782349" lon="9.396003567343492"><ele>249.0</ele><time>2026-04-03T16:52:31.999Z</time></trkpt><trkpt lat="45.6768727622953" lon="9.396050145613165"><ele>249.0</ele><time>2026-04-03T16:52:32.999Z</time></trkpt><trkpt lat="45.67699182839049" lon="9.396094206672922"><ele>249.0</ele><time>2026-04-03T16:52:33.999Z</time></trkpt><trkpt lat="45.67711343276079" lon="9.396137685785837"><ele>249.0</ele><time>2026-04-03T16:52:34.999Z</time></trkpt><trkpt lat="45.677232675353096" lon="9.396181562703722"><ele>249.0</ele><time>2026-04-03T16:52:35.999Z</time></trkpt><trkpt lat="45.67734878794216" lon="9.39622453965857"><ele>249.0</ele><time>2026-04-03T16:52:36.999Z</time></trkpt><trkpt lat="45.67746241084907" lon="9.396257941744635"><ele>249.0</ele><time>2026-04-03T16:52:37.999Z</time></trkpt><trkpt lat="45.677585839113654" lon="9.396283911086849"><ele>249.0</ele><time>2026-04-03T16:52:38.999Z</time></trkpt><trkpt lat="45.677710327799936" lon="9.396326769119659"><ele>249.0</ele><time>2026-04-03T16:52:39.999Z</time></trkpt><trkpt lat="45.67783762238275" lon="9.39637640688627"><ele>249.0</ele><time>2026-04-03T16:52:40.999Z</time></trkpt><trkpt lat="45.67795177546335" lon="9.396419610154197"><ele>248.99999999999997</ele><time>2026-04-03T16:52:41.999Z</time></trkpt><trkpt lat="45.678047009429655" lon="9.39645718217175"><ele>248.99999999999997</ele><time>2026-04-03T16:52:42.999Z</time></trkpt><trkpt lat="45.67812514063015" lon="9.396489745226997"><ele>249.0</ele><time>2026-04-03T16:52:43.999Z</time></trkpt><trkpt lat="45.678187321299184" lon="9.396518240622898"><ele>249.0</ele><time>2026-04-03T16:52:44.999Z</time></trkpt><trkpt lat="45.67831239541204" lon="9.396555904829311"><ele>249.0</ele><time>2026-04-03T16:52:46.999Z</time></trkpt><trkpt lat="45.67839235866415" lon="9.396586766527223"><ele>249.0</ele><time>2026-04-03T16:52:47.999Z</time></trkpt><trkpt lat="45.6784770802511" lon="9.396622998088816"><ele>249.0</ele><time>2026-04-03T16:52:48.999Z</time></trkpt><trkpt lat="45.6785619318183" lon="9.396661657470991"><ele>249.0</ele><time>2026-04-03T16:52:49.999Z</time></trkpt><trkpt lat="45.67865053487465" lon="9.39668342138032"><ele>249.0</ele><time>2026-04-03T16:52:50.999Z</time></trkpt><trkpt lat="45.67874520498436" lon="9.396713794665834"><ele>249.0</ele><time>2026-04-03T16:52:51.999Z</time></trkpt><trkpt lat="45.67884085466681" lon="9.396756032608826"><ele>249.2</ele><time>2026-04-03T16:52:52.999Z</time></trkpt><trkpt lat="45.67893959398009" lon="9.396789370899315"><ele>249.39999999999998</ele><time>2026-04-03T16:52:53.999Z</time></trkpt><trkpt lat="45.67903117626851" lon="9.396824356333656"><ele>249.6</ele><time>2026-04-03T16:52:54.999Z</time></trkpt><trkpt lat="45.679109172275766" lon="9.396864235253966"><ele>249.8</ele><time>2026-04-03T16:52:55.999Z</time></trkpt><trkpt lat="45.6791885227073" lon="9.39691210284237"><ele>250.0</ele><time>2026-04-03T16:52:56.999Z</time></trkpt><trkpt lat="45.679265026545046" lon="9.396972363300158"><ele>250.0</ele><time>2026-04-03T16:52:57.999Z</time></trkpt><trkpt lat="45.67934217790895" lon="9.397046338993865"><ele>250.0</ele><time>2026-04-03T16:52:58.999Z</time></trkpt><trkpt lat="45.67942003687765" lon="9.397129602168931"><ele>250.0</ele><time>2026-04-03T16:52:59.999Z</time></trkpt><trkpt lat="45.679512786851944" lon="9.397182233480963"><ele>250.0</ele><time>2026-04-03T16:53:00.999Z</time></trkpt><trkpt lat="45.67962062665781" lon="9.397175053997454"><ele>250.0</ele><time>2026-04-03T16:53:01.999Z</time></trkpt><trkpt lat="45.67973590844244" lon="9.397139344685778"><ele>250.0</ele><time>2026-04-03T16:53:02.999Z</time></trkpt><trkpt lat="45.67986010715922" lon="9.397130796876976"><ele>250.0</ele><time>2026-04-03T16:53:04Z</time></trkpt><trkpt lat="45.67998227820444" lon="9.397160581833845"><ele>250.0</ele><time>2026-04-03T16:53:05Z</time></trkpt><trkpt lat="45.68010254895792" lon="9.3972127633003"><ele>250.0</ele><time>2026-04-03T16:53:06Z</time></trkpt><trkpt lat="45.68022486992268" lon="9.397267937886502"><ele>251.0</ele><time>2026-04-03T16:53:07Z</time></trkpt><trkpt lat="45.68035168431629" lon="9.39731459917592"><ele>252.0</ele><time>2026-04-03T16:53:08Z</time></trkpt><trkpt lat="45.68048072221548" lon="9.397355728562127"><ele>253.0</ele><time>2026-04-03T16:53:09Z</time></trkpt><trkpt lat="45.68061120461348" lon="9.397396317382412"><ele>254.0</ele><time>2026-04-03T16:53:10Z</time></trkpt><trkpt lat="45.6807425541299" lon="9.397441205476175"><ele>254.0</ele><time>2026-04-03T16:53:11Z</time></trkpt><trkpt lat="45.68087513457984" lon="9.397486793606344"><ele>254.0</ele><time>2026-04-03T16:53:12Z</time></trkpt><trkpt lat="45.68100649666174" lon="9.397537704782506"><ele>254.0</ele><time>2026-04-03T16:53:13Z</time></trkpt><trkpt lat="45.68113789417131" lon="9.397592102025426"><ele>254.0</ele><time>2026-04-03T16:53:14Z</time></trkpt><trkpt lat="45.68126942083212" lon="9.39764404888929"><ele>254.25</ele><time>2026-04-03T16:53:15Z</time></trkpt><trkpt lat="45.68140022892316" lon="9.397693772234348"><ele>254.5</ele><time>2026-04-03T16:53:16Z</time></trkpt><trkpt lat="45.68152965125761" lon="9.3977395898274"><ele>254.75</ele><time>2026-04-03T16:53:17Z</time></trkpt><trkpt lat="45.68165542142407" lon="9.39778468198712"><ele>255.0</ele><time>2026-04-03T16:53:18Z</time></trkpt><trkpt lat="45.681776189801056" lon="9.397829222343624"><ele>255.0</ele><time>2026-04-03T16:53:19Z</time></trkpt><trkpt lat="45.681888513467825" lon="9.397872594820543"><ele>255.0</ele><time>2026-04-03T16:53:20Z</time></trkpt><trkpt lat="45.68199671022829" lon="9.397915059865397"><ele>255.0</ele><time>2026-04-03T16:53:21Z</time></trkpt><trkpt lat="45.68210510438048" lon="9.397958296245859"><ele>255.0</ele><time>2026-04-03T16:53:22Z</time></trkpt><trkpt lat="45.682210243338716" lon="9.397994276222116"><ele>255.0</ele><time>2026-04-03T16:53:23Z</time></trkpt><trkpt lat="45.682307938333054" lon="9.398032803406995"><ele>255.14285714285717</ele><time>2026-04-03T16:53:24Z</time></trkpt><trkpt lat="45.68239369074898" lon="9.398073090017574"><ele>255.2857142857143</ele><time>2026-04-03T16:53:25Z</time></trkpt><trkpt lat="45.68246680711158" lon="9.398114746465621"><ele>255.42857142857144</ele><time>2026-04-03T16:53:26Z</time></trkpt><trkpt lat="45.68253019398984" lon="9.398160751286886"><ele>255.57142857142856</ele><time>2026-04-03T16:53:27Z</time></trkpt><trkpt lat="45.68258841251252" lon="9.398213668666417"><ele>255.7142857142857</ele><time>2026-04-03T16:53:28Z</time></trkpt><trkpt lat="45.68264142744192" lon="9.398277582116249"><ele>255.85714285714283</ele><time>2026-04-03T16:53:29Z</time></trkpt><trkpt lat="45.68269815480349" lon="9.398337595871647"><ele>256.0</ele><time>2026-04-03T16:53:30Z</time></trkpt><trkpt lat="45.68276459638999" lon="9.398374126543455"><ele>255.4</ele><time>2026-04-03T16:53:31Z</time></trkpt><trkpt lat="45.68284035273773" lon="9.398392293279594"><ele>254.8</ele><time>2026-04-03T16:53:32Z</time></trkpt><trkpt lat="45.682927229253764" lon="9.398394821106159"><ele>254.20000000000002</ele><time>2026-04-03T16:53:33Z</time></trkpt><trkpt lat="45.68302092288756" lon="9.398381811927493"><ele>253.60000000000002</ele><time>2026-04-03T16:53:34Z</time></trkpt><trkpt lat="45.68312877145736" lon="9.398367025477386"><ele>253.0</ele><time>2026-04-03T16:53:35Z</time></trkpt><trkpt lat="45.683232840947824" lon="9.39832534642646"><ele>253.0</ele><time>2026-04-03T16:53:36Z</time></trkpt><trkpt lat="45.68334420868775" lon="9.398408280749523"><ele>253.0</ele><time>2026-04-03T16:53:37Z</time></trkpt><trkpt lat="45.6834545393305" lon="9.398442577101857"><ele>253.0</ele><time>2026-04-03T16:53:38Z</time></trkpt><trkpt lat="45.683565944876975" lon="9.398484629920297"><ele>253.0</ele><time>2026-04-03T16:53:39Z</time></trkpt><trkpt lat="45.6836803085387" lon="9.398530279356082"><ele>253.0</ele><time>2026-04-03T16:53:40Z</time></trkpt><trkpt lat="45.68379997672816" lon="9.398576735788756"><ele>253.0</ele><time>2026-04-03T16:53:41Z</time></trkpt><trkpt lat="45.6839228398098" lon="9.398620003361634"><ele>253.0</ele><time>2026-04-03T16:53:42Z</time></trkpt><trkpt lat="45.68404956678677" lon="9.398664906203377"><ele>253.0</ele><time>2026-04-03T16:53:43Z</time></trkpt><trkpt lat="45.684178105715304" lon="9.398711272071097"><ele>253.0</ele><time>2026-04-03T16:53:44Z</time></trkpt><trkpt lat="45.68430693930539" lon="9.398758520659145"><ele>253.0</ele><time>2026-04-03T16:53:45Z</time></trkpt><trkpt lat="45.68443654024044" lon="9.398808189679036"><ele>253.0</ele><time>2026-04-03T16:53:46Z</time></trkpt><trkpt lat="45.68456772620449" lon="9.398859095962095"><ele>253.0</ele><time>2026-04-03T16:53:47Z</time></trkpt><trkpt lat="45.68469946500542" lon="9.398907554500187"><ele>253.75</ele><time>2026-04-03T16:53:48Z</time></trkpt><trkpt lat="45.684832412441764" lon="9.398954913956409"><ele>254.5</ele><time>2026-04-03T16:53:48.999Z</time></trkpt><trkpt lat="45.684965534431186" lon="9.399003468374678"><ele>255.25</ele><time>2026-04-03T16:53:49.999Z</time></trkpt><trkpt lat="45.6850956444151" lon="9.399052387824698"><ele>256.0</ele><time>2026-04-03T16:53:50.999Z</time></trkpt><trkpt lat="45.685227666725154" lon="9.399096589552787"><ele>255.25</ele><time>2026-04-03T16:53:51.999Z</time></trkpt><trkpt lat="45.68536026686365" lon="9.399143526404174"><ele>254.5</ele><time>2026-04-03T16:53:52.999Z</time></trkpt><trkpt lat="45.68549307605792" lon="9.399187886475659"><ele>253.75</ele><time>2026-04-03T16:53:53.999Z</time></trkpt><trkpt lat="45.685628955198226" lon="9.399234280057096"><ele>253.0</ele><time>2026-04-03T16:53:54.999Z</time></trkpt><trkpt lat="45.68576450307596" lon="9.399280265653301"><ele>253.0</ele><time>2026-04-03T16:53:55.999Z</time></trkpt><trkpt lat="45.685899632648976" lon="9.399328697486997"><ele>253.0</ele><time>2026-04-03T16:53:56.999Z</time></trkpt><trkpt lat="45.68603627093561" lon="9.399376135079077"><ele>253.0</ele><time>2026-04-03T16:53:57.999Z</time></trkpt><trkpt lat="45.686172058392565" lon="9.399423487636978"><ele>253.0</ele><time>2026-04-03T16:53:58.999Z</time></trkpt><trkpt lat="45.68630887595718" lon="9.399472452179825"><ele>254.0</ele><time>2026-04-03T16:53:59.999Z</time></trkpt><trkpt lat="45.686442665189126" lon="9.399525365598207"><ele>255.0</ele><time>2026-04-03T16:54:00.999Z</time></trkpt><trkpt lat="45.686578791777215" lon="9.399576670812102"><ele>256.0</ele><time>2026-04-03T16:54:01.999Z</time></trkpt><trkpt lat="45.68671493230571" lon="9.399624014791376"><ele>257.0</ele><time>2026-04-03T16:54:02.999Z</time></trkpt><trkpt lat="45.6868495256104" lon="9.399668602561029"><ele>257.25</ele><time>2026-04-03T16:54:03.999Z</time></trkpt><trkpt lat="45.686984153921344" lon="9.39971730029987"><ele>257.5</ele><time>2026-04-03T16:54:04.999Z</time></trkpt><trkpt lat="45.68711937095097" lon="9.399764714979467"><ele>257.75</ele><time>2026-04-03T16:54:05.999Z</time></trkpt><trkpt lat="45.68725214578483" lon="9.399811015231185"><ele>258.0</ele><time>2026-04-03T16:54:06.999Z</time></trkpt><trkpt lat="45.68738542678813" lon="9.399856910612165"><ele>258.0</ele><time>2026-04-03T16:54:07.999Z</time></trkpt><trkpt lat="45.687514970038066" lon="9.399903075218791"><ele>258.0</ele><time>2026-04-03T16:54:08.999Z</time></trkpt><trkpt lat="45.687641037849545" lon="9.399950526059717"><ele>258.0</ele><time>2026-04-03T16:54:09.999Z</time></trkpt><trkpt lat="45.68776094674497" lon="9.399997810140762"><ele>258.0</ele><time>2026-04-03T16:54:10.999Z</time></trkpt><trkpt lat="45.68787554918468" lon="9.400045302411144"><ele>258.8</ele><time>2026-04-03T16:54:11.999Z</time></trkpt><trkpt lat="45.68798504634582" lon="9.400092374032473"><ele>259.6</ele><time>2026-04-03T16:54:12.999Z</time></trkpt><trkpt lat="45.688085076640746" lon="9.400134291245598"><ele>260.4</ele><time>2026-04-03T16:54:13.999Z</time></trkpt><trkpt lat="45.68817568444149" lon="9.40017348050929"><ele>261.2</ele><time>2026-04-03T16:54:14.999Z</time></trkpt><trkpt lat="45.68825139259145" lon="9.400212177544873"><ele>262.0</ele><time>2026-04-03T16:54:15.999Z</time></trkpt><trkpt lat="45.6883132680658" lon="9.40026594730623"><ele>262.0</ele><time>2026-04-03T16:54:16.999Z</time></trkpt><trkpt lat="45.688362079992885" lon="9.400332064415824"><ele>262.0</ele><time>2026-04-03T16:54:17.999Z</time></trkpt><trkpt lat="45.68840558946535" lon="9.400407465474283"><ele>262.0</ele><time>2026-04-03T16:54:18.999Z</time></trkpt><trkpt lat="45.68845241988857" lon="9.400481502861505"><ele>262.0</ele><time>2026-04-03T16:54:19.999Z</time></trkpt><trkpt lat="45.68851511418392" lon="9.40053630336976"><ele>262.0</ele><time>2026-04-03T16:54:20.999Z</time></trkpt><trkpt lat="45.688590641795784" lon="9.400563411260624"><ele>262.0</ele><time>2026-04-03T16:54:21.999Z</time></trkpt><trkpt lat="45.68867507108204" lon="9.400556746350684"><ele>262.0</ele><time>2026-04-03T16:54:22.999Z</time></trkpt><trkpt lat="45.688765822978525" lon="9.400532610989957"><ele>261.5</ele><time>2026-04-03T16:54:23.999Z</time></trkpt><trkpt lat="45.688867566286895" lon="9.400517026225737"><ele>261.0</ele><time>2026-04-03T16:54:24.999Z</time></trkpt><trkpt lat="45.68898184594826" lon="9.400522571258218"><ele>260.5</ele><time>2026-04-03T16:54:25.999Z</time></trkpt><trkpt lat="45.68910124850461" lon="9.40054662827167"><ele>260.0</ele><time>2026-04-03T16:54:26.999Z</time></trkpt><trkpt lat="45.68922333544016" lon="9.400578811649503"><ele>260.0</ele><time>2026-04-03T16:54:27.999Z</time></trkpt><trkpt lat="45.689342413080205" lon="9.400611251931819"><ele>260.0</ele><time>2026-04-03T16:54:28.999Z</time></trkpt><trkpt lat="45.68946554406472" lon="9.400646136457745"><ele>260.0</ele><time>2026-04-03T16:54:29.999Z</time></trkpt><trkpt lat="45.6895909614221" lon="9.400684684356122"><ele>260.0</ele><time>2026-04-03T16:54:30.999Z</time></trkpt><trkpt lat="45.689719412346896" lon="9.40072976501527"><ele>260.5</ele><time>2026-04-03T16:54:31.999Z</time></trkpt><trkpt lat="45.68984789896109" lon="9.400779925598952"><ele>261.0</ele><time>2026-04-03T16:54:32.999Z</time></trkpt><trkpt lat="45.68997849816915" lon="9.400833514658336"><ele>261.5</ele><time>2026-04-03T16:54:33.999Z</time></trkpt><trkpt lat="45.69010907707901" lon="9.40089139325447"><ele>262.0</ele><time>2026-04-03T16:54:34.999Z</time></trkpt><trkpt lat="45.69023839452499" lon="9.400952302972737"><ele>262.75</ele><time>2026-04-03T16:54:35.999Z</time></trkpt><trkpt lat="45.6903664359729" lon="9.40101539191289"><ele>263.5</ele><time>2026-04-03T16:54:36.999Z</time></trkpt><trkpt lat="45.69049198412844" lon="9.401079303927956"><ele>264.25</ele><time>2026-04-03T16:54:37.999Z</time></trkpt><trkpt lat="45.69061700943426" lon="9.401140255589901"><ele>265.0</ele><time>2026-04-03T16:54:38.999Z</time></trkpt><trkpt lat="45.69073980392771" lon="9.401199667788571"><ele>265.0</ele><time>2026-04-03T16:54:39.999Z</time></trkpt><trkpt lat="45.69085835408488" lon="9.401257474082303"><ele>265.0</ele><time>2026-04-03T16:54:40.999Z</time></trkpt><trkpt lat="45.69097248013162" lon="9.401319222089082"><ele>265.0</ele><time>2026-04-03T16:54:41.999Z</time></trkpt><trkpt lat="45.69108209898102" lon="9.401382113588493"><ele>265.0</ele><time>2026-04-03T16:54:42.999Z</time></trkpt><trkpt lat="45.69119039135412" lon="9.401442599625577"><ele>265.6</ele><time>2026-04-03T16:54:43.999Z</time></trkpt><trkpt lat="45.691297462734184" lon="9.401497397491944"><ele>266.2</ele><time>2026-04-03T16:54:44.999Z</time></trkpt><trkpt lat="45.691401341036126" lon="9.401550469944072"><ele>266.8</ele><time>2026-04-03T16:54:45.999Z</time></trkpt><trkpt lat="45.691502692488854" lon="9.401602175808936"><ele>267.4</ele><time>2026-04-03T16:54:46.999Z</time></trkpt><trkpt lat="45.691601269586684" lon="9.401652580363073"><ele>268.0</ele><time>2026-04-03T16:54:47.999Z</time></trkpt><trkpt lat="45.69169299633503" lon="9.401698707576632"><ele>268.0</ele><time>2026-04-03T16:54:48.999Z</time></trkpt><trkpt lat="45.69177745788489" lon="9.401739772978019"><ele>268.0</ele><time>2026-04-03T16:54:49.999Z</time></trkpt><trkpt lat="45.69184918978955" lon="9.401775545787899"><ele>268.0</ele><time>2026-04-03T16:54:50.999Z</time></trkpt><trkpt lat="45.6919127164934" lon="9.401807556861703"><ele>268.0</ele><time>2026-04-03T16:54:51.999Z</time></trkpt><trkpt lat="45.692019522988254" lon="9.40186308126001"><ele>268.0</ele><time>2026-04-03T16:54:53.999Z</time></trkpt><trkpt lat="45.692108406105895" lon="9.401909796191546"><ele>268.0</ele><time>2026-04-03T16:54:55.999Z</time></trkpt><trkpt lat="45.692189243307155" lon="9.401953980771474"><ele>268.14285714285717</ele><time>2026-04-03T16:54:57.999Z</time></trkpt><trkpt lat="45.69225908310741" lon="9.401990657003864"><ele>268.2857142857143</ele><time>2026-04-03T16:54:59.999Z</time></trkpt><trkpt lat="45.692318725615266" lon="9.402022366546964"><ele>268.42857142857144</ele><time>2026-04-03T16:55:01.999Z</time></trkpt><trkpt lat="45.692388636191964" lon="9.402056557645292"><ele>268.57142857142856</ele><time>2026-04-03T16:55:04.999Z</time></trkpt><trkpt lat="45.69246655051834" lon="9.402096692450455"><ele>268.7142857142857</ele><time>2026-04-03T16:55:44.999Z</time></trkpt><trkpt lat="45.69253395160443" lon="9.402135207875704"><ele>268.8571428571429</ele><time>2026-04-03T16:55:45.999Z</time></trkpt><trkpt lat="45.692609331011816" lon="9.402176008764101"><ele>269.0</ele><time>2026-04-03T16:55:46.999Z</time></trkpt><trkpt lat="45.69269719381172" lon="9.402222177225342"><ele>269.0</ele><time>2026-04-03T16:55:47.999Z</time></trkpt><trkpt lat="45.69279483680219" lon="9.402264332151413"><ele>269.0</ele><time>2026-04-03T16:55:48.999Z</time></trkpt><trkpt lat="45.69289580056459" lon="9.402294669794951"><ele>269.0</ele><time>2026-04-03T16:55:49.999Z</time></trkpt><trkpt lat="45.69299538494926" lon="9.402314635789248"><ele>269.0</ele><time>2026-04-03T16:55:50.999Z</time></trkpt><trkpt lat="45.6930901131954" lon="9.40232567235646"><ele>269.0</ele><time>2026-04-03T16:55:51.999Z</time></trkpt><trkpt lat="45.69318194401889" lon="9.402332232429385"><ele>269.0</ele><time>2026-04-03T16:55:52.999Z</time></trkpt><trkpt lat="45.69326864859579" lon="9.40233384205538"><ele>269.0</ele><time>2026-04-03T16:55:53.999Z</time></trkpt><trkpt lat="45.69334793321256" lon="9.402337028691116"><ele>269.0</ele><time>2026-04-03T16:55:54.999Z</time></trkpt><trkpt lat="45.69342229434691" lon="9.40234006543844"><ele>269.0</ele><time>2026-04-03T16:55:55.999Z</time></trkpt><trkpt lat="45.69349086744494" lon="9.40234550404416"><ele>269.0</ele><time>2026-04-03T16:55:56.999Z</time></trkpt><trkpt lat="45.69360484570116" lon="9.402352392328272"><ele>269.0</ele><time>2026-04-03T16:55:58.999Z</time></trkpt><trkpt lat="45.693675498310064" lon="9.402356948396896"><ele>269.2</ele><time>2026-04-03T16:56:00.999Z</time></trkpt><trkpt lat="45.69378376811453" lon="9.402357370586301"><ele>269.4</ele><time>2026-04-03T16:56:02.999Z</time></trkpt><trkpt lat="45.69387183590721" lon="9.402364527585108"><ele>269.6</ele><time>2026-04-03T16:56:03.999Z</time></trkpt><trkpt lat="45.69397972743707" lon="9.402368555962536"><ele>269.8</ele><time>2026-04-03T16:56:04.999Z</time></trkpt><trkpt lat="45.69407869271747" lon="9.40239744716115"><ele>270.0</ele><time>2026-04-03T16:56:05.999Z</time></trkpt><trkpt lat="45.69418514008495" lon="9.402471912819014"><ele>270.0</ele><time>2026-04-03T16:56:06.999Z</time></trkpt><trkpt lat="45.69430034678115" lon="9.402539268492722"><ele>270.0</ele><time>2026-04-03T16:56:07.999Z</time></trkpt><trkpt lat="45.694414435556766" lon="9.402624986375136"><ele>270.0</ele><time>2026-04-03T16:56:08.999Z</time></trkpt><trkpt lat="45.694527654810884" lon="9.402724098742812"><ele>270.0</ele><time>2026-04-03T16:56:09.999Z</time></trkpt><trkpt lat="45.69464576190984" lon="9.402834069978256"><ele>271.0</ele><time>2026-04-03T16:56:10.999Z</time></trkpt><trkpt lat="45.69476404489961" lon="9.402952806782732"><ele>272.0</ele><time>2026-04-03T16:56:11.999Z</time></trkpt><trkpt lat="45.69488651076979" lon="9.403080300979262"><ele>273.0</ele><time>2026-04-03T16:56:12.999Z</time></trkpt><trkpt lat="45.6950132449274" lon="9.4032047657649"><ele>273.0</ele><time>2026-04-03T16:56:13.999Z</time></trkpt><trkpt lat="45.695140919863306" lon="9.403330145511957"><ele>273.0</ele><time>2026-04-03T16:56:14.999Z</time></trkpt><trkpt lat="45.695267506149285" lon="9.403458908309167"><ele>273.0</ele><time>2026-04-03T16:56:15.999Z</time></trkpt><trkpt lat="45.69539508983865" lon="9.403588484585818"><ele>273.3333333333333</ele><time>2026-04-03T16:56:16.999Z</time></trkpt><trkpt lat="45.69552341510941" lon="9.403715036299275"><ele>273.66666666666663</ele><time>2026-04-03T16:56:17.999Z</time></trkpt><trkpt lat="45.695650539986566" lon="9.40384302441586"><ele>274.0</ele><time>2026-04-03T16:56:18.999Z</time></trkpt><trkpt lat="45.69577833765538" lon="9.403971716119614"><ele>274.0</ele><time>2026-04-03T16:56:19.999Z</time></trkpt><trkpt lat="45.695904376026235" lon="9.404100533901534"><ele>274.0</ele><time>2026-04-03T16:56:20.999Z</time></trkpt><trkpt lat="45.69602999458703" lon="9.404229859748943"><ele>274.0</ele><time>2026-04-03T16:56:21.999Z</time></trkpt><trkpt lat="45.69615250159375" lon="9.40435800858747"><ele>274.5</ele><time>2026-04-03T16:56:22.999Z</time></trkpt><trkpt lat="45.69627570531642" lon="9.404480666810676"><ele>275.0</ele><time>2026-04-03T16:56:23.999Z</time></trkpt><trkpt lat="45.69639660715927" lon="9.404601098734167"><ele>275.5</ele><time>2026-04-03T16:56:24.999Z</time></trkpt><trkpt lat="45.69651485958485" lon="9.404716528032216"><ele>276.0</ele><time>2026-04-03T16:56:25.999Z</time></trkpt><trkpt lat="45.69663302979636" lon="9.404836885210715"><ele>276.0</ele><time>2026-04-03T16:56:26.999Z</time></trkpt><trkpt lat="45.69674844839282" lon="9.404954339123691"><ele>276.0</ele><time>2026-04-03T16:56:27.999Z</time></trkpt><trkpt lat="45.69686320929934" lon="9.405070973329241"><ele>276.0</ele><time>2026-04-03T16:56:28.999Z</time></trkpt><trkpt lat="45.696974637734556" lon="9.405182443355876"><ele>276.0</ele><time>2026-04-03T16:56:29.999Z</time></trkpt><trkpt lat="45.69708229722928" lon="9.405289998526152"><ele>276.0</ele><time>2026-04-03T16:56:30.999Z</time></trkpt><trkpt lat="45.697190084924046" lon="9.405395479141605"><ele>276.0</ele><time>2026-04-03T16:56:31.999Z</time></trkpt><trkpt lat="45.69729904185364" lon="9.40550030340263"><ele>276.0</ele><time>2026-04-03T16:56:32.999Z</time></trkpt><trkpt lat="45.697408338841484" lon="9.405607474198229"><ele>276.0</ele><time>2026-04-03T16:56:33.999Z</time></trkpt><trkpt lat="45.697516578308075" lon="9.405712277407028"><ele>276.25</ele><time>2026-04-03T16:56:34.999Z</time></trkpt><trkpt lat="45.69762602783329" lon="9.405817731307787"><ele>276.5</ele><time>2026-04-03T16:56:35.999Z</time></trkpt><trkpt lat="45.69773222643803" lon="9.40592336392218"><ele>276.75</ele><time>2026-04-03T16:56:36.999Z</time></trkpt><trkpt lat="45.69783646342211" lon="9.406027961968109"><ele>277.0</ele><time>2026-04-03T16:56:37.999Z</time></trkpt><trkpt lat="45.69793652848444" lon="9.406131961678591"><ele>277.25</ele><time>2026-04-03T16:56:38.999Z</time></trkpt><trkpt lat="45.69803218773908" lon="9.406241247317011"><ele>277.5</ele><time>2026-04-03T16:56:39.999Z</time></trkpt><trkpt lat="45.69812098265473" lon="9.406364074086653"><ele>277.75</ele><time>2026-04-03T16:56:40.999Z</time></trkpt><trkpt lat="45.69820152257911" lon="9.406494008197537"><ele>278.0</ele><time>2026-04-03T16:56:41.999Z</time></trkpt><trkpt lat="45.69827832565276" lon="9.40662199151969"><ele>278.5</ele><time>2026-04-03T16:56:42.999Z</time></trkpt><trkpt lat="45.69836178630418" lon="9.406735462538952"><ele>279.0</ele><time>2026-04-03T16:56:43.999Z</time></trkpt><trkpt lat="45.698458971066586" lon="9.406831999908432"><ele>279.5</ele><time>2026-04-03T16:56:44.999Z</time></trkpt><trkpt lat="45.6985720919351" lon="9.406914780960248"><ele>280.0</ele><time>2026-04-03T16:56:45.999Z</time></trkpt><trkpt lat="45.69869206866056" lon="9.407001016902022"><ele>280.25</ele><time>2026-04-03T16:56:46.999Z</time></trkpt><trkpt lat="45.698808587376675" lon="9.407100324299705"><ele>280.5</ele><time>2026-04-03T16:56:47.999Z</time></trkpt><trkpt lat="45.69891940201516" lon="9.407217205111019"><ele>280.75</ele><time>2026-04-03T16:56:48.999Z</time></trkpt><trkpt lat="45.699019022366286" lon="9.407342455939384"><ele>281.0</ele><time>2026-04-03T16:56:49.999Z</time></trkpt><trkpt lat="45.6991120010891" lon="9.407462498089682"><ele>281.75</ele><time>2026-04-03T16:56:50.999Z</time></trkpt><trkpt lat="45.69919461916918" lon="9.407578248473293"><ele>282.5</ele><time>2026-04-03T16:56:51.999Z</time></trkpt><trkpt lat="45.699276982262035" lon="9.407696615920583"><ele>283.25</ele><time>2026-04-03T16:56:52.999Z</time></trkpt><trkpt lat="45.699362874641224" lon="9.407810198881142"><ele>284.0</ele><time>2026-04-03T16:56:53.999Z</time></trkpt><trkpt lat="45.69944412003287" lon="9.407924010874115"><ele>284.75</ele><time>2026-04-03T16:56:54.999Z</time></trkpt><trkpt lat="45.69953118424647" lon="9.408037783373723"><ele>285.5</ele><time>2026-04-03T16:56:55.999Z</time></trkpt><trkpt lat="45.69962526257219" lon="9.408155854944967"><ele>286.25</ele><time>2026-04-03T16:56:56.999Z</time></trkpt><trkpt lat="45.699710894649954" lon="9.408285440669927"><ele>287.0</ele><time>2026-04-03T16:56:57.999Z</time></trkpt><trkpt lat="45.699804667272964" lon="9.408415545015348"><ele>287.0</ele><time>2026-04-03T16:56:58.999Z</time></trkpt><trkpt lat="45.699899362287496" lon="9.40854453688809"><ele>287.0</ele><time>2026-04-03T16:56:59.999Z</time></trkpt><trkpt lat="45.69999587487907" lon="9.408672526896737"><ele>287.0</ele><time>2026-04-03T16:57:00.999Z</time></trkpt><trkpt lat="45.700094957853544" lon="9.408801120738538"><ele>287.0</ele><time>2026-04-03T16:57:01.999Z</time></trkpt><trkpt lat="45.70019741098755" lon="9.408928042645286"><ele>286.5</ele><time>2026-04-03T16:57:02.999Z</time></trkpt><trkpt lat="45.700303009823116" lon="9.409052409239223"><ele>286.0</ele><time>2026-04-03T16:57:03.999Z</time></trkpt><trkpt lat="45.70041022990439" lon="9.409179430623121"><ele>285.5</ele><time>2026-04-03T16:57:04.999Z</time></trkpt><trkpt lat="45.70051798899847" lon="9.409306968723444"><ele>285.0</ele><time>2026-04-03T16:57:05.999Z</time></trkpt><trkpt lat="45.70062563791887" lon="9.409437978322446"><ele>285.0</ele><time>2026-04-03T16:57:06.999Z</time></trkpt><trkpt lat="45.70073503559322" lon="9.409573898646979"><ele>285.0</ele><time>2026-04-03T16:57:07.999Z</time></trkpt><trkpt lat="45.70084819208428" lon="9.409706694721228"><ele>285.0</ele><time>2026-04-03T16:57:08.999Z</time></trkpt><trkpt lat="45.700963261954975" lon="9.409841723486078"><ele>285.0</ele><time>2026-04-03T16:57:09.999Z</time></trkpt><trkpt lat="45.70107955639735" lon="9.40997753889246"><ele>284.5</ele><time>2026-04-03T16:57:10.999Z</time></trkpt><trkpt lat="45.70119466590831" lon="9.410111992425655"><ele>284.0</ele><time>2026-04-03T16:57:11.999Z</time></trkpt><trkpt lat="45.70130790799536" lon="9.410248889081732"><ele>283.5</ele><time>2026-04-03T16:57:12.999Z</time></trkpt><trkpt lat="45.70141923987235" lon="9.410385416318755"><ele>283.0</ele><time>2026-04-03T16:57:13.999Z</time></trkpt><trkpt lat="45.70153028328708" lon="9.410520187317257"><ele>284.25</ele><time>2026-04-03T16:57:14.999Z</time></trkpt><trkpt lat="45.7016467776285" lon="9.410646877166801"><ele>285.5</ele><time>2026-04-03T16:57:16Z</time></trkpt><trkpt lat="45.701768584247326" lon="9.410756881093834"><ele>286.75</ele><time>2026-04-03T16:57:17Z</time></trkpt><trkpt lat="45.70189767803066" lon="9.410851061015439"><ele>288.0</ele><time>2026-04-03T16:57:18Z</time></trkpt><trkpt lat="45.70202901075149" lon="9.410928989741748"><ele>288.0</ele><time>2026-04-03T16:57:19Z</time></trkpt><trkpt lat="45.70216639645057" lon="9.411003405737494"><ele>288.0</ele><time>2026-04-03T16:57:20Z</time></trkpt><trkpt lat="45.70230474391083" lon="9.41107429706018"><ele>288.0</ele><time>2026-04-03T16:57:21Z</time></trkpt><trkpt lat="45.702447061850386" lon="9.411139821682138"><ele>288.0</ele><time>2026-04-03T16:57:22Z</time></trkpt><trkpt lat="45.70258977704545" lon="9.41120302760631"><ele>288.0</ele><time>2026-04-03T16:57:23Z</time></trkpt><trkpt lat="45.702731905572186" lon="9.411263854224073"><ele>288.0</ele><time>2026-04-03T16:57:24Z</time></trkpt><trkpt lat="45.702875901459905" lon="9.411325510216482"><ele>288.0</ele><time>2026-04-03T16:57:25Z</time></trkpt><trkpt lat="45.703021554909476" lon="9.411390852015373"><ele>288.6666666666667</ele><time>2026-04-03T16:57:26Z</time></trkpt><trkpt lat="45.703167355367064" lon="9.411456338348197"><ele>289.33333333333337</ele><time>2026-04-03T16:57:27Z</time></trkpt><trkpt lat="45.70331251567955" lon="9.411511103638098"><ele>290.0</ele><time>2026-04-03T16:57:28Z</time></trkpt><trkpt lat="45.703465376436746" lon="9.411553302053662"><ele>289.0</ele><time>2026-04-03T16:57:29Z</time></trkpt><trkpt lat="45.703616703950395" lon="9.411580657307876"><ele>288.0</ele><time>2026-04-03T16:57:30Z</time></trkpt><trkpt lat="45.7037705098506" lon="9.411594477365073"><ele>287.0</ele><time>2026-04-03T16:57:31Z</time></trkpt><trkpt lat="45.70392847010843" lon="9.411590571901675"><ele>287.0</ele><time>2026-04-03T16:57:32Z</time></trkpt><trkpt lat="45.70408372054565" lon="9.41157012482515"><ele>287.0</ele><time>2026-04-03T16:57:33Z</time></trkpt><trkpt lat="45.70423621109149" lon="9.41153442554866"><ele>287.0</ele><time>2026-04-03T16:57:34Z</time></trkpt><trkpt lat="45.70438668931736" lon="9.41148315563327"><ele>288.0</ele><time>2026-04-03T16:57:35Z</time></trkpt><trkpt lat="45.70453454414679" lon="9.411419788294923"><ele>289.0</ele><time>2026-04-03T16:57:36Z</time></trkpt><trkpt lat="45.704678973138556" lon="9.411345435391928"><ele>290.0</ele><time>2026-04-03T16:57:37Z</time></trkpt><trkpt lat="45.704815846115565" lon="9.411264586682357"><ele>290.0</ele><time>2026-04-03T16:57:38Z</time></trkpt><trkpt lat="45.704950025360965" lon="9.411171195240415"><ele>290.0</ele><time>2026-04-03T16:57:39Z</time></trkpt><trkpt lat="45.7050817557039" lon="9.411067879397631"><ele>290.0</ele><time>2026-04-03T16:57:40Z</time></trkpt><trkpt lat="45.705211245824124" lon="9.410960825499796"><ele>290.0</ele><time>2026-04-03T16:57:41Z</time></trkpt><trkpt lat="45.705336979727555" lon="9.410858757697696"><ele>290.25</ele><time>2026-04-03T16:57:42Z</time></trkpt><trkpt lat="45.70546078021835" lon="9.410760570442685"><ele>290.5</ele><time>2026-04-03T16:57:43Z</time></trkpt><trkpt lat="45.70558209215349" lon="9.410661387383083"><ele>290.75</ele><time>2026-04-03T16:57:44Z</time></trkpt><trkpt lat="45.70569807024679" lon="9.41056576245241"><ele>291.0</ele><time>2026-04-03T16:57:45Z</time></trkpt><trkpt lat="45.705805649701844" lon="9.4104801595889"><ele>291.0</ele><time>2026-04-03T16:57:46Z</time></trkpt><trkpt lat="45.705906791371255" lon="9.410403128062603"><ele>291.0</ele><time>2026-04-03T16:57:46.999Z</time></trkpt><trkpt lat="45.70600199266232" lon="9.41033027050408"><ele>291.0</ele><time>2026-04-03T16:57:47.999Z</time></trkpt><trkpt lat="45.70608758152167" lon="9.41026228598848"><ele>291.0</ele><time>2026-04-03T16:57:48.999Z</time></trkpt><trkpt lat="45.70616658391976" lon="9.410204620690784"><ele>291.0</ele><time>2026-04-03T16:57:49.999Z</time></trkpt><trkpt lat="45.7062453969017" lon="9.41017720999009"><ele>292.3333333333333</ele><time>2026-04-03T16:57:50.999Z</time></trkpt><trkpt lat="45.70632504232271" lon="9.41017299491992"><ele>293.6666666666667</ele><time>2026-04-03T16:57:51.999Z</time></trkpt><trkpt lat="45.70640939167469" lon="9.410164798368214"><ele>295.0</ele><time>2026-04-03T16:57:52.999Z</time></trkpt><trkpt lat="45.706490551229386" lon="9.410126978278726"><ele>296.33333333333337</ele><time>2026-04-03T16:57:53.999Z</time></trkpt><trkpt lat="45.70654773789087" lon="9.410033237361114"><ele>297.6666666666667</ele><time>2026-04-03T16:57:54.999Z</time></trkpt><trkpt lat="45.70659714737799" lon="9.409918974598101"><ele>299.0</ele><time>2026-04-03T16:57:55.999Z</time></trkpt><trkpt lat="45.70666527147883" lon="9.409813791866634"><ele>299.0</ele><time>2026-04-03T16:57:56.999Z</time></trkpt><trkpt lat="45.70675320042207" lon="9.409727794602098"><ele>299.0</ele><time>2026-04-03T16:57:57.999Z</time></trkpt><trkpt lat="45.706851389348024" lon="9.409646554883686"><ele>299.0</ele><time>2026-04-03T16:57:58.999Z</time></trkpt><trkpt lat="45.706955611899566" lon="9.409566292806565"><ele>299.0</ele><time>2026-04-03T16:57:59.999Z</time></trkpt><trkpt lat="45.70706476542926" lon="9.409481955444509"><ele>299.5</ele><time>2026-04-03T16:58:00.999Z</time></trkpt><trkpt lat="45.7071777524314" lon="9.409393381057914"><ele>300.0</ele><time>2026-04-03T16:58:01.999Z</time></trkpt><trkpt lat="45.70729241426863" lon="9.409303555339099"><ele>300.5</ele><time>2026-04-03T16:58:02.999Z</time></trkpt><trkpt lat="45.707404114201026" lon="9.409214554192477"><ele>301.0</ele><time>2026-04-03T16:58:03.999Z</time></trkpt><trkpt lat="45.70751880506516" lon="9.409122373736873"><ele>301.0</ele><time>2026-04-03T16:58:04.999Z</time></trkpt><trkpt lat="45.70763491087902" lon="9.409030821836847"><ele>301.0</ele><time>2026-04-03T16:58:05.999Z</time></trkpt><trkpt lat="45.70775047632329" lon="9.408937631354833"><ele>301.0</ele><time>2026-04-03T16:58:06.999Z</time></trkpt><trkpt lat="45.70786612374865" lon="9.408841938618371"><ele>301.0</ele><time>2026-04-03T16:58:07.999Z</time></trkpt><trkpt lat="45.70798190746587" lon="9.408745465797466"><ele>302.0</ele><time>2026-04-03T16:58:08.999Z</time></trkpt><trkpt lat="45.70810034967011" lon="9.40864896435027"><ele>303.0</ele><time>2026-04-03T16:58:09.999Z</time></trkpt><trkpt lat="45.708219644113335" lon="9.408553682091128"><ele>304.0</ele><time>2026-04-03T16:58:10.999Z</time></trkpt><trkpt lat="45.70834216591998" lon="9.408458246240567"><ele>305.0</ele><time>2026-04-03T16:58:11.999Z</time></trkpt><trkpt lat="45.70846408553885" lon="9.408361608951603"><ele>305.25</ele><time>2026-04-03T16:58:12.999Z</time></trkpt><trkpt lat="45.70858592838063" lon="9.408261789600026"><ele>305.5</ele><time>2026-04-03T16:58:13.999Z</time></trkpt><trkpt lat="45.70870781374223" lon="9.408161019109333"><ele>305.75</ele><time>2026-04-03T16:58:14.999Z</time></trkpt><trkpt lat="45.70883030789198" lon="9.408062431154283"><ele>306.0</ele><time>2026-04-03T16:58:15.999Z</time></trkpt><trkpt lat="45.708953276557274" lon="9.4079641497144"><ele>306.25</ele><time>2026-04-03T16:58:16.999Z</time></trkpt><trkpt lat="45.709075630305" lon="9.407865003333896"><ele>306.5</ele><time>2026-04-03T16:58:17.999Z</time></trkpt><trkpt lat="45.709197287498995" lon="9.407765661600262"><ele>306.75</ele><time>2026-04-03T16:58:18.999Z</time></trkpt><trkpt lat="45.70932025891534" lon="9.407666088408822"><ele>307.0</ele><time>2026-04-03T16:58:19.999Z</time></trkpt><trkpt lat="45.709442169906936" lon="9.407569710503441"><ele>307.75</ele><time>2026-04-03T16:58:20.999Z</time></trkpt><trkpt lat="45.7095643736382" lon="9.407472515509637"><ele>308.5</ele><time>2026-04-03T16:58:21.999Z</time></trkpt><trkpt lat="45.70968369311512" lon="9.407372511735854"><ele>309.25</ele><time>2026-04-03T16:58:22.999Z</time></trkpt><trkpt lat="45.709803883663206" lon="9.407276393105686"><ele>310.0</ele><time>2026-04-03T16:58:23.999Z</time></trkpt><trkpt lat="45.70992393213168" lon="9.40718153581355"><ele>310.25</ele><time>2026-04-03T16:58:24.999Z</time></trkpt><trkpt lat="45.71004247855081" lon="9.40708511781958"><ele>310.5</ele><time>2026-04-03T16:58:25.999Z</time></trkpt><trkpt lat="45.71015888615563" lon="9.406989489530915"><ele>310.75</ele><time>2026-04-03T16:58:26.999Z</time></trkpt><trkpt lat="45.71027604211512" lon="9.406896347399458"><ele>311.0</ele><time>2026-04-03T16:58:27.999Z</time></trkpt><trkpt lat="45.71039228236206" lon="9.406801519780311"><ele>310.5</ele><time>2026-04-03T16:58:28.999Z</time></trkpt><trkpt lat="45.7105053467638" lon="9.406714369248125"><ele>310.0</ele><time>2026-04-03T16:58:29.999Z</time></trkpt><trkpt lat="45.710618722027235" lon="9.406633696578185"><ele>309.5</ele><time>2026-04-03T16:58:30.999Z</time></trkpt><trkpt lat="45.710732980605506" lon="9.406567732761596"><ele>309.0</ele><time>2026-04-03T16:58:31.999Z</time></trkpt><trkpt lat="45.710850880475235" lon="9.406522903226909"><ele>309.0</ele><time>2026-04-03T16:58:32.999Z</time></trkpt><trkpt lat="45.71097218987284" lon="9.406504986662856"><ele>309.0</ele><time>2026-04-03T16:58:33.999Z</time></trkpt><trkpt lat="45.71109380804832" lon="9.406498015847982"><ele>309.0</ele><time>2026-04-03T16:58:34.999Z</time></trkpt><trkpt lat="45.71121441172296" lon="9.406484472981733"><ele>309.0</ele><time>2026-04-03T16:58:35.999Z</time></trkpt><trkpt lat="45.711332646695666" lon="9.406428873943234"><ele>308.75</ele><time>2026-04-03T16:58:36.999Z</time></trkpt><trkpt lat="45.711444693697594" lon="9.406350631054641"><ele>308.5</ele><time>2026-04-03T16:58:37.999Z</time></trkpt><trkpt lat="45.71156263453348" lon="9.406270575280978"><ele>308.25</ele><time>2026-04-03T16:58:38.999Z</time></trkpt><trkpt lat="45.711684735481256" lon="9.406216600550383"><ele>308.0</ele><time>2026-04-03T16:58:39.999Z</time></trkpt><trkpt lat="45.711814322857585" lon="9.406185248817957"><ele>306.25</ele><time>2026-04-03T16:58:40.999Z</time></trkpt><trkpt lat="45.71194578823087" lon="9.406175054380226"><ele>304.5</ele><time>2026-04-03T16:58:41.999Z</time></trkpt><trkpt lat="45.71207855473529" lon="9.406183989917244"><ele>302.75</ele><time>2026-04-03T16:58:42.999Z</time></trkpt><trkpt lat="45.712210736935475" lon="9.406209328033743"><ele>301.0</ele><time>2026-04-03T16:58:43.999Z</time></trkpt><trkpt lat="45.71234191483624" lon="9.40624592708443"><ele>301.0</ele><time>2026-04-03T16:58:44.999Z</time></trkpt><trkpt lat="45.71247837748909" lon="9.406292457930897"><ele>301.0</ele><time>2026-04-03T16:58:45.999Z</time></trkpt><trkpt lat="45.71261479671699" lon="9.406347452079334"><ele>301.0</ele><time>2026-04-03T16:58:46.999Z</time></trkpt><trkpt lat="45.71275208041445" lon="9.406409436263102"><ele>301.0</ele><time>2026-04-03T16:58:47.999Z</time></trkpt><trkpt lat="45.71289382161617" lon="9.40647643659915"><ele>301.66666666666663</ele><time>2026-04-03T16:58:48.999Z</time></trkpt><trkpt lat="45.713035665060524" lon="9.406547883816499"><ele>302.3333333333333</ele><time>2026-04-03T16:58:49.999Z</time></trkpt><trkpt lat="45.71318030220993" lon="9.406622159392471"><ele>303.0</ele><time>2026-04-03T16:58:50.999Z</time></trkpt><trkpt lat="45.71332512822806" lon="9.406696072658676"><ele>303.0</ele><time>2026-04-03T16:58:51.999Z</time></trkpt><trkpt lat="45.71346892677814" lon="9.406767010805398"><ele>303.0</ele><time>2026-04-03T16:58:52.999Z</time></trkpt><trkpt lat="45.71361734309742" lon="9.406839713445388"><ele>303.0</ele><time>2026-04-03T16:58:53.999Z</time></trkpt><trkpt lat="45.71376622936793" lon="9.406913772831553"><ele>302.0</ele><time>2026-04-03T16:58:54.999Z</time></trkpt><trkpt lat="45.71391558996556" lon="9.406987257250448"><ele>301.0</ele><time>2026-04-03T16:58:55.999Z</time></trkpt><trkpt lat="45.714064004538535" lon="9.407061271097696"><ele>300.0</ele><time>2026-04-03T16:58:56.999Z</time></trkpt><trkpt lat="45.71421517220591" lon="9.40713727341754"><ele>300.3333333333333</ele><time>2026-04-03T16:58:57.999Z</time></trkpt><trkpt lat="45.714364491608414" lon="9.407218394852894"><ele>300.66666666666663</ele><time>2026-04-03T16:58:58.999Z</time></trkpt><trkpt lat="45.714515521960855" lon="9.40729681144358"><ele>301.0</ele><time>2026-04-03T16:58:59.999Z</time></trkpt><trkpt lat="45.714660955878024" lon="9.407373982591027"><ele>301.0</ele><time>2026-04-03T16:59:00.999Z</time></trkpt><trkpt lat="45.71480608256706" lon="9.407446805800891"><ele>301.0</ele><time>2026-04-03T16:59:01.999Z</time></trkpt><trkpt lat="45.71494701436464" lon="9.407515613990427"><ele>301.0</ele><time>2026-04-03T16:59:02.999Z</time></trkpt><trkpt lat="45.71508624724472" lon="9.407584139415203"><ele>301.0</ele><time>2026-04-03T16:59:03.999Z</time></trkpt><trkpt lat="45.71522180797886" lon="9.407646781203171"><ele>301.0</ele><time>2026-04-03T16:59:04.999Z</time></trkpt><trkpt lat="45.71535501128135" lon="9.407699193290389"><ele>301.0</ele><time>2026-04-03T16:59:05.999Z</time></trkpt><trkpt lat="45.71548839111822" lon="9.407747475950917"><ele>301.0</ele><time>2026-04-03T16:59:06.999Z</time></trkpt><trkpt lat="45.71562317536805" lon="9.407794387445938"><ele>300.75</ele><time>2026-04-03T16:59:07.999Z</time></trkpt><trkpt lat="45.71575454432166" lon="9.40783862111707"><ele>300.5</ele><time>2026-04-03T16:59:08.999Z</time></trkpt><trkpt lat="45.71588399900879" lon="9.407880800532618"><ele>300.25</ele><time>2026-04-03T16:59:09.999Z</time></trkpt><trkpt lat="45.71600974874972" lon="9.407921713522926"><ele>300.0</ele><time>2026-04-03T16:59:10.999Z</time></trkpt><trkpt lat="45.71613088512681" lon="9.40796378563146"><ele>300.2</ele><time>2026-04-03T16:59:11.999Z</time></trkpt><trkpt lat="45.71624444752031" lon="9.408001375598717"><ele>300.4</ele><time>2026-04-03T16:59:12.999Z</time></trkpt><trkpt lat="45.71635496344415" lon="9.408037861693117"><ele>300.6</ele><time>2026-04-03T16:59:13.999Z</time></trkpt><trkpt lat="45.716460154432276" lon="9.408077423568074"><ele>300.8</ele><time>2026-04-03T16:59:14.999Z</time></trkpt><trkpt lat="45.71655982868748" lon="9.408115224634576"><ele>301.0</ele><time>2026-04-03T16:59:15.999Z</time></trkpt><trkpt lat="45.71665414704208" lon="9.408149429864483"><ele>301.0</ele><time>2026-04-03T16:59:16.999Z</time></trkpt><trkpt lat="45.71674666717422" lon="9.408178852536848"><ele>301.0</ele><time>2026-04-03T16:59:17.999Z</time></trkpt><trkpt lat="45.71683485215025" lon="9.408208167776543"><ele>301.0</ele><time>2026-04-03T16:59:18.999Z</time></trkpt><trkpt lat="45.71691684130959" lon="9.408237766325737"><ele>301.0</ele><time>2026-04-03T16:59:19.999Z</time></trkpt><trkpt lat="45.71699866249697" lon="9.40826471539152"><ele>301.0</ele><time>2026-04-03T16:59:20.999Z</time></trkpt><trkpt lat="45.717085863052304" lon="9.408291323034941"><ele>301.0</ele><time>2026-04-03T16:59:21.999Z</time></trkpt><trkpt lat="45.71717361760412" lon="9.408319728665417"><ele>300.42857142857144</ele><time>2026-04-03T16:59:22.999Z</time></trkpt><trkpt lat="45.71725480813582" lon="9.408347370696102"><ele>299.8571428571429</ele><time>2026-04-03T16:59:23.999Z</time></trkpt><trkpt lat="45.717318905896654" lon="9.40838219978224"><ele>299.2857142857143</ele><time>2026-04-03T16:59:24.999Z</time></trkpt><trkpt lat="45.71738406610237" lon="9.408420279937141"><ele>298.7142857142857</ele><time>2026-04-03T16:59:25.999Z</time></trkpt><trkpt lat="45.71744079669547" lon="9.408468472360111"><ele>298.14285714285717</ele><time>2026-04-03T16:59:26.999Z</time></trkpt><trkpt lat="45.717498359495536" lon="9.408524109175175"><ele>297.57142857142856</ele><time>2026-04-03T16:59:27.999Z</time></trkpt><trkpt lat="45.71756146382747" lon="9.40859557711579"><ele>297.0</ele><time>2026-04-03T16:59:28.999Z</time></trkpt><trkpt lat="45.717628098814416" lon="9.408669775431209"><ele>297.0</ele><time>2026-04-03T16:59:29.999Z</time></trkpt><trkpt lat="45.71770022877331" lon="9.408746833673097"><ele>297.0</ele><time>2026-04-03T16:59:30.999Z</time></trkpt><trkpt lat="45.71777384489388" lon="9.408823907696476"><ele>297.0</ele><time>2026-04-03T16:59:31.999Z</time></trkpt><trkpt lat="45.71784943493602" lon="9.408903850047775"><ele>297.0</ele><time>2026-04-03T16:59:32.999Z</time></trkpt><trkpt lat="45.717926444644924" lon="9.408988309811594"><ele>297.0</ele><time>2026-04-03T16:59:33.999Z</time></trkpt><trkpt lat="45.718007753063134" lon="9.409070393384987"><ele>297.2</ele><time>2026-04-03T16:59:34.999Z</time></trkpt><trkpt lat="45.718092941821666" lon="9.409156283093933"><ele>297.4</ele><time>2026-04-03T16:59:35.999Z</time></trkpt><trkpt lat="45.71817583019805" lon="9.409239131018271"><ele>297.6</ele><time>2026-04-03T16:59:36.999Z</time></trkpt><trkpt lat="45.718254507770496" lon="9.409321745422467"><ele>297.8</ele><time>2026-04-03T16:59:37.999Z</time></trkpt><trkpt lat="45.71832992886691" lon="9.409403436326969"><ele>298.0</ele><time>2026-04-03T16:59:38.999Z</time></trkpt><trkpt lat="45.71840806815174" lon="9.409489178659983"><ele>298.0</ele><time>2026-04-03T16:59:39.999Z</time></trkpt><trkpt lat="45.71849010254572" lon="9.40957345806212"><ele>298.0</ele><time>2026-04-03T16:59:40.999Z</time></trkpt><trkpt lat="45.71857653162236" lon="9.40965671057185"><ele>298.0</ele><time>2026-04-03T16:59:41.999Z</time></trkpt><trkpt lat="45.71866189827661" lon="9.409745409201122"><ele>298.0</ele><time>2026-04-03T16:59:42.999Z</time></trkpt><trkpt lat="45.71874367630169" lon="9.409841258027502"><ele>298.0</ele><time>2026-04-03T16:59:43.999Z</time></trkpt><trkpt lat="45.71882670759652" lon="9.409934287429369"><ele>298.2</ele><time>2026-04-03T16:59:44.999Z</time></trkpt><trkpt lat="45.71891168605046" lon="9.410022008250298"><ele>298.4</ele><time>2026-04-03T16:59:45.999Z</time></trkpt><trkpt lat="45.71899790011949" lon="9.410111324511677"><ele>298.59999999999997</ele><time>2026-04-03T16:59:46.999Z</time></trkpt><trkpt lat="45.71908505829308" lon="9.410202792644002"><ele>298.8</ele><time>2026-04-03T16:59:47.999Z</time></trkpt><trkpt lat="45.71917373731888" lon="9.410291390129318"><ele>299.0</ele><time>2026-04-03T16:59:48.999Z</time></trkpt><trkpt lat="45.719263485339084" lon="9.41038188882656"><ele>299.0</ele><time>2026-04-03T16:59:49.999Z</time></trkpt><trkpt lat="45.71935291614333" lon="9.41047393158602"><ele>299.0</ele><time>2026-04-03T16:59:50.999Z</time></trkpt><trkpt lat="45.719443738954034" lon="9.41056662214791"><ele>299.0</ele><time>2026-04-03T16:59:51.999Z</time></trkpt><trkpt lat="45.719533479592194" lon="9.410661574716562"><ele>299.0</ele><time>2026-04-03T16:59:52.999Z</time></trkpt><trkpt lat="45.7196245813008" lon="9.41075811398506"><ele>299.0</ele><time>2026-04-03T16:59:53.999Z</time></trkpt><trkpt lat="45.71971685384976" lon="9.410855610193128"><ele>298.25</ele><time>2026-04-03T16:59:54.999Z</time></trkpt><trkpt lat="45.719809658177304" lon="9.410953163517238"><ele>297.5</ele><time>2026-04-03T16:59:55.999Z</time></trkpt><trkpt lat="45.71990419833696" lon="9.411050792271705"><ele>296.75</ele><time>2026-04-03T16:59:56.999Z</time></trkpt><trkpt lat="45.719999896409156" lon="9.411151865154178"><ele>296.0</ele><time>2026-04-03T16:59:57.999Z</time></trkpt><trkpt lat="45.72009440095191" lon="9.411255107234636"><ele>296.0</ele><time>2026-04-03T16:59:58.999Z</time></trkpt><trkpt lat="45.720191018660735" lon="9.411357326997583"><ele>296.0</ele><time>2026-04-03T16:59:59.999Z</time></trkpt><trkpt lat="45.72028891594516" lon="9.411460438510495"><ele>296.0</ele><time>2026-04-03T17:00:00.999Z</time></trkpt><trkpt lat="45.72038873002046" lon="9.41156540887543"><ele>296.0</ele><time>2026-04-03T17:00:01.999Z</time></trkpt><trkpt lat="45.72048932777949" lon="9.411670997429978"><ele>296.0</ele><time>2026-04-03T17:00:02.999Z</time></trkpt><trkpt lat="45.72059058733295" lon="9.411775185248567"><ele>296.0</ele><time>2026-04-03T17:00:03.999Z</time></trkpt><trkpt lat="45.7206908924034" lon="9.411881897044236"><ele>296.0</ele><time>2026-04-03T17:00:04.999Z</time></trkpt><trkpt lat="45.72079102951996" lon="9.411990863289184"><ele>296.0</ele><time>2026-04-03T17:00:05.999Z</time></trkpt><trkpt lat="45.72089214459516" lon="9.412100255443386"><ele>295.75</ele><time>2026-04-03T17:00:06.999Z</time></trkpt><trkpt lat="45.720993836548715" lon="9.412208496821151"><ele>295.5</ele><time>2026-04-03T17:00:07.999Z</time></trkpt><trkpt lat="45.721092235600835" lon="9.412312398600585"><ele>295.25</ele><time>2026-04-03T17:00:08.999Z</time></trkpt><trkpt lat="45.72118566237192" lon="9.412407551867078"><ele>295.0</ele><time>2026-04-03T17:00:09.999Z</time></trkpt><trkpt lat="45.72127458456666" lon="9.41249925982076"><ele>294.0</ele><time>2026-04-03T17:00:10.999Z</time></trkpt><trkpt lat="45.72136015738021" lon="9.412587947864653"><ele>293.0</ele><time>2026-04-03T17:00:11.999Z</time></trkpt><trkpt lat="45.721439639450246" lon="9.412669147045344"><ele>292.0</ele><time>2026-04-03T17:00:12.999Z</time></trkpt><trkpt lat="45.721510976091196" lon="9.412749236099343"><ele>291.0</ele><time>2026-04-03T17:00:13.999Z</time></trkpt><trkpt lat="45.72156734983721" lon="9.412842687048649"><ele>290.0</ele><time>2026-04-03T17:00:14.999Z</time></trkpt><trkpt lat="45.721605141852294" lon="9.412945968561173"><ele>290.0</ele><time>2026-04-03T17:00:15.999Z</time></trkpt><trkpt lat="45.72163619755466" lon="9.413046533199058"><ele>290.0</ele><time>2026-04-03T17:00:16.999Z</time></trkpt><trkpt lat="45.72167026913112" lon="9.413140923471765"><ele>290.0</ele><time>2026-04-03T17:00:17.999Z</time></trkpt><trkpt lat="45.72173100006203" lon="9.413217705802795"><ele>290.0</ele><time>2026-04-03T17:00:18.999Z</time></trkpt><trkpt lat="45.72180262718821" lon="9.413253649203247"><ele>290.0</ele><time>2026-04-03T17:00:19.999Z</time></trkpt><trkpt lat="45.72188945878454" lon="9.413259516866518"><ele>290.0</ele><time>2026-04-03T17:00:20.999Z</time></trkpt><trkpt lat="45.721978553185814" lon="9.413277040948916"><ele>289.6</ele><time>2026-04-03T17:00:21.999Z</time></trkpt><trkpt lat="45.72206746600414" lon="9.413336433435228"><ele>289.2</ele><time>2026-04-03T17:00:22.999Z</time></trkpt><trkpt lat="45.722155013488425" lon="9.413423165801834"><ele>288.8</ele><time>2026-04-03T17:00:23.999Z</time></trkpt><trkpt lat="45.72224093047265" lon="9.413513320361558"><ele>288.4</ele><time>2026-04-03T17:00:24.999Z</time></trkpt><trkpt lat="45.72232525534101" lon="9.413603117371812"><ele>288.0</ele><time>2026-04-03T17:00:25.999Z</time></trkpt><trkpt lat="45.722411838159275" lon="9.413695912971669"><ele>288.0</ele><time>2026-04-03T17:00:26.999Z</time></trkpt><trkpt lat="45.722500011139836" lon="9.41378665363365"><ele>288.0</ele><time>2026-04-03T17:00:27.999Z</time></trkpt><trkpt lat="45.72258855022262" lon="9.413876787082557"><ele>288.0</ele><time>2026-04-03T17:00:28.999Z</time></trkpt><trkpt lat="45.72267842812776" lon="9.413968204764615"><ele>288.0</ele><time>2026-04-03T17:00:29.999Z</time></trkpt><trkpt lat="45.7227666549867" lon="9.414060199050205"><ele>288.0</ele><time>2026-04-03T17:00:30.999Z</time></trkpt><trkpt lat="45.7228544939128" lon="9.414149924458519"><ele>287.6</ele><time>2026-04-03T17:00:31.999Z</time></trkpt><trkpt lat="45.722941673995365" lon="9.414241818698597"><ele>287.20000000000005</ele><time>2026-04-03T17:00:32.999Z</time></trkpt><trkpt lat="45.72302688262058" lon="9.414330433721661"><ele>286.8</ele><time>2026-04-03T17:00:33.999Z</time></trkpt><trkpt lat="45.72310507301447" lon="9.414412890815152"><ele>286.40000000000003</ele><time>2026-04-03T17:00:34.999Z</time></trkpt><trkpt lat="45.72317990705261" lon="9.414489256865574"><ele>286.0</ele><time>2026-04-03T17:00:35.999Z</time></trkpt><trkpt lat="45.72325241934268" lon="9.414558283810814"><ele>286.0</ele><time>2026-04-03T17:00:36.999Z</time></trkpt><trkpt lat="45.72332275708095" lon="9.414625738150173"><ele>286.0</ele><time>2026-04-03T17:00:37.999Z</time></trkpt><trkpt lat="45.72339259863646" lon="9.414688910160729"><ele>286.0</ele><time>2026-04-03T17:00:38.999Z</time></trkpt><trkpt lat="45.723457827861665" lon="9.414756332394113"><ele>286.0</ele><time>2026-04-03T17:00:39.999Z</time></trkpt><trkpt lat="45.72351920153423" lon="9.414822103987538"><ele>286.0</ele><time>2026-04-03T17:00:40.999Z</time></trkpt><trkpt lat="45.72358086043512" lon="9.414885065510369"><ele>286.0</ele><time>2026-04-03T17:00:41.999Z</time></trkpt><trkpt lat="45.723641251200505" lon="9.414947764790892"><ele>285.66666666666663</ele><time>2026-04-03T17:00:42.999Z</time></trkpt><trkpt lat="45.723705841107154" lon="9.415009732742641"><ele>285.3333333333333</ele><time>2026-04-03T17:00:43.999Z</time></trkpt><trkpt lat="45.72377063811812" lon="9.415077554355815"><ele>285.0</ele><time>2026-04-03T17:00:44.999Z</time></trkpt><trkpt lat="45.723836206827386" lon="9.415150953024353"><ele>284.6666666666667</ele><time>2026-04-03T17:00:45.999Z</time></trkpt><trkpt lat="45.72390283167306" lon="9.4152246836877"><ele>284.33333333333337</ele><time>2026-04-03T17:00:46.999Z</time></trkpt><trkpt lat="45.72397315010984" lon="9.41530134223759"><ele>284.0</ele><time>2026-04-03T17:00:47.999Z</time></trkpt><trkpt lat="45.72404559160599" lon="9.41537906379823"><ele>284.0</ele><time>2026-04-03T17:00:48.999Z</time></trkpt><trkpt lat="45.72411638934083" lon="9.415453458124624"><ele>284.0</ele><time>2026-04-03T17:00:49.999Z</time></trkpt><trkpt lat="45.72418700659539" lon="9.415523171193923"><ele>284.0</ele><time>2026-04-03T17:00:50.999Z</time></trkpt><trkpt lat="45.72425242667654" lon="9.415586345840739"><ele>284.0</ele><time>2026-04-03T17:00:51.999Z</time></trkpt><trkpt lat="45.724313753482356" lon="9.41564493366279"><ele>284.0</ele><time>2026-04-03T17:00:52.999Z</time></trkpt><trkpt lat="45.72436766892919" lon="9.415695368746839"><ele>284.0</ele><time>2026-04-03T17:00:53.999Z</time></trkpt><trkpt lat="45.7244643232623" lon="9.415785880004208"><ele>284.0</ele><time>2026-04-03T17:00:55.999Z</time></trkpt><trkpt lat="45.724547615844024" lon="9.415850492076775"><ele>284.0</ele><time>2026-04-03T17:00:57.999Z</time></trkpt><trkpt lat="45.72461102830296" lon="9.415899667647986"><ele>284.0</ele><time>2026-04-03T17:00:59.999Z</time></trkpt><trkpt lat="45.72466744066238" lon="9.415946280296291"><ele>284.0</ele><time>2026-04-03T17:01:08.999Z</time></trkpt><trkpt lat="45.72473807558454" lon="9.415988643289637"><ele>284.0</ele><time>2026-04-03T17:01:12.999Z</time></trkpt><trkpt lat="45.72480681574823" lon="9.416009968390215"><ele>284.0</ele><time>2026-04-03T17:01:15.999Z</time></trkpt><trkpt lat="45.72490496989423" lon="9.416033804482094"><ele>284.0</ele><time>2026-04-03T17:01:17.999Z</time></trkpt><trkpt lat="45.72496757694641" lon="9.416011075794199"><ele>284.0</ele><time>2026-04-03T17:01:18.999Z</time></trkpt><trkpt lat="45.725031355545" lon="9.415969872231745"><ele>284.0</ele><time>2026-04-03T17:01:19.999Z</time></trkpt><trkpt lat="45.725099457635345" lon="9.415927039401195"><ele>284.0</ele><time>2026-04-03T17:01:20.999Z</time></trkpt><trkpt lat="45.72517244422236" lon="9.415883043765158"><ele>284.0</ele><time>2026-04-03T17:01:21.999Z</time></trkpt><trkpt lat="45.72525163919311" lon="9.415838081261585"><ele>284.0</ele><time>2026-04-03T17:01:22.999Z</time></trkpt><trkpt lat="45.7253319073877" lon="9.415800983632954"><ele>283.33333333333337</ele><time>2026-04-03T17:01:23.999Z</time></trkpt><trkpt lat="45.725411043889096" lon="9.415768007953346"><ele>282.6666666666667</ele><time>2026-04-03T17:01:24.999Z</time></trkpt><trkpt lat="45.72549412508349" lon="9.415736717763423"><ele>282.0</ele><time>2026-04-03T17:01:25.999Z</time></trkpt><trkpt lat="45.72557679699702" lon="9.415708538179835"><ele>281.3333333333333</ele><time>2026-04-03T17:01:26.999Z</time></trkpt><trkpt lat="45.72566011800947" lon="9.415681076304748"><ele>280.66666666666663</ele><time>2026-04-03T17:01:28Z</time></trkpt><trkpt lat="45.72574546795097" lon="9.415652942739483"><ele>280.0</ele><time>2026-04-03T17:01:29Z</time></trkpt><trkpt lat="45.72583383272528" lon="9.415627607856559"><ele>280.0</ele><time>2026-04-03T17:01:30Z</time></trkpt><trkpt lat="45.72592323295144" lon="9.415604222817059"><ele>280.0</ele><time>2026-04-03T17:01:31Z</time></trkpt><trkpt lat="45.72601515715633" lon="9.415587075438287"><ele>280.0</ele><time>2026-04-03T17:01:32Z</time></trkpt><trkpt lat="45.72610438103539" lon="9.415573864917855"><ele>280.0</ele><time>2026-04-03T17:01:33Z</time></trkpt><trkpt lat="45.72619187701648" lon="9.415563285460802"><ele>280.0</ele><time>2026-04-03T17:01:34Z</time></trkpt><trkpt lat="45.72627862594996" lon="9.41555283249561"><ele>280.0</ele><time>2026-04-03T17:01:35Z</time></trkpt><trkpt lat="45.72636286127855" lon="9.415544500329823"><ele>280.16666666666663</ele><time>2026-04-03T17:01:36Z</time></trkpt><trkpt lat="45.72644776625408" lon="9.415540808025938"><ele>280.3333333333333</ele><time>2026-04-03T17:01:37Z</time></trkpt><trkpt lat="45.72653210664862" lon="9.415540869942816"><ele>280.5</ele><time>2026-04-03T17:01:38Z</time></trkpt><trkpt lat="45.7266183014605" lon="9.415545978646543"><ele>280.6666666666667</ele><time>2026-04-03T17:01:39Z</time></trkpt><trkpt lat="45.726706144348334" lon="9.415555170843604"><ele>280.83333333333337</ele><time>2026-04-03T17:01:40Z</time></trkpt><trkpt lat="45.726796666886436" lon="9.415567629297398"><ele>281.0</ele><time>2026-04-03T17:01:41Z</time></trkpt><trkpt lat="45.7268848567198" lon="9.415581208113064"><ele>279.40000000000003</ele><time>2026-04-03T17:01:42Z</time></trkpt><trkpt lat="45.72697898865571" lon="9.415596905553263"><ele>277.8</ele><time>2026-04-03T17:01:43Z</time></trkpt><trkpt lat="45.72707938573407" lon="9.415615294524956"><ele>276.20000000000005</ele><time>2026-04-03T17:01:44Z</time></trkpt><trkpt lat="45.72718990203376" lon="9.415639754198844"><ele>274.6</ele><time>2026-04-03T17:01:45Z</time></trkpt><trkpt lat="45.7273000173118" lon="9.415676380917867"><ele>273.0</ele><time>2026-04-03T17:01:46Z</time></trkpt><trkpt lat="45.72740637425443" lon="9.415718098347721"><ele>273.0</ele><time>2026-04-03T17:01:47Z</time></trkpt><trkpt lat="45.72750679231828" lon="9.415762708949432"><ele>273.0</ele><time>2026-04-03T17:01:48Z</time></trkpt><trkpt lat="45.72760355680107" lon="9.415808281802597"><ele>273.0</ele><time>2026-04-03T17:01:49Z</time></trkpt><trkpt lat="45.72770136016601" lon="9.415856243159896"><ele>273.0</ele><time>2026-04-03T17:01:50Z</time></trkpt><trkpt lat="45.727792739044084" lon="9.415906884495314"><ele>273.0</ele><time>2026-04-03T17:01:51Z</time></trkpt><trkpt lat="45.72788176624452" lon="9.415959317884045"><ele>273.8</ele><time>2026-04-03T17:01:52Z</time></trkpt><trkpt lat="45.727970277080324" lon="9.416017159762886"><ele>274.6</ele><time>2026-04-03T17:01:53Z</time></trkpt><trkpt lat="45.728062567751515" lon="9.416084001355797"><ele>275.4</ele><time>2026-04-03T17:01:54Z</time></trkpt><trkpt lat="45.728154144174255" lon="9.416157572339909"><ele>276.2</ele><time>2026-04-03T17:01:55Z</time></trkpt><trkpt lat="45.72824667913756" lon="9.416238216335156"><ele>277.0</ele><time>2026-04-03T17:01:56Z</time></trkpt><trkpt lat="45.72833512954464" lon="9.41632344341891"><ele>277.0</ele><time>2026-04-03T17:01:56.999Z</time></trkpt><trkpt lat="45.72842397551156" lon="9.416413862376013"><ele>277.0</ele><time>2026-04-03T17:01:57.999Z</time></trkpt><trkpt lat="45.728511535628186" lon="9.416509859782007"><ele>277.0</ele><time>2026-04-03T17:01:58.999Z</time></trkpt><trkpt lat="45.72859414161828" lon="9.4166089443223"><ele>277.0</ele><time>2026-04-03T17:01:59.999Z</time></trkpt><trkpt lat="45.72867203247852" lon="9.416711083582445"><ele>277.0</ele><time>2026-04-03T17:02:00.999Z</time></trkpt><trkpt lat="45.72874461305851" lon="9.416819432259793"><ele>274.8</ele><time>2026-04-03T17:02:01.999Z</time></trkpt><trkpt lat="45.72881237078486" lon="9.416926718272162"><ele>272.6</ele><time>2026-04-03T17:02:02.999Z</time></trkpt><trkpt lat="45.728878456705495" lon="9.417036807096254"><ele>270.40000000000003</ele><time>2026-04-03T17:02:03.999Z</time></trkpt><trkpt lat="45.7289442619313" lon="9.417147501147566"><ele>268.2</ele><time>2026-04-03T17:02:04.999Z</time></trkpt><trkpt lat="45.72901213160345" lon="9.417255285968546"><ele>266.0</ele><time>2026-04-03T17:02:05.999Z</time></trkpt><trkpt lat="45.72907813891939" lon="9.417358333711336"><ele>266.0</ele><time>2026-04-03T17:02:06.999Z</time></trkpt><trkpt lat="45.72914663826818" lon="9.417462584905746"><ele>266.0</ele><time>2026-04-03T17:02:07.999Z</time></trkpt><trkpt lat="45.729220351664765" lon="9.41756192741262"><ele>266.0</ele><time>2026-04-03T17:02:08.999Z</time></trkpt><trkpt lat="45.729295208913555" lon="9.41765257163063"><ele>266.0</ele><time>2026-04-03T17:02:09.999Z</time></trkpt><trkpt lat="45.72937750977159" lon="9.417743519234852"><ele>266.0</ele><time>2026-04-03T17:02:10.999Z</time></trkpt><trkpt lat="45.7294632297029" lon="9.417832297505527"><ele>265.25</ele><time>2026-04-03T17:02:11.999Z</time></trkpt><trkpt lat="45.7295553500074" lon="9.41792105610017"><ele>264.5</ele><time>2026-04-03T17:02:12.999Z</time></trkpt><trkpt lat="45.729652848737715" lon="9.418009339905717"><ele>263.75</ele><time>2026-04-03T17:02:13.999Z</time></trkpt><trkpt lat="45.72975304948121" lon="9.41809725270956"><ele>263.0</ele><time>2026-04-03T17:02:14.999Z</time></trkpt><trkpt lat="45.72985645848868" lon="9.418186520375125"><ele>263.0</ele><time>2026-04-03T17:02:15.999Z</time></trkpt><trkpt lat="45.7299552533721" lon="9.418269835887102"><ele>263.0</ele><time>2026-04-03T17:02:16.999Z</time></trkpt><trkpt lat="45.73005037212824" lon="9.418351765146188"><ele>263.0</ele><time>2026-04-03T17:02:17.999Z</time></trkpt><trkpt lat="45.730151412001966" lon="9.418441330935277"><ele>263.0</ele><time>2026-04-03T17:02:18.999Z</time></trkpt><trkpt lat="45.730283295785085" lon="9.418551938404562"><ele>262.33333333333337</ele><time>2026-04-03T17:02:19.999Z</time></trkpt><trkpt lat="45.7304246468049" lon="9.418694108570168"><ele>261.6666666666667</ele><time>2026-04-03T17:02:20.999Z</time></trkpt><trkpt lat="45.73058252153248" lon="9.418857709115999"><ele>261.0</ele><time>2026-04-03T17:02:21.999Z</time></trkpt><trkpt lat="45.73075445139907" lon="9.419028678081915"><ele>261.0</ele><time>2026-04-03T17:02:22.999Z</time></trkpt><trkpt lat="45.730906626162536" lon="9.419187680050326"><ele>261.0</ele><time>2026-04-03T17:02:23.999Z</time></trkpt><trkpt lat="45.73104432298077" lon="9.419337555508449"><ele>261.0</ele><time>2026-04-03T17:02:24.999Z</time></trkpt><trkpt lat="45.73116884565101" lon="9.41947193846693"><ele>260.5</ele><time>2026-04-03T17:02:25.999Z</time></trkpt><trkpt lat="45.731279501227064" lon="9.419586842932064"><ele>260.0</ele><time>2026-04-03T17:02:26.999Z</time></trkpt><trkpt lat="45.73138159697579" lon="9.419689754241874"><ele>259.5</ele><time>2026-04-03T17:02:27.999Z</time></trkpt><trkpt lat="45.73148192769448" lon="9.419783754799909"><ele>259.0</ele><time>2026-04-03T17:02:28.999Z</time></trkpt><trkpt lat="45.731583404191895" lon="9.419865137642756"><ele>259.0</ele><time>2026-04-03T17:02:29.999Z</time></trkpt><trkpt lat="45.731689383064094" lon="9.419924616548894"><ele>259.0</ele><time>2026-04-03T17:02:30.999Z</time></trkpt><trkpt lat="45.73179558140203" lon="9.419946960998512"><ele>259.0</ele><time>2026-04-03T17:02:31.999Z</time></trkpt><trkpt lat="45.73189277629244" lon="9.419963337739137"><ele>259.0</ele><time>2026-04-03T17:02:32.999Z</time></trkpt><trkpt lat="45.731986085806234" lon="9.419963644652784"><ele>259.0</ele><time>2026-04-03T17:02:33.999Z</time></trkpt><trkpt lat="45.732076970797365" lon="9.419947730834254"><ele>258.0</ele><time>2026-04-03T17:02:34.999Z</time></trkpt><trkpt lat="45.73216350211517" lon="9.41990724858544"><ele>257.0</ele><time>2026-04-03T17:02:35.999Z</time></trkpt><trkpt lat="45.73225132184067" lon="9.419844136887454"><ele>255.99999999999997</ele><time>2026-04-03T17:02:36.999Z</time></trkpt><trkpt lat="45.73233567565573" lon="9.41975560327451"><ele>255.0</ele><time>2026-04-03T17:02:37.999Z</time></trkpt><trkpt lat="45.732404997904936" lon="9.419654533725161"><ele>254.0</ele><time>2026-04-03T17:02:38.999Z</time></trkpt><trkpt lat="45.732463176171755" lon="9.419536342102948"><ele>253.75</ele><time>2026-04-03T17:02:39.999Z</time></trkpt><trkpt lat="45.732512810082554" lon="9.419389844515344"><ele>253.5</ele><time>2026-04-03T17:02:40.999Z</time></trkpt><trkpt lat="45.73255673055002" lon="9.419203593013158"><ele>253.25</ele><time>2026-04-03T17:02:41.999Z</time></trkpt><trkpt lat="45.73263414851498" lon="9.418996927552422"><ele>253.0</ele><time>2026-04-03T17:02:42.999Z</time></trkpt><trkpt lat="45.732660474086465" lon="9.418778696467873"><ele>253.0</ele><time>2026-04-03T17:02:43.999Z</time></trkpt><trkpt lat="45.73269328991323" lon="9.418583495299087"><ele>253.0</ele><time>2026-04-03T17:02:44.999Z</time></trkpt><trkpt lat="45.73271273535872" lon="9.418396466740358"><ele>253.0</ele><time>2026-04-03T17:02:45.999Z</time></trkpt><trkpt lat="45.732728828965584" lon="9.418218509774125"><ele>253.0</ele><time>2026-04-03T17:02:46.999Z</time></trkpt><trkpt lat="45.73274601794169" lon="9.418045450191336"><ele>250.75</ele><time>2026-04-03T17:02:47.999Z</time></trkpt><trkpt lat="45.73277513314389" lon="9.417885580197233"><ele>248.5</ele><time>2026-04-03T17:02:48.999Z</time></trkpt><trkpt lat="45.73282365664192" lon="9.417734145841175"><ele>246.25</ele><time>2026-04-03T17:02:49.999Z</time></trkpt><trkpt lat="45.73289613103154" lon="9.417581425103025"><ele>244.0</ele><time>2026-04-03T17:02:50.999Z</time></trkpt><trkpt lat="45.73298962371919" lon="9.417440005317102"><ele>244.0</ele><time>2026-04-03T17:02:51.999Z</time></trkpt><trkpt lat="45.73310406319237" lon="9.417316486647831"><ele>244.0</ele><time>2026-04-03T17:02:52.999Z</time></trkpt><trkpt lat="45.7332270289941" lon="9.417197300592047"><ele>244.0</ele><time>2026-04-03T17:02:53.999Z</time></trkpt><trkpt lat="45.73335222598368" lon="9.41711220107781"><ele>244.0</ele><time>2026-04-03T17:02:54.999Z</time></trkpt><trkpt lat="45.73350985084856" lon="9.417078384031948"><ele>240.33333333333331</ele><time>2026-04-03T17:02:55.999Z</time></trkpt><trkpt lat="45.733678780244404" lon="9.417078645879696"><ele>236.66666666666669</ele><time>2026-04-03T17:02:56.999Z</time></trkpt><trkpt lat="45.73383989076122" lon="9.417137235846456"><ele>233.0</ele><time>2026-04-03T17:02:57.999Z</time></trkpt><trkpt lat="45.73399769529369" lon="9.417206745192813"><ele>233.0</ele><time>2026-04-03T17:02:58.999Z</time></trkpt><trkpt lat="45.734131607881224" lon="9.417332982443025"><ele>233.0</ele><time>2026-04-03T17:02:59.999Z</time></trkpt><trkpt lat="45.734252474094326" lon="9.417476369746787"><ele>233.0</ele><time>2026-04-03T17:03:00.999Z</time></trkpt><trkpt lat="45.73436058675042" lon="9.41763047600243"><ele>230.75</ele><time>2026-04-03T17:03:01.999Z</time></trkpt><trkpt lat="45.734465139743406" lon="9.417771306860715"><ele>228.5</ele><time>2026-04-03T17:03:02.999Z</time></trkpt><trkpt lat="45.7345507706416" lon="9.417924456932223"><ele>226.25</ele><time>2026-04-03T17:03:03.999Z</time></trkpt><trkpt lat="45.73460058788302" lon="9.418097457311722"><ele>224.0</ele><time>2026-04-03T17:03:04.999Z</time></trkpt><trkpt lat="45.734622573814164" lon="9.418278831321377"><ele>224.0</ele><time>2026-04-03T17:03:05.999Z</time></trkpt><trkpt lat="45.734644200962826" lon="9.418410873524412"><ele>224.0</ele><time>2026-04-03T17:03:06.999Z</time></trkpt><trkpt lat="45.734700169808946" lon="9.41849003693089"><ele>224.0</ele><time>2026-04-03T17:03:07.999Z</time></trkpt><trkpt lat="45.73471752447911" lon="9.418618967255375"><ele>224.0</ele><time>2026-04-03T17:03:08.999Z</time></trkpt><trkpt lat="45.73491008178295" lon="9.41851463536945"><ele>224.0</ele><time>2026-04-03T17:03:09.999Z</time></trkpt><trkpt lat="45.73504690287036" lon="9.418506057426317"><ele>224.0</ele><time>2026-04-03T17:03:10.999Z</time></trkpt><trkpt lat="45.735199165286" lon="9.418568418426549"><ele>224.0</ele><time>2026-04-03T17:03:11.999Z</time></trkpt><trkpt lat="45.73535421322597" lon="9.418707420925896"><ele>222.66666666666669</ele><time>2026-04-03T17:03:12.999Z</time></trkpt><trkpt lat="45.73552232645877" lon="9.41886546534285"><ele>221.33333333333331</ele><time>2026-04-03T17:03:13.999Z</time></trkpt><trkpt lat="45.73570335831338" lon="9.419020152812626"><ele>220.0</ele><time>2026-04-03T17:03:14.999Z</time></trkpt><trkpt lat="45.73589453030244" lon="9.419179774040943"><ele>221.0</ele><time>2026-04-03T17:03:15.999Z</time></trkpt><trkpt lat="45.7361048352429" lon="9.419335888971961"><ele>222.0</ele><time>2026-04-03T17:03:16.999Z</time></trkpt><trkpt lat="45.73634284736247" lon="9.419509289242198"><ele>221.0</ele><time>2026-04-03T17:03:17.999Z</time></trkpt><trkpt lat="45.736567383891334" lon="9.419692032267433"><ele>220.0</ele><time>2026-04-03T17:03:18.999Z</time></trkpt><trkpt lat="45.73679377745441" lon="9.41987704268068"><ele>220.5</ele><time>2026-04-03T17:03:19.999Z</time></trkpt><trkpt lat="45.73701524729077" lon="9.420049447867347"><ele>221.0</ele><time>2026-04-03T17:03:20.999Z</time></trkpt><trkpt lat="45.7372365013276" lon="9.420217386229334"><ele>221.0</ele><time>2026-04-03T17:03:21.999Z</time></trkpt><trkpt lat="45.73744958168484" lon="9.420383790926868"><ele>221.0</ele><time>2026-04-03T17:03:22.999Z</time></trkpt><trkpt lat="45.73766144859259" lon="9.420545647401006"><ele>220.0</ele><time>2026-04-03T17:03:23.999Z</time></trkpt><trkpt lat="45.7378679617518" lon="9.42071200380422"><ele>219.0</ele><time>2026-04-03T17:03:24.999Z</time></trkpt><trkpt lat="45.73806501301866" lon="9.420868430005001"><ele>219.0</ele><time>2026-04-03T17:03:25.999Z</time></trkpt><trkpt lat="45.73826310541122" lon="9.421024665419246"><ele>219.0</ele><time>2026-04-03T17:03:26.999Z</time></trkpt><trkpt lat="45.73846357981144" lon="9.421173056140633"><ele>218.33333333333331</ele><time>2026-04-03T17:03:27.999Z</time></trkpt><trkpt lat="45.738666090192645" lon="9.421321266708498"><ele>217.66666666666666</ele><time>2026-04-03T17:03:28.999Z</time></trkpt><trkpt lat="45.73885773872927" lon="9.421473942888856"><ele>217.0</ele><time>2026-04-03T17:03:29.999Z</time></trkpt><trkpt lat="45.73905056792301" lon="9.421623087237785"><ele>217.0</ele><time>2026-04-03T17:03:30.999Z</time></trkpt><trkpt lat="45.73924555667336" lon="9.421777197486456"><ele>217.0</ele><time>2026-04-03T17:03:31.999Z</time></trkpt><trkpt lat="45.739434622485206" lon="9.42192191000053"><ele>217.0</ele><time>2026-04-03T17:03:32.999Z</time></trkpt><trkpt lat="45.73962159929722" lon="9.422067086559938"><ele>217.66666666666666</ele><time>2026-04-03T17:03:34Z</time></trkpt><trkpt lat="45.739804220910024" lon="9.42221488270279"><ele>218.33333333333331</ele><time>2026-04-03T17:03:35Z</time></trkpt><trkpt lat="45.73998548194482" lon="9.422360178693067"><ele>219.0</ele><time>2026-04-03T17:03:36Z</time></trkpt><trkpt lat="45.740166314349" lon="9.422496193251837"><ele>220.0</ele><time>2026-04-03T17:03:37Z</time></trkpt><trkpt lat="45.740346198139875" lon="9.4226303427365"><ele>221.0</ele><time>2026-04-03T17:03:38Z</time></trkpt><trkpt lat="45.74052230475682" lon="9.42276378730135"><ele>222.0</ele><time>2026-04-03T17:03:39Z</time></trkpt><trkpt lat="45.74068031766106" lon="9.422886362379108"><ele>221.0</ele><time>2026-04-03T17:03:40Z</time></trkpt><trkpt lat="45.74083394552895" lon="9.423016946263381"><ele>220.0</ele><time>2026-04-03T17:03:41Z</time></trkpt><trkpt lat="45.74099180702201" lon="9.423134855461774"><ele>219.0</ele><time>2026-04-03T17:03:42Z</time></trkpt><trkpt lat="45.741145272418294" lon="9.423252982418717"><ele>219.0</ele><time>2026-04-03T17:03:43Z</time></trkpt><trkpt lat="45.74130435208353" lon="9.42336635725931"><ele>219.0</ele><time>2026-04-03T17:03:44Z</time></trkpt><trkpt lat="45.74146989980206" lon="9.42348536848773"><ele>219.0</ele><time>2026-04-03T17:03:45Z</time></trkpt><trkpt lat="45.741640925313035" lon="9.423610806158498"><ele>219.0</ele><time>2026-04-03T17:03:46Z</time></trkpt><trkpt lat="45.74182077328" lon="9.423741327556842"><ele>219.0</ele><time>2026-04-03T17:03:47Z</time></trkpt><trkpt lat="45.742000494486064" lon="9.423866132234874"><ele>219.0</ele><time>2026-04-03T17:03:48Z</time></trkpt><trkpt lat="45.74218063450532" lon="9.423977085941008"><ele>218.0</ele><time>2026-04-03T17:03:49Z</time></trkpt><trkpt lat="45.742355881834726" lon="9.424073756684388"><ele>217.0</ele><time>2026-04-03T17:03:50Z</time></trkpt><trkpt lat="45.74252718322214" lon="9.424164261952233"><ele>216.0</ele><time>2026-04-03T17:03:51Z</time></trkpt><trkpt lat="45.74270354451678" lon="9.424260842432359"><ele>219.0</ele><time>2026-04-03T17:03:52Z</time></trkpt><trkpt lat="45.74288351453929" lon="9.424361402850074"><ele>222.0</ele><time>2026-04-03T17:03:53Z</time></trkpt><trkpt lat="45.743068469909836" lon="9.424467182251938"><ele>225.0</ele><time>2026-04-03T17:03:54Z</time></trkpt><trkpt lat="45.74325634330261" lon="9.424576610938944"><ele>222.66666666666669</ele><time>2026-04-03T17:03:55Z</time></trkpt><trkpt lat="45.74344521809436" lon="9.424687713237182"><ele>220.33333333333334</ele><time>2026-04-03T17:03:56Z</time></trkpt><trkpt lat="45.74363580033313" lon="9.424799683812429"><ele>218.0</ele><time>2026-04-03T17:03:57Z</time></trkpt><trkpt lat="45.74383228876827" lon="9.424911040198957"><ele>218.0</ele><time>2026-04-03T17:03:58Z</time></trkpt><trkpt lat="45.744030543190036" lon="9.425019416118214"><ele>218.0</ele><time>2026-04-03T17:03:59Z</time></trkpt><trkpt lat="45.7442301035831" lon="9.425129808831667"><ele>218.0</ele><time>2026-04-03T17:04:00Z</time></trkpt><trkpt lat="45.74442866529536" lon="9.425241104418571"><ele>219.33333333333334</ele><time>2026-04-03T17:04:01Z</time></trkpt><trkpt lat="45.74462686567662" lon="9.425356547876197"><ele>220.66666666666669</ele><time>2026-04-03T17:04:02Z</time></trkpt><trkpt lat="45.74482610574478" lon="9.425478723749011"><ele>222.0</ele><time>2026-04-03T17:04:03Z</time></trkpt><trkpt lat="45.7450194621154" lon="9.425600929677792"><ele>220.0</ele><time>2026-04-03T17:04:04Z</time></trkpt><trkpt lat="45.74521164207503" lon="9.425724108939898"><ele>218.0</ele><time>2026-04-03T17:04:05Z</time></trkpt><trkpt lat="45.74539553929403" lon="9.42583998275781"><ele>216.0</ele><time>2026-04-03T17:04:06Z</time></trkpt><trkpt lat="45.74557423708455" lon="9.425946211716054"><ele>216.0</ele><time>2026-04-03T17:04:07Z</time></trkpt><trkpt lat="45.74575722225815" lon="9.426039823230935"><ele>216.0</ele><time>2026-04-03T17:04:08Z</time></trkpt><trkpt lat="45.745951010126205" lon="9.426111329587272"><ele>216.0</ele><time>2026-04-03T17:04:09Z</time></trkpt><trkpt lat="45.746147616856774" lon="9.426148540873617"><ele>216.0</ele><time>2026-04-03T17:04:10Z</time></trkpt><trkpt lat="45.74634911077667" lon="9.426158084993466"><ele>216.0</ele><time>2026-04-03T17:04:11Z</time></trkpt><trkpt lat="45.746558010029595" lon="9.426158374392479"><ele>216.0</ele><time>2026-04-03T17:04:12Z</time></trkpt><trkpt lat="45.74676821000153" lon="9.426163695789478"><ele>216.66666666666669</ele><time>2026-04-03T17:04:13Z</time></trkpt><trkpt lat="45.74697825585732" lon="9.426179655819597"><ele>217.33333333333334</ele><time>2026-04-03T17:04:14Z</time></trkpt><trkpt lat="45.747191285299614" lon="9.426201421125384"><ele>218.0</ele><time>2026-04-03T17:04:14.999Z</time></trkpt><trkpt lat="45.74740414848012" lon="9.426223339284123"><ele>218.0</ele><time>2026-04-03T17:04:15.999Z</time></trkpt><trkpt lat="45.74761829931945" lon="9.426243927916326"><ele>218.0</ele><time>2026-04-03T17:04:16.999Z</time></trkpt><trkpt lat="45.74783011199874" lon="9.426264527573535"><ele>218.0</ele><time>2026-04-03T17:04:17.999Z</time></trkpt><trkpt lat="45.74803918492763" lon="9.426287110840764"><ele>217.0</ele><time>2026-04-03T17:04:18.999Z</time></trkpt><trkpt lat="45.748247890117106" lon="9.42630824715516"><ele>216.0</ele><time>2026-04-03T17:04:19.999Z</time></trkpt><trkpt lat="45.74845319756272" lon="9.42632939317545"><ele>215.0</ele><time>2026-04-03T17:04:20.999Z</time></trkpt><trkpt lat="45.748663299591634" lon="9.426351003892409"><ele>213.33333333333334</ele><time>2026-04-03T17:04:21.999Z</time></trkpt><trkpt lat="45.748871073769514" lon="9.426372543718914"><ele>211.66666666666669</ele><time>2026-04-03T17:04:22.999Z</time></trkpt><trkpt lat="45.749073777525" lon="9.42639328681418"><ele>210.0</ele><time>2026-04-03T17:04:23.999Z</time></trkpt><trkpt lat="45.749262414438064" lon="9.42641437530697"><ele>209.66666666666669</ele><time>2026-04-03T17:04:24.999Z</time></trkpt><trkpt lat="45.749442085405434" lon="9.42643442261894"><ele>209.33333333333334</ele><time>2026-04-03T17:04:25.999Z</time></trkpt><trkpt lat="45.74960731374453" lon="9.426454856723497"><ele>209.0</ele><time>2026-04-03T17:04:26.999Z</time></trkpt><trkpt lat="45.74976579416653" lon="9.426473516480081"><ele>209.0</ele><time>2026-04-03T17:04:27.999Z</time></trkpt><trkpt lat="45.74991260672418" lon="9.426488335479588"><ele>209.0</ele><time>2026-04-03T17:04:28.999Z</time></trkpt><trkpt lat="45.75004986315241" lon="9.426505650550496"><ele>209.0</ele><time>2026-04-03T17:04:29.999Z</time></trkpt><trkpt lat="45.7501757838286" lon="9.426535736993737"><ele>209.0</ele><time>2026-04-03T17:04:30.999Z</time></trkpt><trkpt lat="45.75028595947514" lon="9.426592812969524"><ele>208.79999999999998</ele><time>2026-04-03T17:04:31.999Z</time></trkpt><trkpt lat="45.7503829386062" lon="9.426670322697682"><ele>208.6</ele><time>2026-04-03T17:04:32.999Z</time></trkpt><trkpt lat="45.75046903075599" lon="9.426718625323595"><ele>208.4</ele><time>2026-04-03T17:04:33.999Z</time></trkpt><trkpt lat="45.75055385638899" lon="9.426712741141502"><ele>208.2</ele><time>2026-04-03T17:04:34.999Z</time></trkpt><trkpt lat="45.750633770395275" lon="9.426661603695539"><ele>208.0</ele><time>2026-04-03T17:04:35.999Z</time></trkpt><trkpt lat="45.75070641610381" lon="9.426600650087499"><ele>208.0</ele><time>2026-04-03T17:04:36.999Z</time></trkpt><trkpt lat="45.75078796503198" lon="9.426571210399851"><ele>208.0</ele><time>2026-04-03T17:04:37.999Z</time></trkpt><trkpt lat="45.75087182271082" lon="9.426570759968376"><ele>208.0</ele><time>2026-04-03T17:04:38.999Z</time></trkpt><trkpt lat="45.75096359767072" lon="9.426581379363009"><ele>208.0</ele><time>2026-04-03T17:04:39.999Z</time></trkpt><trkpt lat="45.75106185893365" lon="9.426589665992532"><ele>208.0</ele><time>2026-04-03T17:04:40.999Z</time></trkpt><trkpt lat="45.751161115746335" lon="9.426592895370405"><ele>208.4</ele><time>2026-04-03T17:04:41.999Z</time></trkpt><trkpt lat="45.751264072977996" lon="9.426590051928951"><ele>208.8</ele><time>2026-04-03T17:04:42.999Z</time></trkpt><trkpt lat="45.751371894012" lon="9.426587509502191"><ele>209.2</ele><time>2026-04-03T17:04:43.999Z</time></trkpt><trkpt lat="45.751483363471024" lon="9.426586692964818"><ele>209.6</ele><time>2026-04-03T17:04:44.999Z</time></trkpt><trkpt lat="45.75159964513427" lon="9.426589216969965"><ele>210.0</ele><time>2026-04-03T17:04:45.999Z</time></trkpt><trkpt lat="45.75172079926697" lon="9.426593641842839"><ele>210.0</ele><time>2026-04-03T17:04:46.999Z</time></trkpt><trkpt lat="45.75185071195293" lon="9.426597375988749"><ele>210.0</ele><time>2026-04-03T17:04:47.999Z</time></trkpt><trkpt lat="45.751992385568094" lon="9.426602016393094"><ele>210.0</ele><time>2026-04-03T17:04:48.999Z</time></trkpt><trkpt lat="45.75213520142907" lon="9.426607493616492"><ele>210.0</ele><time>2026-04-03T17:04:49.999Z</time></trkpt><trkpt lat="45.75227706827269" lon="9.426612836510552"><ele>211.0</ele><time>2026-04-03T17:04:50.999Z</time></trkpt><trkpt lat="45.75242349112182" lon="9.426617454079722"><ele>212.0</ele><time>2026-04-03T17:04:51.999Z</time></trkpt><trkpt lat="45.752568517207486" lon="9.426624327182074"><ele>213.0</ele><time>2026-04-03T17:04:52.999Z</time></trkpt><trkpt lat="45.75271485837739" lon="9.426629461856448"><ele>214.0</ele><time>2026-04-03T17:04:53.999Z</time></trkpt><trkpt lat="45.752858748622145" lon="9.426635684890794"><ele>214.5</ele><time>2026-04-03T17:04:54.999Z</time></trkpt><trkpt lat="45.752999545425276" lon="9.426642796660214"><ele>215.0</ele><time>2026-04-03T17:04:55.999Z</time></trkpt><trkpt lat="45.75314054640355" lon="9.426647839959024"><ele>215.5</ele><time>2026-04-03T17:04:56.999Z</time></trkpt><trkpt lat="45.75327930443778" lon="9.426646948563949"><ele>216.0</ele><time>2026-04-03T17:04:57.999Z</time></trkpt><trkpt lat="45.75341870346995" lon="9.42664466282454"><ele>216.5</ele><time>2026-04-03T17:04:58.999Z</time></trkpt><trkpt lat="45.75355759465715" lon="9.426649476701746"><ele>217.0</ele><time>2026-04-03T17:04:59.999Z</time></trkpt><trkpt lat="45.753693151879915" lon="9.426660884414058"><ele>217.5</ele><time>2026-04-03T17:05:00.999Z</time></trkpt><trkpt lat="45.75382538000271" lon="9.426670693425251"><ele>218.0</ele><time>2026-04-03T17:05:01.999Z</time></trkpt><trkpt lat="45.75395306854809" lon="9.426674997902419"><ele>218.0</ele><time>2026-04-03T17:05:02.999Z</time></trkpt><trkpt lat="45.754074529960086" lon="9.426678341899965"><ele>218.0</ele><time>2026-04-03T17:05:03.999Z</time></trkpt><trkpt lat="45.754194481755874" lon="9.42668319052506"><ele>218.0</ele><time>2026-04-03T17:05:04.999Z</time></trkpt><trkpt lat="45.75431178544308" lon="9.426687734951635"><ele>218.0</ele><time>2026-04-03T17:05:05.999Z</time></trkpt><trkpt lat="45.75442281954712" lon="9.426691325598588"><ele>218.4</ele><time>2026-04-03T17:05:06.999Z</time></trkpt><trkpt lat="45.75451992765015" lon="9.42669338408095"><ele>218.8</ele><time>2026-04-03T17:05:07.999Z</time></trkpt><trkpt lat="45.75460872854569" lon="9.426690903532025"><ele>219.2</ele><time>2026-04-03T17:05:08.999Z</time></trkpt><trkpt lat="45.75468672083343" lon="9.42669373635681"><ele>219.6</ele><time>2026-04-03T17:05:09.999Z</time></trkpt><trkpt lat="45.75475900908564" lon="9.426706727574295"><ele>220.0</ele><time>2026-04-03T17:05:10.999Z</time></trkpt><trkpt lat="45.75486582314694" lon="9.426775283224853"><ele>220.0</ele><time>2026-04-03T17:05:12.999Z</time></trkpt><trkpt lat="45.75494924975072" lon="9.426849111101587"><ele>220.0</ele><time>2026-04-03T17:05:14.999Z</time></trkpt><trkpt lat="45.75504627452155" lon="9.426825435995863"><ele>220.0</ele><time>2026-04-03T17:05:16.999Z</time></trkpt><trkpt lat="45.75514788668435" lon="9.426730769362331"><ele>220.0</ele><time>2026-04-03T17:05:18.999Z</time></trkpt><trkpt lat="45.7552165915741" lon="9.426709207578869"><ele>220.0</ele><time>2026-04-03T17:05:19.999Z</time></trkpt><trkpt lat="45.75528249254587" lon="9.426709578141596"><ele>219.7142857142857</ele><time>2026-04-03T17:05:20.999Z</time></trkpt><trkpt lat="45.755352715409664" lon="9.426714893099165"><ele>219.42857142857142</ele><time>2026-04-03T17:05:21.999Z</time></trkpt><trkpt lat="45.7554244782336" lon="9.426725158582077"><ele>219.14285714285714</ele><time>2026-04-03T17:05:22.999Z</time></trkpt><trkpt lat="45.75549715420744" lon="9.426724250511938"><ele>218.85714285714283</ele><time>2026-04-03T17:05:23.999Z</time></trkpt><trkpt lat="45.755577250462025" lon="9.426729478264757"><ele>218.57142857142858</ele><time>2026-04-03T17:05:24.999Z</time></trkpt><trkpt lat="45.755649139151004" lon="9.426745393945293"><ele>218.28571428571428</ele><time>2026-04-03T17:05:25.999Z</time></trkpt><trkpt lat="45.755713157355714" lon="9.426763334462171"><ele>218.0</ele><time>2026-04-03T17:05:26.999Z</time></trkpt><trkpt lat="45.75580543216501" lon="9.426843836910416"><ele>218.0</ele><time>2026-04-03T17:05:28.999Z</time></trkpt><trkpt lat="45.75589719094725" lon="9.426913414213226"><ele>218.0</ele><time>2026-04-03T17:05:30.999Z</time></trkpt><trkpt lat="45.75599787461568" lon="9.426862722632626"><ele>218.0</ele><time>2026-04-03T17:05:32.999Z</time></trkpt><trkpt lat="45.75607041503438" lon="9.426815321622371"><ele>218.0</ele><time>2026-04-03T17:05:33.999Z</time></trkpt><trkpt lat="45.756176805964515" lon="9.426777674629902"><ele>218.0</ele><time>2026-04-03T17:05:34.999Z</time></trkpt><trkpt lat="45.75633752391993" lon="9.426746736111049"><ele>218.0</ele><time>2026-04-03T17:05:35.999Z</time></trkpt><trkpt lat="45.75655554939341" lon="9.42673745523104"><ele>218.0</ele><time>2026-04-03T17:05:36.999Z</time></trkpt><trkpt lat="45.75679611489839" lon="9.426760551208632"><ele>215.0</ele><time>2026-04-03T17:05:37.999Z</time></trkpt><trkpt lat="45.757045258230775" lon="9.426794173266767"><ele>212.0</ele><time>2026-04-03T17:05:39Z</time></trkpt><trkpt lat="45.75729979006373" lon="9.426814537406065"><ele>212.0</ele><time>2026-04-03T17:05:40Z</time></trkpt><trkpt lat="45.757556304714" lon="9.426824161654286"><ele>212.0</ele><time>2026-04-03T17:05:41Z</time></trkpt><trkpt lat="45.75781266149968" lon="9.426833976270222"><ele>212.0</ele><time>2026-04-03T17:05:42Z</time></trkpt><trkpt lat="45.75807466185033" lon="9.426842850749733"><ele>212.0</ele><time>2026-04-03T17:05:43Z</time></trkpt><trkpt lat="45.75833374043197" lon="9.426849727365013"><ele>217.0</ele><time>2026-04-03T17:05:44Z</time></trkpt><trkpt lat="45.75858536587479" lon="9.426853271460605"><ele>222.0</ele><time>2026-04-03T17:05:45Z</time></trkpt><trkpt lat="45.75882964563376" lon="9.42685215667114"><ele>222.0</ele><time>2026-04-03T17:05:46Z</time></trkpt><trkpt lat="45.75906938725162" lon="9.426844565676193"><ele>222.0</ele><time>2026-04-03T17:05:47Z</time></trkpt><trkpt lat="45.75930591043571" lon="9.42682914433065"><ele>219.33333333333331</ele><time>2026-04-03T17:05:48Z</time></trkpt><trkpt lat="45.759530496964764" lon="9.426811361239302"><ele>216.66666666666666</ele><time>2026-04-03T17:05:49Z</time></trkpt><trkpt lat="45.75974970630083" lon="9.426791839869722"><ele>214.0</ele><time>2026-04-03T17:05:50Z</time></trkpt><trkpt lat="45.75996664963376" lon="9.426774117572581"><ele>214.0</ele><time>2026-04-03T17:05:51Z</time></trkpt><trkpt lat="45.76019622206502" lon="9.42675064811991"><ele>214.0</ele><time>2026-04-03T17:05:52Z</time></trkpt><trkpt lat="45.760426050208636" lon="9.426720012156322"><ele>212.0</ele><time>2026-04-03T17:05:53Z</time></trkpt><trkpt lat="45.7606686332593" lon="9.426694658853163"><ele>210.0</ele><time>2026-04-03T17:05:54Z</time></trkpt><trkpt lat="45.760909583494254" lon="9.426675305781"><ele>210.5</ele><time>2026-04-03T17:05:55Z</time></trkpt><trkpt lat="45.76115165187215" lon="9.426655171190847"><ele>211.0</ele><time>2026-04-03T17:05:56Z</time></trkpt><trkpt lat="45.76140334060105" lon="9.426635383574492"><ele>211.0</ele><time>2026-04-03T17:05:57Z</time></trkpt><trkpt lat="45.761669069494985" lon="9.426616544380687"><ele>211.0</ele><time>2026-04-03T17:05:58Z</time></trkpt><trkpt lat="45.76193443169906" lon="9.426599678843075"><ele>213.0</ele><time>2026-04-03T17:05:59Z</time></trkpt><trkpt lat="45.76219200113262" lon="9.426581976535823"><ele>215.0</ele><time>2026-04-03T17:06:00Z</time></trkpt><trkpt lat="45.76243591953519" lon="9.426561748701555"><ele>215.0</ele><time>2026-04-03T17:06:01Z</time></trkpt><trkpt lat="45.762663595245435" lon="9.426543091606012"><ele>215.0</ele><time>2026-04-03T17:06:02Z</time></trkpt><trkpt lat="45.76287529076706" lon="9.426514505103297"><ele>215.0</ele><time>2026-04-03T17:06:03Z</time></trkpt><trkpt lat="45.76307610911496" lon="9.426464522543476"><ele>214.33333333333334</ele><time>2026-04-03T17:06:04Z</time></trkpt><trkpt lat="45.76326844650089" lon="9.426396268508414"><ele>213.66666666666669</ele><time>2026-04-03T17:06:05Z</time></trkpt><trkpt lat="45.7634621152355" lon="9.426313118559374"><ele>213.0</ele><time>2026-04-03T17:06:06Z</time></trkpt><trkpt lat="45.76366475411398" lon="9.42621457897488"><ele>213.0</ele><time>2026-04-03T17:06:07Z</time></trkpt><trkpt lat="45.76386822605554" lon="9.426122248898697"><ele>213.0</ele><time>2026-04-03T17:06:08Z</time></trkpt><trkpt lat="45.7640758149363" lon="9.426040614126663"><ele>213.0</ele><time>2026-04-03T17:06:09Z</time></trkpt><trkpt lat="45.76428150730612" lon="9.425967598321572"><ele>209.66666666666669</ele><time>2026-04-03T17:06:10Z</time></trkpt><trkpt lat="45.76448827127058" lon="9.425890528282137"><ele>206.33333333333334</ele><time>2026-04-03T17:06:11Z</time></trkpt><trkpt lat="45.76469082050314" lon="9.425807406757734"><ele>203.0</ele><time>2026-04-03T17:06:12Z</time></trkpt><trkpt lat="45.764897367022996" lon="9.425725139461425"><ele>203.0</ele><time>2026-04-03T17:06:13Z</time></trkpt><trkpt lat="45.76510509164343" lon="9.425648464964857"><ele>203.0</ele><time>2026-04-03T17:06:14Z</time></trkpt><trkpt lat="45.7653139910102" lon="9.425570356241712"><ele>203.0</ele><time>2026-04-03T17:06:15Z</time></trkpt><trkpt lat="45.76551977633916" lon="9.425486800814456"><ele>204.0</ele><time>2026-04-03T17:06:16Z</time></trkpt><trkpt lat="45.7657255700989" lon="9.425396509864026"><ele>205.0</ele><time>2026-04-03T17:06:17Z</time></trkpt><trkpt lat="45.76593205893186" lon="9.425308226492497"><ele>206.0</ele><time>2026-04-03T17:06:18Z</time></trkpt><trkpt lat="45.76613663226186" lon="9.425222765841"><ele>206.0</ele><time>2026-04-03T17:06:19Z</time></trkpt><trkpt lat="45.766342695094224" lon="9.425138960892339"><ele>206.0</ele><time>2026-04-03T17:06:20Z</time></trkpt><trkpt lat="45.76654788541803" lon="9.425054694677383"><ele>206.0</ele><time>2026-04-03T17:06:21Z</time></trkpt><trkpt lat="45.766753688339044" lon="9.424970813708516"><ele>205.0</ele><time>2026-04-03T17:06:22Z</time></trkpt><trkpt lat="45.76695313648662" lon="9.424898185650402"><ele>204.0</ele><time>2026-04-03T17:06:23Z</time></trkpt><trkpt lat="45.76714896023361" lon="9.424841574025754"><ele>203.0</ele><time>2026-04-03T17:06:24Z</time></trkpt><trkpt lat="45.76733935504117" lon="9.42480453513965"><ele>203.0</ele><time>2026-04-03T17:06:25Z</time></trkpt><trkpt lat="45.76752881598691" lon="9.42478092703076"><ele>203.0</ele><time>2026-04-03T17:06:26Z</time></trkpt><trkpt lat="45.767719836437195" lon="9.424771132507466"><ele>203.0</ele><time>2026-04-03T17:06:26.999Z</time></trkpt><trkpt lat="45.767903656272836" lon="9.424774866039916"><ele>202.33333333333334</ele><time>2026-04-03T17:06:27.999Z</time></trkpt><trkpt lat="45.76807509673288" lon="9.424787441088275"><ele>201.66666666666669</ele><time>2026-04-03T17:06:28.999Z</time></trkpt><trkpt lat="45.768253961024" lon="9.424800661614436"><ele>201.0</ele><time>2026-04-03T17:06:29.999Z</time></trkpt><trkpt lat="45.768440989458696" lon="9.424813212564057"><ele>201.33333333333331</ele><time>2026-04-03T17:06:30.999Z</time></trkpt><trkpt lat="45.768628493555646" lon="9.424829235098683"><ele>201.66666666666666</ele><time>2026-04-03T17:06:31.999Z</time></trkpt><trkpt lat="45.76880965088701" lon="9.424851912655354"><ele>202.0</ele><time>2026-04-03T17:06:32.999Z</time></trkpt><trkpt lat="45.76897807687602" lon="9.424868839743997"><ele>202.0</ele><time>2026-04-03T17:06:33.999Z</time></trkpt><trkpt lat="45.76914288490099" lon="9.424876499279454"><ele>202.0</ele><time>2026-04-03T17:06:34.999Z</time></trkpt><trkpt lat="45.76931599027879" lon="9.42488078234088"><ele>202.0</ele><time>2026-04-03T17:06:35.999Z</time></trkpt><trkpt lat="45.769502099507555" lon="9.424893626753844"><ele>202.33333333333331</ele><time>2026-04-03T17:06:36.999Z</time></trkpt><trkpt lat="45.769689794739364" lon="9.424914551316641"><ele>202.66666666666669</ele><time>2026-04-03T17:06:37.999Z</time></trkpt><trkpt lat="45.769878912207815" lon="9.42494197398975"><ele>203.0</ele><time>2026-04-03T17:06:38.999Z</time></trkpt><trkpt lat="45.77006753113968" lon="9.424967350379472"><ele>202.0</ele><time>2026-04-03T17:06:39.999Z</time></trkpt><trkpt lat="45.77025463293838" lon="9.424984759560681"><ele>201.0</ele><time>2026-04-03T17:06:40.999Z</time></trkpt><trkpt lat="45.77044052072616" lon="9.424994182678555"><ele>200.0</ele><time>2026-04-03T17:06:41.999Z</time></trkpt><trkpt lat="45.77062496692352" lon="9.425004840957481"><ele>200.0</ele><time>2026-04-03T17:06:42.999Z</time></trkpt><trkpt lat="45.77080464400589" lon="9.425012857285205"><ele>200.0</ele><time>2026-04-03T17:06:43.999Z</time></trkpt><trkpt lat="45.77098668752325" lon="9.425021523382853"><ele>200.0</ele><time>2026-04-03T17:06:44.999Z</time></trkpt><trkpt lat="45.771164969058255" lon="9.4250357964644"><ele>200.66666666666669</ele><time>2026-04-03T17:06:45.999Z</time></trkpt><trkpt lat="45.771342949008826" lon="9.425049771287709"><ele>201.33333333333331</ele><time>2026-04-03T17:06:46.999Z</time></trkpt><trkpt lat="45.771524843242624" lon="9.425056702980056"><ele>202.0</ele><time>2026-04-03T17:06:47.999Z</time></trkpt><trkpt lat="45.771705837888135" lon="9.425064964799361"><ele>203.0</ele><time>2026-04-03T17:06:48.999Z</time></trkpt><trkpt lat="45.77189268796454" lon="9.425076394042355"><ele>204.0</ele><time>2026-04-03T17:06:49.999Z</time></trkpt><trkpt lat="45.77208057477296" lon="9.42509584969847"><ele>205.0</ele><time>2026-04-03T17:06:50.999Z</time></trkpt><trkpt lat="45.77227176969346" lon="9.425116444524868"><ele>205.0</ele><time>2026-04-03T17:06:51.999Z</time></trkpt><trkpt lat="45.772461010539125" lon="9.425138688371842"><ele>205.0</ele><time>2026-04-03T17:06:52.999Z</time></trkpt><trkpt lat="45.772652017259354" lon="9.425159676722451"><ele>205.0</ele><time>2026-04-03T17:06:53.999Z</time></trkpt><trkpt lat="45.7728396471459" lon="9.425177330734117"><ele>205.0</ele><time>2026-04-03T17:06:54.999Z</time></trkpt><trkpt lat="45.77302629734545" lon="9.425192357648534"><ele>205.0</ele><time>2026-04-03T17:06:55.999Z</time></trkpt><trkpt lat="45.773210883016255" lon="9.425204237516473"><ele>205.0</ele><time>2026-04-03T17:06:56.999Z</time></trkpt><trkpt lat="45.77338391301124" lon="9.425215299676148"><ele>206.0</ele><time>2026-04-03T17:06:57.999Z</time></trkpt><trkpt lat="45.7735448488663" lon="9.425224862179244"><ele>207.0</ele><time>2026-04-03T17:06:58.999Z</time></trkpt><trkpt lat="45.77369865719204" lon="9.425235280904278"><ele>208.0</ele><time>2026-04-03T17:06:59.999Z</time></trkpt><trkpt lat="45.773848537430794" lon="9.425247777833716"><ele>208.0</ele><time>2026-04-03T17:07:00.999Z</time></trkpt><trkpt lat="45.77399614738945" lon="9.425259425852483"><ele>208.0</ele><time>2026-04-03T17:07:01.999Z</time></trkpt><trkpt lat="45.77414140402646" lon="9.425268269133813"><ele>208.0</ele><time>2026-04-03T17:07:02.999Z</time></trkpt><trkpt lat="45.774284730791756" lon="9.425278167561983"><ele>208.0</ele><time>2026-04-03T17:07:03.999Z</time></trkpt><trkpt lat="45.774421745458" lon="9.425288613786023"><ele>208.25</ele><time>2026-04-03T17:07:04.999Z</time></trkpt><trkpt lat="45.77455436059908" lon="9.425298371965676"><ele>208.5</ele><time>2026-04-03T17:07:05.999Z</time></trkpt><trkpt lat="45.774689030835404" lon="9.425312703749109"><ele>208.75</ele><time>2026-04-03T17:07:06.999Z</time></trkpt><trkpt lat="45.77481626700855" lon="9.425324838597849"><ele>209.0</ele><time>2026-04-03T17:07:07.999Z</time></trkpt><trkpt lat="45.77493853685598" lon="9.42533803287692"><ele>209.0</ele><time>2026-04-03T17:07:08.999Z</time></trkpt><trkpt lat="45.77505295948439" lon="9.425352410189296"><ele>209.0</ele><time>2026-04-03T17:07:09.999Z</time></trkpt><trkpt lat="45.775157224942284" lon="9.425369569970742"><ele>209.0</ele><time>2026-04-03T17:07:10.999Z</time></trkpt><trkpt lat="45.77524760779714" lon="9.425385879487154"><ele>209.0</ele><time>2026-04-03T17:07:11.999Z</time></trkpt><trkpt lat="45.77532990146967" lon="9.425402969733947"><ele>209.0</ele><time>2026-04-03T17:07:12.999Z</time></trkpt><trkpt lat="45.775404638637184" lon="9.425417855139957"><ele>209.33333333333334</ele><time>2026-04-03T17:07:13.999Z</time></trkpt><trkpt lat="45.77547667876185" lon="9.425444527677337"><ele>209.66666666666669</ele><time>2026-04-03T17:07:14.999Z</time></trkpt><trkpt lat="45.775548141045356" lon="9.425477250159686"><ele>210.0</ele><time>2026-04-03T17:07:15.999Z</time></trkpt><trkpt lat="45.77561794855049" lon="9.425519526183615"><ele>210.33333333333331</ele><time>2026-04-03T17:07:16.999Z</time></trkpt><trkpt lat="45.77568423581103" lon="9.425578470406172"><ele>210.66666666666666</ele><time>2026-04-03T17:07:17.999Z</time></trkpt><trkpt lat="45.77574887710004" lon="9.425650984960873"><ele>211.0</ele><time>2026-04-03T17:07:18.999Z</time></trkpt><trkpt lat="45.77581836886257" lon="9.425726252693817"><ele>211.0</ele><time>2026-04-03T17:07:19.999Z</time></trkpt><trkpt lat="45.77590709710314" lon="9.425768184541887"><ele>211.0</ele><time>2026-04-03T17:07:20.999Z</time></trkpt><trkpt lat="45.77600941266572" lon="9.425763968396843"><ele>211.0</ele><time>2026-04-03T17:07:21.999Z</time></trkpt><trkpt lat="45.77611747656005" lon="9.425763617861195"><ele>211.0</ele><time>2026-04-03T17:07:22.999Z</time></trkpt><trkpt lat="45.776231913839986" lon="9.42578057964029"><ele>211.0</ele><time>2026-04-03T17:07:23.999Z</time></trkpt><trkpt lat="45.77634915849026" lon="9.425807630220469"><ele>211.0</ele><time>2026-04-03T17:07:24.999Z</time></trkpt><trkpt lat="45.77646608313467" lon="9.425840083438443"><ele>211.0</ele><time>2026-04-03T17:07:25.999Z</time></trkpt><trkpt lat="45.77658629927293" lon="9.425864965141926"><ele>211.0</ele><time>2026-04-03T17:07:26.999Z</time></trkpt><trkpt lat="45.77671111782158" lon="9.425877915855757"><ele>211.0</ele><time>2026-04-03T17:07:27.999Z</time></trkpt><trkpt lat="45.776843326859556" lon="9.425874393298129"><ele>211.5</ele><time>2026-04-03T17:07:28.999Z</time></trkpt><trkpt lat="45.77698039594414" lon="9.425857802131386"><ele>212.0</ele><time>2026-04-03T17:07:29.999Z</time></trkpt><trkpt lat="45.77712135189551" lon="9.425828287394339"><ele>212.5</ele><time>2026-04-03T17:07:30.999Z</time></trkpt><trkpt lat="45.77726646620122" lon="9.425785338390632"><ele>213.0</ele><time>2026-04-03T17:07:31.999Z</time></trkpt><trkpt lat="45.7774091164312" lon="9.425727283845669"><ele>213.0</ele><time>2026-04-03T17:07:32.999Z</time></trkpt><trkpt lat="45.77755733525923" lon="9.425665757737319"><ele>213.0</ele><time>2026-04-03T17:07:33.999Z</time></trkpt><trkpt lat="45.777702352811865" lon="9.425598725489964"><ele>213.0</ele><time>2026-04-03T17:07:34.999Z</time></trkpt><trkpt lat="45.77784828981174" lon="9.425528880548963"><ele>218.33333333333331</ele><time>2026-04-03T17:07:35.999Z</time></trkpt><trkpt lat="45.77799803386893" lon="9.425462637906909"><ele>223.66666666666666</ele><time>2026-04-03T17:07:36.999Z</time></trkpt><trkpt lat="45.778154562932734" lon="9.425393487544493"><ele>229.0</ele><time>2026-04-03T17:07:37.999Z</time></trkpt><trkpt lat="45.77831193601128" lon="9.42532487887671"><ele>229.0</ele><time>2026-04-03T17:07:38.999Z</time></trkpt><trkpt lat="45.77846772101308" lon="9.425255156856675"><ele>229.0</ele><time>2026-04-03T17:07:39.999Z</time></trkpt><trkpt lat="45.77862504853459" lon="9.42518513663674"><ele>229.0</ele><time>2026-04-03T17:07:40.999Z</time></trkpt><trkpt lat="45.77878224709683" lon="9.425110836168825"><ele>226.33333333333331</ele><time>2026-04-03T17:07:41.999Z</time></trkpt><trkpt lat="45.77894124088239" lon="9.42504741949798"><ele>223.66666666666669</ele><time>2026-04-03T17:07:42.999Z</time></trkpt><trkpt lat="45.779091713612424" lon="9.424992195166686"><ele>221.0</ele><time>2026-04-03T17:07:44Z</time></trkpt><trkpt lat="45.77924707386758" lon="9.424934872046506"><ele>220.5</ele><time>2026-04-03T17:07:45Z</time></trkpt><trkpt lat="45.77939848895761" lon="9.42488157532328"><ele>220.0</ele><time>2026-04-03T17:07:46Z</time></trkpt><trkpt lat="45.77954260123503" lon="9.424836992316965"><ele>219.5</ele><time>2026-04-03T17:07:47Z</time></trkpt><trkpt lat="45.779685936824976" lon="9.424797525615903"><ele>219.0</ele><time>2026-04-03T17:07:48Z</time></trkpt><trkpt lat="45.77982729064484" lon="9.424761609483161"><ele>219.0</ele><time>2026-04-03T17:07:49Z</time></trkpt><trkpt lat="45.77996737703028" lon="9.424726123343282"><ele>219.0</ele><time>2026-04-03T17:07:50Z</time></trkpt><trkpt lat="45.780104167856685" lon="9.424687202383092"><ele>219.0</ele><time>2026-04-03T17:07:51Z</time></trkpt><trkpt lat="45.78024132041649" lon="9.424648818147679"><ele>219.0</ele><time>2026-04-03T17:07:52Z</time></trkpt><trkpt lat="45.78037384185039" lon="9.424613125437293"><ele>219.5</ele><time>2026-04-03T17:07:53Z</time></trkpt><trkpt lat="45.78050053664063" lon="9.424580802682579"><ele>220.0</ele><time>2026-04-03T17:07:54Z</time></trkpt><trkpt lat="45.78062118074509" lon="9.424550656184646"><ele>220.5</ele><time>2026-04-03T17:07:55Z</time></trkpt><trkpt lat="45.78073052184863" lon="9.424525205712387"><ele>221.0</ele><time>2026-04-03T17:07:56Z</time></trkpt><trkpt lat="45.78083016189159" lon="9.42449881618336"><ele>221.0</ele><time>2026-04-03T17:07:57Z</time></trkpt><trkpt lat="45.78092822309481" lon="9.424471060929966"><ele>221.00000000000003</ele><time>2026-04-03T17:07:58Z</time></trkpt><trkpt lat="45.78102642844971" lon="9.424442982510902"><ele>221.00000000000003</ele><time>2026-04-03T17:07:59Z</time></trkpt><trkpt lat="45.78112492642747" lon="9.424415777594312"><ele>221.0</ele><time>2026-04-03T17:08:00Z</time></trkpt><trkpt lat="45.78122125867747" lon="9.424389652599054"><ele>221.0</ele><time>2026-04-03T17:08:01Z</time></trkpt><trkpt lat="45.78131667262557" lon="9.424364983581915"><ele>220.8</ele><time>2026-04-03T17:08:02Z</time></trkpt><trkpt lat="45.78141029477858" lon="9.424341851015619"><ele>220.60000000000002</ele><time>2026-04-03T17:08:03Z</time></trkpt><trkpt lat="45.78150358596858" lon="9.424321522314784"><ele>220.4</ele><time>2026-04-03T17:08:04Z</time></trkpt><trkpt lat="45.78159246730208" lon="9.42430288610923"><ele>220.2</ele><time>2026-04-03T17:08:05Z</time></trkpt><trkpt lat="45.78166438399071" lon="9.424289294450295"><ele>220.0</ele><time>2026-04-03T17:08:06Z</time></trkpt><trkpt lat="45.781777732602905" lon="9.424280128854774"><ele>220.49999999999997</ele><time>2026-04-03T17:08:08Z</time></trkpt><trkpt lat="45.78185022183837" lon="9.424278965328128"><ele>221.0</ele><time>2026-04-03T17:08:09Z</time></trkpt><trkpt lat="45.78192342417614" lon="9.42427866837856"><ele>221.5</ele><time>2026-04-03T17:08:10Z</time></trkpt><trkpt lat="45.78200679115366" lon="9.424246261208637"><ele>222.0</ele><time>2026-04-03T17:08:11Z</time></trkpt><trkpt lat="45.78208331426508" lon="9.424200970292532"><ele>222.49999999999997</ele><time>2026-04-03T17:08:12Z</time></trkpt><trkpt lat="45.78217484225344" lon="9.424167456094514"><ele>223.0</ele><time>2026-04-03T17:08:13Z</time></trkpt><trkpt lat="45.78226270197625" lon="9.424143410563213"><ele>223.0</ele><time>2026-04-03T17:08:14Z</time></trkpt><trkpt lat="45.78236015901448" lon="9.424120979902321"><ele>223.0</ele><time>2026-04-03T17:08:15Z</time></trkpt><trkpt lat="45.78246393690329" lon="9.424101164981652"><ele>223.0</ele><time>2026-04-03T17:08:16Z</time></trkpt><trkpt lat="45.782571864268" lon="9.424072149650584"><ele>223.0</ele><time>2026-04-03T17:08:17Z</time></trkpt><trkpt lat="45.78268731874037" lon="9.4240364674954"><ele>223.0</ele><time>2026-04-03T17:08:18Z</time></trkpt><trkpt lat="45.78280137317154" lon="9.424004691276943"><ele>223.0</ele><time>2026-04-03T17:08:19Z</time></trkpt><trkpt lat="45.78291379709261" lon="9.423972991190777"><ele>223.0</ele><time>2026-04-03T17:08:20Z</time></trkpt><trkpt lat="45.7830280429638" lon="9.423941178541286"><ele>223.0</ele><time>2026-04-03T17:08:21Z</time></trkpt><trkpt lat="45.78314244858423" lon="9.423905091849452"><ele>223.0</ele><time>2026-04-03T17:08:22Z</time></trkpt><trkpt lat="45.78325807771964" lon="9.42387095426071"><ele>223.0</ele><time>2026-04-03T17:08:23Z</time></trkpt><trkpt lat="45.78337604631993" lon="9.4238337334674"><ele>223.0</ele><time>2026-04-03T17:08:24Z</time></trkpt><trkpt lat="45.78349277023415" lon="9.423791898892812"><ele>223.0</ele><time>2026-04-03T17:08:25Z</time></trkpt><trkpt lat="45.78360839195353" lon="9.423737610732037"><ele>223.0</ele><time>2026-04-03T17:08:26Z</time></trkpt><trkpt lat="45.78371668295845" lon="9.4236701338416"><ele>222.4</ele><time>2026-04-03T17:08:27Z</time></trkpt><trkpt lat="45.783817727744776" lon="9.423609281974155"><ele>221.8</ele><time>2026-04-03T17:08:28Z</time></trkpt><trkpt lat="45.783911197441434" lon="9.423549666934067"><ele>221.2</ele><time>2026-04-03T17:08:28.999Z</time></trkpt><trkpt lat="45.78399948266761" lon="9.423488938061853"><ele>220.6</ele><time>2026-04-03T17:08:29.999Z</time></trkpt><trkpt lat="45.78408545680761" lon="9.423429173147866"><ele>220.0</ele><time>2026-04-03T17:08:30.999Z</time></trkpt><trkpt lat="45.78416606412797" lon="9.42336650287267"><ele>219.99999999999997</ele><time>2026-04-03T17:08:31.999Z</time></trkpt><trkpt lat="45.78424231457498" lon="9.42330510433187"><ele>220.0</ele><time>2026-04-03T17:08:32.999Z</time></trkpt><trkpt lat="45.784313699779624" lon="9.423245637606069"><ele>220.0</ele><time>2026-04-03T17:08:33.999Z</time></trkpt><trkpt lat="45.78438566866304" lon="9.423181980522026"><ele>220.0</ele><time>2026-04-03T17:08:34.999Z</time></trkpt><trkpt lat="45.78444023542228" lon="9.423125473313846"><ele>219.99999999999997</ele><time>2026-04-03T17:08:35.999Z</time></trkpt><trkpt lat="45.78448960147643" lon="9.423068526104876"><ele>220.0</ele><time>2026-04-03T17:08:38.999Z</time></trkpt><trkpt lat="45.78455156963784" lon="9.42300379261196"><ele>220.16666666666666</ele><time>2026-04-03T17:08:40.999Z</time></trkpt><trkpt lat="45.78460908095228" lon="9.422963169755626"><ele>220.33333333333331</ele><time>2026-04-03T17:08:41.999Z</time></trkpt><trkpt lat="45.78467930971097" lon="9.422916118831653"><ele>220.5</ele><time>2026-04-03T17:08:42.999Z</time></trkpt><trkpt lat="45.78474908440363" lon="9.422864737907835"><ele>220.66666666666669</ele><time>2026-04-03T17:08:43.999Z</time></trkpt><trkpt lat="45.78481472449379" lon="9.42281255355695"><ele>220.83333333333334</ele><time>2026-04-03T17:08:44.999Z</time></trkpt><trkpt lat="45.7848853956166" lon="9.422756829091224"><ele>221.0</ele><time>2026-04-03T17:08:45.999Z</time></trkpt><trkpt lat="45.78495872170425" lon="9.42269901151639"><ele>221.00000000000003</ele><time>2026-04-03T17:08:46.999Z</time></trkpt><trkpt lat="45.78503098724567" lon="9.422643603064316"><ele>221.0</ele><time>2026-04-03T17:08:47.999Z</time></trkpt><trkpt lat="45.785104593909416" lon="9.422583561126022"><ele>221.0</ele><time>2026-04-03T17:08:48.999Z</time></trkpt><trkpt lat="45.785179146154796" lon="9.422521378238885"><ele>221.0</ele><time>2026-04-03T17:08:49.999Z</time></trkpt><trkpt lat="45.785257351699826" lon="9.422461710927296"><ele>221.00000000000003</ele><time>2026-04-03T17:08:50.999Z</time></trkpt><trkpt lat="45.78533596978333" lon="9.422402246900274"><ele>221.0</ele><time>2026-04-03T17:08:51.999Z</time></trkpt><trkpt lat="45.78541289360891" lon="9.422338981718436"><ele>220.4</ele><time>2026-04-03T17:08:52.999Z</time></trkpt><trkpt lat="45.7854875391978" lon="9.422276755193923"><ele>219.8</ele><time>2026-04-03T17:08:53.999Z</time></trkpt><trkpt lat="45.785565522445374" lon="9.422214419875553"><ele>219.20000000000002</ele><time>2026-04-03T17:08:54.999Z</time></trkpt><trkpt lat="45.78564809621058" lon="9.422149568976643"><ele>218.60000000000002</ele><time>2026-04-03T17:08:55.999Z</time></trkpt><trkpt lat="45.7857291955425" lon="9.422081415923838"><ele>218.0</ele><time>2026-04-03T17:08:56.999Z</time></trkpt><trkpt lat="45.78581565450295" lon="9.422009606660236"><ele>218.0</ele><time>2026-04-03T17:08:57.999Z</time></trkpt><trkpt lat="45.78590306462056" lon="9.421935833272814"><ele>218.0</ele><time>2026-04-03T17:08:58.999Z</time></trkpt><trkpt lat="45.78599503419352" lon="9.421858039250385"><ele>218.0</ele><time>2026-04-03T17:08:59.999Z</time></trkpt><trkpt lat="45.786091331306544" lon="9.421777827986984"><ele>218.0</ele><time>2026-04-03T17:09:00.999Z</time></trkpt><trkpt lat="45.78619386785231" lon="9.421694236320166"><ele>218.0</ele><time>2026-04-03T17:09:01.999Z</time></trkpt><trkpt lat="45.7863019646947" lon="9.421602725185977"><ele>217.75</ele><time>2026-04-03T17:09:02.999Z</time></trkpt><trkpt lat="45.78641512140944" lon="9.421509423339572"><ele>217.5</ele><time>2026-04-03T17:09:03.999Z</time></trkpt><trkpt lat="45.78653229240906" lon="9.421413453817388"><ele>217.25</ele><time>2026-04-03T17:09:04.999Z</time></trkpt><trkpt lat="45.786653336683784" lon="9.421314989452442"><ele>217.0</ele><time>2026-04-03T17:09:05.999Z</time></trkpt><trkpt lat="45.78677713303804" lon="9.421215418613656"><ele>216.25</ele><time>2026-04-03T17:09:06.999Z</time></trkpt><trkpt lat="45.78690184513108" lon="9.4211136193552"><ele>215.5</ele><time>2026-04-03T17:09:07.999Z</time></trkpt><trkpt lat="45.78703118909292" lon="9.42100687436212"><ele>214.75</ele><time>2026-04-03T17:09:08.999Z</time></trkpt><trkpt lat="45.787162565953" lon="9.42089911382984"><ele>214.0</ele><time>2026-04-03T17:09:09.999Z</time></trkpt><trkpt lat="45.78729508762243" lon="9.420793795544828"><ele>214.0</ele><time>2026-04-03T17:09:10.999Z</time></trkpt><trkpt lat="45.78742739629237" lon="9.420685002437049"><ele>214.0</ele><time>2026-04-03T17:09:11.999Z</time></trkpt><trkpt lat="45.78756130824466" lon="9.420574954309654"><ele>214.0</ele><time>2026-04-03T17:09:12.999Z</time></trkpt><trkpt lat="45.787693903850204" lon="9.42046561483291"><ele>214.0</ele><time>2026-04-03T17:09:13.999Z</time></trkpt><trkpt lat="45.78782866588105" lon="9.42035605572879"><ele>214.0</ele><time>2026-04-03T17:09:14.999Z</time></trkpt><trkpt lat="45.78796189824375" lon="9.420244238797084"><ele>214.0</ele><time>2026-04-03T17:09:15.999Z</time></trkpt><trkpt lat="45.78809768474102" lon="9.42013080893945"><ele>214.0</ele><time>2026-04-03T17:09:16.999Z</time></trkpt><trkpt lat="45.78823029216459" lon="9.42002004737591"><ele>214.0</ele><time>2026-04-03T17:09:17.999Z</time></trkpt><trkpt lat="45.788360349418156" lon="9.419907420878333"><ele>214.0</ele><time>2026-04-03T17:09:18.999Z</time></trkpt><trkpt lat="45.78848943091695" lon="9.419786382406537"><ele>213.5</ele><time>2026-04-03T17:09:20Z</time></trkpt><trkpt lat="45.78860951079032" lon="9.419666377444566"><ele>213.0</ele><time>2026-04-03T17:09:21Z</time></trkpt><trkpt lat="45.78872135893234" lon="9.419548240118862"><ele>212.5</ele><time>2026-04-03T17:09:22Z</time></trkpt><trkpt lat="45.7888231769302" lon="9.41943106667939"><ele>212.0</ele><time>2026-04-03T17:09:23Z</time></trkpt><trkpt lat="45.788916423263146" lon="9.419315334186381"><ele>212.0</ele><time>2026-04-03T17:09:24Z</time></trkpt><trkpt lat="45.789001651709135" lon="9.4192111716339"><ele>212.0</ele><time>2026-04-03T17:09:25Z</time></trkpt><trkpt lat="45.78907511351099" lon="9.41912201814012"><ele>212.0</ele><time>2026-04-03T17:09:26Z</time></trkpt><trkpt lat="45.789138386943044" lon="9.419049134514157"><ele>212.0</ele><time>2026-04-03T17:09:27Z</time></trkpt><trkpt lat="45.78923346702134" lon="9.41895338824765"><ele>212.0</ele><time>2026-04-03T17:09:29Z</time></trkpt><trkpt lat="45.7893216425144" lon="9.418869067270105"><ele>211.66666666666669</ele><time>2026-04-03T17:09:31Z</time></trkpt><trkpt lat="45.78938259419797" lon="9.418823415500249"><ele>211.33333333333334</ele><time>2026-04-03T17:09:33Z</time></trkpt><trkpt lat="45.78944732092312" lon="9.418797145975594"><ele>211.0</ele><time>2026-04-03T17:09:35Z</time></trkpt><trkpt lat="45.78956302342108" lon="9.418747183060729"><ele>210.66666666666669</ele><time>2026-04-03T17:09:37Z</time></trkpt><trkpt lat="45.78962189680116" lon="9.418678652526323"><ele>210.33333333333334</ele><time>2026-04-03T17:09:38Z</time></trkpt><trkpt lat="45.78966856432155" lon="9.41857387222914"><ele>210.0</ele><time>2026-04-03T17:09:39Z</time></trkpt><trkpt lat="45.78968875510553" lon="9.418432988303962"><ele>210.0</ele><time>2026-04-03T17:09:40Z</time></trkpt><trkpt lat="45.78971764376473" lon="9.418291863065848"><ele>210.0</ele><time>2026-04-03T17:09:41Z</time></trkpt><trkpt lat="45.78977080069378" lon="9.418148702048416"><ele>210.0</ele><time>2026-04-03T17:09:42Z</time></trkpt><trkpt lat="45.789840656136505" lon="9.418000355937847"><ele>210.0</ele><time>2026-04-03T17:09:43Z</time></trkpt><trkpt lat="45.78991224691585" lon="9.417859667021647"><ele>210.5</ele><time>2026-04-03T17:09:44Z</time></trkpt><trkpt lat="45.78999154175437" lon="9.4177156541777"><ele>211.0</ele><time>2026-04-03T17:09:45Z</time></trkpt><trkpt lat="45.79007419543356" lon="9.417568385949714"><ele>211.5</ele><time>2026-04-03T17:09:46Z</time></trkpt><trkpt lat="45.790157894827736" lon="9.417420204792617"><ele>212.0</ele><time>2026-04-03T17:09:47Z</time></trkpt><trkpt lat="45.79024226770536" lon="9.41727525932681"><ele>211.25</ele><time>2026-04-03T17:09:48Z</time></trkpt><trkpt lat="45.79032738371315" lon="9.417132389681823"><ele>210.5</ele><time>2026-04-03T17:09:49Z</time></trkpt><trkpt lat="45.79041101205863" lon="9.416991438315755"><ele>209.75</ele><time>2026-04-03T17:09:50.001Z</time></trkpt><trkpt lat="45.79053964441165" lon="9.416904649998582"><ele>209.0</ele><time>2026-04-03T17:09:51.001Z</time></trkpt><trkpt lat="45.7906258513432" lon="9.416758275387876"><ele>209.0</ele><time>2026-04-03T17:09:52.001Z</time></trkpt><trkpt lat="45.79065795090473" lon="9.416555127848644"><ele>209.0</ele><time>2026-04-03T17:09:53.001Z</time></trkpt><trkpt lat="45.79073729492466" lon="9.41640220911088"><ele>209.0</ele><time>2026-04-03T17:09:54.001Z</time></trkpt><trkpt lat="45.79081990779997" lon="9.416256162167139"><ele>209.0</ele><time>2026-04-03T17:09:55.001Z</time></trkpt><trkpt lat="45.79089805562238" lon="9.416121007337042"><ele>209.25</ele><time>2026-04-03T17:09:56.001Z</time></trkpt><trkpt lat="45.79097675979083" lon="9.415992691980852"><ele>209.5</ele><time>2026-04-03T17:09:57.001Z</time></trkpt><trkpt lat="45.79105225074467" lon="9.41586618008874"><ele>209.75</ele><time>2026-04-03T17:09:58.001Z</time></trkpt><trkpt lat="45.79112843215306" lon="9.415729870621208"><ele>210.0</ele><time>2026-04-03T17:09:59.001Z</time></trkpt><trkpt lat="45.791203666881415" lon="9.41559089376296"><ele>209.75</ele><time>2026-04-03T17:10:00.001Z</time></trkpt><trkpt lat="45.7912809026894" lon="9.4154569085229"><ele>209.5</ele><time>2026-04-03T17:10:01.001Z</time></trkpt><trkpt lat="45.79136093472272" lon="9.415326015081398"><ele>209.25</ele><time>2026-04-03T17:10:02.001Z</time></trkpt><trkpt lat="45.79143744437776" lon="9.415196296343431"><ele>209.0</ele><time>2026-04-03T17:10:03.001Z</time></trkpt><trkpt lat="45.791518046867054" lon="9.415066949590633"><ele>209.0</ele><time>2026-04-03T17:10:04.001Z</time></trkpt><trkpt lat="45.791601646737895" lon="9.414937331698178"><ele>209.0</ele><time>2026-04-03T17:10:05.001Z</time></trkpt><trkpt lat="45.79168988900356" lon="9.41480983390005"><ele>209.0</ele><time>2026-04-03T17:10:06.001Z</time></trkpt><trkpt lat="45.791778734221275" lon="9.414680391226554"><ele>209.0</ele><time>2026-04-03T17:10:07.001Z</time></trkpt><trkpt lat="45.79187050794837" lon="9.41455422131069"><ele>208.75</ele><time>2026-04-03T17:10:08.001Z</time></trkpt><trkpt lat="45.791958259539584" lon="9.414438441996104"><ele>208.5</ele><time>2026-04-03T17:10:09.001Z</time></trkpt><trkpt lat="45.792043669528354" lon="9.41433608794566"><ele>208.25</ele><time>2026-04-03T17:10:10.001Z</time></trkpt><trkpt lat="45.79213325996131" lon="9.414238601255693"><ele>208.0</ele><time>2026-04-03T17:10:11.001Z</time></trkpt><trkpt lat="45.79223293945583" lon="9.414140445250265"><ele>208.0</ele><time>2026-04-03T17:10:12.001Z</time></trkpt><trkpt lat="45.79233592684049" lon="9.414041885036873"><ele>208.0</ele><time>2026-04-03T17:10:13.001Z</time></trkpt><trkpt lat="45.79243987815666" lon="9.413946550795492"><ele>208.0</ele><time>2026-04-03T17:10:14.001Z</time></trkpt><trkpt lat="45.792541466456704" lon="9.413847496510808"><ele>208.0</ele><time>2026-04-03T17:10:15.001Z</time></trkpt><trkpt lat="45.79264125660018" lon="9.413753929007408"><ele>208.75</ele><time>2026-04-03T17:10:16.001Z</time></trkpt><trkpt lat="45.79274077227707" lon="9.413664347592999"><ele>209.5</ele><time>2026-04-03T17:10:17.001Z</time></trkpt><trkpt lat="45.79284214806718" lon="9.413582550999886"><ele>210.25</ele><time>2026-04-03T17:10:18.001Z</time></trkpt><trkpt lat="45.79294932833027" lon="9.41352019634481"><ele>211.0</ele><time>2026-04-03T17:10:19.001Z</time></trkpt><trkpt lat="45.793065444989075" lon="9.413476329758302"><ele>211.0</ele><time>2026-04-03T17:10:20.001Z</time></trkpt><trkpt lat="45.79318485636024" lon="9.413428195816326"><ele>211.0</ele><time>2026-04-03T17:10:21.001Z</time></trkpt><trkpt lat="45.79330573220158" lon="9.413370004025097"><ele>211.0</ele><time>2026-04-03T17:10:22.001Z</time></trkpt><trkpt lat="45.793430494747255" lon="9.413304979734946"><ele>211.0</ele><time>2026-04-03T17:10:23.001Z</time></trkpt><trkpt lat="45.7935603359801" lon="9.41323762153395"><ele>210.75</ele><time>2026-04-03T17:10:24.001Z</time></trkpt><trkpt lat="45.793692204835146" lon="9.413170410770116"><ele>210.5</ele><time>2026-04-03T17:10:25.001Z</time></trkpt><trkpt lat="45.79382703814072" lon="9.41310452191491"><ele>210.25</ele><time>2026-04-03T17:10:26Z</time></trkpt><trkpt lat="45.79396410322896" lon="9.413037142833891"><ele>210.0</ele><time>2026-04-03T17:10:27Z</time></trkpt><trkpt lat="45.794099584756395" lon="9.412963700131508"><ele>211.0</ele><time>2026-04-03T17:10:28Z</time></trkpt><trkpt lat="45.794239560466586" lon="9.412875564354517"><ele>212.0</ele><time>2026-04-03T17:10:29Z</time></trkpt><trkpt lat="45.79439941798805" lon="9.412783643280708"><ele>213.0</ele><time>2026-04-03T17:10:30Z</time></trkpt><trkpt lat="45.7945471773824" lon="9.412713023042489"><ele>213.25</ele><time>2026-04-03T17:10:31Z</time></trkpt><trkpt lat="45.79468078566807" lon="9.412658257820247"><ele>213.5</ele><time>2026-04-03T17:10:32Z</time></trkpt><trkpt lat="45.794801082620545" lon="9.412611745996417"><ele>213.75</ele><time>2026-04-03T17:10:33Z</time></trkpt><trkpt lat="45.794905725340385" lon="9.41256955938645"><ele>214.0</ele><time>2026-04-03T17:10:34Z</time></trkpt><trkpt lat="45.79498918953605" lon="9.412540619858547"><ele>213.99999999999997</ele><time>2026-04-03T17:10:35Z</time></trkpt><trkpt lat="45.795054061644166" lon="9.412527614090314"><ele>214.0</ele><time>2026-04-03T17:10:36Z</time></trkpt><trkpt lat="45.79515650500864" lon="9.41260601769432"><ele>214.0</ele><time>2026-04-03T17:10:38Z</time></trkpt><trkpt lat="45.79518143377655" lon="9.412692624828418"><ele>214.0</ele><time>2026-04-03T17:10:39Z</time></trkpt><trkpt lat="45.79518560547562" lon="9.412796214976943"><ele>213.99999999999997</ele><time>2026-04-03T17:10:40Z</time></trkpt><trkpt lat="45.79519015020532" lon="9.412901719526582"><ele>214.0</ele><time>2026-04-03T17:10:41Z</time></trkpt><trkpt lat="45.79521550911895" lon="9.413002989710533"><ele>213.0</ele><time>2026-04-03T17:10:42Z</time></trkpt></trkseg></trk></gpx>